<?xml version="1.0" encoding="UTF-8" standalone="no" ?>
<gpx xmlns="http://www.topografix.com/GPX/1/1" xmlns:xsi="http://www.w3.org/2001/XMLSchema-instance" xsi:schemaLocation="http://www.topografix.com/GPX/1/1 http://www.topografix.com/GPX/1/1/gpx.xsd" version="1.1" creator="VisuGPX - https://www.visugpx.com">
  <metadata>
    <name>MaXi-Race 2021 - Ultra-Race sur TraceDeTrail.fr</name>
  </metadata>
  <trk>
    <name><![CDATA[MaXi-Race 2021 - Ultra-Race sur TraceDeTrail.fr]]></name>
    <trkseg>
      <trkpt lat="45.90443" lon="6.14808">
        <ele>447</ele>
        <time>2000-01-01T00:57:38.000Z</time>
      </trkpt>
      <trkpt lat="45.90443" lon="6.14781">
        <ele>447.9</ele>
        <time>2000-01-01T00:57:48.000Z</time>
      </trkpt>
      <trkpt lat="45.90442" lon="6.14762">
        <ele>448</ele>
        <time>2000-01-01T00:57:58.000Z</time>
      </trkpt>
      <trkpt lat="45.90443" lon="6.14754">
        <ele>447.9</ele>
        <time>2000-01-01T00:58:08.000Z</time>
      </trkpt>
      <trkpt lat="45.90447" lon="6.14745">
        <ele>448</ele>
        <time>2000-01-01T00:58:18.000Z</time>
      </trkpt>
      <trkpt lat="45.90453" lon="6.14733">
        <ele>448</ele>
        <time>2000-01-01T00:58:28.000Z</time>
      </trkpt>
      <trkpt lat="45.90459" lon="6.14722">
        <ele>448.5</ele>
        <time>2000-01-01T00:58:38.000Z</time>
      </trkpt>
      <trkpt lat="45.9046" lon="6.14718">
        <ele>448.6</ele>
        <time>2000-01-01T00:58:48.000Z</time>
      </trkpt>
      <trkpt lat="45.9046" lon="6.14714">
        <ele>448.6</ele>
        <time>2000-01-01T00:58:58.000Z</time>
      </trkpt>
      <trkpt lat="45.90456" lon="6.14689">
        <ele>448</ele>
        <time>2000-01-01T00:59:08.000Z</time>
      </trkpt>
      <trkpt lat="45.90456" lon="6.14684">
        <ele>448.4</ele>
        <time>2000-01-01T00:59:18.000Z</time>
      </trkpt>
      <trkpt lat="45.90454" lon="6.14664">
        <ele>448.4</ele>
        <time>2000-01-01T00:59:28.000Z</time>
      </trkpt>
      <trkpt lat="45.90454" lon="6.14655">
        <ele>448</ele>
        <time>2000-01-01T00:59:38.000Z</time>
      </trkpt>
      <trkpt lat="45.90453" lon="6.1465">
        <ele>448.7</ele>
        <time>2000-01-01T00:59:48.000Z</time>
      </trkpt>
      <trkpt lat="45.90453" lon="6.14621">
        <ele>448</ele>
        <time>2000-01-01T00:59:58.000Z</time>
      </trkpt>
      <trkpt lat="45.90454" lon="6.14608">
        <ele>448.6</ele>
        <time>2000-01-01T01:00:08.000Z</time>
      </trkpt>
      <trkpt lat="45.90454" lon="6.14594">
        <ele>448</ele>
        <time>2000-01-01T01:00:18.000Z</time>
      </trkpt>
      <trkpt lat="45.90454" lon="6.14584">
        <ele>448</ele>
        <time>2000-01-01T01:00:28.000Z</time>
      </trkpt>
      <trkpt lat="45.90458" lon="6.1456">
        <ele>448</ele>
        <time>2000-01-01T01:00:38.000Z</time>
      </trkpt>
      <trkpt lat="45.90459" lon="6.1455">
        <ele>448</ele>
        <time>2000-01-01T01:00:48.000Z</time>
      </trkpt>
      <trkpt lat="45.9046" lon="6.14541">
        <ele>448</ele>
        <time>2000-01-01T01:00:58.000Z</time>
      </trkpt>
      <trkpt lat="45.90462" lon="6.14524">
        <ele>448</ele>
        <time>2000-01-01T01:01:08.000Z</time>
      </trkpt>
      <trkpt lat="45.90465" lon="6.1451">
        <ele>448</ele>
        <time>2000-01-01T01:01:18.000Z</time>
      </trkpt>
      <trkpt lat="45.90471" lon="6.14481">
        <ele>448</ele>
        <time>2000-01-01T01:01:28.000Z</time>
      </trkpt>
      <trkpt lat="45.90475" lon="6.14467">
        <ele>448</ele>
        <time>2000-01-01T01:01:38.000Z</time>
      </trkpt>
      <trkpt lat="45.90479" lon="6.14453">
        <ele>448</ele>
        <time>2000-01-01T01:01:48.000Z</time>
      </trkpt>
      <trkpt lat="45.9049" lon="6.1441">
        <ele>448</ele>
        <time>2000-01-01T01:01:58.000Z</time>
      </trkpt>
      <trkpt lat="45.90492" lon="6.14396">
        <ele>448</ele>
        <time>2000-01-01T01:02:08.000Z</time>
      </trkpt>
      <trkpt lat="45.90496" lon="6.14381">
        <ele>448</ele>
        <time>2000-01-01T01:02:18.000Z</time>
      </trkpt>
      <trkpt lat="45.90501" lon="6.14365">
        <ele>448</ele>
        <time>2000-01-01T01:02:28.000Z</time>
      </trkpt>
      <trkpt lat="45.90506" lon="6.14335">
        <ele>448</ele>
        <time>2000-01-01T01:02:38.000Z</time>
      </trkpt>
      <trkpt lat="45.90507" lon="6.14322">
        <ele>448</ele>
        <time>2000-01-01T01:02:48.000Z</time>
      </trkpt>
      <trkpt lat="45.90509" lon="6.14307">
        <ele>448</ele>
        <time>2000-01-01T01:02:58.000Z</time>
      </trkpt>
      <trkpt lat="45.90509" lon="6.14292">
        <ele>448</ele>
        <time>2000-01-01T01:03:08.000Z</time>
      </trkpt>
      <trkpt lat="45.90507" lon="6.14278">
        <ele>447</ele>
        <time>2000-01-01T01:03:18.000Z</time>
      </trkpt>
      <trkpt lat="45.90504" lon="6.14263">
        <ele>448</ele>
        <time>2000-01-01T01:03:28.000Z</time>
      </trkpt>
      <trkpt lat="45.90489" lon="6.14206">
        <ele>447</ele>
        <time>2000-01-01T01:03:38.000Z</time>
      </trkpt>
      <trkpt lat="45.90482" lon="6.14177">
        <ele>447</ele>
        <time>2000-01-01T01:03:48.000Z</time>
      </trkpt>
      <trkpt lat="45.90478" lon="6.14164">
        <ele>448</ele>
        <time>2000-01-01T01:03:58.000Z</time>
      </trkpt>
      <trkpt lat="45.90475" lon="6.1415">
        <ele>447</ele>
        <time>2000-01-01T01:04:08.000Z</time>
      </trkpt>
      <trkpt lat="45.90471" lon="6.14138">
        <ele>448</ele>
        <time>2000-01-01T01:04:18.000Z</time>
      </trkpt>
      <trkpt lat="45.90463" lon="6.14106">
        <ele>447</ele>
        <time>2000-01-01T01:04:28.000Z</time>
      </trkpt>
      <trkpt lat="45.90459" lon="6.14085">
        <ele>448</ele>
        <time>2000-01-01T01:04:38.000Z</time>
      </trkpt>
      <trkpt lat="45.90458" lon="6.14065">
        <ele>447</ele>
        <time>2000-01-01T01:04:48.000Z</time>
      </trkpt>
      <trkpt lat="45.9045" lon="6.14034">
        <ele>447</ele>
        <time>2000-01-01T01:04:58.000Z</time>
      </trkpt>
      <trkpt lat="45.90444" lon="6.14005">
        <ele>447</ele>
        <time>2000-01-01T01:05:08.000Z</time>
      </trkpt>
      <trkpt lat="45.9044" lon="6.13992">
        <ele>447.8</ele>
        <time>2000-01-01T01:05:18.000Z</time>
      </trkpt>
      <trkpt lat="45.90435" lon="6.1397">
        <ele>447</ele>
        <time>2000-01-01T01:05:28.000Z</time>
      </trkpt>
      <trkpt lat="45.90431" lon="6.13956">
        <ele>447.5</ele>
        <time>2000-01-01T01:05:38.000Z</time>
      </trkpt>
      <trkpt lat="45.90426" lon="6.13926">
        <ele>447</ele>
        <time>2000-01-01T01:05:48.000Z</time>
      </trkpt>
      <trkpt lat="45.90422" lon="6.13912">
        <ele>448.2</ele>
        <time>2000-01-01T01:05:58.000Z</time>
      </trkpt>
      <trkpt lat="45.90414" lon="6.13901">
        <ele>447</ele>
        <time>2000-01-01T01:06:08.000Z</time>
      </trkpt>
      <trkpt lat="45.90409" lon="6.13888">
        <ele>447.7</ele>
        <time>2000-01-01T01:06:18.000Z</time>
      </trkpt>
      <trkpt lat="45.90404" lon="6.13874">
        <ele>447</ele>
        <time>2000-01-01T01:06:28.000Z</time>
      </trkpt>
      <trkpt lat="45.90399" lon="6.13863">
        <ele>447.4</ele>
        <time>2000-01-01T01:06:38.000Z</time>
      </trkpt>
      <trkpt lat="45.90394" lon="6.13849">
        <ele>447</ele>
        <time>2000-01-01T01:06:48.000Z</time>
      </trkpt>
      <trkpt lat="45.9039" lon="6.13835">
        <ele>447</ele>
        <time>2000-01-01T01:06:58.000Z</time>
      </trkpt>
      <trkpt lat="45.90382" lon="6.1381">
        <ele>447</ele>
        <time>2000-01-01T01:07:08.000Z</time>
      </trkpt>
      <trkpt lat="45.90375" lon="6.13782">
        <ele>446</ele>
        <time>2000-01-01T01:07:18.000Z</time>
      </trkpt>
      <trkpt lat="45.90369" lon="6.1376">
        <ele>447.3</ele>
        <time>2000-01-01T01:07:28.000Z</time>
      </trkpt>
      <trkpt lat="45.90359" lon="6.13725">
        <ele>446</ele>
        <time>2000-01-01T01:07:38.000Z</time>
      </trkpt>
      <trkpt lat="45.90356" lon="6.13712">
        <ele>447.8</ele>
        <time>2000-01-01T01:07:48.000Z</time>
      </trkpt>
      <trkpt lat="45.90352" lon="6.13699">
        <ele>446</ele>
        <time>2000-01-01T01:07:58.000Z</time>
      </trkpt>
      <trkpt lat="45.9035" lon="6.13685">
        <ele>447.6</ele>
        <time>2000-01-01T01:08:08.000Z</time>
      </trkpt>
      <trkpt lat="45.90346" lon="6.13671">
        <ele>446</ele>
        <time>2000-01-01T01:08:18.000Z</time>
      </trkpt>
      <trkpt lat="45.90336" lon="6.13627">
        <ele>447</ele>
        <time>2000-01-01T01:08:28.000Z</time>
      </trkpt>
      <trkpt lat="45.90322" lon="6.13579">
        <ele>447</ele>
        <time>2000-01-01T01:08:38.000Z</time>
      </trkpt>
      <trkpt lat="45.90312" lon="6.1355">
        <ele>447</ele>
        <time>2000-01-01T01:08:48.000Z</time>
      </trkpt>
      <trkpt lat="45.90309" lon="6.13541">
        <ele>448</ele>
        <time>2000-01-01T01:08:58.000Z</time>
      </trkpt>
      <trkpt lat="45.90305" lon="6.13524">
        <ele>447</ele>
        <time>2000-01-01T01:09:08.000Z</time>
      </trkpt>
      <trkpt lat="45.90299" lon="6.13512">
        <ele>447.9</ele>
        <time>2000-01-01T01:09:18.000Z</time>
      </trkpt>
      <trkpt lat="45.90279" lon="6.13479">
        <ele>447</ele>
        <time>2000-01-01T01:09:28.000Z</time>
      </trkpt>
      <trkpt lat="45.9026" lon="6.13455">
        <ele>447</ele>
        <time>2000-01-01T01:09:38.000Z</time>
      </trkpt>
      <trkpt lat="45.90243" lon="6.13437">
        <ele>447</ele>
        <time>2000-01-01T01:09:48.000Z</time>
      </trkpt>
      <trkpt lat="45.90227" lon="6.13418">
        <ele>447</ele>
        <time>2000-01-01T01:09:58.000Z</time>
      </trkpt>
      <trkpt lat="45.90213" lon="6.13399">
        <ele>447</ele>
        <time>2000-01-01T01:10:08.000Z</time>
      </trkpt>
      <trkpt lat="45.90199" lon="6.13379">
        <ele>447</ele>
        <time>2000-01-01T01:10:18.000Z</time>
      </trkpt>
      <trkpt lat="45.90181" lon="6.13346">
        <ele>447</ele>
        <time>2000-01-01T01:10:28.000Z</time>
      </trkpt>
      <trkpt lat="45.90175" lon="6.13335">
        <ele>447.7</ele>
        <time>2000-01-01T01:10:38.000Z</time>
      </trkpt>
      <trkpt lat="45.90149" lon="6.13293">
        <ele>447</ele>
        <time>2000-01-01T01:10:48.000Z</time>
      </trkpt>
      <trkpt lat="45.90139" lon="6.13271">
        <ele>447</ele>
        <time>2000-01-01T01:10:58.000Z</time>
      </trkpt>
      <trkpt lat="45.9013" lon="6.13257">
        <ele>447.7</ele>
        <time>2000-01-01T01:11:08.000Z</time>
      </trkpt>
      <trkpt lat="45.90122" lon="6.13247">
        <ele>447</ele>
        <time>2000-01-01T01:11:18.000Z</time>
      </trkpt>
      <trkpt lat="45.90095" lon="6.1322">
        <ele>447</ele>
        <time>2000-01-01T01:11:28.000Z</time>
      </trkpt>
      <trkpt lat="45.90092" lon="6.13218">
        <ele>448</ele>
        <time>2000-01-01T01:11:38.000Z</time>
      </trkpt>
      <trkpt lat="45.90076" lon="6.132">
        <ele>447</ele>
        <time>2000-01-01T01:11:48.000Z</time>
      </trkpt>
      <trkpt lat="45.90065" lon="6.13192">
        <ele>448</ele>
        <time>2000-01-01T01:11:58.000Z</time>
      </trkpt>
      <trkpt lat="45.90053" lon="6.13179">
        <ele>447</ele>
        <time>2000-01-01T01:12:08.000Z</time>
      </trkpt>
      <trkpt lat="45.90041" lon="6.13165">
        <ele>447.5</ele>
        <time>2000-01-01T01:12:18.000Z</time>
      </trkpt>
      <trkpt lat="45.9003" lon="6.13146">
        <ele>447</ele>
        <time>2000-01-01T01:12:28.000Z</time>
      </trkpt>
      <trkpt lat="45.90028" lon="6.13141">
        <ele>447</ele>
        <time>2000-01-01T01:12:38.000Z</time>
      </trkpt>
      <trkpt lat="45.90026" lon="6.13139">
        <ele>447.1</ele>
        <time>2000-01-01T01:12:48.000Z</time>
      </trkpt>
      <trkpt lat="45.90023" lon="6.13139">
        <ele>447.2</ele>
        <time>2000-01-01T01:12:58.000Z</time>
      </trkpt>
      <trkpt lat="45.90017" lon="6.1314">
        <ele>447.4</ele>
        <time>2000-01-01T01:13:08.000Z</time>
      </trkpt>
      <trkpt lat="45.90012" lon="6.13139">
        <ele>447</ele>
        <time>2000-01-01T01:13:18.000Z</time>
      </trkpt>
      <trkpt lat="45.89998" lon="6.13117">
        <ele>448</ele>
        <time>2000-01-01T01:13:28.000Z</time>
      </trkpt>
      <trkpt lat="45.89989" lon="6.13107">
        <ele>448</ele>
        <time>2000-01-01T01:13:38.000Z</time>
      </trkpt>
      <trkpt lat="45.89972" lon="6.1309">
        <ele>448</ele>
        <time>2000-01-01T01:13:48.000Z</time>
      </trkpt>
      <trkpt lat="45.89964" lon="6.1308">
        <ele>448.1</ele>
        <time>2000-01-01T01:13:58.000Z</time>
      </trkpt>
      <trkpt lat="45.89956" lon="6.13068">
        <ele>448</ele>
        <time>2000-01-01T01:14:08.000Z</time>
      </trkpt>
      <trkpt lat="45.89952" lon="6.13059">
        <ele>448.2</ele>
        <time>2000-01-01T01:14:18.000Z</time>
      </trkpt>
      <trkpt lat="45.89937" lon="6.13035">
        <ele>448</ele>
        <time>2000-01-01T01:14:28.000Z</time>
      </trkpt>
      <trkpt lat="45.89931" lon="6.13023">
        <ele>448</ele>
        <time>2000-01-01T01:14:38.000Z</time>
      </trkpt>
      <trkpt lat="45.89924" lon="6.13017">
        <ele>448</ele>
        <time>2000-01-01T01:14:48.000Z</time>
      </trkpt>
      <trkpt lat="45.8992" lon="6.13017">
        <ele>448</ele>
        <time>2000-01-01T01:14:58.000Z</time>
      </trkpt>
      <trkpt lat="45.89909" lon="6.13019">
        <ele>448</ele>
        <time>2000-01-01T01:15:08.000Z</time>
      </trkpt>
      <trkpt lat="45.89898" lon="6.13017">
        <ele>448</ele>
        <time>2000-01-01T01:15:18.000Z</time>
      </trkpt>
      <trkpt lat="45.89879" lon="6.12996">
        <ele>448</ele>
        <time>2000-01-01T01:15:28.000Z</time>
      </trkpt>
      <trkpt lat="45.89873" lon="6.12985">
        <ele>448</ele>
        <time>2000-01-01T01:15:38.000Z</time>
      </trkpt>
      <trkpt lat="45.89863" lon="6.12972">
        <ele>448</ele>
        <time>2000-01-01T01:15:48.000Z</time>
      </trkpt>
      <trkpt lat="45.89855" lon="6.1296">
        <ele>447.8</ele>
        <time>2000-01-01T01:15:58.000Z</time>
      </trkpt>
      <trkpt lat="45.89841" lon="6.12933">
        <ele>447</ele>
        <time>2000-01-01T01:16:08.000Z</time>
      </trkpt>
      <trkpt lat="45.89838" lon="6.12919">
        <ele>447.2</ele>
        <time>2000-01-01T01:16:18.000Z</time>
      </trkpt>
      <trkpt lat="45.89835" lon="6.12918">
        <ele>447.1</ele>
        <time>2000-01-01T01:16:28.000Z</time>
      </trkpt>
      <trkpt lat="45.89833" lon="6.12919">
        <ele>447</ele>
        <time>2000-01-01T01:16:38.000Z</time>
      </trkpt>
      <trkpt lat="45.89822" lon="6.12919">
        <ele>447</ele>
        <time>2000-01-01T01:16:48.000Z</time>
      </trkpt>
      <trkpt lat="45.89816" lon="6.12919">
        <ele>447.6</ele>
        <time>2000-01-01T01:16:58.000Z</time>
      </trkpt>
      <trkpt lat="45.89812" lon="6.12934">
        <ele>447.8</ele>
        <time>2000-01-01T01:17:08.000Z</time>
      </trkpt>
      <trkpt lat="45.89812" lon="6.12949">
        <ele>447</ele>
        <time>2000-01-01T01:17:18.000Z</time>
      </trkpt>
      <trkpt lat="45.89813" lon="6.12962">
        <ele>447.7</ele>
        <time>2000-01-01T01:17:28.000Z</time>
      </trkpt>
      <trkpt lat="45.89812" lon="6.12976">
        <ele>447</ele>
        <time>2000-01-01T01:17:38.000Z</time>
      </trkpt>
      <trkpt lat="45.89811" lon="6.12989">
        <ele>447.8</ele>
        <time>2000-01-01T01:17:48.000Z</time>
      </trkpt>
      <trkpt lat="45.89812" lon="6.1301">
        <ele>447</ele>
        <time>2000-01-01T01:17:58.000Z</time>
      </trkpt>
      <trkpt lat="45.89812" lon="6.13026">
        <ele>447.8</ele>
        <time>2000-01-01T01:18:08.000Z</time>
      </trkpt>
      <trkpt lat="45.89812" lon="6.1303">
        <ele>447.8</ele>
        <time>2000-01-01T01:18:18.000Z</time>
      </trkpt>
      <trkpt lat="45.89813" lon="6.13044">
        <ele>447</ele>
        <time>2000-01-01T01:18:28.000Z</time>
      </trkpt>
      <trkpt lat="45.89814" lon="6.13059">
        <ele>447.7</ele>
        <time>2000-01-01T01:18:38.000Z</time>
      </trkpt>
      <trkpt lat="45.89817" lon="6.13072">
        <ele>447</ele>
        <time>2000-01-01T01:18:48.000Z</time>
      </trkpt>
      <trkpt lat="45.89818" lon="6.13087">
        <ele>447.6</ele>
        <time>2000-01-01T01:18:58.000Z</time>
      </trkpt>
      <trkpt lat="45.89816" lon="6.13097">
        <ele>447.6</ele>
        <time>2000-01-01T01:19:08.000Z</time>
      </trkpt>
      <trkpt lat="45.89812" lon="6.13112">
        <ele>447</ele>
        <time>2000-01-01T01:19:18.000Z</time>
      </trkpt>
      <trkpt lat="45.89809" lon="6.13132">
        <ele>447.9</ele>
        <time>2000-01-01T01:19:28.000Z</time>
      </trkpt>
      <trkpt lat="45.89808" lon="6.13152">
        <ele>447</ele>
        <time>2000-01-01T01:19:38.000Z</time>
      </trkpt>
      <trkpt lat="45.89807" lon="6.13184">
        <ele>447</ele>
        <time>2000-01-01T01:19:48.000Z</time>
      </trkpt>
      <trkpt lat="45.89805" lon="6.13199">
        <ele>447.8</ele>
        <time>2000-01-01T01:19:58.000Z</time>
      </trkpt>
      <trkpt lat="45.89804" lon="6.13218">
        <ele>447</ele>
        <time>2000-01-01T01:20:08.000Z</time>
      </trkpt>
      <trkpt lat="45.89797" lon="6.13249">
        <ele>447</ele>
        <time>2000-01-01T01:20:18.000Z</time>
      </trkpt>
      <trkpt lat="45.89788" lon="6.13276">
        <ele>447</ele>
        <time>2000-01-01T01:20:28.000Z</time>
      </trkpt>
      <trkpt lat="45.89781" lon="6.13292">
        <ele>447.4</ele>
        <time>2000-01-01T01:20:38.000Z</time>
      </trkpt>
      <trkpt lat="45.89771" lon="6.13312">
        <ele>447</ele>
        <time>2000-01-01T01:20:48.000Z</time>
      </trkpt>
      <trkpt lat="45.89762" lon="6.13326">
        <ele>447.6</ele>
        <time>2000-01-01T01:20:58.000Z</time>
      </trkpt>
      <trkpt lat="45.89749" lon="6.13342">
        <ele>447</ele>
        <time>2000-01-01T01:21:08.000Z</time>
      </trkpt>
      <trkpt lat="45.89727" lon="6.13367">
        <ele>447</ele>
        <time>2000-01-01T01:21:18.000Z</time>
      </trkpt>
      <trkpt lat="45.89709" lon="6.13391">
        <ele>447</ele>
        <time>2000-01-01T01:21:28.000Z</time>
      </trkpt>
      <trkpt lat="45.89698" lon="6.13402">
        <ele>447.5</ele>
        <time>2000-01-01T01:21:38.000Z</time>
      </trkpt>
      <trkpt lat="45.89691" lon="6.13412">
        <ele>447</ele>
        <time>2000-01-01T01:21:48.000Z</time>
      </trkpt>
      <trkpt lat="45.89674" lon="6.13429">
        <ele>447</ele>
        <time>2000-01-01T01:21:58.000Z</time>
      </trkpt>
      <trkpt lat="45.89666" lon="6.13438">
        <ele>447.2</ele>
        <time>2000-01-01T01:22:08.000Z</time>
      </trkpt>
      <trkpt lat="45.89654" lon="6.13453">
        <ele>447</ele>
        <time>2000-01-01T01:22:18.000Z</time>
      </trkpt>
      <trkpt lat="45.89643" lon="6.13464">
        <ele>447</ele>
        <time>2000-01-01T01:22:28.000Z</time>
      </trkpt>
      <trkpt lat="45.89638" lon="6.13469">
        <ele>447</ele>
        <time>2000-01-01T01:22:38.000Z</time>
      </trkpt>
      <trkpt lat="45.89629" lon="6.13474">
        <ele>447</ele>
        <time>2000-01-01T01:22:48.000Z</time>
      </trkpt>
      <trkpt lat="45.89625" lon="6.13473">
        <ele>447</ele>
        <time>2000-01-01T01:22:58.000Z</time>
      </trkpt>
      <trkpt lat="45.89622" lon="6.13471">
        <ele>447</ele>
        <time>2000-01-01T01:23:08.000Z</time>
      </trkpt>
      <trkpt lat="45.89615" lon="6.13462">
        <ele>447</ele>
        <time>2000-01-01T01:23:18.000Z</time>
      </trkpt>
      <trkpt lat="45.89591" lon="6.13419">
        <ele>447</ele>
        <time>2000-01-01T01:23:28.000Z</time>
      </trkpt>
      <trkpt lat="45.89584" lon="6.13404">
        <ele>448</ele>
        <time>2000-01-01T01:23:38.000Z</time>
      </trkpt>
      <trkpt lat="45.89567" lon="6.13377">
        <ele>448</ele>
        <time>2000-01-01T01:23:48.000Z</time>
      </trkpt>
      <trkpt lat="45.89559" lon="6.13359">
        <ele>448</ele>
        <time>2000-01-01T01:23:58.000Z</time>
      </trkpt>
      <trkpt lat="45.89523" lon="6.13396">
        <ele>448</ele>
        <time>2000-01-01T01:24:08.000Z</time>
      </trkpt>
      <trkpt lat="45.89517" lon="6.13395">
        <ele>448</ele>
        <time>2000-01-01T01:24:18.000Z</time>
      </trkpt>
      <trkpt lat="45.89509" lon="6.13388">
        <ele>448</ele>
        <time>2000-01-01T01:24:28.000Z</time>
      </trkpt>
      <trkpt lat="45.89451" lon="6.13453">
        <ele>448</ele>
        <time>2000-01-01T01:24:38.000Z</time>
      </trkpt>
      <trkpt lat="45.89443" lon="6.1346">
        <ele>448</ele>
        <time>2000-01-01T01:24:48.000Z</time>
      </trkpt>
      <trkpt lat="45.8942" lon="6.13493">
        <ele>448</ele>
        <time>2000-01-01T01:24:58.000Z</time>
      </trkpt>
      <trkpt lat="45.8941" lon="6.13513">
        <ele>448</ele>
        <time>2000-01-01T01:25:08.000Z</time>
      </trkpt>
      <trkpt lat="45.8933" lon="6.13628">
        <ele>447</ele>
        <time>2000-01-01T01:25:18.000Z</time>
      </trkpt>
      <trkpt lat="45.89311" lon="6.13657">
        <ele>447</ele>
        <time>2000-01-01T01:25:28.000Z</time>
      </trkpt>
      <trkpt lat="45.89297" lon="6.13671">
        <ele>448</ele>
        <time>2000-01-01T01:25:38.000Z</time>
      </trkpt>
      <trkpt lat="45.89274" lon="6.13711">
        <ele>448</ele>
        <time>2000-01-01T01:25:48.000Z</time>
      </trkpt>
      <trkpt lat="45.89262" lon="6.13729">
        <ele>448</ele>
        <time>2000-01-01T01:25:58.000Z</time>
      </trkpt>
      <trkpt lat="45.89233" lon="6.13681">
        <ele>448</ele>
        <time>2000-01-01T01:26:08.000Z</time>
      </trkpt>
      <trkpt lat="45.89214" lon="6.13653">
        <ele>451</ele>
        <time>2000-01-01T01:26:18.000Z</time>
      </trkpt>
      <trkpt lat="45.89186" lon="6.13612">
        <ele>457</ele>
        <time>2000-01-01T01:26:28.000Z</time>
      </trkpt>
      <trkpt lat="45.8918" lon="6.13581">
        <ele>461</ele>
        <time>2000-01-01T01:26:38.000Z</time>
      </trkpt>
      <trkpt lat="45.89157" lon="6.13579">
        <ele>463</ele>
        <time>2000-01-01T01:26:48.000Z</time>
      </trkpt>
      <trkpt lat="45.89133" lon="6.13576">
        <ele>464</ele>
        <time>2000-01-01T01:26:58.000Z</time>
      </trkpt>
      <trkpt lat="45.89103" lon="6.13552">
        <ele>471</ele>
        <time>2000-01-01T01:27:08.000Z</time>
      </trkpt>
      <trkpt lat="45.8908" lon="6.13531">
        <ele>481</ele>
        <time>2000-01-01T01:27:18.000Z</time>
      </trkpt>
      <trkpt lat="45.89064" lon="6.13479">
        <ele>499</ele>
        <time>2000-01-01T01:27:28.000Z</time>
      </trkpt>
      <trkpt lat="45.89053" lon="6.13447">
        <ele>507</ele>
        <time>2000-01-01T01:27:38.000Z</time>
      </trkpt>
      <trkpt lat="45.8904" lon="6.13427">
        <ele>517</ele>
        <time>2000-01-01T01:27:48.000Z</time>
      </trkpt>
      <trkpt lat="45.89032" lon="6.13394">
        <ele>521</ele>
        <time>2000-01-01T01:27:58.000Z</time>
      </trkpt>
      <trkpt lat="45.89024" lon="6.13358">
        <ele>528</ele>
        <time>2000-01-01T01:28:08.000Z</time>
      </trkpt>
      <trkpt lat="45.89024" lon="6.13348">
        <ele>527.7</ele>
        <time>2000-01-01T01:28:18.000Z</time>
      </trkpt>
      <trkpt lat="45.89017" lon="6.13335">
        <ele>528</ele>
        <time>2000-01-01T01:28:28.000Z</time>
      </trkpt>
      <trkpt lat="45.88989" lon="6.13328">
        <ele>527</ele>
        <time>2000-01-01T01:28:38.000Z</time>
      </trkpt>
      <trkpt lat="45.89004" lon="6.1327">
        <ele>527</ele>
        <time>2000-01-01T01:28:48.000Z</time>
      </trkpt>
      <trkpt lat="45.89011" lon="6.13257">
        <ele>527.4</ele>
        <time>2000-01-01T01:28:58.000Z</time>
      </trkpt>
      <trkpt lat="45.89011" lon="6.13247">
        <ele>527.6</ele>
        <time>2000-01-01T01:29:08.000Z</time>
      </trkpt>
      <trkpt lat="45.89015" lon="6.13232">
        <ele>528</ele>
        <time>2000-01-01T01:29:18.000Z</time>
      </trkpt>
      <trkpt lat="45.89012" lon="6.13216">
        <ele>529.5</ele>
        <time>2000-01-01T01:29:28.000Z</time>
      </trkpt>
      <trkpt lat="45.89013" lon="6.13186">
        <ele>531</ele>
        <time>2000-01-01T01:29:38.000Z</time>
      </trkpt>
      <trkpt lat="45.8901" lon="6.13173">
        <ele>533.9</ele>
        <time>2000-01-01T01:29:48.000Z</time>
      </trkpt>
      <trkpt lat="45.89007" lon="6.13144">
        <ele>543</ele>
        <time>2000-01-01T01:29:58.000Z</time>
      </trkpt>
      <trkpt lat="45.89005" lon="6.13132">
        <ele>540.5</ele>
        <time>2000-01-01T01:30:08.000Z</time>
      </trkpt>
      <trkpt lat="45.89005" lon="6.13116">
        <ele>544</ele>
        <time>2000-01-01T01:30:18.000Z</time>
      </trkpt>
      <trkpt lat="45.89003" lon="6.13102">
        <ele>543.3</ele>
        <time>2000-01-01T01:30:28.000Z</time>
      </trkpt>
      <trkpt lat="45.89003" lon="6.13087">
        <ele>545</ele>
        <time>2000-01-01T01:30:38.000Z</time>
      </trkpt>
      <trkpt lat="45.89003" lon="6.13073">
        <ele>545.3</ele>
        <time>2000-01-01T01:30:48.000Z</time>
      </trkpt>
      <trkpt lat="45.89005" lon="6.13058">
        <ele>544</ele>
        <time>2000-01-01T01:30:58.000Z</time>
      </trkpt>
      <trkpt lat="45.88994" lon="6.13015">
        <ele>543</ele>
        <time>2000-01-01T01:31:08.000Z</time>
      </trkpt>
      <trkpt lat="45.88998" lon="6.12985">
        <ele>543</ele>
        <time>2000-01-01T01:31:18.000Z</time>
      </trkpt>
      <trkpt lat="45.89001" lon="6.12971">
        <ele>538.9</ele>
        <time>2000-01-01T01:31:28.000Z</time>
      </trkpt>
      <trkpt lat="45.89006" lon="6.12956">
        <ele>539</ele>
        <time>2000-01-01T01:31:38.000Z</time>
      </trkpt>
      <trkpt lat="45.89013" lon="6.12927">
        <ele>536</ele>
        <time>2000-01-01T01:31:48.000Z</time>
      </trkpt>
      <trkpt lat="45.89018" lon="6.12912">
        <ele>536.6</ele>
        <time>2000-01-01T01:31:58.000Z</time>
      </trkpt>
      <trkpt lat="45.89019" lon="6.12895">
        <ele>536</ele>
        <time>2000-01-01T01:32:08.000Z</time>
      </trkpt>
      <trkpt lat="45.89017" lon="6.12881">
        <ele>533.9</ele>
        <time>2000-01-01T01:32:18.000Z</time>
      </trkpt>
      <trkpt lat="45.89009" lon="6.12869">
        <ele>530</ele>
        <time>2000-01-01T01:32:28.000Z</time>
      </trkpt>
      <trkpt lat="45.89" lon="6.12858">
        <ele>530.7</ele>
        <time>2000-01-01T01:32:38.000Z</time>
      </trkpt>
      <trkpt lat="45.88993" lon="6.12845">
        <ele>530</ele>
        <time>2000-01-01T01:32:48.000Z</time>
      </trkpt>
      <trkpt lat="45.88989" lon="6.1283">
        <ele>532.1</ele>
        <time>2000-01-01T01:32:58.000Z</time>
      </trkpt>
      <trkpt lat="45.88985" lon="6.12802">
        <ele>538</ele>
        <time>2000-01-01T01:33:08.000Z</time>
      </trkpt>
      <trkpt lat="45.88985" lon="6.12787">
        <ele>534.8</ele>
        <time>2000-01-01T01:33:18.000Z</time>
      </trkpt>
      <trkpt lat="45.88982" lon="6.12774">
        <ele>540</ele>
        <time>2000-01-01T01:33:28.000Z</time>
      </trkpt>
      <trkpt lat="45.88976" lon="6.12764">
        <ele>539</ele>
        <time>2000-01-01T01:33:38.000Z</time>
      </trkpt>
      <trkpt lat="45.88968" lon="6.12756">
        <ele>544</ele>
        <time>2000-01-01T01:33:48.000Z</time>
      </trkpt>
      <trkpt lat="45.88959" lon="6.12751">
        <ele>543.9</ele>
        <time>2000-01-01T01:33:58.000Z</time>
      </trkpt>
      <trkpt lat="45.88939" lon="6.12733">
        <ele>544</ele>
        <time>2000-01-01T01:34:08.000Z</time>
      </trkpt>
      <trkpt lat="45.88923" lon="6.12717">
        <ele>544</ele>
        <time>2000-01-01T01:34:18.000Z</time>
      </trkpt>
      <trkpt lat="45.88915" lon="6.12707">
        <ele>544.5</ele>
        <time>2000-01-01T01:34:28.000Z</time>
      </trkpt>
      <trkpt lat="45.88907" lon="6.12698">
        <ele>543</ele>
        <time>2000-01-01T01:34:38.000Z</time>
      </trkpt>
      <trkpt lat="45.88898" lon="6.1269">
        <ele>545.5</ele>
        <time>2000-01-01T01:34:48.000Z</time>
      </trkpt>
      <trkpt lat="45.88889" lon="6.12684">
        <ele>542</ele>
        <time>2000-01-01T01:34:58.000Z</time>
      </trkpt>
      <trkpt lat="45.88879" lon="6.12689">
        <ele>545.8</ele>
        <time>2000-01-01T01:35:08.000Z</time>
      </trkpt>
      <trkpt lat="45.88869" lon="6.12688">
        <ele>540</ele>
        <time>2000-01-01T01:35:18.000Z</time>
      </trkpt>
      <trkpt lat="45.8886" lon="6.12682">
        <ele>541.5</ele>
        <time>2000-01-01T01:35:28.000Z</time>
      </trkpt>
      <trkpt lat="45.88852" lon="6.12675">
        <ele>541</ele>
        <time>2000-01-01T01:35:38.000Z</time>
      </trkpt>
      <trkpt lat="45.88846" lon="6.12662">
        <ele>540</ele>
        <time>2000-01-01T01:35:48.000Z</time>
      </trkpt>
      <trkpt lat="45.88828" lon="6.12641">
        <ele>543</ele>
        <time>2000-01-01T01:35:58.000Z</time>
      </trkpt>
      <trkpt lat="45.88805" lon="6.1261">
        <ele>551</ele>
        <time>2000-01-01T01:36:08.000Z</time>
      </trkpt>
      <trkpt lat="45.88796" lon="6.12601">
        <ele>551.3</ele>
        <time>2000-01-01T01:36:18.000Z</time>
      </trkpt>
      <trkpt lat="45.88788" lon="6.1259">
        <ele>557</ele>
        <time>2000-01-01T01:36:28.000Z</time>
      </trkpt>
      <trkpt lat="45.8878" lon="6.12581">
        <ele>555.9</ele>
        <time>2000-01-01T01:36:38.000Z</time>
      </trkpt>
      <trkpt lat="45.88772" lon="6.12575">
        <ele>560</ele>
        <time>2000-01-01T01:36:48.000Z</time>
      </trkpt>
      <trkpt lat="45.88764" lon="6.12568">
        <ele>562.6</ele>
        <time>2000-01-01T01:36:58.000Z</time>
      </trkpt>
      <trkpt lat="45.88756" lon="6.1256">
        <ele>564</ele>
        <time>2000-01-01T01:37:08.000Z</time>
      </trkpt>
      <trkpt lat="45.88742" lon="6.1254">
        <ele>570</ele>
        <time>2000-01-01T01:37:18.000Z</time>
      </trkpt>
      <trkpt lat="45.88735" lon="6.12532">
        <ele>567.6</ele>
        <time>2000-01-01T01:37:28.000Z</time>
      </trkpt>
      <trkpt lat="45.88726" lon="6.12528">
        <ele>570</ele>
        <time>2000-01-01T01:37:38.000Z</time>
      </trkpt>
      <trkpt lat="45.88704" lon="6.12521">
        <ele>578</ele>
        <time>2000-01-01T01:37:48.000Z</time>
      </trkpt>
      <trkpt lat="45.88695" lon="6.12516">
        <ele>578.1</ele>
        <time>2000-01-01T01:37:58.000Z</time>
      </trkpt>
      <trkpt lat="45.88686" lon="6.12513">
        <ele>578.2</ele>
        <time>2000-01-01T01:38:08.000Z</time>
      </trkpt>
      <trkpt lat="45.88678" lon="6.1252">
        <ele>583</ele>
        <time>2000-01-01T01:38:18.000Z</time>
      </trkpt>
      <trkpt lat="45.88669" lon="6.12524">
        <ele>585.7</ele>
        <time>2000-01-01T01:38:28.000Z</time>
      </trkpt>
      <trkpt lat="45.8866" lon="6.12525">
        <ele>587.8</ele>
        <time>2000-01-01T01:38:38.000Z</time>
      </trkpt>
      <trkpt lat="45.8865" lon="6.12523">
        <ele>588</ele>
        <time>2000-01-01T01:38:48.000Z</time>
      </trkpt>
      <trkpt lat="45.8864" lon="6.12526">
        <ele>591.9</ele>
        <time>2000-01-01T01:38:58.000Z</time>
      </trkpt>
      <trkpt lat="45.88633" lon="6.12535">
        <ele>593</ele>
        <time>2000-01-01T01:39:08.000Z</time>
      </trkpt>
      <trkpt lat="45.88624" lon="6.12541">
        <ele>598.8</ele>
        <time>2000-01-01T01:39:18.000Z</time>
      </trkpt>
      <trkpt lat="45.88613" lon="6.12543">
        <ele>597</ele>
        <time>2000-01-01T01:39:28.000Z</time>
      </trkpt>
      <trkpt lat="45.88604" lon="6.12547">
        <ele>602</ele>
        <time>2000-01-01T01:39:38.000Z</time>
      </trkpt>
      <trkpt lat="45.88594" lon="6.12547">
        <ele>601</ele>
        <time>2000-01-01T01:39:48.000Z</time>
      </trkpt>
      <trkpt lat="45.88584" lon="6.12543">
        <ele>604</ele>
        <time>2000-01-01T01:39:58.000Z</time>
      </trkpt>
      <trkpt lat="45.88573" lon="6.1254">
        <ele>607</ele>
        <time>2000-01-01T01:40:08.000Z</time>
      </trkpt>
      <trkpt lat="45.88564" lon="6.12533">
        <ele>608.7</ele>
        <time>2000-01-01T01:40:18.000Z</time>
      </trkpt>
      <trkpt lat="45.88555" lon="6.12529">
        <ele>613</ele>
        <time>2000-01-01T01:40:28.000Z</time>
      </trkpt>
      <trkpt lat="45.88547" lon="6.12522">
        <ele>616.7</ele>
        <time>2000-01-01T01:40:38.000Z</time>
      </trkpt>
      <trkpt lat="45.88539" lon="6.12512">
        <ele>618</ele>
        <time>2000-01-01T01:40:48.000Z</time>
      </trkpt>
      <trkpt lat="45.88529" lon="6.12505">
        <ele>625.1</ele>
        <time>2000-01-01T01:40:58.000Z</time>
      </trkpt>
      <trkpt lat="45.88521" lon="6.12495">
        <ele>624</ele>
        <time>2000-01-01T01:41:08.000Z</time>
      </trkpt>
      <trkpt lat="45.88515" lon="6.12484">
        <ele>625.1</ele>
        <time>2000-01-01T01:41:18.000Z</time>
      </trkpt>
      <trkpt lat="45.88507" lon="6.12476">
        <ele>625</ele>
        <time>2000-01-01T01:41:28.000Z</time>
      </trkpt>
      <trkpt lat="45.88499" lon="6.12465">
        <ele>625.7</ele>
        <time>2000-01-01T01:41:38.000Z</time>
      </trkpt>
      <trkpt lat="45.88491" lon="6.12457">
        <ele>626</ele>
        <time>2000-01-01T01:41:48.000Z</time>
      </trkpt>
      <trkpt lat="45.88473" lon="6.12444">
        <ele>632</ele>
        <time>2000-01-01T01:41:58.000Z</time>
      </trkpt>
      <trkpt lat="45.88464" lon="6.12438">
        <ele>635.4</ele>
        <time>2000-01-01T01:42:08.000Z</time>
      </trkpt>
      <trkpt lat="45.88447" lon="6.12427">
        <ele>638</ele>
        <time>2000-01-01T01:42:18.000Z</time>
      </trkpt>
      <trkpt lat="45.88439" lon="6.12423">
        <ele>639.7</ele>
        <time>2000-01-01T01:42:28.000Z</time>
      </trkpt>
      <trkpt lat="45.88431" lon="6.12416">
        <ele>639.4</ele>
        <time>2000-01-01T01:42:38.000Z</time>
      </trkpt>
      <trkpt lat="45.88422" lon="6.12412">
        <ele>639</ele>
        <time>2000-01-01T01:42:48.000Z</time>
      </trkpt>
      <trkpt lat="45.88411" lon="6.1241">
        <ele>642.6</ele>
        <time>2000-01-01T01:42:58.000Z</time>
      </trkpt>
      <trkpt lat="45.88402" lon="6.12407">
        <ele>640</ele>
        <time>2000-01-01T01:43:08.000Z</time>
      </trkpt>
      <trkpt lat="45.88393" lon="6.12407">
        <ele>645.9</ele>
        <time>2000-01-01T01:43:18.000Z</time>
      </trkpt>
      <trkpt lat="45.88384" lon="6.12399">
        <ele>640</ele>
        <time>2000-01-01T01:43:28.000Z</time>
      </trkpt>
      <trkpt lat="45.88364" lon="6.12396">
        <ele>646</ele>
        <time>2000-01-01T01:43:38.000Z</time>
      </trkpt>
      <trkpt lat="45.88355" lon="6.12392">
        <ele>648</ele>
        <time>2000-01-01T01:43:48.000Z</time>
      </trkpt>
      <trkpt lat="45.88346" lon="6.12391">
        <ele>647</ele>
        <time>2000-01-01T01:43:58.000Z</time>
      </trkpt>
      <trkpt lat="45.88336" lon="6.12388">
        <ele>650.7</ele>
        <time>2000-01-01T01:44:08.000Z</time>
      </trkpt>
      <trkpt lat="45.88324" lon="6.12388">
        <ele>649</ele>
        <time>2000-01-01T01:44:18.000Z</time>
      </trkpt>
      <trkpt lat="45.88314" lon="6.12385">
        <ele>654.3</ele>
        <time>2000-01-01T01:44:28.000Z</time>
      </trkpt>
      <trkpt lat="45.88295" lon="6.12381">
        <ele>655</ele>
        <time>2000-01-01T01:44:38.000Z</time>
      </trkpt>
      <trkpt lat="45.88286" lon="6.12375">
        <ele>655.6</ele>
        <time>2000-01-01T01:44:48.000Z</time>
      </trkpt>
      <trkpt lat="45.88277" lon="6.12372">
        <ele>658</ele>
        <time>2000-01-01T01:44:58.000Z</time>
      </trkpt>
      <trkpt lat="45.88258" lon="6.12368">
        <ele>660</ele>
        <time>2000-01-01T01:45:08.000Z</time>
      </trkpt>
      <trkpt lat="45.88248" lon="6.12369">
        <ele>664</ele>
        <time>2000-01-01T01:45:18.000Z</time>
      </trkpt>
      <trkpt lat="45.88228" lon="6.12363">
        <ele>662</ele>
        <time>2000-01-01T01:45:28.000Z</time>
      </trkpt>
      <trkpt lat="45.88217" lon="6.12362">
        <ele>667</ele>
        <time>2000-01-01T01:45:38.000Z</time>
      </trkpt>
      <trkpt lat="45.882" lon="6.12351">
        <ele>664</ele>
        <time>2000-01-01T01:45:48.000Z</time>
      </trkpt>
      <trkpt lat="45.8819" lon="6.12348">
        <ele>663.8</ele>
        <time>2000-01-01T01:45:58.000Z</time>
      </trkpt>
      <trkpt lat="45.88162" lon="6.12343">
        <ele>672</ele>
        <time>2000-01-01T01:46:08.000Z</time>
      </trkpt>
      <trkpt lat="45.88133" lon="6.12341">
        <ele>679</ele>
        <time>2000-01-01T01:46:18.000Z</time>
      </trkpt>
      <trkpt lat="45.88124" lon="6.12337">
        <ele>680.2</ele>
        <time>2000-01-01T01:46:28.000Z</time>
      </trkpt>
      <trkpt lat="45.88102" lon="6.12337">
        <ele>679</ele>
        <time>2000-01-01T01:46:38.000Z</time>
      </trkpt>
      <trkpt lat="45.88094" lon="6.12333">
        <ele>683.8</ele>
        <time>2000-01-01T01:46:48.000Z</time>
      </trkpt>
      <trkpt lat="45.88074" lon="6.12329">
        <ele>680</ele>
        <time>2000-01-01T01:46:58.000Z</time>
      </trkpt>
      <trkpt lat="45.88063" lon="6.12331">
        <ele>688.7</ele>
        <time>2000-01-01T01:47:08.000Z</time>
      </trkpt>
      <trkpt lat="45.88045" lon="6.12339">
        <ele>683</ele>
        <time>2000-01-01T01:47:18.000Z</time>
      </trkpt>
      <trkpt lat="45.88035" lon="6.12337">
        <ele>693.3</ele>
        <time>2000-01-01T01:47:28.000Z</time>
      </trkpt>
      <trkpt lat="45.88025" lon="6.12337">
        <ele>686</ele>
        <time>2000-01-01T01:47:38.000Z</time>
      </trkpt>
      <trkpt lat="45.88014" lon="6.12339">
        <ele>695.7</ele>
        <time>2000-01-01T01:47:48.000Z</time>
      </trkpt>
      <trkpt lat="45.88003" lon="6.12344">
        <ele>689</ele>
        <time>2000-01-01T01:47:58.000Z</time>
      </trkpt>
      <trkpt lat="45.87984" lon="6.12347">
        <ele>693</ele>
        <time>2000-01-01T01:48:08.000Z</time>
      </trkpt>
      <trkpt lat="45.87973" lon="6.12346">
        <ele>697.4</ele>
        <time>2000-01-01T01:48:18.000Z</time>
      </trkpt>
      <trkpt lat="45.87945" lon="6.12331">
        <ele>699</ele>
        <time>2000-01-01T01:48:28.000Z</time>
      </trkpt>
      <trkpt lat="45.87936" lon="6.1233">
        <ele>698.2</ele>
        <time>2000-01-01T01:48:38.000Z</time>
      </trkpt>
      <trkpt lat="45.87918" lon="6.12342">
        <ele>707</ele>
        <time>2000-01-01T01:48:48.000Z</time>
      </trkpt>
      <trkpt lat="45.87908" lon="6.12343">
        <ele>712.2</ele>
        <time>2000-01-01T01:48:58.000Z</time>
      </trkpt>
      <trkpt lat="45.87898" lon="6.12339">
        <ele>707</ele>
        <time>2000-01-01T01:49:08.000Z</time>
      </trkpt>
      <trkpt lat="45.8789" lon="6.12331">
        <ele>710.7</ele>
        <time>2000-01-01T01:49:18.000Z</time>
      </trkpt>
      <trkpt lat="45.8788" lon="6.12329">
        <ele>708</ele>
        <time>2000-01-01T01:49:28.000Z</time>
      </trkpt>
      <trkpt lat="45.8787" lon="6.12324">
        <ele>712</ele>
        <time>2000-01-01T01:49:38.000Z</time>
      </trkpt>
      <trkpt lat="45.87861" lon="6.12317">
        <ele>708</ele>
        <time>2000-01-01T01:49:48.000Z</time>
      </trkpt>
      <trkpt lat="45.87842" lon="6.12307">
        <ele>709</ele>
        <time>2000-01-01T01:49:58.000Z</time>
      </trkpt>
      <trkpt lat="45.87815" lon="6.12291">
        <ele>712</ele>
        <time>2000-01-01T01:50:08.000Z</time>
      </trkpt>
      <trkpt lat="45.87805" lon="6.12289">
        <ele>715.9</ele>
        <time>2000-01-01T01:50:18.000Z</time>
      </trkpt>
      <trkpt lat="45.87795" lon="6.12289">
        <ele>717</ele>
        <time>2000-01-01T01:50:28.000Z</time>
      </trkpt>
      <trkpt lat="45.87776" lon="6.12284">
        <ele>727</ele>
        <time>2000-01-01T01:50:38.000Z</time>
      </trkpt>
      <trkpt lat="45.87766" lon="6.12279">
        <ele>727.3</ele>
        <time>2000-01-01T01:50:48.000Z</time>
      </trkpt>
      <trkpt lat="45.87757" lon="6.12275">
        <ele>729</ele>
        <time>2000-01-01T01:50:58.000Z</time>
      </trkpt>
      <trkpt lat="45.87746" lon="6.12269">
        <ele>730.2</ele>
        <time>2000-01-01T01:51:08.000Z</time>
      </trkpt>
      <trkpt lat="45.87737" lon="6.12266">
        <ele>731</ele>
        <time>2000-01-01T01:51:18.000Z</time>
      </trkpt>
      <trkpt lat="45.87726" lon="6.12264">
        <ele>735.6</ele>
        <time>2000-01-01T01:51:28.000Z</time>
      </trkpt>
      <trkpt lat="45.87717" lon="6.12265">
        <ele>740</ele>
        <time>2000-01-01T01:51:38.000Z</time>
      </trkpt>
      <trkpt lat="45.87706" lon="6.12264">
        <ele>744.3</ele>
        <time>2000-01-01T01:51:48.000Z</time>
      </trkpt>
      <trkpt lat="45.87688" lon="6.12256">
        <ele>753</ele>
        <time>2000-01-01T01:51:58.000Z</time>
      </trkpt>
      <trkpt lat="45.87679" lon="6.1225">
        <ele>752.9</ele>
        <time>2000-01-01T01:52:08.000Z</time>
      </trkpt>
      <trkpt lat="45.8767" lon="6.12245">
        <ele>753</ele>
        <time>2000-01-01T01:52:18.000Z</time>
      </trkpt>
      <trkpt lat="45.87662" lon="6.12239">
        <ele>757.1</ele>
        <time>2000-01-01T01:52:28.000Z</time>
      </trkpt>
      <trkpt lat="45.87651" lon="6.12234">
        <ele>754</ele>
        <time>2000-01-01T01:52:38.000Z</time>
      </trkpt>
      <trkpt lat="45.87637" lon="6.12216">
        <ele>756</ele>
        <time>2000-01-01T01:52:48.000Z</time>
      </trkpt>
      <trkpt lat="45.87628" lon="6.1221">
        <ele>758.9</ele>
        <time>2000-01-01T01:52:58.000Z</time>
      </trkpt>
      <trkpt lat="45.87621" lon="6.12202">
        <ele>756</ele>
        <time>2000-01-01T01:53:08.000Z</time>
      </trkpt>
      <trkpt lat="45.87613" lon="6.12194">
        <ele>756.8</ele>
        <time>2000-01-01T01:53:18.000Z</time>
      </trkpt>
      <trkpt lat="45.87602" lon="6.12188">
        <ele>756</ele>
        <time>2000-01-01T01:53:28.000Z</time>
      </trkpt>
      <trkpt lat="45.87593" lon="6.12186">
        <ele>765.6</ele>
        <time>2000-01-01T01:53:38.000Z</time>
      </trkpt>
      <trkpt lat="45.87575" lon="6.12175">
        <ele>770</ele>
        <time>2000-01-01T01:53:48.000Z</time>
      </trkpt>
      <trkpt lat="45.87558" lon="6.12158">
        <ele>772</ele>
        <time>2000-01-01T01:53:58.000Z</time>
      </trkpt>
      <trkpt lat="45.8754" lon="6.12143">
        <ele>774</ele>
        <time>2000-01-01T01:54:08.000Z</time>
      </trkpt>
      <trkpt lat="45.87531" lon="6.12136">
        <ele>783.1</ele>
        <time>2000-01-01T01:54:18.000Z</time>
      </trkpt>
      <trkpt lat="45.87522" lon="6.12132">
        <ele>786</ele>
        <time>2000-01-01T01:54:28.000Z</time>
      </trkpt>
      <trkpt lat="45.87514" lon="6.12125">
        <ele>787.4</ele>
        <time>2000-01-01T01:54:38.000Z</time>
      </trkpt>
      <trkpt lat="45.87503" lon="6.12121">
        <ele>790</ele>
        <time>2000-01-01T01:54:48.000Z</time>
      </trkpt>
      <trkpt lat="45.87494" lon="6.12117">
        <ele>792.8</ele>
        <time>2000-01-01T01:54:58.000Z</time>
      </trkpt>
      <trkpt lat="45.87477" lon="6.12103">
        <ele>790</ele>
        <time>2000-01-01T01:55:08.000Z</time>
      </trkpt>
      <trkpt lat="45.8747" lon="6.12095">
        <ele>793.1</ele>
        <time>2000-01-01T01:55:18.000Z</time>
      </trkpt>
      <trkpt lat="45.87461" lon="6.12088">
        <ele>790</ele>
        <time>2000-01-01T01:55:28.000Z</time>
      </trkpt>
      <trkpt lat="45.87453" lon="6.12081">
        <ele>794</ele>
        <time>2000-01-01T01:55:38.000Z</time>
      </trkpt>
      <trkpt lat="45.87436" lon="6.12066">
        <ele>794</ele>
        <time>2000-01-01T01:55:48.000Z</time>
      </trkpt>
      <trkpt lat="45.87411" lon="6.12046">
        <ele>794</ele>
        <time>2000-01-01T01:55:58.000Z</time>
      </trkpt>
      <trkpt lat="45.87404" lon="6.12035">
        <ele>795.4</ele>
        <time>2000-01-01T01:56:08.000Z</time>
      </trkpt>
      <trkpt lat="45.87397" lon="6.12028">
        <ele>794</ele>
        <time>2000-01-01T01:56:18.000Z</time>
      </trkpt>
      <trkpt lat="45.87387" lon="6.12026">
        <ele>798.2</ele>
        <time>2000-01-01T01:56:28.000Z</time>
      </trkpt>
      <trkpt lat="45.87377" lon="6.12021">
        <ele>803</ele>
        <time>2000-01-01T01:56:38.000Z</time>
      </trkpt>
      <trkpt lat="45.87368" lon="6.12017">
        <ele>804</ele>
        <time>2000-01-01T01:56:48.000Z</time>
      </trkpt>
      <trkpt lat="45.87359" lon="6.12012">
        <ele>809</ele>
        <time>2000-01-01T01:56:58.000Z</time>
      </trkpt>
      <trkpt lat="45.87336" lon="6.11989">
        <ele>811</ele>
        <time>2000-01-01T01:57:08.000Z</time>
      </trkpt>
      <trkpt lat="45.87329" lon="6.11978">
        <ele>811.3</ele>
        <time>2000-01-01T01:57:18.000Z</time>
      </trkpt>
      <trkpt lat="45.87322" lon="6.11971">
        <ele>811</ele>
        <time>2000-01-01T01:57:28.000Z</time>
      </trkpt>
      <trkpt lat="45.87313" lon="6.11964">
        <ele>811.5</ele>
        <time>2000-01-01T01:57:38.000Z</time>
      </trkpt>
      <trkpt lat="45.87304" lon="6.1196">
        <ele>812</ele>
        <time>2000-01-01T01:57:48.000Z</time>
      </trkpt>
      <trkpt lat="45.87285" lon="6.11947">
        <ele>813</ele>
        <time>2000-01-01T01:57:58.000Z</time>
      </trkpt>
      <trkpt lat="45.87275" lon="6.11942">
        <ele>815.9</ele>
        <time>2000-01-01T01:58:08.000Z</time>
      </trkpt>
      <trkpt lat="45.87266" lon="6.11935">
        <ele>815</ele>
        <time>2000-01-01T01:58:18.000Z</time>
      </trkpt>
      <trkpt lat="45.87257" lon="6.11934">
        <ele>818.2</ele>
        <time>2000-01-01T01:58:28.000Z</time>
      </trkpt>
      <trkpt lat="45.8722" lon="6.11912">
        <ele>825</ele>
        <time>2000-01-01T01:58:38.000Z</time>
      </trkpt>
      <trkpt lat="45.8721" lon="6.11909">
        <ele>825.4</ele>
        <time>2000-01-01T01:58:48.000Z</time>
      </trkpt>
      <trkpt lat="45.87172" lon="6.11892">
        <ele>834</ele>
        <time>2000-01-01T01:58:58.000Z</time>
      </trkpt>
      <trkpt lat="45.87163" lon="6.11885">
        <ele>836.2</ele>
        <time>2000-01-01T01:59:08.000Z</time>
      </trkpt>
      <trkpt lat="45.87154" lon="6.11883">
        <ele>838</ele>
        <time>2000-01-01T01:59:18.000Z</time>
      </trkpt>
      <trkpt lat="45.87144" lon="6.11886">
        <ele>843</ele>
        <time>2000-01-01T01:59:28.000Z</time>
      </trkpt>
      <trkpt lat="45.87137" lon="6.11895">
        <ele>846</ele>
        <time>2000-01-01T01:59:38.000Z</time>
      </trkpt>
      <trkpt lat="45.8713" lon="6.11921">
        <ele>851</ele>
        <time>2000-01-01T01:59:48.000Z</time>
      </trkpt>
      <trkpt lat="45.8713" lon="6.11934">
        <ele>857.3</ele>
        <time>2000-01-01T01:59:58.000Z</time>
      </trkpt>
      <trkpt lat="45.87121" lon="6.11939">
        <ele>855</ele>
        <time>2000-01-01T02:00:08.000Z</time>
      </trkpt>
      <trkpt lat="45.87112" lon="6.11933">
        <ele>853.5</ele>
        <time>2000-01-01T02:00:18.000Z</time>
      </trkpt>
      <trkpt lat="45.87102" lon="6.11928">
        <ele>856</ele>
        <time>2000-01-01T02:00:28.000Z</time>
      </trkpt>
      <trkpt lat="45.87083" lon="6.11922">
        <ele>860</ele>
        <time>2000-01-01T02:00:38.000Z</time>
      </trkpt>
      <trkpt lat="45.87072" lon="6.11919">
        <ele>860.2</ele>
        <time>2000-01-01T02:00:48.000Z</time>
      </trkpt>
      <trkpt lat="45.87056" lon="6.11918">
        <ele>862</ele>
        <time>2000-01-01T02:00:58.000Z</time>
      </trkpt>
      <trkpt lat="45.87034" lon="6.11914">
        <ele>864</ele>
        <time>2000-01-01T02:01:08.000Z</time>
      </trkpt>
      <trkpt lat="45.87025" lon="6.1191">
        <ele>863.5</ele>
        <time>2000-01-01T02:01:18.000Z</time>
      </trkpt>
      <trkpt lat="45.87014" lon="6.11905">
        <ele>865</ele>
        <time>2000-01-01T02:01:28.000Z</time>
      </trkpt>
      <trkpt lat="45.87005" lon="6.11897">
        <ele>864.1</ele>
        <time>2000-01-01T02:01:38.000Z</time>
      </trkpt>
      <trkpt lat="45.86996" lon="6.11892">
        <ele>865</ele>
        <time>2000-01-01T02:01:48.000Z</time>
      </trkpt>
      <trkpt lat="45.86976" lon="6.11883">
        <ele>865</ele>
        <time>2000-01-01T02:01:58.000Z</time>
      </trkpt>
      <trkpt lat="45.86952" lon="6.11855">
        <ele>867</ele>
        <time>2000-01-01T02:02:08.000Z</time>
      </trkpt>
      <trkpt lat="45.86944" lon="6.11849">
        <ele>870.3</ele>
        <time>2000-01-01T02:02:18.000Z</time>
      </trkpt>
      <trkpt lat="45.86922" lon="6.11845">
        <ele>866</ele>
        <time>2000-01-01T02:02:28.000Z</time>
      </trkpt>
      <trkpt lat="45.86913" lon="6.11848">
        <ele>869.6</ele>
        <time>2000-01-01T02:02:38.000Z</time>
      </trkpt>
      <trkpt lat="45.86902" lon="6.11846">
        <ele>866</ele>
        <time>2000-01-01T02:02:48.000Z</time>
      </trkpt>
      <trkpt lat="45.86892" lon="6.11843">
        <ele>864.1</ele>
        <time>2000-01-01T02:02:58.000Z</time>
      </trkpt>
      <trkpt lat="45.86884" lon="6.11837">
        <ele>867</ele>
        <time>2000-01-01T02:03:08.000Z</time>
      </trkpt>
      <trkpt lat="45.86873" lon="6.11831">
        <ele>865.6</ele>
        <time>2000-01-01T02:03:18.000Z</time>
      </trkpt>
      <trkpt lat="45.86853" lon="6.11828">
        <ele>866</ele>
        <time>2000-01-01T02:03:28.000Z</time>
      </trkpt>
      <trkpt lat="45.86843" lon="6.11828">
        <ele>867.5</ele>
        <time>2000-01-01T02:03:38.000Z</time>
      </trkpt>
      <trkpt lat="45.86833" lon="6.11826">
        <ele>865</ele>
        <time>2000-01-01T02:03:48.000Z</time>
      </trkpt>
      <trkpt lat="45.86813" lon="6.1183">
        <ele>862</ele>
        <time>2000-01-01T02:03:58.000Z</time>
      </trkpt>
      <trkpt lat="45.86803" lon="6.11834">
        <ele>859.3</ele>
        <time>2000-01-01T02:04:08.000Z</time>
      </trkpt>
      <trkpt lat="45.86793" lon="6.11833">
        <ele>855</ele>
        <time>2000-01-01T02:04:18.000Z</time>
      </trkpt>
      <trkpt lat="45.86783" lon="6.11829">
        <ele>854.1</ele>
        <time>2000-01-01T02:04:28.000Z</time>
      </trkpt>
      <trkpt lat="45.86772" lon="6.11824">
        <ele>851</ele>
        <time>2000-01-01T02:04:38.000Z</time>
      </trkpt>
      <trkpt lat="45.86765" lon="6.11812">
        <ele>850.8</ele>
        <time>2000-01-01T02:04:48.000Z</time>
      </trkpt>
      <trkpt lat="45.86754" lon="6.1179">
        <ele>846</ele>
        <time>2000-01-01T02:04:58.000Z</time>
      </trkpt>
      <trkpt lat="45.86747" lon="6.11799">
        <ele>845.6</ele>
        <time>2000-01-01T02:05:08.000Z</time>
      </trkpt>
      <trkpt lat="45.86741" lon="6.11811">
        <ele>846</ele>
        <time>2000-01-01T02:05:18.000Z</time>
      </trkpt>
      <trkpt lat="45.86732" lon="6.11817">
        <ele>843.6</ele>
        <time>2000-01-01T02:05:28.000Z</time>
      </trkpt>
      <trkpt lat="45.86723" lon="6.11818">
        <ele>848</ele>
        <time>2000-01-01T02:05:38.000Z</time>
      </trkpt>
      <trkpt lat="45.86715" lon="6.1181">
        <ele>844.4</ele>
        <time>2000-01-01T02:05:48.000Z</time>
      </trkpt>
      <trkpt lat="45.86697" lon="6.11796">
        <ele>850</ele>
        <time>2000-01-01T02:05:58.000Z</time>
      </trkpt>
      <trkpt lat="45.86687" lon="6.11794">
        <ele>850.9</ele>
        <time>2000-01-01T02:06:08.000Z</time>
      </trkpt>
      <trkpt lat="45.86666" lon="6.11785">
        <ele>851</ele>
        <time>2000-01-01T02:06:18.000Z</time>
      </trkpt>
      <trkpt lat="45.86655" lon="6.11778">
        <ele>851</ele>
        <time>2000-01-01T02:06:28.000Z</time>
      </trkpt>
      <trkpt lat="45.86629" lon="6.11758">
        <ele>854</ele>
        <time>2000-01-01T02:06:38.000Z</time>
      </trkpt>
      <trkpt lat="45.86619" lon="6.11756">
        <ele>855.1</ele>
        <time>2000-01-01T02:06:48.000Z</time>
      </trkpt>
      <trkpt lat="45.86609" lon="6.11754">
        <ele>856</ele>
        <time>2000-01-01T02:06:58.000Z</time>
      </trkpt>
      <trkpt lat="45.86599" lon="6.11749">
        <ele>856.5</ele>
        <time>2000-01-01T02:07:08.000Z</time>
      </trkpt>
      <trkpt lat="45.86591" lon="6.11737">
        <ele>857</ele>
        <time>2000-01-01T02:07:18.000Z</time>
      </trkpt>
      <trkpt lat="45.86585" lon="6.11725">
        <ele>858.7</ele>
        <time>2000-01-01T02:07:28.000Z</time>
      </trkpt>
      <trkpt lat="45.86582" lon="6.11712">
        <ele>861</ele>
        <time>2000-01-01T02:07:38.000Z</time>
      </trkpt>
      <trkpt lat="45.86569" lon="6.1169">
        <ele>868</ele>
        <time>2000-01-01T02:07:48.000Z</time>
      </trkpt>
      <trkpt lat="45.8656" lon="6.1168">
        <ele>869</ele>
        <time>2000-01-01T02:07:58.000Z</time>
      </trkpt>
      <trkpt lat="45.86551" lon="6.11676">
        <ele>870</ele>
        <time>2000-01-01T02:08:08.000Z</time>
      </trkpt>
      <trkpt lat="45.86543" lon="6.11667">
        <ele>874.2</ele>
        <time>2000-01-01T02:08:18.000Z</time>
      </trkpt>
      <trkpt lat="45.86536" lon="6.11657">
        <ele>878</ele>
        <time>2000-01-01T02:08:28.000Z</time>
      </trkpt>
      <trkpt lat="45.8653" lon="6.11644">
        <ele>879</ele>
        <time>2000-01-01T02:08:38.000Z</time>
      </trkpt>
      <trkpt lat="45.86519" lon="6.1164">
        <ele>883</ele>
        <time>2000-01-01T02:08:48.000Z</time>
      </trkpt>
      <trkpt lat="45.86509" lon="6.11635">
        <ele>881.9</ele>
        <time>2000-01-01T02:08:58.000Z</time>
      </trkpt>
      <trkpt lat="45.86503" lon="6.11625">
        <ele>884</ele>
        <time>2000-01-01T02:09:08.000Z</time>
      </trkpt>
      <trkpt lat="45.86494" lon="6.11616">
        <ele>885.1</ele>
        <time>2000-01-01T02:09:18.000Z</time>
      </trkpt>
      <trkpt lat="45.86486" lon="6.11611">
        <ele>885</ele>
        <time>2000-01-01T02:09:28.000Z</time>
      </trkpt>
      <trkpt lat="45.86477" lon="6.11605">
        <ele>884.9</ele>
        <time>2000-01-01T02:09:38.000Z</time>
      </trkpt>
      <trkpt lat="45.86467" lon="6.11603">
        <ele>885</ele>
        <time>2000-01-01T02:09:48.000Z</time>
      </trkpt>
      <trkpt lat="45.86456" lon="6.11602">
        <ele>886</ele>
        <time>2000-01-01T02:09:58.000Z</time>
      </trkpt>
      <trkpt lat="45.86447" lon="6.11605">
        <ele>888</ele>
        <time>2000-01-01T02:10:08.000Z</time>
      </trkpt>
      <trkpt lat="45.86436" lon="6.11612">
        <ele>887.4</ele>
        <time>2000-01-01T02:10:18.000Z</time>
      </trkpt>
      <trkpt lat="45.86426" lon="6.11622">
        <ele>888</ele>
        <time>2000-01-01T02:10:28.000Z</time>
      </trkpt>
      <trkpt lat="45.86417" lon="6.11629">
        <ele>887.9</ele>
        <time>2000-01-01T02:10:38.000Z</time>
      </trkpt>
      <trkpt lat="45.86406" lon="6.11633">
        <ele>887</ele>
        <time>2000-01-01T02:10:48.000Z</time>
      </trkpt>
      <trkpt lat="45.86387" lon="6.11639">
        <ele>887</ele>
        <time>2000-01-01T02:10:58.000Z</time>
      </trkpt>
      <trkpt lat="45.86376" lon="6.11639">
        <ele>885.4</ele>
        <time>2000-01-01T02:11:08.000Z</time>
      </trkpt>
      <trkpt lat="45.86364" lon="6.11639">
        <ele>887</ele>
        <time>2000-01-01T02:11:18.000Z</time>
      </trkpt>
      <trkpt lat="45.86342" lon="6.11642">
        <ele>886</ele>
        <time>2000-01-01T02:11:28.000Z</time>
      </trkpt>
      <trkpt lat="45.86323" lon="6.11649">
        <ele>884</ele>
        <time>2000-01-01T02:11:38.000Z</time>
      </trkpt>
      <trkpt lat="45.86312" lon="6.11652">
        <ele>884</ele>
        <time>2000-01-01T02:11:48.000Z</time>
      </trkpt>
      <trkpt lat="45.86303" lon="6.11653">
        <ele>883</ele>
        <time>2000-01-01T02:11:58.000Z</time>
      </trkpt>
      <trkpt lat="45.86293" lon="6.11659">
        <ele>881.7</ele>
        <time>2000-01-01T02:12:08.000Z</time>
      </trkpt>
      <trkpt lat="45.86282" lon="6.11664">
        <ele>879</ele>
        <time>2000-01-01T02:12:18.000Z</time>
      </trkpt>
      <trkpt lat="45.86271" lon="6.11667">
        <ele>877</ele>
        <time>2000-01-01T02:12:28.000Z</time>
      </trkpt>
      <trkpt lat="45.86259" lon="6.11668">
        <ele>871</ele>
        <time>2000-01-01T02:12:38.000Z</time>
      </trkpt>
      <trkpt lat="45.86248" lon="6.11672">
        <ele>870.3</ele>
        <time>2000-01-01T02:12:48.000Z</time>
      </trkpt>
      <trkpt lat="45.86238" lon="6.11676">
        <ele>871</ele>
        <time>2000-01-01T02:12:58.000Z</time>
      </trkpt>
      <trkpt lat="45.86228" lon="6.11679">
        <ele>871.1</ele>
        <time>2000-01-01T02:13:08.000Z</time>
      </trkpt>
      <trkpt lat="45.86208" lon="6.11675">
        <ele>870</ele>
        <time>2000-01-01T02:13:18.000Z</time>
      </trkpt>
      <trkpt lat="45.86199" lon="6.11671">
        <ele>873.1</ele>
        <time>2000-01-01T02:13:28.000Z</time>
      </trkpt>
      <trkpt lat="45.86188" lon="6.11666">
        <ele>870</ele>
        <time>2000-01-01T02:13:38.000Z</time>
      </trkpt>
      <trkpt lat="45.86178" lon="6.11668">
        <ele>869.1</ele>
        <time>2000-01-01T02:13:48.000Z</time>
      </trkpt>
      <trkpt lat="45.86169" lon="6.11679">
        <ele>863</ele>
        <time>2000-01-01T02:13:58.000Z</time>
      </trkpt>
      <trkpt lat="45.86163" lon="6.11692">
        <ele>863</ele>
        <time>2000-01-01T02:14:08.000Z</time>
      </trkpt>
      <trkpt lat="45.86157" lon="6.11706">
        <ele>861</ele>
        <time>2000-01-01T02:14:18.000Z</time>
      </trkpt>
      <trkpt lat="45.86152" lon="6.11721">
        <ele>858.2</ele>
        <time>2000-01-01T02:14:28.000Z</time>
      </trkpt>
      <trkpt lat="45.86144" lon="6.11726">
        <ele>858</ele>
        <time>2000-01-01T02:14:38.000Z</time>
      </trkpt>
      <trkpt lat="45.86134" lon="6.1173">
        <ele>856.2</ele>
        <time>2000-01-01T02:14:48.000Z</time>
      </trkpt>
      <trkpt lat="45.86122" lon="6.11732">
        <ele>858</ele>
        <time>2000-01-01T02:14:58.000Z</time>
      </trkpt>
      <trkpt lat="45.86101" lon="6.11735">
        <ele>859</ele>
        <time>2000-01-01T02:15:08.000Z</time>
      </trkpt>
      <trkpt lat="45.86078" lon="6.11732">
        <ele>860</ele>
        <time>2000-01-01T02:15:18.000Z</time>
      </trkpt>
      <trkpt lat="45.86067" lon="6.11732">
        <ele>862.1</ele>
        <time>2000-01-01T02:15:28.000Z</time>
      </trkpt>
      <trkpt lat="45.86056" lon="6.11729">
        <ele>859</ele>
        <time>2000-01-01T02:15:38.000Z</time>
      </trkpt>
      <trkpt lat="45.86047" lon="6.11729">
        <ele>861.3</ele>
        <time>2000-01-01T02:15:48.000Z</time>
      </trkpt>
      <trkpt lat="45.86036" lon="6.11729">
        <ele>858</ele>
        <time>2000-01-01T02:15:58.000Z</time>
      </trkpt>
      <trkpt lat="45.86018" lon="6.11734">
        <ele>858</ele>
        <time>2000-01-01T02:16:08.000Z</time>
      </trkpt>
      <trkpt lat="45.85987" lon="6.11738">
        <ele>858</ele>
        <time>2000-01-01T02:16:18.000Z</time>
      </trkpt>
      <trkpt lat="45.85967" lon="6.11735">
        <ele>856</ele>
        <time>2000-01-01T02:16:28.000Z</time>
      </trkpt>
      <trkpt lat="45.85958" lon="6.11734">
        <ele>856.4</ele>
        <time>2000-01-01T02:16:38.000Z</time>
      </trkpt>
      <trkpt lat="45.85931" lon="6.11751">
        <ele>849</ele>
        <time>2000-01-01T02:16:48.000Z</time>
      </trkpt>
      <trkpt lat="45.85892" lon="6.11779">
        <ele>846</ele>
        <time>2000-01-01T02:16:58.000Z</time>
      </trkpt>
      <trkpt lat="45.8588" lon="6.11784">
        <ele>843.5</ele>
        <time>2000-01-01T02:17:08.000Z</time>
      </trkpt>
      <trkpt lat="45.85856" lon="6.11782">
        <ele>845</ele>
        <time>2000-01-01T02:17:18.000Z</time>
      </trkpt>
      <trkpt lat="45.85846" lon="6.11787">
        <ele>843.8</ele>
        <time>2000-01-01T02:17:28.000Z</time>
      </trkpt>
      <trkpt lat="45.85837" lon="6.11793">
        <ele>845</ele>
        <time>2000-01-01T02:17:38.000Z</time>
      </trkpt>
      <trkpt lat="45.8583" lon="6.11802">
        <ele>842.7</ele>
        <time>2000-01-01T02:17:48.000Z</time>
      </trkpt>
      <trkpt lat="45.85829" lon="6.11816">
        <ele>842</ele>
        <time>2000-01-01T02:17:58.000Z</time>
      </trkpt>
      <trkpt lat="45.85831" lon="6.11832">
        <ele>839.4</ele>
        <time>2000-01-01T02:18:08.000Z</time>
      </trkpt>
      <trkpt lat="45.85832" lon="6.11846">
        <ele>838</ele>
        <time>2000-01-01T02:18:18.000Z</time>
      </trkpt>
      <trkpt lat="45.85827" lon="6.11857">
        <ele>836.9</ele>
        <time>2000-01-01T02:18:28.000Z</time>
      </trkpt>
      <trkpt lat="45.85818" lon="6.11861">
        <ele>839</ele>
        <time>2000-01-01T02:18:38.000Z</time>
      </trkpt>
      <trkpt lat="45.85809" lon="6.11864">
        <ele>837.6</ele>
        <time>2000-01-01T02:18:48.000Z</time>
      </trkpt>
      <trkpt lat="45.8579" lon="6.11872">
        <ele>841</ele>
        <time>2000-01-01T02:18:58.000Z</time>
      </trkpt>
      <trkpt lat="45.85771" lon="6.11867">
        <ele>842</ele>
        <time>2000-01-01T02:19:08.000Z</time>
      </trkpt>
      <trkpt lat="45.8576" lon="6.11862">
        <ele>843.2</ele>
        <time>2000-01-01T02:19:18.000Z</time>
      </trkpt>
      <trkpt lat="45.85749" lon="6.11856">
        <ele>844</ele>
        <time>2000-01-01T02:19:28.000Z</time>
      </trkpt>
      <trkpt lat="45.85739" lon="6.11855">
        <ele>845</ele>
        <time>2000-01-01T02:19:38.000Z</time>
      </trkpt>
      <trkpt lat="45.85731" lon="6.11863">
        <ele>846</ele>
        <time>2000-01-01T02:19:48.000Z</time>
      </trkpt>
      <trkpt lat="45.85726" lon="6.11874">
        <ele>846.5</ele>
        <time>2000-01-01T02:19:58.000Z</time>
      </trkpt>
      <trkpt lat="45.85718" lon="6.11881">
        <ele>848</ele>
        <time>2000-01-01T02:20:08.000Z</time>
      </trkpt>
      <trkpt lat="45.85708" lon="6.11885">
        <ele>848.5</ele>
        <time>2000-01-01T02:20:18.000Z</time>
      </trkpt>
      <trkpt lat="45.85678" lon="6.11888">
        <ele>850</ele>
        <time>2000-01-01T02:20:28.000Z</time>
      </trkpt>
      <trkpt lat="45.85658" lon="6.11884">
        <ele>853</ele>
        <time>2000-01-01T02:20:38.000Z</time>
      </trkpt>
      <trkpt lat="45.85649" lon="6.11881">
        <ele>853.8</ele>
        <time>2000-01-01T02:20:48.000Z</time>
      </trkpt>
      <trkpt lat="45.85639" lon="6.11878">
        <ele>853</ele>
        <time>2000-01-01T02:20:58.000Z</time>
      </trkpt>
      <trkpt lat="45.85619" lon="6.11868">
        <ele>857</ele>
        <time>2000-01-01T02:21:08.000Z</time>
      </trkpt>
      <trkpt lat="45.8559" lon="6.11866">
        <ele>861</ele>
        <time>2000-01-01T02:21:18.000Z</time>
      </trkpt>
      <trkpt lat="45.85581" lon="6.11869">
        <ele>861.6</ele>
        <time>2000-01-01T02:21:28.000Z</time>
      </trkpt>
      <trkpt lat="45.85572" lon="6.11864">
        <ele>861</ele>
        <time>2000-01-01T02:21:38.000Z</time>
      </trkpt>
      <trkpt lat="45.85563" lon="6.11857">
        <ele>862.8</ele>
        <time>2000-01-01T02:21:48.000Z</time>
      </trkpt>
      <trkpt lat="45.85556" lon="6.11847">
        <ele>861</ele>
        <time>2000-01-01T02:21:58.000Z</time>
      </trkpt>
      <trkpt lat="45.85543" lon="6.11823">
        <ele>861</ele>
        <time>2000-01-01T02:22:08.000Z</time>
      </trkpt>
      <trkpt lat="45.85537" lon="6.11812">
        <ele>861.4</ele>
        <time>2000-01-01T02:22:18.000Z</time>
      </trkpt>
      <trkpt lat="45.85531" lon="6.11801">
        <ele>861</ele>
        <time>2000-01-01T02:22:28.000Z</time>
      </trkpt>
      <trkpt lat="45.85523" lon="6.11793">
        <ele>863</ele>
        <time>2000-01-01T02:22:38.000Z</time>
      </trkpt>
      <trkpt lat="45.85514" lon="6.1179">
        <ele>869</ele>
        <time>2000-01-01T02:22:48.000Z</time>
      </trkpt>
      <trkpt lat="45.85504" lon="6.11787">
        <ele>873.3</ele>
        <time>2000-01-01T02:22:58.000Z</time>
      </trkpt>
      <trkpt lat="45.85495" lon="6.11793">
        <ele>879</ele>
        <time>2000-01-01T02:23:08.000Z</time>
      </trkpt>
      <trkpt lat="45.85476" lon="6.11795">
        <ele>880</ele>
        <time>2000-01-01T02:23:18.000Z</time>
      </trkpt>
      <trkpt lat="45.85465" lon="6.11799">
        <ele>882.6</ele>
        <time>2000-01-01T02:23:28.000Z</time>
      </trkpt>
      <trkpt lat="45.85457" lon="6.11806">
        <ele>882</ele>
        <time>2000-01-01T02:23:38.000Z</time>
      </trkpt>
      <trkpt lat="45.85448" lon="6.11811">
        <ele>884.5</ele>
        <time>2000-01-01T02:23:48.000Z</time>
      </trkpt>
      <trkpt lat="45.85437" lon="6.11805">
        <ele>882</ele>
        <time>2000-01-01T02:23:58.000Z</time>
      </trkpt>
      <trkpt lat="45.85419" lon="6.11794">
        <ele>882</ele>
        <time>2000-01-01T02:24:08.000Z</time>
      </trkpt>
      <trkpt lat="45.85403" lon="6.11778">
        <ele>881</ele>
        <time>2000-01-01T02:24:18.000Z</time>
      </trkpt>
      <trkpt lat="45.85383" lon="6.11764">
        <ele>881</ele>
        <time>2000-01-01T02:24:28.000Z</time>
      </trkpt>
      <trkpt lat="45.85375" lon="6.11759">
        <ele>881</ele>
        <time>2000-01-01T02:24:38.000Z</time>
      </trkpt>
      <trkpt lat="45.85365" lon="6.11756">
        <ele>881</ele>
        <time>2000-01-01T02:24:48.000Z</time>
      </trkpt>
      <trkpt lat="45.8533" lon="6.11729">
        <ele>881</ele>
        <time>2000-01-01T02:24:58.000Z</time>
      </trkpt>
      <trkpt lat="45.85311" lon="6.11726">
        <ele>884</ele>
        <time>2000-01-01T02:25:08.000Z</time>
      </trkpt>
      <trkpt lat="45.85289" lon="6.11729">
        <ele>886</ele>
        <time>2000-01-01T02:25:18.000Z</time>
      </trkpt>
      <trkpt lat="45.8528" lon="6.11728">
        <ele>888.1</ele>
        <time>2000-01-01T02:25:28.000Z</time>
      </trkpt>
      <trkpt lat="45.85262" lon="6.11717">
        <ele>887</ele>
        <time>2000-01-01T02:25:38.000Z</time>
      </trkpt>
      <trkpt lat="45.85252" lon="6.1172">
        <ele>889.7</ele>
        <time>2000-01-01T02:25:48.000Z</time>
      </trkpt>
      <trkpt lat="45.85242" lon="6.11725">
        <ele>890</ele>
        <time>2000-01-01T02:25:58.000Z</time>
      </trkpt>
      <trkpt lat="45.85222" lon="6.1173">
        <ele>894</ele>
        <time>2000-01-01T02:26:08.000Z</time>
      </trkpt>
      <trkpt lat="45.85213" lon="6.11736">
        <ele>896.6</ele>
        <time>2000-01-01T02:26:18.000Z</time>
      </trkpt>
      <trkpt lat="45.85206" lon="6.11747">
        <ele>898</ele>
        <time>2000-01-01T02:26:28.000Z</time>
      </trkpt>
      <trkpt lat="45.85199" lon="6.11757">
        <ele>901.2</ele>
        <time>2000-01-01T02:26:38.000Z</time>
      </trkpt>
      <trkpt lat="45.8519" lon="6.11765">
        <ele>901</ele>
        <time>2000-01-01T02:26:48.000Z</time>
      </trkpt>
      <trkpt lat="45.8518" lon="6.11769">
        <ele>902.2</ele>
        <time>2000-01-01T02:26:58.000Z</time>
      </trkpt>
      <trkpt lat="45.8516" lon="6.1177">
        <ele>902</ele>
        <time>2000-01-01T02:27:08.000Z</time>
      </trkpt>
      <trkpt lat="45.85142" lon="6.11767">
        <ele>906.2</ele>
        <time>2000-01-01T02:27:18.000Z</time>
      </trkpt>
      <trkpt lat="45.85132" lon="6.11774">
        <ele>907</ele>
        <time>2000-01-01T02:27:28.000Z</time>
      </trkpt>
      <trkpt lat="45.85124" lon="6.11783">
        <ele>911</ele>
        <time>2000-01-01T02:27:38.000Z</time>
      </trkpt>
      <trkpt lat="45.85116" lon="6.11792">
        <ele>914</ele>
        <time>2000-01-01T02:27:48.000Z</time>
      </trkpt>
      <trkpt lat="45.85109" lon="6.11802">
        <ele>917.1</ele>
        <time>2000-01-01T02:27:58.000Z</time>
      </trkpt>
      <trkpt lat="45.851" lon="6.11804">
        <ele>915</ele>
        <time>2000-01-01T02:28:08.000Z</time>
      </trkpt>
      <trkpt lat="45.85092" lon="6.11796">
        <ele>916.1</ele>
        <time>2000-01-01T02:28:18.000Z</time>
      </trkpt>
      <trkpt lat="45.85075" lon="6.11787">
        <ele>917</ele>
        <time>2000-01-01T02:28:28.000Z</time>
      </trkpt>
      <trkpt lat="45.85067" lon="6.11779">
        <ele>918.1</ele>
        <time>2000-01-01T02:28:38.000Z</time>
      </trkpt>
      <trkpt lat="45.85058" lon="6.11779">
        <ele>920</ele>
        <time>2000-01-01T02:28:48.000Z</time>
      </trkpt>
      <trkpt lat="45.85048" lon="6.11775">
        <ele>922</ele>
        <time>2000-01-01T02:28:58.000Z</time>
      </trkpt>
      <trkpt lat="45.85037" lon="6.11773">
        <ele>925</ele>
        <time>2000-01-01T02:29:08.000Z</time>
      </trkpt>
      <trkpt lat="45.85027" lon="6.11768">
        <ele>927.5</ele>
        <time>2000-01-01T02:29:18.000Z</time>
      </trkpt>
      <trkpt lat="45.85018" lon="6.11767">
        <ele>930</ele>
        <time>2000-01-01T02:29:28.000Z</time>
      </trkpt>
      <trkpt lat="45.85009" lon="6.11768">
        <ele>932.2</ele>
        <time>2000-01-01T02:29:38.000Z</time>
      </trkpt>
      <trkpt lat="45.85" lon="6.11761">
        <ele>933</ele>
        <time>2000-01-01T02:29:48.000Z</time>
      </trkpt>
      <trkpt lat="45.84991" lon="6.11756">
        <ele>934.6</ele>
        <time>2000-01-01T02:29:58.000Z</time>
      </trkpt>
      <trkpt lat="45.84982" lon="6.11756">
        <ele>936.3</ele>
        <time>2000-01-01T02:30:08.000Z</time>
      </trkpt>
      <trkpt lat="45.84974" lon="6.11765">
        <ele>938</ele>
        <time>2000-01-01T02:30:18.000Z</time>
      </trkpt>
      <trkpt lat="45.84965" lon="6.11771">
        <ele>939.3</ele>
        <time>2000-01-01T02:30:28.000Z</time>
      </trkpt>
      <trkpt lat="45.84956" lon="6.11764">
        <ele>937</ele>
        <time>2000-01-01T02:30:38.000Z</time>
      </trkpt>
      <trkpt lat="45.84949" lon="6.11751">
        <ele>938.1</ele>
        <time>2000-01-01T02:30:48.000Z</time>
      </trkpt>
      <trkpt lat="45.84944" lon="6.11739">
        <ele>937</ele>
        <time>2000-01-01T02:30:58.000Z</time>
      </trkpt>
      <trkpt lat="45.84937" lon="6.11728">
        <ele>938.7</ele>
        <time>2000-01-01T02:31:08.000Z</time>
      </trkpt>
      <trkpt lat="45.84932" lon="6.11716">
        <ele>940</ele>
        <time>2000-01-01T02:31:18.000Z</time>
      </trkpt>
      <trkpt lat="45.84926" lon="6.1169">
        <ele>944</ele>
        <time>2000-01-01T02:31:28.000Z</time>
      </trkpt>
      <trkpt lat="45.84915" lon="6.11668">
        <ele>947</ele>
        <time>2000-01-01T02:31:38.000Z</time>
      </trkpt>
      <trkpt lat="45.84908" lon="6.11658">
        <ele>947.6</ele>
        <time>2000-01-01T02:31:48.000Z</time>
      </trkpt>
      <trkpt lat="45.84903" lon="6.11642">
        <ele>948</ele>
        <time>2000-01-01T02:31:58.000Z</time>
      </trkpt>
      <trkpt lat="45.84892" lon="6.11619">
        <ele>949</ele>
        <time>2000-01-01T02:32:08.000Z</time>
      </trkpt>
      <trkpt lat="45.84885" lon="6.11607">
        <ele>950.4</ele>
        <time>2000-01-01T02:32:18.000Z</time>
      </trkpt>
      <trkpt lat="45.84876" lon="6.11599">
        <ele>951</ele>
        <time>2000-01-01T02:32:28.000Z</time>
      </trkpt>
      <trkpt lat="45.84859" lon="6.11583">
        <ele>954</ele>
        <time>2000-01-01T02:32:38.000Z</time>
      </trkpt>
      <trkpt lat="45.84852" lon="6.11575">
        <ele>954.3</ele>
        <time>2000-01-01T02:32:48.000Z</time>
      </trkpt>
      <trkpt lat="45.8484" lon="6.11549">
        <ele>956</ele>
        <time>2000-01-01T02:32:58.000Z</time>
      </trkpt>
      <trkpt lat="45.84833" lon="6.11538">
        <ele>954.8</ele>
        <time>2000-01-01T02:33:08.000Z</time>
      </trkpt>
      <trkpt lat="45.84817" lon="6.11518">
        <ele>956</ele>
        <time>2000-01-01T02:33:18.000Z</time>
      </trkpt>
      <trkpt lat="45.84809" lon="6.11512">
        <ele>957.1</ele>
        <time>2000-01-01T02:33:28.000Z</time>
      </trkpt>
      <trkpt lat="45.848" lon="6.11505">
        <ele>960</ele>
        <time>2000-01-01T02:33:38.000Z</time>
      </trkpt>
      <trkpt lat="45.84789" lon="6.11506">
        <ele>960.9</ele>
        <time>2000-01-01T02:33:48.000Z</time>
      </trkpt>
      <trkpt lat="45.84778" lon="6.11504">
        <ele>963</ele>
        <time>2000-01-01T02:33:58.000Z</time>
      </trkpt>
      <trkpt lat="45.84766" lon="6.11501">
        <ele>964.4</ele>
        <time>2000-01-01T02:34:08.000Z</time>
      </trkpt>
      <trkpt lat="45.84755" lon="6.11501">
        <ele>965</ele>
        <time>2000-01-01T02:34:18.000Z</time>
      </trkpt>
      <trkpt lat="45.84744" lon="6.11502">
        <ele>966.9</ele>
        <time>2000-01-01T02:34:28.000Z</time>
      </trkpt>
      <trkpt lat="45.84735" lon="6.11508">
        <ele>968</ele>
        <time>2000-01-01T02:34:38.000Z</time>
      </trkpt>
      <trkpt lat="45.84729" lon="6.11518">
        <ele>970.2</ele>
        <time>2000-01-01T02:34:48.000Z</time>
      </trkpt>
      <trkpt lat="45.84723" lon="6.1153">
        <ele>968</ele>
        <time>2000-01-01T02:34:58.000Z</time>
      </trkpt>
      <trkpt lat="45.84713" lon="6.11537">
        <ele>972.7</ele>
        <time>2000-01-01T02:35:08.000Z</time>
      </trkpt>
      <trkpt lat="45.84702" lon="6.1154">
        <ele>968</ele>
        <time>2000-01-01T02:35:18.000Z</time>
      </trkpt>
      <trkpt lat="45.84692" lon="6.11538">
        <ele>972.6</ele>
        <time>2000-01-01T02:35:28.000Z</time>
      </trkpt>
      <trkpt lat="45.84684" lon="6.11529">
        <ele>971</ele>
        <time>2000-01-01T02:35:38.000Z</time>
      </trkpt>
      <trkpt lat="45.84667" lon="6.1151">
        <ele>972</ele>
        <time>2000-01-01T02:35:48.000Z</time>
      </trkpt>
      <trkpt lat="45.84657" lon="6.11503">
        <ele>974.7</ele>
        <time>2000-01-01T02:35:58.000Z</time>
      </trkpt>
      <trkpt lat="45.84643" lon="6.11486">
        <ele>976</ele>
        <time>2000-01-01T02:36:08.000Z</time>
      </trkpt>
      <trkpt lat="45.84632" lon="6.11479">
        <ele>977.5</ele>
        <time>2000-01-01T02:36:18.000Z</time>
      </trkpt>
      <trkpt lat="45.84623" lon="6.11478">
        <ele>980</ele>
        <time>2000-01-01T02:36:28.000Z</time>
      </trkpt>
      <trkpt lat="45.84592" lon="6.11466">
        <ele>983</ele>
        <time>2000-01-01T02:36:38.000Z</time>
      </trkpt>
      <trkpt lat="45.84582" lon="6.11464">
        <ele>984.9</ele>
        <time>2000-01-01T02:36:48.000Z</time>
      </trkpt>
      <trkpt lat="45.84561" lon="6.11462">
        <ele>983</ele>
        <time>2000-01-01T02:36:58.000Z</time>
      </trkpt>
      <trkpt lat="45.84551" lon="6.11454">
        <ele>985.1</ele>
        <time>2000-01-01T02:37:08.000Z</time>
      </trkpt>
      <trkpt lat="45.84543" lon="6.11446">
        <ele>984</ele>
        <time>2000-01-01T02:37:18.000Z</time>
      </trkpt>
      <trkpt lat="45.84534" lon="6.11437">
        <ele>986.3</ele>
        <time>2000-01-01T02:37:28.000Z</time>
      </trkpt>
      <trkpt lat="45.84525" lon="6.1143">
        <ele>989</ele>
        <time>2000-01-01T02:37:38.000Z</time>
      </trkpt>
      <trkpt lat="45.84515" lon="6.11424">
        <ele>988.9</ele>
        <time>2000-01-01T02:37:48.000Z</time>
      </trkpt>
      <trkpt lat="45.84507" lon="6.11418">
        <ele>991</ele>
        <time>2000-01-01T02:37:58.000Z</time>
      </trkpt>
      <trkpt lat="45.84487" lon="6.11408">
        <ele>991</ele>
        <time>2000-01-01T02:38:08.000Z</time>
      </trkpt>
      <trkpt lat="45.84478" lon="6.11406">
        <ele>991.8</ele>
        <time>2000-01-01T02:38:18.000Z</time>
      </trkpt>
      <trkpt lat="45.84469" lon="6.11399">
        <ele>990</ele>
        <time>2000-01-01T02:38:28.000Z</time>
      </trkpt>
      <trkpt lat="45.84442" lon="6.11378">
        <ele>990</ele>
        <time>2000-01-01T02:38:38.000Z</time>
      </trkpt>
      <trkpt lat="45.84424" lon="6.11366">
        <ele>994</ele>
        <time>2000-01-01T02:38:48.000Z</time>
      </trkpt>
      <trkpt lat="45.84415" lon="6.11358">
        <ele>997</ele>
        <time>2000-01-01T02:38:58.000Z</time>
      </trkpt>
      <trkpt lat="45.84409" lon="6.11347">
        <ele>997</ele>
        <time>2000-01-01T02:39:08.000Z</time>
      </trkpt>
      <trkpt lat="45.84401" lon="6.11339">
        <ele>997.9</ele>
        <time>2000-01-01T02:39:18.000Z</time>
      </trkpt>
      <trkpt lat="45.84391" lon="6.11333">
        <ele>998</ele>
        <time>2000-01-01T02:39:28.000Z</time>
      </trkpt>
      <trkpt lat="45.84383" lon="6.11321">
        <ele>999.4</ele>
        <time>2000-01-01T02:39:38.000Z</time>
      </trkpt>
      <trkpt lat="45.84378" lon="6.11306">
        <ele>998</ele>
        <time>2000-01-01T02:39:48.000Z</time>
      </trkpt>
      <trkpt lat="45.84372" lon="6.11293">
        <ele>999.4</ele>
        <time>2000-01-01T02:39:58.000Z</time>
      </trkpt>
      <trkpt lat="45.84365" lon="6.11284">
        <ele>1003</ele>
        <time>2000-01-01T02:40:08.000Z</time>
      </trkpt>
      <trkpt lat="45.84356" lon="6.11281">
        <ele>1004.2</ele>
        <time>2000-01-01T02:40:18.000Z</time>
      </trkpt>
      <trkpt lat="45.84345" lon="6.11282">
        <ele>1008</ele>
        <time>2000-01-01T02:40:28.000Z</time>
      </trkpt>
      <trkpt lat="45.84334" lon="6.11279">
        <ele>1009.9</ele>
        <time>2000-01-01T02:40:38.000Z</time>
      </trkpt>
      <trkpt lat="45.84325" lon="6.11273">
        <ele>1006</ele>
        <time>2000-01-01T02:40:48.000Z</time>
      </trkpt>
      <trkpt lat="45.84317" lon="6.11265">
        <ele>1008.1</ele>
        <time>2000-01-01T02:40:58.000Z</time>
      </trkpt>
      <trkpt lat="45.84311" lon="6.11252">
        <ele>1010</ele>
        <time>2000-01-01T02:41:08.000Z</time>
      </trkpt>
      <trkpt lat="45.84294" lon="6.11234">
        <ele>1014</ele>
        <time>2000-01-01T02:41:18.000Z</time>
      </trkpt>
      <trkpt lat="45.84285" lon="6.1123">
        <ele>1014.6</ele>
        <time>2000-01-01T02:41:28.000Z</time>
      </trkpt>
      <trkpt lat="45.84275" lon="6.11229">
        <ele>1018</ele>
        <time>2000-01-01T02:41:38.000Z</time>
      </trkpt>
      <trkpt lat="45.84265" lon="6.1123">
        <ele>1020.2</ele>
        <time>2000-01-01T02:41:48.000Z</time>
      </trkpt>
      <trkpt lat="45.84256" lon="6.11227">
        <ele>1023</ele>
        <time>2000-01-01T02:41:58.000Z</time>
      </trkpt>
      <trkpt lat="45.84239" lon="6.11217">
        <ele>1025</ele>
        <time>2000-01-01T02:42:08.000Z</time>
      </trkpt>
      <trkpt lat="45.8423" lon="6.11213">
        <ele>1027</ele>
        <time>2000-01-01T02:42:18.000Z</time>
      </trkpt>
      <trkpt lat="45.84211" lon="6.11211">
        <ele>1028</ele>
        <time>2000-01-01T02:42:28.000Z</time>
      </trkpt>
      <trkpt lat="45.84202" lon="6.11207">
        <ele>1030.9</ele>
        <time>2000-01-01T02:42:38.000Z</time>
      </trkpt>
      <trkpt lat="45.84195" lon="6.11197">
        <ele>1030</ele>
        <time>2000-01-01T02:42:48.000Z</time>
      </trkpt>
      <trkpt lat="45.84187" lon="6.1119">
        <ele>1032.8</ele>
        <time>2000-01-01T02:42:58.000Z</time>
      </trkpt>
      <trkpt lat="45.84178" lon="6.11187">
        <ele>1035.3</ele>
        <time>2000-01-01T02:43:08.000Z</time>
      </trkpt>
      <trkpt lat="45.84171" lon="6.11178">
        <ele>1035</ele>
        <time>2000-01-01T02:43:18.000Z</time>
      </trkpt>
      <trkpt lat="45.84162" lon="6.11174">
        <ele>1038.4</ele>
        <time>2000-01-01T02:43:28.000Z</time>
      </trkpt>
      <trkpt lat="45.84151" lon="6.11179">
        <ele>1040</ele>
        <time>2000-01-01T02:43:38.000Z</time>
      </trkpt>
      <trkpt lat="45.84143" lon="6.11174">
        <ele>1043.6</ele>
        <time>2000-01-01T02:43:48.000Z</time>
      </trkpt>
      <trkpt lat="45.84136" lon="6.11166">
        <ele>1044.2</ele>
        <time>2000-01-01T02:43:58.000Z</time>
      </trkpt>
      <trkpt lat="45.84127" lon="6.11161">
        <ele>1044</ele>
        <time>2000-01-01T02:44:08.000Z</time>
      </trkpt>
      <trkpt lat="45.84119" lon="6.11154">
        <ele>1043.7</ele>
        <time>2000-01-01T02:44:18.000Z</time>
      </trkpt>
      <trkpt lat="45.8411" lon="6.11149">
        <ele>1045</ele>
        <time>2000-01-01T02:44:28.000Z</time>
      </trkpt>
      <trkpt lat="45.841" lon="6.11147">
        <ele>1047.1</ele>
        <time>2000-01-01T02:44:38.000Z</time>
      </trkpt>
      <trkpt lat="45.84091" lon="6.11141">
        <ele>1049</ele>
        <time>2000-01-01T02:44:48.000Z</time>
      </trkpt>
      <trkpt lat="45.84085" lon="6.11131">
        <ele>1049.7</ele>
        <time>2000-01-01T02:44:58.000Z</time>
      </trkpt>
      <trkpt lat="45.84078" lon="6.11122">
        <ele>1050.1</ele>
        <time>2000-01-01T02:45:08.000Z</time>
      </trkpt>
      <trkpt lat="45.8407" lon="6.11113">
        <ele>1052</ele>
        <time>2000-01-01T02:45:18.000Z</time>
      </trkpt>
      <trkpt lat="45.84061" lon="6.11108">
        <ele>1053.5</ele>
        <time>2000-01-01T02:45:28.000Z</time>
      </trkpt>
      <trkpt lat="45.84052" lon="6.11102">
        <ele>1055</ele>
        <time>2000-01-01T02:45:38.000Z</time>
      </trkpt>
      <trkpt lat="45.84043" lon="6.11097">
        <ele>1057.5</ele>
        <time>2000-01-01T02:45:48.000Z</time>
      </trkpt>
      <trkpt lat="45.84034" lon="6.11094">
        <ele>1059</ele>
        <time>2000-01-01T02:45:58.000Z</time>
      </trkpt>
      <trkpt lat="45.84026" lon="6.1109">
        <ele>1061.7</ele>
        <time>2000-01-01T02:46:08.000Z</time>
      </trkpt>
      <trkpt lat="45.84017" lon="6.11083">
        <ele>1063</ele>
        <time>2000-01-01T02:46:18.000Z</time>
      </trkpt>
      <trkpt lat="45.84007" lon="6.1108">
        <ele>1067</ele>
        <time>2000-01-01T02:46:28.000Z</time>
      </trkpt>
      <trkpt lat="45.83997" lon="6.11079">
        <ele>1068.2</ele>
        <time>2000-01-01T02:46:38.000Z</time>
      </trkpt>
      <trkpt lat="45.8397" lon="6.11069">
        <ele>1067</ele>
        <time>2000-01-01T02:46:48.000Z</time>
      </trkpt>
      <trkpt lat="45.8396" lon="6.1104">
        <ele>1067</ele>
        <time>2000-01-01T02:46:58.000Z</time>
      </trkpt>
      <trkpt lat="45.83953" lon="6.1103">
        <ele>1068.9</ele>
        <time>2000-01-01T02:47:08.000Z</time>
      </trkpt>
      <trkpt lat="45.83937" lon="6.11008">
        <ele>1074</ele>
        <time>2000-01-01T02:47:18.000Z</time>
      </trkpt>
      <trkpt lat="45.8393" lon="6.10996">
        <ele>1073.3</ele>
        <time>2000-01-01T02:47:28.000Z</time>
      </trkpt>
      <trkpt lat="45.83922" lon="6.1099">
        <ele>1076</ele>
        <time>2000-01-01T02:47:38.000Z</time>
      </trkpt>
      <trkpt lat="45.83903" lon="6.1098">
        <ele>1080</ele>
        <time>2000-01-01T02:47:48.000Z</time>
      </trkpt>
      <trkpt lat="45.83893" lon="6.10975">
        <ele>1081.2</ele>
        <time>2000-01-01T02:47:58.000Z</time>
      </trkpt>
      <trkpt lat="45.83884" lon="6.10968">
        <ele>1081</ele>
        <time>2000-01-01T02:48:08.000Z</time>
      </trkpt>
      <trkpt lat="45.83876" lon="6.10963">
        <ele>1082.6</ele>
        <time>2000-01-01T02:48:18.000Z</time>
      </trkpt>
      <trkpt lat="45.83867" lon="6.1096">
        <ele>1084</ele>
        <time>2000-01-01T02:48:28.000Z</time>
      </trkpt>
      <trkpt lat="45.83857" lon="6.10958">
        <ele>1086</ele>
        <time>2000-01-01T02:48:38.000Z</time>
      </trkpt>
      <trkpt lat="45.83848" lon="6.1096">
        <ele>1089.1</ele>
        <time>2000-01-01T02:48:48.000Z</time>
      </trkpt>
      <trkpt lat="45.83828" lon="6.10961">
        <ele>1090</ele>
        <time>2000-01-01T02:48:58.000Z</time>
      </trkpt>
      <trkpt lat="45.83818" lon="6.1096">
        <ele>1095.6</ele>
        <time>2000-01-01T02:49:08.000Z</time>
      </trkpt>
      <trkpt lat="45.83808" lon="6.10956">
        <ele>1095</ele>
        <time>2000-01-01T02:49:18.000Z</time>
      </trkpt>
      <trkpt lat="45.83798" lon="6.10952">
        <ele>1097.5</ele>
        <time>2000-01-01T02:49:28.000Z</time>
      </trkpt>
      <trkpt lat="45.83789" lon="6.1095">
        <ele>1100</ele>
        <time>2000-01-01T02:49:38.000Z</time>
      </trkpt>
      <trkpt lat="45.8378" lon="6.1095">
        <ele>1101.6</ele>
        <time>2000-01-01T02:49:48.000Z</time>
      </trkpt>
      <trkpt lat="45.8377" lon="6.10947">
        <ele>1102</ele>
        <time>2000-01-01T02:49:58.000Z</time>
      </trkpt>
      <trkpt lat="45.83753" lon="6.10933">
        <ele>1104</ele>
        <time>2000-01-01T02:50:08.000Z</time>
      </trkpt>
      <trkpt lat="45.83745" lon="6.10927">
        <ele>1105.4</ele>
        <time>2000-01-01T02:50:18.000Z</time>
      </trkpt>
      <trkpt lat="45.83735" lon="6.10923">
        <ele>1110</ele>
        <time>2000-01-01T02:50:28.000Z</time>
      </trkpt>
      <trkpt lat="45.83726" lon="6.10923">
        <ele>1112</ele>
        <time>2000-01-01T02:50:38.000Z</time>
      </trkpt>
      <trkpt lat="45.83717" lon="6.10925">
        <ele>1114.5</ele>
        <time>2000-01-01T02:50:48.000Z</time>
      </trkpt>
      <trkpt lat="45.83707" lon="6.10927">
        <ele>1112</ele>
        <time>2000-01-01T02:50:58.000Z</time>
      </trkpt>
      <trkpt lat="45.83699" lon="6.1092">
        <ele>1116.3</ele>
        <time>2000-01-01T02:51:08.000Z</time>
      </trkpt>
      <trkpt lat="45.83691" lon="6.10911">
        <ele>1114</ele>
        <time>2000-01-01T02:51:18.000Z</time>
      </trkpt>
      <trkpt lat="45.83682" lon="6.10903">
        <ele>1118</ele>
        <time>2000-01-01T02:51:28.000Z</time>
      </trkpt>
      <trkpt lat="45.83672" lon="6.10901">
        <ele>1122</ele>
        <time>2000-01-01T02:51:38.000Z</time>
      </trkpt>
      <trkpt lat="45.83661" lon="6.10902">
        <ele>1125.2</ele>
        <time>2000-01-01T02:51:48.000Z</time>
      </trkpt>
      <trkpt lat="45.83651" lon="6.109">
        <ele>1127</ele>
        <time>2000-01-01T02:51:58.000Z</time>
      </trkpt>
      <trkpt lat="45.83643" lon="6.10893">
        <ele>1127.2</ele>
        <time>2000-01-01T02:52:08.000Z</time>
      </trkpt>
      <trkpt lat="45.83635" lon="6.10888">
        <ele>1128.2</ele>
        <time>2000-01-01T02:52:18.000Z</time>
      </trkpt>
      <trkpt lat="45.83627" lon="6.1088">
        <ele>1131</ele>
        <time>2000-01-01T02:52:28.000Z</time>
      </trkpt>
      <trkpt lat="45.83618" lon="6.10872">
        <ele>1131.8</ele>
        <time>2000-01-01T02:52:38.000Z</time>
      </trkpt>
      <trkpt lat="45.83609" lon="6.10872">
        <ele>1137</ele>
        <time>2000-01-01T02:52:48.000Z</time>
      </trkpt>
      <trkpt lat="45.83599" lon="6.10869">
        <ele>1137.1</ele>
        <time>2000-01-01T02:52:58.000Z</time>
      </trkpt>
      <trkpt lat="45.83589" lon="6.10869">
        <ele>1139</ele>
        <time>2000-01-01T02:53:08.000Z</time>
      </trkpt>
      <trkpt lat="45.8358" lon="6.10876">
        <ele>1142.7</ele>
        <time>2000-01-01T02:53:18.000Z</time>
      </trkpt>
      <trkpt lat="45.83565" lon="6.10897">
        <ele>1143</ele>
        <time>2000-01-01T02:53:28.000Z</time>
      </trkpt>
      <trkpt lat="45.83559" lon="6.10908">
        <ele>1148.2</ele>
        <time>2000-01-01T02:53:38.000Z</time>
      </trkpt>
      <trkpt lat="45.8355" lon="6.10909">
        <ele>1149</ele>
        <time>2000-01-01T02:53:48.000Z</time>
      </trkpt>
      <trkpt lat="45.83542" lon="6.10904">
        <ele>1150.8</ele>
        <time>2000-01-01T02:53:58.000Z</time>
      </trkpt>
      <trkpt lat="45.83537" lon="6.10893">
        <ele>1151.1</ele>
        <time>2000-01-01T02:54:08.000Z</time>
      </trkpt>
      <trkpt lat="45.83521" lon="6.10893">
        <ele>1155</ele>
        <time>2000-01-01T02:54:18.000Z</time>
      </trkpt>
      <trkpt lat="45.83516" lon="6.10882">
        <ele>1156.5</ele>
        <time>2000-01-01T02:54:28.000Z</time>
      </trkpt>
      <trkpt lat="45.83506" lon="6.10878">
        <ele>1160</ele>
        <time>2000-01-01T02:54:38.000Z</time>
      </trkpt>
      <trkpt lat="45.83496" lon="6.10878">
        <ele>1162.1</ele>
        <time>2000-01-01T02:54:48.000Z</time>
      </trkpt>
      <trkpt lat="45.83476" lon="6.10876">
        <ele>1165</ele>
        <time>2000-01-01T02:54:58.000Z</time>
      </trkpt>
      <trkpt lat="45.83471" lon="6.1088">
        <ele>1168.2</ele>
        <time>2000-01-01T02:55:08.000Z</time>
      </trkpt>
      <trkpt lat="45.83475" lon="6.10893">
        <ele>1169.8</ele>
        <time>2000-01-01T02:55:18.000Z</time>
      </trkpt>
      <trkpt lat="45.83474" lon="6.10907">
        <ele>1172</ele>
        <time>2000-01-01T02:55:28.000Z</time>
      </trkpt>
      <trkpt lat="45.83477" lon="6.10922">
        <ele>1173.3</ele>
        <time>2000-01-01T02:55:38.000Z</time>
      </trkpt>
      <trkpt lat="45.83478" lon="6.10936">
        <ele>1178</ele>
        <time>2000-01-01T02:55:48.000Z</time>
      </trkpt>
      <trkpt lat="45.83478" lon="6.1095">
        <ele>1177.4</ele>
        <time>2000-01-01T02:55:58.000Z</time>
      </trkpt>
      <trkpt lat="45.83475" lon="6.10963">
        <ele>1182</ele>
        <time>2000-01-01T02:56:08.000Z</time>
      </trkpt>
      <trkpt lat="45.83475" lon="6.10977">
        <ele>1181.8</ele>
        <time>2000-01-01T02:56:18.000Z</time>
      </trkpt>
      <trkpt lat="45.83475" lon="6.10982">
        <ele>1182.5</ele>
        <time>2000-01-01T02:56:28.000Z</time>
      </trkpt>
      <trkpt lat="45.83472" lon="6.10995">
        <ele>1186</ele>
        <time>2000-01-01T02:56:38.000Z</time>
      </trkpt>
      <trkpt lat="45.83475" lon="6.11009">
        <ele>1186.3</ele>
        <time>2000-01-01T02:56:48.000Z</time>
      </trkpt>
      <trkpt lat="45.83466" lon="6.11007">
        <ele>1191</ele>
        <time>2000-01-01T02:56:58.000Z</time>
      </trkpt>
      <trkpt lat="45.83458" lon="6.10999">
        <ele>1191.5</ele>
        <time>2000-01-01T02:57:08.000Z</time>
      </trkpt>
      <trkpt lat="45.8345" lon="6.10993">
        <ele>1193.4</ele>
        <time>2000-01-01T02:57:18.000Z</time>
      </trkpt>
      <trkpt lat="45.83439" lon="6.10993">
        <ele>1197</ele>
        <time>2000-01-01T02:57:28.000Z</time>
      </trkpt>
      <trkpt lat="45.83429" lon="6.10999">
        <ele>1199</ele>
        <time>2000-01-01T02:57:38.000Z</time>
      </trkpt>
      <trkpt lat="45.83421" lon="6.11002">
        <ele>1200</ele>
        <time>2000-01-01T02:57:48.000Z</time>
      </trkpt>
      <trkpt lat="45.83412" lon="6.11011">
        <ele>1203.8</ele>
        <time>2000-01-01T02:57:58.000Z</time>
      </trkpt>
      <trkpt lat="45.83391" lon="6.11013">
        <ele>1204</ele>
        <time>2000-01-01T02:58:08.000Z</time>
      </trkpt>
      <trkpt lat="45.83382" lon="6.11019">
        <ele>1208.3</ele>
        <time>2000-01-01T02:58:18.000Z</time>
      </trkpt>
      <trkpt lat="45.83377" lon="6.11031">
        <ele>1211</ele>
        <time>2000-01-01T02:58:28.000Z</time>
      </trkpt>
      <trkpt lat="45.83374" lon="6.11044">
        <ele>1213.2</ele>
        <time>2000-01-01T02:58:38.000Z</time>
      </trkpt>
      <trkpt lat="45.83367" lon="6.11052">
        <ele>1214.1</ele>
        <time>2000-01-01T02:58:48.000Z</time>
      </trkpt>
      <trkpt lat="45.83366" lon="6.11066">
        <ele>1215</ele>
        <time>2000-01-01T02:58:58.000Z</time>
      </trkpt>
      <trkpt lat="45.83356" lon="6.11064">
        <ele>1218</ele>
        <time>2000-01-01T02:59:08.000Z</time>
      </trkpt>
      <trkpt lat="45.83352" lon="6.1105">
        <ele>1218</ele>
        <time>2000-01-01T02:59:18.000Z</time>
      </trkpt>
      <trkpt lat="45.83347" lon="6.11037">
        <ele>1219.6</ele>
        <time>2000-01-01T02:59:28.000Z</time>
      </trkpt>
      <trkpt lat="45.8334" lon="6.11027">
        <ele>1226</ele>
        <time>2000-01-01T02:59:38.000Z</time>
      </trkpt>
      <trkpt lat="45.83335" lon="6.11015">
        <ele>1224.7</ele>
        <time>2000-01-01T02:59:48.000Z</time>
      </trkpt>
      <trkpt lat="45.83327" lon="6.11024">
        <ele>1228</ele>
        <time>2000-01-01T02:59:58.000Z</time>
      </trkpt>
      <trkpt lat="45.83319" lon="6.1103">
        <ele>1229.3</ele>
        <time>2000-01-01T03:00:08.000Z</time>
      </trkpt>
      <trkpt lat="45.83312" lon="6.1104">
        <ele>1232</ele>
        <time>2000-01-01T03:00:18.000Z</time>
      </trkpt>
      <trkpt lat="45.83309" lon="6.11053">
        <ele>1232.4</ele>
        <time>2000-01-01T03:00:28.000Z</time>
      </trkpt>
      <trkpt lat="45.833" lon="6.11052">
        <ele>1235</ele>
        <time>2000-01-01T03:00:38.000Z</time>
      </trkpt>
      <trkpt lat="45.83294" lon="6.11042">
        <ele>1237</ele>
        <time>2000-01-01T03:00:48.000Z</time>
      </trkpt>
      <trkpt lat="45.83285" lon="6.11036">
        <ele>1238.9</ele>
        <time>2000-01-01T03:00:58.000Z</time>
      </trkpt>
      <trkpt lat="45.83275" lon="6.11037">
        <ele>1242</ele>
        <time>2000-01-01T03:01:08.000Z</time>
      </trkpt>
      <trkpt lat="45.83267" lon="6.11045">
        <ele>1244.7</ele>
        <time>2000-01-01T03:01:18.000Z</time>
      </trkpt>
      <trkpt lat="45.8326" lon="6.11056">
        <ele>1247</ele>
        <time>2000-01-01T03:01:28.000Z</time>
      </trkpt>
      <trkpt lat="45.83252" lon="6.1106">
        <ele>1249.5</ele>
        <time>2000-01-01T03:01:38.000Z</time>
      </trkpt>
      <trkpt lat="45.83229" lon="6.11087">
        <ele>1255</ele>
        <time>2000-01-01T03:01:48.000Z</time>
      </trkpt>
      <trkpt lat="45.83224" lon="6.111">
        <ele>1260.5</ele>
        <time>2000-01-01T03:01:58.000Z</time>
      </trkpt>
      <trkpt lat="45.83211" lon="6.11135">
        <ele>1266</ele>
        <time>2000-01-01T03:02:08.000Z</time>
      </trkpt>
      <trkpt lat="45.83207" lon="6.11149">
        <ele>1267</ele>
        <time>2000-01-01T03:02:18.000Z</time>
      </trkpt>
      <trkpt lat="45.83198" lon="6.11175">
        <ele>1270</ele>
        <time>2000-01-01T03:02:28.000Z</time>
      </trkpt>
      <trkpt lat="45.83195" lon="6.11188">
        <ele>1273.9</ele>
        <time>2000-01-01T03:02:38.000Z</time>
      </trkpt>
      <trkpt lat="45.83191" lon="6.112">
        <ele>1271</ele>
        <time>2000-01-01T03:02:48.000Z</time>
      </trkpt>
      <trkpt lat="45.83184" lon="6.11209">
        <ele>1273.4</ele>
        <time>2000-01-01T03:02:58.000Z</time>
      </trkpt>
      <trkpt lat="45.83174" lon="6.11212">
        <ele>1273</ele>
        <time>2000-01-01T03:03:08.000Z</time>
      </trkpt>
      <trkpt lat="45.83169" lon="6.112">
        <ele>1273</ele>
        <time>2000-01-01T03:03:18.000Z</time>
      </trkpt>
      <trkpt lat="45.83161" lon="6.11176">
        <ele>1277</ele>
        <time>2000-01-01T03:03:28.000Z</time>
      </trkpt>
      <trkpt lat="45.83154" lon="6.11167">
        <ele>1275.8</ele>
        <time>2000-01-01T03:03:38.000Z</time>
      </trkpt>
      <trkpt lat="45.83145" lon="6.11167">
        <ele>1277.1</ele>
        <time>2000-01-01T03:03:48.000Z</time>
      </trkpt>
      <trkpt lat="45.83138" lon="6.11177">
        <ele>1276</ele>
        <time>2000-01-01T03:03:58.000Z</time>
      </trkpt>
      <trkpt lat="45.83127" lon="6.11202">
        <ele>1276</ele>
        <time>2000-01-01T03:04:08.000Z</time>
      </trkpt>
      <trkpt lat="45.83115" lon="6.11226">
        <ele>1276</ele>
        <time>2000-01-01T03:04:18.000Z</time>
      </trkpt>
      <trkpt lat="45.83101" lon="6.11245">
        <ele>1278</ele>
        <time>2000-01-01T03:04:28.000Z</time>
      </trkpt>
      <trkpt lat="45.83092" lon="6.11251">
        <ele>1279.4</ele>
        <time>2000-01-01T03:04:38.000Z</time>
      </trkpt>
      <trkpt lat="45.83076" lon="6.11269">
        <ele>1283</ele>
        <time>2000-01-01T03:04:48.000Z</time>
      </trkpt>
      <trkpt lat="45.83066" lon="6.11277">
        <ele>1282.5</ele>
        <time>2000-01-01T03:04:58.000Z</time>
      </trkpt>
      <trkpt lat="45.83035" lon="6.11286">
        <ele>1288</ele>
        <time>2000-01-01T03:05:08.000Z</time>
      </trkpt>
      <trkpt lat="45.83027" lon="6.11279">
        <ele>1289</ele>
        <time>2000-01-01T03:05:18.000Z</time>
      </trkpt>
      <trkpt lat="45.83026" lon="6.11265">
        <ele>1291</ele>
        <time>2000-01-01T03:05:28.000Z</time>
      </trkpt>
      <trkpt lat="45.83023" lon="6.11251">
        <ele>1291.6</ele>
        <time>2000-01-01T03:05:38.000Z</time>
      </trkpt>
      <trkpt lat="45.83016" lon="6.11239">
        <ele>1295</ele>
        <time>2000-01-01T03:05:48.000Z</time>
      </trkpt>
      <trkpt lat="45.83007" lon="6.11235">
        <ele>1294.9</ele>
        <time>2000-01-01T03:05:58.000Z</time>
      </trkpt>
      <trkpt lat="45.82998" lon="6.11234">
        <ele>1296.5</ele>
        <time>2000-01-01T03:06:08.000Z</time>
      </trkpt>
      <trkpt lat="45.82989" lon="6.11226">
        <ele>1300</ele>
        <time>2000-01-01T03:06:18.000Z</time>
      </trkpt>
      <trkpt lat="45.82971" lon="6.11189">
        <ele>1303</ele>
        <time>2000-01-01T03:06:28.000Z</time>
      </trkpt>
      <trkpt lat="45.82968" lon="6.11176">
        <ele>1304.3</ele>
        <time>2000-01-01T03:06:38.000Z</time>
      </trkpt>
      <trkpt lat="45.82963" lon="6.11166">
        <ele>1305.3</ele>
        <time>2000-01-01T03:06:48.000Z</time>
      </trkpt>
      <trkpt lat="45.82956" lon="6.11154">
        <ele>1308</ele>
        <time>2000-01-01T03:06:58.000Z</time>
      </trkpt>
      <trkpt lat="45.82951" lon="6.11143">
        <ele>1307.7</ele>
        <time>2000-01-01T03:07:08.000Z</time>
      </trkpt>
      <trkpt lat="45.82947" lon="6.11131">
        <ele>1309</ele>
        <time>2000-01-01T03:07:18.000Z</time>
      </trkpt>
      <trkpt lat="45.82944" lon="6.11117">
        <ele>1309.1</ele>
        <time>2000-01-01T03:07:28.000Z</time>
      </trkpt>
      <trkpt lat="45.82939" lon="6.11105">
        <ele>1311</ele>
        <time>2000-01-01T03:07:38.000Z</time>
      </trkpt>
      <trkpt lat="45.8293" lon="6.111">
        <ele>1311.6</ele>
        <time>2000-01-01T03:07:48.000Z</time>
      </trkpt>
      <trkpt lat="45.8292" lon="6.11102">
        <ele>1314</ele>
        <time>2000-01-01T03:07:58.000Z</time>
      </trkpt>
      <trkpt lat="45.82899" lon="6.11109">
        <ele>1317</ele>
        <time>2000-01-01T03:08:08.000Z</time>
      </trkpt>
      <trkpt lat="45.82891" lon="6.11115">
        <ele>1317.7</ele>
        <time>2000-01-01T03:08:18.000Z</time>
      </trkpt>
      <trkpt lat="45.82884" lon="6.11127">
        <ele>1319</ele>
        <time>2000-01-01T03:08:28.000Z</time>
      </trkpt>
      <trkpt lat="45.8288" lon="6.11139">
        <ele>1319.3</ele>
        <time>2000-01-01T03:08:38.000Z</time>
      </trkpt>
      <trkpt lat="45.82877" lon="6.11152">
        <ele>1319</ele>
        <time>2000-01-01T03:08:48.000Z</time>
      </trkpt>
      <trkpt lat="45.82872" lon="6.11164">
        <ele>1319.5</ele>
        <time>2000-01-01T03:08:58.000Z</time>
      </trkpt>
      <trkpt lat="45.82866" lon="6.1117">
        <ele>1320.3</ele>
        <time>2000-01-01T03:09:08.000Z</time>
      </trkpt>
      <trkpt lat="45.82854" lon="6.11172">
        <ele>1322</ele>
        <time>2000-01-01T03:09:18.000Z</time>
      </trkpt>
      <trkpt lat="45.82843" lon="6.1117">
        <ele>1323.6</ele>
        <time>2000-01-01T03:09:28.000Z</time>
      </trkpt>
      <trkpt lat="45.82825" lon="6.11162">
        <ele>1327</ele>
        <time>2000-01-01T03:09:38.000Z</time>
      </trkpt>
      <trkpt lat="45.82819" lon="6.11149">
        <ele>1327.1</ele>
        <time>2000-01-01T03:09:48.000Z</time>
      </trkpt>
      <trkpt lat="45.82826" lon="6.11121">
        <ele>1327</ele>
        <time>2000-01-01T03:09:58.000Z</time>
      </trkpt>
      <trkpt lat="45.82826" lon="6.11106">
        <ele>1326.8</ele>
        <time>2000-01-01T03:10:08.000Z</time>
      </trkpt>
      <trkpt lat="45.82821" lon="6.11092">
        <ele>1327</ele>
        <time>2000-01-01T03:10:18.000Z</time>
      </trkpt>
      <trkpt lat="45.82814" lon="6.11081">
        <ele>1328.1</ele>
        <time>2000-01-01T03:10:28.000Z</time>
      </trkpt>
      <trkpt lat="45.82808" lon="6.11069">
        <ele>1329</ele>
        <time>2000-01-01T03:10:38.000Z</time>
      </trkpt>
      <trkpt lat="45.828" lon="6.11059">
        <ele>1329.8</ele>
        <time>2000-01-01T03:10:48.000Z</time>
      </trkpt>
      <trkpt lat="45.82794" lon="6.11048">
        <ele>1330</ele>
        <time>2000-01-01T03:10:58.000Z</time>
      </trkpt>
      <trkpt lat="45.82791" lon="6.11036">
        <ele>1330.4</ele>
        <time>2000-01-01T03:11:08.000Z</time>
      </trkpt>
      <trkpt lat="45.82785" lon="6.11024">
        <ele>1331</ele>
        <time>2000-01-01T03:11:18.000Z</time>
      </trkpt>
      <trkpt lat="45.82775" lon="6.1102">
        <ele>1332.1</ele>
        <time>2000-01-01T03:11:28.000Z</time>
      </trkpt>
      <trkpt lat="45.82765" lon="6.11024">
        <ele>1334</ele>
        <time>2000-01-01T03:11:38.000Z</time>
      </trkpt>
      <trkpt lat="45.82756" lon="6.11031">
        <ele>1335.2</ele>
        <time>2000-01-01T03:11:48.000Z</time>
      </trkpt>
      <trkpt lat="45.82749" lon="6.11041">
        <ele>1337</ele>
        <time>2000-01-01T03:11:58.000Z</time>
      </trkpt>
      <trkpt lat="45.82746" lon="6.11057">
        <ele>1336.4</ele>
        <time>2000-01-01T03:12:08.000Z</time>
      </trkpt>
      <trkpt lat="45.82738" lon="6.11083">
        <ele>1338</ele>
        <time>2000-01-01T03:12:18.000Z</time>
      </trkpt>
      <trkpt lat="45.82731" lon="6.1111">
        <ele>1338</ele>
        <time>2000-01-01T03:12:28.000Z</time>
      </trkpt>
      <trkpt lat="45.82726" lon="6.11123">
        <ele>1339.5</ele>
        <time>2000-01-01T03:12:38.000Z</time>
      </trkpt>
      <trkpt lat="45.82718" lon="6.1113">
        <ele>1341</ele>
        <time>2000-01-01T03:12:48.000Z</time>
      </trkpt>
      <trkpt lat="45.82706" lon="6.11155">
        <ele>1341</ele>
        <time>2000-01-01T03:12:58.000Z</time>
      </trkpt>
      <trkpt lat="45.82697" lon="6.11166">
        <ele>1341.7</ele>
        <time>2000-01-01T03:13:08.000Z</time>
      </trkpt>
      <trkpt lat="45.82686" lon="6.11173">
        <ele>1343</ele>
        <time>2000-01-01T03:13:18.000Z</time>
      </trkpt>
      <trkpt lat="45.82676" lon="6.11178">
        <ele>1344</ele>
        <time>2000-01-01T03:13:28.000Z</time>
      </trkpt>
      <trkpt lat="45.82656" lon="6.11183">
        <ele>1346</ele>
        <time>2000-01-01T03:13:38.000Z</time>
      </trkpt>
      <trkpt lat="45.82649" lon="6.11192">
        <ele>1346.3</ele>
        <time>2000-01-01T03:13:48.000Z</time>
      </trkpt>
      <trkpt lat="45.8264" lon="6.11205">
        <ele>1346</ele>
        <time>2000-01-01T03:13:58.000Z</time>
      </trkpt>
      <trkpt lat="45.82633" lon="6.11218">
        <ele>1347.5</ele>
        <time>2000-01-01T03:14:08.000Z</time>
      </trkpt>
      <trkpt lat="45.82625" lon="6.11227">
        <ele>1348</ele>
        <time>2000-01-01T03:14:18.000Z</time>
      </trkpt>
      <trkpt lat="45.82617" lon="6.11235">
        <ele>1348.1</ele>
        <time>2000-01-01T03:14:28.000Z</time>
      </trkpt>
      <trkpt lat="45.82611" lon="6.11245">
        <ele>1348</ele>
        <time>2000-01-01T03:14:38.000Z</time>
      </trkpt>
      <trkpt lat="45.82608" lon="6.11259">
        <ele>1348.3</ele>
        <time>2000-01-01T03:14:48.000Z</time>
      </trkpt>
      <trkpt lat="45.82606" lon="6.11274">
        <ele>1348</ele>
        <time>2000-01-01T03:14:58.000Z</time>
      </trkpt>
      <trkpt lat="45.82603" lon="6.11289">
        <ele>1348.2</ele>
        <time>2000-01-01T03:15:08.000Z</time>
      </trkpt>
      <trkpt lat="45.82601" lon="6.11303">
        <ele>1348</ele>
        <time>2000-01-01T03:15:18.000Z</time>
      </trkpt>
      <trkpt lat="45.82591" lon="6.11329">
        <ele>1348</ele>
        <time>2000-01-01T03:15:28.000Z</time>
      </trkpt>
      <trkpt lat="45.82583" lon="6.11338">
        <ele>1347.9</ele>
        <time>2000-01-01T03:15:38.000Z</time>
      </trkpt>
      <trkpt lat="45.82562" lon="6.11342">
        <ele>1349</ele>
        <time>2000-01-01T03:15:48.000Z</time>
      </trkpt>
      <trkpt lat="45.82554" lon="6.11345">
        <ele>1350.8</ele>
        <time>2000-01-01T03:15:58.000Z</time>
      </trkpt>
      <trkpt lat="45.82545" lon="6.11351">
        <ele>1351.7</ele>
        <time>2000-01-01T03:16:08.000Z</time>
      </trkpt>
      <trkpt lat="45.82536" lon="6.1136">
        <ele>1354</ele>
        <time>2000-01-01T03:16:18.000Z</time>
      </trkpt>
      <trkpt lat="45.82525" lon="6.11361">
        <ele>1354.2</ele>
        <time>2000-01-01T03:16:28.000Z</time>
      </trkpt>
      <trkpt lat="45.82515" lon="6.1136">
        <ele>1354</ele>
        <time>2000-01-01T03:16:38.000Z</time>
      </trkpt>
      <trkpt lat="45.82495" lon="6.11367">
        <ele>1356</ele>
        <time>2000-01-01T03:16:48.000Z</time>
      </trkpt>
      <trkpt lat="45.82486" lon="6.11376">
        <ele>1357.5</ele>
        <time>2000-01-01T03:16:58.000Z</time>
      </trkpt>
      <trkpt lat="45.82479" lon="6.11387">
        <ele>1359</ele>
        <time>2000-01-01T03:17:08.000Z</time>
      </trkpt>
      <trkpt lat="45.82475" lon="6.114">
        <ele>1357.6</ele>
        <time>2000-01-01T03:17:18.000Z</time>
      </trkpt>
      <trkpt lat="45.82467" lon="6.11407">
        <ele>1360</ele>
        <time>2000-01-01T03:17:28.000Z</time>
      </trkpt>
      <trkpt lat="45.82455" lon="6.1141">
        <ele>1359.7</ele>
        <time>2000-01-01T03:17:38.000Z</time>
      </trkpt>
      <trkpt lat="45.82447" lon="6.1141">
        <ele>1362</ele>
        <time>2000-01-01T03:17:48.000Z</time>
      </trkpt>
      <trkpt lat="45.82438" lon="6.11408">
        <ele>1361.9</ele>
        <time>2000-01-01T03:17:58.000Z</time>
      </trkpt>
      <trkpt lat="45.82429" lon="6.11399">
        <ele>1363</ele>
        <time>2000-01-01T03:18:08.000Z</time>
      </trkpt>
      <trkpt lat="45.8242" lon="6.11394">
        <ele>1363.5</ele>
        <time>2000-01-01T03:18:18.000Z</time>
      </trkpt>
      <trkpt lat="45.8241" lon="6.11393">
        <ele>1364</ele>
        <time>2000-01-01T03:18:28.000Z</time>
      </trkpt>
      <trkpt lat="45.82399" lon="6.11394">
        <ele>1365.5</ele>
        <time>2000-01-01T03:18:38.000Z</time>
      </trkpt>
      <trkpt lat="45.82387" lon="6.11392">
        <ele>1363</ele>
        <time>2000-01-01T03:18:48.000Z</time>
      </trkpt>
      <trkpt lat="45.82385" lon="6.11392">
        <ele>1366.1</ele>
        <time>2000-01-01T03:18:58.000Z</time>
      </trkpt>
      <trkpt lat="45.82379" lon="6.11387">
        <ele>1365.5</ele>
        <time>2000-01-01T03:19:08.000Z</time>
      </trkpt>
      <trkpt lat="45.82373" lon="6.11379">
        <ele>1365.6</ele>
        <time>2000-01-01T03:19:18.000Z</time>
      </trkpt>
      <trkpt lat="45.82363" lon="6.11374">
        <ele>1363</ele>
        <time>2000-01-01T03:19:28.000Z</time>
      </trkpt>
      <trkpt lat="45.82353" lon="6.11372">
        <ele>1363.8</ele>
        <time>2000-01-01T03:19:38.000Z</time>
      </trkpt>
      <trkpt lat="45.82344" lon="6.11373">
        <ele>1362</ele>
        <time>2000-01-01T03:19:48.000Z</time>
      </trkpt>
      <trkpt lat="45.82334" lon="6.1137">
        <ele>1362.8</ele>
        <time>2000-01-01T03:19:58.000Z</time>
      </trkpt>
      <trkpt lat="45.82328" lon="6.11364">
        <ele>1362.5</ele>
        <time>2000-01-01T03:20:08.000Z</time>
      </trkpt>
      <trkpt lat="45.82326" lon="6.11357">
        <ele>1361</ele>
        <time>2000-01-01T03:20:18.000Z</time>
      </trkpt>
      <trkpt lat="45.82326" lon="6.11353">
        <ele>1362.9</ele>
        <time>2000-01-01T03:20:28.000Z</time>
      </trkpt>
      <trkpt lat="45.8233" lon="6.1134">
        <ele>1364.7</ele>
        <time>2000-01-01T03:20:38.000Z</time>
      </trkpt>
      <trkpt lat="45.82331" lon="6.11327">
        <ele>1361</ele>
        <time>2000-01-01T03:20:48.000Z</time>
      </trkpt>
      <trkpt lat="45.82323" lon="6.11317">
        <ele>1362</ele>
        <time>2000-01-01T03:20:58.000Z</time>
      </trkpt>
      <trkpt lat="45.82314" lon="6.11312">
        <ele>1361</ele>
        <time>2000-01-01T03:21:08.000Z</time>
      </trkpt>
      <trkpt lat="45.82297" lon="6.11327">
        <ele>1361</ele>
        <time>2000-01-01T03:21:18.000Z</time>
      </trkpt>
      <trkpt lat="45.82293" lon="6.1134">
        <ele>1361.5</ele>
        <time>2000-01-01T03:21:28.000Z</time>
      </trkpt>
      <trkpt lat="45.82292" lon="6.11368">
        <ele>1361</ele>
        <time>2000-01-01T03:21:38.000Z</time>
      </trkpt>
      <trkpt lat="45.82295" lon="6.11383">
        <ele>1360.1</ele>
        <time>2000-01-01T03:21:48.000Z</time>
      </trkpt>
      <trkpt lat="45.82293" lon="6.11398">
        <ele>1362</ele>
        <time>2000-01-01T03:21:58.000Z</time>
      </trkpt>
      <trkpt lat="45.82289" lon="6.11411">
        <ele>1362.6</ele>
        <time>2000-01-01T03:22:08.000Z</time>
      </trkpt>
      <trkpt lat="45.82286" lon="6.11425">
        <ele>1364</ele>
        <time>2000-01-01T03:22:18.000Z</time>
      </trkpt>
      <trkpt lat="45.8228" lon="6.11435">
        <ele>1364</ele>
        <time>2000-01-01T03:22:28.000Z</time>
      </trkpt>
      <trkpt lat="45.82271" lon="6.1144">
        <ele>1365</ele>
        <time>2000-01-01T03:22:38.000Z</time>
      </trkpt>
      <trkpt lat="45.82262" lon="6.1144">
        <ele>1365.5</ele>
        <time>2000-01-01T03:22:48.000Z</time>
      </trkpt>
      <trkpt lat="45.82257" lon="6.11437">
        <ele>1366</ele>
        <time>2000-01-01T03:22:58.000Z</time>
      </trkpt>
      <trkpt lat="45.82251" lon="6.11428">
        <ele>1364</ele>
        <time>2000-01-01T03:23:08.000Z</time>
      </trkpt>
      <trkpt lat="45.82249" lon="6.11425">
        <ele>1367.1</ele>
        <time>2000-01-01T03:23:18.000Z</time>
      </trkpt>
      <trkpt lat="45.82241" lon="6.11406">
        <ele>1366.1</ele>
        <time>2000-01-01T03:23:28.000Z</time>
      </trkpt>
      <trkpt lat="45.82232" lon="6.11389">
        <ele>1363</ele>
        <time>2000-01-01T03:23:38.000Z</time>
      </trkpt>
      <trkpt lat="45.82226" lon="6.11372">
        <ele>1362.1</ele>
        <time>2000-01-01T03:23:48.000Z</time>
      </trkpt>
      <trkpt lat="45.82226" lon="6.11359">
        <ele>1359</ele>
        <time>2000-01-01T03:23:58.000Z</time>
      </trkpt>
      <trkpt lat="45.82223" lon="6.11342">
        <ele>1360.6</ele>
        <time>2000-01-01T03:24:08.000Z</time>
      </trkpt>
      <trkpt lat="45.82213" lon="6.1135">
        <ele>1358</ele>
        <time>2000-01-01T03:24:18.000Z</time>
      </trkpt>
      <trkpt lat="45.82201" lon="6.11374">
        <ele>1355</ele>
        <time>2000-01-01T03:24:28.000Z</time>
      </trkpt>
      <trkpt lat="45.82197" lon="6.11387">
        <ele>1356.5</ele>
        <time>2000-01-01T03:24:38.000Z</time>
      </trkpt>
      <trkpt lat="45.82195" lon="6.11403">
        <ele>1355</ele>
        <time>2000-01-01T03:24:48.000Z</time>
      </trkpt>
      <trkpt lat="45.82195" lon="6.11416">
        <ele>1356.1</ele>
        <time>2000-01-01T03:24:58.000Z</time>
      </trkpt>
      <trkpt lat="45.82195" lon="6.11431">
        <ele>1355</ele>
        <time>2000-01-01T03:25:08.000Z</time>
      </trkpt>
      <trkpt lat="45.82193" lon="6.11448">
        <ele>1355.5</ele>
        <time>2000-01-01T03:25:18.000Z</time>
      </trkpt>
      <trkpt lat="45.82184" lon="6.11475">
        <ele>1348</ele>
        <time>2000-01-01T03:25:28.000Z</time>
      </trkpt>
      <trkpt lat="45.82176" lon="6.11504">
        <ele>1346</ele>
        <time>2000-01-01T03:25:38.000Z</time>
      </trkpt>
      <trkpt lat="45.82175" lon="6.1152">
        <ele>1345.1</ele>
        <time>2000-01-01T03:25:48.000Z</time>
      </trkpt>
      <trkpt lat="45.82175" lon="6.11533">
        <ele>1345</ele>
        <time>2000-01-01T03:25:58.000Z</time>
      </trkpt>
      <trkpt lat="45.82179" lon="6.11547">
        <ele>1345.4</ele>
        <time>2000-01-01T03:26:08.000Z</time>
      </trkpt>
      <trkpt lat="45.82185" lon="6.1156">
        <ele>1345</ele>
        <time>2000-01-01T03:26:18.000Z</time>
      </trkpt>
      <trkpt lat="45.82186" lon="6.11589">
        <ele>1347</ele>
        <time>2000-01-01T03:26:28.000Z</time>
      </trkpt>
      <trkpt lat="45.82176" lon="6.11596">
        <ele>1348.9</ele>
        <time>2000-01-01T03:26:38.000Z</time>
      </trkpt>
      <trkpt lat="45.82173" lon="6.11597">
        <ele>1348.8</ele>
        <time>2000-01-01T03:26:48.000Z</time>
      </trkpt>
      <trkpt lat="45.82164" lon="6.11592">
        <ele>1347</ele>
        <time>2000-01-01T03:26:58.000Z</time>
      </trkpt>
      <trkpt lat="45.82149" lon="6.11568">
        <ele>1348</ele>
        <time>2000-01-01T03:27:08.000Z</time>
      </trkpt>
      <trkpt lat="45.82139" lon="6.11558">
        <ele>1349.6</ele>
        <time>2000-01-01T03:27:18.000Z</time>
      </trkpt>
      <trkpt lat="45.8213" lon="6.11553">
        <ele>1348</ele>
        <time>2000-01-01T03:27:28.000Z</time>
      </trkpt>
      <trkpt lat="45.82119" lon="6.1155">
        <ele>1349.4</ele>
        <time>2000-01-01T03:27:38.000Z</time>
      </trkpt>
      <trkpt lat="45.82101" lon="6.1153">
        <ele>1348</ele>
        <time>2000-01-01T03:27:48.000Z</time>
      </trkpt>
      <trkpt lat="45.82093" lon="6.11521">
        <ele>1350.1</ele>
        <time>2000-01-01T03:27:58.000Z</time>
      </trkpt>
      <trkpt lat="45.82083" lon="6.11513">
        <ele>1347</ele>
        <time>2000-01-01T03:28:08.000Z</time>
      </trkpt>
      <trkpt lat="45.82073" lon="6.11507">
        <ele>1348.3</ele>
        <time>2000-01-01T03:28:18.000Z</time>
      </trkpt>
      <trkpt lat="45.82063" lon="6.11503">
        <ele>1347</ele>
        <time>2000-01-01T03:28:28.000Z</time>
      </trkpt>
      <trkpt lat="45.82053" lon="6.11497">
        <ele>1347.7</ele>
        <time>2000-01-01T03:28:38.000Z</time>
      </trkpt>
      <trkpt lat="45.82046" lon="6.11486">
        <ele>1348</ele>
        <time>2000-01-01T03:28:48.000Z</time>
      </trkpt>
      <trkpt lat="45.82038" lon="6.11457">
        <ele>1347</ele>
        <time>2000-01-01T03:28:58.000Z</time>
      </trkpt>
      <trkpt lat="45.82029" lon="6.11428">
        <ele>1347</ele>
        <time>2000-01-01T03:29:08.000Z</time>
      </trkpt>
      <trkpt lat="45.82023" lon="6.11416">
        <ele>1347.5</ele>
        <time>2000-01-01T03:29:18.000Z</time>
      </trkpt>
      <trkpt lat="45.82017" lon="6.11402">
        <ele>1348</ele>
        <time>2000-01-01T03:29:28.000Z</time>
      </trkpt>
      <trkpt lat="45.8201" lon="6.11394">
        <ele>1348.9</ele>
        <time>2000-01-01T03:29:38.000Z</time>
      </trkpt>
      <trkpt lat="45.81999" lon="6.11395">
        <ele>1349</ele>
        <time>2000-01-01T03:29:48.000Z</time>
      </trkpt>
      <trkpt lat="45.81997" lon="6.11408">
        <ele>1350.4</ele>
        <time>2000-01-01T03:29:58.000Z</time>
      </trkpt>
      <trkpt lat="45.81991" lon="6.1142">
        <ele>1350</ele>
        <time>2000-01-01T03:30:08.000Z</time>
      </trkpt>
      <trkpt lat="45.81984" lon="6.11429">
        <ele>1352.3</ele>
        <time>2000-01-01T03:30:18.000Z</time>
      </trkpt>
      <trkpt lat="45.8198" lon="6.11442">
        <ele>1353</ele>
        <time>2000-01-01T03:30:28.000Z</time>
      </trkpt>
      <trkpt lat="45.81978" lon="6.11456">
        <ele>1353.1</ele>
        <time>2000-01-01T03:30:38.000Z</time>
      </trkpt>
      <trkpt lat="45.81977" lon="6.11471">
        <ele>1353</ele>
        <time>2000-01-01T03:30:48.000Z</time>
      </trkpt>
      <trkpt lat="45.81978" lon="6.11486">
        <ele>1354.2</ele>
        <time>2000-01-01T03:30:58.000Z</time>
      </trkpt>
      <trkpt lat="45.8197" lon="6.11496">
        <ele>1353</ele>
        <time>2000-01-01T03:31:08.000Z</time>
      </trkpt>
      <trkpt lat="45.8196" lon="6.115">
        <ele>1355.9</ele>
        <time>2000-01-01T03:31:18.000Z</time>
      </trkpt>
      <trkpt lat="45.8195" lon="6.11505">
        <ele>1356</ele>
        <time>2000-01-01T03:31:28.000Z</time>
      </trkpt>
      <trkpt lat="45.81942" lon="6.115">
        <ele>1357.4</ele>
        <time>2000-01-01T03:31:38.000Z</time>
      </trkpt>
      <trkpt lat="45.81936" lon="6.11495">
        <ele>1358.3</ele>
        <time>2000-01-01T03:31:48.000Z</time>
      </trkpt>
      <trkpt lat="45.81927" lon="6.11483">
        <ele>1361</ele>
        <time>2000-01-01T03:31:58.000Z</time>
      </trkpt>
      <trkpt lat="45.81918" lon="6.11476">
        <ele>1361.6</ele>
        <time>2000-01-01T03:32:08.000Z</time>
      </trkpt>
      <trkpt lat="45.81908" lon="6.11471">
        <ele>1364</ele>
        <time>2000-01-01T03:32:18.000Z</time>
      </trkpt>
      <trkpt lat="45.81898" lon="6.11465">
        <ele>1365.4</ele>
        <time>2000-01-01T03:32:28.000Z</time>
      </trkpt>
      <trkpt lat="45.81889" lon="6.11455">
        <ele>1368</ele>
        <time>2000-01-01T03:32:38.000Z</time>
      </trkpt>
      <trkpt lat="45.81872" lon="6.1144">
        <ele>1370</ele>
        <time>2000-01-01T03:32:48.000Z</time>
      </trkpt>
      <trkpt lat="45.81858" lon="6.11423">
        <ele>1374</ele>
        <time>2000-01-01T03:32:58.000Z</time>
      </trkpt>
      <trkpt lat="45.81843" lon="6.11421">
        <ele>1375.2</ele>
        <time>2000-01-01T03:33:08.000Z</time>
      </trkpt>
      <trkpt lat="45.81835" lon="6.11414">
        <ele>1378</ele>
        <time>2000-01-01T03:33:18.000Z</time>
      </trkpt>
      <trkpt lat="45.81833" lon="6.11401">
        <ele>1377.6</ele>
        <time>2000-01-01T03:33:28.000Z</time>
      </trkpt>
      <trkpt lat="45.81831" lon="6.11385">
        <ele>1379</ele>
        <time>2000-01-01T03:33:38.000Z</time>
      </trkpt>
      <trkpt lat="45.81834" lon="6.11377">
        <ele>1378.7</ele>
        <time>2000-01-01T03:33:48.000Z</time>
      </trkpt>
      <trkpt lat="45.81836" lon="6.11364">
        <ele>1379.3</ele>
        <time>2000-01-01T03:33:58.000Z</time>
      </trkpt>
      <trkpt lat="45.81837" lon="6.1135">
        <ele>1381</ele>
        <time>2000-01-01T03:34:08.000Z</time>
      </trkpt>
      <trkpt lat="45.81831" lon="6.11324">
        <ele>1384</ele>
        <time>2000-01-01T03:34:18.000Z</time>
      </trkpt>
      <trkpt lat="45.81818" lon="6.11319">
        <ele>1386</ele>
        <time>2000-01-01T03:34:28.000Z</time>
      </trkpt>
      <trkpt lat="45.81814" lon="6.11317">
        <ele>1386.8</ele>
        <time>2000-01-01T03:34:38.000Z</time>
      </trkpt>
      <trkpt lat="45.81812" lon="6.11317">
        <ele>1387</ele>
        <time>2000-01-01T03:34:48.000Z</time>
      </trkpt>
      <trkpt lat="45.81802" lon="6.11319">
        <ele>1388.5</ele>
        <time>2000-01-01T03:34:58.000Z</time>
      </trkpt>
      <trkpt lat="45.81799" lon="6.1132">
        <ele>1388.9</ele>
        <time>2000-01-01T03:35:08.000Z</time>
      </trkpt>
      <trkpt lat="45.81793" lon="6.11326">
        <ele>1390</ele>
        <time>2000-01-01T03:35:18.000Z</time>
      </trkpt>
      <trkpt lat="45.81786" lon="6.11331">
        <ele>1390</ele>
        <time>2000-01-01T03:35:28.000Z</time>
      </trkpt>
      <trkpt lat="45.81783" lon="6.11331">
        <ele>1390.4</ele>
        <time>2000-01-01T03:35:38.000Z</time>
      </trkpt>
      <trkpt lat="45.8177" lon="6.1132">
        <ele>1394</ele>
        <time>2000-01-01T03:35:48.000Z</time>
      </trkpt>
      <trkpt lat="45.81761" lon="6.11313">
        <ele>1394.8</ele>
        <time>2000-01-01T03:35:58.000Z</time>
      </trkpt>
      <trkpt lat="45.81754" lon="6.11302">
        <ele>1396</ele>
        <time>2000-01-01T03:36:08.000Z</time>
      </trkpt>
      <trkpt lat="45.81745" lon="6.11294">
        <ele>1397.2</ele>
        <time>2000-01-01T03:36:18.000Z</time>
      </trkpt>
      <trkpt lat="45.81738" lon="6.11286">
        <ele>1398</ele>
        <time>2000-01-01T03:36:28.000Z</time>
      </trkpt>
      <trkpt lat="45.8173" lon="6.11281">
        <ele>1399.2</ele>
        <time>2000-01-01T03:36:38.000Z</time>
      </trkpt>
      <trkpt lat="45.8172" lon="6.11274">
        <ele>1402</ele>
        <time>2000-01-01T03:36:48.000Z</time>
      </trkpt>
      <trkpt lat="45.8171" lon="6.11269">
        <ele>1403.9</ele>
        <time>2000-01-01T03:36:58.000Z</time>
      </trkpt>
      <trkpt lat="45.81701" lon="6.11263">
        <ele>1404</ele>
        <time>2000-01-01T03:37:08.000Z</time>
      </trkpt>
      <trkpt lat="45.81692" lon="6.1126">
        <ele>1407.6</ele>
        <time>2000-01-01T03:37:18.000Z</time>
      </trkpt>
      <trkpt lat="45.81681" lon="6.1126">
        <ele>1409</ele>
        <time>2000-01-01T03:37:28.000Z</time>
      </trkpt>
      <trkpt lat="45.81671" lon="6.11265">
        <ele>1410.1</ele>
        <time>2000-01-01T03:37:38.000Z</time>
      </trkpt>
      <trkpt lat="45.81665" lon="6.11267">
        <ele>1410.8</ele>
        <time>2000-01-01T03:37:48.000Z</time>
      </trkpt>
      <trkpt lat="45.81657" lon="6.11271">
        <ele>1410</ele>
        <time>2000-01-01T03:37:58.000Z</time>
      </trkpt>
      <trkpt lat="45.81649" lon="6.1127">
        <ele>1412.2</ele>
        <time>2000-01-01T03:38:08.000Z</time>
      </trkpt>
      <trkpt lat="45.81642" lon="6.11269">
        <ele>1412.7</ele>
        <time>2000-01-01T03:38:18.000Z</time>
      </trkpt>
      <trkpt lat="45.81632" lon="6.11256">
        <ele>1413</ele>
        <time>2000-01-01T03:38:28.000Z</time>
      </trkpt>
      <trkpt lat="45.81618" lon="6.11242">
        <ele>1416.7</ele>
        <time>2000-01-01T03:38:38.000Z</time>
      </trkpt>
      <trkpt lat="45.81612" lon="6.11231">
        <ele>1418</ele>
        <time>2000-01-01T03:38:48.000Z</time>
      </trkpt>
      <trkpt lat="45.81606" lon="6.1122">
        <ele>1420.1</ele>
        <time>2000-01-01T03:38:58.000Z</time>
      </trkpt>
      <trkpt lat="45.81606" lon="6.11217">
        <ele>1420.5</ele>
        <time>2000-01-01T03:39:08.000Z</time>
      </trkpt>
      <trkpt lat="45.81596" lon="6.11205">
        <ele>1425</ele>
        <time>2000-01-01T03:39:18.000Z</time>
      </trkpt>
      <trkpt lat="45.81592" lon="6.11193">
        <ele>1426.1</ele>
        <time>2000-01-01T03:39:28.000Z</time>
      </trkpt>
      <trkpt lat="45.81589" lon="6.11185">
        <ele>1426.4</ele>
        <time>2000-01-01T03:39:38.000Z</time>
      </trkpt>
      <trkpt lat="45.81583" lon="6.11182">
        <ele>1427</ele>
        <time>2000-01-01T03:39:48.000Z</time>
      </trkpt>
      <trkpt lat="45.81577" lon="6.11175">
        <ele>1427.9</ele>
        <time>2000-01-01T03:39:58.000Z</time>
      </trkpt>
      <trkpt lat="45.81569" lon="6.11169">
        <ele>1428.8</ele>
        <time>2000-01-01T03:40:08.000Z</time>
      </trkpt>
      <trkpt lat="45.81561" lon="6.11164">
        <ele>1428</ele>
        <time>2000-01-01T03:40:18.000Z</time>
      </trkpt>
      <trkpt lat="45.8155" lon="6.11167">
        <ele>1431.4</ele>
        <time>2000-01-01T03:40:28.000Z</time>
      </trkpt>
      <trkpt lat="45.81541" lon="6.11166">
        <ele>1429</ele>
        <time>2000-01-01T03:40:38.000Z</time>
      </trkpt>
      <trkpt lat="45.81534" lon="6.11156">
        <ele>1432.7</ele>
        <time>2000-01-01T03:40:48.000Z</time>
      </trkpt>
      <trkpt lat="45.81531" lon="6.11143">
        <ele>1433</ele>
        <time>2000-01-01T03:40:58.000Z</time>
      </trkpt>
      <trkpt lat="45.81529" lon="6.11114">
        <ele>1435</ele>
        <time>2000-01-01T03:41:08.000Z</time>
      </trkpt>
      <trkpt lat="45.81526" lon="6.11101">
        <ele>1436.1</ele>
        <time>2000-01-01T03:41:18.000Z</time>
      </trkpt>
      <trkpt lat="45.81522" lon="6.11087">
        <ele>1437</ele>
        <time>2000-01-01T03:41:28.000Z</time>
      </trkpt>
      <trkpt lat="45.81522" lon="6.11073">
        <ele>1437.1</ele>
        <time>2000-01-01T03:41:38.000Z</time>
      </trkpt>
      <trkpt lat="45.81519" lon="6.1106">
        <ele>1440</ele>
        <time>2000-01-01T03:41:48.000Z</time>
      </trkpt>
      <trkpt lat="45.81512" lon="6.11049">
        <ele>1442</ele>
        <time>2000-01-01T03:41:58.000Z</time>
      </trkpt>
      <trkpt lat="45.81504" lon="6.11043">
        <ele>1447</ele>
        <time>2000-01-01T03:42:08.000Z</time>
      </trkpt>
      <trkpt lat="45.81493" lon="6.11037">
        <ele>1448.4</ele>
        <time>2000-01-01T03:42:18.000Z</time>
      </trkpt>
      <trkpt lat="45.81483" lon="6.11041">
        <ele>1451</ele>
        <time>2000-01-01T03:42:28.000Z</time>
      </trkpt>
      <trkpt lat="45.81474" lon="6.11039">
        <ele>1452.2</ele>
        <time>2000-01-01T03:42:38.000Z</time>
      </trkpt>
      <trkpt lat="45.81466" lon="6.11031">
        <ele>1455</ele>
        <time>2000-01-01T03:42:48.000Z</time>
      </trkpt>
      <trkpt lat="45.81464" lon="6.11018">
        <ele>1454.8</ele>
        <time>2000-01-01T03:42:58.000Z</time>
      </trkpt>
      <trkpt lat="45.81465" lon="6.11014">
        <ele>1454.8</ele>
        <time>2000-01-01T03:43:08.000Z</time>
      </trkpt>
      <trkpt lat="45.81463" lon="6.11013">
        <ele>1455.2</ele>
        <time>2000-01-01T03:43:18.000Z</time>
      </trkpt>
      <trkpt lat="45.8146" lon="6.11007">
        <ele>1455.9</ele>
        <time>2000-01-01T03:43:28.000Z</time>
      </trkpt>
      <trkpt lat="45.81455" lon="6.11012">
        <ele>1457</ele>
        <time>2000-01-01T03:43:38.000Z</time>
      </trkpt>
      <trkpt lat="45.81451" lon="6.11018">
        <ele>1457.2</ele>
        <time>2000-01-01T03:43:48.000Z</time>
      </trkpt>
      <trkpt lat="45.81441" lon="6.11025">
        <ele>1458.7</ele>
        <time>2000-01-01T03:43:58.000Z</time>
      </trkpt>
      <trkpt lat="45.81435" lon="6.11031">
        <ele>1460</ele>
        <time>2000-01-01T03:44:08.000Z</time>
      </trkpt>
      <trkpt lat="45.81434" lon="6.11033">
        <ele>1459.8</ele>
        <time>2000-01-01T03:44:18.000Z</time>
      </trkpt>
      <trkpt lat="45.81426" lon="6.11039">
        <ele>1461.1</ele>
        <time>2000-01-01T03:44:28.000Z</time>
      </trkpt>
      <trkpt lat="45.81418" lon="6.11045">
        <ele>1463</ele>
        <time>2000-01-01T03:44:38.000Z</time>
      </trkpt>
      <trkpt lat="45.81409" lon="6.11047">
        <ele>1463.2</ele>
        <time>2000-01-01T03:44:48.000Z</time>
      </trkpt>
      <trkpt lat="45.81404" lon="6.11051">
        <ele>1463.6</ele>
        <time>2000-01-01T03:44:58.000Z</time>
      </trkpt>
      <trkpt lat="45.81401" lon="6.11055">
        <ele>1462</ele>
        <time>2000-01-01T03:45:08.000Z</time>
      </trkpt>
      <trkpt lat="45.81395" lon="6.11079">
        <ele>1462.2</ele>
        <time>2000-01-01T03:45:18.000Z</time>
      </trkpt>
      <trkpt lat="45.8139" lon="6.11091">
        <ele>1462</ele>
        <time>2000-01-01T03:45:28.000Z</time>
      </trkpt>
      <trkpt lat="45.81379" lon="6.11106">
        <ele>1460.5</ele>
        <time>2000-01-01T03:45:38.000Z</time>
      </trkpt>
      <trkpt lat="45.81369" lon="6.11112">
        <ele>1463</ele>
        <time>2000-01-01T03:45:48.000Z</time>
      </trkpt>
      <trkpt lat="45.81359" lon="6.1112">
        <ele>1464.5</ele>
        <time>2000-01-01T03:45:58.000Z</time>
      </trkpt>
      <trkpt lat="45.81347" lon="6.11126">
        <ele>1467</ele>
        <time>2000-01-01T03:46:08.000Z</time>
      </trkpt>
      <trkpt lat="45.81341" lon="6.11132">
        <ele>1467.4</ele>
        <time>2000-01-01T03:46:18.000Z</time>
      </trkpt>
      <trkpt lat="45.81338" lon="6.11134">
        <ele>1467.8</ele>
        <time>2000-01-01T03:46:28.000Z</time>
      </trkpt>
      <trkpt lat="45.81327" lon="6.11138">
        <ele>1473</ele>
        <time>2000-01-01T03:46:38.000Z</time>
      </trkpt>
      <trkpt lat="45.8132" lon="6.11139">
        <ele>1471.4</ele>
        <time>2000-01-01T03:46:48.000Z</time>
      </trkpt>
      <trkpt lat="45.81308" lon="6.11138">
        <ele>1477</ele>
        <time>2000-01-01T03:46:58.000Z</time>
      </trkpt>
      <trkpt lat="45.81303" lon="6.1114">
        <ele>1475.7</ele>
        <time>2000-01-01T03:47:08.000Z</time>
      </trkpt>
      <trkpt lat="45.81298" lon="6.11144">
        <ele>1477.1</ele>
        <time>2000-01-01T03:47:18.000Z</time>
      </trkpt>
      <trkpt lat="45.81295" lon="6.11146">
        <ele>1477.9</ele>
        <time>2000-01-01T03:47:28.000Z</time>
      </trkpt>
      <trkpt lat="45.81294" lon="6.11152">
        <ele>1477.8</ele>
        <time>2000-01-01T03:47:38.000Z</time>
      </trkpt>
      <trkpt lat="45.81289" lon="6.11159">
        <ele>1481</ele>
        <time>2000-01-01T03:47:48.000Z</time>
      </trkpt>
      <trkpt lat="45.81287" lon="6.11164">
        <ele>1479.2</ele>
        <time>2000-01-01T03:47:58.000Z</time>
      </trkpt>
      <trkpt lat="45.81283" lon="6.11169">
        <ele>1480.2</ele>
        <time>2000-01-01T03:48:08.000Z</time>
      </trkpt>
      <trkpt lat="45.81277" lon="6.11173">
        <ele>1481.8</ele>
        <time>2000-01-01T03:48:18.000Z</time>
      </trkpt>
      <trkpt lat="45.81274" lon="6.11174">
        <ele>1484</ele>
        <time>2000-01-01T03:48:28.000Z</time>
      </trkpt>
      <trkpt lat="45.8127" lon="6.11177">
        <ele>1483.4</ele>
        <time>2000-01-01T03:48:38.000Z</time>
      </trkpt>
      <trkpt lat="45.81261" lon="6.11181">
        <ele>1485.5</ele>
        <time>2000-01-01T03:48:48.000Z</time>
      </trkpt>
      <trkpt lat="45.81259" lon="6.11183">
        <ele>1485.8</ele>
        <time>2000-01-01T03:48:58.000Z</time>
      </trkpt>
      <trkpt lat="45.81253" lon="6.11184">
        <ele>1487</ele>
        <time>2000-01-01T03:49:08.000Z</time>
      </trkpt>
      <trkpt lat="45.8125" lon="6.11186">
        <ele>1487.9</ele>
        <time>2000-01-01T03:49:18.000Z</time>
      </trkpt>
      <trkpt lat="45.81244" lon="6.11188">
        <ele>1489.3</ele>
        <time>2000-01-01T03:49:28.000Z</time>
      </trkpt>
      <trkpt lat="45.81241" lon="6.1119">
        <ele>1489.9</ele>
        <time>2000-01-01T03:49:38.000Z</time>
      </trkpt>
      <trkpt lat="45.81238" lon="6.1119">
        <ele>1490.6</ele>
        <time>2000-01-01T03:49:48.000Z</time>
      </trkpt>
      <trkpt lat="45.81234" lon="6.11194">
        <ele>1492</ele>
        <time>2000-01-01T03:49:58.000Z</time>
      </trkpt>
      <trkpt lat="45.81228" lon="6.11197">
        <ele>1492.5</ele>
        <time>2000-01-01T03:50:08.000Z</time>
      </trkpt>
      <trkpt lat="45.81221" lon="6.11203">
        <ele>1494.1</ele>
        <time>2000-01-01T03:50:18.000Z</time>
      </trkpt>
      <trkpt lat="45.8121" lon="6.11207">
        <ele>1502</ele>
        <time>2000-01-01T03:50:28.000Z</time>
      </trkpt>
      <trkpt lat="45.81204" lon="6.11206">
        <ele>1498.8</ele>
        <time>2000-01-01T03:50:38.000Z</time>
      </trkpt>
      <trkpt lat="45.81194" lon="6.11213">
        <ele>1500.1</ele>
        <time>2000-01-01T03:50:48.000Z</time>
      </trkpt>
      <trkpt lat="45.81188" lon="6.11214">
        <ele>1504</ele>
        <time>2000-01-01T03:50:58.000Z</time>
      </trkpt>
      <trkpt lat="45.81182" lon="6.11216">
        <ele>1502.1</ele>
        <time>2000-01-01T03:51:08.000Z</time>
      </trkpt>
      <trkpt lat="45.81177" lon="6.11215">
        <ele>1503.5</ele>
        <time>2000-01-01T03:51:18.000Z</time>
      </trkpt>
      <trkpt lat="45.81172" lon="6.11217">
        <ele>1504.1</ele>
        <time>2000-01-01T03:51:28.000Z</time>
      </trkpt>
      <trkpt lat="45.81165" lon="6.11217">
        <ele>1505</ele>
        <time>2000-01-01T03:51:38.000Z</time>
      </trkpt>
      <trkpt lat="45.81152" lon="6.11214">
        <ele>1506.7</ele>
        <time>2000-01-01T03:51:48.000Z</time>
      </trkpt>
      <trkpt lat="45.81146" lon="6.1121">
        <ele>1506</ele>
        <time>2000-01-01T03:51:58.000Z</time>
      </trkpt>
      <trkpt lat="45.81142" lon="6.11206">
        <ele>1507.6</ele>
        <time>2000-01-01T03:52:08.000Z</time>
      </trkpt>
      <trkpt lat="45.81139" lon="6.11201">
        <ele>1507.8</ele>
        <time>2000-01-01T03:52:18.000Z</time>
      </trkpt>
      <trkpt lat="45.81125" lon="6.11187">
        <ele>1506</ele>
        <time>2000-01-01T03:52:28.000Z</time>
      </trkpt>
      <trkpt lat="45.81118" lon="6.1118">
        <ele>1508.6</ele>
        <time>2000-01-01T03:52:38.000Z</time>
      </trkpt>
      <trkpt lat="45.81117" lon="6.11177">
        <ele>1508.6</ele>
        <time>2000-01-01T03:52:48.000Z</time>
      </trkpt>
      <trkpt lat="45.81104" lon="6.11144">
        <ele>1507</ele>
        <time>2000-01-01T03:52:58.000Z</time>
      </trkpt>
      <trkpt lat="45.811" lon="6.11132">
        <ele>1509.9</ele>
        <time>2000-01-01T03:53:08.000Z</time>
      </trkpt>
      <trkpt lat="45.8109" lon="6.11106">
        <ele>1511</ele>
        <time>2000-01-01T03:53:18.000Z</time>
      </trkpt>
      <trkpt lat="45.81088" lon="6.111">
        <ele>1511.3</ele>
        <time>2000-01-01T03:53:28.000Z</time>
      </trkpt>
      <trkpt lat="45.81088" lon="6.11085">
        <ele>1511.9</ele>
        <time>2000-01-01T03:53:38.000Z</time>
      </trkpt>
      <trkpt lat="45.81087" lon="6.1107">
        <ele>1511</ele>
        <time>2000-01-01T03:53:48.000Z</time>
      </trkpt>
      <trkpt lat="45.81081" lon="6.11038">
        <ele>1511</ele>
        <time>2000-01-01T03:53:58.000Z</time>
      </trkpt>
      <trkpt lat="45.81077" lon="6.1103">
        <ele>1511.8</ele>
        <time>2000-01-01T03:54:08.000Z</time>
      </trkpt>
      <trkpt lat="45.81076" lon="6.11027">
        <ele>1511.8</ele>
        <time>2000-01-01T03:54:18.000Z</time>
      </trkpt>
      <trkpt lat="45.8107" lon="6.11011">
        <ele>1512</ele>
        <time>2000-01-01T03:54:28.000Z</time>
      </trkpt>
      <trkpt lat="45.81069" lon="6.11005">
        <ele>1512.5</ele>
        <time>2000-01-01T03:54:38.000Z</time>
      </trkpt>
      <trkpt lat="45.81064" lon="6.10994">
        <ele>1512.8</ele>
        <time>2000-01-01T03:54:48.000Z</time>
      </trkpt>
      <trkpt lat="45.81056" lon="6.10985">
        <ele>1514</ele>
        <time>2000-01-01T03:54:58.000Z</time>
      </trkpt>
      <trkpt lat="45.8105" lon="6.10981">
        <ele>1513.7</ele>
        <time>2000-01-01T03:55:08.000Z</time>
      </trkpt>
      <trkpt lat="45.81041" lon="6.1097">
        <ele>1514.6</ele>
        <time>2000-01-01T03:55:18.000Z</time>
      </trkpt>
      <trkpt lat="45.81034" lon="6.10958">
        <ele>1516</ele>
        <time>2000-01-01T03:55:28.000Z</time>
      </trkpt>
      <trkpt lat="45.81018" lon="6.10917">
        <ele>1517</ele>
        <time>2000-01-01T03:55:38.000Z</time>
      </trkpt>
      <trkpt lat="45.81016" lon="6.10914">
        <ele>1517.8</ele>
        <time>2000-01-01T03:55:48.000Z</time>
      </trkpt>
      <trkpt lat="45.81007" lon="6.10901">
        <ele>1518.5</ele>
        <time>2000-01-01T03:55:58.000Z</time>
      </trkpt>
      <trkpt lat="45.81003" lon="6.10895">
        <ele>1518</ele>
        <time>2000-01-01T03:56:08.000Z</time>
      </trkpt>
      <trkpt lat="45.80998" lon="6.10885">
        <ele>1519</ele>
        <time>2000-01-01T03:56:18.000Z</time>
      </trkpt>
      <trkpt lat="45.80995" lon="6.10879">
        <ele>1519</ele>
        <time>2000-01-01T03:56:28.000Z</time>
      </trkpt>
      <trkpt lat="45.80987" lon="6.10868">
        <ele>1521</ele>
        <time>2000-01-01T03:56:38.000Z</time>
      </trkpt>
      <trkpt lat="45.80974" lon="6.10853">
        <ele>1521.4</ele>
        <time>2000-01-01T03:56:48.000Z</time>
      </trkpt>
      <trkpt lat="45.80971" lon="6.10851">
        <ele>1522</ele>
        <time>2000-01-01T03:56:58.000Z</time>
      </trkpt>
      <trkpt lat="45.80964" lon="6.10849">
        <ele>1522.5</ele>
        <time>2000-01-01T03:57:08.000Z</time>
      </trkpt>
      <trkpt lat="45.80955" lon="6.10842">
        <ele>1523.8</ele>
        <time>2000-01-01T03:57:18.000Z</time>
      </trkpt>
      <trkpt lat="45.80949" lon="6.10832">
        <ele>1526</ele>
        <time>2000-01-01T03:57:28.000Z</time>
      </trkpt>
      <trkpt lat="45.80934" lon="6.10815">
        <ele>1527</ele>
        <time>2000-01-01T03:57:38.000Z</time>
      </trkpt>
      <trkpt lat="45.80926" lon="6.10804">
        <ele>1528.2</ele>
        <time>2000-01-01T03:57:48.000Z</time>
      </trkpt>
      <trkpt lat="45.80921" lon="6.10795">
        <ele>1528</ele>
        <time>2000-01-01T03:57:58.000Z</time>
      </trkpt>
      <trkpt lat="45.80919" lon="6.10795">
        <ele>1529.2</ele>
        <time>2000-01-01T03:58:08.000Z</time>
      </trkpt>
      <trkpt lat="45.80916" lon="6.10795">
        <ele>1529.7</ele>
        <time>2000-01-01T03:58:18.000Z</time>
      </trkpt>
      <trkpt lat="45.80912" lon="6.10796">
        <ele>1530.3</ele>
        <time>2000-01-01T03:58:28.000Z</time>
      </trkpt>
      <trkpt lat="45.80908" lon="6.10797">
        <ele>1530.9</ele>
        <time>2000-01-01T03:58:38.000Z</time>
      </trkpt>
      <trkpt lat="45.80901" lon="6.10799">
        <ele>1530</ele>
        <time>2000-01-01T03:58:48.000Z</time>
      </trkpt>
      <trkpt lat="45.80896" lon="6.10799">
        <ele>1532.7</ele>
        <time>2000-01-01T03:58:58.000Z</time>
      </trkpt>
      <trkpt lat="45.8089" lon="6.10801">
        <ele>1533.7</ele>
        <time>2000-01-01T03:59:08.000Z</time>
      </trkpt>
      <trkpt lat="45.8089" lon="6.10806">
        <ele>1533.9</ele>
        <time>2000-01-01T03:59:18.000Z</time>
      </trkpt>
      <trkpt lat="45.8089" lon="6.10812">
        <ele>1534.3</ele>
        <time>2000-01-01T03:59:28.000Z</time>
      </trkpt>
      <trkpt lat="45.80889" lon="6.10819">
        <ele>1535</ele>
        <time>2000-01-01T03:59:38.000Z</time>
      </trkpt>
      <trkpt lat="45.80889" lon="6.10831">
        <ele>1535.8</ele>
        <time>2000-01-01T03:59:48.000Z</time>
      </trkpt>
      <trkpt lat="45.80855" lon="6.10863">
        <ele>1542</ele>
        <time>2000-01-01T03:59:58.000Z</time>
      </trkpt>
      <trkpt lat="45.80823" lon="6.10898">
        <ele>1550</ele>
        <time>2000-01-01T04:00:08.000Z</time>
      </trkpt>
      <trkpt lat="45.80804" lon="6.10911">
        <ele>1554</ele>
        <time>2000-01-01T04:00:18.000Z</time>
      </trkpt>
      <trkpt lat="45.80778" lon="6.10925">
        <ele>1556</ele>
        <time>2000-01-01T04:00:28.000Z</time>
      </trkpt>
      <trkpt lat="45.80758" lon="6.10938">
        <ele>1557</ele>
        <time>2000-01-01T04:00:38.000Z</time>
      </trkpt>
      <trkpt lat="45.80753" lon="6.10937">
        <ele>1557.5</ele>
        <time>2000-01-01T04:00:48.000Z</time>
      </trkpt>
      <trkpt lat="45.8075" lon="6.10937">
        <ele>1558</ele>
        <time>2000-01-01T04:00:58.000Z</time>
      </trkpt>
      <trkpt lat="45.80743" lon="6.10939">
        <ele>1558.7</ele>
        <time>2000-01-01T04:01:08.000Z</time>
      </trkpt>
      <trkpt lat="45.80731" lon="6.10939">
        <ele>1559</ele>
        <time>2000-01-01T04:01:18.000Z</time>
      </trkpt>
      <trkpt lat="45.80725" lon="6.10939">
        <ele>1560.5</ele>
        <time>2000-01-01T04:01:28.000Z</time>
      </trkpt>
      <trkpt lat="45.80722" lon="6.10938">
        <ele>1560.8</ele>
        <time>2000-01-01T04:01:38.000Z</time>
      </trkpt>
      <trkpt lat="45.80709" lon="6.10933">
        <ele>1563</ele>
        <time>2000-01-01T04:01:48.000Z</time>
      </trkpt>
      <trkpt lat="45.80699" lon="6.10927">
        <ele>1563.7</ele>
        <time>2000-01-01T04:01:58.000Z</time>
      </trkpt>
      <trkpt lat="45.80696" lon="6.10922">
        <ele>1564</ele>
        <time>2000-01-01T04:02:08.000Z</time>
      </trkpt>
      <trkpt lat="45.80687" lon="6.10903">
        <ele>1564</ele>
        <time>2000-01-01T04:02:18.000Z</time>
      </trkpt>
      <trkpt lat="45.80686" lon="6.10898">
        <ele>1563.9</ele>
        <time>2000-01-01T04:02:28.000Z</time>
      </trkpt>
      <trkpt lat="45.80681" lon="6.109">
        <ele>1564.4</ele>
        <time>2000-01-01T04:02:38.000Z</time>
      </trkpt>
      <trkpt lat="45.80678" lon="6.109">
        <ele>1564.6</ele>
        <time>2000-01-01T04:02:48.000Z</time>
      </trkpt>
      <trkpt lat="45.80674" lon="6.10901">
        <ele>1564.9</ele>
        <time>2000-01-01T04:02:58.000Z</time>
      </trkpt>
      <trkpt lat="45.80671" lon="6.109">
        <ele>1565.1</ele>
        <time>2000-01-01T04:03:08.000Z</time>
      </trkpt>
      <trkpt lat="45.80667" lon="6.10899">
        <ele>1564</ele>
        <time>2000-01-01T04:03:18.000Z</time>
      </trkpt>
      <trkpt lat="45.80665" lon="6.10898">
        <ele>1565.4</ele>
        <time>2000-01-01T04:03:28.000Z</time>
      </trkpt>
      <trkpt lat="45.80661" lon="6.10895">
        <ele>1565.4</ele>
        <time>2000-01-01T04:03:38.000Z</time>
      </trkpt>
      <trkpt lat="45.80657" lon="6.10893">
        <ele>1565.3</ele>
        <time>2000-01-01T04:03:48.000Z</time>
      </trkpt>
      <trkpt lat="45.80654" lon="6.10891">
        <ele>1565.2</ele>
        <time>2000-01-01T04:03:58.000Z</time>
      </trkpt>
      <trkpt lat="45.80651" lon="6.10888">
        <ele>1564.9</ele>
        <time>2000-01-01T04:04:08.000Z</time>
      </trkpt>
      <trkpt lat="45.80648" lon="6.10887">
        <ele>1564</ele>
        <time>2000-01-01T04:04:18.000Z</time>
      </trkpt>
      <trkpt lat="45.80645" lon="6.10885">
        <ele>1564.7</ele>
        <time>2000-01-01T04:04:28.000Z</time>
      </trkpt>
      <trkpt lat="45.80641" lon="6.10883">
        <ele>1564.6</ele>
        <time>2000-01-01T04:04:38.000Z</time>
      </trkpt>
      <trkpt lat="45.80638" lon="6.10882">
        <ele>1564.5</ele>
        <time>2000-01-01T04:04:48.000Z</time>
      </trkpt>
      <trkpt lat="45.80635" lon="6.10881">
        <ele>1564.5</ele>
        <time>2000-01-01T04:04:58.000Z</time>
      </trkpt>
      <trkpt lat="45.80631" lon="6.10881">
        <ele>1564.6</ele>
        <time>2000-01-01T04:05:08.000Z</time>
      </trkpt>
      <trkpt lat="45.80629" lon="6.10881">
        <ele>1564</ele>
        <time>2000-01-01T04:05:18.000Z</time>
      </trkpt>
      <trkpt lat="45.80626" lon="6.10881">
        <ele>1564.7</ele>
        <time>2000-01-01T04:05:28.000Z</time>
      </trkpt>
      <trkpt lat="45.80624" lon="6.10881">
        <ele>1564.7</ele>
        <time>2000-01-01T04:05:38.000Z</time>
      </trkpt>
      <trkpt lat="45.80621" lon="6.10881">
        <ele>1564.8</ele>
        <time>2000-01-01T04:05:48.000Z</time>
      </trkpt>
      <trkpt lat="45.80617" lon="6.10881">
        <ele>1564.9</ele>
        <time>2000-01-01T04:05:58.000Z</time>
      </trkpt>
      <trkpt lat="45.80608" lon="6.1088">
        <ele>1565</ele>
        <time>2000-01-01T04:06:08.000Z</time>
      </trkpt>
      <trkpt lat="45.80602" lon="6.1088">
        <ele>1566.2</ele>
        <time>2000-01-01T04:06:18.000Z</time>
      </trkpt>
      <trkpt lat="45.80598" lon="6.1088">
        <ele>1566.7</ele>
        <time>2000-01-01T04:06:28.000Z</time>
      </trkpt>
      <trkpt lat="45.80593" lon="6.10881">
        <ele>1567.4</ele>
        <time>2000-01-01T04:06:38.000Z</time>
      </trkpt>
      <trkpt lat="45.80586" lon="6.10884">
        <ele>1569</ele>
        <time>2000-01-01T04:06:48.000Z</time>
      </trkpt>
      <trkpt lat="45.80577" lon="6.10887">
        <ele>1569.8</ele>
        <time>2000-01-01T04:06:58.000Z</time>
      </trkpt>
      <trkpt lat="45.8057" lon="6.10892">
        <ele>1571.4</ele>
        <time>2000-01-01T04:07:08.000Z</time>
      </trkpt>
      <trkpt lat="45.8056" lon="6.10899">
        <ele>1572</ele>
        <time>2000-01-01T04:07:18.000Z</time>
      </trkpt>
      <trkpt lat="45.80555" lon="6.10903">
        <ele>1575.1</ele>
        <time>2000-01-01T04:07:28.000Z</time>
      </trkpt>
      <trkpt lat="45.8055" lon="6.10909">
        <ele>1576.3</ele>
        <time>2000-01-01T04:07:38.000Z</time>
      </trkpt>
      <trkpt lat="45.80544" lon="6.10916">
        <ele>1576</ele>
        <time>2000-01-01T04:07:48.000Z</time>
      </trkpt>
      <trkpt lat="45.80541" lon="6.1092">
        <ele>1578.6</ele>
        <time>2000-01-01T04:07:58.000Z</time>
      </trkpt>
      <trkpt lat="45.80538" lon="6.10922">
        <ele>1579.2</ele>
        <time>2000-01-01T04:08:08.000Z</time>
      </trkpt>
      <trkpt lat="45.80536" lon="6.10923">
        <ele>1579.5</ele>
        <time>2000-01-01T04:08:18.000Z</time>
      </trkpt>
      <trkpt lat="45.80533" lon="6.10926">
        <ele>1580.2</ele>
        <time>2000-01-01T04:08:28.000Z</time>
      </trkpt>
      <trkpt lat="45.8053" lon="6.10928">
        <ele>1580.8</ele>
        <time>2000-01-01T04:08:38.000Z</time>
      </trkpt>
      <trkpt lat="45.80528" lon="6.1093">
        <ele>1582</ele>
        <time>2000-01-01T04:08:48.000Z</time>
      </trkpt>
      <trkpt lat="45.80521" lon="6.10935">
        <ele>1582.8</ele>
        <time>2000-01-01T04:08:58.000Z</time>
      </trkpt>
      <trkpt lat="45.80519" lon="6.10937">
        <ele>1583.3</ele>
        <time>2000-01-01T04:09:08.000Z</time>
      </trkpt>
      <trkpt lat="45.80516" lon="6.10937">
        <ele>1583.5</ele>
        <time>2000-01-01T04:09:18.000Z</time>
      </trkpt>
      <trkpt lat="45.80513" lon="6.10938">
        <ele>1583.9</ele>
        <time>2000-01-01T04:09:28.000Z</time>
      </trkpt>
      <trkpt lat="45.8051" lon="6.10939">
        <ele>1584.3</ele>
        <time>2000-01-01T04:09:38.000Z</time>
      </trkpt>
      <trkpt lat="45.80507" lon="6.10939">
        <ele>1583</ele>
        <time>2000-01-01T04:09:48.000Z</time>
      </trkpt>
      <trkpt lat="45.80504" lon="6.10939">
        <ele>1584.7</ele>
        <time>2000-01-01T04:09:58.000Z</time>
      </trkpt>
      <trkpt lat="45.80501" lon="6.10939">
        <ele>1584.9</ele>
        <time>2000-01-01T04:10:08.000Z</time>
      </trkpt>
      <trkpt lat="45.80499" lon="6.10939">
        <ele>1585</ele>
        <time>2000-01-01T04:10:18.000Z</time>
      </trkpt>
      <trkpt lat="45.80497" lon="6.10939">
        <ele>1585</ele>
        <time>2000-01-01T04:10:28.000Z</time>
      </trkpt>
      <trkpt lat="45.80495" lon="6.10938">
        <ele>1584.8</ele>
        <time>2000-01-01T04:10:38.000Z</time>
      </trkpt>
      <trkpt lat="45.80493" lon="6.10938">
        <ele>1584.8</ele>
        <time>2000-01-01T04:10:48.000Z</time>
      </trkpt>
      <trkpt lat="45.8049" lon="6.10938">
        <ele>1584.8</ele>
        <time>2000-01-01T04:10:58.000Z</time>
      </trkpt>
      <trkpt lat="45.80486" lon="6.10938">
        <ele>1583</ele>
        <time>2000-01-01T04:11:08.000Z</time>
      </trkpt>
      <trkpt lat="45.80484" lon="6.10939">
        <ele>1585</ele>
        <time>2000-01-01T04:11:18.000Z</time>
      </trkpt>
      <trkpt lat="45.80479" lon="6.10939">
        <ele>1585</ele>
        <time>2000-01-01T04:11:28.000Z</time>
      </trkpt>
      <trkpt lat="45.80477" lon="6.1094">
        <ele>1585.2</ele>
        <time>2000-01-01T04:11:38.000Z</time>
      </trkpt>
      <trkpt lat="45.80474" lon="6.10941">
        <ele>1585.4</ele>
        <time>2000-01-01T04:11:48.000Z</time>
      </trkpt>
      <trkpt lat="45.80471" lon="6.10942">
        <ele>1585.5</ele>
        <time>2000-01-01T04:11:58.000Z</time>
      </trkpt>
      <trkpt lat="45.80468" lon="6.10942">
        <ele>1584</ele>
        <time>2000-01-01T04:12:08.000Z</time>
      </trkpt>
      <trkpt lat="45.80465" lon="6.10943">
        <ele>1585.5</ele>
        <time>2000-01-01T04:12:18.000Z</time>
      </trkpt>
      <trkpt lat="45.80464" lon="6.10944">
        <ele>1585.6</ele>
        <time>2000-01-01T04:12:28.000Z</time>
      </trkpt>
      <trkpt lat="45.80461" lon="6.10944">
        <ele>1585.5</ele>
        <time>2000-01-01T04:12:38.000Z</time>
      </trkpt>
      <trkpt lat="45.80458" lon="6.10945">
        <ele>1585.6</ele>
        <time>2000-01-01T04:12:48.000Z</time>
      </trkpt>
      <trkpt lat="45.80456" lon="6.10947">
        <ele>1586</ele>
        <time>2000-01-01T04:12:58.000Z</time>
      </trkpt>
      <trkpt lat="45.80447" lon="6.10949">
        <ele>1584</ele>
        <time>2000-01-01T04:13:08.000Z</time>
      </trkpt>
      <trkpt lat="45.80439" lon="6.10952">
        <ele>1587.5</ele>
        <time>2000-01-01T04:13:18.000Z</time>
      </trkpt>
      <trkpt lat="45.80433" lon="6.10954">
        <ele>1588.6</ele>
        <time>2000-01-01T04:13:28.000Z</time>
      </trkpt>
      <trkpt lat="45.80426" lon="6.10959">
        <ele>1589</ele>
        <time>2000-01-01T04:13:38.000Z</time>
      </trkpt>
      <trkpt lat="45.80422" lon="6.10962">
        <ele>1591.1</ele>
        <time>2000-01-01T04:13:48.000Z</time>
      </trkpt>
      <trkpt lat="45.80416" lon="6.10969">
        <ele>1592.6</ele>
        <time>2000-01-01T04:13:58.000Z</time>
      </trkpt>
      <trkpt lat="45.8041" lon="6.10977">
        <ele>1592</ele>
        <time>2000-01-01T04:14:08.000Z</time>
      </trkpt>
      <trkpt lat="45.80402" lon="6.10987">
        <ele>1594.3</ele>
        <time>2000-01-01T04:14:18.000Z</time>
      </trkpt>
      <trkpt lat="45.80396" lon="6.10994">
        <ele>1594.3</ele>
        <time>2000-01-01T04:14:28.000Z</time>
      </trkpt>
      <trkpt lat="45.80386" lon="6.10992">
        <ele>1592</ele>
        <time>2000-01-01T04:14:38.000Z</time>
      </trkpt>
      <trkpt lat="45.8037" lon="6.10987">
        <ele>1592.6</ele>
        <time>2000-01-01T04:14:48.000Z</time>
      </trkpt>
      <trkpt lat="45.80361" lon="6.10984">
        <ele>1591</ele>
        <time>2000-01-01T04:14:58.000Z</time>
      </trkpt>
      <trkpt lat="45.80355" lon="6.10982">
        <ele>1591.8</ele>
        <time>2000-01-01T04:15:08.000Z</time>
      </trkpt>
      <trkpt lat="45.80351" lon="6.10981">
        <ele>1591.6</ele>
        <time>2000-01-01T04:15:18.000Z</time>
      </trkpt>
      <trkpt lat="45.80348" lon="6.10979">
        <ele>1591.5</ele>
        <time>2000-01-01T04:15:28.000Z</time>
      </trkpt>
      <trkpt lat="45.80345" lon="6.10977">
        <ele>1591.4</ele>
        <time>2000-01-01T04:15:38.000Z</time>
      </trkpt>
      <trkpt lat="45.80342" lon="6.10975">
        <ele>1592</ele>
        <time>2000-01-01T04:15:48.000Z</time>
      </trkpt>
      <trkpt lat="45.8034" lon="6.10973">
        <ele>1591.2</ele>
        <time>2000-01-01T04:15:58.000Z</time>
      </trkpt>
      <trkpt lat="45.80336" lon="6.10971">
        <ele>1591</ele>
        <time>2000-01-01T04:16:08.000Z</time>
      </trkpt>
      <trkpt lat="45.80333" lon="6.10968">
        <ele>1590.7</ele>
        <time>2000-01-01T04:16:18.000Z</time>
      </trkpt>
      <trkpt lat="45.80327" lon="6.10962">
        <ele>1591.1</ele>
        <time>2000-01-01T04:16:28.000Z</time>
      </trkpt>
      <trkpt lat="45.80315" lon="6.10952">
        <ele>1593</ele>
        <time>2000-01-01T04:16:38.000Z</time>
      </trkpt>
      <trkpt lat="45.80312" lon="6.10949">
        <ele>1592.9</ele>
        <time>2000-01-01T04:16:48.000Z</time>
      </trkpt>
      <trkpt lat="45.80306" lon="6.10945">
        <ele>1593.9</ele>
        <time>2000-01-01T04:16:58.000Z</time>
      </trkpt>
      <trkpt lat="45.80301" lon="6.10938">
        <ele>1595.8</ele>
        <time>2000-01-01T04:17:08.000Z</time>
      </trkpt>
      <trkpt lat="45.80292" lon="6.1093">
        <ele>1599</ele>
        <time>2000-01-01T04:17:18.000Z</time>
      </trkpt>
      <trkpt lat="45.80278" lon="6.10916">
        <ele>1600</ele>
        <time>2000-01-01T04:17:28.000Z</time>
      </trkpt>
      <trkpt lat="45.80272" lon="6.1091">
        <ele>1600</ele>
        <time>2000-01-01T04:17:38.000Z</time>
      </trkpt>
      <trkpt lat="45.80257" lon="6.10896">
        <ele>1601.5</ele>
        <time>2000-01-01T04:17:48.000Z</time>
      </trkpt>
      <trkpt lat="45.80248" lon="6.10887">
        <ele>1604</ele>
        <time>2000-01-01T04:17:58.000Z</time>
      </trkpt>
      <trkpt lat="45.80237" lon="6.10878">
        <ele>1606</ele>
        <time>2000-01-01T04:18:08.000Z</time>
      </trkpt>
      <trkpt lat="45.80229" lon="6.1087">
        <ele>1609</ele>
        <time>2000-01-01T04:18:18.000Z</time>
      </trkpt>
      <trkpt lat="45.80224" lon="6.10863">
        <ele>1608.7</ele>
        <time>2000-01-01T04:18:28.000Z</time>
      </trkpt>
      <trkpt lat="45.80219" lon="6.10854">
        <ele>1609.6</ele>
        <time>2000-01-01T04:18:38.000Z</time>
      </trkpt>
      <trkpt lat="45.80216" lon="6.10849">
        <ele>1610</ele>
        <time>2000-01-01T04:18:48.000Z</time>
      </trkpt>
      <trkpt lat="45.80212" lon="6.10847">
        <ele>1610.4</ele>
        <time>2000-01-01T04:18:58.000Z</time>
      </trkpt>
      <trkpt lat="45.80211" lon="6.1086">
        <ele>1610.6</ele>
        <time>2000-01-01T04:19:08.000Z</time>
      </trkpt>
      <trkpt lat="45.8021" lon="6.10877">
        <ele>1613</ele>
        <time>2000-01-01T04:19:18.000Z</time>
      </trkpt>
      <trkpt lat="45.80209" lon="6.10882">
        <ele>1611.7</ele>
        <time>2000-01-01T04:19:28.000Z</time>
      </trkpt>
      <trkpt lat="45.80209" lon="6.10886">
        <ele>1611.8</ele>
        <time>2000-01-01T04:19:38.000Z</time>
      </trkpt>
      <trkpt lat="45.80209" lon="6.10891">
        <ele>1612.2</ele>
        <time>2000-01-01T04:19:48.000Z</time>
      </trkpt>
      <trkpt lat="45.80209" lon="6.10896">
        <ele>1613</ele>
        <time>2000-01-01T04:19:58.000Z</time>
      </trkpt>
      <trkpt lat="45.80209" lon="6.10899">
        <ele>1613.5</ele>
        <time>2000-01-01T04:20:08.000Z</time>
      </trkpt>
      <trkpt lat="45.80201" lon="6.10894">
        <ele>1613</ele>
        <time>2000-01-01T04:20:18.000Z</time>
      </trkpt>
      <trkpt lat="45.802" lon="6.10896">
        <ele>1614.7</ele>
        <time>2000-01-01T04:20:28.000Z</time>
      </trkpt>
      <trkpt lat="45.80197" lon="6.10897">
        <ele>1615.5</ele>
        <time>2000-01-01T04:20:38.000Z</time>
      </trkpt>
      <trkpt lat="45.80187" lon="6.10894">
        <ele>1618.1</ele>
        <time>2000-01-01T04:20:48.000Z</time>
      </trkpt>
      <trkpt lat="45.80174" lon="6.10886">
        <ele>1620</ele>
        <time>2000-01-01T04:20:58.000Z</time>
      </trkpt>
      <trkpt lat="45.80165" lon="6.10877">
        <ele>1621.1</ele>
        <time>2000-01-01T04:21:08.000Z</time>
      </trkpt>
      <trkpt lat="45.80146" lon="6.10867">
        <ele>1624</ele>
        <time>2000-01-01T04:21:18.000Z</time>
      </trkpt>
      <trkpt lat="45.80129" lon="6.1085">
        <ele>1626</ele>
        <time>2000-01-01T04:21:28.000Z</time>
      </trkpt>
      <trkpt lat="45.8012" lon="6.10845">
        <ele>1627.4</ele>
        <time>2000-01-01T04:21:38.000Z</time>
      </trkpt>
      <trkpt lat="45.8011" lon="6.10841">
        <ele>1628</ele>
        <time>2000-01-01T04:21:48.000Z</time>
      </trkpt>
      <trkpt lat="45.80101" lon="6.10839">
        <ele>1630.1</ele>
        <time>2000-01-01T04:21:58.000Z</time>
      </trkpt>
      <trkpt lat="45.80091" lon="6.10843">
        <ele>1631</ele>
        <time>2000-01-01T04:22:08.000Z</time>
      </trkpt>
      <trkpt lat="45.80082" lon="6.10843">
        <ele>1634.1</ele>
        <time>2000-01-01T04:22:18.000Z</time>
      </trkpt>
      <trkpt lat="45.80074" lon="6.10838">
        <ele>1634.3</ele>
        <time>2000-01-01T04:22:28.000Z</time>
      </trkpt>
      <trkpt lat="45.80054" lon="6.10834">
        <ele>1637</ele>
        <time>2000-01-01T04:22:38.000Z</time>
      </trkpt>
      <trkpt lat="45.80044" lon="6.10827">
        <ele>1639.5</ele>
        <time>2000-01-01T04:22:48.000Z</time>
      </trkpt>
      <trkpt lat="45.80027" lon="6.10811">
        <ele>1644</ele>
        <time>2000-01-01T04:22:58.000Z</time>
      </trkpt>
      <trkpt lat="45.80003" lon="6.10801">
        <ele>1649</ele>
        <time>2000-01-01T04:23:08.000Z</time>
      </trkpt>
      <trkpt lat="45.79997" lon="6.10796">
        <ele>1649.6</ele>
        <time>2000-01-01T04:23:18.000Z</time>
      </trkpt>
      <trkpt lat="45.79992" lon="6.10789">
        <ele>1649.4</ele>
        <time>2000-01-01T04:23:28.000Z</time>
      </trkpt>
      <trkpt lat="45.79971" lon="6.10774">
        <ele>1653</ele>
        <time>2000-01-01T04:23:38.000Z</time>
      </trkpt>
      <trkpt lat="45.79966" lon="6.10769">
        <ele>1652.2</ele>
        <time>2000-01-01T04:23:48.000Z</time>
      </trkpt>
      <trkpt lat="45.79951" lon="6.10757">
        <ele>1654</ele>
        <time>2000-01-01T04:23:58.000Z</time>
      </trkpt>
      <trkpt lat="45.79946" lon="6.10755">
        <ele>1653.8</ele>
        <time>2000-01-01T04:24:08.000Z</time>
      </trkpt>
      <trkpt lat="45.79942" lon="6.10752">
        <ele>1654.2</ele>
        <time>2000-01-01T04:24:18.000Z</time>
      </trkpt>
      <trkpt lat="45.79936" lon="6.10749">
        <ele>1654.4</ele>
        <time>2000-01-01T04:24:28.000Z</time>
      </trkpt>
      <trkpt lat="45.79932" lon="6.10745">
        <ele>1654</ele>
        <time>2000-01-01T04:24:38.000Z</time>
      </trkpt>
      <trkpt lat="45.79925" lon="6.10744">
        <ele>1654.7</ele>
        <time>2000-01-01T04:24:48.000Z</time>
      </trkpt>
      <trkpt lat="45.79919" lon="6.10742">
        <ele>1655.4</ele>
        <time>2000-01-01T04:24:58.000Z</time>
      </trkpt>
      <trkpt lat="45.79915" lon="6.10738">
        <ele>1655.8</ele>
        <time>2000-01-01T04:25:08.000Z</time>
      </trkpt>
      <trkpt lat="45.7991" lon="6.10731">
        <ele>1656</ele>
        <time>2000-01-01T04:25:18.000Z</time>
      </trkpt>
      <trkpt lat="45.79903" lon="6.10724">
        <ele>1657</ele>
        <time>2000-01-01T04:25:28.000Z</time>
      </trkpt>
      <trkpt lat="45.79879" lon="6.10705">
        <ele>1660</ele>
        <time>2000-01-01T04:25:38.000Z</time>
      </trkpt>
      <trkpt lat="45.79868" lon="6.10693">
        <ele>1660.6</ele>
        <time>2000-01-01T04:25:48.000Z</time>
      </trkpt>
      <trkpt lat="45.79855" lon="6.10686">
        <ele>1663</ele>
        <time>2000-01-01T04:25:58.000Z</time>
      </trkpt>
      <trkpt lat="45.79837" lon="6.10673">
        <ele>1666</ele>
        <time>2000-01-01T04:26:08.000Z</time>
      </trkpt>
      <trkpt lat="45.79833" lon="6.10667">
        <ele>1666</ele>
        <time>2000-01-01T04:26:18.000Z</time>
      </trkpt>
      <trkpt lat="45.7983" lon="6.10661">
        <ele>1666.4</ele>
        <time>2000-01-01T04:26:28.000Z</time>
      </trkpt>
      <trkpt lat="45.79821" lon="6.10651">
        <ele>1668</ele>
        <time>2000-01-01T04:26:38.000Z</time>
      </trkpt>
      <trkpt lat="45.79813" lon="6.10644">
        <ele>1670</ele>
        <time>2000-01-01T04:26:48.000Z</time>
      </trkpt>
      <trkpt lat="45.79795" lon="6.10619">
        <ele>1676</ele>
        <time>2000-01-01T04:26:58.000Z</time>
      </trkpt>
      <trkpt lat="45.79784" lon="6.106">
        <ele>1677.5</ele>
        <time>2000-01-01T04:27:08.000Z</time>
      </trkpt>
      <trkpt lat="45.79779" lon="6.10585">
        <ele>1682</ele>
        <time>2000-01-01T04:27:18.000Z</time>
      </trkpt>
      <trkpt lat="45.79776" lon="6.10579">
        <ele>1681.1</ele>
        <time>2000-01-01T04:27:28.000Z</time>
      </trkpt>
      <trkpt lat="45.79773" lon="6.10572">
        <ele>1681.5</ele>
        <time>2000-01-01T04:27:38.000Z</time>
      </trkpt>
      <trkpt lat="45.79769" lon="6.10564">
        <ele>1682.6</ele>
        <time>2000-01-01T04:27:48.000Z</time>
      </trkpt>
      <trkpt lat="45.79759" lon="6.10552">
        <ele>1689</ele>
        <time>2000-01-01T04:27:58.000Z</time>
      </trkpt>
      <trkpt lat="45.79758" lon="6.10548">
        <ele>1686.5</ele>
        <time>2000-01-01T04:28:08.000Z</time>
      </trkpt>
      <trkpt lat="45.79755" lon="6.10542">
        <ele>1687.8</ele>
        <time>2000-01-01T04:28:18.000Z</time>
      </trkpt>
      <trkpt lat="45.79749" lon="6.10532">
        <ele>1690.8</ele>
        <time>2000-01-01T04:28:28.000Z</time>
      </trkpt>
      <trkpt lat="45.79747" lon="6.10528">
        <ele>1692</ele>
        <time>2000-01-01T04:28:38.000Z</time>
      </trkpt>
      <trkpt lat="45.79738" lon="6.10515">
        <ele>1690.7</ele>
        <time>2000-01-01T04:28:48.000Z</time>
      </trkpt>
      <trkpt lat="45.79732" lon="6.10501">
        <ele>1693</ele>
        <time>2000-01-01T04:28:58.000Z</time>
      </trkpt>
      <trkpt lat="45.79722" lon="6.10481">
        <ele>1693</ele>
        <time>2000-01-01T04:29:08.000Z</time>
      </trkpt>
      <trkpt lat="45.79715" lon="6.10475">
        <ele>1693</ele>
        <time>2000-01-01T04:29:18.000Z</time>
      </trkpt>
      <trkpt lat="45.79708" lon="6.10464">
        <ele>1693.6</ele>
        <time>2000-01-01T04:29:28.000Z</time>
      </trkpt>
      <trkpt lat="45.79687" lon="6.10446">
        <ele>1693</ele>
        <time>2000-01-01T04:29:38.000Z</time>
      </trkpt>
      <trkpt lat="45.7968" lon="6.1044">
        <ele>1693.4</ele>
        <time>2000-01-01T04:29:48.000Z</time>
      </trkpt>
      <trkpt lat="45.79676" lon="6.10434">
        <ele>1692.3</ele>
        <time>2000-01-01T04:29:58.000Z</time>
      </trkpt>
      <trkpt lat="45.79674" lon="6.10432">
        <ele>1691.9</ele>
        <time>2000-01-01T04:30:08.000Z</time>
      </trkpt>
      <trkpt lat="45.79672" lon="6.10426">
        <ele>1691</ele>
        <time>2000-01-01T04:30:18.000Z</time>
      </trkpt>
      <trkpt lat="45.79667" lon="6.10419">
        <ele>1690.2</ele>
        <time>2000-01-01T04:30:28.000Z</time>
      </trkpt>
      <trkpt lat="45.79665" lon="6.10411">
        <ele>1688.5</ele>
        <time>2000-01-01T04:30:38.000Z</time>
      </trkpt>
      <trkpt lat="45.79664" lon="6.10399">
        <ele>1685</ele>
        <time>2000-01-01T04:30:48.000Z</time>
      </trkpt>
      <trkpt lat="45.79665" lon="6.10369">
        <ele>1680</ele>
        <time>2000-01-01T04:30:58.000Z</time>
      </trkpt>
      <trkpt lat="45.79667" lon="6.10356">
        <ele>1680.1</ele>
        <time>2000-01-01T04:31:08.000Z</time>
      </trkpt>
      <trkpt lat="45.79669" lon="6.10336">
        <ele>1675</ele>
        <time>2000-01-01T04:31:18.000Z</time>
      </trkpt>
      <trkpt lat="45.79669" lon="6.10329">
        <ele>1675.3</ele>
        <time>2000-01-01T04:31:28.000Z</time>
      </trkpt>
      <trkpt lat="45.79668" lon="6.10326">
        <ele>1674.9</ele>
        <time>2000-01-01T04:31:38.000Z</time>
      </trkpt>
      <trkpt lat="45.7966" lon="6.10319">
        <ele>1673.5</ele>
        <time>2000-01-01T04:31:48.000Z</time>
      </trkpt>
      <trkpt lat="45.79645" lon="6.10308">
        <ele>1670</ele>
        <time>2000-01-01T04:31:58.000Z</time>
      </trkpt>
      <trkpt lat="45.79631" lon="6.10297">
        <ele>1669.4</ele>
        <time>2000-01-01T04:32:08.000Z</time>
      </trkpt>
      <trkpt lat="45.79622" lon="6.10291">
        <ele>1667</ele>
        <time>2000-01-01T04:32:18.000Z</time>
      </trkpt>
      <trkpt lat="45.79616" lon="6.10286">
        <ele>1667.5</ele>
        <time>2000-01-01T04:32:28.000Z</time>
      </trkpt>
      <trkpt lat="45.79607" lon="6.10278">
        <ele>1666.4</ele>
        <time>2000-01-01T04:32:38.000Z</time>
      </trkpt>
      <trkpt lat="45.79596" lon="6.1027">
        <ele>1664</ele>
        <time>2000-01-01T04:32:48.000Z</time>
      </trkpt>
      <trkpt lat="45.79588" lon="6.10263">
        <ele>1664.5</ele>
        <time>2000-01-01T04:32:58.000Z</time>
      </trkpt>
      <trkpt lat="45.79573" lon="6.10252">
        <ele>1663</ele>
        <time>2000-01-01T04:33:08.000Z</time>
      </trkpt>
      <trkpt lat="45.79567" lon="6.10246">
        <ele>1663.4</ele>
        <time>2000-01-01T04:33:18.000Z</time>
      </trkpt>
      <trkpt lat="45.79556" lon="6.10241">
        <ele>1662.7</ele>
        <time>2000-01-01T04:33:28.000Z</time>
      </trkpt>
      <trkpt lat="45.79538" lon="6.10236">
        <ele>1661</ele>
        <time>2000-01-01T04:33:38.000Z</time>
      </trkpt>
      <trkpt lat="45.79529" lon="6.10232">
        <ele>1661.4</ele>
        <time>2000-01-01T04:33:48.000Z</time>
      </trkpt>
      <trkpt lat="45.79503" lon="6.1023">
        <ele>1658</ele>
        <time>2000-01-01T04:33:58.000Z</time>
      </trkpt>
      <trkpt lat="45.79484" lon="6.10226">
        <ele>1655</ele>
        <time>2000-01-01T04:34:08.000Z</time>
      </trkpt>
      <trkpt lat="45.79477" lon="6.10224">
        <ele>1654.6</ele>
        <time>2000-01-01T04:34:18.000Z</time>
      </trkpt>
      <trkpt lat="45.79467" lon="6.1022">
        <ele>1653.2</ele>
        <time>2000-01-01T04:34:28.000Z</time>
      </trkpt>
      <trkpt lat="45.79447" lon="6.10214">
        <ele>1649</ele>
        <time>2000-01-01T04:34:38.000Z</time>
      </trkpt>
      <trkpt lat="45.79435" lon="6.10208">
        <ele>1649.2</ele>
        <time>2000-01-01T04:34:48.000Z</time>
      </trkpt>
      <trkpt lat="45.79428" lon="6.10205">
        <ele>1648</ele>
        <time>2000-01-01T04:34:58.000Z</time>
      </trkpt>
      <trkpt lat="45.79413" lon="6.10201">
        <ele>1647.5</ele>
        <time>2000-01-01T04:35:08.000Z</time>
      </trkpt>
      <trkpt lat="45.79372" lon="6.10186">
        <ele>1645</ele>
        <time>2000-01-01T04:35:18.000Z</time>
      </trkpt>
      <trkpt lat="45.79369" lon="6.10186">
        <ele>1644.6</ele>
        <time>2000-01-01T04:35:28.000Z</time>
      </trkpt>
      <trkpt lat="45.79367" lon="6.10187">
        <ele>1644.4</ele>
        <time>2000-01-01T04:35:38.000Z</time>
      </trkpt>
      <trkpt lat="45.79364" lon="6.10193">
        <ele>1644.2</ele>
        <time>2000-01-01T04:35:48.000Z</time>
      </trkpt>
      <trkpt lat="45.79363" lon="6.102">
        <ele>1643.9</ele>
        <time>2000-01-01T04:35:58.000Z</time>
      </trkpt>
      <trkpt lat="45.79361" lon="6.10202">
        <ele>1643.7</ele>
        <time>2000-01-01T04:36:08.000Z</time>
      </trkpt>
      <trkpt lat="45.79358" lon="6.10204">
        <ele>1643</ele>
        <time>2000-01-01T04:36:18.000Z</time>
      </trkpt>
      <trkpt lat="45.79355" lon="6.10205">
        <ele>1643.4</ele>
        <time>2000-01-01T04:36:28.000Z</time>
      </trkpt>
      <trkpt lat="45.79349" lon="6.10204">
        <ele>1643.2</ele>
        <time>2000-01-01T04:36:38.000Z</time>
      </trkpt>
      <trkpt lat="45.79343" lon="6.10201">
        <ele>1643.1</ele>
        <time>2000-01-01T04:36:48.000Z</time>
      </trkpt>
      <trkpt lat="45.7934" lon="6.10199">
        <ele>1643.1</ele>
        <time>2000-01-01T04:36:58.000Z</time>
      </trkpt>
      <trkpt lat="45.79334" lon="6.10195">
        <ele>1642</ele>
        <time>2000-01-01T04:37:08.000Z</time>
      </trkpt>
      <trkpt lat="45.79323" lon="6.10187">
        <ele>1642.5</ele>
        <time>2000-01-01T04:37:18.000Z</time>
      </trkpt>
      <trkpt lat="45.79318" lon="6.10185">
        <ele>1642.3</ele>
        <time>2000-01-01T04:37:28.000Z</time>
      </trkpt>
      <trkpt lat="45.79316" lon="6.10186">
        <ele>1641</ele>
        <time>2000-01-01T04:37:38.000Z</time>
      </trkpt>
      <trkpt lat="45.7931" lon="6.1019">
        <ele>1642</ele>
        <time>2000-01-01T04:37:48.000Z</time>
      </trkpt>
      <trkpt lat="45.79307" lon="6.1019">
        <ele>1641.9</ele>
        <time>2000-01-01T04:37:58.000Z</time>
      </trkpt>
      <trkpt lat="45.79307" lon="6.10187">
        <ele>1641.8</ele>
        <time>2000-01-01T04:38:08.000Z</time>
      </trkpt>
      <trkpt lat="45.79308" lon="6.10193">
        <ele>1642</ele>
        <time>2000-01-01T04:38:18.000Z</time>
      </trkpt>
      <trkpt lat="45.79306" lon="6.10198">
        <ele>1641</ele>
        <time>2000-01-01T04:38:28.000Z</time>
      </trkpt>
      <trkpt lat="45.79305" lon="6.10201">
        <ele>1641.7</ele>
        <time>2000-01-01T04:38:38.000Z</time>
      </trkpt>
      <trkpt lat="45.79302" lon="6.102">
        <ele>1641.6</ele>
        <time>2000-01-01T04:38:48.000Z</time>
      </trkpt>
      <trkpt lat="45.79292" lon="6.1019">
        <ele>1641.4</ele>
        <time>2000-01-01T04:38:58.000Z</time>
      </trkpt>
      <trkpt lat="45.79285" lon="6.10187">
        <ele>1640</ele>
        <time>2000-01-01T04:39:08.000Z</time>
      </trkpt>
      <trkpt lat="45.79281" lon="6.10184">
        <ele>1640.7</ele>
        <time>2000-01-01T04:39:18.000Z</time>
      </trkpt>
      <trkpt lat="45.79271" lon="6.10175">
        <ele>1640.2</ele>
        <time>2000-01-01T04:39:28.000Z</time>
      </trkpt>
      <trkpt lat="45.79257" lon="6.10156">
        <ele>1639</ele>
        <time>2000-01-01T04:39:38.000Z</time>
      </trkpt>
      <trkpt lat="45.79236" lon="6.10133">
        <ele>1639</ele>
        <time>2000-01-01T04:39:48.000Z</time>
      </trkpt>
      <trkpt lat="45.79229" lon="6.10124">
        <ele>1639.4</ele>
        <time>2000-01-01T04:39:58.000Z</time>
      </trkpt>
      <trkpt lat="45.79226" lon="6.10121">
        <ele>1639.6</ele>
        <time>2000-01-01T04:40:08.000Z</time>
      </trkpt>
      <trkpt lat="45.79224" lon="6.10125">
        <ele>1639.5</ele>
        <time>2000-01-01T04:40:18.000Z</time>
      </trkpt>
      <trkpt lat="45.79222" lon="6.1013">
        <ele>1639</ele>
        <time>2000-01-01T04:40:28.000Z</time>
      </trkpt>
      <trkpt lat="45.79222" lon="6.10134">
        <ele>1639.2</ele>
        <time>2000-01-01T04:40:38.000Z</time>
      </trkpt>
      <trkpt lat="45.79222" lon="6.10138">
        <ele>1639</ele>
        <time>2000-01-01T04:40:48.000Z</time>
      </trkpt>
      <trkpt lat="45.79224" lon="6.10142">
        <ele>1638.9</ele>
        <time>2000-01-01T04:40:58.000Z</time>
      </trkpt>
      <trkpt lat="45.79236" lon="6.10162">
        <ele>1638</ele>
        <time>2000-01-01T04:41:08.000Z</time>
      </trkpt>
      <trkpt lat="45.7924" lon="6.10174">
        <ele>1638.9</ele>
        <time>2000-01-01T04:41:18.000Z</time>
      </trkpt>
      <trkpt lat="45.79244" lon="6.1019">
        <ele>1638</ele>
        <time>2000-01-01T04:41:28.000Z</time>
      </trkpt>
      <trkpt lat="45.79242" lon="6.10202">
        <ele>1637.6</ele>
        <time>2000-01-01T04:41:38.000Z</time>
      </trkpt>
      <trkpt lat="45.79242" lon="6.10209">
        <ele>1637.1</ele>
        <time>2000-01-01T04:41:48.000Z</time>
      </trkpt>
      <trkpt lat="45.7924" lon="6.10219">
        <ele>1637</ele>
        <time>2000-01-01T04:41:58.000Z</time>
      </trkpt>
      <trkpt lat="45.7924" lon="6.10226">
        <ele>1635.4</ele>
        <time>2000-01-01T04:42:08.000Z</time>
      </trkpt>
      <trkpt lat="45.79242" lon="6.1023">
        <ele>1635</ele>
        <time>2000-01-01T04:42:18.000Z</time>
      </trkpt>
      <trkpt lat="45.79247" lon="6.10242">
        <ele>1633.8</ele>
        <time>2000-01-01T04:42:28.000Z</time>
      </trkpt>
      <trkpt lat="45.79253" lon="6.10253">
        <ele>1633</ele>
        <time>2000-01-01T04:42:38.000Z</time>
      </trkpt>
      <trkpt lat="45.79262" lon="6.10261">
        <ele>1631.8</ele>
        <time>2000-01-01T04:42:48.000Z</time>
      </trkpt>
      <trkpt lat="45.79265" lon="6.10265">
        <ele>1631.4</ele>
        <time>2000-01-01T04:42:58.000Z</time>
      </trkpt>
      <trkpt lat="45.79269" lon="6.10269">
        <ele>1632</ele>
        <time>2000-01-01T04:43:08.000Z</time>
      </trkpt>
      <trkpt lat="45.79277" lon="6.10279">
        <ele>1630.6</ele>
        <time>2000-01-01T04:43:18.000Z</time>
      </trkpt>
      <trkpt lat="45.79292" lon="6.10301">
        <ele>1627</ele>
        <time>2000-01-01T04:43:28.000Z</time>
      </trkpt>
      <trkpt lat="45.793" lon="6.10307">
        <ele>1627.9</ele>
        <time>2000-01-01T04:43:38.000Z</time>
      </trkpt>
      <trkpt lat="45.79313" lon="6.10314">
        <ele>1627</ele>
        <time>2000-01-01T04:43:48.000Z</time>
      </trkpt>
      <trkpt lat="45.79315" lon="6.10316">
        <ele>1627.1</ele>
        <time>2000-01-01T04:43:58.000Z</time>
      </trkpt>
      <trkpt lat="45.79322" lon="6.10324">
        <ele>1625.6</ele>
        <time>2000-01-01T04:44:08.000Z</time>
      </trkpt>
      <trkpt lat="45.7933" lon="6.10331">
        <ele>1624</ele>
        <time>2000-01-01T04:44:18.000Z</time>
      </trkpt>
      <trkpt lat="45.79335" lon="6.10334">
        <ele>1624</ele>
        <time>2000-01-01T04:44:28.000Z</time>
      </trkpt>
      <trkpt lat="45.79337" lon="6.10336">
        <ele>1623.7</ele>
        <time>2000-01-01T04:44:38.000Z</time>
      </trkpt>
      <trkpt lat="45.7934" lon="6.10341">
        <ele>1622.9</ele>
        <time>2000-01-01T04:44:48.000Z</time>
      </trkpt>
      <trkpt lat="45.79349" lon="6.10354">
        <ele>1620</ele>
        <time>2000-01-01T04:44:58.000Z</time>
      </trkpt>
      <trkpt lat="45.79351" lon="6.10357">
        <ele>1620.7</ele>
        <time>2000-01-01T04:45:08.000Z</time>
      </trkpt>
      <trkpt lat="45.79352" lon="6.10362">
        <ele>1619.9</ele>
        <time>2000-01-01T04:45:18.000Z</time>
      </trkpt>
      <trkpt lat="45.79352" lon="6.10366">
        <ele>1619.1</ele>
        <time>2000-01-01T04:45:28.000Z</time>
      </trkpt>
      <trkpt lat="45.79351" lon="6.10374">
        <ele>1617.6</ele>
        <time>2000-01-01T04:45:38.000Z</time>
      </trkpt>
      <trkpt lat="45.79348" lon="6.10382">
        <ele>1615</ele>
        <time>2000-01-01T04:45:48.000Z</time>
      </trkpt>
      <trkpt lat="45.79347" lon="6.10388">
        <ele>1614.6</ele>
        <time>2000-01-01T04:45:58.000Z</time>
      </trkpt>
      <trkpt lat="45.79343" lon="6.10399">
        <ele>1612.6</ele>
        <time>2000-01-01T04:46:08.000Z</time>
      </trkpt>
      <trkpt lat="45.79339" lon="6.10404">
        <ele>1611.4</ele>
        <time>2000-01-01T04:46:18.000Z</time>
      </trkpt>
      <trkpt lat="45.79337" lon="6.10416">
        <ele>1610</ele>
        <time>2000-01-01T04:46:28.000Z</time>
      </trkpt>
      <trkpt lat="45.79335" lon="6.10419">
        <ele>1608.8</ele>
        <time>2000-01-01T04:46:38.000Z</time>
      </trkpt>
      <trkpt lat="45.79333" lon="6.10421">
        <ele>1608.4</ele>
        <time>2000-01-01T04:46:48.000Z</time>
      </trkpt>
      <trkpt lat="45.79324" lon="6.10429">
        <ele>1606.9</ele>
        <time>2000-01-01T04:46:58.000Z</time>
      </trkpt>
      <trkpt lat="45.79317" lon="6.10433">
        <ele>1606</ele>
        <time>2000-01-01T04:47:08.000Z</time>
      </trkpt>
      <trkpt lat="45.79303" lon="6.10439">
        <ele>1604.7</ele>
        <time>2000-01-01T04:47:18.000Z</time>
      </trkpt>
      <trkpt lat="45.79289" lon="6.10448">
        <ele>1604</ele>
        <time>2000-01-01T04:47:28.000Z</time>
      </trkpt>
      <trkpt lat="45.79279" lon="6.10453">
        <ele>1601.2</ele>
        <time>2000-01-01T04:47:38.000Z</time>
      </trkpt>
      <trkpt lat="45.79268" lon="6.10457">
        <ele>1600</ele>
        <time>2000-01-01T04:47:48.000Z</time>
      </trkpt>
      <trkpt lat="45.79261" lon="6.10458">
        <ele>1598.9</ele>
        <time>2000-01-01T04:47:58.000Z</time>
      </trkpt>
      <trkpt lat="45.79247" lon="6.10456">
        <ele>1598</ele>
        <time>2000-01-01T04:48:08.000Z</time>
      </trkpt>
      <trkpt lat="45.7924" lon="6.10456">
        <ele>1597.4</ele>
        <time>2000-01-01T04:48:18.000Z</time>
      </trkpt>
      <trkpt lat="45.79237" lon="6.10456">
        <ele>1597</ele>
        <time>2000-01-01T04:48:28.000Z</time>
      </trkpt>
      <trkpt lat="45.79231" lon="6.10458">
        <ele>1596</ele>
        <time>2000-01-01T04:48:38.000Z</time>
      </trkpt>
      <trkpt lat="45.79225" lon="6.10462">
        <ele>1594</ele>
        <time>2000-01-01T04:48:48.000Z</time>
      </trkpt>
      <trkpt lat="45.79197" lon="6.10469">
        <ele>1592</ele>
        <time>2000-01-01T04:48:58.000Z</time>
      </trkpt>
      <trkpt lat="45.79174" lon="6.1048">
        <ele>1588</ele>
        <time>2000-01-01T04:49:08.000Z</time>
      </trkpt>
      <trkpt lat="45.79163" lon="6.10482">
        <ele>1588.2</ele>
        <time>2000-01-01T04:49:18.000Z</time>
      </trkpt>
      <trkpt lat="45.79117" lon="6.10491">
        <ele>1581</ele>
        <time>2000-01-01T04:49:28.000Z</time>
      </trkpt>
      <trkpt lat="45.79095" lon="6.10494">
        <ele>1579</ele>
        <time>2000-01-01T04:49:38.000Z</time>
      </trkpt>
      <trkpt lat="45.79068" lon="6.10502">
        <ele>1575</ele>
        <time>2000-01-01T04:49:48.000Z</time>
      </trkpt>
      <trkpt lat="45.79049" lon="6.10513">
        <ele>1573</ele>
        <time>2000-01-01T04:49:58.000Z</time>
      </trkpt>
      <trkpt lat="45.79028" lon="6.10529">
        <ele>1571</ele>
        <time>2000-01-01T04:50:08.000Z</time>
      </trkpt>
      <trkpt lat="45.79013" lon="6.10538">
        <ele>1572.7</ele>
        <time>2000-01-01T04:50:18.000Z</time>
      </trkpt>
      <trkpt lat="45.7899" lon="6.10554">
        <ele>1571</ele>
        <time>2000-01-01T04:50:28.000Z</time>
      </trkpt>
      <trkpt lat="45.78968" lon="6.10571">
        <ele>1568</ele>
        <time>2000-01-01T04:50:38.000Z</time>
      </trkpt>
      <trkpt lat="45.7895" lon="6.10583">
        <ele>1566</ele>
        <time>2000-01-01T04:50:48.000Z</time>
      </trkpt>
      <trkpt lat="45.78945" lon="6.10591">
        <ele>1565.4</ele>
        <time>2000-01-01T04:50:58.000Z</time>
      </trkpt>
      <trkpt lat="45.78937" lon="6.106">
        <ele>1563.9</ele>
        <time>2000-01-01T04:51:08.000Z</time>
      </trkpt>
      <trkpt lat="45.78931" lon="6.10605">
        <ele>1562</ele>
        <time>2000-01-01T04:51:18.000Z</time>
      </trkpt>
      <trkpt lat="45.7892" lon="6.10611">
        <ele>1560.7</ele>
        <time>2000-01-01T04:51:28.000Z</time>
      </trkpt>
      <trkpt lat="45.78914" lon="6.10612">
        <ele>1560</ele>
        <time>2000-01-01T04:51:38.000Z</time>
      </trkpt>
      <trkpt lat="45.78902" lon="6.10611">
        <ele>1558</ele>
        <time>2000-01-01T04:51:48.000Z</time>
      </trkpt>
      <trkpt lat="45.78891" lon="6.10606">
        <ele>1558.2</ele>
        <time>2000-01-01T04:51:58.000Z</time>
      </trkpt>
      <trkpt lat="45.78881" lon="6.10599">
        <ele>1554</ele>
        <time>2000-01-01T04:52:08.000Z</time>
      </trkpt>
      <trkpt lat="45.7887" lon="6.10596">
        <ele>1554.2</ele>
        <time>2000-01-01T04:52:18.000Z</time>
      </trkpt>
      <trkpt lat="45.78861" lon="6.10598">
        <ele>1551</ele>
        <time>2000-01-01T04:52:28.000Z</time>
      </trkpt>
      <trkpt lat="45.78851" lon="6.10601">
        <ele>1552.2</ele>
        <time>2000-01-01T04:52:38.000Z</time>
      </trkpt>
      <trkpt lat="45.78831" lon="6.10605">
        <ele>1548</ele>
        <time>2000-01-01T04:52:48.000Z</time>
      </trkpt>
      <trkpt lat="45.78824" lon="6.10607">
        <ele>1548.7</ele>
        <time>2000-01-01T04:52:58.000Z</time>
      </trkpt>
      <trkpt lat="45.78818" lon="6.10607">
        <ele>1547.7</ele>
        <time>2000-01-01T04:53:08.000Z</time>
      </trkpt>
      <trkpt lat="45.78808" lon="6.10605">
        <ele>1544</ele>
        <time>2000-01-01T04:53:18.000Z</time>
      </trkpt>
      <trkpt lat="45.78801" lon="6.10602">
        <ele>1543.7</ele>
        <time>2000-01-01T04:53:28.000Z</time>
      </trkpt>
      <trkpt lat="45.78786" lon="6.106">
        <ele>1538</ele>
        <time>2000-01-01T04:53:38.000Z</time>
      </trkpt>
      <trkpt lat="45.78766" lon="6.10605">
        <ele>1538</ele>
        <time>2000-01-01T04:53:48.000Z</time>
      </trkpt>
      <trkpt lat="45.78756" lon="6.10606">
        <ele>1537.3</ele>
        <time>2000-01-01T04:53:58.000Z</time>
      </trkpt>
      <trkpt lat="45.78747" lon="6.10609">
        <ele>1533</ele>
        <time>2000-01-01T04:54:08.000Z</time>
      </trkpt>
      <trkpt lat="45.78736" lon="6.10615">
        <ele>1536.5</ele>
        <time>2000-01-01T04:54:18.000Z</time>
      </trkpt>
      <trkpt lat="45.78723" lon="6.10619">
        <ele>1532</ele>
        <time>2000-01-01T04:54:28.000Z</time>
      </trkpt>
      <trkpt lat="45.78712" lon="6.1062">
        <ele>1534</ele>
        <time>2000-01-01T04:54:38.000Z</time>
      </trkpt>
      <trkpt lat="45.78686" lon="6.10619">
        <ele>1525</ele>
        <time>2000-01-01T04:54:48.000Z</time>
      </trkpt>
      <trkpt lat="45.78651" lon="6.10613">
        <ele>1519</ele>
        <time>2000-01-01T04:54:58.000Z</time>
      </trkpt>
      <trkpt lat="45.7864" lon="6.10617">
        <ele>1520.3</ele>
        <time>2000-01-01T04:55:08.000Z</time>
      </trkpt>
      <trkpt lat="45.78631" lon="6.10624">
        <ele>1519</ele>
        <time>2000-01-01T04:55:18.000Z</time>
      </trkpt>
      <trkpt lat="45.78621" lon="6.10628">
        <ele>1520.1</ele>
        <time>2000-01-01T04:55:28.000Z</time>
      </trkpt>
      <trkpt lat="45.78612" lon="6.10631">
        <ele>1518</ele>
        <time>2000-01-01T04:55:38.000Z</time>
      </trkpt>
      <trkpt lat="45.78604" lon="6.10637">
        <ele>1517.7</ele>
        <time>2000-01-01T04:55:48.000Z</time>
      </trkpt>
      <trkpt lat="45.78594" lon="6.10648">
        <ele>1512</ele>
        <time>2000-01-01T04:55:58.000Z</time>
      </trkpt>
      <trkpt lat="45.78586" lon="6.10661">
        <ele>1516.8</ele>
        <time>2000-01-01T04:56:08.000Z</time>
      </trkpt>
      <trkpt lat="45.78567" lon="6.10683">
        <ele>1509</ele>
        <time>2000-01-01T04:56:18.000Z</time>
      </trkpt>
      <trkpt lat="45.78552" lon="6.10703">
        <ele>1508</ele>
        <time>2000-01-01T04:56:28.000Z</time>
      </trkpt>
      <trkpt lat="45.78545" lon="6.1071">
        <ele>1507.6</ele>
        <time>2000-01-01T04:56:38.000Z</time>
      </trkpt>
      <trkpt lat="45.78538" lon="6.10722">
        <ele>1506.1</ele>
        <time>2000-01-01T04:56:48.000Z</time>
      </trkpt>
      <trkpt lat="45.78526" lon="6.10753">
        <ele>1499</ele>
        <time>2000-01-01T04:56:58.000Z</time>
      </trkpt>
      <trkpt lat="45.78514" lon="6.10779">
        <ele>1497</ele>
        <time>2000-01-01T04:57:08.000Z</time>
      </trkpt>
      <trkpt lat="45.78507" lon="6.1079">
        <ele>1498.6</ele>
        <time>2000-01-01T04:57:18.000Z</time>
      </trkpt>
      <trkpt lat="45.78479" lon="6.1083">
        <ele>1486</ele>
        <time>2000-01-01T04:57:28.000Z</time>
      </trkpt>
      <trkpt lat="45.78473" lon="6.10842">
        <ele>1491</ele>
        <time>2000-01-01T04:57:38.000Z</time>
      </trkpt>
      <trkpt lat="45.78459" lon="6.10857">
        <ele>1484</ele>
        <time>2000-01-01T04:57:48.000Z</time>
      </trkpt>
      <trkpt lat="45.78452" lon="6.1087">
        <ele>1487</ele>
        <time>2000-01-01T04:57:58.000Z</time>
      </trkpt>
      <trkpt lat="45.78444" lon="6.10898">
        <ele>1482</ele>
        <time>2000-01-01T04:58:08.000Z</time>
      </trkpt>
      <trkpt lat="45.78437" lon="6.10907">
        <ele>1482.7</ele>
        <time>2000-01-01T04:58:18.000Z</time>
      </trkpt>
      <trkpt lat="45.78427" lon="6.10908">
        <ele>1480</ele>
        <time>2000-01-01T04:58:28.000Z</time>
      </trkpt>
      <trkpt lat="45.78419" lon="6.10902">
        <ele>1479.8</ele>
        <time>2000-01-01T04:58:38.000Z</time>
      </trkpt>
      <trkpt lat="45.78408" lon="6.10894">
        <ele>1477</ele>
        <time>2000-01-01T04:58:48.000Z</time>
      </trkpt>
      <trkpt lat="45.78397" lon="6.10888">
        <ele>1477.1</ele>
        <time>2000-01-01T04:58:58.000Z</time>
      </trkpt>
      <trkpt lat="45.78375" lon="6.10869">
        <ele>1468</ele>
        <time>2000-01-01T04:59:08.000Z</time>
      </trkpt>
      <trkpt lat="45.78366" lon="6.10866">
        <ele>1469.7</ele>
        <time>2000-01-01T04:59:18.000Z</time>
      </trkpt>
      <trkpt lat="45.78357" lon="6.10867">
        <ele>1468.7</ele>
        <time>2000-01-01T04:59:28.000Z</time>
      </trkpt>
      <trkpt lat="45.78347" lon="6.10869">
        <ele>1464</ele>
        <time>2000-01-01T04:59:38.000Z</time>
      </trkpt>
      <trkpt lat="45.78328" lon="6.10875">
        <ele>1461</ele>
        <time>2000-01-01T04:59:48.000Z</time>
      </trkpt>
      <trkpt lat="45.78319" lon="6.10877">
        <ele>1461.8</ele>
        <time>2000-01-01T04:59:58.000Z</time>
      </trkpt>
      <trkpt lat="45.78298" lon="6.10888">
        <ele>1458</ele>
        <time>2000-01-01T05:00:08.000Z</time>
      </trkpt>
      <trkpt lat="45.78288" lon="6.10895">
        <ele>1456.7</ele>
        <time>2000-01-01T05:00:18.000Z</time>
      </trkpt>
      <trkpt lat="45.78281" lon="6.10909">
        <ele>1455</ele>
        <time>2000-01-01T05:00:28.000Z</time>
      </trkpt>
      <trkpt lat="45.78273" lon="6.10917">
        <ele>1456.2</ele>
        <time>2000-01-01T05:00:38.000Z</time>
      </trkpt>
      <trkpt lat="45.78263" lon="6.10923">
        <ele>1450</ele>
        <time>2000-01-01T05:00:48.000Z</time>
      </trkpt>
      <trkpt lat="45.78257" lon="6.10932">
        <ele>1453.6</ele>
        <time>2000-01-01T05:00:58.000Z</time>
      </trkpt>
      <trkpt lat="45.78249" lon="6.10942">
        <ele>1449</ele>
        <time>2000-01-01T05:01:08.000Z</time>
      </trkpt>
      <trkpt lat="45.78239" lon="6.10952">
        <ele>1451.6</ele>
        <time>2000-01-01T05:01:18.000Z</time>
      </trkpt>
      <trkpt lat="45.78229" lon="6.10963">
        <ele>1447</ele>
        <time>2000-01-01T05:01:28.000Z</time>
      </trkpt>
      <trkpt lat="45.78218" lon="6.10973">
        <ele>1449.6</ele>
        <time>2000-01-01T05:01:38.000Z</time>
      </trkpt>
      <trkpt lat="45.78205" lon="6.10983">
        <ele>1447</ele>
        <time>2000-01-01T05:01:48.000Z</time>
      </trkpt>
      <trkpt lat="45.78187" lon="6.10995">
        <ele>1447</ele>
        <time>2000-01-01T05:01:58.000Z</time>
      </trkpt>
      <trkpt lat="45.78175" lon="6.10993">
        <ele>1448.1</ele>
        <time>2000-01-01T05:02:08.000Z</time>
      </trkpt>
      <trkpt lat="45.78168" lon="6.10994">
        <ele>1448</ele>
        <time>2000-01-01T05:02:18.000Z</time>
      </trkpt>
      <trkpt lat="45.78153" lon="6.10989">
        <ele>1448.3</ele>
        <time>2000-01-01T05:02:28.000Z</time>
      </trkpt>
      <trkpt lat="45.78146" lon="6.10988">
        <ele>1448</ele>
        <time>2000-01-01T05:02:38.000Z</time>
      </trkpt>
      <trkpt lat="45.78142" lon="6.10987">
        <ele>1448.5</ele>
        <time>2000-01-01T05:02:48.000Z</time>
      </trkpt>
      <trkpt lat="45.78134" lon="6.10981">
        <ele>1447.5</ele>
        <time>2000-01-01T05:02:58.000Z</time>
      </trkpt>
      <trkpt lat="45.78127" lon="6.10976">
        <ele>1445</ele>
        <time>2000-01-01T05:03:08.000Z</time>
      </trkpt>
      <trkpt lat="45.78118" lon="6.10965">
        <ele>1445.1</ele>
        <time>2000-01-01T05:03:18.000Z</time>
      </trkpt>
      <trkpt lat="45.78114" lon="6.10959">
        <ele>1444.3</ele>
        <time>2000-01-01T05:03:28.000Z</time>
      </trkpt>
      <trkpt lat="45.78111" lon="6.10957">
        <ele>1443</ele>
        <time>2000-01-01T05:03:38.000Z</time>
      </trkpt>
      <trkpt lat="45.78107" lon="6.1095">
        <ele>1442.8</ele>
        <time>2000-01-01T05:03:48.000Z</time>
      </trkpt>
      <trkpt lat="45.78103" lon="6.10944">
        <ele>1441.7</ele>
        <time>2000-01-01T05:03:58.000Z</time>
      </trkpt>
      <trkpt lat="45.781" lon="6.10942">
        <ele>1440.7</ele>
        <time>2000-01-01T05:04:08.000Z</time>
      </trkpt>
      <trkpt lat="45.78096" lon="6.10939">
        <ele>1437</ele>
        <time>2000-01-01T05:04:18.000Z</time>
      </trkpt>
      <trkpt lat="45.78087" lon="6.1094">
        <ele>1438.3</ele>
        <time>2000-01-01T05:04:28.000Z</time>
      </trkpt>
      <trkpt lat="45.78081" lon="6.10953">
        <ele>1437</ele>
        <time>2000-01-01T05:04:38.000Z</time>
      </trkpt>
      <trkpt lat="45.78073" lon="6.10963">
        <ele>1436.4</ele>
        <time>2000-01-01T05:04:48.000Z</time>
      </trkpt>
      <trkpt lat="45.78066" lon="6.10972">
        <ele>1432</ele>
        <time>2000-01-01T05:04:58.000Z</time>
      </trkpt>
      <trkpt lat="45.7806" lon="6.10983">
        <ele>1432.4</ele>
        <time>2000-01-01T05:05:08.000Z</time>
      </trkpt>
      <trkpt lat="45.78053" lon="6.10993">
        <ele>1428</ele>
        <time>2000-01-01T05:05:18.000Z</time>
      </trkpt>
      <trkpt lat="45.78048" lon="6.11004">
        <ele>1427.2</ele>
        <time>2000-01-01T05:05:28.000Z</time>
      </trkpt>
      <trkpt lat="45.78042" lon="6.11018">
        <ele>1423</ele>
        <time>2000-01-01T05:05:38.000Z</time>
      </trkpt>
      <trkpt lat="45.78029" lon="6.11044">
        <ele>1414</ele>
        <time>2000-01-01T05:05:48.000Z</time>
      </trkpt>
      <trkpt lat="45.78021" lon="6.11055">
        <ele>1416.8</ele>
        <time>2000-01-01T05:05:58.000Z</time>
      </trkpt>
      <trkpt lat="45.78018" lon="6.11069">
        <ele>1409</ele>
        <time>2000-01-01T05:06:08.000Z</time>
      </trkpt>
      <trkpt lat="45.78011" lon="6.11082">
        <ele>1410.6</ele>
        <time>2000-01-01T05:06:18.000Z</time>
      </trkpt>
      <trkpt lat="45.78008" lon="6.11097">
        <ele>1405</ele>
        <time>2000-01-01T05:06:28.000Z</time>
      </trkpt>
      <trkpt lat="45.78001" lon="6.11108">
        <ele>1407.2</ele>
        <time>2000-01-01T05:06:38.000Z</time>
      </trkpt>
      <trkpt lat="45.77988" lon="6.11114">
        <ele>1400</ele>
        <time>2000-01-01T05:06:48.000Z</time>
      </trkpt>
      <trkpt lat="45.77975" lon="6.11116">
        <ele>1400.7</ele>
        <time>2000-01-01T05:06:58.000Z</time>
      </trkpt>
      <trkpt lat="45.77965" lon="6.11116">
        <ele>1399</ele>
        <time>2000-01-01T05:07:08.000Z</time>
      </trkpt>
      <trkpt lat="45.77951" lon="6.11138">
        <ele>1399</ele>
        <time>2000-01-01T05:07:18.000Z</time>
      </trkpt>
      <trkpt lat="45.77944" lon="6.11147">
        <ele>1400.2</ele>
        <time>2000-01-01T05:07:28.000Z</time>
      </trkpt>
      <trkpt lat="45.77941" lon="6.1116">
        <ele>1400.1</ele>
        <time>2000-01-01T05:07:38.000Z</time>
      </trkpt>
      <trkpt lat="45.77937" lon="6.11173">
        <ele>1398</ele>
        <time>2000-01-01T05:07:48.000Z</time>
      </trkpt>
      <trkpt lat="45.77935" lon="6.11186">
        <ele>1399.1</ele>
        <time>2000-01-01T05:07:58.000Z</time>
      </trkpt>
      <trkpt lat="45.77934" lon="6.11201">
        <ele>1397</ele>
        <time>2000-01-01T05:08:08.000Z</time>
      </trkpt>
      <trkpt lat="45.77935" lon="6.11216">
        <ele>1398.7</ele>
        <time>2000-01-01T05:08:18.000Z</time>
      </trkpt>
      <trkpt lat="45.77936" lon="6.11231">
        <ele>1396</ele>
        <time>2000-01-01T05:08:28.000Z</time>
      </trkpt>
      <trkpt lat="45.77927" lon="6.11241">
        <ele>1397</ele>
        <time>2000-01-01T05:08:38.000Z</time>
      </trkpt>
      <trkpt lat="45.77919" lon="6.11246">
        <ele>1395</ele>
        <time>2000-01-01T05:08:48.000Z</time>
      </trkpt>
      <trkpt lat="45.7791" lon="6.11254">
        <ele>1395.7</ele>
        <time>2000-01-01T05:08:58.000Z</time>
      </trkpt>
      <trkpt lat="45.77909" lon="6.11269">
        <ele>1395</ele>
        <time>2000-01-01T05:09:08.000Z</time>
      </trkpt>
      <trkpt lat="45.77906" lon="6.11282">
        <ele>1393.4</ele>
        <time>2000-01-01T05:09:18.000Z</time>
      </trkpt>
      <trkpt lat="45.77887" lon="6.11291">
        <ele>1392</ele>
        <time>2000-01-01T05:09:28.000Z</time>
      </trkpt>
      <trkpt lat="45.77869" lon="6.11293">
        <ele>1389</ele>
        <time>2000-01-01T05:09:38.000Z</time>
      </trkpt>
      <trkpt lat="45.77859" lon="6.1129">
        <ele>1387.1</ele>
        <time>2000-01-01T05:09:48.000Z</time>
      </trkpt>
      <trkpt lat="45.7785" lon="6.11294">
        <ele>1387</ele>
        <time>2000-01-01T05:09:58.000Z</time>
      </trkpt>
      <trkpt lat="45.7784" lon="6.11316">
        <ele>1377.5</ele>
        <time>2000-01-01T05:10:08.000Z</time>
      </trkpt>
      <trkpt lat="45.77833" lon="6.11327">
        <ele>1373</ele>
        <time>2000-01-01T05:10:18.000Z</time>
      </trkpt>
      <trkpt lat="45.77824" lon="6.11335">
        <ele>1371.2</ele>
        <time>2000-01-01T05:10:28.000Z</time>
      </trkpt>
      <trkpt lat="45.77802" lon="6.11347">
        <ele>1368</ele>
        <time>2000-01-01T05:10:38.000Z</time>
      </trkpt>
      <trkpt lat="45.77791" lon="6.11355">
        <ele>1364.8</ele>
        <time>2000-01-01T05:10:48.000Z</time>
      </trkpt>
      <trkpt lat="45.77783" lon="6.1137">
        <ele>1363</ele>
        <time>2000-01-01T05:10:58.000Z</time>
      </trkpt>
      <trkpt lat="45.77779" lon="6.11387">
        <ele>1359.5</ele>
        <time>2000-01-01T05:11:08.000Z</time>
      </trkpt>
      <trkpt lat="45.77781" lon="6.11403">
        <ele>1358</ele>
        <time>2000-01-01T05:11:18.000Z</time>
      </trkpt>
      <trkpt lat="45.7778" lon="6.11419">
        <ele>1354</ele>
        <time>2000-01-01T05:11:28.000Z</time>
      </trkpt>
      <trkpt lat="45.77781" lon="6.11433">
        <ele>1353</ele>
        <time>2000-01-01T05:11:38.000Z</time>
      </trkpt>
      <trkpt lat="45.77785" lon="6.11445">
        <ele>1349.9</ele>
        <time>2000-01-01T05:11:48.000Z</time>
      </trkpt>
      <trkpt lat="45.77788" lon="6.11461">
        <ele>1346</ele>
        <time>2000-01-01T05:11:58.000Z</time>
      </trkpt>
      <trkpt lat="45.77792" lon="6.11477">
        <ele>1343.9</ele>
        <time>2000-01-01T05:12:08.000Z</time>
      </trkpt>
      <trkpt lat="45.77796" lon="6.11492">
        <ele>1338</ele>
        <time>2000-01-01T05:12:18.000Z</time>
      </trkpt>
      <trkpt lat="45.77824" lon="6.11514">
        <ele>1335</ele>
        <time>2000-01-01T05:12:28.000Z</time>
      </trkpt>
      <trkpt lat="45.77819" lon="6.11525">
        <ele>1326.7</ele>
        <time>2000-01-01T05:12:38.000Z</time>
      </trkpt>
      <trkpt lat="45.77798" lon="6.11534">
        <ele>1325</ele>
        <time>2000-01-01T05:12:48.000Z</time>
      </trkpt>
      <trkpt lat="45.77797" lon="6.11549">
        <ele>1317.6</ele>
        <time>2000-01-01T05:12:58.000Z</time>
      </trkpt>
      <trkpt lat="45.77802" lon="6.11564">
        <ele>1315</ele>
        <time>2000-01-01T05:13:08.000Z</time>
      </trkpt>
      <trkpt lat="45.77813" lon="6.11564">
        <ele>1312.5</ele>
        <time>2000-01-01T05:13:18.000Z</time>
      </trkpt>
      <trkpt lat="45.77826" lon="6.11566">
        <ele>1313</ele>
        <time>2000-01-01T05:13:28.000Z</time>
      </trkpt>
      <trkpt lat="45.77837" lon="6.11571">
        <ele>1311.1</ele>
        <time>2000-01-01T05:13:38.000Z</time>
      </trkpt>
      <trkpt lat="45.77849" lon="6.11575">
        <ele>1311</ele>
        <time>2000-01-01T05:13:48.000Z</time>
      </trkpt>
      <trkpt lat="45.77856" lon="6.11585">
        <ele>1309.4</ele>
        <time>2000-01-01T05:13:58.000Z</time>
      </trkpt>
      <trkpt lat="45.77851" lon="6.11598">
        <ele>1306</ele>
        <time>2000-01-01T05:14:08.000Z</time>
      </trkpt>
      <trkpt lat="45.7783" lon="6.11606">
        <ele>1298</ele>
        <time>2000-01-01T05:14:18.000Z</time>
      </trkpt>
      <trkpt lat="45.7783" lon="6.1162">
        <ele>1289.9</ele>
        <time>2000-01-01T05:14:28.000Z</time>
      </trkpt>
      <trkpt lat="45.77839" lon="6.11622">
        <ele>1290</ele>
        <time>2000-01-01T05:14:38.000Z</time>
      </trkpt>
      <trkpt lat="45.77865" lon="6.11643">
        <ele>1285</ele>
        <time>2000-01-01T05:14:48.000Z</time>
      </trkpt>
      <trkpt lat="45.77872" lon="6.11652">
        <ele>1284.5</ele>
        <time>2000-01-01T05:14:58.000Z</time>
      </trkpt>
      <trkpt lat="45.77879" lon="6.11662">
        <ele>1281</ele>
        <time>2000-01-01T05:15:08.000Z</time>
      </trkpt>
      <trkpt lat="45.77885" lon="6.11673">
        <ele>1279.2</ele>
        <time>2000-01-01T05:15:18.000Z</time>
      </trkpt>
      <trkpt lat="45.77876" lon="6.11681">
        <ele>1273</ele>
        <time>2000-01-01T05:15:28.000Z</time>
      </trkpt>
      <trkpt lat="45.77867" lon="6.11677">
        <ele>1272.8</ele>
        <time>2000-01-01T05:15:38.000Z</time>
      </trkpt>
      <trkpt lat="45.77856" lon="6.11676">
        <ele>1271</ele>
        <time>2000-01-01T05:15:48.000Z</time>
      </trkpt>
      <trkpt lat="45.77855" lon="6.11689">
        <ele>1265.8</ele>
        <time>2000-01-01T05:15:58.000Z</time>
      </trkpt>
      <trkpt lat="45.77862" lon="6.11698">
        <ele>1265</ele>
        <time>2000-01-01T05:16:08.000Z</time>
      </trkpt>
      <trkpt lat="45.77872" lon="6.11706">
        <ele>1263.4</ele>
        <time>2000-01-01T05:16:18.000Z</time>
      </trkpt>
      <trkpt lat="45.77877" lon="6.11716">
        <ele>1261</ele>
        <time>2000-01-01T05:16:28.000Z</time>
      </trkpt>
      <trkpt lat="45.77895" lon="6.11731">
        <ele>1259</ele>
        <time>2000-01-01T05:16:38.000Z</time>
      </trkpt>
      <trkpt lat="45.77903" lon="6.11739">
        <ele>1255.4</ele>
        <time>2000-01-01T05:16:48.000Z</time>
      </trkpt>
      <trkpt lat="45.77912" lon="6.11745">
        <ele>1257</ele>
        <time>2000-01-01T05:16:58.000Z</time>
      </trkpt>
      <trkpt lat="45.77919" lon="6.11752">
        <ele>1253</ele>
        <time>2000-01-01T05:17:08.000Z</time>
      </trkpt>
      <trkpt lat="45.77909" lon="6.11756">
        <ele>1250</ele>
        <time>2000-01-01T05:17:18.000Z</time>
      </trkpt>
      <trkpt lat="45.77901" lon="6.11764">
        <ele>1244.3</ele>
        <time>2000-01-01T05:17:28.000Z</time>
      </trkpt>
      <trkpt lat="45.77905" lon="6.11776">
        <ele>1238.9</ele>
        <time>2000-01-01T05:17:38.000Z</time>
      </trkpt>
      <trkpt lat="45.77915" lon="6.11781">
        <ele>1236</ele>
        <time>2000-01-01T05:17:48.000Z</time>
      </trkpt>
      <trkpt lat="45.77923" lon="6.11789">
        <ele>1236.5</ele>
        <time>2000-01-01T05:17:58.000Z</time>
      </trkpt>
      <trkpt lat="45.77952" lon="6.11813">
        <ele>1236</ele>
        <time>2000-01-01T05:18:08.000Z</time>
      </trkpt>
      <trkpt lat="45.77959" lon="6.11821">
        <ele>1236.7</ele>
        <time>2000-01-01T05:18:18.000Z</time>
      </trkpt>
      <trkpt lat="45.77967" lon="6.11828">
        <ele>1236</ele>
        <time>2000-01-01T05:18:28.000Z</time>
      </trkpt>
      <trkpt lat="45.77973" lon="6.11844">
        <ele>1233.6</ele>
        <time>2000-01-01T05:18:38.000Z</time>
      </trkpt>
      <trkpt lat="45.77979" lon="6.11855">
        <ele>1231</ele>
        <time>2000-01-01T05:18:48.000Z</time>
      </trkpt>
      <trkpt lat="45.77983" lon="6.11869">
        <ele>1228.3</ele>
        <time>2000-01-01T05:18:58.000Z</time>
      </trkpt>
      <trkpt lat="45.77988" lon="6.11879">
        <ele>1227</ele>
        <time>2000-01-01T05:19:08.000Z</time>
      </trkpt>
      <trkpt lat="45.77995" lon="6.11889">
        <ele>1222.7</ele>
        <time>2000-01-01T05:19:18.000Z</time>
      </trkpt>
      <trkpt lat="45.77985" lon="6.11892">
        <ele>1219</ele>
        <time>2000-01-01T05:19:28.000Z</time>
      </trkpt>
      <trkpt lat="45.77997" lon="6.11913">
        <ele>1210</ele>
        <time>2000-01-01T05:19:38.000Z</time>
      </trkpt>
      <trkpt lat="45.78003" lon="6.11926">
        <ele>1205.2</ele>
        <time>2000-01-01T05:19:48.000Z</time>
      </trkpt>
      <trkpt lat="45.78018" lon="6.1195">
        <ele>1196</ele>
        <time>2000-01-01T05:19:58.000Z</time>
      </trkpt>
      <trkpt lat="45.78026" lon="6.11959">
        <ele>1197.2</ele>
        <time>2000-01-01T05:20:08.000Z</time>
      </trkpt>
      <trkpt lat="45.78034" lon="6.11971">
        <ele>1194</ele>
        <time>2000-01-01T05:20:18.000Z</time>
      </trkpt>
      <trkpt lat="45.7804" lon="6.11987">
        <ele>1190.3</ele>
        <time>2000-01-01T05:20:28.000Z</time>
      </trkpt>
      <trkpt lat="45.78045" lon="6.11998">
        <ele>1187</ele>
        <time>2000-01-01T05:20:38.000Z</time>
      </trkpt>
      <trkpt lat="45.78036" lon="6.12005">
        <ele>1183.2</ele>
        <time>2000-01-01T05:20:48.000Z</time>
      </trkpt>
      <trkpt lat="45.78016" lon="6.12006">
        <ele>1177</ele>
        <time>2000-01-01T05:20:58.000Z</time>
      </trkpt>
      <trkpt lat="45.78005" lon="6.12005">
        <ele>1175</ele>
        <time>2000-01-01T05:21:08.000Z</time>
      </trkpt>
      <trkpt lat="45.77993" lon="6.11999">
        <ele>1175</ele>
        <time>2000-01-01T05:21:18.000Z</time>
      </trkpt>
      <trkpt lat="45.7797" lon="6.11997">
        <ele>1172</ele>
        <time>2000-01-01T05:21:28.000Z</time>
      </trkpt>
      <trkpt lat="45.77941" lon="6.11987">
        <ele>1166</ele>
        <time>2000-01-01T05:21:38.000Z</time>
      </trkpt>
      <trkpt lat="45.77909" lon="6.1199">
        <ele>1153</ele>
        <time>2000-01-01T05:21:48.000Z</time>
      </trkpt>
      <trkpt lat="45.77889" lon="6.1199">
        <ele>1145</ele>
        <time>2000-01-01T05:21:58.000Z</time>
      </trkpt>
      <trkpt lat="45.77878" lon="6.11993">
        <ele>1144.3</ele>
        <time>2000-01-01T05:22:08.000Z</time>
      </trkpt>
      <trkpt lat="45.77858" lon="6.12002">
        <ele>1135</ele>
        <time>2000-01-01T05:22:18.000Z</time>
      </trkpt>
      <trkpt lat="45.7785" lon="6.1201">
        <ele>1133.1</ele>
        <time>2000-01-01T05:22:28.000Z</time>
      </trkpt>
      <trkpt lat="45.7784" lon="6.12015">
        <ele>1131</ele>
        <time>2000-01-01T05:22:38.000Z</time>
      </trkpt>
      <trkpt lat="45.77834" lon="6.12026">
        <ele>1125.6</ele>
        <time>2000-01-01T05:22:48.000Z</time>
      </trkpt>
      <trkpt lat="45.77825" lon="6.12023">
        <ele>1123</ele>
        <time>2000-01-01T05:22:58.000Z</time>
      </trkpt>
      <trkpt lat="45.77825" lon="6.12037">
        <ele>1120.3</ele>
        <time>2000-01-01T05:23:08.000Z</time>
      </trkpt>
      <trkpt lat="45.77822" lon="6.1205">
        <ele>1117</ele>
        <time>2000-01-01T05:23:18.000Z</time>
      </trkpt>
      <trkpt lat="45.77812" lon="6.12047">
        <ele>1114</ele>
        <time>2000-01-01T05:23:28.000Z</time>
      </trkpt>
      <trkpt lat="45.77804" lon="6.12051">
        <ele>1110.9</ele>
        <time>2000-01-01T05:23:38.000Z</time>
      </trkpt>
      <trkpt lat="45.77787" lon="6.12066">
        <ele>1102</ele>
        <time>2000-01-01T05:23:48.000Z</time>
      </trkpt>
      <trkpt lat="45.77776" lon="6.12071">
        <ele>1098.7</ele>
        <time>2000-01-01T05:23:58.000Z</time>
      </trkpt>
      <trkpt lat="45.77754" lon="6.12074">
        <ele>1097</ele>
        <time>2000-01-01T05:24:08.000Z</time>
      </trkpt>
      <trkpt lat="45.77746" lon="6.12083">
        <ele>1091.1</ele>
        <time>2000-01-01T05:24:18.000Z</time>
      </trkpt>
      <trkpt lat="45.77748" lon="6.12096">
        <ele>1087</ele>
        <time>2000-01-01T05:24:28.000Z</time>
      </trkpt>
      <trkpt lat="45.77756" lon="6.12104">
        <ele>1085.2</ele>
        <time>2000-01-01T05:24:38.000Z</time>
      </trkpt>
      <trkpt lat="45.77749" lon="6.12115">
        <ele>1081</ele>
        <time>2000-01-01T05:24:48.000Z</time>
      </trkpt>
      <trkpt lat="45.77739" lon="6.12117">
        <ele>1078.3</ele>
        <time>2000-01-01T05:24:58.000Z</time>
      </trkpt>
      <trkpt lat="45.77727" lon="6.12122">
        <ele>1074</ele>
        <time>2000-01-01T05:25:08.000Z</time>
      </trkpt>
      <trkpt lat="45.77717" lon="6.12125">
        <ele>1072.3</ele>
        <time>2000-01-01T05:25:18.000Z</time>
      </trkpt>
      <trkpt lat="45.77717" lon="6.12143">
        <ele>1067</ele>
        <time>2000-01-01T05:25:28.000Z</time>
      </trkpt>
      <trkpt lat="45.77717" lon="6.12156">
        <ele>1062.9</ele>
        <time>2000-01-01T05:25:38.000Z</time>
      </trkpt>
      <trkpt lat="45.77719" lon="6.1217">
        <ele>1061</ele>
        <time>2000-01-01T05:25:48.000Z</time>
      </trkpt>
      <trkpt lat="45.77717" lon="6.12184">
        <ele>1055.3</ele>
        <time>2000-01-01T05:25:58.000Z</time>
      </trkpt>
      <trkpt lat="45.77721" lon="6.12212">
        <ele>1048</ele>
        <time>2000-01-01T05:26:08.000Z</time>
      </trkpt>
      <trkpt lat="45.77724" lon="6.12227">
        <ele>1045.1</ele>
        <time>2000-01-01T05:26:18.000Z</time>
      </trkpt>
      <trkpt lat="45.77733" lon="6.12237">
        <ele>1044</ele>
        <time>2000-01-01T05:26:28.000Z</time>
      </trkpt>
      <trkpt lat="45.77738" lon="6.12251">
        <ele>1041.1</ele>
        <time>2000-01-01T05:26:38.000Z</time>
      </trkpt>
      <trkpt lat="45.77755" lon="6.12278">
        <ele>1038</ele>
        <time>2000-01-01T05:26:48.000Z</time>
      </trkpt>
      <trkpt lat="45.77761" lon="6.1229">
        <ele>1035.1</ele>
        <time>2000-01-01T05:26:58.000Z</time>
      </trkpt>
      <trkpt lat="45.77767" lon="6.123">
        <ele>1035</ele>
        <time>2000-01-01T05:27:08.000Z</time>
      </trkpt>
      <trkpt lat="45.77777" lon="6.12301">
        <ele>1034.1</ele>
        <time>2000-01-01T05:27:18.000Z</time>
      </trkpt>
      <trkpt lat="45.77786" lon="6.12307">
        <ele>1034</ele>
        <time>2000-01-01T05:27:28.000Z</time>
      </trkpt>
      <trkpt lat="45.77797" lon="6.12313">
        <ele>1031.8</ele>
        <time>2000-01-01T05:27:38.000Z</time>
      </trkpt>
      <trkpt lat="45.77806" lon="6.12316">
        <ele>1032</ele>
        <time>2000-01-01T05:27:48.000Z</time>
      </trkpt>
      <trkpt lat="45.77824" lon="6.12331">
        <ele>1033</ele>
        <time>2000-01-01T05:27:58.000Z</time>
      </trkpt>
      <trkpt lat="45.77835" lon="6.12331">
        <ele>1031.7</ele>
        <time>2000-01-01T05:28:08.000Z</time>
      </trkpt>
      <trkpt lat="45.77845" lon="6.12321">
        <ele>1034</ele>
        <time>2000-01-01T05:28:18.000Z</time>
      </trkpt>
      <trkpt lat="45.77862" lon="6.12309">
        <ele>1033</ele>
        <time>2000-01-01T05:28:28.000Z</time>
      </trkpt>
      <trkpt lat="45.77872" lon="6.12305">
        <ele>1034.2</ele>
        <time>2000-01-01T05:28:38.000Z</time>
      </trkpt>
      <trkpt lat="45.77884" lon="6.12304">
        <ele>1032</ele>
        <time>2000-01-01T05:28:48.000Z</time>
      </trkpt>
      <trkpt lat="45.77896" lon="6.12305">
        <ele>1031</ele>
        <time>2000-01-01T05:28:58.000Z</time>
      </trkpt>
      <trkpt lat="45.77905" lon="6.12305">
        <ele>1031</ele>
        <time>2000-01-01T05:29:08.000Z</time>
      </trkpt>
      <trkpt lat="45.77917" lon="6.12306">
        <ele>1030</ele>
        <time>2000-01-01T05:29:18.000Z</time>
      </trkpt>
      <trkpt lat="45.77927" lon="6.12316">
        <ele>1030</ele>
        <time>2000-01-01T05:29:28.000Z</time>
      </trkpt>
      <trkpt lat="45.77937" lon="6.12324">
        <ele>1028.2</ele>
        <time>2000-01-01T05:29:38.000Z</time>
      </trkpt>
      <trkpt lat="45.77947" lon="6.12328">
        <ele>1029</ele>
        <time>2000-01-01T05:29:48.000Z</time>
      </trkpt>
      <trkpt lat="45.77955" lon="6.12341">
        <ele>1024.3</ele>
        <time>2000-01-01T05:29:58.000Z</time>
      </trkpt>
      <trkpt lat="45.77959" lon="6.12359">
        <ele>1019</ele>
        <time>2000-01-01T05:30:08.000Z</time>
      </trkpt>
      <trkpt lat="45.77958" lon="6.12376">
        <ele>1017.9</ele>
        <time>2000-01-01T05:30:18.000Z</time>
      </trkpt>
      <trkpt lat="45.77966" lon="6.124">
        <ele>1015</ele>
        <time>2000-01-01T05:30:28.000Z</time>
      </trkpt>
      <trkpt lat="45.77982" lon="6.1242">
        <ele>1011</ele>
        <time>2000-01-01T05:30:38.000Z</time>
      </trkpt>
      <trkpt lat="45.77987" lon="6.12433">
        <ele>1009.5</ele>
        <time>2000-01-01T05:30:48.000Z</time>
      </trkpt>
      <trkpt lat="45.77994" lon="6.12443">
        <ele>1009</ele>
        <time>2000-01-01T05:30:58.000Z</time>
      </trkpt>
      <trkpt lat="45.78004" lon="6.12445">
        <ele>1006.3</ele>
        <time>2000-01-01T05:31:08.000Z</time>
      </trkpt>
      <trkpt lat="45.78012" lon="6.1244">
        <ele>1006</ele>
        <time>2000-01-01T05:31:18.000Z</time>
      </trkpt>
      <trkpt lat="45.78023" lon="6.12439">
        <ele>1005</ele>
        <time>2000-01-01T05:31:28.000Z</time>
      </trkpt>
      <trkpt lat="45.78033" lon="6.12444">
        <ele>1003</ele>
        <time>2000-01-01T05:31:38.000Z</time>
      </trkpt>
      <trkpt lat="45.78042" lon="6.12454">
        <ele>1001.8</ele>
        <time>2000-01-01T05:31:48.000Z</time>
      </trkpt>
      <trkpt lat="45.7805" lon="6.12464">
        <ele>1002</ele>
        <time>2000-01-01T05:31:58.000Z</time>
      </trkpt>
      <trkpt lat="45.7806" lon="6.12466">
        <ele>1000.9</ele>
        <time>2000-01-01T05:32:08.000Z</time>
      </trkpt>
      <trkpt lat="45.7807" lon="6.12464">
        <ele>1003</ele>
        <time>2000-01-01T05:32:18.000Z</time>
      </trkpt>
      <trkpt lat="45.7808" lon="6.12467">
        <ele>1001.9</ele>
        <time>2000-01-01T05:32:28.000Z</time>
      </trkpt>
      <trkpt lat="45.7809" lon="6.12467">
        <ele>1004</ele>
        <time>2000-01-01T05:32:38.000Z</time>
      </trkpt>
      <trkpt lat="45.78103" lon="6.12463">
        <ele>1004.2</ele>
        <time>2000-01-01T05:32:48.000Z</time>
      </trkpt>
      <trkpt lat="45.78114" lon="6.12463">
        <ele>1004</ele>
        <time>2000-01-01T05:32:58.000Z</time>
      </trkpt>
      <trkpt lat="45.78125" lon="6.12465">
        <ele>1005.5</ele>
        <time>2000-01-01T05:33:08.000Z</time>
      </trkpt>
      <trkpt lat="45.78137" lon="6.1247">
        <ele>1004</ele>
        <time>2000-01-01T05:33:18.000Z</time>
      </trkpt>
      <trkpt lat="45.78145" lon="6.12477">
        <ele>1003.6</ele>
        <time>2000-01-01T05:33:28.000Z</time>
      </trkpt>
      <trkpt lat="45.78165" lon="6.12484">
        <ele>1002</ele>
        <time>2000-01-01T05:33:38.000Z</time>
      </trkpt>
      <trkpt lat="45.78178" lon="6.12488">
        <ele>1002.3</ele>
        <time>2000-01-01T05:33:48.000Z</time>
      </trkpt>
      <trkpt lat="45.78188" lon="6.12496">
        <ele>1001</ele>
        <time>2000-01-01T05:33:58.000Z</time>
      </trkpt>
      <trkpt lat="45.78205" lon="6.12508">
        <ele>1001</ele>
        <time>2000-01-01T05:34:08.000Z</time>
      </trkpt>
      <trkpt lat="45.78211" lon="6.12521">
        <ele>994.7</ele>
        <time>2000-01-01T05:34:18.000Z</time>
      </trkpt>
      <trkpt lat="45.7822" lon="6.1253">
        <ele>992</ele>
        <time>2000-01-01T05:34:28.000Z</time>
      </trkpt>
      <trkpt lat="45.78231" lon="6.12538">
        <ele>991.3</ele>
        <time>2000-01-01T05:34:38.000Z</time>
      </trkpt>
      <trkpt lat="45.78241" lon="6.12543">
        <ele>992</ele>
        <time>2000-01-01T05:34:48.000Z</time>
      </trkpt>
      <trkpt lat="45.7825" lon="6.1255">
        <ele>989.6</ele>
        <time>2000-01-01T05:34:58.000Z</time>
      </trkpt>
      <trkpt lat="45.7826" lon="6.12558">
        <ele>992</ele>
        <time>2000-01-01T05:35:08.000Z</time>
      </trkpt>
      <trkpt lat="45.78274" lon="6.12579">
        <ele>986</ele>
        <time>2000-01-01T05:35:18.000Z</time>
      </trkpt>
      <trkpt lat="45.78283" lon="6.12589">
        <ele>983.3</ele>
        <time>2000-01-01T05:35:28.000Z</time>
      </trkpt>
      <trkpt lat="45.78301" lon="6.12601">
        <ele>981</ele>
        <time>2000-01-01T05:35:38.000Z</time>
      </trkpt>
      <trkpt lat="45.7832" lon="6.12624">
        <ele>976</ele>
        <time>2000-01-01T05:35:48.000Z</time>
      </trkpt>
      <trkpt lat="45.78327" lon="6.12639">
        <ele>972.8</ele>
        <time>2000-01-01T05:35:58.000Z</time>
      </trkpt>
      <trkpt lat="45.78336" lon="6.12668">
        <ele>965</ele>
        <time>2000-01-01T05:36:08.000Z</time>
      </trkpt>
      <trkpt lat="45.78337" lon="6.12686">
        <ele>962.9</ele>
        <time>2000-01-01T05:36:18.000Z</time>
      </trkpt>
      <trkpt lat="45.78336" lon="6.12702">
        <ele>961</ele>
        <time>2000-01-01T05:36:28.000Z</time>
      </trkpt>
      <trkpt lat="45.78336" lon="6.12718">
        <ele>960.2</ele>
        <time>2000-01-01T05:36:38.000Z</time>
      </trkpt>
      <trkpt lat="45.78347" lon="6.12719">
        <ele>960</ele>
        <time>2000-01-01T05:36:48.000Z</time>
      </trkpt>
      <trkpt lat="45.78366" lon="6.12714">
        <ele>960</ele>
        <time>2000-01-01T05:36:58.000Z</time>
      </trkpt>
      <trkpt lat="45.78386" lon="6.12714">
        <ele>960</ele>
        <time>2000-01-01T05:37:08.000Z</time>
      </trkpt>
      <trkpt lat="45.78407" lon="6.12713">
        <ele>960</ele>
        <time>2000-01-01T05:37:18.000Z</time>
      </trkpt>
      <trkpt lat="45.78417" lon="6.12718">
        <ele>961.8</ele>
        <time>2000-01-01T05:37:28.000Z</time>
      </trkpt>
      <trkpt lat="45.78425" lon="6.12728">
        <ele>960</ele>
        <time>2000-01-01T05:37:38.000Z</time>
      </trkpt>
      <trkpt lat="45.78432" lon="6.12739">
        <ele>959.1</ele>
        <time>2000-01-01T05:37:48.000Z</time>
      </trkpt>
      <trkpt lat="45.7844" lon="6.12746">
        <ele>960</ele>
        <time>2000-01-01T05:37:58.000Z</time>
      </trkpt>
      <trkpt lat="45.78443" lon="6.12748">
        <ele>959.1</ele>
        <time>2000-01-01T05:38:08.000Z</time>
      </trkpt>
      <trkpt lat="45.78446" lon="6.12749">
        <ele>959.1</ele>
        <time>2000-01-01T05:38:18.000Z</time>
      </trkpt>
      <trkpt lat="45.78466" lon="6.12755">
        <ele>957</ele>
        <time>2000-01-01T05:38:28.000Z</time>
      </trkpt>
      <trkpt lat="45.78477" lon="6.12764">
        <ele>955.7</ele>
        <time>2000-01-01T05:38:38.000Z</time>
      </trkpt>
      <trkpt lat="45.78487" lon="6.12769">
        <ele>957</ele>
        <time>2000-01-01T05:38:48.000Z</time>
      </trkpt>
      <trkpt lat="45.78494" lon="6.12769">
        <ele>956.3</ele>
        <time>2000-01-01T05:38:58.000Z</time>
      </trkpt>
      <trkpt lat="45.78503" lon="6.1277">
        <ele>957</ele>
        <time>2000-01-01T05:39:08.000Z</time>
      </trkpt>
      <trkpt lat="45.78517" lon="6.12774">
        <ele>957</ele>
        <time>2000-01-01T05:39:18.000Z</time>
      </trkpt>
      <trkpt lat="45.78525" lon="6.12778">
        <ele>959.6</ele>
        <time>2000-01-01T05:39:28.000Z</time>
      </trkpt>
      <trkpt lat="45.78529" lon="6.12778">
        <ele>960.2</ele>
        <time>2000-01-01T05:39:38.000Z</time>
      </trkpt>
      <trkpt lat="45.78534" lon="6.12777">
        <ele>961.2</ele>
        <time>2000-01-01T05:39:48.000Z</time>
      </trkpt>
      <trkpt lat="45.78545" lon="6.12772">
        <ele>963</ele>
        <time>2000-01-01T05:39:58.000Z</time>
      </trkpt>
      <trkpt lat="45.78553" lon="6.12763">
        <ele>966.1</ele>
        <time>2000-01-01T05:40:08.000Z</time>
      </trkpt>
      <trkpt lat="45.78561" lon="6.12751">
        <ele>967</ele>
        <time>2000-01-01T05:40:18.000Z</time>
      </trkpt>
      <trkpt lat="45.78567" lon="6.12741">
        <ele>969.5</ele>
        <time>2000-01-01T05:40:28.000Z</time>
      </trkpt>
      <trkpt lat="45.78577" lon="6.12713">
        <ele>971</ele>
        <time>2000-01-01T05:40:38.000Z</time>
      </trkpt>
      <trkpt lat="45.78581" lon="6.12701">
        <ele>972.7</ele>
        <time>2000-01-01T05:40:48.000Z</time>
      </trkpt>
      <trkpt lat="45.78585" lon="6.12687">
        <ele>974</ele>
        <time>2000-01-01T05:40:58.000Z</time>
      </trkpt>
      <trkpt lat="45.7859" lon="6.12672">
        <ele>974.7</ele>
        <time>2000-01-01T05:41:08.000Z</time>
      </trkpt>
      <trkpt lat="45.78598" lon="6.12663">
        <ele>974</ele>
        <time>2000-01-01T05:41:18.000Z</time>
      </trkpt>
      <trkpt lat="45.78608" lon="6.12663">
        <ele>978.1</ele>
        <time>2000-01-01T05:41:28.000Z</time>
      </trkpt>
      <trkpt lat="45.78618" lon="6.12664">
        <ele>975</ele>
        <time>2000-01-01T05:41:38.000Z</time>
      </trkpt>
      <trkpt lat="45.78629" lon="6.12662">
        <ele>978</ele>
        <time>2000-01-01T05:41:48.000Z</time>
      </trkpt>
      <trkpt lat="45.78638" lon="6.12665">
        <ele>977</ele>
        <time>2000-01-01T05:41:58.000Z</time>
      </trkpt>
      <trkpt lat="45.78682" lon="6.12672">
        <ele>979</ele>
        <time>2000-01-01T05:42:08.000Z</time>
      </trkpt>
      <trkpt lat="45.78692" lon="6.12673">
        <ele>979.2</ele>
        <time>2000-01-01T05:42:18.000Z</time>
      </trkpt>
      <trkpt lat="45.78711" lon="6.12669">
        <ele>981</ele>
        <time>2000-01-01T05:42:28.000Z</time>
      </trkpt>
      <trkpt lat="45.78722" lon="6.12664">
        <ele>980</ele>
        <time>2000-01-01T05:42:38.000Z</time>
      </trkpt>
      <trkpt lat="45.78731" lon="6.12662">
        <ele>981</ele>
        <time>2000-01-01T05:42:48.000Z</time>
      </trkpt>
      <trkpt lat="45.7874" lon="6.12662">
        <ele>981.2</ele>
        <time>2000-01-01T05:42:58.000Z</time>
      </trkpt>
      <trkpt lat="45.78751" lon="6.1266">
        <ele>982</ele>
        <time>2000-01-01T05:43:08.000Z</time>
      </trkpt>
      <trkpt lat="45.78759" lon="6.12655">
        <ele>984.4</ele>
        <time>2000-01-01T05:43:18.000Z</time>
      </trkpt>
      <trkpt lat="45.7877" lon="6.12656">
        <ele>986</ele>
        <time>2000-01-01T05:43:28.000Z</time>
      </trkpt>
      <trkpt lat="45.78791" lon="6.12655">
        <ele>988</ele>
        <time>2000-01-01T05:43:38.000Z</time>
      </trkpt>
      <trkpt lat="45.78801" lon="6.12653">
        <ele>987.3</ele>
        <time>2000-01-01T05:43:48.000Z</time>
      </trkpt>
      <trkpt lat="45.78813" lon="6.12653">
        <ele>988</ele>
        <time>2000-01-01T05:43:58.000Z</time>
      </trkpt>
      <trkpt lat="45.78823" lon="6.12656">
        <ele>986.2</ele>
        <time>2000-01-01T05:44:08.000Z</time>
      </trkpt>
      <trkpt lat="45.78834" lon="6.12657">
        <ele>989</ele>
        <time>2000-01-01T05:44:18.000Z</time>
      </trkpt>
      <trkpt lat="45.78853" lon="6.12656">
        <ele>990</ele>
        <time>2000-01-01T05:44:28.000Z</time>
      </trkpt>
      <trkpt lat="45.78862" lon="6.12654">
        <ele>990.2</ele>
        <time>2000-01-01T05:44:38.000Z</time>
      </trkpt>
      <trkpt lat="45.78883" lon="6.12659">
        <ele>993</ele>
        <time>2000-01-01T05:44:48.000Z</time>
      </trkpt>
      <trkpt lat="45.78912" lon="6.12656">
        <ele>995</ele>
        <time>2000-01-01T05:44:58.000Z</time>
      </trkpt>
      <trkpt lat="45.78923" lon="6.12653">
        <ele>995.4</ele>
        <time>2000-01-01T05:45:08.000Z</time>
      </trkpt>
      <trkpt lat="45.78932" lon="6.12654">
        <ele>994</ele>
        <time>2000-01-01T05:45:18.000Z</time>
      </trkpt>
      <trkpt lat="45.78944" lon="6.12657">
        <ele>995.4</ele>
        <time>2000-01-01T05:45:28.000Z</time>
      </trkpt>
      <trkpt lat="45.78953" lon="6.12662">
        <ele>994</ele>
        <time>2000-01-01T05:45:38.000Z</time>
      </trkpt>
      <trkpt lat="45.78982" lon="6.12666">
        <ele>994</ele>
        <time>2000-01-01T05:45:48.000Z</time>
      </trkpt>
      <trkpt lat="45.79001" lon="6.12672">
        <ele>993</ele>
        <time>2000-01-01T05:45:58.000Z</time>
      </trkpt>
      <trkpt lat="45.7901" lon="6.1268">
        <ele>996.5</ele>
        <time>2000-01-01T05:46:08.000Z</time>
      </trkpt>
      <trkpt lat="45.7903" lon="6.127">
        <ele>993</ele>
        <time>2000-01-01T05:46:18.000Z</time>
      </trkpt>
      <trkpt lat="45.7904" lon="6.12704">
        <ele>997</ele>
        <time>2000-01-01T05:46:28.000Z</time>
      </trkpt>
      <trkpt lat="45.7905" lon="6.1271">
        <ele>997</ele>
        <time>2000-01-01T05:46:38.000Z</time>
      </trkpt>
      <trkpt lat="45.79059" lon="6.12713">
        <ele>996.8</ele>
        <time>2000-01-01T05:46:48.000Z</time>
      </trkpt>
      <trkpt lat="45.79083" lon="6.12719">
        <ele>995</ele>
        <time>2000-01-01T05:46:58.000Z</time>
      </trkpt>
      <trkpt lat="45.79095" lon="6.12724">
        <ele>995</ele>
        <time>2000-01-01T05:47:08.000Z</time>
      </trkpt>
      <trkpt lat="45.79125" lon="6.1274">
        <ele>994</ele>
        <time>2000-01-01T05:47:18.000Z</time>
      </trkpt>
      <trkpt lat="45.7914" lon="6.12753">
        <ele>990.3</ele>
        <time>2000-01-01T05:47:28.000Z</time>
      </trkpt>
      <trkpt lat="45.7915" lon="6.12759">
        <ele>991</ele>
        <time>2000-01-01T05:47:38.000Z</time>
      </trkpt>
      <trkpt lat="45.79159" lon="6.12766">
        <ele>987.7</ele>
        <time>2000-01-01T05:47:48.000Z</time>
      </trkpt>
      <trkpt lat="45.79167" lon="6.12776">
        <ele>986</ele>
        <time>2000-01-01T05:47:58.000Z</time>
      </trkpt>
      <trkpt lat="45.79175" lon="6.12788">
        <ele>984.7</ele>
        <time>2000-01-01T05:48:08.000Z</time>
      </trkpt>
      <trkpt lat="45.79182" lon="6.128">
        <ele>984</ele>
        <time>2000-01-01T05:48:18.000Z</time>
      </trkpt>
      <trkpt lat="45.79187" lon="6.12812">
        <ele>982.5</ele>
        <time>2000-01-01T05:48:28.000Z</time>
      </trkpt>
      <trkpt lat="45.7919" lon="6.12827">
        <ele>980</ele>
        <time>2000-01-01T05:48:38.000Z</time>
      </trkpt>
      <trkpt lat="45.79186" lon="6.12871">
        <ele>971</ele>
        <time>2000-01-01T05:48:48.000Z</time>
      </trkpt>
      <trkpt lat="45.79179" lon="6.12884">
        <ele>969.3</ele>
        <time>2000-01-01T05:48:58.000Z</time>
      </trkpt>
      <trkpt lat="45.79165" lon="6.12906">
        <ele>965</ele>
        <time>2000-01-01T05:49:08.000Z</time>
      </trkpt>
      <trkpt lat="45.79146" lon="6.12921">
        <ele>957</ele>
        <time>2000-01-01T05:49:18.000Z</time>
      </trkpt>
      <trkpt lat="45.79137" lon="6.12925">
        <ele>956.1</ele>
        <time>2000-01-01T05:49:28.000Z</time>
      </trkpt>
      <trkpt lat="45.7913" lon="6.12935">
        <ele>955</ele>
        <time>2000-01-01T05:49:38.000Z</time>
      </trkpt>
      <trkpt lat="45.79124" lon="6.12947">
        <ele>951.3</ele>
        <time>2000-01-01T05:49:48.000Z</time>
      </trkpt>
      <trkpt lat="45.79119" lon="6.1296">
        <ele>947</ele>
        <time>2000-01-01T05:49:58.000Z</time>
      </trkpt>
      <trkpt lat="45.7911" lon="6.12969">
        <ele>944.7</ele>
        <time>2000-01-01T05:50:08.000Z</time>
      </trkpt>
      <trkpt lat="45.79097" lon="6.12988">
        <ele>939</ele>
        <time>2000-01-01T05:50:18.000Z</time>
      </trkpt>
      <trkpt lat="45.79089" lon="6.12997">
        <ele>935</ele>
        <time>2000-01-01T05:50:28.000Z</time>
      </trkpt>
      <trkpt lat="45.79083" lon="6.13006">
        <ele>933.1</ele>
        <time>2000-01-01T05:50:38.000Z</time>
      </trkpt>
      <trkpt lat="45.79075" lon="6.13011">
        <ele>931</ele>
        <time>2000-01-01T05:50:48.000Z</time>
      </trkpt>
      <trkpt lat="45.79062" lon="6.13019">
        <ele>929.2</ele>
        <time>2000-01-01T05:50:58.000Z</time>
      </trkpt>
      <trkpt lat="45.79056" lon="6.13028">
        <ele>927</ele>
        <time>2000-01-01T05:51:08.000Z</time>
      </trkpt>
      <trkpt lat="45.79046" lon="6.13032">
        <ele>925.4</ele>
        <time>2000-01-01T05:51:18.000Z</time>
      </trkpt>
      <trkpt lat="45.79043" lon="6.13072">
        <ele>917</ele>
        <time>2000-01-01T05:51:28.000Z</time>
      </trkpt>
      <trkpt lat="45.79043" lon="6.13107">
        <ele>910</ele>
        <time>2000-01-01T05:51:38.000Z</time>
      </trkpt>
      <trkpt lat="45.79028" lon="6.13135">
        <ele>908</ele>
        <time>2000-01-01T05:51:48.000Z</time>
      </trkpt>
      <trkpt lat="45.79005" lon="6.13157">
        <ele>899</ele>
        <time>2000-01-01T05:51:58.000Z</time>
      </trkpt>
      <trkpt lat="45.79032" lon="6.13166">
        <ele>898</ele>
        <time>2000-01-01T05:52:08.000Z</time>
      </trkpt>
      <trkpt lat="45.79071" lon="6.13178">
        <ele>897</ele>
        <time>2000-01-01T05:52:18.000Z</time>
      </trkpt>
      <trkpt lat="45.79102" lon="6.13207">
        <ele>891</ele>
        <time>2000-01-01T05:52:28.000Z</time>
      </trkpt>
      <trkpt lat="45.79131" lon="6.13227">
        <ele>888</ele>
        <time>2000-01-01T05:52:38.000Z</time>
      </trkpt>
      <trkpt lat="45.7916" lon="6.13247">
        <ele>885</ele>
        <time>2000-01-01T05:52:48.000Z</time>
      </trkpt>
      <trkpt lat="45.79194" lon="6.13271">
        <ele>880</ele>
        <time>2000-01-01T05:52:58.000Z</time>
      </trkpt>
      <trkpt lat="45.79235" lon="6.13281">
        <ele>879</ele>
        <time>2000-01-01T05:53:08.000Z</time>
      </trkpt>
      <trkpt lat="45.79275" lon="6.13283">
        <ele>879</ele>
        <time>2000-01-01T05:53:18.000Z</time>
      </trkpt>
      <trkpt lat="45.79296" lon="6.13288">
        <ele>879</ele>
        <time>2000-01-01T05:53:28.000Z</time>
      </trkpt>
      <trkpt lat="45.79319" lon="6.13278">
        <ele>878</ele>
        <time>2000-01-01T05:53:38.000Z</time>
      </trkpt>
      <trkpt lat="45.79351" lon="6.1329">
        <ele>878</ele>
        <time>2000-01-01T05:53:48.000Z</time>
      </trkpt>
      <trkpt lat="45.79368" lon="6.13297">
        <ele>876.5</ele>
        <time>2000-01-01T05:53:58.000Z</time>
      </trkpt>
      <trkpt lat="45.79384" lon="6.13302">
        <ele>875</ele>
        <time>2000-01-01T05:54:08.000Z</time>
      </trkpt>
      <trkpt lat="45.79393" lon="6.13306">
        <ele>874.9</ele>
        <time>2000-01-01T05:54:18.000Z</time>
      </trkpt>
      <trkpt lat="45.79402" lon="6.13308">
        <ele>875</ele>
        <time>2000-01-01T05:54:28.000Z</time>
      </trkpt>
      <trkpt lat="45.79405" lon="6.1331">
        <ele>874</ele>
        <time>2000-01-01T05:54:38.000Z</time>
      </trkpt>
      <trkpt lat="45.79409" lon="6.13311">
        <ele>873.8</ele>
        <time>2000-01-01T05:54:48.000Z</time>
      </trkpt>
      <trkpt lat="45.79416" lon="6.13314">
        <ele>873.2</ele>
        <time>2000-01-01T05:54:58.000Z</time>
      </trkpt>
      <trkpt lat="45.79435" lon="6.13321">
        <ele>871</ele>
        <time>2000-01-01T05:55:08.000Z</time>
      </trkpt>
      <trkpt lat="45.79436" lon="6.13322">
        <ele>871</ele>
        <time>2000-01-01T05:55:18.000Z</time>
      </trkpt>
      <trkpt lat="45.79436" lon="6.13321">
        <ele>871.3</ele>
        <time>2000-01-01T05:55:28.000Z</time>
      </trkpt>
      <trkpt lat="45.79456" lon="6.13328">
        <ele>869</ele>
        <time>2000-01-01T05:55:38.000Z</time>
      </trkpt>
      <trkpt lat="45.79466" lon="6.13333">
        <ele>867.3</ele>
        <time>2000-01-01T05:55:48.000Z</time>
      </trkpt>
      <trkpt lat="45.79473" lon="6.13336">
        <ele>866.6</ele>
        <time>2000-01-01T05:55:58.000Z</time>
      </trkpt>
      <trkpt lat="45.79479" lon="6.13341">
        <ele>868</ele>
        <time>2000-01-01T05:56:08.000Z</time>
      </trkpt>
      <trkpt lat="45.79482" lon="6.13342">
        <ele>865.9</ele>
        <time>2000-01-01T05:56:18.000Z</time>
      </trkpt>
      <trkpt lat="45.79484" lon="6.13341">
        <ele>866.2</ele>
        <time>2000-01-01T05:56:28.000Z</time>
      </trkpt>
      <trkpt lat="45.79492" lon="6.13341">
        <ele>866.7</ele>
        <time>2000-01-01T05:56:38.000Z</time>
      </trkpt>
      <trkpt lat="45.79503" lon="6.13348">
        <ele>867</ele>
        <time>2000-01-01T05:56:48.000Z</time>
      </trkpt>
      <trkpt lat="45.79508" lon="6.1335">
        <ele>863.2</ele>
        <time>2000-01-01T05:56:58.000Z</time>
      </trkpt>
      <trkpt lat="45.79513" lon="6.13351">
        <ele>862</ele>
        <time>2000-01-01T05:57:08.000Z</time>
      </trkpt>
      <trkpt lat="45.7952" lon="6.13348">
        <ele>861.4</ele>
        <time>2000-01-01T05:57:18.000Z</time>
      </trkpt>
      <trkpt lat="45.79522" lon="6.13348">
        <ele>863</ele>
        <time>2000-01-01T05:57:28.000Z</time>
      </trkpt>
      <trkpt lat="45.79534" lon="6.13342">
        <ele>860.7</ele>
        <time>2000-01-01T05:57:38.000Z</time>
      </trkpt>
      <trkpt lat="45.7954" lon="6.13341">
        <ele>857</ele>
        <time>2000-01-01T05:57:48.000Z</time>
      </trkpt>
      <trkpt lat="45.79545" lon="6.13344">
        <ele>859.6</ele>
        <time>2000-01-01T05:57:58.000Z</time>
      </trkpt>
      <trkpt lat="45.79553" lon="6.13351">
        <ele>858.2</ele>
        <time>2000-01-01T05:58:08.000Z</time>
      </trkpt>
      <trkpt lat="45.79557" lon="6.13365">
        <ele>858</ele>
        <time>2000-01-01T05:58:18.000Z</time>
      </trkpt>
      <trkpt lat="45.79562" lon="6.13375">
        <ele>856.3</ele>
        <time>2000-01-01T05:58:28.000Z</time>
      </trkpt>
      <trkpt lat="45.79572" lon="6.13376">
        <ele>857.4</ele>
        <time>2000-01-01T05:58:38.000Z</time>
      </trkpt>
      <trkpt lat="45.79581" lon="6.13373">
        <ele>859</ele>
        <time>2000-01-01T05:58:48.000Z</time>
      </trkpt>
      <trkpt lat="45.79592" lon="6.13373">
        <ele>858.9</ele>
        <time>2000-01-01T05:58:58.000Z</time>
      </trkpt>
      <trkpt lat="45.79602" lon="6.13371">
        <ele>859</ele>
        <time>2000-01-01T05:59:08.000Z</time>
      </trkpt>
      <trkpt lat="45.79611" lon="6.13368">
        <ele>858.3</ele>
        <time>2000-01-01T05:59:18.000Z</time>
      </trkpt>
      <trkpt lat="45.79619" lon="6.13362">
        <ele>859</ele>
        <time>2000-01-01T05:59:28.000Z</time>
      </trkpt>
      <trkpt lat="45.7963" lon="6.13364">
        <ele>858.5</ele>
        <time>2000-01-01T05:59:38.000Z</time>
      </trkpt>
      <trkpt lat="45.79649" lon="6.13378">
        <ele>856</ele>
        <time>2000-01-01T05:59:48.000Z</time>
      </trkpt>
      <trkpt lat="45.79659" lon="6.13387">
        <ele>852.1</ele>
        <time>2000-01-01T05:59:58.000Z</time>
      </trkpt>
      <trkpt lat="45.79677" lon="6.13398">
        <ele>850</ele>
        <time>2000-01-01T06:00:08.000Z</time>
      </trkpt>
      <trkpt lat="45.79686" lon="6.13399">
        <ele>848</ele>
        <time>2000-01-01T06:00:18.000Z</time>
      </trkpt>
      <trkpt lat="45.79696" lon="6.13394">
        <ele>849</ele>
        <time>2000-01-01T06:00:28.000Z</time>
      </trkpt>
      <trkpt lat="45.79707" lon="6.13395">
        <ele>849.7</ele>
        <time>2000-01-01T06:00:38.000Z</time>
      </trkpt>
      <trkpt lat="45.79717" lon="6.13392">
        <ele>849</ele>
        <time>2000-01-01T06:00:48.000Z</time>
      </trkpt>
      <trkpt lat="45.79727" lon="6.13394">
        <ele>851</ele>
        <time>2000-01-01T06:00:58.000Z</time>
      </trkpt>
      <trkpt lat="45.79737" lon="6.13397">
        <ele>847</ele>
        <time>2000-01-01T06:01:08.000Z</time>
      </trkpt>
      <trkpt lat="45.79747" lon="6.13396">
        <ele>846.8</ele>
        <time>2000-01-01T06:01:18.000Z</time>
      </trkpt>
      <trkpt lat="45.79756" lon="6.13399">
        <ele>846</ele>
        <time>2000-01-01T06:01:28.000Z</time>
      </trkpt>
      <trkpt lat="45.79765" lon="6.13405">
        <ele>843.7</ele>
        <time>2000-01-01T06:01:38.000Z</time>
      </trkpt>
      <trkpt lat="45.79774" lon="6.1341">
        <ele>842</ele>
        <time>2000-01-01T06:01:48.000Z</time>
      </trkpt>
      <trkpt lat="45.79789" lon="6.13428">
        <ele>839</ele>
        <time>2000-01-01T06:01:58.000Z</time>
      </trkpt>
      <trkpt lat="45.79799" lon="6.13436">
        <ele>837.4</ele>
        <time>2000-01-01T06:02:08.000Z</time>
      </trkpt>
      <trkpt lat="45.79806" lon="6.13444">
        <ele>840</ele>
        <time>2000-01-01T06:02:18.000Z</time>
      </trkpt>
      <trkpt lat="45.79816" lon="6.13443">
        <ele>838.2</ele>
        <time>2000-01-01T06:02:28.000Z</time>
      </trkpt>
      <trkpt lat="45.79826" lon="6.13439">
        <ele>841</ele>
        <time>2000-01-01T06:02:38.000Z</time>
      </trkpt>
      <trkpt lat="45.79836" lon="6.13436">
        <ele>842.7</ele>
        <time>2000-01-01T06:02:48.000Z</time>
      </trkpt>
      <trkpt lat="45.79845" lon="6.13431">
        <ele>841</ele>
        <time>2000-01-01T06:02:58.000Z</time>
      </trkpt>
      <trkpt lat="45.79855" lon="6.13432">
        <ele>842.9</ele>
        <time>2000-01-01T06:03:08.000Z</time>
      </trkpt>
      <trkpt lat="45.79864" lon="6.13438">
        <ele>839</ele>
        <time>2000-01-01T06:03:18.000Z</time>
      </trkpt>
      <trkpt lat="45.79883" lon="6.1345">
        <ele>838</ele>
        <time>2000-01-01T06:03:28.000Z</time>
      </trkpt>
      <trkpt lat="45.79897" lon="6.13469">
        <ele>836</ele>
        <time>2000-01-01T06:03:38.000Z</time>
      </trkpt>
      <trkpt lat="45.79915" lon="6.13483">
        <ele>833</ele>
        <time>2000-01-01T06:03:48.000Z</time>
      </trkpt>
      <trkpt lat="45.79924" lon="6.13486">
        <ele>831.7</ele>
        <time>2000-01-01T06:03:58.000Z</time>
      </trkpt>
      <trkpt lat="45.79934" lon="6.13488">
        <ele>831</ele>
        <time>2000-01-01T06:04:08.000Z</time>
      </trkpt>
      <trkpt lat="45.79944" lon="6.13492">
        <ele>828.5</ele>
        <time>2000-01-01T06:04:18.000Z</time>
      </trkpt>
      <trkpt lat="45.79953" lon="6.13499">
        <ele>828</ele>
        <time>2000-01-01T06:04:28.000Z</time>
      </trkpt>
      <trkpt lat="45.79962" lon="6.13503">
        <ele>825.2</ele>
        <time>2000-01-01T06:04:38.000Z</time>
      </trkpt>
      <trkpt lat="45.79971" lon="6.13498">
        <ele>827</ele>
        <time>2000-01-01T06:04:48.000Z</time>
      </trkpt>
      <trkpt lat="45.7998" lon="6.135">
        <ele>824.4</ele>
        <time>2000-01-01T06:04:58.000Z</time>
      </trkpt>
      <trkpt lat="45.7999" lon="6.13508">
        <ele>825</ele>
        <time>2000-01-01T06:05:08.000Z</time>
      </trkpt>
      <trkpt lat="45.79998" lon="6.13518">
        <ele>819.3</ele>
        <time>2000-01-01T06:05:18.000Z</time>
      </trkpt>
      <trkpt lat="45.80008" lon="6.13519">
        <ele>820</ele>
        <time>2000-01-01T06:05:28.000Z</time>
      </trkpt>
      <trkpt lat="45.80017" lon="6.13522">
        <ele>813.4</ele>
        <time>2000-01-01T06:05:38.000Z</time>
      </trkpt>
      <trkpt lat="45.80025" lon="6.13529">
        <ele>812</ele>
        <time>2000-01-01T06:05:48.000Z</time>
      </trkpt>
      <trkpt lat="45.80034" lon="6.13535">
        <ele>808.1</ele>
        <time>2000-01-01T06:05:58.000Z</time>
      </trkpt>
      <trkpt lat="45.80043" lon="6.13545">
        <ele>806</ele>
        <time>2000-01-01T06:06:08.000Z</time>
      </trkpt>
      <trkpt lat="45.80047" lon="6.13557">
        <ele>805.2</ele>
        <time>2000-01-01T06:06:18.000Z</time>
      </trkpt>
      <trkpt lat="45.80053" lon="6.13567">
        <ele>804.1</ele>
        <time>2000-01-01T06:06:28.000Z</time>
      </trkpt>
      <trkpt lat="45.80062" lon="6.13575">
        <ele>804</ele>
        <time>2000-01-01T06:06:38.000Z</time>
      </trkpt>
      <trkpt lat="45.80068" lon="6.13588">
        <ele>801.2</ele>
        <time>2000-01-01T06:06:48.000Z</time>
      </trkpt>
      <trkpt lat="45.80076" lon="6.13596">
        <ele>801</ele>
        <time>2000-01-01T06:06:58.000Z</time>
      </trkpt>
      <trkpt lat="45.80095" lon="6.13627">
        <ele>797</ele>
        <time>2000-01-01T06:07:08.000Z</time>
      </trkpt>
      <trkpt lat="45.80101" lon="6.13636">
        <ele>795.7</ele>
        <time>2000-01-01T06:07:18.000Z</time>
      </trkpt>
      <trkpt lat="45.8011" lon="6.13643">
        <ele>795</ele>
        <time>2000-01-01T06:07:28.000Z</time>
      </trkpt>
      <trkpt lat="45.80118" lon="6.13647">
        <ele>795.1</ele>
        <time>2000-01-01T06:07:38.000Z</time>
      </trkpt>
      <trkpt lat="45.80132" lon="6.1366">
        <ele>793</ele>
        <time>2000-01-01T06:07:48.000Z</time>
      </trkpt>
      <trkpt lat="45.80136" lon="6.13672">
        <ele>792.4</ele>
        <time>2000-01-01T06:07:58.000Z</time>
      </trkpt>
      <trkpt lat="45.80143" lon="6.13683">
        <ele>791</ele>
        <time>2000-01-01T06:08:08.000Z</time>
      </trkpt>
      <trkpt lat="45.80152" lon="6.13688">
        <ele>789.3</ele>
        <time>2000-01-01T06:08:18.000Z</time>
      </trkpt>
      <trkpt lat="45.80161" lon="6.13689">
        <ele>788.2</ele>
        <time>2000-01-01T06:08:28.000Z</time>
      </trkpt>
      <trkpt lat="45.80169" lon="6.13695">
        <ele>788</ele>
        <time>2000-01-01T06:08:38.000Z</time>
      </trkpt>
      <trkpt lat="45.80179" lon="6.13698">
        <ele>785.5</ele>
        <time>2000-01-01T06:08:48.000Z</time>
      </trkpt>
      <trkpt lat="45.80188" lon="6.13702">
        <ele>784</ele>
        <time>2000-01-01T06:08:58.000Z</time>
      </trkpt>
      <trkpt lat="45.80198" lon="6.13701">
        <ele>783.2</ele>
        <time>2000-01-01T06:09:08.000Z</time>
      </trkpt>
      <trkpt lat="45.80208" lon="6.13698">
        <ele>784</ele>
        <time>2000-01-01T06:09:18.000Z</time>
      </trkpt>
      <trkpt lat="45.80219" lon="6.13697">
        <ele>779.7</ele>
        <time>2000-01-01T06:09:28.000Z</time>
      </trkpt>
      <trkpt lat="45.80229" lon="6.1369">
        <ele>780</ele>
        <time>2000-01-01T06:09:38.000Z</time>
      </trkpt>
      <trkpt lat="45.80237" lon="6.13681">
        <ele>776.1</ele>
        <time>2000-01-01T06:09:48.000Z</time>
      </trkpt>
      <trkpt lat="45.80246" lon="6.13678">
        <ele>774</ele>
        <time>2000-01-01T06:09:58.000Z</time>
      </trkpt>
      <trkpt lat="45.80255" lon="6.13674">
        <ele>772.2</ele>
        <time>2000-01-01T06:10:08.000Z</time>
      </trkpt>
      <trkpt lat="45.80263" lon="6.13666">
        <ele>773</ele>
        <time>2000-01-01T06:10:18.000Z</time>
      </trkpt>
      <trkpt lat="45.80269" lon="6.13655">
        <ele>771</ele>
        <time>2000-01-01T06:10:28.000Z</time>
      </trkpt>
      <trkpt lat="45.80278" lon="6.13646">
        <ele>772</ele>
        <time>2000-01-01T06:10:38.000Z</time>
      </trkpt>
      <trkpt lat="45.80288" lon="6.13644">
        <ele>767</ele>
        <time>2000-01-01T06:10:48.000Z</time>
      </trkpt>
      <trkpt lat="45.80297" lon="6.13643">
        <ele>765</ele>
        <time>2000-01-01T06:10:58.000Z</time>
      </trkpt>
      <trkpt lat="45.80307" lon="6.13643">
        <ele>762.4</ele>
        <time>2000-01-01T06:11:08.000Z</time>
      </trkpt>
      <trkpt lat="45.80327" lon="6.13649">
        <ele>761</ele>
        <time>2000-01-01T06:11:18.000Z</time>
      </trkpt>
      <trkpt lat="45.80335" lon="6.13657">
        <ele>757.8</ele>
        <time>2000-01-01T06:11:28.000Z</time>
      </trkpt>
      <trkpt lat="45.80344" lon="6.13653">
        <ele>756</ele>
        <time>2000-01-01T06:11:38.000Z</time>
      </trkpt>
      <trkpt lat="45.80354" lon="6.13655">
        <ele>754.9</ele>
        <time>2000-01-01T06:11:48.000Z</time>
      </trkpt>
      <trkpt lat="45.80364" lon="6.13654">
        <ele>753</ele>
        <time>2000-01-01T06:11:58.000Z</time>
      </trkpt>
      <trkpt lat="45.80374" lon="6.13651">
        <ele>750.7</ele>
        <time>2000-01-01T06:12:08.000Z</time>
      </trkpt>
      <trkpt lat="45.80384" lon="6.13646">
        <ele>752</ele>
        <time>2000-01-01T06:12:18.000Z</time>
      </trkpt>
      <trkpt lat="45.80394" lon="6.13642">
        <ele>746.6</ele>
        <time>2000-01-01T06:12:28.000Z</time>
      </trkpt>
      <trkpt lat="45.80403" lon="6.13646">
        <ele>744</ele>
        <time>2000-01-01T06:12:38.000Z</time>
      </trkpt>
      <trkpt lat="45.80398" lon="6.13657">
        <ele>744.3</ele>
        <time>2000-01-01T06:12:48.000Z</time>
      </trkpt>
      <trkpt lat="45.80405" lon="6.13666">
        <ele>742.2</ele>
        <time>2000-01-01T06:12:58.000Z</time>
      </trkpt>
      <trkpt lat="45.80414" lon="6.13668">
        <ele>742</ele>
        <time>2000-01-01T06:13:08.000Z</time>
      </trkpt>
      <trkpt lat="45.80423" lon="6.13665">
        <ele>738.5</ele>
        <time>2000-01-01T06:13:18.000Z</time>
      </trkpt>
      <trkpt lat="45.80443" lon="6.13666">
        <ele>734</ele>
        <time>2000-01-01T06:13:28.000Z</time>
      </trkpt>
      <trkpt lat="45.80453" lon="6.13665">
        <ele>731.3</ele>
        <time>2000-01-01T06:13:38.000Z</time>
      </trkpt>
      <trkpt lat="45.80463" lon="6.13661">
        <ele>729</ele>
        <time>2000-01-01T06:13:48.000Z</time>
      </trkpt>
      <trkpt lat="45.80473" lon="6.13657">
        <ele>727.2</ele>
        <time>2000-01-01T06:13:58.000Z</time>
      </trkpt>
      <trkpt lat="45.80483" lon="6.13656">
        <ele>725</ele>
        <time>2000-01-01T06:14:08.000Z</time>
      </trkpt>
      <trkpt lat="45.80492" lon="6.13651">
        <ele>724.9</ele>
        <time>2000-01-01T06:14:18.000Z</time>
      </trkpt>
      <trkpt lat="45.80501" lon="6.13651">
        <ele>723.7</ele>
        <time>2000-01-01T06:14:28.000Z</time>
      </trkpt>
      <trkpt lat="45.8051" lon="6.13654">
        <ele>723</ele>
        <time>2000-01-01T06:14:38.000Z</time>
      </trkpt>
      <trkpt lat="45.80519" lon="6.13662">
        <ele>719.2</ele>
        <time>2000-01-01T06:14:48.000Z</time>
      </trkpt>
      <trkpt lat="45.80529" lon="6.13669">
        <ele>719</ele>
        <time>2000-01-01T06:14:58.000Z</time>
      </trkpt>
      <trkpt lat="45.80534" lon="6.1368">
        <ele>715.3</ele>
        <time>2000-01-01T06:15:08.000Z</time>
      </trkpt>
      <trkpt lat="45.80537" lon="6.13692">
        <ele>713.6</ele>
        <time>2000-01-01T06:15:18.000Z</time>
      </trkpt>
      <trkpt lat="45.80544" lon="6.13721">
        <ele>709</ele>
        <time>2000-01-01T06:15:28.000Z</time>
      </trkpt>
      <trkpt lat="45.80547" lon="6.13736">
        <ele>707.2</ele>
        <time>2000-01-01T06:15:38.000Z</time>
      </trkpt>
      <trkpt lat="45.80555" lon="6.13744">
        <ele>706</ele>
        <time>2000-01-01T06:15:48.000Z</time>
      </trkpt>
      <trkpt lat="45.80564" lon="6.13741">
        <ele>704</ele>
        <time>2000-01-01T06:15:58.000Z</time>
      </trkpt>
      <trkpt lat="45.80584" lon="6.13738">
        <ele>702</ele>
        <time>2000-01-01T06:16:08.000Z</time>
      </trkpt>
      <trkpt lat="45.80601" lon="6.13759">
        <ele>696</ele>
        <time>2000-01-01T06:16:18.000Z</time>
      </trkpt>
      <trkpt lat="45.80611" lon="6.13765">
        <ele>693.4</ele>
        <time>2000-01-01T06:16:28.000Z</time>
      </trkpt>
      <trkpt lat="45.80612" lon="6.13779">
        <ele>693</ele>
        <time>2000-01-01T06:16:38.000Z</time>
      </trkpt>
      <trkpt lat="45.80611" lon="6.13794">
        <ele>690.8</ele>
        <time>2000-01-01T06:16:48.000Z</time>
      </trkpt>
      <trkpt lat="45.80604" lon="6.13803">
        <ele>691</ele>
        <time>2000-01-01T06:16:58.000Z</time>
      </trkpt>
      <trkpt lat="45.80599" lon="6.13814">
        <ele>690.4</ele>
        <time>2000-01-01T06:17:08.000Z</time>
      </trkpt>
      <trkpt lat="45.80602" lon="6.13827">
        <ele>689</ele>
        <time>2000-01-01T06:17:18.000Z</time>
      </trkpt>
      <trkpt lat="45.80603" lon="6.1384">
        <ele>687</ele>
        <time>2000-01-01T06:17:28.000Z</time>
      </trkpt>
      <trkpt lat="45.80609" lon="6.13851">
        <ele>687</ele>
        <time>2000-01-01T06:17:38.000Z</time>
      </trkpt>
      <trkpt lat="45.80619" lon="6.13854">
        <ele>683.6</ele>
        <time>2000-01-01T06:17:48.000Z</time>
      </trkpt>
      <trkpt lat="45.80626" lon="6.13866">
        <ele>683</ele>
        <time>2000-01-01T06:17:58.000Z</time>
      </trkpt>
      <trkpt lat="45.80627" lon="6.13879">
        <ele>679</ele>
        <time>2000-01-01T06:18:08.000Z</time>
      </trkpt>
      <trkpt lat="45.80628" lon="6.13906">
        <ele>677</ele>
        <time>2000-01-01T06:18:18.000Z</time>
      </trkpt>
      <trkpt lat="45.80629" lon="6.13921">
        <ele>673.2</ele>
        <time>2000-01-01T06:18:28.000Z</time>
      </trkpt>
      <trkpt lat="45.80634" lon="6.13932">
        <ele>673</ele>
        <time>2000-01-01T06:18:38.000Z</time>
      </trkpt>
      <trkpt lat="45.80639" lon="6.13944">
        <ele>671</ele>
        <time>2000-01-01T06:18:48.000Z</time>
      </trkpt>
      <trkpt lat="45.80645" lon="6.13957">
        <ele>670</ele>
        <time>2000-01-01T06:18:58.000Z</time>
      </trkpt>
      <trkpt lat="45.80651" lon="6.13967">
        <ele>666.7</ele>
        <time>2000-01-01T06:19:08.000Z</time>
      </trkpt>
      <trkpt lat="45.80652" lon="6.1398">
        <ele>664.5</ele>
        <time>2000-01-01T06:19:18.000Z</time>
      </trkpt>
      <trkpt lat="45.80656" lon="6.13992">
        <ele>665</ele>
        <time>2000-01-01T06:19:28.000Z</time>
      </trkpt>
      <trkpt lat="45.8066" lon="6.14004">
        <ele>660.8</ele>
        <time>2000-01-01T06:19:38.000Z</time>
      </trkpt>
      <trkpt lat="45.80668" lon="6.14013">
        <ele>661</ele>
        <time>2000-01-01T06:19:48.000Z</time>
      </trkpt>
      <trkpt lat="45.80678" lon="6.14012">
        <ele>659</ele>
        <time>2000-01-01T06:19:58.000Z</time>
      </trkpt>
      <trkpt lat="45.80679" lon="6.14025">
        <ele>657.4</ele>
        <time>2000-01-01T06:20:08.000Z</time>
      </trkpt>
      <trkpt lat="45.80676" lon="6.14038">
        <ele>657</ele>
        <time>2000-01-01T06:20:18.000Z</time>
      </trkpt>
      <trkpt lat="45.8067" lon="6.14051">
        <ele>654.6</ele>
        <time>2000-01-01T06:20:28.000Z</time>
      </trkpt>
      <trkpt lat="45.80662" lon="6.14059">
        <ele>653</ele>
        <time>2000-01-01T06:20:38.000Z</time>
      </trkpt>
      <trkpt lat="45.80654" lon="6.14066">
        <ele>653.8</ele>
        <time>2000-01-01T06:20:48.000Z</time>
      </trkpt>
      <trkpt lat="45.80641" lon="6.14086">
        <ele>653</ele>
        <time>2000-01-01T06:20:58.000Z</time>
      </trkpt>
      <trkpt lat="45.80633" lon="6.14092">
        <ele>654.8</ele>
        <time>2000-01-01T06:21:08.000Z</time>
      </trkpt>
      <trkpt lat="45.80624" lon="6.14096">
        <ele>656.4</ele>
        <time>2000-01-01T06:21:18.000Z</time>
      </trkpt>
      <trkpt lat="45.80604" lon="6.14104">
        <ele>656</ele>
        <time>2000-01-01T06:21:28.000Z</time>
      </trkpt>
      <trkpt lat="45.80594" lon="6.14104">
        <ele>659.2</ele>
        <time>2000-01-01T06:21:38.000Z</time>
      </trkpt>
      <trkpt lat="45.80554" lon="6.14117">
        <ele>662</ele>
        <time>2000-01-01T06:21:48.000Z</time>
      </trkpt>
      <trkpt lat="45.80545" lon="6.14122">
        <ele>663.4</ele>
        <time>2000-01-01T06:21:58.000Z</time>
      </trkpt>
      <trkpt lat="45.80529" lon="6.14139">
        <ele>664</ele>
        <time>2000-01-01T06:22:08.000Z</time>
      </trkpt>
      <trkpt lat="45.8052" lon="6.14146">
        <ele>665.2</ele>
        <time>2000-01-01T06:22:18.000Z</time>
      </trkpt>
      <trkpt lat="45.8051" lon="6.14147">
        <ele>666</ele>
        <time>2000-01-01T06:22:28.000Z</time>
      </trkpt>
      <trkpt lat="45.80501" lon="6.1415">
        <ele>667.6</ele>
        <time>2000-01-01T06:22:38.000Z</time>
      </trkpt>
      <trkpt lat="45.80492" lon="6.14154">
        <ele>669.6</ele>
        <time>2000-01-01T06:22:48.000Z</time>
      </trkpt>
      <trkpt lat="45.80484" lon="6.14162">
        <ele>671</ele>
        <time>2000-01-01T06:22:58.000Z</time>
      </trkpt>
      <trkpt lat="45.80473" lon="6.14168">
        <ele>670.6</ele>
        <time>2000-01-01T06:23:08.000Z</time>
      </trkpt>
      <trkpt lat="45.80462" lon="6.14165">
        <ele>675</ele>
        <time>2000-01-01T06:23:18.000Z</time>
      </trkpt>
      <trkpt lat="45.80451" lon="6.14167">
        <ele>674.8</ele>
        <time>2000-01-01T06:23:28.000Z</time>
      </trkpt>
      <trkpt lat="45.80432" lon="6.14169">
        <ele>678</ele>
        <time>2000-01-01T06:23:38.000Z</time>
      </trkpt>
      <trkpt lat="45.80421" lon="6.14171">
        <ele>677.5</ele>
        <time>2000-01-01T06:23:48.000Z</time>
      </trkpt>
      <trkpt lat="45.80409" lon="6.14167">
        <ele>682</ele>
        <time>2000-01-01T06:23:58.000Z</time>
      </trkpt>
      <trkpt lat="45.804" lon="6.14165">
        <ele>681.2</ele>
        <time>2000-01-01T06:24:08.000Z</time>
      </trkpt>
      <trkpt lat="45.80377" lon="6.14159">
        <ele>688</ele>
        <time>2000-01-01T06:24:18.000Z</time>
      </trkpt>
      <trkpt lat="45.80346" lon="6.14148">
        <ele>688</ele>
        <time>2000-01-01T06:24:28.000Z</time>
      </trkpt>
      <trkpt lat="45.80337" lon="6.14147">
        <ele>690.7</ele>
        <time>2000-01-01T06:24:38.000Z</time>
      </trkpt>
      <trkpt lat="45.80313" lon="6.14152">
        <ele>688</ele>
        <time>2000-01-01T06:24:48.000Z</time>
      </trkpt>
      <trkpt lat="45.80293" lon="6.14161">
        <ele>688</ele>
        <time>2000-01-01T06:24:58.000Z</time>
      </trkpt>
      <trkpt lat="45.80275" lon="6.14173">
        <ele>690</ele>
        <time>2000-01-01T06:25:08.000Z</time>
      </trkpt>
      <trkpt lat="45.80265" lon="6.14174">
        <ele>690.9</ele>
        <time>2000-01-01T06:25:18.000Z</time>
      </trkpt>
      <trkpt lat="45.80255" lon="6.14173">
        <ele>692</ele>
        <time>2000-01-01T06:25:28.000Z</time>
      </trkpt>
      <trkpt lat="45.80245" lon="6.14169">
        <ele>692.9</ele>
        <time>2000-01-01T06:25:38.000Z</time>
      </trkpt>
      <trkpt lat="45.8022" lon="6.14156">
        <ele>695</ele>
        <time>2000-01-01T06:25:48.000Z</time>
      </trkpt>
      <trkpt lat="45.80198" lon="6.14161">
        <ele>700</ele>
        <time>2000-01-01T06:25:58.000Z</time>
      </trkpt>
      <trkpt lat="45.8019" lon="6.14166">
        <ele>699.4</ele>
        <time>2000-01-01T06:26:08.000Z</time>
      </trkpt>
      <trkpt lat="45.80158" lon="6.14175">
        <ele>702</ele>
        <time>2000-01-01T06:26:18.000Z</time>
      </trkpt>
      <trkpt lat="45.80148" lon="6.14181">
        <ele>702</ele>
        <time>2000-01-01T06:26:28.000Z</time>
      </trkpt>
      <trkpt lat="45.80137" lon="6.14183">
        <ele>703</ele>
        <time>2000-01-01T06:26:38.000Z</time>
      </trkpt>
      <trkpt lat="45.80126" lon="6.14183">
        <ele>702.1</ele>
        <time>2000-01-01T06:26:48.000Z</time>
      </trkpt>
      <trkpt lat="45.80116" lon="6.14182">
        <ele>703</ele>
        <time>2000-01-01T06:26:58.000Z</time>
      </trkpt>
      <trkpt lat="45.80105" lon="6.14178">
        <ele>702.2</ele>
        <time>2000-01-01T06:27:08.000Z</time>
      </trkpt>
      <trkpt lat="45.80095" lon="6.14172">
        <ele>700</ele>
        <time>2000-01-01T06:27:18.000Z</time>
      </trkpt>
      <trkpt lat="45.80085" lon="6.14172">
        <ele>702.4</ele>
        <time>2000-01-01T06:27:28.000Z</time>
      </trkpt>
      <trkpt lat="45.80077" lon="6.14165">
        <ele>698</ele>
        <time>2000-01-01T06:27:38.000Z</time>
      </trkpt>
      <trkpt lat="45.80071" lon="6.14154">
        <ele>696.7</ele>
        <time>2000-01-01T06:27:48.000Z</time>
      </trkpt>
      <trkpt lat="45.80069" lon="6.14127">
        <ele>691</ele>
        <time>2000-01-01T06:27:58.000Z</time>
      </trkpt>
      <trkpt lat="45.80066" lon="6.14114">
        <ele>695</ele>
        <time>2000-01-01T06:28:08.000Z</time>
      </trkpt>
      <trkpt lat="45.80059" lon="6.14104">
        <ele>691</ele>
        <time>2000-01-01T06:28:18.000Z</time>
      </trkpt>
      <trkpt lat="45.80049" lon="6.14096">
        <ele>696.2</ele>
        <time>2000-01-01T06:28:28.000Z</time>
      </trkpt>
      <trkpt lat="45.80039" lon="6.14095">
        <ele>694</ele>
        <time>2000-01-01T06:28:38.000Z</time>
      </trkpt>
      <trkpt lat="45.80021" lon="6.1411">
        <ele>698</ele>
        <time>2000-01-01T06:28:48.000Z</time>
      </trkpt>
      <trkpt lat="45.80012" lon="6.14112">
        <ele>698.7</ele>
        <time>2000-01-01T06:28:58.000Z</time>
      </trkpt>
      <trkpt lat="45.80006" lon="6.14102">
        <ele>701.8</ele>
        <time>2000-01-01T06:29:08.000Z</time>
      </trkpt>
      <trkpt lat="45.79992" lon="6.14076">
        <ele>700</ele>
        <time>2000-01-01T06:29:18.000Z</time>
      </trkpt>
      <trkpt lat="45.79983" lon="6.1407">
        <ele>703.6</ele>
        <time>2000-01-01T06:29:28.000Z</time>
      </trkpt>
      <trkpt lat="45.79972" lon="6.14066">
        <ele>699</ele>
        <time>2000-01-01T06:29:38.000Z</time>
      </trkpt>
      <trkpt lat="45.79963" lon="6.14061">
        <ele>701</ele>
        <time>2000-01-01T06:29:48.000Z</time>
      </trkpt>
      <trkpt lat="45.79952" lon="6.14059">
        <ele>699</ele>
        <time>2000-01-01T06:29:58.000Z</time>
      </trkpt>
      <trkpt lat="45.79942" lon="6.14055">
        <ele>698.3</ele>
        <time>2000-01-01T06:30:08.000Z</time>
      </trkpt>
      <trkpt lat="45.79921" lon="6.14055">
        <ele>700</ele>
        <time>2000-01-01T06:30:18.000Z</time>
      </trkpt>
      <trkpt lat="45.79898" lon="6.14062">
        <ele>704</ele>
        <time>2000-01-01T06:30:28.000Z</time>
      </trkpt>
      <trkpt lat="45.79891" lon="6.14071">
        <ele>702.3</ele>
        <time>2000-01-01T06:30:38.000Z</time>
      </trkpt>
      <trkpt lat="45.79885" lon="6.14082">
        <ele>704</ele>
        <time>2000-01-01T06:30:48.000Z</time>
      </trkpt>
      <trkpt lat="45.79883" lon="6.14112">
        <ele>704</ele>
        <time>2000-01-01T06:30:58.000Z</time>
      </trkpt>
      <trkpt lat="45.79881" lon="6.14128">
        <ele>704.1</ele>
        <time>2000-01-01T06:31:08.000Z</time>
      </trkpt>
      <trkpt lat="45.79877" lon="6.14142">
        <ele>705</ele>
        <time>2000-01-01T06:31:18.000Z</time>
      </trkpt>
      <trkpt lat="45.79869" lon="6.14151">
        <ele>704.7</ele>
        <time>2000-01-01T06:31:28.000Z</time>
      </trkpt>
      <trkpt lat="45.79861" lon="6.14155">
        <ele>706</ele>
        <time>2000-01-01T06:31:38.000Z</time>
      </trkpt>
      <trkpt lat="45.79849" lon="6.14156">
        <ele>704.3</ele>
        <time>2000-01-01T06:31:48.000Z</time>
      </trkpt>
      <trkpt lat="45.79829" lon="6.14148">
        <ele>706</ele>
        <time>2000-01-01T06:31:58.000Z</time>
      </trkpt>
      <trkpt lat="45.79819" lon="6.1415">
        <ele>703.9</ele>
        <time>2000-01-01T06:32:08.000Z</time>
      </trkpt>
      <trkpt lat="45.79808" lon="6.1415">
        <ele>697</ele>
        <time>2000-01-01T06:32:18.000Z</time>
      </trkpt>
      <trkpt lat="45.79798" lon="6.14154">
        <ele>698.8</ele>
        <time>2000-01-01T06:32:28.000Z</time>
      </trkpt>
      <trkpt lat="45.7979" lon="6.14162">
        <ele>694</ele>
        <time>2000-01-01T06:32:38.000Z</time>
      </trkpt>
      <trkpt lat="45.79781" lon="6.14164">
        <ele>690.8</ele>
        <time>2000-01-01T06:32:48.000Z</time>
      </trkpt>
      <trkpt lat="45.79778" lon="6.14151">
        <ele>693</ele>
        <time>2000-01-01T06:32:58.000Z</time>
      </trkpt>
      <trkpt lat="45.79772" lon="6.14142">
        <ele>695.4</ele>
        <time>2000-01-01T06:33:08.000Z</time>
      </trkpt>
      <trkpt lat="45.79762" lon="6.14142">
        <ele>695.8</ele>
        <time>2000-01-01T06:33:18.000Z</time>
      </trkpt>
      <trkpt lat="45.79758" lon="6.14156">
        <ele>693</ele>
        <time>2000-01-01T06:33:28.000Z</time>
      </trkpt>
      <trkpt lat="45.7976" lon="6.1417">
        <ele>688.9</ele>
        <time>2000-01-01T06:33:38.000Z</time>
      </trkpt>
      <trkpt lat="45.79755" lon="6.14182">
        <ele>687</ele>
        <time>2000-01-01T06:33:48.000Z</time>
      </trkpt>
      <trkpt lat="45.79746" lon="6.14181">
        <ele>685.8</ele>
        <time>2000-01-01T06:33:58.000Z</time>
      </trkpt>
      <trkpt lat="45.79737" lon="6.14178">
        <ele>684.7</ele>
        <time>2000-01-01T06:34:08.000Z</time>
      </trkpt>
      <trkpt lat="45.79727" lon="6.1418">
        <ele>686</ele>
        <time>2000-01-01T06:34:18.000Z</time>
      </trkpt>
      <trkpt lat="45.79717" lon="6.14185">
        <ele>683.7</ele>
        <time>2000-01-01T06:34:28.000Z</time>
      </trkpt>
      <trkpt lat="45.7972" lon="6.14198">
        <ele>686</ele>
        <time>2000-01-01T06:34:38.000Z</time>
      </trkpt>
      <trkpt lat="45.79727" lon="6.14225">
        <ele>681</ele>
        <time>2000-01-01T06:34:48.000Z</time>
      </trkpt>
      <trkpt lat="45.79726" lon="6.14238">
        <ele>676.8</ele>
        <time>2000-01-01T06:34:58.000Z</time>
      </trkpt>
      <trkpt lat="45.79716" lon="6.14262">
        <ele>676</ele>
        <time>2000-01-01T06:35:08.000Z</time>
      </trkpt>
      <trkpt lat="45.797" lon="6.14279">
        <ele>672</ele>
        <time>2000-01-01T06:35:18.000Z</time>
      </trkpt>
      <trkpt lat="45.79692" lon="6.14282">
        <ele>667</ele>
        <time>2000-01-01T06:35:28.000Z</time>
      </trkpt>
      <trkpt lat="45.79683" lon="6.1429">
        <ele>664</ele>
        <time>2000-01-01T06:35:38.000Z</time>
      </trkpt>
      <trkpt lat="45.79673" lon="6.14293">
        <ele>661.7</ele>
        <time>2000-01-01T06:35:48.000Z</time>
      </trkpt>
      <trkpt lat="45.79655" lon="6.14303">
        <ele>659</ele>
        <time>2000-01-01T06:35:58.000Z</time>
      </trkpt>
      <trkpt lat="45.79645" lon="6.14298">
        <ele>655.9</ele>
        <time>2000-01-01T06:36:08.000Z</time>
      </trkpt>
      <trkpt lat="45.79638" lon="6.14287">
        <ele>659</ele>
        <time>2000-01-01T06:36:18.000Z</time>
      </trkpt>
      <trkpt lat="45.7963" lon="6.14278">
        <ele>659.6</ele>
        <time>2000-01-01T06:36:28.000Z</time>
      </trkpt>
      <trkpt lat="45.79622" lon="6.14272">
        <ele>659</ele>
        <time>2000-01-01T06:36:38.000Z</time>
      </trkpt>
      <trkpt lat="45.79615" lon="6.14262">
        <ele>662.2</ele>
        <time>2000-01-01T06:36:48.000Z</time>
      </trkpt>
      <trkpt lat="45.79605" lon="6.14257">
        <ele>659</ele>
        <time>2000-01-01T06:36:58.000Z</time>
      </trkpt>
      <trkpt lat="45.79589" lon="6.14273">
        <ele>665</ele>
        <time>2000-01-01T06:37:08.000Z</time>
      </trkpt>
      <trkpt lat="45.79576" lon="6.14279">
        <ele>670.3</ele>
        <time>2000-01-01T06:37:18.000Z</time>
      </trkpt>
      <trkpt lat="45.79566" lon="6.14287">
        <ele>673</ele>
        <time>2000-01-01T06:37:28.000Z</time>
      </trkpt>
      <trkpt lat="45.79556" lon="6.14292">
        <ele>676.1</ele>
        <time>2000-01-01T06:37:38.000Z</time>
      </trkpt>
      <trkpt lat="45.79547" lon="6.14299">
        <ele>675</ele>
        <time>2000-01-01T06:37:48.000Z</time>
      </trkpt>
      <trkpt lat="45.7954" lon="6.14309">
        <ele>680.9</ele>
        <time>2000-01-01T06:37:58.000Z</time>
      </trkpt>
      <trkpt lat="45.79523" lon="6.14327">
        <ele>683</ele>
        <time>2000-01-01T06:38:08.000Z</time>
      </trkpt>
      <trkpt lat="45.79514" lon="6.1435">
        <ele>687</ele>
        <time>2000-01-01T06:38:18.000Z</time>
      </trkpt>
      <trkpt lat="45.79508" lon="6.1436">
        <ele>691.5</ele>
        <time>2000-01-01T06:38:28.000Z</time>
      </trkpt>
      <trkpt lat="45.79504" lon="6.14375">
        <ele>689</ele>
        <time>2000-01-01T06:38:38.000Z</time>
      </trkpt>
      <trkpt lat="45.79511" lon="6.14366">
        <ele>692.4</ele>
        <time>2000-01-01T06:38:48.000Z</time>
      </trkpt>
      <trkpt lat="45.79522" lon="6.14367">
        <ele>691</ele>
        <time>2000-01-01T06:38:58.000Z</time>
      </trkpt>
      <trkpt lat="45.79542" lon="6.14366">
        <ele>692</ele>
        <time>2000-01-01T06:39:08.000Z</time>
      </trkpt>
      <trkpt lat="45.79551" lon="6.14367">
        <ele>696.6</ele>
        <time>2000-01-01T06:39:18.000Z</time>
      </trkpt>
      <trkpt lat="45.79561" lon="6.1437">
        <ele>698</ele>
        <time>2000-01-01T06:39:28.000Z</time>
      </trkpt>
      <trkpt lat="45.79571" lon="6.14368">
        <ele>699.4</ele>
        <time>2000-01-01T06:39:38.000Z</time>
      </trkpt>
      <trkpt lat="45.79581" lon="6.14373">
        <ele>702</ele>
        <time>2000-01-01T06:39:48.000Z</time>
      </trkpt>
      <trkpt lat="45.79606" lon="6.14395">
        <ele>707</ele>
        <time>2000-01-01T06:39:58.000Z</time>
      </trkpt>
      <trkpt lat="45.79625" lon="6.14409">
        <ele>709</ele>
        <time>2000-01-01T06:40:08.000Z</time>
      </trkpt>
      <trkpt lat="45.79633" lon="6.1442">
        <ele>712.8</ele>
        <time>2000-01-01T06:40:18.000Z</time>
      </trkpt>
      <trkpt lat="45.79637" lon="6.14434">
        <ele>714</ele>
        <time>2000-01-01T06:40:28.000Z</time>
      </trkpt>
      <trkpt lat="45.79641" lon="6.14447">
        <ele>716.8</ele>
        <time>2000-01-01T06:40:38.000Z</time>
      </trkpt>
      <trkpt lat="45.79644" lon="6.14461">
        <ele>719</ele>
        <time>2000-01-01T06:40:48.000Z</time>
      </trkpt>
      <trkpt lat="45.79643" lon="6.14475">
        <ele>720.1</ele>
        <time>2000-01-01T06:40:58.000Z</time>
      </trkpt>
      <trkpt lat="45.79642" lon="6.14491">
        <ele>722</ele>
        <time>2000-01-01T06:41:08.000Z</time>
      </trkpt>
      <trkpt lat="45.79638" lon="6.14506">
        <ele>722.1</ele>
        <time>2000-01-01T06:41:18.000Z</time>
      </trkpt>
      <trkpt lat="45.79635" lon="6.1452">
        <ele>722</ele>
        <time>2000-01-01T06:41:28.000Z</time>
      </trkpt>
      <trkpt lat="45.79635" lon="6.14535">
        <ele>722.1</ele>
        <time>2000-01-01T06:41:38.000Z</time>
      </trkpt>
      <trkpt lat="45.79634" lon="6.14551">
        <ele>722</ele>
        <time>2000-01-01T06:41:48.000Z</time>
      </trkpt>
      <trkpt lat="45.7963" lon="6.14564">
        <ele>721.9</ele>
        <time>2000-01-01T06:41:58.000Z</time>
      </trkpt>
      <trkpt lat="45.79627" lon="6.14577">
        <ele>722</ele>
        <time>2000-01-01T06:42:08.000Z</time>
      </trkpt>
      <trkpt lat="45.79629" lon="6.14611">
        <ele>722</ele>
        <time>2000-01-01T06:42:18.000Z</time>
      </trkpt>
      <trkpt lat="45.79631" lon="6.14645">
        <ele>722</ele>
        <time>2000-01-01T06:42:28.000Z</time>
      </trkpt>
      <trkpt lat="45.79636" lon="6.1467">
        <ele>721.3</ele>
        <time>2000-01-01T06:42:38.000Z</time>
      </trkpt>
      <trkpt lat="45.79635" lon="6.1468">
        <ele>722</ele>
        <time>2000-01-01T06:42:48.000Z</time>
      </trkpt>
      <trkpt lat="45.79634" lon="6.14688">
        <ele>720.9</ele>
        <time>2000-01-01T06:42:58.000Z</time>
      </trkpt>
      <trkpt lat="45.79631" lon="6.14694">
        <ele>721.2</ele>
        <time>2000-01-01T06:43:08.000Z</time>
      </trkpt>
      <trkpt lat="45.79631" lon="6.14697">
        <ele>721.3</ele>
        <time>2000-01-01T06:43:18.000Z</time>
      </trkpt>
      <trkpt lat="45.79622" lon="6.14724">
        <ele>722</ele>
        <time>2000-01-01T06:43:28.000Z</time>
      </trkpt>
      <trkpt lat="45.79617" lon="6.14737">
        <ele>723.9</ele>
        <time>2000-01-01T06:43:38.000Z</time>
      </trkpt>
      <trkpt lat="45.79613" lon="6.1475">
        <ele>722</ele>
        <time>2000-01-01T06:43:48.000Z</time>
      </trkpt>
      <trkpt lat="45.79613" lon="6.14763">
        <ele>724.9</ele>
        <time>2000-01-01T06:43:58.000Z</time>
      </trkpt>
      <trkpt lat="45.79617" lon="6.14779">
        <ele>725</ele>
        <time>2000-01-01T06:44:08.000Z</time>
      </trkpt>
      <trkpt lat="45.79621" lon="6.14791">
        <ele>726</ele>
        <time>2000-01-01T06:44:18.000Z</time>
      </trkpt>
      <trkpt lat="45.79628" lon="6.14804">
        <ele>726</ele>
        <time>2000-01-01T06:44:28.000Z</time>
      </trkpt>
      <trkpt lat="45.79626" lon="6.14819">
        <ele>726.4</ele>
        <time>2000-01-01T06:44:38.000Z</time>
      </trkpt>
      <trkpt lat="45.79615" lon="6.14842">
        <ele>727</ele>
        <time>2000-01-01T06:44:48.000Z</time>
      </trkpt>
      <trkpt lat="45.79607" lon="6.14851">
        <ele>728.4</ele>
        <time>2000-01-01T06:44:58.000Z</time>
      </trkpt>
      <trkpt lat="45.79604" lon="6.14854">
        <ele>728.8</ele>
        <time>2000-01-01T06:45:08.000Z</time>
      </trkpt>
      <trkpt lat="45.79603" lon="6.14857">
        <ele>728.9</ele>
        <time>2000-01-01T06:45:18.000Z</time>
      </trkpt>
      <trkpt lat="45.79601" lon="6.14856">
        <ele>729.1</ele>
        <time>2000-01-01T06:45:28.000Z</time>
      </trkpt>
      <trkpt lat="45.79596" lon="6.14854">
        <ele>730</ele>
        <time>2000-01-01T06:45:38.000Z</time>
      </trkpt>
      <trkpt lat="45.79594" lon="6.14855">
        <ele>729.8</ele>
        <time>2000-01-01T06:45:48.000Z</time>
      </trkpt>
      <trkpt lat="45.79586" lon="6.1485">
        <ele>730.7</ele>
        <time>2000-01-01T06:45:58.000Z</time>
      </trkpt>
      <trkpt lat="45.79576" lon="6.14845">
        <ele>732</ele>
        <time>2000-01-01T06:46:08.000Z</time>
      </trkpt>
      <trkpt lat="45.79565" lon="6.14842">
        <ele>732.5</ele>
        <time>2000-01-01T06:46:18.000Z</time>
      </trkpt>
      <trkpt lat="45.79559" lon="6.14844">
        <ele>733.1</ele>
        <time>2000-01-01T06:46:28.000Z</time>
      </trkpt>
      <trkpt lat="45.7955" lon="6.14849">
        <ele>735</ele>
        <time>2000-01-01T06:46:38.000Z</time>
      </trkpt>
      <trkpt lat="45.79533" lon="6.14845">
        <ele>735.6</ele>
        <time>2000-01-01T06:46:48.000Z</time>
      </trkpt>
      <trkpt lat="45.79483" lon="6.14849">
        <ele>741</ele>
        <time>2000-01-01T06:46:58.000Z</time>
      </trkpt>
      <trkpt lat="45.79472" lon="6.14851">
        <ele>738</ele>
        <time>2000-01-01T06:47:08.000Z</time>
      </trkpt>
      <trkpt lat="45.79462" lon="6.14852">
        <ele>743</ele>
        <time>2000-01-01T06:47:18.000Z</time>
      </trkpt>
      <trkpt lat="45.79452" lon="6.14854">
        <ele>742.1</ele>
        <time>2000-01-01T06:47:28.000Z</time>
      </trkpt>
      <trkpt lat="45.79442" lon="6.14855">
        <ele>747</ele>
        <time>2000-01-01T06:47:38.000Z</time>
      </trkpt>
      <trkpt lat="45.79423" lon="6.1486">
        <ele>749</ele>
        <time>2000-01-01T06:47:48.000Z</time>
      </trkpt>
      <trkpt lat="45.79404" lon="6.1487">
        <ele>752</ele>
        <time>2000-01-01T06:47:58.000Z</time>
      </trkpt>
      <trkpt lat="45.79394" lon="6.14872">
        <ele>751.4</ele>
        <time>2000-01-01T06:48:08.000Z</time>
      </trkpt>
      <trkpt lat="45.79383" lon="6.14877">
        <ele>756</ele>
        <time>2000-01-01T06:48:18.000Z</time>
      </trkpt>
      <trkpt lat="45.79372" lon="6.14879">
        <ele>756.2</ele>
        <time>2000-01-01T06:48:28.000Z</time>
      </trkpt>
      <trkpt lat="45.79363" lon="6.14876">
        <ele>760</ele>
        <time>2000-01-01T06:48:38.000Z</time>
      </trkpt>
      <trkpt lat="45.79352" lon="6.14877">
        <ele>760.9</ele>
        <time>2000-01-01T06:48:48.000Z</time>
      </trkpt>
      <trkpt lat="45.79342" lon="6.14875">
        <ele>763</ele>
        <time>2000-01-01T06:48:58.000Z</time>
      </trkpt>
      <trkpt lat="45.79332" lon="6.1487">
        <ele>763.2</ele>
        <time>2000-01-01T06:49:08.000Z</time>
      </trkpt>
      <trkpt lat="45.79323" lon="6.14867">
        <ele>765</ele>
        <time>2000-01-01T06:49:18.000Z</time>
      </trkpt>
      <trkpt lat="45.79304" lon="6.14866">
        <ele>767.3</ele>
        <time>2000-01-01T06:49:28.000Z</time>
      </trkpt>
      <trkpt lat="45.79295" lon="6.14867">
        <ele>768</ele>
        <time>2000-01-01T06:49:38.000Z</time>
      </trkpt>
      <trkpt lat="45.79287" lon="6.14873">
        <ele>769.4</ele>
        <time>2000-01-01T06:49:48.000Z</time>
      </trkpt>
      <trkpt lat="45.79271" lon="6.14891">
        <ele>771</ele>
        <time>2000-01-01T06:49:58.000Z</time>
      </trkpt>
      <trkpt lat="45.79263" lon="6.14905">
        <ele>772.5</ele>
        <time>2000-01-01T06:50:08.000Z</time>
      </trkpt>
      <trkpt lat="45.79258" lon="6.14914">
        <ele>773</ele>
        <time>2000-01-01T06:50:18.000Z</time>
      </trkpt>
      <trkpt lat="45.79254" lon="6.14925">
        <ele>773.6</ele>
        <time>2000-01-01T06:50:28.000Z</time>
      </trkpt>
      <trkpt lat="45.79253" lon="6.14929">
        <ele>773.9</ele>
        <time>2000-01-01T06:50:38.000Z</time>
      </trkpt>
      <trkpt lat="45.79254" lon="6.14951">
        <ele>775</ele>
        <time>2000-01-01T06:50:48.000Z</time>
      </trkpt>
      <trkpt lat="45.79251" lon="6.14963">
        <ele>775.4</ele>
        <time>2000-01-01T06:50:58.000Z</time>
      </trkpt>
      <trkpt lat="45.79249" lon="6.14973">
        <ele>776.1</ele>
        <time>2000-01-01T06:51:08.000Z</time>
      </trkpt>
      <trkpt lat="45.79242" lon="6.1499">
        <ele>776</ele>
        <time>2000-01-01T06:51:18.000Z</time>
      </trkpt>
      <trkpt lat="45.79231" lon="6.15012">
        <ele>778</ele>
        <time>2000-01-01T06:51:28.000Z</time>
      </trkpt>
      <trkpt lat="45.79224" lon="6.15039">
        <ele>780</ele>
        <time>2000-01-01T06:51:38.000Z</time>
      </trkpt>
      <trkpt lat="45.79218" lon="6.15051">
        <ele>779.5</ele>
        <time>2000-01-01T06:51:48.000Z</time>
      </trkpt>
      <trkpt lat="45.79208" lon="6.15075">
        <ele>783</ele>
        <time>2000-01-01T06:51:58.000Z</time>
      </trkpt>
      <trkpt lat="45.79195" lon="6.15098">
        <ele>781</ele>
        <time>2000-01-01T06:52:08.000Z</time>
      </trkpt>
      <trkpt lat="45.79189" lon="6.15109">
        <ele>780.7</ele>
        <time>2000-01-01T06:52:18.000Z</time>
      </trkpt>
      <trkpt lat="45.79182" lon="6.1512">
        <ele>784</ele>
        <time>2000-01-01T06:52:28.000Z</time>
      </trkpt>
      <trkpt lat="45.79174" lon="6.15131">
        <ele>781.4</ele>
        <time>2000-01-01T06:52:38.000Z</time>
      </trkpt>
      <trkpt lat="45.79166" lon="6.1514">
        <ele>785</ele>
        <time>2000-01-01T06:52:48.000Z</time>
      </trkpt>
      <trkpt lat="45.79159" lon="6.1515">
        <ele>784.2</ele>
        <time>2000-01-01T06:52:58.000Z</time>
      </trkpt>
      <trkpt lat="45.79153" lon="6.15164">
        <ele>784</ele>
        <time>2000-01-01T06:53:08.000Z</time>
      </trkpt>
      <trkpt lat="45.79145" lon="6.15177">
        <ele>782.1</ele>
        <time>2000-01-01T06:53:18.000Z</time>
      </trkpt>
      <trkpt lat="45.79134" lon="6.15199">
        <ele>783</ele>
        <time>2000-01-01T06:53:28.000Z</time>
      </trkpt>
      <trkpt lat="45.79133" lon="6.15213">
        <ele>782.3</ele>
        <time>2000-01-01T06:53:38.000Z</time>
      </trkpt>
      <trkpt lat="45.79141" lon="6.15222">
        <ele>785</ele>
        <time>2000-01-01T06:53:48.000Z</time>
      </trkpt>
      <trkpt lat="45.79148" lon="6.15232">
        <ele>785.4</ele>
        <time>2000-01-01T06:53:58.000Z</time>
      </trkpt>
      <trkpt lat="45.79176" lon="6.15248">
        <ele>788</ele>
        <time>2000-01-01T06:54:08.000Z</time>
      </trkpt>
      <trkpt lat="45.79187" lon="6.15246">
        <ele>789.5</ele>
        <time>2000-01-01T06:54:18.000Z</time>
      </trkpt>
      <trkpt lat="45.79196" lon="6.15246">
        <ele>789</ele>
        <time>2000-01-01T06:54:28.000Z</time>
      </trkpt>
      <trkpt lat="45.79205" lon="6.1525">
        <ele>790.6</ele>
        <time>2000-01-01T06:54:38.000Z</time>
      </trkpt>
      <trkpt lat="45.79213" lon="6.15259">
        <ele>790</ele>
        <time>2000-01-01T06:54:48.000Z</time>
      </trkpt>
      <trkpt lat="45.79223" lon="6.1526">
        <ele>792.1</ele>
        <time>2000-01-01T06:54:58.000Z</time>
      </trkpt>
      <trkpt lat="45.79233" lon="6.15262">
        <ele>790</ele>
        <time>2000-01-01T06:55:08.000Z</time>
      </trkpt>
      <trkpt lat="45.79251" lon="6.15273">
        <ele>793</ele>
        <time>2000-01-01T06:55:18.000Z</time>
      </trkpt>
      <trkpt lat="45.7926" lon="6.15279">
        <ele>795.2</ele>
        <time>2000-01-01T06:55:28.000Z</time>
      </trkpt>
      <trkpt lat="45.79269" lon="6.15291">
        <ele>796</ele>
        <time>2000-01-01T06:55:38.000Z</time>
      </trkpt>
      <trkpt lat="45.79276" lon="6.15299">
        <ele>798.8</ele>
        <time>2000-01-01T06:55:48.000Z</time>
      </trkpt>
      <trkpt lat="45.7929" lon="6.15317">
        <ele>801</ele>
        <time>2000-01-01T06:55:58.000Z</time>
      </trkpt>
      <trkpt lat="45.79296" lon="6.1533">
        <ele>807.2</ele>
        <time>2000-01-01T06:56:08.000Z</time>
      </trkpt>
      <trkpt lat="45.793" lon="6.15343">
        <ele>807</ele>
        <time>2000-01-01T06:56:18.000Z</time>
      </trkpt>
      <trkpt lat="45.79308" lon="6.15351">
        <ele>811.5</ele>
        <time>2000-01-01T06:56:28.000Z</time>
      </trkpt>
      <trkpt lat="45.79312" lon="6.15365">
        <ele>813</ele>
        <time>2000-01-01T06:56:38.000Z</time>
      </trkpt>
      <trkpt lat="45.79322" lon="6.15369">
        <ele>814.1</ele>
        <time>2000-01-01T06:56:48.000Z</time>
      </trkpt>
      <trkpt lat="45.79332" lon="6.15365">
        <ele>813</ele>
        <time>2000-01-01T06:56:58.000Z</time>
      </trkpt>
      <trkpt lat="45.7934" lon="6.15361">
        <ele>813</ele>
        <time>2000-01-01T06:57:08.000Z</time>
      </trkpt>
      <trkpt lat="45.7935" lon="6.15363">
        <ele>813</ele>
        <time>2000-01-01T06:57:18.000Z</time>
      </trkpt>
      <trkpt lat="45.79361" lon="6.1537">
        <ele>813.3</ele>
        <time>2000-01-01T06:57:28.000Z</time>
      </trkpt>
      <trkpt lat="45.7937" lon="6.15375">
        <ele>812</ele>
        <time>2000-01-01T06:57:38.000Z</time>
      </trkpt>
      <trkpt lat="45.79378" lon="6.15383">
        <ele>809.9</ele>
        <time>2000-01-01T06:57:48.000Z</time>
      </trkpt>
      <trkpt lat="45.79386" lon="6.15393">
        <ele>808</ele>
        <time>2000-01-01T06:57:58.000Z</time>
      </trkpt>
      <trkpt lat="45.79395" lon="6.15402">
        <ele>804.7</ele>
        <time>2000-01-01T06:58:08.000Z</time>
      </trkpt>
      <trkpt lat="45.79403" lon="6.15409">
        <ele>804</ele>
        <time>2000-01-01T06:58:18.000Z</time>
      </trkpt>
      <trkpt lat="45.79411" lon="6.15415">
        <ele>801</ele>
        <time>2000-01-01T06:58:28.000Z</time>
      </trkpt>
      <trkpt lat="45.79418" lon="6.15424">
        <ele>799.3</ele>
        <time>2000-01-01T06:58:38.000Z</time>
      </trkpt>
      <trkpt lat="45.79422" lon="6.15439">
        <ele>799</ele>
        <time>2000-01-01T06:58:48.000Z</time>
      </trkpt>
      <trkpt lat="45.7942" lon="6.15452">
        <ele>796.5</ele>
        <time>2000-01-01T06:58:58.000Z</time>
      </trkpt>
      <trkpt lat="45.79421" lon="6.15467">
        <ele>793</ele>
        <time>2000-01-01T06:59:08.000Z</time>
      </trkpt>
      <trkpt lat="45.79427" lon="6.15492">
        <ele>792</ele>
        <time>2000-01-01T06:59:18.000Z</time>
      </trkpt>
      <trkpt lat="45.79428" lon="6.15505">
        <ele>785.7</ele>
        <time>2000-01-01T06:59:28.000Z</time>
      </trkpt>
      <trkpt lat="45.79425" lon="6.15522">
        <ele>792</ele>
        <time>2000-01-01T06:59:38.000Z</time>
      </trkpt>
      <trkpt lat="45.79419" lon="6.15535">
        <ele>786.6</ele>
        <time>2000-01-01T06:59:48.000Z</time>
      </trkpt>
      <trkpt lat="45.79416" lon="6.1555">
        <ele>789</ele>
        <time>2000-01-01T06:59:58.000Z</time>
      </trkpt>
      <trkpt lat="45.79415" lon="6.15567">
        <ele>784</ele>
        <time>2000-01-01T07:00:08.000Z</time>
      </trkpt>
      <trkpt lat="45.79417" lon="6.1558">
        <ele>786</ele>
        <time>2000-01-01T07:00:18.000Z</time>
      </trkpt>
      <trkpt lat="45.79417" lon="6.15595">
        <ele>778.7</ele>
        <time>2000-01-01T07:00:28.000Z</time>
      </trkpt>
      <trkpt lat="45.79418" lon="6.15608">
        <ele>780</ele>
        <time>2000-01-01T07:00:38.000Z</time>
      </trkpt>
      <trkpt lat="45.7942" lon="6.15623">
        <ele>778.9</ele>
        <time>2000-01-01T07:00:48.000Z</time>
      </trkpt>
      <trkpt lat="45.79428" lon="6.15617">
        <ele>774</ele>
        <time>2000-01-01T07:00:58.000Z</time>
      </trkpt>
      <trkpt lat="45.79435" lon="6.15607">
        <ele>777.3</ele>
        <time>2000-01-01T07:01:08.000Z</time>
      </trkpt>
      <trkpt lat="45.79441" lon="6.15596">
        <ele>776</ele>
        <time>2000-01-01T07:01:18.000Z</time>
      </trkpt>
      <trkpt lat="45.7945" lon="6.15592">
        <ele>772.9</ele>
        <time>2000-01-01T07:01:28.000Z</time>
      </trkpt>
      <trkpt lat="45.79471" lon="6.15596">
        <ele>778</ele>
        <time>2000-01-01T07:01:38.000Z</time>
      </trkpt>
      <trkpt lat="45.79481" lon="6.1559">
        <ele>784.1</ele>
        <time>2000-01-01T07:01:48.000Z</time>
      </trkpt>
      <trkpt lat="45.79489" lon="6.15583">
        <ele>782</ele>
        <time>2000-01-01T07:01:58.000Z</time>
      </trkpt>
      <trkpt lat="45.795" lon="6.15581">
        <ele>787.8</ele>
        <time>2000-01-01T07:02:08.000Z</time>
      </trkpt>
      <trkpt lat="45.79508" lon="6.15586">
        <ele>788</ele>
        <time>2000-01-01T07:02:18.000Z</time>
      </trkpt>
      <trkpt lat="45.79517" lon="6.15587">
        <ele>791.6</ele>
        <time>2000-01-01T07:02:28.000Z</time>
      </trkpt>
      <trkpt lat="45.79526" lon="6.15582">
        <ele>791.4</ele>
        <time>2000-01-01T07:02:38.000Z</time>
      </trkpt>
      <trkpt lat="45.79535" lon="6.15582">
        <ele>789</ele>
        <time>2000-01-01T07:02:48.000Z</time>
      </trkpt>
      <trkpt lat="45.79547" lon="6.1558">
        <ele>794.4</ele>
        <time>2000-01-01T07:02:58.000Z</time>
      </trkpt>
      <trkpt lat="45.79556" lon="6.15576">
        <ele>791</ele>
        <time>2000-01-01T07:03:08.000Z</time>
      </trkpt>
      <trkpt lat="45.79567" lon="6.15575">
        <ele>795.4</ele>
        <time>2000-01-01T07:03:18.000Z</time>
      </trkpt>
      <trkpt lat="45.79576" lon="6.15577">
        <ele>796</ele>
        <time>2000-01-01T07:03:28.000Z</time>
      </trkpt>
      <trkpt lat="45.79585" lon="6.15581">
        <ele>798.4</ele>
        <time>2000-01-01T07:03:38.000Z</time>
      </trkpt>
      <trkpt lat="45.79593" lon="6.15588">
        <ele>798</ele>
        <time>2000-01-01T07:03:48.000Z</time>
      </trkpt>
      <trkpt lat="45.79589" lon="6.156">
        <ele>803.3</ele>
        <time>2000-01-01T07:03:58.000Z</time>
      </trkpt>
      <trkpt lat="45.79582" lon="6.15609">
        <ele>804</ele>
        <time>2000-01-01T07:04:08.000Z</time>
      </trkpt>
      <trkpt lat="45.79574" lon="6.15621">
        <ele>807.5</ele>
        <time>2000-01-01T07:04:18.000Z</time>
      </trkpt>
      <trkpt lat="45.79568" lon="6.15634">
        <ele>808</ele>
        <time>2000-01-01T07:04:28.000Z</time>
      </trkpt>
      <trkpt lat="45.79565" lon="6.15645">
        <ele>812.4</ele>
        <time>2000-01-01T07:04:38.000Z</time>
      </trkpt>
      <trkpt lat="45.79551" lon="6.15667">
        <ele>815</ele>
        <time>2000-01-01T07:04:48.000Z</time>
      </trkpt>
      <trkpt lat="45.79549" lon="6.1568">
        <ele>818.9</ele>
        <time>2000-01-01T07:04:58.000Z</time>
      </trkpt>
      <trkpt lat="45.79541" lon="6.15689">
        <ele>818</ele>
        <time>2000-01-01T07:05:08.000Z</time>
      </trkpt>
      <trkpt lat="45.79532" lon="6.15694">
        <ele>820.2</ele>
        <time>2000-01-01T07:05:18.000Z</time>
      </trkpt>
      <trkpt lat="45.79525" lon="6.15703">
        <ele>819</ele>
        <time>2000-01-01T07:05:28.000Z</time>
      </trkpt>
      <trkpt lat="45.79508" lon="6.15713">
        <ele>822.5</ele>
        <time>2000-01-01T07:05:38.000Z</time>
      </trkpt>
      <trkpt lat="45.79498" lon="6.15721">
        <ele>821</ele>
        <time>2000-01-01T07:05:48.000Z</time>
      </trkpt>
      <trkpt lat="45.79473" lon="6.15746">
        <ele>822</ele>
        <time>2000-01-01T07:05:58.000Z</time>
      </trkpt>
      <trkpt lat="45.79466" lon="6.15758">
        <ele>828</ele>
        <time>2000-01-01T07:06:08.000Z</time>
      </trkpt>
      <trkpt lat="45.79465" lon="6.15772">
        <ele>828</ele>
        <time>2000-01-01T07:06:18.000Z</time>
      </trkpt>
      <trkpt lat="45.7946" lon="6.15787">
        <ele>832.1</ele>
        <time>2000-01-01T07:06:28.000Z</time>
      </trkpt>
      <trkpt lat="45.79451" lon="6.15814">
        <ele>833</ele>
        <time>2000-01-01T07:06:38.000Z</time>
      </trkpt>
      <trkpt lat="45.79446" lon="6.15825">
        <ele>837</ele>
        <time>2000-01-01T07:06:48.000Z</time>
      </trkpt>
      <trkpt lat="45.7944" lon="6.15836">
        <ele>834</ele>
        <time>2000-01-01T07:06:58.000Z</time>
      </trkpt>
      <trkpt lat="45.79425" lon="6.15873">
        <ele>839</ele>
        <time>2000-01-01T07:07:08.000Z</time>
      </trkpt>
      <trkpt lat="45.79419" lon="6.15884">
        <ele>843.4</ele>
        <time>2000-01-01T07:07:18.000Z</time>
      </trkpt>
      <trkpt lat="45.79411" lon="6.15892">
        <ele>840</ele>
        <time>2000-01-01T07:07:28.000Z</time>
      </trkpt>
      <trkpt lat="45.79395" lon="6.15904">
        <ele>845</ele>
        <time>2000-01-01T07:07:38.000Z</time>
      </trkpt>
      <trkpt lat="45.79382" lon="6.15908">
        <ele>840</ele>
        <time>2000-01-01T07:07:48.000Z</time>
      </trkpt>
      <trkpt lat="45.79373" lon="6.1591">
        <ele>843.2</ele>
        <time>2000-01-01T07:07:58.000Z</time>
      </trkpt>
      <trkpt lat="45.79367" lon="6.1592">
        <ele>844.6</ele>
        <time>2000-01-01T07:08:08.000Z</time>
      </trkpt>
      <trkpt lat="45.79358" lon="6.15926">
        <ele>840</ele>
        <time>2000-01-01T07:08:18.000Z</time>
      </trkpt>
      <trkpt lat="45.79348" lon="6.15927">
        <ele>844.8</ele>
        <time>2000-01-01T07:08:28.000Z</time>
      </trkpt>
      <trkpt lat="45.79332" lon="6.15943">
        <ele>846</ele>
        <time>2000-01-01T07:08:38.000Z</time>
      </trkpt>
      <trkpt lat="45.79322" lon="6.15948">
        <ele>850.1</ele>
        <time>2000-01-01T07:08:48.000Z</time>
      </trkpt>
      <trkpt lat="45.79313" lon="6.15948">
        <ele>846</ele>
        <time>2000-01-01T07:08:58.000Z</time>
      </trkpt>
      <trkpt lat="45.79303" lon="6.15952">
        <ele>850.6</ele>
        <time>2000-01-01T07:09:08.000Z</time>
      </trkpt>
      <trkpt lat="45.79294" lon="6.15957">
        <ele>846</ele>
        <time>2000-01-01T07:09:18.000Z</time>
      </trkpt>
      <trkpt lat="45.79286" lon="6.15964">
        <ele>850.5</ele>
        <time>2000-01-01T07:09:28.000Z</time>
      </trkpt>
      <trkpt lat="45.7927" lon="6.15984">
        <ele>847</ele>
        <time>2000-01-01T07:09:38.000Z</time>
      </trkpt>
      <trkpt lat="45.79261" lon="6.15991">
        <ele>852.6</ele>
        <time>2000-01-01T07:09:48.000Z</time>
      </trkpt>
      <trkpt lat="45.79254" lon="6.16001">
        <ele>852</ele>
        <time>2000-01-01T07:09:58.000Z</time>
      </trkpt>
      <trkpt lat="45.79247" lon="6.16011">
        <ele>855.1</ele>
        <time>2000-01-01T07:10:08.000Z</time>
      </trkpt>
      <trkpt lat="45.79239" lon="6.16018">
        <ele>855</ele>
        <time>2000-01-01T07:10:18.000Z</time>
      </trkpt>
      <trkpt lat="45.79232" lon="6.16028">
        <ele>859.7</ele>
        <time>2000-01-01T07:10:28.000Z</time>
      </trkpt>
      <trkpt lat="45.79227" lon="6.1604">
        <ele>862</ele>
        <time>2000-01-01T07:10:38.000Z</time>
      </trkpt>
      <trkpt lat="45.79224" lon="6.16052">
        <ele>864.6</ele>
        <time>2000-01-01T07:10:48.000Z</time>
      </trkpt>
      <trkpt lat="45.79219" lon="6.16064">
        <ele>867</ele>
        <time>2000-01-01T07:10:58.000Z</time>
      </trkpt>
      <trkpt lat="45.79214" lon="6.16077">
        <ele>873.1</ele>
        <time>2000-01-01T07:11:08.000Z</time>
      </trkpt>
      <trkpt lat="45.79214" lon="6.1609">
        <ele>875</ele>
        <time>2000-01-01T07:11:18.000Z</time>
      </trkpt>
      <trkpt lat="45.79213" lon="6.16103">
        <ele>881.6</ele>
        <time>2000-01-01T07:11:28.000Z</time>
      </trkpt>
      <trkpt lat="45.7922" lon="6.16093">
        <ele>877</ele>
        <time>2000-01-01T07:11:38.000Z</time>
      </trkpt>
      <trkpt lat="45.7923" lon="6.16091">
        <ele>880.4</ele>
        <time>2000-01-01T07:11:48.000Z</time>
      </trkpt>
      <trkpt lat="45.7924" lon="6.16084">
        <ele>877</ele>
        <time>2000-01-01T07:11:58.000Z</time>
      </trkpt>
      <trkpt lat="45.79249" lon="6.16083">
        <ele>883.5</ele>
        <time>2000-01-01T07:12:08.000Z</time>
      </trkpt>
      <trkpt lat="45.79258" lon="6.1608">
        <ele>884.9</ele>
        <time>2000-01-01T07:12:18.000Z</time>
      </trkpt>
      <trkpt lat="45.79267" lon="6.16079">
        <ele>878</ele>
        <time>2000-01-01T07:12:28.000Z</time>
      </trkpt>
      <trkpt lat="45.79288" lon="6.16073">
        <ele>886</ele>
        <time>2000-01-01T07:12:38.000Z</time>
      </trkpt>
      <trkpt lat="45.79297" lon="6.16069">
        <ele>890</ele>
        <time>2000-01-01T07:12:48.000Z</time>
      </trkpt>
      <trkpt lat="45.7934" lon="6.16054">
        <ele>888</ele>
        <time>2000-01-01T07:12:58.000Z</time>
      </trkpt>
      <trkpt lat="45.79362" lon="6.16051">
        <ele>888</ele>
        <time>2000-01-01T07:13:08.000Z</time>
      </trkpt>
      <trkpt lat="45.7939" lon="6.16045">
        <ele>888</ele>
        <time>2000-01-01T07:13:18.000Z</time>
      </trkpt>
      <trkpt lat="45.79409" lon="6.16045">
        <ele>889</ele>
        <time>2000-01-01T07:13:28.000Z</time>
      </trkpt>
      <trkpt lat="45.79432" lon="6.16044">
        <ele>890</ele>
        <time>2000-01-01T07:13:38.000Z</time>
      </trkpt>
      <trkpt lat="45.79451" lon="6.1605">
        <ele>896</ele>
        <time>2000-01-01T07:13:48.000Z</time>
      </trkpt>
      <trkpt lat="45.7946" lon="6.16061">
        <ele>898.6</ele>
        <time>2000-01-01T07:13:58.000Z</time>
      </trkpt>
      <trkpt lat="45.79466" lon="6.16071">
        <ele>897</ele>
        <time>2000-01-01T07:14:08.000Z</time>
      </trkpt>
      <trkpt lat="45.79473" lon="6.16087">
        <ele>898.1</ele>
        <time>2000-01-01T07:14:18.000Z</time>
      </trkpt>
      <trkpt lat="45.79474" lon="6.16101">
        <ele>897</ele>
        <time>2000-01-01T07:14:28.000Z</time>
      </trkpt>
      <trkpt lat="45.79473" lon="6.16116">
        <ele>895.7</ele>
        <time>2000-01-01T07:14:38.000Z</time>
      </trkpt>
      <trkpt lat="45.79469" lon="6.16132">
        <ele>897</ele>
        <time>2000-01-01T07:14:48.000Z</time>
      </trkpt>
      <trkpt lat="45.79471" lon="6.16146">
        <ele>893.9</ele>
        <time>2000-01-01T07:14:58.000Z</time>
      </trkpt>
      <trkpt lat="45.79474" lon="6.16159">
        <ele>897</ele>
        <time>2000-01-01T07:15:08.000Z</time>
      </trkpt>
      <trkpt lat="45.79479" lon="6.16171">
        <ele>891.5</ele>
        <time>2000-01-01T07:15:18.000Z</time>
      </trkpt>
      <trkpt lat="45.7948" lon="6.16186">
        <ele>897</ele>
        <time>2000-01-01T07:15:28.000Z</time>
      </trkpt>
      <trkpt lat="45.79477" lon="6.16204">
        <ele>887.6</ele>
        <time>2000-01-01T07:15:38.000Z</time>
      </trkpt>
      <trkpt lat="45.79471" lon="6.16233">
        <ele>886</ele>
        <time>2000-01-01T07:15:48.000Z</time>
      </trkpt>
      <trkpt lat="45.79469" lon="6.16248">
        <ele>884</ele>
        <time>2000-01-01T07:15:58.000Z</time>
      </trkpt>
      <trkpt lat="45.79469" lon="6.16264">
        <ele>884</ele>
        <time>2000-01-01T07:16:08.000Z</time>
      </trkpt>
      <trkpt lat="45.79473" lon="6.16278">
        <ele>883.8</ele>
        <time>2000-01-01T07:16:18.000Z</time>
      </trkpt>
      <trkpt lat="45.79486" lon="6.16306">
        <ele>883</ele>
        <time>2000-01-01T07:16:28.000Z</time>
      </trkpt>
      <trkpt lat="45.79497" lon="6.16313">
        <ele>880.2</ele>
        <time>2000-01-01T07:16:38.000Z</time>
      </trkpt>
      <trkpt lat="45.79505" lon="6.1632">
        <ele>879</ele>
        <time>2000-01-01T07:16:48.000Z</time>
      </trkpt>
      <trkpt lat="45.79523" lon="6.16341">
        <ele>878</ele>
        <time>2000-01-01T07:16:58.000Z</time>
      </trkpt>
      <trkpt lat="45.79529" lon="6.16352">
        <ele>876.8</ele>
        <time>2000-01-01T07:17:08.000Z</time>
      </trkpt>
      <trkpt lat="45.79539" lon="6.16352">
        <ele>876</ele>
        <time>2000-01-01T07:17:18.000Z</time>
      </trkpt>
      <trkpt lat="45.79548" lon="6.1635">
        <ele>873.7</ele>
        <time>2000-01-01T07:17:28.000Z</time>
      </trkpt>
      <trkpt lat="45.79555" lon="6.16341">
        <ele>871.2</ele>
        <time>2000-01-01T07:17:38.000Z</time>
      </trkpt>
      <trkpt lat="45.79563" lon="6.16329">
        <ele>868</ele>
        <time>2000-01-01T07:17:48.000Z</time>
      </trkpt>
      <trkpt lat="45.79573" lon="6.1632">
        <ele>866.9</ele>
        <time>2000-01-01T07:17:58.000Z</time>
      </trkpt>
      <trkpt lat="45.79582" lon="6.16318">
        <ele>867</ele>
        <time>2000-01-01T07:18:08.000Z</time>
      </trkpt>
      <trkpt lat="45.79593" lon="6.16323">
        <ele>866.2</ele>
        <time>2000-01-01T07:18:18.000Z</time>
      </trkpt>
      <trkpt lat="45.79603" lon="6.1633">
        <ele>866</ele>
        <time>2000-01-01T07:18:28.000Z</time>
      </trkpt>
      <trkpt lat="45.79612" lon="6.16338">
        <ele>866.9</ele>
        <time>2000-01-01T07:18:38.000Z</time>
      </trkpt>
      <trkpt lat="45.79626" lon="6.16363">
        <ele>865</ele>
        <time>2000-01-01T07:18:48.000Z</time>
      </trkpt>
      <trkpt lat="45.79631" lon="6.16377">
        <ele>863.3</ele>
        <time>2000-01-01T07:18:58.000Z</time>
      </trkpt>
      <trkpt lat="45.79637" lon="6.16404">
        <ele>863</ele>
        <time>2000-01-01T07:19:08.000Z</time>
      </trkpt>
      <trkpt lat="45.79641" lon="6.16435">
        <ele>857</ele>
        <time>2000-01-01T07:19:18.000Z</time>
      </trkpt>
      <trkpt lat="45.79647" lon="6.16446">
        <ele>858.2</ele>
        <time>2000-01-01T07:19:28.000Z</time>
      </trkpt>
      <trkpt lat="45.79657" lon="6.16443">
        <ele>855</ele>
        <time>2000-01-01T07:19:38.000Z</time>
      </trkpt>
      <trkpt lat="45.79675" lon="6.16434">
        <ele>849</ele>
        <time>2000-01-01T07:19:48.000Z</time>
      </trkpt>
      <trkpt lat="45.79695" lon="6.16419">
        <ele>844</ele>
        <time>2000-01-01T07:19:58.000Z</time>
      </trkpt>
      <trkpt lat="45.79713" lon="6.16408">
        <ele>842</ele>
        <time>2000-01-01T07:20:08.000Z</time>
      </trkpt>
      <trkpt lat="45.79723" lon="6.16408">
        <ele>843.7</ele>
        <time>2000-01-01T07:20:18.000Z</time>
      </trkpt>
      <trkpt lat="45.79742" lon="6.16413">
        <ele>842</ele>
        <time>2000-01-01T07:20:28.000Z</time>
      </trkpt>
      <trkpt lat="45.79753" lon="6.16417">
        <ele>841.7</ele>
        <time>2000-01-01T07:20:38.000Z</time>
      </trkpt>
      <trkpt lat="45.79757" lon="6.16433">
        <ele>844</ele>
        <time>2000-01-01T07:20:48.000Z</time>
      </trkpt>
      <trkpt lat="45.79755" lon="6.16446">
        <ele>845.5</ele>
        <time>2000-01-01T07:20:58.000Z</time>
      </trkpt>
      <trkpt lat="45.79756" lon="6.1646">
        <ele>846</ele>
        <time>2000-01-01T07:21:08.000Z</time>
      </trkpt>
      <trkpt lat="45.79751" lon="6.16472">
        <ele>850.7</ele>
        <time>2000-01-01T07:21:18.000Z</time>
      </trkpt>
      <trkpt lat="45.79745" lon="6.16483">
        <ele>854</ele>
        <time>2000-01-01T07:21:28.000Z</time>
      </trkpt>
      <trkpt lat="45.79749" lon="6.16496">
        <ele>855.4</ele>
        <time>2000-01-01T07:21:38.000Z</time>
      </trkpt>
      <trkpt lat="45.79748" lon="6.1651">
        <ele>859</ele>
        <time>2000-01-01T07:21:48.000Z</time>
      </trkpt>
      <trkpt lat="45.79743" lon="6.16524">
        <ele>860.8</ele>
        <time>2000-01-01T07:21:58.000Z</time>
      </trkpt>
      <trkpt lat="45.79743" lon="6.16538">
        <ele>862</ele>
        <time>2000-01-01T07:22:08.000Z</time>
      </trkpt>
      <trkpt lat="45.7973" lon="6.16559">
        <ele>867</ele>
        <time>2000-01-01T07:22:18.000Z</time>
      </trkpt>
      <trkpt lat="45.79722" lon="6.16569">
        <ele>870.9</ele>
        <time>2000-01-01T07:22:28.000Z</time>
      </trkpt>
      <trkpt lat="45.79714" lon="6.16577">
        <ele>872</ele>
        <time>2000-01-01T07:22:38.000Z</time>
      </trkpt>
      <trkpt lat="45.79703" lon="6.16598">
        <ele>876.2</ele>
        <time>2000-01-01T07:22:48.000Z</time>
      </trkpt>
      <trkpt lat="45.79695" lon="6.16608">
        <ele>877</ele>
        <time>2000-01-01T07:22:58.000Z</time>
      </trkpt>
      <trkpt lat="45.79689" lon="6.16619">
        <ele>881.7</ele>
        <time>2000-01-01T07:23:08.000Z</time>
      </trkpt>
      <trkpt lat="45.79683" lon="6.16632">
        <ele>883</ele>
        <time>2000-01-01T07:23:18.000Z</time>
      </trkpt>
      <trkpt lat="45.79675" lon="6.16642">
        <ele>885.8</ele>
        <time>2000-01-01T07:23:28.000Z</time>
      </trkpt>
      <trkpt lat="45.79674" lon="6.16656">
        <ele>887</ele>
        <time>2000-01-01T07:23:38.000Z</time>
      </trkpt>
      <trkpt lat="45.79671" lon="6.1667">
        <ele>890</ele>
        <time>2000-01-01T07:23:48.000Z</time>
      </trkpt>
      <trkpt lat="45.79672" lon="6.16685">
        <ele>890</ele>
        <time>2000-01-01T07:23:58.000Z</time>
      </trkpt>
      <trkpt lat="45.79668" lon="6.16712">
        <ele>897</ele>
        <time>2000-01-01T07:24:08.000Z</time>
      </trkpt>
      <trkpt lat="45.79671" lon="6.16727">
        <ele>898.7</ele>
        <time>2000-01-01T07:24:18.000Z</time>
      </trkpt>
      <trkpt lat="45.7967" lon="6.16741">
        <ele>901</ele>
        <time>2000-01-01T07:24:28.000Z</time>
      </trkpt>
      <trkpt lat="45.79664" lon="6.16752">
        <ele>902.7</ele>
        <time>2000-01-01T07:24:38.000Z</time>
      </trkpt>
      <trkpt lat="45.79656" lon="6.1676">
        <ele>905</ele>
        <time>2000-01-01T07:24:48.000Z</time>
      </trkpt>
      <trkpt lat="45.79646" lon="6.16767">
        <ele>908</ele>
        <time>2000-01-01T07:24:58.000Z</time>
      </trkpt>
      <trkpt lat="45.79636" lon="6.1679">
        <ele>912</ele>
        <time>2000-01-01T07:25:08.000Z</time>
      </trkpt>
      <trkpt lat="45.7963" lon="6.16801">
        <ele>915.5</ele>
        <time>2000-01-01T07:25:18.000Z</time>
      </trkpt>
      <trkpt lat="45.79632" lon="6.16814">
        <ele>917.7</ele>
        <time>2000-01-01T07:25:28.000Z</time>
      </trkpt>
      <trkpt lat="45.79632" lon="6.16829">
        <ele>918</ele>
        <time>2000-01-01T07:25:38.000Z</time>
      </trkpt>
      <trkpt lat="45.7962" lon="6.16852">
        <ele>925</ele>
        <time>2000-01-01T07:25:48.000Z</time>
      </trkpt>
      <trkpt lat="45.79617" lon="6.16864">
        <ele>929.4</ele>
        <time>2000-01-01T07:25:58.000Z</time>
      </trkpt>
      <trkpt lat="45.79609" lon="6.16872">
        <ele>934</ele>
        <time>2000-01-01T07:26:08.000Z</time>
      </trkpt>
      <trkpt lat="45.79599" lon="6.16877">
        <ele>934.6</ele>
        <time>2000-01-01T07:26:18.000Z</time>
      </trkpt>
      <trkpt lat="45.79593" lon="6.16886">
        <ele>937</ele>
        <time>2000-01-01T07:26:28.000Z</time>
      </trkpt>
      <trkpt lat="45.7959" lon="6.16899">
        <ele>939.4</ele>
        <time>2000-01-01T07:26:38.000Z</time>
      </trkpt>
      <trkpt lat="45.79584" lon="6.1691">
        <ele>942</ele>
        <time>2000-01-01T07:26:48.000Z</time>
      </trkpt>
      <trkpt lat="45.79585" lon="6.16923">
        <ele>943.2</ele>
        <time>2000-01-01T07:26:58.000Z</time>
      </trkpt>
      <trkpt lat="45.79583" lon="6.16937">
        <ele>945</ele>
        <time>2000-01-01T07:27:08.000Z</time>
      </trkpt>
      <trkpt lat="45.79576" lon="6.16947">
        <ele>950</ele>
        <time>2000-01-01T07:27:18.000Z</time>
      </trkpt>
      <trkpt lat="45.79564" lon="6.16984">
        <ele>963</ele>
        <time>2000-01-01T07:27:28.000Z</time>
      </trkpt>
      <trkpt lat="45.79556" lon="6.16991">
        <ele>967.2</ele>
        <time>2000-01-01T07:27:38.000Z</time>
      </trkpt>
      <trkpt lat="45.79555" lon="6.17004">
        <ele>968.9</ele>
        <time>2000-01-01T07:27:48.000Z</time>
      </trkpt>
      <trkpt lat="45.79551" lon="6.17018">
        <ele>972</ele>
        <time>2000-01-01T07:27:58.000Z</time>
      </trkpt>
      <trkpt lat="45.79552" lon="6.17032">
        <ele>974.3</ele>
        <time>2000-01-01T07:28:08.000Z</time>
      </trkpt>
      <trkpt lat="45.7956" lon="6.17041">
        <ele>972</ele>
        <time>2000-01-01T07:28:18.000Z</time>
      </trkpt>
      <trkpt lat="45.79546" lon="6.17057">
        <ele>980.1</ele>
        <time>2000-01-01T07:28:28.000Z</time>
      </trkpt>
      <trkpt lat="45.7954" lon="6.17068">
        <ele>987</ele>
        <time>2000-01-01T07:28:38.000Z</time>
      </trkpt>
      <trkpt lat="45.79519" lon="6.17074">
        <ele>1001</ele>
        <time>2000-01-01T07:28:48.000Z</time>
      </trkpt>
      <trkpt lat="45.79513" lon="6.17065">
        <ele>998.6</ele>
        <time>2000-01-01T07:28:58.000Z</time>
      </trkpt>
      <trkpt lat="45.79505" lon="6.17056">
        <ele>1001</ele>
        <time>2000-01-01T07:29:08.000Z</time>
      </trkpt>
      <trkpt lat="45.79495" lon="6.17054">
        <ele>1005.9</ele>
        <time>2000-01-01T07:29:18.000Z</time>
      </trkpt>
      <trkpt lat="45.79503" lon="6.17049">
        <ele>1002</ele>
        <time>2000-01-01T07:29:28.000Z</time>
      </trkpt>
      <trkpt lat="45.79497" lon="6.1706">
        <ele>1006.3</ele>
        <time>2000-01-01T07:29:38.000Z</time>
      </trkpt>
      <trkpt lat="45.79488" lon="6.17065">
        <ele>1009</ele>
        <time>2000-01-01T07:29:48.000Z</time>
      </trkpt>
      <trkpt lat="45.79484" lon="6.17077">
        <ele>1009.6</ele>
        <time>2000-01-01T07:29:58.000Z</time>
      </trkpt>
      <trkpt lat="45.79485" lon="6.17091">
        <ele>1010</ele>
        <time>2000-01-01T07:30:08.000Z</time>
      </trkpt>
      <trkpt lat="45.79495" lon="6.17097">
        <ele>1011.5</ele>
        <time>2000-01-01T07:30:18.000Z</time>
      </trkpt>
      <trkpt lat="45.79505" lon="6.17096">
        <ele>1010</ele>
        <time>2000-01-01T07:30:28.000Z</time>
      </trkpt>
      <trkpt lat="45.79514" lon="6.17099">
        <ele>1007</ele>
        <time>2000-01-01T07:30:38.000Z</time>
      </trkpt>
      <trkpt lat="45.79524" lon="6.17109">
        <ele>1011</ele>
        <time>2000-01-01T07:30:48.000Z</time>
      </trkpt>
      <trkpt lat="45.79531" lon="6.17118">
        <ele>1008.1</ele>
        <time>2000-01-01T07:30:58.000Z</time>
      </trkpt>
      <trkpt lat="45.79538" lon="6.17129">
        <ele>1002</ele>
        <time>2000-01-01T07:31:08.000Z</time>
      </trkpt>
      <trkpt lat="45.79547" lon="6.17128">
        <ele>1000.7</ele>
        <time>2000-01-01T07:31:18.000Z</time>
      </trkpt>
      <trkpt lat="45.79557" lon="6.1713">
        <ele>993</ele>
        <time>2000-01-01T07:31:28.000Z</time>
      </trkpt>
      <trkpt lat="45.79578" lon="6.17137">
        <ele>996</ele>
        <time>2000-01-01T07:31:38.000Z</time>
      </trkpt>
      <trkpt lat="45.79587" lon="6.17139">
        <ele>994.8</ele>
        <time>2000-01-01T07:31:48.000Z</time>
      </trkpt>
      <trkpt lat="45.79591" lon="6.1715">
        <ele>997.8</ele>
        <time>2000-01-01T07:31:58.000Z</time>
      </trkpt>
      <trkpt lat="45.79598" lon="6.17162">
        <ele>997</ele>
        <time>2000-01-01T07:32:08.000Z</time>
      </trkpt>
      <trkpt lat="45.79606" lon="6.17167">
        <ele>1000.8</ele>
        <time>2000-01-01T07:32:18.000Z</time>
      </trkpt>
      <trkpt lat="45.79615" lon="6.17161">
        <ele>998</ele>
        <time>2000-01-01T07:32:28.000Z</time>
      </trkpt>
      <trkpt lat="45.79625" lon="6.17158">
        <ele>1000.8</ele>
        <time>2000-01-01T07:32:38.000Z</time>
      </trkpt>
      <trkpt lat="45.79644" lon="6.17151">
        <ele>1002</ele>
        <time>2000-01-01T07:32:48.000Z</time>
      </trkpt>
      <trkpt lat="45.79662" lon="6.17147">
        <ele>1003.8</ele>
        <time>2000-01-01T07:32:58.000Z</time>
      </trkpt>
      <trkpt lat="45.79672" lon="6.17151">
        <ele>1006</ele>
        <time>2000-01-01T07:33:08.000Z</time>
      </trkpt>
      <trkpt lat="45.79681" lon="6.17153">
        <ele>1010.7</ele>
        <time>2000-01-01T07:33:18.000Z</time>
      </trkpt>
      <trkpt lat="45.79692" lon="6.17152">
        <ele>1011</ele>
        <time>2000-01-01T07:33:28.000Z</time>
      </trkpt>
      <trkpt lat="45.79711" lon="6.17147">
        <ele>1017</ele>
        <time>2000-01-01T07:33:38.000Z</time>
      </trkpt>
      <trkpt lat="45.79721" lon="6.17142">
        <ele>1016.4</ele>
        <time>2000-01-01T07:33:48.000Z</time>
      </trkpt>
      <trkpt lat="45.79731" lon="6.17142">
        <ele>1017</ele>
        <time>2000-01-01T07:33:58.000Z</time>
      </trkpt>
      <trkpt lat="45.79741" lon="6.17141">
        <ele>1018.4</ele>
        <time>2000-01-01T07:34:08.000Z</time>
      </trkpt>
      <trkpt lat="45.79751" lon="6.17146">
        <ele>1019</ele>
        <time>2000-01-01T07:34:18.000Z</time>
      </trkpt>
      <trkpt lat="45.79754" lon="6.1716">
        <ele>1022.7</ele>
        <time>2000-01-01T07:34:28.000Z</time>
      </trkpt>
      <trkpt lat="45.79752" lon="6.17173">
        <ele>1023</ele>
        <time>2000-01-01T07:34:38.000Z</time>
      </trkpt>
      <trkpt lat="45.79753" lon="6.17187">
        <ele>1026.8</ele>
        <time>2000-01-01T07:34:48.000Z</time>
      </trkpt>
      <trkpt lat="45.79751" lon="6.17228">
        <ele>1035</ele>
        <time>2000-01-01T07:34:58.000Z</time>
      </trkpt>
      <trkpt lat="45.79761" lon="6.17232">
        <ele>1044.7</ele>
        <time>2000-01-01T07:35:08.000Z</time>
      </trkpt>
      <trkpt lat="45.79765" lon="6.17244">
        <ele>1044</ele>
        <time>2000-01-01T07:35:18.000Z</time>
      </trkpt>
      <trkpt lat="45.79774" lon="6.17249">
        <ele>1055.4</ele>
        <time>2000-01-01T07:35:28.000Z</time>
      </trkpt>
      <trkpt lat="45.79783" lon="6.17246">
        <ele>1049</ele>
        <time>2000-01-01T07:35:38.000Z</time>
      </trkpt>
      <trkpt lat="45.79791" lon="6.17238">
        <ele>1052.9</ele>
        <time>2000-01-01T07:35:48.000Z</time>
      </trkpt>
      <trkpt lat="45.798" lon="6.17244">
        <ele>1055</ele>
        <time>2000-01-01T07:35:58.000Z</time>
      </trkpt>
      <trkpt lat="45.79812" lon="6.17266">
        <ele>1058</ele>
        <time>2000-01-01T07:36:08.000Z</time>
      </trkpt>
      <trkpt lat="45.79803" lon="6.17271">
        <ele>1063.3</ele>
        <time>2000-01-01T07:36:18.000Z</time>
      </trkpt>
      <trkpt lat="45.79793" lon="6.17271">
        <ele>1067</ele>
        <time>2000-01-01T07:36:28.000Z</time>
      </trkpt>
      <trkpt lat="45.79793" lon="6.17285">
        <ele>1068.5</ele>
        <time>2000-01-01T07:36:38.000Z</time>
      </trkpt>
      <trkpt lat="45.798" lon="6.17295">
        <ele>1071</ele>
        <time>2000-01-01T07:36:48.000Z</time>
      </trkpt>
      <trkpt lat="45.79804" lon="6.17308">
        <ele>1071.1</ele>
        <time>2000-01-01T07:36:58.000Z</time>
      </trkpt>
      <trkpt lat="45.79809" lon="6.17319">
        <ele>1072</ele>
        <time>2000-01-01T07:37:08.000Z</time>
      </trkpt>
      <trkpt lat="45.79822" lon="6.17339">
        <ele>1072</ele>
        <time>2000-01-01T07:37:18.000Z</time>
      </trkpt>
      <trkpt lat="45.7983" lon="6.17348">
        <ele>1075.1</ele>
        <time>2000-01-01T07:37:28.000Z</time>
      </trkpt>
      <trkpt lat="45.79838" lon="6.17359">
        <ele>1075</ele>
        <time>2000-01-01T07:37:38.000Z</time>
      </trkpt>
      <trkpt lat="45.79837" lon="6.17374">
        <ele>1081.6</ele>
        <time>2000-01-01T07:37:48.000Z</time>
      </trkpt>
      <trkpt lat="45.79844" lon="6.17382">
        <ele>1081</ele>
        <time>2000-01-01T07:37:58.000Z</time>
      </trkpt>
      <trkpt lat="45.79852" lon="6.1739">
        <ele>1084.6</ele>
        <time>2000-01-01T07:38:08.000Z</time>
      </trkpt>
      <trkpt lat="45.79857" lon="6.17401">
        <ele>1087.1</ele>
        <time>2000-01-01T07:38:18.000Z</time>
      </trkpt>
      <trkpt lat="45.79866" lon="6.17407">
        <ele>1086</ele>
        <time>2000-01-01T07:38:28.000Z</time>
      </trkpt>
      <trkpt lat="45.79881" lon="6.17425">
        <ele>1089</ele>
        <time>2000-01-01T07:38:38.000Z</time>
      </trkpt>
      <trkpt lat="45.7989" lon="6.17433">
        <ele>1091</ele>
        <time>2000-01-01T07:38:48.000Z</time>
      </trkpt>
      <trkpt lat="45.799" lon="6.17438">
        <ele>1089</ele>
        <time>2000-01-01T07:38:58.000Z</time>
      </trkpt>
      <trkpt lat="45.79898" lon="6.17451">
        <ele>1095.1</ele>
        <time>2000-01-01T07:39:08.000Z</time>
      </trkpt>
      <trkpt lat="45.79888" lon="6.17452">
        <ele>1099</ele>
        <time>2000-01-01T07:39:18.000Z</time>
      </trkpt>
      <trkpt lat="45.79879" lon="6.17456">
        <ele>1102.1</ele>
        <time>2000-01-01T07:39:28.000Z</time>
      </trkpt>
      <trkpt lat="45.79869" lon="6.17459">
        <ele>1103</ele>
        <time>2000-01-01T07:39:38.000Z</time>
      </trkpt>
      <trkpt lat="45.7986" lon="6.17461">
        <ele>1108.4</ele>
        <time>2000-01-01T07:39:48.000Z</time>
      </trkpt>
      <trkpt lat="45.79841" lon="6.17463">
        <ele>1105</ele>
        <time>2000-01-01T07:39:58.000Z</time>
      </trkpt>
      <trkpt lat="45.79851" lon="6.17461">
        <ele>1110</ele>
        <time>2000-01-01T07:40:08.000Z</time>
      </trkpt>
      <trkpt lat="45.7986" lon="6.17467">
        <ele>1107</ele>
        <time>2000-01-01T07:40:18.000Z</time>
      </trkpt>
      <trkpt lat="45.79867" lon="6.17476">
        <ele>1113.5</ele>
        <time>2000-01-01T07:40:28.000Z</time>
      </trkpt>
      <trkpt lat="45.79877" lon="6.17481">
        <ele>1115</ele>
        <time>2000-01-01T07:40:38.000Z</time>
      </trkpt>
      <trkpt lat="45.79884" lon="6.1749">
        <ele>1116.4</ele>
        <time>2000-01-01T07:40:48.000Z</time>
      </trkpt>
      <trkpt lat="45.79888" lon="6.17503">
        <ele>1120</ele>
        <time>2000-01-01T07:40:58.000Z</time>
      </trkpt>
      <trkpt lat="45.79896" lon="6.17512">
        <ele>1124.1</ele>
        <time>2000-01-01T07:41:08.000Z</time>
      </trkpt>
      <trkpt lat="45.79904" lon="6.1752">
        <ele>1121</ele>
        <time>2000-01-01T07:41:18.000Z</time>
      </trkpt>
      <trkpt lat="45.7991" lon="6.17529">
        <ele>1129</ele>
        <time>2000-01-01T07:41:28.000Z</time>
      </trkpt>
      <trkpt lat="45.79917" lon="6.17539">
        <ele>1128</ele>
        <time>2000-01-01T07:41:38.000Z</time>
      </trkpt>
      <trkpt lat="45.79915" lon="6.17553">
        <ele>1134</ele>
        <time>2000-01-01T07:41:48.000Z</time>
      </trkpt>
      <trkpt lat="45.79912" lon="6.17566">
        <ele>1135</ele>
        <time>2000-01-01T07:41:58.000Z</time>
      </trkpt>
      <trkpt lat="45.79918" lon="6.17575">
        <ele>1138.1</ele>
        <time>2000-01-01T07:42:08.000Z</time>
      </trkpt>
      <trkpt lat="45.79943" lon="6.17597">
        <ele>1140</ele>
        <time>2000-01-01T07:42:18.000Z</time>
      </trkpt>
      <trkpt lat="45.79947" lon="6.1761">
        <ele>1144.6</ele>
        <time>2000-01-01T07:42:28.000Z</time>
      </trkpt>
      <trkpt lat="45.79952" lon="6.17636">
        <ele>1150</ele>
        <time>2000-01-01T07:42:38.000Z</time>
      </trkpt>
      <trkpt lat="45.79959" lon="6.17646">
        <ele>1151.8</ele>
        <time>2000-01-01T07:42:48.000Z</time>
      </trkpt>
      <trkpt lat="45.79967" lon="6.17651">
        <ele>1150.7</ele>
        <time>2000-01-01T07:42:58.000Z</time>
      </trkpt>
      <trkpt lat="45.79974" lon="6.17662">
        <ele>1153</ele>
        <time>2000-01-01T07:43:08.000Z</time>
      </trkpt>
      <trkpt lat="45.79982" lon="6.17672">
        <ele>1153.6</ele>
        <time>2000-01-01T07:43:18.000Z</time>
      </trkpt>
      <trkpt lat="45.79982" lon="6.17686">
        <ele>1156</ele>
        <time>2000-01-01T07:43:28.000Z</time>
      </trkpt>
      <trkpt lat="45.79985" lon="6.17699">
        <ele>1161.4</ele>
        <time>2000-01-01T07:43:38.000Z</time>
      </trkpt>
      <trkpt lat="45.79993" lon="6.17708">
        <ele>1158</ele>
        <time>2000-01-01T07:43:48.000Z</time>
      </trkpt>
      <trkpt lat="45.80002" lon="6.17715">
        <ele>1161.8</ele>
        <time>2000-01-01T07:43:58.000Z</time>
      </trkpt>
      <trkpt lat="45.80011" lon="6.17724">
        <ele>1161</ele>
        <time>2000-01-01T07:44:08.000Z</time>
      </trkpt>
      <trkpt lat="45.80019" lon="6.17735">
        <ele>1165.2</ele>
        <time>2000-01-01T07:44:18.000Z</time>
      </trkpt>
      <trkpt lat="45.80023" lon="6.17748">
        <ele>1164</ele>
        <time>2000-01-01T07:44:28.000Z</time>
      </trkpt>
      <trkpt lat="45.80032" lon="6.17758">
        <ele>1171.9</ele>
        <time>2000-01-01T07:44:38.000Z</time>
      </trkpt>
      <trkpt lat="45.80037" lon="6.17771">
        <ele>1177</ele>
        <time>2000-01-01T07:44:48.000Z</time>
      </trkpt>
      <trkpt lat="45.80044" lon="6.17779">
        <ele>1178.9</ele>
        <time>2000-01-01T07:44:58.000Z</time>
      </trkpt>
      <trkpt lat="45.8005" lon="6.1779">
        <ele>1182.1</ele>
        <time>2000-01-01T07:45:08.000Z</time>
      </trkpt>
      <trkpt lat="45.80054" lon="6.17801">
        <ele>1187</ele>
        <time>2000-01-01T07:45:18.000Z</time>
      </trkpt>
      <trkpt lat="45.8006" lon="6.17812">
        <ele>1188.5</ele>
        <time>2000-01-01T07:45:28.000Z</time>
      </trkpt>
      <trkpt lat="45.80065" lon="6.17824">
        <ele>1192</ele>
        <time>2000-01-01T07:45:38.000Z</time>
      </trkpt>
      <trkpt lat="45.80072" lon="6.17835">
        <ele>1194.8</ele>
        <time>2000-01-01T07:45:48.000Z</time>
      </trkpt>
      <trkpt lat="45.80066" lon="6.17845">
        <ele>1202</ele>
        <time>2000-01-01T07:45:58.000Z</time>
      </trkpt>
      <trkpt lat="45.80045" lon="6.17842">
        <ele>1211</ele>
        <time>2000-01-01T07:46:08.000Z</time>
      </trkpt>
      <trkpt lat="45.80036" lon="6.17839">
        <ele>1211.7</ele>
        <time>2000-01-01T07:46:18.000Z</time>
      </trkpt>
      <trkpt lat="45.80026" lon="6.17839">
        <ele>1211</ele>
        <time>2000-01-01T07:46:28.000Z</time>
      </trkpt>
      <trkpt lat="45.80016" lon="6.17833">
        <ele>1215.6</ele>
        <time>2000-01-01T07:46:38.000Z</time>
      </trkpt>
      <trkpt lat="45.80007" lon="6.1783">
        <ele>1212</ele>
        <time>2000-01-01T07:46:48.000Z</time>
      </trkpt>
      <trkpt lat="45.79988" lon="6.17834">
        <ele>1225</ele>
        <time>2000-01-01T07:46:58.000Z</time>
      </trkpt>
      <trkpt lat="45.79978" lon="6.17835">
        <ele>1230</ele>
        <time>2000-01-01T07:47:08.000Z</time>
      </trkpt>
      <trkpt lat="45.79969" lon="6.17834">
        <ele>1232.9</ele>
        <time>2000-01-01T07:47:18.000Z</time>
      </trkpt>
      <trkpt lat="45.79961" lon="6.17827">
        <ele>1226</ele>
        <time>2000-01-01T07:47:28.000Z</time>
      </trkpt>
      <trkpt lat="45.79944" lon="6.17818">
        <ele>1233.8</ele>
        <time>2000-01-01T07:47:38.000Z</time>
      </trkpt>
      <trkpt lat="45.79925" lon="6.17817">
        <ele>1237</ele>
        <time>2000-01-01T07:47:48.000Z</time>
      </trkpt>
      <trkpt lat="45.79917" lon="6.1781">
        <ele>1237.8</ele>
        <time>2000-01-01T07:47:58.000Z</time>
      </trkpt>
      <trkpt lat="45.79889" lon="6.17809">
        <ele>1241</ele>
        <time>2000-01-01T07:48:08.000Z</time>
      </trkpt>
      <trkpt lat="45.79878" lon="6.17807">
        <ele>1248</ele>
        <time>2000-01-01T07:48:18.000Z</time>
      </trkpt>
      <trkpt lat="45.79868" lon="6.17804">
        <ele>1248</ele>
        <time>2000-01-01T07:48:28.000Z</time>
      </trkpt>
      <trkpt lat="45.79859" lon="6.17807">
        <ele>1253.5</ele>
        <time>2000-01-01T07:48:38.000Z</time>
      </trkpt>
      <trkpt lat="45.79849" lon="6.17805">
        <ele>1253</ele>
        <time>2000-01-01T07:48:48.000Z</time>
      </trkpt>
      <trkpt lat="45.79839" lon="6.17806">
        <ele>1258.6</ele>
        <time>2000-01-01T07:48:58.000Z</time>
      </trkpt>
      <trkpt lat="45.79831" lon="6.17802">
        <ele>1256</ele>
        <time>2000-01-01T07:49:08.000Z</time>
      </trkpt>
      <trkpt lat="45.79821" lon="6.17804">
        <ele>1260.9</ele>
        <time>2000-01-01T07:49:18.000Z</time>
      </trkpt>
      <trkpt lat="45.79812" lon="6.17809">
        <ele>1259</ele>
        <time>2000-01-01T07:49:28.000Z</time>
      </trkpt>
      <trkpt lat="45.79803" lon="6.17812">
        <ele>1268.8</ele>
        <time>2000-01-01T07:49:38.000Z</time>
      </trkpt>
      <trkpt lat="45.79794" lon="6.17813">
        <ele>1269</ele>
        <time>2000-01-01T07:49:48.000Z</time>
      </trkpt>
      <trkpt lat="45.79774" lon="6.17816">
        <ele>1272</ele>
        <time>2000-01-01T07:49:58.000Z</time>
      </trkpt>
      <trkpt lat="45.79764" lon="6.17815">
        <ele>1277.6</ele>
        <time>2000-01-01T07:50:08.000Z</time>
      </trkpt>
      <trkpt lat="45.79745" lon="6.17815">
        <ele>1282</ele>
        <time>2000-01-01T07:50:18.000Z</time>
      </trkpt>
      <trkpt lat="45.79735" lon="6.17813">
        <ele>1284.3</ele>
        <time>2000-01-01T07:50:28.000Z</time>
      </trkpt>
      <trkpt lat="45.79726" lon="6.17815">
        <ele>1286</ele>
        <time>2000-01-01T07:50:38.000Z</time>
      </trkpt>
      <trkpt lat="45.79716" lon="6.17813">
        <ele>1287.1</ele>
        <time>2000-01-01T07:50:48.000Z</time>
      </trkpt>
      <trkpt lat="45.79697" lon="6.17826">
        <ele>1288</ele>
        <time>2000-01-01T07:50:58.000Z</time>
      </trkpt>
      <trkpt lat="45.79697" lon="6.1784">
        <ele>1293.3</ele>
        <time>2000-01-01T07:51:08.000Z</time>
      </trkpt>
      <trkpt lat="45.79702" lon="6.17851">
        <ele>1295</ele>
        <time>2000-01-01T07:51:18.000Z</time>
      </trkpt>
      <trkpt lat="45.79703" lon="6.17865">
        <ele>1298.5</ele>
        <time>2000-01-01T07:51:28.000Z</time>
      </trkpt>
      <trkpt lat="45.79713" lon="6.17889">
        <ele>1304</ele>
        <time>2000-01-01T07:51:38.000Z</time>
      </trkpt>
      <trkpt lat="45.79722" lon="6.17894">
        <ele>1309.3</ele>
        <time>2000-01-01T07:51:48.000Z</time>
      </trkpt>
      <trkpt lat="45.7973" lon="6.17897">
        <ele>1311.8</ele>
        <time>2000-01-01T07:51:58.000Z</time>
      </trkpt>
      <trkpt lat="45.79739" lon="6.17899">
        <ele>1310</ele>
        <time>2000-01-01T07:52:08.000Z</time>
      </trkpt>
      <trkpt lat="45.79748" lon="6.17899">
        <ele>1317.2</ele>
        <time>2000-01-01T07:52:18.000Z</time>
      </trkpt>
      <trkpt lat="45.79758" lon="6.17901">
        <ele>1318.8</ele>
        <time>2000-01-01T07:52:28.000Z</time>
      </trkpt>
      <trkpt lat="45.79766" lon="6.17906">
        <ele>1319</ele>
        <time>2000-01-01T07:52:38.000Z</time>
      </trkpt>
      <trkpt lat="45.79776" lon="6.17907">
        <ele>1320.8</ele>
        <time>2000-01-01T07:52:48.000Z</time>
      </trkpt>
      <trkpt lat="45.79785" lon="6.17914">
        <ele>1321</ele>
        <time>2000-01-01T07:52:58.000Z</time>
      </trkpt>
      <trkpt lat="45.79794" lon="6.17918">
        <ele>1323.8</ele>
        <time>2000-01-01T07:53:08.000Z</time>
      </trkpt>
      <trkpt lat="45.79804" lon="6.17918">
        <ele>1324</ele>
        <time>2000-01-01T07:53:18.000Z</time>
      </trkpt>
      <trkpt lat="45.79811" lon="6.17927">
        <ele>1324.2</ele>
        <time>2000-01-01T07:53:28.000Z</time>
      </trkpt>
      <trkpt lat="45.7982" lon="6.17933">
        <ele>1325</ele>
        <time>2000-01-01T07:53:38.000Z</time>
      </trkpt>
      <trkpt lat="45.7983" lon="6.17931">
        <ele>1324.9</ele>
        <time>2000-01-01T07:53:48.000Z</time>
      </trkpt>
      <trkpt lat="45.79848" lon="6.17938">
        <ele>1324</ele>
        <time>2000-01-01T07:53:58.000Z</time>
      </trkpt>
      <trkpt lat="45.79855" lon="6.17947">
        <ele>1323.6</ele>
        <time>2000-01-01T07:54:08.000Z</time>
      </trkpt>
      <trkpt lat="45.79864" lon="6.17956">
        <ele>1323</ele>
        <time>2000-01-01T07:54:18.000Z</time>
      </trkpt>
      <trkpt lat="45.79871" lon="6.17965">
        <ele>1320</ele>
        <time>2000-01-01T07:54:28.000Z</time>
      </trkpt>
      <trkpt lat="45.799" lon="6.17979">
        <ele>1320</ele>
        <time>2000-01-01T07:54:38.000Z</time>
      </trkpt>
      <trkpt lat="45.79909" lon="6.17985">
        <ele>1316.1</ele>
        <time>2000-01-01T07:54:48.000Z</time>
      </trkpt>
      <trkpt lat="45.79918" lon="6.1799">
        <ele>1320</ele>
        <time>2000-01-01T07:54:58.000Z</time>
      </trkpt>
      <trkpt lat="45.79929" lon="6.17993">
        <ele>1317.6</ele>
        <time>2000-01-01T07:55:08.000Z</time>
      </trkpt>
      <trkpt lat="45.79948" lon="6.1799">
        <ele>1320</ele>
        <time>2000-01-01T07:55:18.000Z</time>
      </trkpt>
      <trkpt lat="45.79958" lon="6.17993">
        <ele>1319.4</ele>
        <time>2000-01-01T07:55:28.000Z</time>
      </trkpt>
      <trkpt lat="45.79967" lon="6.17995">
        <ele>1319</ele>
        <time>2000-01-01T07:55:38.000Z</time>
      </trkpt>
      <trkpt lat="45.79977" lon="6.17996">
        <ele>1318.9</ele>
        <time>2000-01-01T07:55:48.000Z</time>
      </trkpt>
      <trkpt lat="45.79986" lon="6.17994">
        <ele>1316.8</ele>
        <time>2000-01-01T07:55:58.000Z</time>
      </trkpt>
      <trkpt lat="45.79995" lon="6.17995">
        <ele>1319</ele>
        <time>2000-01-01T07:56:08.000Z</time>
      </trkpt>
      <trkpt lat="45.80004" lon="6.18001">
        <ele>1318.8</ele>
        <time>2000-01-01T07:56:18.000Z</time>
      </trkpt>
      <trkpt lat="45.80013" lon="6.18005">
        <ele>1320</ele>
        <time>2000-01-01T07:56:28.000Z</time>
      </trkpt>
      <trkpt lat="45.80024" lon="6.18002">
        <ele>1323</ele>
        <time>2000-01-01T07:56:38.000Z</time>
      </trkpt>
      <trkpt lat="45.80042" lon="6.17992">
        <ele>1326</ele>
        <time>2000-01-01T07:56:48.000Z</time>
      </trkpt>
      <trkpt lat="45.80051" lon="6.17993">
        <ele>1324.4</ele>
        <time>2000-01-01T07:56:58.000Z</time>
      </trkpt>
      <trkpt lat="45.80073" lon="6.18">
        <ele>1326</ele>
        <time>2000-01-01T07:57:08.000Z</time>
      </trkpt>
      <trkpt lat="45.80102" lon="6.18007">
        <ele>1326</ele>
        <time>2000-01-01T07:57:18.000Z</time>
      </trkpt>
      <trkpt lat="45.80112" lon="6.18011">
        <ele>1322.2</ele>
        <time>2000-01-01T07:57:28.000Z</time>
      </trkpt>
      <trkpt lat="45.80121" lon="6.18012">
        <ele>1320</ele>
        <time>2000-01-01T07:57:38.000Z</time>
      </trkpt>
      <trkpt lat="45.80141" lon="6.18017">
        <ele>1316</ele>
        <time>2000-01-01T07:57:48.000Z</time>
      </trkpt>
      <trkpt lat="45.80162" lon="6.1802">
        <ele>1313</ele>
        <time>2000-01-01T07:57:58.000Z</time>
      </trkpt>
      <trkpt lat="45.80172" lon="6.18025">
        <ele>1310</ele>
        <time>2000-01-01T07:58:08.000Z</time>
      </trkpt>
      <trkpt lat="45.80183" lon="6.18024">
        <ele>1310</ele>
        <time>2000-01-01T07:58:18.000Z</time>
      </trkpt>
      <trkpt lat="45.80193" lon="6.18028">
        <ele>1307.3</ele>
        <time>2000-01-01T07:58:28.000Z</time>
      </trkpt>
      <trkpt lat="45.80202" lon="6.18031">
        <ele>1309</ele>
        <time>2000-01-01T07:58:38.000Z</time>
      </trkpt>
      <trkpt lat="45.80212" lon="6.18032">
        <ele>1308.8</ele>
        <time>2000-01-01T07:58:48.000Z</time>
      </trkpt>
      <trkpt lat="45.80221" lon="6.18036">
        <ele>1310</ele>
        <time>2000-01-01T07:58:58.000Z</time>
      </trkpt>
      <trkpt lat="45.80239" lon="6.18046">
        <ele>1312</ele>
        <time>2000-01-01T07:59:08.000Z</time>
      </trkpt>
      <trkpt lat="45.80248" lon="6.1805">
        <ele>1310.6</ele>
        <time>2000-01-01T07:59:18.000Z</time>
      </trkpt>
      <trkpt lat="45.80258" lon="6.18053">
        <ele>1312</ele>
        <time>2000-01-01T07:59:28.000Z</time>
      </trkpt>
      <trkpt lat="45.80269" lon="6.18054">
        <ele>1305.3</ele>
        <time>2000-01-01T07:59:38.000Z</time>
      </trkpt>
      <trkpt lat="45.80279" lon="6.18057">
        <ele>1304</ele>
        <time>2000-01-01T07:59:48.000Z</time>
      </trkpt>
      <trkpt lat="45.80287" lon="6.18061">
        <ele>1299.3</ele>
        <time>2000-01-01T07:59:58.000Z</time>
      </trkpt>
      <trkpt lat="45.80299" lon="6.18062">
        <ele>1300</ele>
        <time>2000-01-01T08:00:08.000Z</time>
      </trkpt>
      <trkpt lat="45.80319" lon="6.18067">
        <ele>1293</ele>
        <time>2000-01-01T08:00:18.000Z</time>
      </trkpt>
      <trkpt lat="45.80343" lon="6.18095">
        <ele>1279</ele>
        <time>2000-01-01T08:00:28.000Z</time>
      </trkpt>
      <trkpt lat="45.80354" lon="6.18093">
        <ele>1273.1</ele>
        <time>2000-01-01T08:00:38.000Z</time>
      </trkpt>
      <trkpt lat="45.80373" lon="6.18096">
        <ele>1268</ele>
        <time>2000-01-01T08:00:48.000Z</time>
      </trkpt>
      <trkpt lat="45.80393" lon="6.18107">
        <ele>1262</ele>
        <time>2000-01-01T08:00:58.000Z</time>
      </trkpt>
      <trkpt lat="45.80412" lon="6.18113">
        <ele>1256</ele>
        <time>2000-01-01T08:01:08.000Z</time>
      </trkpt>
      <trkpt lat="45.80424" lon="6.18118">
        <ele>1250.6</ele>
        <time>2000-01-01T08:01:18.000Z</time>
      </trkpt>
      <trkpt lat="45.80442" lon="6.18122">
        <ele>1246</ele>
        <time>2000-01-01T08:01:28.000Z</time>
      </trkpt>
      <trkpt lat="45.80453" lon="6.18126">
        <ele>1239.5</ele>
        <time>2000-01-01T08:01:38.000Z</time>
      </trkpt>
      <trkpt lat="45.80462" lon="6.18127">
        <ele>1238</ele>
        <time>2000-01-01T08:01:48.000Z</time>
      </trkpt>
      <trkpt lat="45.80471" lon="6.1813">
        <ele>1233.7</ele>
        <time>2000-01-01T08:01:58.000Z</time>
      </trkpt>
      <trkpt lat="45.80482" lon="6.18129">
        <ele>1230</ele>
        <time>2000-01-01T08:02:08.000Z</time>
      </trkpt>
      <trkpt lat="45.80493" lon="6.18132">
        <ele>1226.8</ele>
        <time>2000-01-01T08:02:18.000Z</time>
      </trkpt>
      <trkpt lat="45.80502" lon="6.18134">
        <ele>1226</ele>
        <time>2000-01-01T08:02:28.000Z</time>
      </trkpt>
      <trkpt lat="45.8052" lon="6.18141">
        <ele>1221</ele>
        <time>2000-01-01T08:02:38.000Z</time>
      </trkpt>
      <trkpt lat="45.80532" lon="6.18144">
        <ele>1216.8</ele>
        <time>2000-01-01T08:02:48.000Z</time>
      </trkpt>
      <trkpt lat="45.80542" lon="6.18151">
        <ele>1219</ele>
        <time>2000-01-01T08:02:58.000Z</time>
      </trkpt>
      <trkpt lat="45.80553" lon="6.18153">
        <ele>1214.5</ele>
        <time>2000-01-01T08:03:08.000Z</time>
      </trkpt>
      <trkpt lat="45.80561" lon="6.18161">
        <ele>1218</ele>
        <time>2000-01-01T08:03:18.000Z</time>
      </trkpt>
      <trkpt lat="45.80571" lon="6.18163">
        <ele>1212.9</ele>
        <time>2000-01-01T08:03:28.000Z</time>
      </trkpt>
      <trkpt lat="45.80578" lon="6.18173">
        <ele>1216</ele>
        <time>2000-01-01T08:03:38.000Z</time>
      </trkpt>
      <trkpt lat="45.80587" lon="6.18179">
        <ele>1209.1</ele>
        <time>2000-01-01T08:03:48.000Z</time>
      </trkpt>
      <trkpt lat="45.80597" lon="6.18176">
        <ele>1208</ele>
        <time>2000-01-01T08:03:58.000Z</time>
      </trkpt>
      <trkpt lat="45.8062" lon="6.1818">
        <ele>1201</ele>
        <time>2000-01-01T08:04:08.000Z</time>
      </trkpt>
      <trkpt lat="45.80637" lon="6.18191">
        <ele>1200</ele>
        <time>2000-01-01T08:04:18.000Z</time>
      </trkpt>
      <trkpt lat="45.80646" lon="6.18194">
        <ele>1194.2</ele>
        <time>2000-01-01T08:04:28.000Z</time>
      </trkpt>
      <trkpt lat="45.80666" lon="6.18223">
        <ele>1189</ele>
        <time>2000-01-01T08:04:38.000Z</time>
      </trkpt>
      <trkpt lat="45.80669" lon="6.18236">
        <ele>1182.5</ele>
        <time>2000-01-01T08:04:48.000Z</time>
      </trkpt>
      <trkpt lat="45.80679" lon="6.18236">
        <ele>1180</ele>
        <time>2000-01-01T08:04:58.000Z</time>
      </trkpt>
      <trkpt lat="45.8069" lon="6.18238">
        <ele>1177.4</ele>
        <time>2000-01-01T08:05:08.000Z</time>
      </trkpt>
      <trkpt lat="45.807" lon="6.18237">
        <ele>1176</ele>
        <time>2000-01-01T08:05:18.000Z</time>
      </trkpt>
      <trkpt lat="45.80709" lon="6.1824">
        <ele>1171.4</ele>
        <time>2000-01-01T08:05:28.000Z</time>
      </trkpt>
      <trkpt lat="45.80718" lon="6.18246">
        <ele>1173</ele>
        <time>2000-01-01T08:05:38.000Z</time>
      </trkpt>
      <trkpt lat="45.80726" lon="6.18255">
        <ele>1166.2</ele>
        <time>2000-01-01T08:05:48.000Z</time>
      </trkpt>
      <trkpt lat="45.80737" lon="6.18257">
        <ele>1166</ele>
        <time>2000-01-01T08:05:58.000Z</time>
      </trkpt>
      <trkpt lat="45.80748" lon="6.1826">
        <ele>1160.4</ele>
        <time>2000-01-01T08:06:08.000Z</time>
      </trkpt>
      <trkpt lat="45.80758" lon="6.1826">
        <ele>1161</ele>
        <time>2000-01-01T08:06:18.000Z</time>
      </trkpt>
      <trkpt lat="45.80769" lon="6.18263">
        <ele>1155.8</ele>
        <time>2000-01-01T08:06:28.000Z</time>
      </trkpt>
      <trkpt lat="45.80787" lon="6.18273">
        <ele>1153</ele>
        <time>2000-01-01T08:06:38.000Z</time>
      </trkpt>
      <trkpt lat="45.80798" lon="6.18277">
        <ele>1147.7</ele>
        <time>2000-01-01T08:06:48.000Z</time>
      </trkpt>
      <trkpt lat="45.80818" lon="6.18272">
        <ele>1141</ele>
        <time>2000-01-01T08:06:58.000Z</time>
      </trkpt>
      <trkpt lat="45.80827" lon="6.18277">
        <ele>1135.3</ele>
        <time>2000-01-01T08:07:08.000Z</time>
      </trkpt>
      <trkpt lat="45.80835" lon="6.1829">
        <ele>1135</ele>
        <time>2000-01-01T08:07:18.000Z</time>
      </trkpt>
      <trkpt lat="45.80842" lon="6.183">
        <ele>1129.1</ele>
        <time>2000-01-01T08:07:28.000Z</time>
      </trkpt>
      <trkpt lat="45.80852" lon="6.18306">
        <ele>1126</ele>
        <time>2000-01-01T08:07:38.000Z</time>
      </trkpt>
      <trkpt lat="45.80859" lon="6.18316">
        <ele>1121.9</ele>
        <time>2000-01-01T08:07:48.000Z</time>
      </trkpt>
      <trkpt lat="45.8087" lon="6.18315">
        <ele>1118</ele>
        <time>2000-01-01T08:07:58.000Z</time>
      </trkpt>
      <trkpt lat="45.80878" lon="6.18323">
        <ele>1113.5</ele>
        <time>2000-01-01T08:08:08.000Z</time>
      </trkpt>
      <trkpt lat="45.80887" lon="6.18328">
        <ele>1114</ele>
        <time>2000-01-01T08:08:18.000Z</time>
      </trkpt>
      <trkpt lat="45.80896" lon="6.18331">
        <ele>1107.3</ele>
        <time>2000-01-01T08:08:28.000Z</time>
      </trkpt>
      <trkpt lat="45.80902" lon="6.18343">
        <ele>1106</ele>
        <time>2000-01-01T08:08:38.000Z</time>
      </trkpt>
      <trkpt lat="45.80907" lon="6.18355">
        <ele>1100.4</ele>
        <time>2000-01-01T08:08:48.000Z</time>
      </trkpt>
      <trkpt lat="45.80916" lon="6.18362">
        <ele>1100</ele>
        <time>2000-01-01T08:08:58.000Z</time>
      </trkpt>
      <trkpt lat="45.80925" lon="6.18362">
        <ele>1096.6</ele>
        <time>2000-01-01T08:09:08.000Z</time>
      </trkpt>
      <trkpt lat="45.80931" lon="6.18372">
        <ele>1092.5</ele>
        <time>2000-01-01T08:09:18.000Z</time>
      </trkpt>
      <trkpt lat="45.8094" lon="6.18378">
        <ele>1095</ele>
        <time>2000-01-01T08:09:28.000Z</time>
      </trkpt>
      <trkpt lat="45.80949" lon="6.18381">
        <ele>1088.8</ele>
        <time>2000-01-01T08:09:38.000Z</time>
      </trkpt>
      <trkpt lat="45.80957" lon="6.18389">
        <ele>1090</ele>
        <time>2000-01-01T08:09:48.000Z</time>
      </trkpt>
      <trkpt lat="45.80967" lon="6.18395">
        <ele>1082.3</ele>
        <time>2000-01-01T08:09:58.000Z</time>
      </trkpt>
      <trkpt lat="45.80979" lon="6.18396">
        <ele>1084</ele>
        <time>2000-01-01T08:10:08.000Z</time>
      </trkpt>
      <trkpt lat="45.80991" lon="6.18399">
        <ele>1076.2</ele>
        <time>2000-01-01T08:10:18.000Z</time>
      </trkpt>
      <trkpt lat="45.81002" lon="6.18398">
        <ele>1074</ele>
        <time>2000-01-01T08:10:28.000Z</time>
      </trkpt>
      <trkpt lat="45.81015" lon="6.18401">
        <ele>1070.1</ele>
        <time>2000-01-01T08:10:38.000Z</time>
      </trkpt>
      <trkpt lat="45.81024" lon="6.18408">
        <ele>1069</ele>
        <time>2000-01-01T08:10:48.000Z</time>
      </trkpt>
      <trkpt lat="45.81035" lon="6.18413">
        <ele>1066.7</ele>
        <time>2000-01-01T08:10:58.000Z</time>
      </trkpt>
      <trkpt lat="45.81044" lon="6.1842">
        <ele>1065</ele>
        <time>2000-01-01T08:11:08.000Z</time>
      </trkpt>
      <trkpt lat="45.81053" lon="6.18422">
        <ele>1062.2</ele>
        <time>2000-01-01T08:11:18.000Z</time>
      </trkpt>
      <trkpt lat="45.81063" lon="6.1842">
        <ele>1062</ele>
        <time>2000-01-01T08:11:28.000Z</time>
      </trkpt>
      <trkpt lat="45.81071" lon="6.18427">
        <ele>1057.9</ele>
        <time>2000-01-01T08:11:38.000Z</time>
      </trkpt>
      <trkpt lat="45.81077" lon="6.18438">
        <ele>1060</ele>
        <time>2000-01-01T08:11:48.000Z</time>
      </trkpt>
      <trkpt lat="45.81098" lon="6.1845">
        <ele>1050</ele>
        <time>2000-01-01T08:11:58.000Z</time>
      </trkpt>
      <trkpt lat="45.81105" lon="6.18462">
        <ele>1045.8</ele>
        <time>2000-01-01T08:12:08.000Z</time>
      </trkpt>
      <trkpt lat="45.81111" lon="6.18471">
        <ele>1044</ele>
        <time>2000-01-01T08:12:18.000Z</time>
      </trkpt>
      <trkpt lat="45.8112" lon="6.18479">
        <ele>1041</ele>
        <time>2000-01-01T08:12:28.000Z</time>
      </trkpt>
      <trkpt lat="45.81129" lon="6.18484">
        <ele>1040</ele>
        <time>2000-01-01T08:12:38.000Z</time>
      </trkpt>
      <trkpt lat="45.81136" lon="6.18493">
        <ele>1036.4</ele>
        <time>2000-01-01T08:12:48.000Z</time>
      </trkpt>
      <trkpt lat="45.81145" lon="6.18497">
        <ele>1036</ele>
        <time>2000-01-01T08:12:58.000Z</time>
      </trkpt>
      <trkpt lat="45.81157" lon="6.18501">
        <ele>1035.3</ele>
        <time>2000-01-01T08:13:08.000Z</time>
      </trkpt>
      <trkpt lat="45.81179" lon="6.1851">
        <ele>1033</ele>
        <time>2000-01-01T08:13:18.000Z</time>
      </trkpt>
      <trkpt lat="45.81192" lon="6.1851">
        <ele>1027.4</ele>
        <time>2000-01-01T08:13:28.000Z</time>
      </trkpt>
      <trkpt lat="45.81202" lon="6.1851">
        <ele>1027</ele>
        <time>2000-01-01T08:13:38.000Z</time>
      </trkpt>
      <trkpt lat="45.81212" lon="6.18512">
        <ele>1021.3</ele>
        <time>2000-01-01T08:13:48.000Z</time>
      </trkpt>
      <trkpt lat="45.8122" lon="6.1852">
        <ele>1019</ele>
        <time>2000-01-01T08:13:58.000Z</time>
      </trkpt>
      <trkpt lat="45.81227" lon="6.18531">
        <ele>1014.9</ele>
        <time>2000-01-01T08:14:08.000Z</time>
      </trkpt>
      <trkpt lat="45.81234" lon="6.1854">
        <ele>1012</ele>
        <time>2000-01-01T08:14:18.000Z</time>
      </trkpt>
      <trkpt lat="45.8124" lon="6.1855">
        <ele>1007.3</ele>
        <time>2000-01-01T08:14:28.000Z</time>
      </trkpt>
      <trkpt lat="45.81249" lon="6.18555">
        <ele>1007</ele>
        <time>2000-01-01T08:14:38.000Z</time>
      </trkpt>
      <trkpt lat="45.8126" lon="6.18565">
        <ele>998.9</ele>
        <time>2000-01-01T08:14:48.000Z</time>
      </trkpt>
      <trkpt lat="45.81267" lon="6.18574">
        <ele>999</ele>
        <time>2000-01-01T08:14:58.000Z</time>
      </trkpt>
      <trkpt lat="45.81275" lon="6.18586">
        <ele>991.2</ele>
        <time>2000-01-01T08:15:08.000Z</time>
      </trkpt>
      <trkpt lat="45.81284" lon="6.18593">
        <ele>990</ele>
        <time>2000-01-01T08:15:18.000Z</time>
      </trkpt>
      <trkpt lat="45.81293" lon="6.18597">
        <ele>984.6</ele>
        <time>2000-01-01T08:15:28.000Z</time>
      </trkpt>
      <trkpt lat="45.81302" lon="6.18603">
        <ele>984</ele>
        <time>2000-01-01T08:15:38.000Z</time>
      </trkpt>
      <trkpt lat="45.81309" lon="6.1861">
        <ele>979.1</ele>
        <time>2000-01-01T08:15:48.000Z</time>
      </trkpt>
      <trkpt lat="45.81319" lon="6.18614">
        <ele>974</ele>
        <time>2000-01-01T08:15:58.000Z</time>
      </trkpt>
      <trkpt lat="45.81336" lon="6.18625">
        <ele>971</ele>
        <time>2000-01-01T08:16:08.000Z</time>
      </trkpt>
      <trkpt lat="45.81347" lon="6.18629">
        <ele>960.6</ele>
        <time>2000-01-01T08:16:18.000Z</time>
      </trkpt>
      <trkpt lat="45.81355" lon="6.18636">
        <ele>961</ele>
        <time>2000-01-01T08:16:28.000Z</time>
      </trkpt>
      <trkpt lat="45.81363" lon="6.18641">
        <ele>952.9</ele>
        <time>2000-01-01T08:16:38.000Z</time>
      </trkpt>
      <trkpt lat="45.81373" lon="6.18638">
        <ele>954</ele>
        <time>2000-01-01T08:16:48.000Z</time>
      </trkpt>
      <trkpt lat="45.81381" lon="6.18648">
        <ele>943.8</ele>
        <time>2000-01-01T08:16:58.000Z</time>
      </trkpt>
      <trkpt lat="45.8139" lon="6.18656">
        <ele>945</ele>
        <time>2000-01-01T08:17:08.000Z</time>
      </trkpt>
      <trkpt lat="45.81398" lon="6.18662">
        <ele>935.7</ele>
        <time>2000-01-01T08:17:18.000Z</time>
      </trkpt>
      <trkpt lat="45.81407" lon="6.18667">
        <ele>936</ele>
        <time>2000-01-01T08:17:28.000Z</time>
      </trkpt>
      <trkpt lat="45.81415" lon="6.18677">
        <ele>928.5</ele>
        <time>2000-01-01T08:17:38.000Z</time>
      </trkpt>
      <trkpt lat="45.81421" lon="6.18686">
        <ele>927</ele>
        <time>2000-01-01T08:17:48.000Z</time>
      </trkpt>
      <trkpt lat="45.8143" lon="6.18694">
        <ele>921.2</ele>
        <time>2000-01-01T08:17:58.000Z</time>
      </trkpt>
      <trkpt lat="45.81437" lon="6.18707">
        <ele>921</ele>
        <time>2000-01-01T08:18:08.000Z</time>
      </trkpt>
      <trkpt lat="45.81447" lon="6.18714">
        <ele>912</ele>
        <time>2000-01-01T08:18:18.000Z</time>
      </trkpt>
      <trkpt lat="45.81454" lon="6.18721">
        <ele>910</ele>
        <time>2000-01-01T08:18:28.000Z</time>
      </trkpt>
      <trkpt lat="45.81464" lon="6.18724">
        <ele>906.3</ele>
        <time>2000-01-01T08:18:38.000Z</time>
      </trkpt>
      <trkpt lat="45.81472" lon="6.18713">
        <ele>910</ele>
        <time>2000-01-01T08:18:48.000Z</time>
      </trkpt>
      <trkpt lat="45.81482" lon="6.1872">
        <ele>904.1</ele>
        <time>2000-01-01T08:18:58.000Z</time>
      </trkpt>
      <trkpt lat="45.81489" lon="6.18731">
        <ele>903</ele>
        <time>2000-01-01T08:19:08.000Z</time>
      </trkpt>
      <trkpt lat="45.81495" lon="6.18739">
        <ele>897.4</ele>
        <time>2000-01-01T08:19:18.000Z</time>
      </trkpt>
      <trkpt lat="45.81504" lon="6.18747">
        <ele>899</ele>
        <time>2000-01-01T08:19:28.000Z</time>
      </trkpt>
      <trkpt lat="45.81511" lon="6.18759">
        <ele>889.1</ele>
        <time>2000-01-01T08:19:38.000Z</time>
      </trkpt>
      <trkpt lat="45.81516" lon="6.18772">
        <ele>887</ele>
        <time>2000-01-01T08:19:48.000Z</time>
      </trkpt>
      <trkpt lat="45.81522" lon="6.18783">
        <ele>879.7</ele>
        <time>2000-01-01T08:19:58.000Z</time>
      </trkpt>
      <trkpt lat="45.81533" lon="6.18785">
        <ele>882</ele>
        <time>2000-01-01T08:20:08.000Z</time>
      </trkpt>
      <trkpt lat="45.81543" lon="6.18789">
        <ele>874.3</ele>
        <time>2000-01-01T08:20:18.000Z</time>
      </trkpt>
      <trkpt lat="45.81552" lon="6.18792">
        <ele>873</ele>
        <time>2000-01-01T08:20:28.000Z</time>
      </trkpt>
      <trkpt lat="45.81562" lon="6.18793">
        <ele>868.2</ele>
        <time>2000-01-01T08:20:38.000Z</time>
      </trkpt>
      <trkpt lat="45.81571" lon="6.18787">
        <ele>867</ele>
        <time>2000-01-01T08:20:48.000Z</time>
      </trkpt>
      <trkpt lat="45.81577" lon="6.18799">
        <ele>860.4</ele>
        <time>2000-01-01T08:20:58.000Z</time>
      </trkpt>
      <trkpt lat="45.81581" lon="6.18812">
        <ele>857</ele>
        <time>2000-01-01T08:21:08.000Z</time>
      </trkpt>
      <trkpt lat="45.81582" lon="6.18825">
        <ele>852.4</ele>
        <time>2000-01-01T08:21:18.000Z</time>
      </trkpt>
      <trkpt lat="45.8159" lon="6.18849">
        <ele>844</ele>
        <time>2000-01-01T08:21:28.000Z</time>
      </trkpt>
      <trkpt lat="45.81595" lon="6.1886">
        <ele>839.2</ele>
        <time>2000-01-01T08:21:38.000Z</time>
      </trkpt>
      <trkpt lat="45.81598" lon="6.18876">
        <ele>836</ele>
        <time>2000-01-01T08:21:48.000Z</time>
      </trkpt>
      <trkpt lat="45.81589" lon="6.18885">
        <ele>830</ele>
        <time>2000-01-01T08:21:58.000Z</time>
      </trkpt>
      <trkpt lat="45.8157" lon="6.18892">
        <ele>825</ele>
        <time>2000-01-01T08:22:08.000Z</time>
      </trkpt>
      <trkpt lat="45.81562" lon="6.18898">
        <ele>821.3</ele>
        <time>2000-01-01T08:22:18.000Z</time>
      </trkpt>
      <trkpt lat="45.81556" lon="6.18909">
        <ele>815.6</ele>
        <time>2000-01-01T08:22:28.000Z</time>
      </trkpt>
      <trkpt lat="45.81549" lon="6.18919">
        <ele>815</ele>
        <time>2000-01-01T08:22:38.000Z</time>
      </trkpt>
      <trkpt lat="45.81532" lon="6.18931">
        <ele>803</ele>
        <time>2000-01-01T08:22:48.000Z</time>
      </trkpt>
      <trkpt lat="45.81522" lon="6.18937">
        <ele>802</ele>
        <time>2000-01-01T08:22:58.000Z</time>
      </trkpt>
      <trkpt lat="45.81502" lon="6.18944">
        <ele>799</ele>
        <time>2000-01-01T08:23:08.000Z</time>
      </trkpt>
      <trkpt lat="45.81493" lon="6.1895">
        <ele>794.8</ele>
        <time>2000-01-01T08:23:18.000Z</time>
      </trkpt>
      <trkpt lat="45.81485" lon="6.18957">
        <ele>795</ele>
        <time>2000-01-01T08:23:28.000Z</time>
      </trkpt>
      <trkpt lat="45.81476" lon="6.18962">
        <ele>787.3</ele>
        <time>2000-01-01T08:23:38.000Z</time>
      </trkpt>
      <trkpt lat="45.81465" lon="6.18967">
        <ele>785</ele>
        <time>2000-01-01T08:23:48.000Z</time>
      </trkpt>
      <trkpt lat="45.81456" lon="6.18973">
        <ele>778.6</ele>
        <time>2000-01-01T08:23:58.000Z</time>
      </trkpt>
      <trkpt lat="45.81447" lon="6.18978">
        <ele>776</ele>
        <time>2000-01-01T08:24:08.000Z</time>
      </trkpt>
      <trkpt lat="45.81436" lon="6.18977">
        <ele>773.3</ele>
        <time>2000-01-01T08:24:18.000Z</time>
      </trkpt>
      <trkpt lat="45.81427" lon="6.18974">
        <ele>774</ele>
        <time>2000-01-01T08:24:28.000Z</time>
      </trkpt>
      <trkpt lat="45.81418" lon="6.18969">
        <ele>774.7</ele>
        <time>2000-01-01T08:24:38.000Z</time>
      </trkpt>
      <trkpt lat="45.81411" lon="6.18979">
        <ele>772</ele>
        <time>2000-01-01T08:24:48.000Z</time>
      </trkpt>
      <trkpt lat="45.81403" lon="6.18986">
        <ele>763.6</ele>
        <time>2000-01-01T08:24:58.000Z</time>
      </trkpt>
      <trkpt lat="45.81384" lon="6.18993">
        <ele>756</ele>
        <time>2000-01-01T08:25:08.000Z</time>
      </trkpt>
      <trkpt lat="45.81375" lon="6.19002">
        <ele>752</ele>
        <time>2000-01-01T08:25:18.000Z</time>
      </trkpt>
      <trkpt lat="45.81363" lon="6.19006">
        <ele>750</ele>
        <time>2000-01-01T08:25:28.000Z</time>
      </trkpt>
      <trkpt lat="45.81353" lon="6.19004">
        <ele>747.2</ele>
        <time>2000-01-01T08:25:38.000Z</time>
      </trkpt>
      <trkpt lat="45.81343" lon="6.19001">
        <ele>745</ele>
        <time>2000-01-01T08:25:48.000Z</time>
      </trkpt>
      <trkpt lat="45.81334" lon="6.19003">
        <ele>743.5</ele>
        <time>2000-01-01T08:25:58.000Z</time>
      </trkpt>
      <trkpt lat="45.81325" lon="6.18998">
        <ele>745</ele>
        <time>2000-01-01T08:26:08.000Z</time>
      </trkpt>
      <trkpt lat="45.81316" lon="6.18997">
        <ele>741.7</ele>
        <time>2000-01-01T08:26:18.000Z</time>
      </trkpt>
      <trkpt lat="45.81305" lon="6.19">
        <ele>736</ele>
        <time>2000-01-01T08:26:28.000Z</time>
      </trkpt>
      <trkpt lat="45.81296" lon="6.19005">
        <ele>734.9</ele>
        <time>2000-01-01T08:26:38.000Z</time>
      </trkpt>
      <trkpt lat="45.8128" lon="6.19023">
        <ele>726</ele>
        <time>2000-01-01T08:26:48.000Z</time>
      </trkpt>
      <trkpt lat="45.81275" lon="6.19035">
        <ele>722.1</ele>
        <time>2000-01-01T08:26:58.000Z</time>
      </trkpt>
      <trkpt lat="45.81275" lon="6.19048">
        <ele>717.8</ele>
        <time>2000-01-01T08:27:08.000Z</time>
      </trkpt>
      <trkpt lat="45.81265" lon="6.19074">
        <ele>712</ele>
        <time>2000-01-01T08:27:18.000Z</time>
      </trkpt>
      <trkpt lat="45.81256" lon="6.19075">
        <ele>711.6</ele>
        <time>2000-01-01T08:27:28.000Z</time>
      </trkpt>
      <trkpt lat="45.81256" lon="6.19092">
        <ele>707</ele>
        <time>2000-01-01T08:27:38.000Z</time>
      </trkpt>
      <trkpt lat="45.81252" lon="6.19103">
        <ele>704.2</ele>
        <time>2000-01-01T08:27:48.000Z</time>
      </trkpt>
      <trkpt lat="45.81249" lon="6.19117">
        <ele>700</ele>
        <time>2000-01-01T08:27:58.000Z</time>
      </trkpt>
      <trkpt lat="45.81243" lon="6.19128">
        <ele>696.4</ele>
        <time>2000-01-01T08:28:08.000Z</time>
      </trkpt>
      <trkpt lat="45.81233" lon="6.19131">
        <ele>694</ele>
        <time>2000-01-01T08:28:18.000Z</time>
      </trkpt>
      <trkpt lat="45.81224" lon="6.19135">
        <ele>692.3</ele>
        <time>2000-01-01T08:28:28.000Z</time>
      </trkpt>
      <trkpt lat="45.81221" lon="6.19148">
        <ele>688.6</ele>
        <time>2000-01-01T08:28:38.000Z</time>
      </trkpt>
      <trkpt lat="45.81215" lon="6.19157">
        <ele>686</ele>
        <time>2000-01-01T08:28:48.000Z</time>
      </trkpt>
      <trkpt lat="45.81205" lon="6.19166">
        <ele>682.3</ele>
        <time>2000-01-01T08:28:58.000Z</time>
      </trkpt>
      <trkpt lat="45.81195" lon="6.19168">
        <ele>683</ele>
        <time>2000-01-01T08:29:08.000Z</time>
      </trkpt>
      <trkpt lat="45.81185" lon="6.1917">
        <ele>680.4</ele>
        <time>2000-01-01T08:29:18.000Z</time>
      </trkpt>
      <trkpt lat="45.81169" lon="6.19192">
        <ele>675</ele>
        <time>2000-01-01T08:29:28.000Z</time>
      </trkpt>
      <trkpt lat="45.81166" lon="6.19206">
        <ele>672.4</ele>
        <time>2000-01-01T08:29:38.000Z</time>
      </trkpt>
      <trkpt lat="45.81155" lon="6.1923">
        <ele>666</ele>
        <time>2000-01-01T08:29:48.000Z</time>
      </trkpt>
      <trkpt lat="45.81147" lon="6.1924">
        <ele>662.9</ele>
        <time>2000-01-01T08:29:58.000Z</time>
      </trkpt>
      <trkpt lat="45.81138" lon="6.19249">
        <ele>663</ele>
        <time>2000-01-01T08:30:08.000Z</time>
      </trkpt>
      <trkpt lat="45.81129" lon="6.19252">
        <ele>661.6</ele>
        <time>2000-01-01T08:30:18.000Z</time>
      </trkpt>
      <trkpt lat="45.8112" lon="6.1926">
        <ele>662</ele>
        <time>2000-01-01T08:30:28.000Z</time>
      </trkpt>
      <trkpt lat="45.8111" lon="6.19264">
        <ele>663</ele>
        <time>2000-01-01T08:30:38.000Z</time>
      </trkpt>
      <trkpt lat="45.81103" lon="6.19273">
        <ele>662</ele>
        <time>2000-01-01T08:30:48.000Z</time>
      </trkpt>
      <trkpt lat="45.81085" lon="6.19292">
        <ele>661</ele>
        <time>2000-01-01T08:30:58.000Z</time>
      </trkpt>
      <trkpt lat="45.81065" lon="6.19305">
        <ele>660</ele>
        <time>2000-01-01T08:31:08.000Z</time>
      </trkpt>
      <trkpt lat="45.81056" lon="6.19305">
        <ele>657.1</ele>
        <time>2000-01-01T08:31:18.000Z</time>
      </trkpt>
      <trkpt lat="45.81047" lon="6.19303">
        <ele>657.3</ele>
        <time>2000-01-01T08:31:28.000Z</time>
      </trkpt>
      <trkpt lat="45.81041" lon="6.19288">
        <ele>659</ele>
        <time>2000-01-01T08:31:38.000Z</time>
      </trkpt>
      <trkpt lat="45.81042" lon="6.19286">
        <ele>659.5</ele>
        <time>2000-01-01T08:31:48.000Z</time>
      </trkpt>
      <trkpt lat="45.8104" lon="6.19286">
        <ele>659.4</ele>
        <time>2000-01-01T08:31:58.000Z</time>
      </trkpt>
      <trkpt lat="45.81027" lon="6.19299">
        <ele>658</ele>
        <time>2000-01-01T08:32:08.000Z</time>
      </trkpt>
      <trkpt lat="45.8101" lon="6.19314">
        <ele>657</ele>
        <time>2000-01-01T08:32:18.000Z</time>
      </trkpt>
      <trkpt lat="45.80982" lon="6.19334">
        <ele>657</ele>
        <time>2000-01-01T08:32:28.000Z</time>
      </trkpt>
      <trkpt lat="45.80972" lon="6.19332">
        <ele>658.1</ele>
        <time>2000-01-01T08:32:38.000Z</time>
      </trkpt>
      <trkpt lat="45.80963" lon="6.19324">
        <ele>658</ele>
        <time>2000-01-01T08:32:48.000Z</time>
      </trkpt>
      <trkpt lat="45.80953" lon="6.19321">
        <ele>660.1</ele>
        <time>2000-01-01T08:32:58.000Z</time>
      </trkpt>
      <trkpt lat="45.80934" lon="6.19327">
        <ele>662</ele>
        <time>2000-01-01T08:33:08.000Z</time>
      </trkpt>
      <trkpt lat="45.8091" lon="6.19347">
        <ele>663</ele>
        <time>2000-01-01T08:33:18.000Z</time>
      </trkpt>
      <trkpt lat="45.80894" lon="6.19364">
        <ele>665</ele>
        <time>2000-01-01T08:33:28.000Z</time>
      </trkpt>
      <trkpt lat="45.80886" lon="6.19369">
        <ele>665.6</ele>
        <time>2000-01-01T08:33:38.000Z</time>
      </trkpt>
      <trkpt lat="45.80833" lon="6.19388">
        <ele>667</ele>
        <time>2000-01-01T08:33:48.000Z</time>
      </trkpt>
      <trkpt lat="45.80828" lon="6.19399">
        <ele>668.2</ele>
        <time>2000-01-01T08:33:58.000Z</time>
      </trkpt>
      <trkpt lat="45.80799" lon="6.19407">
        <ele>671</ele>
        <time>2000-01-01T08:34:08.000Z</time>
      </trkpt>
      <trkpt lat="45.80771" lon="6.19412">
        <ele>677</ele>
        <time>2000-01-01T08:34:18.000Z</time>
      </trkpt>
      <trkpt lat="45.80762" lon="6.19416">
        <ele>679.2</ele>
        <time>2000-01-01T08:34:28.000Z</time>
      </trkpt>
      <trkpt lat="45.80741" lon="6.19413">
        <ele>682</ele>
        <time>2000-01-01T08:34:38.000Z</time>
      </trkpt>
      <trkpt lat="45.8073" lon="6.19407">
        <ele>682.1</ele>
        <time>2000-01-01T08:34:48.000Z</time>
      </trkpt>
      <trkpt lat="45.80718" lon="6.19406">
        <ele>684</ele>
        <time>2000-01-01T08:34:58.000Z</time>
      </trkpt>
      <trkpt lat="45.80699" lon="6.19406">
        <ele>687</ele>
        <time>2000-01-01T08:35:08.000Z</time>
      </trkpt>
      <trkpt lat="45.80689" lon="6.19404">
        <ele>690.6</ele>
        <time>2000-01-01T08:35:18.000Z</time>
      </trkpt>
      <trkpt lat="45.80679" lon="6.19399">
        <ele>691</ele>
        <time>2000-01-01T08:35:28.000Z</time>
      </trkpt>
      <trkpt lat="45.80669" lon="6.19398">
        <ele>693.7</ele>
        <time>2000-01-01T08:35:38.000Z</time>
      </trkpt>
      <trkpt lat="45.8066" lon="6.194">
        <ele>696.2</ele>
        <time>2000-01-01T08:35:48.000Z</time>
      </trkpt>
      <trkpt lat="45.80652" lon="6.19408">
        <ele>698</ele>
        <time>2000-01-01T08:35:58.000Z</time>
      </trkpt>
      <trkpt lat="45.80642" lon="6.19411">
        <ele>702.9</ele>
        <time>2000-01-01T08:36:08.000Z</time>
      </trkpt>
      <trkpt lat="45.80632" lon="6.19419">
        <ele>703</ele>
        <time>2000-01-01T08:36:18.000Z</time>
      </trkpt>
      <trkpt lat="45.80629" lon="6.19431">
        <ele>709.2</ele>
        <time>2000-01-01T08:36:28.000Z</time>
      </trkpt>
      <trkpt lat="45.80637" lon="6.19441">
        <ele>709</ele>
        <time>2000-01-01T08:36:38.000Z</time>
      </trkpt>
      <trkpt lat="45.8064" lon="6.19454">
        <ele>713.9</ele>
        <time>2000-01-01T08:36:48.000Z</time>
      </trkpt>
      <trkpt lat="45.80647" lon="6.19462">
        <ele>715</ele>
        <time>2000-01-01T08:36:58.000Z</time>
      </trkpt>
      <trkpt lat="45.80652" lon="6.19473">
        <ele>718.3</ele>
        <time>2000-01-01T08:37:08.000Z</time>
      </trkpt>
      <trkpt lat="45.80654" lon="6.19486">
        <ele>721.3</ele>
        <time>2000-01-01T08:37:18.000Z</time>
      </trkpt>
      <trkpt lat="45.80645" lon="6.19488">
        <ele>721</ele>
        <time>2000-01-01T08:37:28.000Z</time>
      </trkpt>
      <trkpt lat="45.80645" lon="6.19501">
        <ele>727</ele>
        <time>2000-01-01T08:37:38.000Z</time>
      </trkpt>
      <trkpt lat="45.80647" lon="6.19513">
        <ele>730.3</ele>
        <time>2000-01-01T08:37:48.000Z</time>
      </trkpt>
      <trkpt lat="45.8065" lon="6.19526">
        <ele>732</ele>
        <time>2000-01-01T08:37:58.000Z</time>
      </trkpt>
      <trkpt lat="45.80641" lon="6.19529">
        <ele>736.2</ele>
        <time>2000-01-01T08:38:08.000Z</time>
      </trkpt>
      <trkpt lat="45.80632" lon="6.19526">
        <ele>737.2</ele>
        <time>2000-01-01T08:38:18.000Z</time>
      </trkpt>
      <trkpt lat="45.80612" lon="6.19526">
        <ele>741</ele>
        <time>2000-01-01T08:38:28.000Z</time>
      </trkpt>
      <trkpt lat="45.8062" lon="6.19536">
        <ele>743.6</ele>
        <time>2000-01-01T08:38:38.000Z</time>
      </trkpt>
      <trkpt lat="45.80633" lon="6.19557">
        <ele>745</ele>
        <time>2000-01-01T08:38:48.000Z</time>
      </trkpt>
      <trkpt lat="45.80637" lon="6.19569">
        <ele>751.1</ele>
        <time>2000-01-01T08:38:58.000Z</time>
      </trkpt>
      <trkpt lat="45.80643" lon="6.19595">
        <ele>750</ele>
        <time>2000-01-01T08:39:08.000Z</time>
      </trkpt>
      <trkpt lat="45.80653" lon="6.19597">
        <ele>756.7</ele>
        <time>2000-01-01T08:39:18.000Z</time>
      </trkpt>
      <trkpt lat="45.80663" lon="6.19603">
        <ele>752</ele>
        <time>2000-01-01T08:39:28.000Z</time>
      </trkpt>
      <trkpt lat="45.80675" lon="6.19607">
        <ele>756.3</ele>
        <time>2000-01-01T08:39:38.000Z</time>
      </trkpt>
      <trkpt lat="45.80685" lon="6.19607">
        <ele>752</ele>
        <time>2000-01-01T08:39:48.000Z</time>
      </trkpt>
      <trkpt lat="45.80697" lon="6.19611">
        <ele>754.8</ele>
        <time>2000-01-01T08:39:58.000Z</time>
      </trkpt>
      <trkpt lat="45.80705" lon="6.19617">
        <ele>753</ele>
        <time>2000-01-01T08:40:08.000Z</time>
      </trkpt>
      <trkpt lat="45.80731" lon="6.19644">
        <ele>757</ele>
        <time>2000-01-01T08:40:18.000Z</time>
      </trkpt>
      <trkpt lat="45.80759" lon="6.19668">
        <ele>757</ele>
        <time>2000-01-01T08:40:28.000Z</time>
      </trkpt>
      <trkpt lat="45.80765" lon="6.1968">
        <ele>757.8</ele>
        <time>2000-01-01T08:40:38.000Z</time>
      </trkpt>
      <trkpt lat="45.80764" lon="6.19693">
        <ele>758</ele>
        <time>2000-01-01T08:40:48.000Z</time>
      </trkpt>
      <trkpt lat="45.80757" lon="6.19701">
        <ele>760.2</ele>
        <time>2000-01-01T08:40:58.000Z</time>
      </trkpt>
      <trkpt lat="45.80748" lon="6.19703">
        <ele>762</ele>
        <time>2000-01-01T08:41:08.000Z</time>
      </trkpt>
      <trkpt lat="45.80737" lon="6.19699">
        <ele>765</ele>
        <time>2000-01-01T08:41:18.000Z</time>
      </trkpt>
      <trkpt lat="45.80728" lon="6.19693">
        <ele>765.6</ele>
        <time>2000-01-01T08:41:28.000Z</time>
      </trkpt>
      <trkpt lat="45.80719" lon="6.19691">
        <ele>765</ele>
        <time>2000-01-01T08:41:38.000Z</time>
      </trkpt>
      <trkpt lat="45.8071" lon="6.19685">
        <ele>766.9</ele>
        <time>2000-01-01T08:41:48.000Z</time>
      </trkpt>
      <trkpt lat="45.80692" lon="6.19671">
        <ele>765</ele>
        <time>2000-01-01T08:41:58.000Z</time>
      </trkpt>
      <trkpt lat="45.80681" lon="6.19668">
        <ele>766.7</ele>
        <time>2000-01-01T08:42:08.000Z</time>
      </trkpt>
      <trkpt lat="45.8066" lon="6.19657">
        <ele>765</ele>
        <time>2000-01-01T08:42:18.000Z</time>
      </trkpt>
      <trkpt lat="45.80651" lon="6.19654">
        <ele>766.2</ele>
        <time>2000-01-01T08:42:28.000Z</time>
      </trkpt>
      <trkpt lat="45.80639" lon="6.19653">
        <ele>766</ele>
        <time>2000-01-01T08:42:38.000Z</time>
      </trkpt>
      <trkpt lat="45.8062" lon="6.19648">
        <ele>767</ele>
        <time>2000-01-01T08:42:48.000Z</time>
      </trkpt>
      <trkpt lat="45.80609" lon="6.19647">
        <ele>768.3</ele>
        <time>2000-01-01T08:42:58.000Z</time>
      </trkpt>
      <trkpt lat="45.80598" lon="6.19643">
        <ele>771</ele>
        <time>2000-01-01T08:43:08.000Z</time>
      </trkpt>
      <trkpt lat="45.80589" lon="6.19641">
        <ele>771.9</ele>
        <time>2000-01-01T08:43:18.000Z</time>
      </trkpt>
      <trkpt lat="45.80579" lon="6.19638">
        <ele>775</ele>
        <time>2000-01-01T08:43:28.000Z</time>
      </trkpt>
      <trkpt lat="45.8057" lon="6.19634">
        <ele>775.8</ele>
        <time>2000-01-01T08:43:38.000Z</time>
      </trkpt>
      <trkpt lat="45.8056" lon="6.19634">
        <ele>778</ele>
        <time>2000-01-01T08:43:48.000Z</time>
      </trkpt>
      <trkpt lat="45.80543" lon="6.19628">
        <ele>780.9</ele>
        <time>2000-01-01T08:43:58.000Z</time>
      </trkpt>
      <trkpt lat="45.80523" lon="6.19626">
        <ele>786</ele>
        <time>2000-01-01T08:44:08.000Z</time>
      </trkpt>
      <trkpt lat="45.80513" lon="6.19623">
        <ele>786.2</ele>
        <time>2000-01-01T08:44:18.000Z</time>
      </trkpt>
      <trkpt lat="45.80486" lon="6.1961">
        <ele>792</ele>
        <time>2000-01-01T08:44:28.000Z</time>
      </trkpt>
      <trkpt lat="45.80477" lon="6.19612">
        <ele>794</ele>
        <time>2000-01-01T08:44:38.000Z</time>
      </trkpt>
      <trkpt lat="45.80467" lon="6.19608">
        <ele>797</ele>
        <time>2000-01-01T08:44:48.000Z</time>
      </trkpt>
      <trkpt lat="45.80458" lon="6.19609">
        <ele>798</ele>
        <time>2000-01-01T08:44:58.000Z</time>
      </trkpt>
      <trkpt lat="45.80438" lon="6.19604">
        <ele>800</ele>
        <time>2000-01-01T08:45:08.000Z</time>
      </trkpt>
      <trkpt lat="45.80428" lon="6.19601">
        <ele>803.2</ele>
        <time>2000-01-01T08:45:18.000Z</time>
      </trkpt>
      <trkpt lat="45.8042" lon="6.19597">
        <ele>803</ele>
        <time>2000-01-01T08:45:28.000Z</time>
      </trkpt>
      <trkpt lat="45.80393" lon="6.19587">
        <ele>809</ele>
        <time>2000-01-01T08:45:38.000Z</time>
      </trkpt>
      <trkpt lat="45.80383" lon="6.19583">
        <ele>810.2</ele>
        <time>2000-01-01T08:45:48.000Z</time>
      </trkpt>
      <trkpt lat="45.80373" lon="6.19581">
        <ele>811</ele>
        <time>2000-01-01T08:45:58.000Z</time>
      </trkpt>
      <trkpt lat="45.80362" lon="6.19581">
        <ele>814.1</ele>
        <time>2000-01-01T08:46:08.000Z</time>
      </trkpt>
      <trkpt lat="45.80352" lon="6.19582">
        <ele>815</ele>
        <time>2000-01-01T08:46:18.000Z</time>
      </trkpt>
      <trkpt lat="45.80334" lon="6.19576">
        <ele>817.3</ele>
        <time>2000-01-01T08:46:28.000Z</time>
      </trkpt>
      <trkpt lat="45.80324" lon="6.19575">
        <ele>822</ele>
        <time>2000-01-01T08:46:38.000Z</time>
      </trkpt>
      <trkpt lat="45.80315" lon="6.1957">
        <ele>821.7</ele>
        <time>2000-01-01T08:46:48.000Z</time>
      </trkpt>
      <trkpt lat="45.80306" lon="6.19567">
        <ele>824</ele>
        <time>2000-01-01T08:46:58.000Z</time>
      </trkpt>
      <trkpt lat="45.80296" lon="6.19567">
        <ele>825.6</ele>
        <time>2000-01-01T08:47:08.000Z</time>
      </trkpt>
      <trkpt lat="45.80255" lon="6.19559">
        <ele>832</ele>
        <time>2000-01-01T08:47:18.000Z</time>
      </trkpt>
      <trkpt lat="45.80245" lon="6.19554">
        <ele>832.3</ele>
        <time>2000-01-01T08:47:28.000Z</time>
      </trkpt>
      <trkpt lat="45.80225" lon="6.19548">
        <ele>834</ele>
        <time>2000-01-01T08:47:38.000Z</time>
      </trkpt>
      <trkpt lat="45.80206" lon="6.19547">
        <ele>833</ele>
        <time>2000-01-01T08:47:48.000Z</time>
      </trkpt>
      <trkpt lat="45.80196" lon="6.19548">
        <ele>834.4</ele>
        <time>2000-01-01T08:47:58.000Z</time>
      </trkpt>
      <trkpt lat="45.80187" lon="6.19546">
        <ele>833</ele>
        <time>2000-01-01T08:48:08.000Z</time>
      </trkpt>
      <trkpt lat="45.80178" lon="6.19545">
        <ele>831.8</ele>
        <time>2000-01-01T08:48:18.000Z</time>
      </trkpt>
      <trkpt lat="45.80168" lon="6.19543">
        <ele>830.3</ele>
        <time>2000-01-01T08:48:28.000Z</time>
      </trkpt>
      <trkpt lat="45.80143" lon="6.19537">
        <ele>829</ele>
        <time>2000-01-01T08:48:38.000Z</time>
      </trkpt>
      <trkpt lat="45.80133" lon="6.19533">
        <ele>827.8</ele>
        <time>2000-01-01T08:48:48.000Z</time>
      </trkpt>
      <trkpt lat="45.80111" lon="6.19526">
        <ele>829</ele>
        <time>2000-01-01T08:48:58.000Z</time>
      </trkpt>
      <trkpt lat="45.8009" lon="6.19521">
        <ele>828</ele>
        <time>2000-01-01T08:49:08.000Z</time>
      </trkpt>
      <trkpt lat="45.8008" lon="6.1952">
        <ele>828</ele>
        <time>2000-01-01T08:49:18.000Z</time>
      </trkpt>
      <trkpt lat="45.80071" lon="6.19517">
        <ele>828</ele>
        <time>2000-01-01T08:49:28.000Z</time>
      </trkpt>
      <trkpt lat="45.80063" lon="6.19509">
        <ele>826</ele>
        <time>2000-01-01T08:49:38.000Z</time>
      </trkpt>
      <trkpt lat="45.80044" lon="6.195">
        <ele>824</ele>
        <time>2000-01-01T08:49:48.000Z</time>
      </trkpt>
      <trkpt lat="45.80035" lon="6.1949">
        <ele>822.4</ele>
        <time>2000-01-01T08:49:58.000Z</time>
      </trkpt>
      <trkpt lat="45.80029" lon="6.19481">
        <ele>821</ele>
        <time>2000-01-01T08:50:08.000Z</time>
      </trkpt>
      <trkpt lat="45.8002" lon="6.19473">
        <ele>820.1</ele>
        <time>2000-01-01T08:50:18.000Z</time>
      </trkpt>
      <trkpt lat="45.8001" lon="6.19467">
        <ele>819</ele>
        <time>2000-01-01T08:50:28.000Z</time>
      </trkpt>
      <trkpt lat="45.80001" lon="6.19458">
        <ele>817.5</ele>
        <time>2000-01-01T08:50:38.000Z</time>
      </trkpt>
      <trkpt lat="45.7999" lon="6.19453">
        <ele>817</ele>
        <time>2000-01-01T08:50:48.000Z</time>
      </trkpt>
      <trkpt lat="45.7998" lon="6.1945">
        <ele>816.6</ele>
        <time>2000-01-01T08:50:58.000Z</time>
      </trkpt>
      <trkpt lat="45.79972" lon="6.19443">
        <ele>814</ele>
        <time>2000-01-01T08:51:08.000Z</time>
      </trkpt>
      <trkpt lat="45.79957" lon="6.19425">
        <ele>807</ele>
        <time>2000-01-01T08:51:18.000Z</time>
      </trkpt>
      <trkpt lat="45.79925" lon="6.19415">
        <ele>806</ele>
        <time>2000-01-01T08:51:28.000Z</time>
      </trkpt>
      <trkpt lat="45.79915" lon="6.19409">
        <ele>806.8</ele>
        <time>2000-01-01T08:51:38.000Z</time>
      </trkpt>
      <trkpt lat="45.79906" lon="6.19402">
        <ele>802</ele>
        <time>2000-01-01T08:51:48.000Z</time>
      </trkpt>
      <trkpt lat="45.79897" lon="6.19399">
        <ele>804</ele>
        <time>2000-01-01T08:51:58.000Z</time>
      </trkpt>
      <trkpt lat="45.79888" lon="6.19394">
        <ele>802.8</ele>
        <time>2000-01-01T08:52:08.000Z</time>
      </trkpt>
      <trkpt lat="45.79881" lon="6.19388">
        <ele>797</ele>
        <time>2000-01-01T08:52:18.000Z</time>
      </trkpt>
      <trkpt lat="45.79871" lon="6.19385">
        <ele>798.3</ele>
        <time>2000-01-01T08:52:28.000Z</time>
      </trkpt>
      <trkpt lat="45.79852" lon="6.1939">
        <ele>798</ele>
        <time>2000-01-01T08:52:38.000Z</time>
      </trkpt>
      <trkpt lat="45.79842" lon="6.19388">
        <ele>800.7</ele>
        <time>2000-01-01T08:52:48.000Z</time>
      </trkpt>
      <trkpt lat="45.79832" lon="6.1939">
        <ele>800</ele>
        <time>2000-01-01T08:52:58.000Z</time>
      </trkpt>
      <trkpt lat="45.79824" lon="6.19397">
        <ele>805.7</ele>
        <time>2000-01-01T08:53:08.000Z</time>
      </trkpt>
      <trkpt lat="45.79815" lon="6.19398">
        <ele>805</ele>
        <time>2000-01-01T08:53:18.000Z</time>
      </trkpt>
      <trkpt lat="45.79804" lon="6.19402">
        <ele>808.2</ele>
        <time>2000-01-01T08:53:28.000Z</time>
      </trkpt>
      <trkpt lat="45.79794" lon="6.19401">
        <ele>806</ele>
        <time>2000-01-01T08:53:38.000Z</time>
      </trkpt>
      <trkpt lat="45.79784" lon="6.19405">
        <ele>808.6</ele>
        <time>2000-01-01T08:53:48.000Z</time>
      </trkpt>
      <trkpt lat="45.79775" lon="6.19397">
        <ele>806</ele>
        <time>2000-01-01T08:53:58.000Z</time>
      </trkpt>
      <trkpt lat="45.79764" lon="6.19396">
        <ele>810.5</ele>
        <time>2000-01-01T08:54:08.000Z</time>
      </trkpt>
      <trkpt lat="45.79754" lon="6.19394">
        <ele>811</ele>
        <time>2000-01-01T08:54:18.000Z</time>
      </trkpt>
      <trkpt lat="45.79744" lon="6.19395">
        <ele>815.8</ele>
        <time>2000-01-01T08:54:28.000Z</time>
      </trkpt>
      <trkpt lat="45.79735" lon="6.1939">
        <ele>818</ele>
        <time>2000-01-01T08:54:38.000Z</time>
      </trkpt>
      <trkpt lat="45.79726" lon="6.19384">
        <ele>817.3</ele>
        <time>2000-01-01T08:54:48.000Z</time>
      </trkpt>
      <trkpt lat="45.79717" lon="6.19386">
        <ele>820</ele>
        <time>2000-01-01T08:54:58.000Z</time>
      </trkpt>
      <trkpt lat="45.79707" lon="6.19384">
        <ele>821.1</ele>
        <time>2000-01-01T08:55:08.000Z</time>
      </trkpt>
      <trkpt lat="45.79698" lon="6.19385">
        <ele>823</ele>
        <time>2000-01-01T08:55:18.000Z</time>
      </trkpt>
      <trkpt lat="45.79688" lon="6.19388">
        <ele>826.3</ele>
        <time>2000-01-01T08:55:28.000Z</time>
      </trkpt>
      <trkpt lat="45.79678" lon="6.19391">
        <ele>831</ele>
        <time>2000-01-01T08:55:38.000Z</time>
      </trkpt>
      <trkpt lat="45.79659" lon="6.19381">
        <ele>831</ele>
        <time>2000-01-01T08:55:48.000Z</time>
      </trkpt>
      <trkpt lat="45.79649" lon="6.19378">
        <ele>830.7</ele>
        <time>2000-01-01T08:55:58.000Z</time>
      </trkpt>
      <trkpt lat="45.7964" lon="6.19379">
        <ele>831</ele>
        <time>2000-01-01T08:56:08.000Z</time>
      </trkpt>
      <trkpt lat="45.79631" lon="6.19377">
        <ele>833.8</ele>
        <time>2000-01-01T08:56:18.000Z</time>
      </trkpt>
      <trkpt lat="45.79622" lon="6.19382">
        <ele>836.6</ele>
        <time>2000-01-01T08:56:28.000Z</time>
      </trkpt>
      <trkpt lat="45.79613" lon="6.19383">
        <ele>838</ele>
        <time>2000-01-01T08:56:38.000Z</time>
      </trkpt>
      <trkpt lat="45.79604" lon="6.19379">
        <ele>838.1</ele>
        <time>2000-01-01T08:56:48.000Z</time>
      </trkpt>
      <trkpt lat="45.79584" lon="6.19386">
        <ele>838</ele>
        <time>2000-01-01T08:56:58.000Z</time>
      </trkpt>
      <trkpt lat="45.79577" lon="6.19378">
        <ele>841.4</ele>
        <time>2000-01-01T08:57:08.000Z</time>
      </trkpt>
      <trkpt lat="45.79571" lon="6.19365">
        <ele>838</ele>
        <time>2000-01-01T08:57:18.000Z</time>
      </trkpt>
      <trkpt lat="45.79565" lon="6.19355">
        <ele>841.4</ele>
        <time>2000-01-01T08:57:28.000Z</time>
      </trkpt>
      <trkpt lat="45.79556" lon="6.1935">
        <ele>846</ele>
        <time>2000-01-01T08:57:38.000Z</time>
      </trkpt>
      <trkpt lat="45.79537" lon="6.19343">
        <ele>848</ele>
        <time>2000-01-01T08:57:48.000Z</time>
      </trkpt>
      <trkpt lat="45.79527" lon="6.19342">
        <ele>850.3</ele>
        <time>2000-01-01T08:57:58.000Z</time>
      </trkpt>
      <trkpt lat="45.79517" lon="6.1934">
        <ele>850</ele>
        <time>2000-01-01T08:58:08.000Z</time>
      </trkpt>
      <trkpt lat="45.79508" lon="6.19334">
        <ele>851.7</ele>
        <time>2000-01-01T08:58:18.000Z</time>
      </trkpt>
      <trkpt lat="45.79499" lon="6.19333">
        <ele>853</ele>
        <time>2000-01-01T08:58:28.000Z</time>
      </trkpt>
      <trkpt lat="45.79487" lon="6.19332">
        <ele>853.2</ele>
        <time>2000-01-01T08:58:38.000Z</time>
      </trkpt>
      <trkpt lat="45.79478" lon="6.19333">
        <ele>853</ele>
        <time>2000-01-01T08:58:48.000Z</time>
      </trkpt>
      <trkpt lat="45.79467" lon="6.19333">
        <ele>855.1</ele>
        <time>2000-01-01T08:58:58.000Z</time>
      </trkpt>
      <trkpt lat="45.79459" lon="6.1934">
        <ele>856</ele>
        <time>2000-01-01T08:59:08.000Z</time>
      </trkpt>
      <trkpt lat="45.79458" lon="6.19354">
        <ele>859.2</ele>
        <time>2000-01-01T08:59:18.000Z</time>
      </trkpt>
      <trkpt lat="45.79452" lon="6.19365">
        <ele>857</ele>
        <time>2000-01-01T08:59:28.000Z</time>
      </trkpt>
      <trkpt lat="45.79444" lon="6.19375">
        <ele>860.6</ele>
        <time>2000-01-01T08:59:38.000Z</time>
      </trkpt>
      <trkpt lat="45.79436" lon="6.19381">
        <ele>862</ele>
        <time>2000-01-01T08:59:48.000Z</time>
      </trkpt>
      <trkpt lat="45.79426" lon="6.19385">
        <ele>864.1</ele>
        <time>2000-01-01T08:59:58.000Z</time>
      </trkpt>
      <trkpt lat="45.79416" lon="6.19388">
        <ele>866</ele>
        <time>2000-01-01T09:00:08.000Z</time>
      </trkpt>
      <trkpt lat="45.79406" lon="6.19386">
        <ele>866.5</ele>
        <time>2000-01-01T09:00:18.000Z</time>
      </trkpt>
      <trkpt lat="45.79396" lon="6.19382">
        <ele>867</ele>
        <time>2000-01-01T09:00:28.000Z</time>
      </trkpt>
      <trkpt lat="45.79386" lon="6.19379">
        <ele>869</ele>
        <time>2000-01-01T09:00:38.000Z</time>
      </trkpt>
      <trkpt lat="45.79386" lon="6.19365">
        <ele>866</ele>
        <time>2000-01-01T09:00:48.000Z</time>
      </trkpt>
      <trkpt lat="45.7938" lon="6.19354">
        <ele>869.4</ele>
        <time>2000-01-01T09:00:58.000Z</time>
      </trkpt>
      <trkpt lat="45.79352" lon="6.19341">
        <ele>866</ele>
        <time>2000-01-01T09:01:08.000Z</time>
      </trkpt>
      <trkpt lat="45.79343" lon="6.1934">
        <ele>866.6</ele>
        <time>2000-01-01T09:01:18.000Z</time>
      </trkpt>
      <trkpt lat="45.79335" lon="6.19344">
        <ele>866.8</ele>
        <time>2000-01-01T09:01:28.000Z</time>
      </trkpt>
      <trkpt lat="45.79325" lon="6.19346">
        <ele>864</ele>
        <time>2000-01-01T09:01:38.000Z</time>
      </trkpt>
      <trkpt lat="45.79295" lon="6.19342">
        <ele>862</ele>
        <time>2000-01-01T09:01:48.000Z</time>
      </trkpt>
      <trkpt lat="45.79275" lon="6.19341">
        <ele>861</ele>
        <time>2000-01-01T09:01:58.000Z</time>
      </trkpt>
      <trkpt lat="45.79255" lon="6.19341">
        <ele>861</ele>
        <time>2000-01-01T09:02:08.000Z</time>
      </trkpt>
      <trkpt lat="45.79243" lon="6.1934">
        <ele>862</ele>
        <time>2000-01-01T09:02:18.000Z</time>
      </trkpt>
      <trkpt lat="45.79233" lon="6.19337">
        <ele>861</ele>
        <time>2000-01-01T09:02:28.000Z</time>
      </trkpt>
      <trkpt lat="45.79213" lon="6.19339">
        <ele>861</ele>
        <time>2000-01-01T09:02:38.000Z</time>
      </trkpt>
      <trkpt lat="45.79202" lon="6.19338">
        <ele>863.3</ele>
        <time>2000-01-01T09:02:48.000Z</time>
      </trkpt>
      <trkpt lat="45.79193" lon="6.19339">
        <ele>862</ele>
        <time>2000-01-01T09:02:58.000Z</time>
      </trkpt>
      <trkpt lat="45.79183" lon="6.19337">
        <ele>864</ele>
        <time>2000-01-01T09:03:08.000Z</time>
      </trkpt>
      <trkpt lat="45.79173" lon="6.19336">
        <ele>862</ele>
        <time>2000-01-01T09:03:18.000Z</time>
      </trkpt>
      <trkpt lat="45.79164" lon="6.19341">
        <ele>864</ele>
        <time>2000-01-01T09:03:28.000Z</time>
      </trkpt>
      <trkpt lat="45.79156" lon="6.19348">
        <ele>862</ele>
        <time>2000-01-01T09:03:38.000Z</time>
      </trkpt>
      <trkpt lat="45.79137" lon="6.19355">
        <ele>862</ele>
        <time>2000-01-01T09:03:48.000Z</time>
      </trkpt>
      <trkpt lat="45.79125" lon="6.19355">
        <ele>861.5</ele>
        <time>2000-01-01T09:03:58.000Z</time>
      </trkpt>
      <trkpt lat="45.79115" lon="6.19361">
        <ele>860</ele>
        <time>2000-01-01T09:04:08.000Z</time>
      </trkpt>
      <trkpt lat="45.79095" lon="6.19371">
        <ele>860</ele>
        <time>2000-01-01T09:04:18.000Z</time>
      </trkpt>
      <trkpt lat="45.79086" lon="6.19371">
        <ele>861.7</ele>
        <time>2000-01-01T09:04:28.000Z</time>
      </trkpt>
      <trkpt lat="45.79075" lon="6.19371">
        <ele>860</ele>
        <time>2000-01-01T09:04:38.000Z</time>
      </trkpt>
      <trkpt lat="45.79055" lon="6.19365">
        <ele>861</ele>
        <time>2000-01-01T09:04:48.000Z</time>
      </trkpt>
      <trkpt lat="45.79045" lon="6.19368">
        <ele>861.1</ele>
        <time>2000-01-01T09:04:58.000Z</time>
      </trkpt>
      <trkpt lat="45.79033" lon="6.1937">
        <ele>861</ele>
        <time>2000-01-01T09:05:08.000Z</time>
      </trkpt>
      <trkpt lat="45.79024" lon="6.19371">
        <ele>860.7</ele>
        <time>2000-01-01T09:05:18.000Z</time>
      </trkpt>
      <trkpt lat="45.79015" lon="6.19369">
        <ele>860.2</ele>
        <time>2000-01-01T09:05:28.000Z</time>
      </trkpt>
      <trkpt lat="45.79006" lon="6.19365">
        <ele>859</ele>
        <time>2000-01-01T09:05:38.000Z</time>
      </trkpt>
      <trkpt lat="45.78996" lon="6.19355">
        <ele>859.1</ele>
        <time>2000-01-01T09:05:48.000Z</time>
      </trkpt>
      <trkpt lat="45.7898" lon="6.19333">
        <ele>857</ele>
        <time>2000-01-01T09:05:58.000Z</time>
      </trkpt>
      <trkpt lat="45.78972" lon="6.19327">
        <ele>856.5</ele>
        <time>2000-01-01T09:06:08.000Z</time>
      </trkpt>
      <trkpt lat="45.78963" lon="6.19322">
        <ele>856</ele>
        <time>2000-01-01T09:06:18.000Z</time>
      </trkpt>
      <trkpt lat="45.78953" lon="6.19324">
        <ele>856.6</ele>
        <time>2000-01-01T09:06:28.000Z</time>
      </trkpt>
      <trkpt lat="45.78942" lon="6.19323">
        <ele>856</ele>
        <time>2000-01-01T09:06:38.000Z</time>
      </trkpt>
      <trkpt lat="45.78932" lon="6.19319">
        <ele>856.8</ele>
        <time>2000-01-01T09:06:48.000Z</time>
      </trkpt>
      <trkpt lat="45.78928" lon="6.19305">
        <ele>856</ele>
        <time>2000-01-01T09:06:58.000Z</time>
      </trkpt>
      <trkpt lat="45.78922" lon="6.19293">
        <ele>854.2</ele>
        <time>2000-01-01T09:07:08.000Z</time>
      </trkpt>
      <trkpt lat="45.78914" lon="6.19283">
        <ele>850</ele>
        <time>2000-01-01T09:07:18.000Z</time>
      </trkpt>
      <trkpt lat="45.78905" lon="6.19277">
        <ele>848.8</ele>
        <time>2000-01-01T09:07:28.000Z</time>
      </trkpt>
      <trkpt lat="45.78896" lon="6.19269">
        <ele>843</ele>
        <time>2000-01-01T09:07:38.000Z</time>
      </trkpt>
      <trkpt lat="45.78888" lon="6.19258">
        <ele>843</ele>
        <time>2000-01-01T09:07:48.000Z</time>
      </trkpt>
      <trkpt lat="45.78888" lon="6.19244">
        <ele>838</ele>
        <time>2000-01-01T09:07:58.000Z</time>
      </trkpt>
      <trkpt lat="45.78878" lon="6.19238">
        <ele>839.2</ele>
        <time>2000-01-01T09:08:08.000Z</time>
      </trkpt>
      <trkpt lat="45.78869" lon="6.19243">
        <ele>838</ele>
        <time>2000-01-01T09:08:18.000Z</time>
      </trkpt>
      <trkpt lat="45.78859" lon="6.19242">
        <ele>837.3</ele>
        <time>2000-01-01T09:08:28.000Z</time>
      </trkpt>
      <trkpt lat="45.78822" lon="6.19211">
        <ele>836</ele>
        <time>2000-01-01T09:08:38.000Z</time>
      </trkpt>
      <trkpt lat="45.78814" lon="6.19201">
        <ele>832.6</ele>
        <time>2000-01-01T09:08:48.000Z</time>
      </trkpt>
      <trkpt lat="45.78808" lon="6.19187">
        <ele>834</ele>
        <time>2000-01-01T09:08:58.000Z</time>
      </trkpt>
      <trkpt lat="45.78799" lon="6.19178">
        <ele>833.3</ele>
        <time>2000-01-01T09:09:08.000Z</time>
      </trkpt>
      <trkpt lat="45.78789" lon="6.19172">
        <ele>834</ele>
        <time>2000-01-01T09:09:18.000Z</time>
      </trkpt>
      <trkpt lat="45.78783" lon="6.19163">
        <ele>832.9</ele>
        <time>2000-01-01T09:09:28.000Z</time>
      </trkpt>
      <trkpt lat="45.78783" lon="6.19149">
        <ele>833.3</ele>
        <time>2000-01-01T09:09:38.000Z</time>
      </trkpt>
      <trkpt lat="45.78779" lon="6.19132">
        <ele>833</ele>
        <time>2000-01-01T09:09:48.000Z</time>
      </trkpt>
      <trkpt lat="45.78779" lon="6.19116">
        <ele>833.1</ele>
        <time>2000-01-01T09:09:58.000Z</time>
      </trkpt>
      <trkpt lat="45.78783" lon="6.19101">
        <ele>833</ele>
        <time>2000-01-01T09:10:08.000Z</time>
      </trkpt>
      <trkpt lat="45.78784" lon="6.19086">
        <ele>833.1</ele>
        <time>2000-01-01T09:10:18.000Z</time>
      </trkpt>
      <trkpt lat="45.78788" lon="6.19074">
        <ele>832</ele>
        <time>2000-01-01T09:10:28.000Z</time>
      </trkpt>
      <trkpt lat="45.788" lon="6.19071">
        <ele>831.7</ele>
        <time>2000-01-01T09:10:38.000Z</time>
      </trkpt>
      <trkpt lat="45.7881" lon="6.1907">
        <ele>832</ele>
        <time>2000-01-01T09:10:48.000Z</time>
      </trkpt>
      <trkpt lat="45.78819" lon="6.19065">
        <ele>830</ele>
        <time>2000-01-01T09:10:58.000Z</time>
      </trkpt>
      <trkpt lat="45.7883" lon="6.1906">
        <ele>829</ele>
        <time>2000-01-01T09:11:08.000Z</time>
      </trkpt>
      <trkpt lat="45.78852" lon="6.19058">
        <ele>827</ele>
        <time>2000-01-01T09:11:18.000Z</time>
      </trkpt>
      <trkpt lat="45.78862" lon="6.19058">
        <ele>825.9</ele>
        <time>2000-01-01T09:11:28.000Z</time>
      </trkpt>
      <trkpt lat="45.78883" lon="6.19051">
        <ele>825</ele>
        <time>2000-01-01T09:11:38.000Z</time>
      </trkpt>
      <trkpt lat="45.78913" lon="6.19035">
        <ele>824</ele>
        <time>2000-01-01T09:11:48.000Z</time>
      </trkpt>
      <trkpt lat="45.78922" lon="6.19028">
        <ele>822.6</ele>
        <time>2000-01-01T09:11:58.000Z</time>
      </trkpt>
      <trkpt lat="45.78931" lon="6.1902">
        <ele>823</ele>
        <time>2000-01-01T09:12:08.000Z</time>
      </trkpt>
      <trkpt lat="45.78938" lon="6.1901">
        <ele>822.4</ele>
        <time>2000-01-01T09:12:18.000Z</time>
      </trkpt>
      <trkpt lat="45.78931" lon="6.19002">
        <ele>823</ele>
        <time>2000-01-01T09:12:28.000Z</time>
      </trkpt>
      <trkpt lat="45.78922" lon="6.18999">
        <ele>827.3</ele>
        <time>2000-01-01T09:12:38.000Z</time>
      </trkpt>
      <trkpt lat="45.78912" lon="6.18992">
        <ele>825</ele>
        <time>2000-01-01T09:12:48.000Z</time>
      </trkpt>
      <trkpt lat="45.78903" lon="6.18992">
        <ele>830.1</ele>
        <time>2000-01-01T09:12:58.000Z</time>
      </trkpt>
      <trkpt lat="45.78893" lon="6.18989">
        <ele>827</ele>
        <time>2000-01-01T09:13:08.000Z</time>
      </trkpt>
      <trkpt lat="45.78883" lon="6.18988">
        <ele>832.1</ele>
        <time>2000-01-01T09:13:18.000Z</time>
      </trkpt>
      <trkpt lat="45.78875" lon="6.18996">
        <ele>835</ele>
        <time>2000-01-01T09:13:28.000Z</time>
      </trkpt>
      <trkpt lat="45.78854" lon="6.19009">
        <ele>839</ele>
        <time>2000-01-01T09:13:38.000Z</time>
      </trkpt>
      <trkpt lat="45.78844" lon="6.19009">
        <ele>838.8</ele>
        <time>2000-01-01T09:13:48.000Z</time>
      </trkpt>
      <trkpt lat="45.78832" lon="6.1901">
        <ele>841</ele>
        <time>2000-01-01T09:13:58.000Z</time>
      </trkpt>
      <trkpt lat="45.78821" lon="6.19008">
        <ele>841.5</ele>
        <time>2000-01-01T09:14:08.000Z</time>
      </trkpt>
      <trkpt lat="45.78812" lon="6.19005">
        <ele>842</ele>
        <time>2000-01-01T09:14:18.000Z</time>
      </trkpt>
      <trkpt lat="45.78789" lon="6.19002">
        <ele>848</ele>
        <time>2000-01-01T09:14:28.000Z</time>
      </trkpt>
      <trkpt lat="45.78769" lon="6.18997">
        <ele>850</ele>
        <time>2000-01-01T09:14:38.000Z</time>
      </trkpt>
      <trkpt lat="45.7876" lon="6.18995">
        <ele>850.3</ele>
        <time>2000-01-01T09:14:48.000Z</time>
      </trkpt>
      <trkpt lat="45.7875" lon="6.18989">
        <ele>850</ele>
        <time>2000-01-01T09:14:58.000Z</time>
      </trkpt>
      <trkpt lat="45.78742" lon="6.18982">
        <ele>852.2</ele>
        <time>2000-01-01T09:15:08.000Z</time>
      </trkpt>
      <trkpt lat="45.78733" lon="6.18979">
        <ele>854</ele>
        <time>2000-01-01T09:15:18.000Z</time>
      </trkpt>
      <trkpt lat="45.78724" lon="6.18978">
        <ele>854</ele>
        <time>2000-01-01T09:15:28.000Z</time>
      </trkpt>
      <trkpt lat="45.78692" lon="6.18969">
        <ele>856</ele>
        <time>2000-01-01T09:15:38.000Z</time>
      </trkpt>
      <trkpt lat="45.78684" lon="6.18978">
        <ele>863.5</ele>
        <time>2000-01-01T09:15:48.000Z</time>
      </trkpt>
      <trkpt lat="45.7868" lon="6.18992">
        <ele>868</ele>
        <time>2000-01-01T09:15:58.000Z</time>
      </trkpt>
      <trkpt lat="45.78671" lon="6.18995">
        <ele>867.8</ele>
        <time>2000-01-01T09:16:08.000Z</time>
      </trkpt>
      <trkpt lat="45.78662" lon="6.18997">
        <ele>869.2</ele>
        <time>2000-01-01T09:16:18.000Z</time>
      </trkpt>
      <trkpt lat="45.78653" lon="6.19">
        <ele>871</ele>
        <time>2000-01-01T09:16:28.000Z</time>
      </trkpt>
      <trkpt lat="45.78611" lon="6.19">
        <ele>876</ele>
        <time>2000-01-01T09:16:38.000Z</time>
      </trkpt>
      <trkpt lat="45.78599" lon="6.19">
        <ele>876.7</ele>
        <time>2000-01-01T09:16:48.000Z</time>
      </trkpt>
      <trkpt lat="45.78589" lon="6.19002">
        <ele>878</ele>
        <time>2000-01-01T09:16:58.000Z</time>
      </trkpt>
      <trkpt lat="45.7858" lon="6.19007">
        <ele>879.3</ele>
        <time>2000-01-01T09:17:08.000Z</time>
      </trkpt>
      <trkpt lat="45.7857" lon="6.19009">
        <ele>879</ele>
        <time>2000-01-01T09:17:18.000Z</time>
      </trkpt>
      <trkpt lat="45.78561" lon="6.19012">
        <ele>879.5</ele>
        <time>2000-01-01T09:17:28.000Z</time>
      </trkpt>
      <trkpt lat="45.78552" lon="6.19012">
        <ele>880</ele>
        <time>2000-01-01T09:17:38.000Z</time>
      </trkpt>
      <trkpt lat="45.7854" lon="6.19014">
        <ele>880.6</ele>
        <time>2000-01-01T09:17:48.000Z</time>
      </trkpt>
      <trkpt lat="45.78532" lon="6.19021">
        <ele>881</ele>
        <time>2000-01-01T09:17:58.000Z</time>
      </trkpt>
      <trkpt lat="45.78512" lon="6.1903">
        <ele>881</ele>
        <time>2000-01-01T09:18:08.000Z</time>
      </trkpt>
      <trkpt lat="45.78495" lon="6.19045">
        <ele>883</ele>
        <time>2000-01-01T09:18:18.000Z</time>
      </trkpt>
      <trkpt lat="45.78487" lon="6.19039">
        <ele>883.4</ele>
        <time>2000-01-01T09:18:28.000Z</time>
      </trkpt>
      <trkpt lat="45.78481" lon="6.19029">
        <ele>885</ele>
        <time>2000-01-01T09:18:38.000Z</time>
      </trkpt>
      <trkpt lat="45.78474" lon="6.1902">
        <ele>886</ele>
        <time>2000-01-01T09:18:48.000Z</time>
      </trkpt>
      <trkpt lat="45.78455" lon="6.19014">
        <ele>889</ele>
        <time>2000-01-01T09:18:58.000Z</time>
      </trkpt>
      <trkpt lat="45.78445" lon="6.19019">
        <ele>889.6</ele>
        <time>2000-01-01T09:19:08.000Z</time>
      </trkpt>
      <trkpt lat="45.78436" lon="6.19019">
        <ele>892</ele>
        <time>2000-01-01T09:19:18.000Z</time>
      </trkpt>
      <trkpt lat="45.78416" lon="6.19025">
        <ele>895</ele>
        <time>2000-01-01T09:19:28.000Z</time>
      </trkpt>
      <trkpt lat="45.78408" lon="6.19032">
        <ele>894.3</ele>
        <time>2000-01-01T09:19:38.000Z</time>
      </trkpt>
      <trkpt lat="45.78383" lon="6.19049">
        <ele>898</ele>
        <time>2000-01-01T09:19:48.000Z</time>
      </trkpt>
      <trkpt lat="45.78371" lon="6.19049">
        <ele>898.4</ele>
        <time>2000-01-01T09:19:58.000Z</time>
      </trkpt>
      <trkpt lat="45.78363" lon="6.1904">
        <ele>901</ele>
        <time>2000-01-01T09:20:08.000Z</time>
      </trkpt>
      <trkpt lat="45.78356" lon="6.19026">
        <ele>902.3</ele>
        <time>2000-01-01T09:20:18.000Z</time>
      </trkpt>
      <trkpt lat="45.78352" lon="6.19012">
        <ele>904</ele>
        <time>2000-01-01T09:20:28.000Z</time>
      </trkpt>
      <trkpt lat="45.7835" lon="6.18997">
        <ele>906.4</ele>
        <time>2000-01-01T09:20:38.000Z</time>
      </trkpt>
      <trkpt lat="45.78347" lon="6.18984">
        <ele>906</ele>
        <time>2000-01-01T09:20:48.000Z</time>
      </trkpt>
      <trkpt lat="45.78341" lon="6.18973">
        <ele>908.4</ele>
        <time>2000-01-01T09:20:58.000Z</time>
      </trkpt>
      <trkpt lat="45.78326" lon="6.18952">
        <ele>912</ele>
        <time>2000-01-01T09:21:08.000Z</time>
      </trkpt>
      <trkpt lat="45.78322" lon="6.1894">
        <ele>911.2</ele>
        <time>2000-01-01T09:21:18.000Z</time>
      </trkpt>
      <trkpt lat="45.78308" lon="6.1892">
        <ele>914</ele>
        <time>2000-01-01T09:21:28.000Z</time>
      </trkpt>
      <trkpt lat="45.783" lon="6.18915">
        <ele>915</ele>
        <time>2000-01-01T09:21:38.000Z</time>
      </trkpt>
      <trkpt lat="45.78292" lon="6.18906">
        <ele>916</ele>
        <time>2000-01-01T09:21:48.000Z</time>
      </trkpt>
      <trkpt lat="45.78271" lon="6.18893">
        <ele>917</ele>
        <time>2000-01-01T09:21:58.000Z</time>
      </trkpt>
      <trkpt lat="45.78262" lon="6.18885">
        <ele>919</ele>
        <time>2000-01-01T09:22:08.000Z</time>
      </trkpt>
      <trkpt lat="45.78254" lon="6.18875">
        <ele>917</ele>
        <time>2000-01-01T09:22:18.000Z</time>
      </trkpt>
      <trkpt lat="45.78244" lon="6.18869">
        <ele>919.1</ele>
        <time>2000-01-01T09:22:28.000Z</time>
      </trkpt>
      <trkpt lat="45.78235" lon="6.18861">
        <ele>918</ele>
        <time>2000-01-01T09:22:38.000Z</time>
      </trkpt>
      <trkpt lat="45.78215" lon="6.18854">
        <ele>918</ele>
        <time>2000-01-01T09:22:48.000Z</time>
      </trkpt>
      <trkpt lat="45.78204" lon="6.18847">
        <ele>917.3</ele>
        <time>2000-01-01T09:22:58.000Z</time>
      </trkpt>
      <trkpt lat="45.78186" lon="6.18836">
        <ele>918</ele>
        <time>2000-01-01T09:23:08.000Z</time>
      </trkpt>
      <trkpt lat="45.78164" lon="6.18831">
        <ele>918</ele>
        <time>2000-01-01T09:23:18.000Z</time>
      </trkpt>
      <trkpt lat="45.78154" lon="6.18827">
        <ele>915.9</ele>
        <time>2000-01-01T09:23:28.000Z</time>
      </trkpt>
      <trkpt lat="45.78143" lon="6.18822">
        <ele>919</ele>
        <time>2000-01-01T09:23:38.000Z</time>
      </trkpt>
      <trkpt lat="45.78133" lon="6.18813">
        <ele>917.4</ele>
        <time>2000-01-01T09:23:48.000Z</time>
      </trkpt>
      <trkpt lat="45.78124" lon="6.1881">
        <ele>921</ele>
        <time>2000-01-01T09:23:58.000Z</time>
      </trkpt>
      <trkpt lat="45.78115" lon="6.18816">
        <ele>921.1</ele>
        <time>2000-01-01T09:24:08.000Z</time>
      </trkpt>
      <trkpt lat="45.78106" lon="6.18825">
        <ele>921</ele>
        <time>2000-01-01T09:24:18.000Z</time>
      </trkpt>
      <trkpt lat="45.78097" lon="6.18834">
        <ele>920</ele>
        <time>2000-01-01T09:24:28.000Z</time>
      </trkpt>
      <trkpt lat="45.78077" lon="6.18849">
        <ele>922</ele>
        <time>2000-01-01T09:24:38.000Z</time>
      </trkpt>
      <trkpt lat="45.78064" lon="6.18872">
        <ele>923</ele>
        <time>2000-01-01T09:24:48.000Z</time>
      </trkpt>
      <trkpt lat="45.78056" lon="6.18881">
        <ele>925.3</ele>
        <time>2000-01-01T09:24:58.000Z</time>
      </trkpt>
      <trkpt lat="45.78047" lon="6.18885">
        <ele>930</ele>
        <time>2000-01-01T09:25:08.000Z</time>
      </trkpt>
      <trkpt lat="45.7803" lon="6.18899">
        <ele>936</ele>
        <time>2000-01-01T09:25:18.000Z</time>
      </trkpt>
      <trkpt lat="45.78012" lon="6.1891">
        <ele>937</ele>
        <time>2000-01-01T09:25:28.000Z</time>
      </trkpt>
      <trkpt lat="45.77993" lon="6.1892">
        <ele>938</ele>
        <time>2000-01-01T09:25:38.000Z</time>
      </trkpt>
      <trkpt lat="45.77983" lon="6.18924">
        <ele>939</ele>
        <time>2000-01-01T09:25:48.000Z</time>
      </trkpt>
      <trkpt lat="45.77973" lon="6.18929">
        <ele>942</ele>
        <time>2000-01-01T09:25:58.000Z</time>
      </trkpt>
      <trkpt lat="45.77962" lon="6.1893">
        <ele>942.6</ele>
        <time>2000-01-01T09:26:08.000Z</time>
      </trkpt>
      <trkpt lat="45.77931" lon="6.18928">
        <ele>949</ele>
        <time>2000-01-01T09:26:18.000Z</time>
      </trkpt>
      <trkpt lat="45.77922" lon="6.18925">
        <ele>952.1</ele>
        <time>2000-01-01T09:26:28.000Z</time>
      </trkpt>
      <trkpt lat="45.77919" lon="6.18938">
        <ele>953</ele>
        <time>2000-01-01T09:26:38.000Z</time>
      </trkpt>
      <trkpt lat="45.77915" lon="6.1895">
        <ele>952.4</ele>
        <time>2000-01-01T09:26:48.000Z</time>
      </trkpt>
      <trkpt lat="45.77911" lon="6.18964">
        <ele>952</ele>
        <time>2000-01-01T09:26:58.000Z</time>
      </trkpt>
      <trkpt lat="45.77912" lon="6.18978">
        <ele>952.3</ele>
        <time>2000-01-01T09:27:08.000Z</time>
      </trkpt>
      <trkpt lat="45.7791" lon="6.18991">
        <ele>956</ele>
        <time>2000-01-01T09:27:18.000Z</time>
      </trkpt>
      <trkpt lat="45.77903" lon="6.19005">
        <ele>954.8</ele>
        <time>2000-01-01T09:27:28.000Z</time>
      </trkpt>
      <trkpt lat="45.77896" lon="6.19015">
        <ele>960</ele>
        <time>2000-01-01T09:27:38.000Z</time>
      </trkpt>
      <trkpt lat="45.77892" lon="6.19027">
        <ele>959.5</ele>
        <time>2000-01-01T09:27:48.000Z</time>
      </trkpt>
      <trkpt lat="45.77885" lon="6.19035">
        <ele>961</ele>
        <time>2000-01-01T09:27:58.000Z</time>
      </trkpt>
      <trkpt lat="45.77877" lon="6.19042">
        <ele>964</ele>
        <time>2000-01-01T09:28:08.000Z</time>
      </trkpt>
      <trkpt lat="45.77867" lon="6.19044">
        <ele>962.5</ele>
        <time>2000-01-01T09:28:18.000Z</time>
      </trkpt>
      <trkpt lat="45.77857" lon="6.19043">
        <ele>965</ele>
        <time>2000-01-01T09:28:28.000Z</time>
      </trkpt>
      <trkpt lat="45.77837" lon="6.1905">
        <ele>966</ele>
        <time>2000-01-01T09:28:38.000Z</time>
      </trkpt>
      <trkpt lat="45.77817" lon="6.19058">
        <ele>965</ele>
        <time>2000-01-01T09:28:48.000Z</time>
      </trkpt>
      <trkpt lat="45.77805" lon="6.19062">
        <ele>964.5</ele>
        <time>2000-01-01T09:28:58.000Z</time>
      </trkpt>
      <trkpt lat="45.77794" lon="6.19062">
        <ele>965</ele>
        <time>2000-01-01T09:29:08.000Z</time>
      </trkpt>
      <trkpt lat="45.77784" lon="6.19066">
        <ele>965.4</ele>
        <time>2000-01-01T09:29:18.000Z</time>
      </trkpt>
      <trkpt lat="45.77774" lon="6.19067">
        <ele>967</ele>
        <time>2000-01-01T09:29:28.000Z</time>
      </trkpt>
      <trkpt lat="45.77765" lon="6.19067">
        <ele>966.7</ele>
        <time>2000-01-01T09:29:38.000Z</time>
      </trkpt>
      <trkpt lat="45.77754" lon="6.19064">
        <ele>969</ele>
        <time>2000-01-01T09:29:48.000Z</time>
      </trkpt>
      <trkpt lat="45.77745" lon="6.19058">
        <ele>972</ele>
        <time>2000-01-01T09:29:58.000Z</time>
      </trkpt>
      <trkpt lat="45.77735" lon="6.19057">
        <ele>975</ele>
        <time>2000-01-01T09:30:08.000Z</time>
      </trkpt>
      <trkpt lat="45.77726" lon="6.19055">
        <ele>976.5</ele>
        <time>2000-01-01T09:30:18.000Z</time>
      </trkpt>
      <trkpt lat="45.77717" lon="6.1905">
        <ele>984</ele>
        <time>2000-01-01T09:30:28.000Z</time>
      </trkpt>
      <trkpt lat="45.77708" lon="6.19049">
        <ele>981.6</ele>
        <time>2000-01-01T09:30:38.000Z</time>
      </trkpt>
      <trkpt lat="45.77678" lon="6.19045">
        <ele>990</ele>
        <time>2000-01-01T09:30:48.000Z</time>
      </trkpt>
      <trkpt lat="45.77647" lon="6.19025">
        <ele>993</ele>
        <time>2000-01-01T09:30:58.000Z</time>
      </trkpt>
      <trkpt lat="45.77637" lon="6.19024">
        <ele>992.9</ele>
        <time>2000-01-01T09:31:08.000Z</time>
      </trkpt>
      <trkpt lat="45.77628" lon="6.19019">
        <ele>996</ele>
        <time>2000-01-01T09:31:18.000Z</time>
      </trkpt>
      <trkpt lat="45.7762" lon="6.1901">
        <ele>994.8</ele>
        <time>2000-01-01T09:31:28.000Z</time>
      </trkpt>
      <trkpt lat="45.77615" lon="6.18999">
        <ele>999</ele>
        <time>2000-01-01T09:31:38.000Z</time>
      </trkpt>
      <trkpt lat="45.77625" lon="6.18996">
        <ele>1000.7</ele>
        <time>2000-01-01T09:31:48.000Z</time>
      </trkpt>
      <trkpt lat="45.77634" lon="6.1899">
        <ele>1002</ele>
        <time>2000-01-01T09:31:58.000Z</time>
      </trkpt>
      <trkpt lat="45.77645" lon="6.18987">
        <ele>1007</ele>
        <time>2000-01-01T09:32:08.000Z</time>
      </trkpt>
      <trkpt lat="45.77672" lon="6.18964">
        <ele>1015</ele>
        <time>2000-01-01T09:32:18.000Z</time>
      </trkpt>
      <trkpt lat="45.77706" lon="6.1893">
        <ele>1016</ele>
        <time>2000-01-01T09:32:28.000Z</time>
      </trkpt>
      <trkpt lat="45.77715" lon="6.18924">
        <ele>1019.2</ele>
        <time>2000-01-01T09:32:38.000Z</time>
      </trkpt>
      <trkpt lat="45.77723" lon="6.18916">
        <ele>1023</ele>
        <time>2000-01-01T09:32:48.000Z</time>
      </trkpt>
      <trkpt lat="45.77726" lon="6.18903">
        <ele>1022.6</ele>
        <time>2000-01-01T09:32:58.000Z</time>
      </trkpt>
      <trkpt lat="45.77724" lon="6.1889">
        <ele>1026</ele>
        <time>2000-01-01T09:33:08.000Z</time>
      </trkpt>
      <trkpt lat="45.77714" lon="6.18885">
        <ele>1026.9</ele>
        <time>2000-01-01T09:33:18.000Z</time>
      </trkpt>
      <trkpt lat="45.77704" lon="6.18885">
        <ele>1028</ele>
        <time>2000-01-01T09:33:28.000Z</time>
      </trkpt>
      <trkpt lat="45.77694" lon="6.18881">
        <ele>1028.4</ele>
        <time>2000-01-01T09:33:38.000Z</time>
      </trkpt>
      <trkpt lat="45.77674" lon="6.18876">
        <ele>1028</ele>
        <time>2000-01-01T09:33:48.000Z</time>
      </trkpt>
      <trkpt lat="45.77665" lon="6.18872">
        <ele>1027.5</ele>
        <time>2000-01-01T09:33:58.000Z</time>
      </trkpt>
      <trkpt lat="45.77656" lon="6.18866">
        <ele>1035</ele>
        <time>2000-01-01T09:34:08.000Z</time>
      </trkpt>
      <trkpt lat="45.77649" lon="6.18858">
        <ele>1033.3</ele>
        <time>2000-01-01T09:34:18.000Z</time>
      </trkpt>
      <trkpt lat="45.7764" lon="6.18855">
        <ele>1037.3</ele>
        <time>2000-01-01T09:34:28.000Z</time>
      </trkpt>
      <trkpt lat="45.77624" lon="6.1884">
        <ele>1042</ele>
        <time>2000-01-01T09:34:38.000Z</time>
      </trkpt>
      <trkpt lat="45.77615" lon="6.18837">
        <ele>1042.8</ele>
        <time>2000-01-01T09:34:48.000Z</time>
      </trkpt>
      <trkpt lat="45.77606" lon="6.18833">
        <ele>1044.2</ele>
        <time>2000-01-01T09:34:58.000Z</time>
      </trkpt>
      <trkpt lat="45.77597" lon="6.18824">
        <ele>1045</ele>
        <time>2000-01-01T09:35:08.000Z</time>
      </trkpt>
      <trkpt lat="45.77577" lon="6.1882">
        <ele>1049</ele>
        <time>2000-01-01T09:35:18.000Z</time>
      </trkpt>
      <trkpt lat="45.77568" lon="6.18823">
        <ele>1048.1</ele>
        <time>2000-01-01T09:35:28.000Z</time>
      </trkpt>
      <trkpt lat="45.77557" lon="6.18814">
        <ele>1052</ele>
        <time>2000-01-01T09:35:38.000Z</time>
      </trkpt>
      <trkpt lat="45.77557" lon="6.18801">
        <ele>1053</ele>
        <time>2000-01-01T09:35:48.000Z</time>
      </trkpt>
      <trkpt lat="45.77565" lon="6.18794">
        <ele>1054</ele>
        <time>2000-01-01T09:35:58.000Z</time>
      </trkpt>
      <trkpt lat="45.77574" lon="6.1879">
        <ele>1053</ele>
        <time>2000-01-01T09:36:08.000Z</time>
      </trkpt>
      <trkpt lat="45.77582" lon="6.18781">
        <ele>1056.2</ele>
        <time>2000-01-01T09:36:18.000Z</time>
      </trkpt>
      <trkpt lat="45.7759" lon="6.18776">
        <ele>1058</ele>
        <time>2000-01-01T09:36:28.000Z</time>
      </trkpt>
      <trkpt lat="45.776" lon="6.18773">
        <ele>1057.1</ele>
        <time>2000-01-01T09:36:38.000Z</time>
      </trkpt>
      <trkpt lat="45.77609" lon="6.18768">
        <ele>1060</ele>
        <time>2000-01-01T09:36:48.000Z</time>
      </trkpt>
      <trkpt lat="45.77619" lon="6.18764">
        <ele>1057.6</ele>
        <time>2000-01-01T09:36:58.000Z</time>
      </trkpt>
      <trkpt lat="45.77628" lon="6.18758">
        <ele>1060</ele>
        <time>2000-01-01T09:37:08.000Z</time>
      </trkpt>
      <trkpt lat="45.77634" lon="6.18747">
        <ele>1060.3</ele>
        <time>2000-01-01T09:37:18.000Z</time>
      </trkpt>
      <trkpt lat="45.7763" lon="6.18735">
        <ele>1065</ele>
        <time>2000-01-01T09:37:28.000Z</time>
      </trkpt>
      <trkpt lat="45.7762" lon="6.18735">
        <ele>1064.8</ele>
        <time>2000-01-01T09:37:38.000Z</time>
      </trkpt>
      <trkpt lat="45.7761" lon="6.18733">
        <ele>1066</ele>
        <time>2000-01-01T09:37:48.000Z</time>
      </trkpt>
      <trkpt lat="45.776" lon="6.18734">
        <ele>1067.2</ele>
        <time>2000-01-01T09:37:58.000Z</time>
      </trkpt>
      <trkpt lat="45.77591" lon="6.18736">
        <ele>1069</ele>
        <time>2000-01-01T09:38:08.000Z</time>
      </trkpt>
      <trkpt lat="45.77573" lon="6.18742">
        <ele>1067.9</ele>
        <time>2000-01-01T09:38:18.000Z</time>
      </trkpt>
      <trkpt lat="45.77563" lon="6.1874">
        <ele>1070</ele>
        <time>2000-01-01T09:38:28.000Z</time>
      </trkpt>
      <trkpt lat="45.77544" lon="6.18739">
        <ele>1070</ele>
        <time>2000-01-01T09:38:38.000Z</time>
      </trkpt>
      <trkpt lat="45.77536" lon="6.18734">
        <ele>1069</ele>
        <time>2000-01-01T09:38:48.000Z</time>
      </trkpt>
      <trkpt lat="45.7753" lon="6.18721">
        <ele>1071</ele>
        <time>2000-01-01T09:38:58.000Z</time>
      </trkpt>
      <trkpt lat="45.77534" lon="6.18707">
        <ele>1076.1</ele>
        <time>2000-01-01T09:39:08.000Z</time>
      </trkpt>
      <trkpt lat="45.77544" lon="6.18702">
        <ele>1077</ele>
        <time>2000-01-01T09:39:18.000Z</time>
      </trkpt>
      <trkpt lat="45.77554" lon="6.18705">
        <ele>1077.3</ele>
        <time>2000-01-01T09:39:28.000Z</time>
      </trkpt>
      <trkpt lat="45.77564" lon="6.18708">
        <ele>1078</ele>
        <time>2000-01-01T09:39:38.000Z</time>
      </trkpt>
      <trkpt lat="45.77572" lon="6.18701">
        <ele>1076.9</ele>
        <time>2000-01-01T09:39:48.000Z</time>
      </trkpt>
      <trkpt lat="45.77575" lon="6.18688">
        <ele>1080</ele>
        <time>2000-01-01T09:39:58.000Z</time>
      </trkpt>
      <trkpt lat="45.77576" lon="6.18674">
        <ele>1079.3</ele>
        <time>2000-01-01T09:40:08.000Z</time>
      </trkpt>
      <trkpt lat="45.77576" lon="6.18661">
        <ele>1080</ele>
        <time>2000-01-01T09:40:18.000Z</time>
      </trkpt>
      <trkpt lat="45.77572" lon="6.18649">
        <ele>1078.9</ele>
        <time>2000-01-01T09:40:28.000Z</time>
      </trkpt>
      <trkpt lat="45.77566" lon="6.18636">
        <ele>1080</ele>
        <time>2000-01-01T09:40:38.000Z</time>
      </trkpt>
      <trkpt lat="45.7756" lon="6.18627">
        <ele>1079.2</ele>
        <time>2000-01-01T09:40:48.000Z</time>
      </trkpt>
      <trkpt lat="45.7754" lon="6.1861">
        <ele>1082</ele>
        <time>2000-01-01T09:40:58.000Z</time>
      </trkpt>
      <trkpt lat="45.7753" lon="6.18585">
        <ele>1082</ele>
        <time>2000-01-01T09:41:08.000Z</time>
      </trkpt>
      <trkpt lat="45.77524" lon="6.18553">
        <ele>1082</ele>
        <time>2000-01-01T09:41:18.000Z</time>
      </trkpt>
      <trkpt lat="45.77516" lon="6.18543">
        <ele>1084.2</ele>
        <time>2000-01-01T09:41:28.000Z</time>
      </trkpt>
      <trkpt lat="45.77511" lon="6.18531">
        <ele>1082</ele>
        <time>2000-01-01T09:41:38.000Z</time>
      </trkpt>
      <trkpt lat="45.77505" lon="6.1852">
        <ele>1082.8</ele>
        <time>2000-01-01T09:41:48.000Z</time>
      </trkpt>
      <trkpt lat="45.775" lon="6.18509">
        <ele>1083</ele>
        <time>2000-01-01T09:41:58.000Z</time>
      </trkpt>
      <trkpt lat="45.775" lon="6.18495">
        <ele>1083</ele>
        <time>2000-01-01T09:42:08.000Z</time>
      </trkpt>
      <trkpt lat="45.77498" lon="6.18481">
        <ele>1082.6</ele>
        <time>2000-01-01T09:42:18.000Z</time>
      </trkpt>
      <trkpt lat="45.77495" lon="6.18469">
        <ele>1085</ele>
        <time>2000-01-01T09:42:28.000Z</time>
      </trkpt>
      <trkpt lat="45.77494" lon="6.18454">
        <ele>1084.2</ele>
        <time>2000-01-01T09:42:38.000Z</time>
      </trkpt>
      <trkpt lat="45.77495" lon="6.18423">
        <ele>1086</ele>
        <time>2000-01-01T09:42:48.000Z</time>
      </trkpt>
      <trkpt lat="45.77492" lon="6.18408">
        <ele>1085.1</ele>
        <time>2000-01-01T09:42:58.000Z</time>
      </trkpt>
      <trkpt lat="45.77475" lon="6.1839">
        <ele>1088</ele>
        <time>2000-01-01T09:43:08.000Z</time>
      </trkpt>
      <trkpt lat="45.77468" lon="6.18379">
        <ele>1089.3</ele>
        <time>2000-01-01T09:43:18.000Z</time>
      </trkpt>
      <trkpt lat="45.77461" lon="6.18367">
        <ele>1091</ele>
        <time>2000-01-01T09:43:28.000Z</time>
      </trkpt>
      <trkpt lat="45.77458" lon="6.18353">
        <ele>1090.6</ele>
        <time>2000-01-01T09:43:38.000Z</time>
      </trkpt>
      <trkpt lat="45.77452" lon="6.18343">
        <ele>1091</ele>
        <time>2000-01-01T09:43:48.000Z</time>
      </trkpt>
      <trkpt lat="45.77444" lon="6.18337">
        <ele>1093.8</ele>
        <time>2000-01-01T09:43:58.000Z</time>
      </trkpt>
      <trkpt lat="45.77436" lon="6.18327">
        <ele>1097</ele>
        <time>2000-01-01T09:44:08.000Z</time>
      </trkpt>
      <trkpt lat="45.7743" lon="6.18316">
        <ele>1096.2</ele>
        <time>2000-01-01T09:44:18.000Z</time>
      </trkpt>
      <trkpt lat="45.77426" lon="6.18301">
        <ele>1097</ele>
        <time>2000-01-01T09:44:28.000Z</time>
      </trkpt>
      <trkpt lat="45.77427" lon="6.18288">
        <ele>1097</ele>
        <time>2000-01-01T09:44:38.000Z</time>
      </trkpt>
      <trkpt lat="45.77423" lon="6.18274">
        <ele>1099</ele>
        <time>2000-01-01T09:44:48.000Z</time>
      </trkpt>
      <trkpt lat="45.77421" lon="6.18261">
        <ele>1098.3</ele>
        <time>2000-01-01T09:44:58.000Z</time>
      </trkpt>
      <trkpt lat="45.77412" lon="6.18252">
        <ele>1101</ele>
        <time>2000-01-01T09:45:08.000Z</time>
      </trkpt>
      <trkpt lat="45.77403" lon="6.18243">
        <ele>1102.7</ele>
        <time>2000-01-01T09:45:18.000Z</time>
      </trkpt>
      <trkpt lat="45.77398" lon="6.18232">
        <ele>1105</ele>
        <time>2000-01-01T09:45:28.000Z</time>
      </trkpt>
      <trkpt lat="45.77394" lon="6.18217">
        <ele>1104.4</ele>
        <time>2000-01-01T09:45:38.000Z</time>
      </trkpt>
      <trkpt lat="45.77389" lon="6.18204">
        <ele>1107</ele>
        <time>2000-01-01T09:45:48.000Z</time>
      </trkpt>
      <trkpt lat="45.77387" lon="6.18191">
        <ele>1105.6</ele>
        <time>2000-01-01T09:45:58.000Z</time>
      </trkpt>
      <trkpt lat="45.77383" lon="6.18176">
        <ele>1108</ele>
        <time>2000-01-01T09:46:08.000Z</time>
      </trkpt>
      <trkpt lat="45.77386" lon="6.18147">
        <ele>1109</ele>
        <time>2000-01-01T09:46:18.000Z</time>
      </trkpt>
      <trkpt lat="45.77381" lon="6.18136">
        <ele>1108.3</ele>
        <time>2000-01-01T09:46:28.000Z</time>
      </trkpt>
      <trkpt lat="45.77373" lon="6.18126">
        <ele>1109</ele>
        <time>2000-01-01T09:46:38.000Z</time>
      </trkpt>
      <trkpt lat="45.77364" lon="6.18117">
        <ele>1110.5</ele>
        <time>2000-01-01T09:46:48.000Z</time>
      </trkpt>
      <trkpt lat="45.77348" lon="6.18099">
        <ele>1111</ele>
        <time>2000-01-01T09:46:58.000Z</time>
      </trkpt>
      <trkpt lat="45.77331" lon="6.18085">
        <ele>1112</ele>
        <time>2000-01-01T09:47:08.000Z</time>
      </trkpt>
      <trkpt lat="45.77321" lon="6.1808">
        <ele>1115.8</ele>
        <time>2000-01-01T09:47:18.000Z</time>
      </trkpt>
      <trkpt lat="45.77312" lon="6.18074">
        <ele>1115</ele>
        <time>2000-01-01T09:47:28.000Z</time>
      </trkpt>
      <trkpt lat="45.77304" lon="6.18066">
        <ele>1117.6</ele>
        <time>2000-01-01T09:47:38.000Z</time>
      </trkpt>
      <trkpt lat="45.77297" lon="6.18056">
        <ele>1117</ele>
        <time>2000-01-01T09:47:48.000Z</time>
      </trkpt>
      <trkpt lat="45.77287" lon="6.18053">
        <ele>1117.7</ele>
        <time>2000-01-01T09:47:58.000Z</time>
      </trkpt>
      <trkpt lat="45.77257" lon="6.18037">
        <ele>1119</ele>
        <time>2000-01-01T09:48:08.000Z</time>
      </trkpt>
      <trkpt lat="45.7725" lon="6.1803">
        <ele>1120</ele>
        <time>2000-01-01T09:48:18.000Z</time>
      </trkpt>
      <trkpt lat="45.7724" lon="6.18026">
        <ele>1119</ele>
        <time>2000-01-01T09:48:28.000Z</time>
      </trkpt>
      <trkpt lat="45.77228" lon="6.18025">
        <ele>1119.6</ele>
        <time>2000-01-01T09:48:38.000Z</time>
      </trkpt>
      <trkpt lat="45.77207" lon="6.18019">
        <ele>1119</ele>
        <time>2000-01-01T09:48:48.000Z</time>
      </trkpt>
      <trkpt lat="45.77196" lon="6.18018">
        <ele>1119.7</ele>
        <time>2000-01-01T09:48:58.000Z</time>
      </trkpt>
      <trkpt lat="45.77174" lon="6.18013">
        <ele>1119</ele>
        <time>2000-01-01T09:49:08.000Z</time>
      </trkpt>
      <trkpt lat="45.77163" lon="6.18008">
        <ele>1121.3</ele>
        <time>2000-01-01T09:49:18.000Z</time>
      </trkpt>
      <trkpt lat="45.77143" lon="6.17998">
        <ele>1120</ele>
        <time>2000-01-01T09:49:28.000Z</time>
      </trkpt>
      <trkpt lat="45.77124" lon="6.17989">
        <ele>1121</ele>
        <time>2000-01-01T09:49:38.000Z</time>
      </trkpt>
      <trkpt lat="45.77115" lon="6.17984">
        <ele>1119.3</ele>
        <time>2000-01-01T09:49:48.000Z</time>
      </trkpt>
      <trkpt lat="45.77105" lon="6.17977">
        <ele>1121</ele>
        <time>2000-01-01T09:49:58.000Z</time>
      </trkpt>
      <trkpt lat="45.77083" lon="6.1797">
        <ele>1121</ele>
        <time>2000-01-01T09:50:08.000Z</time>
      </trkpt>
      <trkpt lat="45.77074" lon="6.17969">
        <ele>1118.6</ele>
        <time>2000-01-01T09:50:18.000Z</time>
      </trkpt>
      <trkpt lat="45.77051" lon="6.17971">
        <ele>1115</ele>
        <time>2000-01-01T09:50:28.000Z</time>
      </trkpt>
      <trkpt lat="45.7704" lon="6.17975">
        <ele>1112.6</ele>
        <time>2000-01-01T09:50:38.000Z</time>
      </trkpt>
      <trkpt lat="45.77029" lon="6.17978">
        <ele>1112</ele>
        <time>2000-01-01T09:50:48.000Z</time>
      </trkpt>
      <trkpt lat="45.77018" lon="6.17977">
        <ele>1109.2</ele>
        <time>2000-01-01T09:50:58.000Z</time>
      </trkpt>
      <trkpt lat="45.77007" lon="6.17972">
        <ele>1111</ele>
        <time>2000-01-01T09:51:08.000Z</time>
      </trkpt>
      <trkpt lat="45.76999" lon="6.17966">
        <ele>1109.6</ele>
        <time>2000-01-01T09:51:18.000Z</time>
      </trkpt>
      <trkpt lat="45.76982" lon="6.17953">
        <ele>1110</ele>
        <time>2000-01-01T09:51:28.000Z</time>
      </trkpt>
      <trkpt lat="45.7697" lon="6.17952">
        <ele>1107.4</ele>
        <time>2000-01-01T09:51:38.000Z</time>
      </trkpt>
      <trkpt lat="45.76959" lon="6.17947">
        <ele>1107</ele>
        <time>2000-01-01T09:51:48.000Z</time>
      </trkpt>
      <trkpt lat="45.76949" lon="6.17936">
        <ele>1106.4</ele>
        <time>2000-01-01T09:51:58.000Z</time>
      </trkpt>
      <trkpt lat="45.76941" lon="6.17924">
        <ele>1105</ele>
        <time>2000-01-01T09:52:08.000Z</time>
      </trkpt>
      <trkpt lat="45.76936" lon="6.1791">
        <ele>1103.3</ele>
        <time>2000-01-01T09:52:18.000Z</time>
      </trkpt>
      <trkpt lat="45.76929" lon="6.17898">
        <ele>1100</ele>
        <time>2000-01-01T09:52:28.000Z</time>
      </trkpt>
      <trkpt lat="45.76922" lon="6.1789">
        <ele>1101.7</ele>
        <time>2000-01-01T09:52:38.000Z</time>
      </trkpt>
      <trkpt lat="45.76912" lon="6.17884">
        <ele>1098</ele>
        <time>2000-01-01T09:52:48.000Z</time>
      </trkpt>
      <trkpt lat="45.76891" lon="6.17873">
        <ele>1096</ele>
        <time>2000-01-01T09:52:58.000Z</time>
      </trkpt>
      <trkpt lat="45.76881" lon="6.17869">
        <ele>1097.1</ele>
        <time>2000-01-01T09:53:08.000Z</time>
      </trkpt>
      <trkpt lat="45.76871" lon="6.17872">
        <ele>1095</ele>
        <time>2000-01-01T09:53:18.000Z</time>
      </trkpt>
      <trkpt lat="45.76863" lon="6.1788">
        <ele>1094.8</ele>
        <time>2000-01-01T09:53:28.000Z</time>
      </trkpt>
      <trkpt lat="45.76855" lon="6.1789">
        <ele>1093</ele>
        <time>2000-01-01T09:53:38.000Z</time>
      </trkpt>
      <trkpt lat="45.76848" lon="6.17901">
        <ele>1093.5</ele>
        <time>2000-01-01T09:53:48.000Z</time>
      </trkpt>
      <trkpt lat="45.76839" lon="6.17909">
        <ele>1093</ele>
        <time>2000-01-01T09:53:58.000Z</time>
      </trkpt>
      <trkpt lat="45.76828" lon="6.17909">
        <ele>1091.3</ele>
        <time>2000-01-01T09:54:08.000Z</time>
      </trkpt>
      <trkpt lat="45.76818" lon="6.17907">
        <ele>1091</ele>
        <time>2000-01-01T09:54:18.000Z</time>
      </trkpt>
      <trkpt lat="45.76796" lon="6.17897">
        <ele>1091</ele>
        <time>2000-01-01T09:54:28.000Z</time>
      </trkpt>
      <trkpt lat="45.76769" lon="6.17892">
        <ele>1091</ele>
        <time>2000-01-01T09:54:38.000Z</time>
      </trkpt>
      <trkpt lat="45.7675" lon="6.17883">
        <ele>1092</ele>
        <time>2000-01-01T09:54:48.000Z</time>
      </trkpt>
      <trkpt lat="45.76739" lon="6.17882">
        <ele>1092.9</ele>
        <time>2000-01-01T09:54:58.000Z</time>
      </trkpt>
      <trkpt lat="45.76728" lon="6.17882">
        <ele>1094</ele>
        <time>2000-01-01T09:55:08.000Z</time>
      </trkpt>
      <trkpt lat="45.76716" lon="6.17883">
        <ele>1093.7</ele>
        <time>2000-01-01T09:55:18.000Z</time>
      </trkpt>
      <trkpt lat="45.76707" lon="6.17884">
        <ele>1094</ele>
        <time>2000-01-01T09:55:28.000Z</time>
      </trkpt>
      <trkpt lat="45.76696" lon="6.17885">
        <ele>1092.9</ele>
        <time>2000-01-01T09:55:38.000Z</time>
      </trkpt>
      <trkpt lat="45.76675" lon="6.17874">
        <ele>1095</ele>
        <time>2000-01-01T09:55:48.000Z</time>
      </trkpt>
      <trkpt lat="45.76658" lon="6.17862">
        <ele>1096</ele>
        <time>2000-01-01T09:55:58.000Z</time>
      </trkpt>
      <trkpt lat="45.76649" lon="6.17858">
        <ele>1097.2</ele>
        <time>2000-01-01T09:56:08.000Z</time>
      </trkpt>
      <trkpt lat="45.7664" lon="6.17851">
        <ele>1098</ele>
        <time>2000-01-01T09:56:18.000Z</time>
      </trkpt>
      <trkpt lat="45.76621" lon="6.17839">
        <ele>1101</ele>
        <time>2000-01-01T09:56:28.000Z</time>
      </trkpt>
      <trkpt lat="45.7661" lon="6.17835">
        <ele>1100.8</ele>
        <time>2000-01-01T09:56:38.000Z</time>
      </trkpt>
      <trkpt lat="45.76599" lon="6.17832">
        <ele>1102</ele>
        <time>2000-01-01T09:56:48.000Z</time>
      </trkpt>
      <trkpt lat="45.7659" lon="6.17833">
        <ele>1101.8</ele>
        <time>2000-01-01T09:56:58.000Z</time>
      </trkpt>
      <trkpt lat="45.7658" lon="6.17835">
        <ele>1103</ele>
        <time>2000-01-01T09:57:08.000Z</time>
      </trkpt>
      <trkpt lat="45.7657" lon="6.1783">
        <ele>1102.9</ele>
        <time>2000-01-01T09:57:18.000Z</time>
      </trkpt>
      <trkpt lat="45.76559" lon="6.17823">
        <ele>1104</ele>
        <time>2000-01-01T09:57:28.000Z</time>
      </trkpt>
      <trkpt lat="45.7655" lon="6.17815">
        <ele>1105</ele>
        <time>2000-01-01T09:57:38.000Z</time>
      </trkpt>
      <trkpt lat="45.76544" lon="6.17806">
        <ele>1107</ele>
        <time>2000-01-01T09:57:48.000Z</time>
      </trkpt>
      <trkpt lat="45.76536" lon="6.17799">
        <ele>1107.1</ele>
        <time>2000-01-01T09:57:58.000Z</time>
      </trkpt>
      <trkpt lat="45.76527" lon="6.17793">
        <ele>1107.9</ele>
        <time>2000-01-01T09:58:08.000Z</time>
      </trkpt>
      <trkpt lat="45.76518" lon="6.17784">
        <ele>1109</ele>
        <time>2000-01-01T09:58:18.000Z</time>
      </trkpt>
      <trkpt lat="45.7651" lon="6.17778">
        <ele>1110.6</ele>
        <time>2000-01-01T09:58:28.000Z</time>
      </trkpt>
      <trkpt lat="45.765" lon="6.17775">
        <ele>1111</ele>
        <time>2000-01-01T09:58:38.000Z</time>
      </trkpt>
      <trkpt lat="45.76491" lon="6.17777">
        <ele>1112.4</ele>
        <time>2000-01-01T09:58:48.000Z</time>
      </trkpt>
      <trkpt lat="45.76482" lon="6.17784">
        <ele>1113</ele>
        <time>2000-01-01T09:58:58.000Z</time>
      </trkpt>
      <trkpt lat="45.76461" lon="6.17795">
        <ele>1115</ele>
        <time>2000-01-01T09:59:08.000Z</time>
      </trkpt>
      <trkpt lat="45.76452" lon="6.17798">
        <ele>1115</ele>
        <time>2000-01-01T09:59:18.000Z</time>
      </trkpt>
      <trkpt lat="45.76442" lon="6.17797">
        <ele>1117</ele>
        <time>2000-01-01T09:59:28.000Z</time>
      </trkpt>
      <trkpt lat="45.76433" lon="6.17789">
        <ele>1117.7</ele>
        <time>2000-01-01T09:59:38.000Z</time>
      </trkpt>
      <trkpt lat="45.76426" lon="6.17778">
        <ele>1120</ele>
        <time>2000-01-01T09:59:48.000Z</time>
      </trkpt>
      <trkpt lat="45.76431" lon="6.17749">
        <ele>1122</ele>
        <time>2000-01-01T09:59:58.000Z</time>
      </trkpt>
      <trkpt lat="45.76434" lon="6.17735">
        <ele>1122.5</ele>
        <time>2000-01-01T10:00:08.000Z</time>
      </trkpt>
      <trkpt lat="45.76434" lon="6.17706">
        <ele>1124</ele>
        <time>2000-01-01T10:00:18.000Z</time>
      </trkpt>
      <trkpt lat="45.76436" lon="6.1769">
        <ele>1126</ele>
        <time>2000-01-01T10:00:28.000Z</time>
      </trkpt>
      <trkpt lat="45.76437" lon="6.17677">
        <ele>1127</ele>
        <time>2000-01-01T10:00:38.000Z</time>
      </trkpt>
      <trkpt lat="45.76427" lon="6.1767">
        <ele>1128.3</ele>
        <time>2000-01-01T10:00:48.000Z</time>
      </trkpt>
      <trkpt lat="45.76415" lon="6.17671">
        <ele>1130</ele>
        <time>2000-01-01T10:00:58.000Z</time>
      </trkpt>
      <trkpt lat="45.76404" lon="6.17675">
        <ele>1130.1</ele>
        <time>2000-01-01T10:01:08.000Z</time>
      </trkpt>
      <trkpt lat="45.76394" lon="6.1768">
        <ele>1132</ele>
        <time>2000-01-01T10:01:18.000Z</time>
      </trkpt>
      <trkpt lat="45.76384" lon="6.17681">
        <ele>1131.9</ele>
        <time>2000-01-01T10:01:28.000Z</time>
      </trkpt>
      <trkpt lat="45.76373" lon="6.17685">
        <ele>1132</ele>
        <time>2000-01-01T10:01:38.000Z</time>
      </trkpt>
      <trkpt lat="45.76363" lon="6.17691">
        <ele>1133.8</ele>
        <time>2000-01-01T10:01:48.000Z</time>
      </trkpt>
      <trkpt lat="45.76353" lon="6.17699">
        <ele>1135</ele>
        <time>2000-01-01T10:01:58.000Z</time>
      </trkpt>
      <trkpt lat="45.76342" lon="6.17705">
        <ele>1133.8</ele>
        <time>2000-01-01T10:02:08.000Z</time>
      </trkpt>
      <trkpt lat="45.76332" lon="6.17705">
        <ele>1137</ele>
        <time>2000-01-01T10:02:18.000Z</time>
      </trkpt>
      <trkpt lat="45.76322" lon="6.17697">
        <ele>1136.3</ele>
        <time>2000-01-01T10:02:28.000Z</time>
      </trkpt>
      <trkpt lat="45.76314" lon="6.17687">
        <ele>1139</ele>
        <time>2000-01-01T10:02:38.000Z</time>
      </trkpt>
      <trkpt lat="45.76308" lon="6.17676">
        <ele>1138.9</ele>
        <time>2000-01-01T10:02:48.000Z</time>
      </trkpt>
      <trkpt lat="45.76301" lon="6.17668">
        <ele>1141</ele>
        <time>2000-01-01T10:02:58.000Z</time>
      </trkpt>
      <trkpt lat="45.76292" lon="6.17659">
        <ele>1141.5</ele>
        <time>2000-01-01T10:03:08.000Z</time>
      </trkpt>
      <trkpt lat="45.76288" lon="6.17646">
        <ele>1144</ele>
        <time>2000-01-01T10:03:18.000Z</time>
      </trkpt>
      <trkpt lat="45.76287" lon="6.17646">
        <ele>1143.3</ele>
        <time>2000-01-01T10:03:28.000Z</time>
      </trkpt>
      <trkpt lat="45.76286" lon="6.17618">
        <ele>1148</ele>
        <time>2000-01-01T10:03:38.000Z</time>
      </trkpt>
      <trkpt lat="45.76292" lon="6.176">
        <ele>1148.2</ele>
        <time>2000-01-01T10:03:48.000Z</time>
      </trkpt>
      <trkpt lat="45.76287" lon="6.17581">
        <ele>1150</ele>
        <time>2000-01-01T10:03:58.000Z</time>
      </trkpt>
      <trkpt lat="45.76275" lon="6.17579">
        <ele>1152.1</ele>
        <time>2000-01-01T10:04:08.000Z</time>
      </trkpt>
      <trkpt lat="45.76255" lon="6.17564">
        <ele>1156</ele>
        <time>2000-01-01T10:04:18.000Z</time>
      </trkpt>
      <trkpt lat="45.76222" lon="6.17534">
        <ele>1166</ele>
        <time>2000-01-01T10:04:28.000Z</time>
      </trkpt>
      <trkpt lat="45.76197" lon="6.17512">
        <ele>1173</ele>
        <time>2000-01-01T10:04:38.000Z</time>
      </trkpt>
      <trkpt lat="45.76181" lon="6.17504">
        <ele>1175.7</ele>
        <time>2000-01-01T10:04:48.000Z</time>
      </trkpt>
      <trkpt lat="45.76151" lon="6.17474">
        <ele>1187</ele>
        <time>2000-01-01T10:04:58.000Z</time>
      </trkpt>
      <trkpt lat="45.76119" lon="6.17457">
        <ele>1194</ele>
        <time>2000-01-01T10:05:08.000Z</time>
      </trkpt>
      <trkpt lat="45.76088" lon="6.17442">
        <ele>1199</ele>
        <time>2000-01-01T10:05:18.000Z</time>
      </trkpt>
      <trkpt lat="45.76049" lon="6.17459">
        <ele>1199</ele>
        <time>2000-01-01T10:05:28.000Z</time>
      </trkpt>
      <trkpt lat="45.76014" lon="6.17466">
        <ele>1202</ele>
        <time>2000-01-01T10:05:38.000Z</time>
      </trkpt>
      <trkpt lat="45.75984" lon="6.17452">
        <ele>1208</ele>
        <time>2000-01-01T10:05:48.000Z</time>
      </trkpt>
      <trkpt lat="45.75952" lon="6.17439">
        <ele>1210</ele>
        <time>2000-01-01T10:05:58.000Z</time>
      </trkpt>
      <trkpt lat="45.75921" lon="6.1745">
        <ele>1213</ele>
        <time>2000-01-01T10:06:08.000Z</time>
      </trkpt>
      <trkpt lat="45.7589" lon="6.17463">
        <ele>1216</ele>
        <time>2000-01-01T10:06:18.000Z</time>
      </trkpt>
      <trkpt lat="45.7586" lon="6.17469">
        <ele>1225</ele>
        <time>2000-01-01T10:06:28.000Z</time>
      </trkpt>
      <trkpt lat="45.75837" lon="6.1745">
        <ele>1231</ele>
        <time>2000-01-01T10:06:38.000Z</time>
      </trkpt>
      <trkpt lat="45.75809" lon="6.17431">
        <ele>1236</ele>
        <time>2000-01-01T10:06:48.000Z</time>
      </trkpt>
      <trkpt lat="45.75792" lon="6.17444">
        <ele>1234.6</ele>
        <time>2000-01-01T10:06:58.000Z</time>
      </trkpt>
      <trkpt lat="45.75786" lon="6.17482">
        <ele>1245</ele>
        <time>2000-01-01T10:07:08.000Z</time>
      </trkpt>
      <trkpt lat="45.75784" lon="6.17495">
        <ele>1244.8</ele>
        <time>2000-01-01T10:07:18.000Z</time>
      </trkpt>
      <trkpt lat="45.75775" lon="6.17501">
        <ele>1250</ele>
        <time>2000-01-01T10:07:28.000Z</time>
      </trkpt>
      <trkpt lat="45.7577" lon="6.17514">
        <ele>1250.2</ele>
        <time>2000-01-01T10:07:38.000Z</time>
      </trkpt>
      <trkpt lat="45.75767" lon="6.17528">
        <ele>1253</ele>
        <time>2000-01-01T10:07:48.000Z</time>
      </trkpt>
      <trkpt lat="45.7576" lon="6.17538">
        <ele>1252.7</ele>
        <time>2000-01-01T10:07:58.000Z</time>
      </trkpt>
      <trkpt lat="45.7575" lon="6.17537">
        <ele>1259</ele>
        <time>2000-01-01T10:08:08.000Z</time>
      </trkpt>
      <trkpt lat="45.75742" lon="6.17528">
        <ele>1258.4</ele>
        <time>2000-01-01T10:08:18.000Z</time>
      </trkpt>
      <trkpt lat="45.75733" lon="6.17523">
        <ele>1262</ele>
        <time>2000-01-01T10:08:28.000Z</time>
      </trkpt>
      <trkpt lat="45.7572" lon="6.17502">
        <ele>1264</ele>
        <time>2000-01-01T10:08:38.000Z</time>
      </trkpt>
      <trkpt lat="45.75709" lon="6.17497">
        <ele>1267.7</ele>
        <time>2000-01-01T10:08:48.000Z</time>
      </trkpt>
      <trkpt lat="45.757" lon="6.175">
        <ele>1271</ele>
        <time>2000-01-01T10:08:58.000Z</time>
      </trkpt>
      <trkpt lat="45.7569" lon="6.17501">
        <ele>1272.1</ele>
        <time>2000-01-01T10:09:08.000Z</time>
      </trkpt>
      <trkpt lat="45.75681" lon="6.17506">
        <ele>1274</ele>
        <time>2000-01-01T10:09:18.000Z</time>
      </trkpt>
      <trkpt lat="45.75673" lon="6.17512">
        <ele>1276.3</ele>
        <time>2000-01-01T10:09:28.000Z</time>
      </trkpt>
      <trkpt lat="45.7567" lon="6.17511">
        <ele>1277.1</ele>
        <time>2000-01-01T10:09:38.000Z</time>
      </trkpt>
      <trkpt lat="45.7566" lon="6.1751">
        <ele>1279</ele>
        <time>2000-01-01T10:09:48.000Z</time>
      </trkpt>
      <trkpt lat="45.75651" lon="6.17512">
        <ele>1281.9</ele>
        <time>2000-01-01T10:09:58.000Z</time>
      </trkpt>
      <trkpt lat="45.75641" lon="6.17509">
        <ele>1284</ele>
        <time>2000-01-01T10:10:08.000Z</time>
      </trkpt>
      <trkpt lat="45.75631" lon="6.17504">
        <ele>1286.2</ele>
        <time>2000-01-01T10:10:18.000Z</time>
      </trkpt>
      <trkpt lat="45.75622" lon="6.17503">
        <ele>1289</ele>
        <time>2000-01-01T10:10:28.000Z</time>
      </trkpt>
      <trkpt lat="45.75612" lon="6.17506">
        <ele>1291</ele>
        <time>2000-01-01T10:10:38.000Z</time>
      </trkpt>
      <trkpt lat="45.75603" lon="6.17512">
        <ele>1293</ele>
        <time>2000-01-01T10:10:48.000Z</time>
      </trkpt>
      <trkpt lat="45.75604" lon="6.17527">
        <ele>1294.5</ele>
        <time>2000-01-01T10:10:58.000Z</time>
      </trkpt>
      <trkpt lat="45.75608" lon="6.17539">
        <ele>1295</ele>
        <time>2000-01-01T10:11:08.000Z</time>
      </trkpt>
      <trkpt lat="45.7561" lon="6.17552">
        <ele>1298.5</ele>
        <time>2000-01-01T10:11:18.000Z</time>
      </trkpt>
      <trkpt lat="45.75611" lon="6.17565">
        <ele>1301.1</ele>
        <time>2000-01-01T10:11:28.000Z</time>
      </trkpt>
      <trkpt lat="45.75614" lon="6.1758">
        <ele>1303</ele>
        <time>2000-01-01T10:11:38.000Z</time>
      </trkpt>
      <trkpt lat="45.75614" lon="6.17595">
        <ele>1304.5</ele>
        <time>2000-01-01T10:11:48.000Z</time>
      </trkpt>
      <trkpt lat="45.75608" lon="6.17606">
        <ele>1308</ele>
        <time>2000-01-01T10:11:58.000Z</time>
      </trkpt>
      <trkpt lat="45.75599" lon="6.1761">
        <ele>1309.4</ele>
        <time>2000-01-01T10:12:08.000Z</time>
      </trkpt>
      <trkpt lat="45.75589" lon="6.17606">
        <ele>1314</ele>
        <time>2000-01-01T10:12:18.000Z</time>
      </trkpt>
      <trkpt lat="45.75579" lon="6.17609">
        <ele>1315.2</ele>
        <time>2000-01-01T10:12:28.000Z</time>
      </trkpt>
      <trkpt lat="45.75569" lon="6.1761">
        <ele>1319</ele>
        <time>2000-01-01T10:12:38.000Z</time>
      </trkpt>
      <trkpt lat="45.75561" lon="6.17603">
        <ele>1320.1</ele>
        <time>2000-01-01T10:12:48.000Z</time>
      </trkpt>
      <trkpt lat="45.75558" lon="6.17589">
        <ele>1321</ele>
        <time>2000-01-01T10:12:58.000Z</time>
      </trkpt>
      <trkpt lat="45.75548" lon="6.17586">
        <ele>1322.9</ele>
        <time>2000-01-01T10:13:08.000Z</time>
      </trkpt>
      <trkpt lat="45.7554" lon="6.17583">
        <ele>1326</ele>
        <time>2000-01-01T10:13:18.000Z</time>
      </trkpt>
      <trkpt lat="45.75531" lon="6.17577">
        <ele>1325.4</ele>
        <time>2000-01-01T10:13:28.000Z</time>
      </trkpt>
      <trkpt lat="45.75512" lon="6.17573">
        <ele>1330</ele>
        <time>2000-01-01T10:13:38.000Z</time>
      </trkpt>
      <trkpt lat="45.75504" lon="6.17566">
        <ele>1331.6</ele>
        <time>2000-01-01T10:13:48.000Z</time>
      </trkpt>
      <trkpt lat="45.75497" lon="6.17557">
        <ele>1333</ele>
        <time>2000-01-01T10:13:58.000Z</time>
      </trkpt>
      <trkpt lat="45.75489" lon="6.17551">
        <ele>1336</ele>
        <time>2000-01-01T10:14:08.000Z</time>
      </trkpt>
      <trkpt lat="45.75479" lon="6.17547">
        <ele>1335.8</ele>
        <time>2000-01-01T10:14:18.000Z</time>
      </trkpt>
      <trkpt lat="45.7547" lon="6.17543">
        <ele>1339</ele>
        <time>2000-01-01T10:14:28.000Z</time>
      </trkpt>
      <trkpt lat="45.75459" lon="6.17542">
        <ele>1340.1</ele>
        <time>2000-01-01T10:14:38.000Z</time>
      </trkpt>
      <trkpt lat="45.75449" lon="6.17535">
        <ele>1339</ele>
        <time>2000-01-01T10:14:48.000Z</time>
      </trkpt>
      <trkpt lat="45.75431" lon="6.17525">
        <ele>1340</ele>
        <time>2000-01-01T10:14:58.000Z</time>
      </trkpt>
      <trkpt lat="45.7542" lon="6.17526">
        <ele>1343.2</ele>
        <time>2000-01-01T10:15:08.000Z</time>
      </trkpt>
      <trkpt lat="45.75411" lon="6.17524">
        <ele>1342</ele>
        <time>2000-01-01T10:15:18.000Z</time>
      </trkpt>
      <trkpt lat="45.754" lon="6.17523">
        <ele>1346</ele>
        <time>2000-01-01T10:15:28.000Z</time>
      </trkpt>
      <trkpt lat="45.75391" lon="6.17516">
        <ele>1342</ele>
        <time>2000-01-01T10:15:38.000Z</time>
      </trkpt>
      <trkpt lat="45.75381" lon="6.17511">
        <ele>1346.8</ele>
        <time>2000-01-01T10:15:48.000Z</time>
      </trkpt>
      <trkpt lat="45.75372" lon="6.1751">
        <ele>1343</ele>
        <time>2000-01-01T10:15:58.000Z</time>
      </trkpt>
      <trkpt lat="45.75364" lon="6.17504">
        <ele>1347.8</ele>
        <time>2000-01-01T10:16:08.000Z</time>
      </trkpt>
      <trkpt lat="45.75355" lon="6.17503">
        <ele>1350.3</ele>
        <time>2000-01-01T10:16:18.000Z</time>
      </trkpt>
      <trkpt lat="45.75347" lon="6.17498">
        <ele>1352</ele>
        <time>2000-01-01T10:16:28.000Z</time>
      </trkpt>
      <trkpt lat="45.75338" lon="6.17488">
        <ele>1354.1</ele>
        <time>2000-01-01T10:16:38.000Z</time>
      </trkpt>
      <trkpt lat="45.75329" lon="6.17478">
        <ele>1354</ele>
        <time>2000-01-01T10:16:48.000Z</time>
      </trkpt>
      <trkpt lat="45.75323" lon="6.17469">
        <ele>1356.9</ele>
        <time>2000-01-01T10:16:58.000Z</time>
      </trkpt>
      <trkpt lat="45.75318" lon="6.17458">
        <ele>1357.1</ele>
        <time>2000-01-01T10:17:08.000Z</time>
      </trkpt>
      <trkpt lat="45.75311" lon="6.17448">
        <ele>1356</ele>
        <time>2000-01-01T10:17:18.000Z</time>
      </trkpt>
      <trkpt lat="45.75305" lon="6.17433">
        <ele>1359</ele>
        <time>2000-01-01T10:17:28.000Z</time>
      </trkpt>
      <trkpt lat="45.75296" lon="6.17425">
        <ele>1363</ele>
        <time>2000-01-01T10:17:38.000Z</time>
      </trkpt>
      <trkpt lat="45.7529" lon="6.17414">
        <ele>1362.4</ele>
        <time>2000-01-01T10:17:48.000Z</time>
      </trkpt>
      <trkpt lat="45.75281" lon="6.17409">
        <ele>1365</ele>
        <time>2000-01-01T10:17:58.000Z</time>
      </trkpt>
      <trkpt lat="45.75274" lon="6.17399">
        <ele>1366.1</ele>
        <time>2000-01-01T10:18:08.000Z</time>
      </trkpt>
      <trkpt lat="45.75255" lon="6.17395">
        <ele>1371</ele>
        <time>2000-01-01T10:18:18.000Z</time>
      </trkpt>
      <trkpt lat="45.75236" lon="6.17383">
        <ele>1373</ele>
        <time>2000-01-01T10:18:28.000Z</time>
      </trkpt>
      <trkpt lat="45.75209" lon="6.17369">
        <ele>1377</ele>
        <time>2000-01-01T10:18:38.000Z</time>
      </trkpt>
      <trkpt lat="45.75201" lon="6.17361">
        <ele>1376.8</ele>
        <time>2000-01-01T10:18:48.000Z</time>
      </trkpt>
      <trkpt lat="45.75192" lon="6.17354">
        <ele>1377</ele>
        <time>2000-01-01T10:18:58.000Z</time>
      </trkpt>
      <trkpt lat="45.75184" lon="6.17346">
        <ele>1378.5</ele>
        <time>2000-01-01T10:19:08.000Z</time>
      </trkpt>
      <trkpt lat="45.75175" lon="6.1734">
        <ele>1378</ele>
        <time>2000-01-01T10:19:18.000Z</time>
      </trkpt>
      <trkpt lat="45.75155" lon="6.17336">
        <ele>1378</ele>
        <time>2000-01-01T10:19:28.000Z</time>
      </trkpt>
      <trkpt lat="45.75145" lon="6.17331">
        <ele>1378.4</ele>
        <time>2000-01-01T10:19:38.000Z</time>
      </trkpt>
      <trkpt lat="45.75134" lon="6.17332">
        <ele>1376</ele>
        <time>2000-01-01T10:19:48.000Z</time>
      </trkpt>
      <trkpt lat="45.75124" lon="6.17336">
        <ele>1376.7</ele>
        <time>2000-01-01T10:19:58.000Z</time>
      </trkpt>
      <trkpt lat="45.75093" lon="6.17345">
        <ele>1373</ele>
        <time>2000-01-01T10:20:08.000Z</time>
      </trkpt>
      <trkpt lat="45.75082" lon="6.17351">
        <ele>1374.8</ele>
        <time>2000-01-01T10:20:18.000Z</time>
      </trkpt>
      <trkpt lat="45.75073" lon="6.17355">
        <ele>1372</ele>
        <time>2000-01-01T10:20:28.000Z</time>
      </trkpt>
      <trkpt lat="45.75052" lon="6.17355">
        <ele>1372</ele>
        <time>2000-01-01T10:20:38.000Z</time>
      </trkpt>
      <trkpt lat="45.75041" lon="6.17352">
        <ele>1373.2</ele>
        <time>2000-01-01T10:20:48.000Z</time>
      </trkpt>
      <trkpt lat="45.7502" lon="6.17359">
        <ele>1373</ele>
        <time>2000-01-01T10:20:58.000Z</time>
      </trkpt>
      <trkpt lat="45.75011" lon="6.17366">
        <ele>1374.7</ele>
        <time>2000-01-01T10:21:08.000Z</time>
      </trkpt>
      <trkpt lat="45.75001" lon="6.17371">
        <ele>1373</ele>
        <time>2000-01-01T10:21:18.000Z</time>
      </trkpt>
      <trkpt lat="45.74993" lon="6.1738">
        <ele>1375.2</ele>
        <time>2000-01-01T10:21:28.000Z</time>
      </trkpt>
      <trkpt lat="45.74982" lon="6.17385">
        <ele>1373</ele>
        <time>2000-01-01T10:21:38.000Z</time>
      </trkpt>
      <trkpt lat="45.74974" lon="6.17392">
        <ele>1373.9</ele>
        <time>2000-01-01T10:21:48.000Z</time>
      </trkpt>
      <trkpt lat="45.74954" lon="6.17404">
        <ele>1372</ele>
        <time>2000-01-01T10:21:58.000Z</time>
      </trkpt>
      <trkpt lat="45.74935" lon="6.17408">
        <ele>1371</ele>
        <time>2000-01-01T10:22:08.000Z</time>
      </trkpt>
      <trkpt lat="45.74912" lon="6.17404">
        <ele>1371</ele>
        <time>2000-01-01T10:22:18.000Z</time>
      </trkpt>
      <trkpt lat="45.74903" lon="6.17403">
        <ele>1372.3</ele>
        <time>2000-01-01T10:22:28.000Z</time>
      </trkpt>
      <trkpt lat="45.74892" lon="6.17407">
        <ele>1370</ele>
        <time>2000-01-01T10:22:38.000Z</time>
      </trkpt>
      <trkpt lat="45.74873" lon="6.17414">
        <ele>1371</ele>
        <time>2000-01-01T10:22:48.000Z</time>
      </trkpt>
      <trkpt lat="45.74864" lon="6.17417">
        <ele>1373.4</ele>
        <time>2000-01-01T10:22:58.000Z</time>
      </trkpt>
      <trkpt lat="45.74854" lon="6.17422">
        <ele>1370</ele>
        <time>2000-01-01T10:23:08.000Z</time>
      </trkpt>
      <trkpt lat="45.74844" lon="6.17423">
        <ele>1374.3</ele>
        <time>2000-01-01T10:23:18.000Z</time>
      </trkpt>
      <trkpt lat="45.74834" lon="6.17416">
        <ele>1370</ele>
        <time>2000-01-01T10:23:28.000Z</time>
      </trkpt>
      <trkpt lat="45.74824" lon="6.17421">
        <ele>1372.8</ele>
        <time>2000-01-01T10:23:38.000Z</time>
      </trkpt>
      <trkpt lat="45.74816" lon="6.17429">
        <ele>1370</ele>
        <time>2000-01-01T10:23:48.000Z</time>
      </trkpt>
      <trkpt lat="45.74806" lon="6.17426">
        <ele>1372.1</ele>
        <time>2000-01-01T10:23:58.000Z</time>
      </trkpt>
      <trkpt lat="45.74795" lon="6.17421">
        <ele>1370</ele>
        <time>2000-01-01T10:24:08.000Z</time>
      </trkpt>
      <trkpt lat="45.74786" lon="6.17415">
        <ele>1369.6</ele>
        <time>2000-01-01T10:24:18.000Z</time>
      </trkpt>
      <trkpt lat="45.74777" lon="6.17412">
        <ele>1367</ele>
        <time>2000-01-01T10:24:28.000Z</time>
      </trkpt>
      <trkpt lat="45.74768" lon="6.17409">
        <ele>1368.8</ele>
        <time>2000-01-01T10:24:38.000Z</time>
      </trkpt>
      <trkpt lat="45.74748" lon="6.17397">
        <ele>1366</ele>
        <time>2000-01-01T10:24:48.000Z</time>
      </trkpt>
      <trkpt lat="45.74739" lon="6.17397">
        <ele>1367.3</ele>
        <time>2000-01-01T10:24:58.000Z</time>
      </trkpt>
      <trkpt lat="45.74728" lon="6.17395">
        <ele>1366</ele>
        <time>2000-01-01T10:25:08.000Z</time>
      </trkpt>
      <trkpt lat="45.74718" lon="6.17395">
        <ele>1367.1</ele>
        <time>2000-01-01T10:25:18.000Z</time>
      </trkpt>
      <trkpt lat="45.74708" lon="6.17401">
        <ele>1361</ele>
        <time>2000-01-01T10:25:28.000Z</time>
      </trkpt>
      <trkpt lat="45.74698" lon="6.17399">
        <ele>1367</ele>
        <time>2000-01-01T10:25:38.000Z</time>
      </trkpt>
      <trkpt lat="45.74669" lon="6.17389">
        <ele>1357</ele>
        <time>2000-01-01T10:25:48.000Z</time>
      </trkpt>
      <trkpt lat="45.7466" lon="6.17384">
        <ele>1357.7</ele>
        <time>2000-01-01T10:25:58.000Z</time>
      </trkpt>
      <trkpt lat="45.74652" lon="6.17375">
        <ele>1353</ele>
        <time>2000-01-01T10:26:08.000Z</time>
      </trkpt>
      <trkpt lat="45.74638" lon="6.17356">
        <ele>1345</ele>
        <time>2000-01-01T10:26:18.000Z</time>
      </trkpt>
      <trkpt lat="45.74617" lon="6.17349">
        <ele>1340</ele>
        <time>2000-01-01T10:26:28.000Z</time>
      </trkpt>
      <trkpt lat="45.7461" lon="6.17338">
        <ele>1339.5</ele>
        <time>2000-01-01T10:26:38.000Z</time>
      </trkpt>
      <trkpt lat="45.74604" lon="6.17326">
        <ele>1333</ele>
        <time>2000-01-01T10:26:48.000Z</time>
      </trkpt>
      <trkpt lat="45.74594" lon="6.1732">
        <ele>1333.3</ele>
        <time>2000-01-01T10:26:58.000Z</time>
      </trkpt>
      <trkpt lat="45.7458" lon="6.17294">
        <ele>1327</ele>
        <time>2000-01-01T10:27:08.000Z</time>
      </trkpt>
      <trkpt lat="45.74578" lon="6.17281">
        <ele>1324.7</ele>
        <time>2000-01-01T10:27:18.000Z</time>
      </trkpt>
      <trkpt lat="45.74569" lon="6.17285">
        <ele>1321</ele>
        <time>2000-01-01T10:27:28.000Z</time>
      </trkpt>
      <trkpt lat="45.7456" lon="6.17294">
        <ele>1323.5</ele>
        <time>2000-01-01T10:27:38.000Z</time>
      </trkpt>
      <trkpt lat="45.74549" lon="6.17298">
        <ele>1321</ele>
        <time>2000-01-01T10:27:48.000Z</time>
      </trkpt>
      <trkpt lat="45.74538" lon="6.17298">
        <ele>1320.4</ele>
        <time>2000-01-01T10:27:58.000Z</time>
      </trkpt>
      <trkpt lat="45.74528" lon="6.17298">
        <ele>1316</ele>
        <time>2000-01-01T10:28:08.000Z</time>
      </trkpt>
      <trkpt lat="45.74517" lon="6.17292">
        <ele>1316.8</ele>
        <time>2000-01-01T10:28:18.000Z</time>
      </trkpt>
      <trkpt lat="45.74504" lon="6.17268">
        <ele>1310</ele>
        <time>2000-01-01T10:28:28.000Z</time>
      </trkpt>
      <trkpt lat="45.74497" lon="6.17258">
        <ele>1309.4</ele>
        <time>2000-01-01T10:28:38.000Z</time>
      </trkpt>
      <trkpt lat="45.74488" lon="6.17248">
        <ele>1304</ele>
        <time>2000-01-01T10:28:48.000Z</time>
      </trkpt>
      <trkpt lat="45.74481" lon="6.17239">
        <ele>1304</ele>
        <time>2000-01-01T10:28:58.000Z</time>
      </trkpt>
      <trkpt lat="45.74474" lon="6.1723">
        <ele>1302</ele>
        <time>2000-01-01T10:29:08.000Z</time>
      </trkpt>
      <trkpt lat="45.74464" lon="6.17232">
        <ele>1302</ele>
        <time>2000-01-01T10:29:18.000Z</time>
      </trkpt>
      <trkpt lat="45.74454" lon="6.17238">
        <ele>1300.1</ele>
        <time>2000-01-01T10:29:28.000Z</time>
      </trkpt>
      <trkpt lat="45.74452" lon="6.17252">
        <ele>1303</ele>
        <time>2000-01-01T10:29:38.000Z</time>
      </trkpt>
      <trkpt lat="45.74455" lon="6.17267">
        <ele>1303.2</ele>
        <time>2000-01-01T10:29:48.000Z</time>
      </trkpt>
      <trkpt lat="45.74461" lon="6.17277">
        <ele>1305</ele>
        <time>2000-01-01T10:29:58.000Z</time>
      </trkpt>
      <trkpt lat="45.7446" lon="6.17291">
        <ele>1308.4</ele>
        <time>2000-01-01T10:30:08.000Z</time>
      </trkpt>
      <trkpt lat="45.74452" lon="6.17301">
        <ele>1308</ele>
        <time>2000-01-01T10:30:18.000Z</time>
      </trkpt>
      <trkpt lat="45.74442" lon="6.1731">
        <ele>1310.3</ele>
        <time>2000-01-01T10:30:28.000Z</time>
      </trkpt>
      <trkpt lat="45.74433" lon="6.17313">
        <ele>1308</ele>
        <time>2000-01-01T10:30:38.000Z</time>
      </trkpt>
      <trkpt lat="45.74423" lon="6.17318">
        <ele>1310.4</ele>
        <time>2000-01-01T10:30:48.000Z</time>
      </trkpt>
      <trkpt lat="45.74404" lon="6.17316">
        <ele>1307</ele>
        <time>2000-01-01T10:30:58.000Z</time>
      </trkpt>
      <trkpt lat="45.74394" lon="6.17323">
        <ele>1309.6</ele>
        <time>2000-01-01T10:31:08.000Z</time>
      </trkpt>
      <trkpt lat="45.74377" lon="6.17339">
        <ele>1307</ele>
        <time>2000-01-01T10:31:18.000Z</time>
      </trkpt>
      <trkpt lat="45.74368" lon="6.17344">
        <ele>1312.6</ele>
        <time>2000-01-01T10:31:28.000Z</time>
      </trkpt>
      <trkpt lat="45.7435" lon="6.17361">
        <ele>1313</ele>
        <time>2000-01-01T10:31:38.000Z</time>
      </trkpt>
      <trkpt lat="45.74338" lon="6.1738">
        <ele>1315.4</ele>
        <time>2000-01-01T10:31:48.000Z</time>
      </trkpt>
      <trkpt lat="45.74331" lon="6.17388">
        <ele>1313</ele>
        <time>2000-01-01T10:31:58.000Z</time>
      </trkpt>
      <trkpt lat="45.7432" lon="6.1739">
        <ele>1314.7</ele>
        <time>2000-01-01T10:32:08.000Z</time>
      </trkpt>
      <trkpt lat="45.74301" lon="6.17382">
        <ele>1309</ele>
        <time>2000-01-01T10:32:18.000Z</time>
      </trkpt>
      <trkpt lat="45.74291" lon="6.17379">
        <ele>1308.4</ele>
        <time>2000-01-01T10:32:28.000Z</time>
      </trkpt>
      <trkpt lat="45.74281" lon="6.17379">
        <ele>1307</ele>
        <time>2000-01-01T10:32:38.000Z</time>
      </trkpt>
      <trkpt lat="45.74272" lon="6.17376">
        <ele>1307.3</ele>
        <time>2000-01-01T10:32:48.000Z</time>
      </trkpt>
      <trkpt lat="45.74261" lon="6.17377">
        <ele>1308</ele>
        <time>2000-01-01T10:32:58.000Z</time>
      </trkpt>
      <trkpt lat="45.74252" lon="6.17379">
        <ele>1310.2</ele>
        <time>2000-01-01T10:33:08.000Z</time>
      </trkpt>
      <trkpt lat="45.74233" lon="6.17386">
        <ele>1309</ele>
        <time>2000-01-01T10:33:18.000Z</time>
      </trkpt>
      <trkpt lat="45.74222" lon="6.17385">
        <ele>1312.1</ele>
        <time>2000-01-01T10:33:28.000Z</time>
      </trkpt>
      <trkpt lat="45.74201" lon="6.17382">
        <ele>1310</ele>
        <time>2000-01-01T10:33:38.000Z</time>
      </trkpt>
      <trkpt lat="45.74191" lon="6.17382">
        <ele>1313.3</ele>
        <time>2000-01-01T10:33:48.000Z</time>
      </trkpt>
      <trkpt lat="45.74181" lon="6.1738">
        <ele>1310</ele>
        <time>2000-01-01T10:33:58.000Z</time>
      </trkpt>
      <trkpt lat="45.74171" lon="6.1738">
        <ele>1312.4</ele>
        <time>2000-01-01T10:34:08.000Z</time>
      </trkpt>
      <trkpt lat="45.74161" lon="6.17381">
        <ele>1311</ele>
        <time>2000-01-01T10:34:18.000Z</time>
      </trkpt>
      <trkpt lat="45.74153" lon="6.17388">
        <ele>1317.1</ele>
        <time>2000-01-01T10:34:28.000Z</time>
      </trkpt>
      <trkpt lat="45.74143" lon="6.1739">
        <ele>1314</ele>
        <time>2000-01-01T10:34:38.000Z</time>
      </trkpt>
      <trkpt lat="45.74134" lon="6.1739">
        <ele>1319.4</ele>
        <time>2000-01-01T10:34:48.000Z</time>
      </trkpt>
      <trkpt lat="45.74126" lon="6.17398">
        <ele>1322.5</ele>
        <time>2000-01-01T10:34:58.000Z</time>
      </trkpt>
      <trkpt lat="45.74121" lon="6.17409">
        <ele>1322</ele>
        <time>2000-01-01T10:35:08.000Z</time>
      </trkpt>
      <trkpt lat="45.74111" lon="6.17416">
        <ele>1328.8</ele>
        <time>2000-01-01T10:35:18.000Z</time>
      </trkpt>
      <trkpt lat="45.74105" lon="6.17428">
        <ele>1329</ele>
        <time>2000-01-01T10:35:28.000Z</time>
      </trkpt>
      <trkpt lat="45.74094" lon="6.17449">
        <ele>1337.8</ele>
        <time>2000-01-01T10:35:38.000Z</time>
      </trkpt>
      <trkpt lat="45.74089" lon="6.17461">
        <ele>1338</ele>
        <time>2000-01-01T10:35:48.000Z</time>
      </trkpt>
      <trkpt lat="45.74069" lon="6.1746">
        <ele>1342</ele>
        <time>2000-01-01T10:35:58.000Z</time>
      </trkpt>
      <trkpt lat="45.74061" lon="6.17468">
        <ele>1345.1</ele>
        <time>2000-01-01T10:36:08.000Z</time>
      </trkpt>
      <trkpt lat="45.74051" lon="6.17468">
        <ele>1343</ele>
        <time>2000-01-01T10:36:18.000Z</time>
      </trkpt>
      <trkpt lat="45.74031" lon="6.17462">
        <ele>1347</ele>
        <time>2000-01-01T10:36:28.000Z</time>
      </trkpt>
      <trkpt lat="45.74019" lon="6.17459">
        <ele>1348</ele>
        <time>2000-01-01T10:36:38.000Z</time>
      </trkpt>
      <trkpt lat="45.74" lon="6.17463">
        <ele>1348</ele>
        <time>2000-01-01T10:36:48.000Z</time>
      </trkpt>
      <trkpt lat="45.73991" lon="6.1747">
        <ele>1353.9</ele>
        <time>2000-01-01T10:36:58.000Z</time>
      </trkpt>
      <trkpt lat="45.73982" lon="6.17473">
        <ele>1355.4</ele>
        <time>2000-01-01T10:37:08.000Z</time>
      </trkpt>
      <trkpt lat="45.73977" lon="6.17485">
        <ele>1359</ele>
        <time>2000-01-01T10:37:18.000Z</time>
      </trkpt>
      <trkpt lat="45.73968" lon="6.17493">
        <ele>1366.2</ele>
        <time>2000-01-01T10:37:28.000Z</time>
      </trkpt>
      <trkpt lat="45.73959" lon="6.17498">
        <ele>1364</ele>
        <time>2000-01-01T10:37:38.000Z</time>
      </trkpt>
      <trkpt lat="45.73951" lon="6.17505">
        <ele>1372.7</ele>
        <time>2000-01-01T10:37:48.000Z</time>
      </trkpt>
      <trkpt lat="45.73941" lon="6.17505">
        <ele>1368</ele>
        <time>2000-01-01T10:37:58.000Z</time>
      </trkpt>
      <trkpt lat="45.73932" lon="6.1751">
        <ele>1374.8</ele>
        <time>2000-01-01T10:38:08.000Z</time>
      </trkpt>
      <trkpt lat="45.73927" lon="6.17523">
        <ele>1372</ele>
        <time>2000-01-01T10:38:18.000Z</time>
      </trkpt>
      <trkpt lat="45.73917" lon="6.17519">
        <ele>1378.6</ele>
        <time>2000-01-01T10:38:28.000Z</time>
      </trkpt>
      <trkpt lat="45.73899" lon="6.17525">
        <ele>1376</ele>
        <time>2000-01-01T10:38:38.000Z</time>
      </trkpt>
      <trkpt lat="45.7388" lon="6.17532">
        <ele>1393</ele>
        <time>2000-01-01T10:38:48.000Z</time>
      </trkpt>
      <trkpt lat="45.73861" lon="6.17531">
        <ele>1393</ele>
        <time>2000-01-01T10:38:58.000Z</time>
      </trkpt>
      <trkpt lat="45.73843" lon="6.17544">
        <ele>1401</ele>
        <time>2000-01-01T10:39:08.000Z</time>
      </trkpt>
      <trkpt lat="45.73833" lon="6.17549">
        <ele>1405.8</ele>
        <time>2000-01-01T10:39:18.000Z</time>
      </trkpt>
      <trkpt lat="45.73823" lon="6.17546">
        <ele>1409</ele>
        <time>2000-01-01T10:39:28.000Z</time>
      </trkpt>
      <trkpt lat="45.73827" lon="6.17558">
        <ele>1413</ele>
        <time>2000-01-01T10:39:38.000Z</time>
      </trkpt>
      <trkpt lat="45.73833" lon="6.17568">
        <ele>1413.1</ele>
        <time>2000-01-01T10:39:48.000Z</time>
      </trkpt>
      <trkpt lat="45.73836" lon="6.17581">
        <ele>1418</ele>
        <time>2000-01-01T10:39:58.000Z</time>
      </trkpt>
      <trkpt lat="45.73841" lon="6.17571">
        <ele>1416.7</ele>
        <time>2000-01-01T10:40:08.000Z</time>
      </trkpt>
      <trkpt lat="45.73845" lon="6.17584">
        <ele>1423.9</ele>
        <time>2000-01-01T10:40:18.000Z</time>
      </trkpt>
      <trkpt lat="45.73839" lon="6.17613">
        <ele>1428</ele>
        <time>2000-01-01T10:40:28.000Z</time>
      </trkpt>
      <trkpt lat="45.73834" lon="6.17624">
        <ele>1432.4</ele>
        <time>2000-01-01T10:40:38.000Z</time>
      </trkpt>
      <trkpt lat="45.73825" lon="6.17629">
        <ele>1433</ele>
        <time>2000-01-01T10:40:48.000Z</time>
      </trkpt>
      <trkpt lat="45.73824" lon="6.17632">
        <ele>1437.4</ele>
        <time>2000-01-01T10:40:58.000Z</time>
      </trkpt>
      <trkpt lat="45.73818" lon="6.17633">
        <ele>1439.3</ele>
        <time>2000-01-01T10:41:08.000Z</time>
      </trkpt>
      <trkpt lat="45.73811" lon="6.1763">
        <ele>1440.5</ele>
        <time>2000-01-01T10:41:18.000Z</time>
      </trkpt>
      <trkpt lat="45.73803" lon="6.17622">
        <ele>1441</ele>
        <time>2000-01-01T10:41:28.000Z</time>
      </trkpt>
      <trkpt lat="45.73793" lon="6.17617">
        <ele>1442</ele>
        <time>2000-01-01T10:41:38.000Z</time>
      </trkpt>
      <trkpt lat="45.73782" lon="6.17615">
        <ele>1443</ele>
        <time>2000-01-01T10:41:48.000Z</time>
      </trkpt>
      <trkpt lat="45.73774" lon="6.1761">
        <ele>1444.2</ele>
        <time>2000-01-01T10:41:58.000Z</time>
      </trkpt>
      <trkpt lat="45.73764" lon="6.17603">
        <ele>1444</ele>
        <time>2000-01-01T10:42:08.000Z</time>
      </trkpt>
      <trkpt lat="45.73753" lon="6.17599">
        <ele>1444.1</ele>
        <time>2000-01-01T10:42:18.000Z</time>
      </trkpt>
      <trkpt lat="45.73733" lon="6.17591">
        <ele>1445</ele>
        <time>2000-01-01T10:42:28.000Z</time>
      </trkpt>
      <trkpt lat="45.73712" lon="6.1758">
        <ele>1446</ele>
        <time>2000-01-01T10:42:38.000Z</time>
      </trkpt>
      <trkpt lat="45.73705" lon="6.17572">
        <ele>1447.3</ele>
        <time>2000-01-01T10:42:48.000Z</time>
      </trkpt>
      <trkpt lat="45.73698" lon="6.17565">
        <ele>1447.4</ele>
        <time>2000-01-01T10:42:58.000Z</time>
      </trkpt>
      <trkpt lat="45.73689" lon="6.1756">
        <ele>1447</ele>
        <time>2000-01-01T10:43:08.000Z</time>
      </trkpt>
      <trkpt lat="45.73678" lon="6.17557">
        <ele>1449.3</ele>
        <time>2000-01-01T10:43:18.000Z</time>
      </trkpt>
      <trkpt lat="45.7366" lon="6.17547">
        <ele>1451</ele>
        <time>2000-01-01T10:43:28.000Z</time>
      </trkpt>
      <trkpt lat="45.73657" lon="6.17562">
        <ele>1453.5</ele>
        <time>2000-01-01T10:43:38.000Z</time>
      </trkpt>
      <trkpt lat="45.73655" lon="6.1757">
        <ele>1455.1</ele>
        <time>2000-01-01T10:43:48.000Z</time>
      </trkpt>
      <trkpt lat="45.73652" lon="6.17577">
        <ele>1455</ele>
        <time>2000-01-01T10:43:58.000Z</time>
      </trkpt>
      <trkpt lat="45.73649" lon="6.17581">
        <ele>1457.5</ele>
        <time>2000-01-01T10:44:08.000Z</time>
      </trkpt>
      <trkpt lat="45.7364" lon="6.17589">
        <ele>1459.5</ele>
        <time>2000-01-01T10:44:18.000Z</time>
      </trkpt>
      <trkpt lat="45.73638" lon="6.17595">
        <ele>1461</ele>
        <time>2000-01-01T10:44:28.000Z</time>
      </trkpt>
      <trkpt lat="45.73637" lon="6.17598">
        <ele>1461</ele>
        <time>2000-01-01T10:44:38.000Z</time>
      </trkpt>
      <trkpt lat="45.73638" lon="6.17602">
        <ele>1461.2</ele>
        <time>2000-01-01T10:44:48.000Z</time>
      </trkpt>
      <trkpt lat="45.73647" lon="6.17612">
        <ele>1461.1</ele>
        <time>2000-01-01T10:44:58.000Z</time>
      </trkpt>
      <trkpt lat="45.7365" lon="6.17614">
        <ele>1461</ele>
        <time>2000-01-01T10:45:08.000Z</time>
      </trkpt>
      <trkpt lat="45.73655" lon="6.17618">
        <ele>1460.3</ele>
        <time>2000-01-01T10:45:18.000Z</time>
      </trkpt>
      <trkpt lat="45.73675" lon="6.17638">
        <ele>1460</ele>
        <time>2000-01-01T10:45:28.000Z</time>
      </trkpt>
      <trkpt lat="45.73687" lon="6.17648">
        <ele>1459.8</ele>
        <time>2000-01-01T10:45:38.000Z</time>
      </trkpt>
      <trkpt lat="45.73692" lon="6.17651">
        <ele>1460</ele>
        <time>2000-01-01T10:45:48.000Z</time>
      </trkpt>
      <trkpt lat="45.73698" lon="6.17653">
        <ele>1459.5</ele>
        <time>2000-01-01T10:45:58.000Z</time>
      </trkpt>
      <trkpt lat="45.73701" lon="6.17655">
        <ele>1459.1</ele>
        <time>2000-01-01T10:46:08.000Z</time>
      </trkpt>
      <trkpt lat="45.73706" lon="6.17662">
        <ele>1458.6</ele>
        <time>2000-01-01T10:46:18.000Z</time>
      </trkpt>
      <trkpt lat="45.73715" lon="6.17669">
        <ele>1457</ele>
        <time>2000-01-01T10:46:28.000Z</time>
      </trkpt>
      <trkpt lat="45.73725" lon="6.17679">
        <ele>1456.5</ele>
        <time>2000-01-01T10:46:38.000Z</time>
      </trkpt>
      <trkpt lat="45.73732" lon="6.17689">
        <ele>1457</ele>
        <time>2000-01-01T10:46:48.000Z</time>
      </trkpt>
      <trkpt lat="45.73737" lon="6.17695">
        <ele>1456.5</ele>
        <time>2000-01-01T10:46:58.000Z</time>
      </trkpt>
      <trkpt lat="45.73741" lon="6.17703">
        <ele>1456.3</ele>
        <time>2000-01-01T10:47:08.000Z</time>
      </trkpt>
      <trkpt lat="45.73744" lon="6.17715">
        <ele>1456</ele>
        <time>2000-01-01T10:47:18.000Z</time>
      </trkpt>
      <trkpt lat="45.73745" lon="6.17726">
        <ele>1454.8</ele>
        <time>2000-01-01T10:47:28.000Z</time>
      </trkpt>
      <trkpt lat="45.73746" lon="6.17732">
        <ele>1453</ele>
        <time>2000-01-01T10:47:38.000Z</time>
      </trkpt>
      <trkpt lat="45.7375" lon="6.17739">
        <ele>1451.6</ele>
        <time>2000-01-01T10:47:48.000Z</time>
      </trkpt>
      <trkpt lat="45.73755" lon="6.17744">
        <ele>1452</ele>
        <time>2000-01-01T10:47:58.000Z</time>
      </trkpt>
      <trkpt lat="45.73761" lon="6.17747">
        <ele>1451.6</ele>
        <time>2000-01-01T10:48:08.000Z</time>
      </trkpt>
      <trkpt lat="45.7377" lon="6.17754">
        <ele>1450.9</ele>
        <time>2000-01-01T10:48:18.000Z</time>
      </trkpt>
      <trkpt lat="45.73787" lon="6.17771">
        <ele>1445</ele>
        <time>2000-01-01T10:48:28.000Z</time>
      </trkpt>
      <trkpt lat="45.73796" lon="6.17776">
        <ele>1444.8</ele>
        <time>2000-01-01T10:48:38.000Z</time>
      </trkpt>
      <trkpt lat="45.73815" lon="6.17781">
        <ele>1444</ele>
        <time>2000-01-01T10:48:48.000Z</time>
      </trkpt>
      <trkpt lat="45.73838" lon="6.17792">
        <ele>1442</ele>
        <time>2000-01-01T10:48:58.000Z</time>
      </trkpt>
      <trkpt lat="45.73848" lon="6.17801">
        <ele>1440.4</ele>
        <time>2000-01-01T10:49:08.000Z</time>
      </trkpt>
      <trkpt lat="45.73855" lon="6.17815">
        <ele>1437</ele>
        <time>2000-01-01T10:49:18.000Z</time>
      </trkpt>
      <trkpt lat="45.73862" lon="6.17827">
        <ele>1433.5</ele>
        <time>2000-01-01T10:49:28.000Z</time>
      </trkpt>
      <trkpt lat="45.7387" lon="6.17837">
        <ele>1433</ele>
        <time>2000-01-01T10:49:38.000Z</time>
      </trkpt>
      <trkpt lat="45.73861" lon="6.17839">
        <ele>1429.1</ele>
        <time>2000-01-01T10:49:48.000Z</time>
      </trkpt>
      <trkpt lat="45.73849" lon="6.17842">
        <ele>1420</ele>
        <time>2000-01-01T10:49:58.000Z</time>
      </trkpt>
      <trkpt lat="45.73839" lon="6.17848">
        <ele>1418.6</ele>
        <time>2000-01-01T10:50:08.000Z</time>
      </trkpt>
      <trkpt lat="45.73829" lon="6.1785">
        <ele>1416</ele>
        <time>2000-01-01T10:50:18.000Z</time>
      </trkpt>
      <trkpt lat="45.7382" lon="6.17847">
        <ele>1413.7</ele>
        <time>2000-01-01T10:50:28.000Z</time>
      </trkpt>
      <trkpt lat="45.73811" lon="6.17843">
        <ele>1413</ele>
        <time>2000-01-01T10:50:38.000Z</time>
      </trkpt>
      <trkpt lat="45.73798" lon="6.1784">
        <ele>1411.6</ele>
        <time>2000-01-01T10:50:48.000Z</time>
      </trkpt>
      <trkpt lat="45.73789" lon="6.17833">
        <ele>1413</ele>
        <time>2000-01-01T10:50:58.000Z</time>
      </trkpt>
      <trkpt lat="45.7378" lon="6.17824">
        <ele>1416.4</ele>
        <time>2000-01-01T10:51:08.000Z</time>
      </trkpt>
      <trkpt lat="45.73772" lon="6.17818">
        <ele>1412</ele>
        <time>2000-01-01T10:51:18.000Z</time>
      </trkpt>
      <trkpt lat="45.73754" lon="6.17824">
        <ele>1411</ele>
        <time>2000-01-01T10:51:28.000Z</time>
      </trkpt>
      <trkpt lat="45.73742" lon="6.17826">
        <ele>1406.9</ele>
        <time>2000-01-01T10:51:38.000Z</time>
      </trkpt>
      <trkpt lat="45.7372" lon="6.17835">
        <ele>1398</ele>
        <time>2000-01-01T10:51:48.000Z</time>
      </trkpt>
      <trkpt lat="45.73708" lon="6.17842">
        <ele>1393.3</ele>
        <time>2000-01-01T10:51:58.000Z</time>
      </trkpt>
      <trkpt lat="45.73699" lon="6.17844">
        <ele>1390</ele>
        <time>2000-01-01T10:52:08.000Z</time>
      </trkpt>
      <trkpt lat="45.73688" lon="6.17845">
        <ele>1388.5</ele>
        <time>2000-01-01T10:52:18.000Z</time>
      </trkpt>
      <trkpt lat="45.73676" lon="6.17848">
        <ele>1386</ele>
        <time>2000-01-01T10:52:28.000Z</time>
      </trkpt>
      <trkpt lat="45.73665" lon="6.17852">
        <ele>1381.5</ele>
        <time>2000-01-01T10:52:38.000Z</time>
      </trkpt>
      <trkpt lat="45.73656" lon="6.17853">
        <ele>1378</ele>
        <time>2000-01-01T10:52:48.000Z</time>
      </trkpt>
      <trkpt lat="45.73659" lon="6.17867">
        <ele>1375.2</ele>
        <time>2000-01-01T10:52:58.000Z</time>
      </trkpt>
      <trkpt lat="45.73671" lon="6.17875">
        <ele>1376</ele>
        <time>2000-01-01T10:53:08.000Z</time>
      </trkpt>
      <trkpt lat="45.73676" lon="6.17884">
        <ele>1374.1</ele>
        <time>2000-01-01T10:53:18.000Z</time>
      </trkpt>
      <trkpt lat="45.7368" lon="6.179">
        <ele>1373</ele>
        <time>2000-01-01T10:53:28.000Z</time>
      </trkpt>
      <trkpt lat="45.73683" lon="6.17913">
        <ele>1367.9</ele>
        <time>2000-01-01T10:53:38.000Z</time>
      </trkpt>
      <trkpt lat="45.73697" lon="6.17952">
        <ele>1358</ele>
        <time>2000-01-01T10:53:48.000Z</time>
      </trkpt>
      <trkpt lat="45.73701" lon="6.17967">
        <ele>1354.8</ele>
        <time>2000-01-01T10:53:58.000Z</time>
      </trkpt>
      <trkpt lat="45.73704" lon="6.17981">
        <ele>1353</ele>
        <time>2000-01-01T10:54:08.000Z</time>
      </trkpt>
      <trkpt lat="45.73703" lon="6.17995">
        <ele>1349.9</ele>
        <time>2000-01-01T10:54:18.000Z</time>
      </trkpt>
      <trkpt lat="45.737" lon="6.18009">
        <ele>1350</ele>
        <time>2000-01-01T10:54:28.000Z</time>
      </trkpt>
      <trkpt lat="45.73693" lon="6.18022">
        <ele>1348.6</ele>
        <time>2000-01-01T10:54:38.000Z</time>
      </trkpt>
      <trkpt lat="45.73684" lon="6.18031">
        <ele>1348</ele>
        <time>2000-01-01T10:54:48.000Z</time>
      </trkpt>
      <trkpt lat="45.73671" lon="6.18051">
        <ele>1346</ele>
        <time>2000-01-01T10:54:58.000Z</time>
      </trkpt>
      <trkpt lat="45.73649" lon="6.1809">
        <ele>1342</ele>
        <time>2000-01-01T10:55:08.000Z</time>
      </trkpt>
      <trkpt lat="45.73642" lon="6.18097">
        <ele>1342.1</ele>
        <time>2000-01-01T10:55:18.000Z</time>
      </trkpt>
      <trkpt lat="45.7364" lon="6.18101">
        <ele>1341.7</ele>
        <time>2000-01-01T10:55:28.000Z</time>
      </trkpt>
      <trkpt lat="45.73629" lon="6.18108">
        <ele>1342</ele>
        <time>2000-01-01T10:55:38.000Z</time>
      </trkpt>
      <trkpt lat="45.73617" lon="6.18107">
        <ele>1341.7</ele>
        <time>2000-01-01T10:55:48.000Z</time>
      </trkpt>
      <trkpt lat="45.73608" lon="6.18105">
        <ele>1342</ele>
        <time>2000-01-01T10:55:58.000Z</time>
      </trkpt>
      <trkpt lat="45.73597" lon="6.18107">
        <ele>1343.3</ele>
        <time>2000-01-01T10:56:08.000Z</time>
      </trkpt>
      <trkpt lat="45.7359" lon="6.18126">
        <ele>1343</ele>
        <time>2000-01-01T10:56:18.000Z</time>
      </trkpt>
      <trkpt lat="45.73581" lon="6.18149">
        <ele>1339.5</ele>
        <time>2000-01-01T10:56:28.000Z</time>
      </trkpt>
      <trkpt lat="45.73569" lon="6.18169">
        <ele>1343</ele>
        <time>2000-01-01T10:56:38.000Z</time>
      </trkpt>
      <trkpt lat="45.73555" lon="6.18177">
        <ele>1337</ele>
        <time>2000-01-01T10:56:48.000Z</time>
      </trkpt>
      <trkpt lat="45.73538" lon="6.18177">
        <ele>1343</ele>
        <time>2000-01-01T10:56:58.000Z</time>
      </trkpt>
      <trkpt lat="45.73523" lon="6.18158">
        <ele>1347</ele>
        <time>2000-01-01T10:57:08.000Z</time>
      </trkpt>
      <trkpt lat="45.73502" lon="6.18154">
        <ele>1347</ele>
        <time>2000-01-01T10:57:18.000Z</time>
      </trkpt>
      <trkpt lat="45.73469" lon="6.18147">
        <ele>1344</ele>
        <time>2000-01-01T10:57:28.000Z</time>
      </trkpt>
      <trkpt lat="45.7345" lon="6.18142">
        <ele>1343</ele>
        <time>2000-01-01T10:57:38.000Z</time>
      </trkpt>
      <trkpt lat="45.73426" lon="6.18142">
        <ele>1339</ele>
        <time>2000-01-01T10:57:48.000Z</time>
      </trkpt>
      <trkpt lat="45.73388" lon="6.18132">
        <ele>1332</ele>
        <time>2000-01-01T10:57:58.000Z</time>
      </trkpt>
      <trkpt lat="45.73343" lon="6.18146">
        <ele>1328</ele>
        <time>2000-01-01T10:58:08.000Z</time>
      </trkpt>
      <trkpt lat="45.7332" lon="6.18149">
        <ele>1324</ele>
        <time>2000-01-01T10:58:18.000Z</time>
      </trkpt>
      <trkpt lat="45.73303" lon="6.18183">
        <ele>1323</ele>
        <time>2000-01-01T10:58:28.000Z</time>
      </trkpt>
      <trkpt lat="45.73312" lon="6.18218">
        <ele>1321</ele>
        <time>2000-01-01T10:58:38.000Z</time>
      </trkpt>
      <trkpt lat="45.73337" lon="6.18259">
        <ele>1316</ele>
        <time>2000-01-01T10:58:48.000Z</time>
      </trkpt>
      <trkpt lat="45.7334" lon="6.18294">
        <ele>1313</ele>
        <time>2000-01-01T10:58:58.000Z</time>
      </trkpt>
      <trkpt lat="45.73324" lon="6.18331">
        <ele>1310</ele>
        <time>2000-01-01T10:59:08.000Z</time>
      </trkpt>
      <trkpt lat="45.73299" lon="6.1834">
        <ele>1308</ele>
        <time>2000-01-01T10:59:18.000Z</time>
      </trkpt>
      <trkpt lat="45.73272" lon="6.18349">
        <ele>1306</ele>
        <time>2000-01-01T10:59:28.000Z</time>
      </trkpt>
      <trkpt lat="45.73242" lon="6.1839">
        <ele>1307</ele>
        <time>2000-01-01T10:59:38.000Z</time>
      </trkpt>
      <trkpt lat="45.73242" lon="6.18389">
        <ele>1307</ele>
        <time>2000-01-01T10:59:48.000Z</time>
      </trkpt>
      <trkpt lat="45.73241" lon="6.18393">
        <ele>1307.4</ele>
        <time>2000-01-01T10:59:58.000Z</time>
      </trkpt>
      <trkpt lat="45.73242" lon="6.18396">
        <ele>1307.8</ele>
        <time>2000-01-01T11:00:08.000Z</time>
      </trkpt>
      <trkpt lat="45.73245" lon="6.18409">
        <ele>1309.2</ele>
        <time>2000-01-01T11:00:18.000Z</time>
      </trkpt>
      <trkpt lat="45.73248" lon="6.18419">
        <ele>1308</ele>
        <time>2000-01-01T11:00:28.000Z</time>
      </trkpt>
      <trkpt lat="45.7325" lon="6.1843">
        <ele>1311.4</ele>
        <time>2000-01-01T11:00:38.000Z</time>
      </trkpt>
      <trkpt lat="45.73252" lon="6.18438">
        <ele>1312.2</ele>
        <time>2000-01-01T11:00:48.000Z</time>
      </trkpt>
      <trkpt lat="45.73254" lon="6.18447">
        <ele>1312</ele>
        <time>2000-01-01T11:00:58.000Z</time>
      </trkpt>
      <trkpt lat="45.73257" lon="6.18455">
        <ele>1313.9</ele>
        <time>2000-01-01T11:01:08.000Z</time>
      </trkpt>
      <trkpt lat="45.73261" lon="6.18464">
        <ele>1314.7</ele>
        <time>2000-01-01T11:01:18.000Z</time>
      </trkpt>
      <trkpt lat="45.73264" lon="6.18471">
        <ele>1315</ele>
        <time>2000-01-01T11:01:28.000Z</time>
      </trkpt>
      <trkpt lat="45.73267" lon="6.18476">
        <ele>1315.9</ele>
        <time>2000-01-01T11:01:38.000Z</time>
      </trkpt>
      <trkpt lat="45.7327" lon="6.18483">
        <ele>1316.8</ele>
        <time>2000-01-01T11:01:48.000Z</time>
      </trkpt>
      <trkpt lat="45.73273" lon="6.18487">
        <ele>1317.3</ele>
        <time>2000-01-01T11:01:58.000Z</time>
      </trkpt>
      <trkpt lat="45.73284" lon="6.185">
        <ele>1317</ele>
        <time>2000-01-01T11:02:08.000Z</time>
      </trkpt>
      <trkpt lat="45.73287" lon="6.18507">
        <ele>1318.4</ele>
        <time>2000-01-01T11:02:18.000Z</time>
      </trkpt>
      <trkpt lat="45.73291" lon="6.18523">
        <ele>1319.6</ele>
        <time>2000-01-01T11:02:28.000Z</time>
      </trkpt>
      <trkpt lat="45.73293" lon="6.1853">
        <ele>1316</ele>
        <time>2000-01-01T11:02:38.000Z</time>
      </trkpt>
      <trkpt lat="45.73295" lon="6.1853">
        <ele>1319.9</ele>
        <time>2000-01-01T11:02:48.000Z</time>
      </trkpt>
      <trkpt lat="45.73295" lon="6.18528">
        <ele>1319.6</ele>
        <time>2000-01-01T11:02:58.000Z</time>
      </trkpt>
      <trkpt lat="45.73295" lon="6.18528">
        <ele>1319.6</ele>
        <time>2000-01-01T11:03:08.000Z</time>
      </trkpt>
      <trkpt lat="45.73295" lon="6.1853">
        <ele>1319.9</ele>
        <time>2000-01-01T11:03:18.000Z</time>
      </trkpt>
      <trkpt lat="45.73298" lon="6.1853">
        <ele>1319.5</ele>
        <time>2000-01-01T11:03:28.000Z</time>
      </trkpt>
      <trkpt lat="45.73302" lon="6.1853">
        <ele>1318.9</ele>
        <time>2000-01-01T11:03:38.000Z</time>
      </trkpt>
      <trkpt lat="45.73307" lon="6.1853">
        <ele>1318.2</ele>
        <time>2000-01-01T11:03:48.000Z</time>
      </trkpt>
      <trkpt lat="45.73311" lon="6.18528">
        <ele>1316</ele>
        <time>2000-01-01T11:03:58.000Z</time>
      </trkpt>
      <trkpt lat="45.73316" lon="6.18525">
        <ele>1316.5</ele>
        <time>2000-01-01T11:04:08.000Z</time>
      </trkpt>
      <trkpt lat="45.73321" lon="6.18524">
        <ele>1315.8</ele>
        <time>2000-01-01T11:04:18.000Z</time>
      </trkpt>
      <trkpt lat="45.73327" lon="6.18522">
        <ele>1314.9</ele>
        <time>2000-01-01T11:04:28.000Z</time>
      </trkpt>
      <trkpt lat="45.73335" lon="6.18522">
        <ele>1314</ele>
        <time>2000-01-01T11:04:38.000Z</time>
      </trkpt>
      <trkpt lat="45.73339" lon="6.18521">
        <ele>1313.4</ele>
        <time>2000-01-01T11:04:48.000Z</time>
      </trkpt>
      <trkpt lat="45.73343" lon="6.18521">
        <ele>1313</ele>
        <time>2000-01-01T11:04:58.000Z</time>
      </trkpt>
      <trkpt lat="45.73348" lon="6.1852">
        <ele>1312.3</ele>
        <time>2000-01-01T11:05:08.000Z</time>
      </trkpt>
      <trkpt lat="45.73352" lon="6.18519">
        <ele>1311.7</ele>
        <time>2000-01-01T11:05:18.000Z</time>
      </trkpt>
      <trkpt lat="45.73356" lon="6.18519">
        <ele>1310</ele>
        <time>2000-01-01T11:05:28.000Z</time>
      </trkpt>
      <trkpt lat="45.73366" lon="6.18519">
        <ele>1310.1</ele>
        <time>2000-01-01T11:05:38.000Z</time>
      </trkpt>
      <trkpt lat="45.7337" lon="6.18519">
        <ele>1309.6</ele>
        <time>2000-01-01T11:05:48.000Z</time>
      </trkpt>
      <trkpt lat="45.73374" lon="6.18519">
        <ele>1309</ele>
        <time>2000-01-01T11:05:58.000Z</time>
      </trkpt>
      <trkpt lat="45.73377" lon="6.18519">
        <ele>1308</ele>
        <time>2000-01-01T11:06:08.000Z</time>
      </trkpt>
      <trkpt lat="45.73381" lon="6.18521">
        <ele>1308.3</ele>
        <time>2000-01-01T11:06:18.000Z</time>
      </trkpt>
      <trkpt lat="45.73382" lon="6.18523">
        <ele>1308.4</ele>
        <time>2000-01-01T11:06:28.000Z</time>
      </trkpt>
      <trkpt lat="45.73387" lon="6.18524">
        <ele>1307.9</ele>
        <time>2000-01-01T11:06:38.000Z</time>
      </trkpt>
      <trkpt lat="45.73392" lon="6.18525">
        <ele>1307.2</ele>
        <time>2000-01-01T11:06:48.000Z</time>
      </trkpt>
      <trkpt lat="45.73396" lon="6.18528">
        <ele>1306</ele>
        <time>2000-01-01T11:06:58.000Z</time>
      </trkpt>
      <trkpt lat="45.73402" lon="6.18533">
        <ele>1306.9</ele>
        <time>2000-01-01T11:07:08.000Z</time>
      </trkpt>
      <trkpt lat="45.73405" lon="6.18534">
        <ele>1306.6</ele>
        <time>2000-01-01T11:07:18.000Z</time>
      </trkpt>
      <trkpt lat="45.73408" lon="6.18536">
        <ele>1306.4</ele>
        <time>2000-01-01T11:07:28.000Z</time>
      </trkpt>
      <trkpt lat="45.73417" lon="6.18546">
        <ele>1306</ele>
        <time>2000-01-01T11:07:38.000Z</time>
      </trkpt>
      <trkpt lat="45.73424" lon="6.18555">
        <ele>1306.3</ele>
        <time>2000-01-01T11:07:48.000Z</time>
      </trkpt>
      <trkpt lat="45.73434" lon="6.18574">
        <ele>1305</ele>
        <time>2000-01-01T11:07:58.000Z</time>
      </trkpt>
      <trkpt lat="45.73436" lon="6.1858">
        <ele>1306.4</ele>
        <time>2000-01-01T11:08:08.000Z</time>
      </trkpt>
      <trkpt lat="45.73438" lon="6.18584">
        <ele>1306.2</ele>
        <time>2000-01-01T11:08:18.000Z</time>
      </trkpt>
      <trkpt lat="45.7344" lon="6.1859">
        <ele>1306.8</ele>
        <time>2000-01-01T11:08:28.000Z</time>
      </trkpt>
      <trkpt lat="45.73442" lon="6.18593">
        <ele>1306.8</ele>
        <time>2000-01-01T11:08:38.000Z</time>
      </trkpt>
      <trkpt lat="45.73446" lon="6.18597">
        <ele>1305</ele>
        <time>2000-01-01T11:08:48.000Z</time>
      </trkpt>
      <trkpt lat="45.7345" lon="6.18599">
        <ele>1306.7</ele>
        <time>2000-01-01T11:08:58.000Z</time>
      </trkpt>
      <trkpt lat="45.73457" lon="6.186">
        <ele>1306.1</ele>
        <time>2000-01-01T11:09:08.000Z</time>
      </trkpt>
      <trkpt lat="45.73463" lon="6.18603">
        <ele>1306</ele>
        <time>2000-01-01T11:09:18.000Z</time>
      </trkpt>
      <trkpt lat="45.73467" lon="6.18609">
        <ele>1306</ele>
        <time>2000-01-01T11:09:28.000Z</time>
      </trkpt>
      <trkpt lat="45.73468" lon="6.18609">
        <ele>1306.9</ele>
        <time>2000-01-01T11:09:38.000Z</time>
      </trkpt>
      <trkpt lat="45.73468" lon="6.18609">
        <ele>1306.9</ele>
        <time>2000-01-01T11:09:48.000Z</time>
      </trkpt>
      <trkpt lat="45.73467" lon="6.18609">
        <ele>1307</ele>
        <time>2000-01-01T11:09:58.000Z</time>
      </trkpt>
      <trkpt lat="45.73468" lon="6.1861">
        <ele>1307.2</ele>
        <time>2000-01-01T11:10:08.000Z</time>
      </trkpt>
      <trkpt lat="45.73473" lon="6.18618">
        <ele>1308.6</ele>
        <time>2000-01-01T11:10:18.000Z</time>
      </trkpt>
      <trkpt lat="45.73478" lon="6.18628">
        <ele>1310</ele>
        <time>2000-01-01T11:10:28.000Z</time>
      </trkpt>
      <trkpt lat="45.73482" lon="6.18635">
        <ele>1310</ele>
        <time>2000-01-01T11:10:38.000Z</time>
      </trkpt>
      <trkpt lat="45.73485" lon="6.18642">
        <ele>1311.6</ele>
        <time>2000-01-01T11:10:48.000Z</time>
      </trkpt>
      <trkpt lat="45.73489" lon="6.18652">
        <ele>1313</ele>
        <time>2000-01-01T11:10:58.000Z</time>
      </trkpt>
      <trkpt lat="45.73491" lon="6.1866">
        <ele>1312</ele>
        <time>2000-01-01T11:11:08.000Z</time>
      </trkpt>
      <trkpt lat="45.73491" lon="6.1866">
        <ele>1314.3</ele>
        <time>2000-01-01T11:11:18.000Z</time>
      </trkpt>
      <trkpt lat="45.73493" lon="6.1866">
        <ele>1313.7</ele>
        <time>2000-01-01T11:11:28.000Z</time>
      </trkpt>
      <trkpt lat="45.73498" lon="6.18661">
        <ele>1312.4</ele>
        <time>2000-01-01T11:11:38.000Z</time>
      </trkpt>
      <trkpt lat="45.73507" lon="6.18664">
        <ele>1311.1</ele>
        <time>2000-01-01T11:11:48.000Z</time>
      </trkpt>
      <trkpt lat="45.73515" lon="6.18673">
        <ele>1311</ele>
        <time>2000-01-01T11:11:58.000Z</time>
      </trkpt>
      <trkpt lat="45.73525" lon="6.18676">
        <ele>1311.2</ele>
        <time>2000-01-01T11:12:08.000Z</time>
      </trkpt>
      <trkpt lat="45.73536" lon="6.18681">
        <ele>1311</ele>
        <time>2000-01-01T11:12:18.000Z</time>
      </trkpt>
      <trkpt lat="45.73545" lon="6.18687">
        <ele>1311.1</ele>
        <time>2000-01-01T11:12:28.000Z</time>
      </trkpt>
      <trkpt lat="45.7355" lon="6.18698">
        <ele>1312</ele>
        <time>2000-01-01T11:12:38.000Z</time>
      </trkpt>
      <trkpt lat="45.73555" lon="6.18712">
        <ele>1313.7</ele>
        <time>2000-01-01T11:12:48.000Z</time>
      </trkpt>
      <trkpt lat="45.73558" lon="6.18727">
        <ele>1316</ele>
        <time>2000-01-01T11:12:58.000Z</time>
      </trkpt>
      <trkpt lat="45.73562" lon="6.1874">
        <ele>1316.5</ele>
        <time>2000-01-01T11:13:08.000Z</time>
      </trkpt>
      <trkpt lat="45.73578" lon="6.18761">
        <ele>1319</ele>
        <time>2000-01-01T11:13:18.000Z</time>
      </trkpt>
      <trkpt lat="45.73583" lon="6.18771">
        <ele>1321.3</ele>
        <time>2000-01-01T11:13:28.000Z</time>
      </trkpt>
      <trkpt lat="45.73596" lon="6.18768">
        <ele>1321</ele>
        <time>2000-01-01T11:13:38.000Z</time>
      </trkpt>
      <trkpt lat="45.73602" lon="6.18765">
        <ele>1322.7</ele>
        <time>2000-01-01T11:13:48.000Z</time>
      </trkpt>
      <trkpt lat="45.73606" lon="6.18764">
        <ele>1323.2</ele>
        <time>2000-01-01T11:13:58.000Z</time>
      </trkpt>
      <trkpt lat="45.73609" lon="6.18765">
        <ele>1323.8</ele>
        <time>2000-01-01T11:14:08.000Z</time>
      </trkpt>
      <trkpt lat="45.73622" lon="6.18777">
        <ele>1322</ele>
        <time>2000-01-01T11:14:18.000Z</time>
      </trkpt>
      <trkpt lat="45.73632" lon="6.18783">
        <ele>1326.4</ele>
        <time>2000-01-01T11:14:28.000Z</time>
      </trkpt>
      <trkpt lat="45.73642" lon="6.18788">
        <ele>1323</ele>
        <time>2000-01-01T11:14:38.000Z</time>
      </trkpt>
      <trkpt lat="45.73649" lon="6.18791">
        <ele>1326.8</ele>
        <time>2000-01-01T11:14:48.000Z</time>
      </trkpt>
      <trkpt lat="45.73658" lon="6.1879">
        <ele>1325.6</ele>
        <time>2000-01-01T11:14:58.000Z</time>
      </trkpt>
      <trkpt lat="45.73668" lon="6.18789">
        <ele>1322</ele>
        <time>2000-01-01T11:15:08.000Z</time>
      </trkpt>
      <trkpt lat="45.73688" lon="6.18798">
        <ele>1322</ele>
        <time>2000-01-01T11:15:18.000Z</time>
      </trkpt>
      <trkpt lat="45.73698" lon="6.18801">
        <ele>1319.5</ele>
        <time>2000-01-01T11:15:28.000Z</time>
      </trkpt>
      <trkpt lat="45.73706" lon="6.188">
        <ele>1318</ele>
        <time>2000-01-01T11:15:38.000Z</time>
      </trkpt>
      <trkpt lat="45.73714" lon="6.18791">
        <ele>1314</ele>
        <time>2000-01-01T11:15:48.000Z</time>
      </trkpt>
      <trkpt lat="45.73725" lon="6.18785">
        <ele>1310.4</ele>
        <time>2000-01-01T11:15:58.000Z</time>
      </trkpt>
      <trkpt lat="45.73737" lon="6.18784">
        <ele>1308</ele>
        <time>2000-01-01T11:16:08.000Z</time>
      </trkpt>
      <trkpt lat="45.73746" lon="6.18786">
        <ele>1305.5</ele>
        <time>2000-01-01T11:16:18.000Z</time>
      </trkpt>
      <trkpt lat="45.73755" lon="6.18792">
        <ele>1306</ele>
        <time>2000-01-01T11:16:28.000Z</time>
      </trkpt>
      <trkpt lat="45.73764" lon="6.18801">
        <ele>1304.4</ele>
        <time>2000-01-01T11:16:38.000Z</time>
      </trkpt>
      <trkpt lat="45.73774" lon="6.18802">
        <ele>1303</ele>
        <time>2000-01-01T11:16:48.000Z</time>
      </trkpt>
      <trkpt lat="45.73782" lon="6.18807">
        <ele>1301.9</ele>
        <time>2000-01-01T11:16:58.000Z</time>
      </trkpt>
      <trkpt lat="45.73791" lon="6.18814">
        <ele>1300.5</ele>
        <time>2000-01-01T11:17:08.000Z</time>
      </trkpt>
      <trkpt lat="45.73799" lon="6.18817">
        <ele>1300</ele>
        <time>2000-01-01T11:17:18.000Z</time>
      </trkpt>
      <trkpt lat="45.73808" lon="6.18823">
        <ele>1296.9</ele>
        <time>2000-01-01T11:17:28.000Z</time>
      </trkpt>
      <trkpt lat="45.73819" lon="6.18832">
        <ele>1298</ele>
        <time>2000-01-01T11:17:38.000Z</time>
      </trkpt>
      <trkpt lat="45.73828" lon="6.18836">
        <ele>1293.2</ele>
        <time>2000-01-01T11:17:48.000Z</time>
      </trkpt>
      <trkpt lat="45.73831" lon="6.18838">
        <ele>1292.6</ele>
        <time>2000-01-01T11:17:58.000Z</time>
      </trkpt>
      <trkpt lat="45.73853" lon="6.18858">
        <ele>1288</ele>
        <time>2000-01-01T11:18:08.000Z</time>
      </trkpt>
      <trkpt lat="45.73862" lon="6.18864">
        <ele>1287.3</ele>
        <time>2000-01-01T11:18:18.000Z</time>
      </trkpt>
      <trkpt lat="45.73871" lon="6.18874">
        <ele>1287</ele>
        <time>2000-01-01T11:18:28.000Z</time>
      </trkpt>
      <trkpt lat="45.7388" lon="6.18877">
        <ele>1284</ele>
        <time>2000-01-01T11:18:38.000Z</time>
      </trkpt>
      <trkpt lat="45.73889" lon="6.18884">
        <ele>1284</ele>
        <time>2000-01-01T11:18:48.000Z</time>
      </trkpt>
      <trkpt lat="45.73895" lon="6.18894">
        <ele>1280.6</ele>
        <time>2000-01-01T11:18:58.000Z</time>
      </trkpt>
      <trkpt lat="45.73913" lon="6.18911">
        <ele>1274</ele>
        <time>2000-01-01T11:19:08.000Z</time>
      </trkpt>
      <trkpt lat="45.7392" lon="6.1892">
        <ele>1271.1</ele>
        <time>2000-01-01T11:19:18.000Z</time>
      </trkpt>
      <trkpt lat="45.73926" lon="6.18932">
        <ele>1270</ele>
        <time>2000-01-01T11:19:28.000Z</time>
      </trkpt>
      <trkpt lat="45.73942" lon="6.18917">
        <ele>1269</ele>
        <time>2000-01-01T11:19:38.000Z</time>
      </trkpt>
      <trkpt lat="45.73954" lon="6.18918">
        <ele>1263.1</ele>
        <time>2000-01-01T11:19:48.000Z</time>
      </trkpt>
      <trkpt lat="45.73968" lon="6.18931">
        <ele>1269</ele>
        <time>2000-01-01T11:19:58.000Z</time>
      </trkpt>
      <trkpt lat="45.73975" lon="6.18938">
        <ele>1265.6</ele>
        <time>2000-01-01T11:20:08.000Z</time>
      </trkpt>
      <trkpt lat="45.73985" lon="6.18946">
        <ele>1264</ele>
        <time>2000-01-01T11:20:18.000Z</time>
      </trkpt>
      <trkpt lat="45.73994" lon="6.18956">
        <ele>1262.8</ele>
        <time>2000-01-01T11:20:28.000Z</time>
      </trkpt>
      <trkpt lat="45.7401" lon="6.18975">
        <ele>1261</ele>
        <time>2000-01-01T11:20:38.000Z</time>
      </trkpt>
      <trkpt lat="45.74019" lon="6.18981">
        <ele>1259.7</ele>
        <time>2000-01-01T11:20:48.000Z</time>
      </trkpt>
      <trkpt lat="45.74028" lon="6.18988">
        <ele>1258</ele>
        <time>2000-01-01T11:20:58.000Z</time>
      </trkpt>
      <trkpt lat="45.74037" lon="6.18993">
        <ele>1257.2</ele>
        <time>2000-01-01T11:21:08.000Z</time>
      </trkpt>
      <trkpt lat="45.74048" lon="6.18994">
        <ele>1256</ele>
        <time>2000-01-01T11:21:18.000Z</time>
      </trkpt>
      <trkpt lat="45.74056" lon="6.19">
        <ele>1254.9</ele>
        <time>2000-01-01T11:21:28.000Z</time>
      </trkpt>
      <trkpt lat="45.74064" lon="6.19007">
        <ele>1254</ele>
        <time>2000-01-01T11:21:38.000Z</time>
      </trkpt>
      <trkpt lat="45.74073" lon="6.19018">
        <ele>1254.7</ele>
        <time>2000-01-01T11:21:48.000Z</time>
      </trkpt>
      <trkpt lat="45.74082" lon="6.19025">
        <ele>1254</ele>
        <time>2000-01-01T11:21:58.000Z</time>
      </trkpt>
      <trkpt lat="45.74091" lon="6.19031">
        <ele>1254.5</ele>
        <time>2000-01-01T11:22:08.000Z</time>
      </trkpt>
      <trkpt lat="45.741" lon="6.19036">
        <ele>1253</ele>
        <time>2000-01-01T11:22:18.000Z</time>
      </trkpt>
      <trkpt lat="45.74108" lon="6.19043">
        <ele>1254.5</ele>
        <time>2000-01-01T11:22:28.000Z</time>
      </trkpt>
      <trkpt lat="45.74119" lon="6.19048">
        <ele>1253</ele>
        <time>2000-01-01T11:22:38.000Z</time>
      </trkpt>
      <trkpt lat="45.74129" lon="6.19055">
        <ele>1253</ele>
        <time>2000-01-01T11:22:48.000Z</time>
      </trkpt>
      <trkpt lat="45.74137" lon="6.19062">
        <ele>1251</ele>
        <time>2000-01-01T11:22:58.000Z</time>
      </trkpt>
      <trkpt lat="45.74143" lon="6.19075">
        <ele>1252</ele>
        <time>2000-01-01T11:23:08.000Z</time>
      </trkpt>
      <trkpt lat="45.74152" lon="6.19084">
        <ele>1250</ele>
        <time>2000-01-01T11:23:18.000Z</time>
      </trkpt>
      <trkpt lat="45.74162" lon="6.19088">
        <ele>1250.3</ele>
        <time>2000-01-01T11:23:28.000Z</time>
      </trkpt>
      <trkpt lat="45.7417" lon="6.19096">
        <ele>1250</ele>
        <time>2000-01-01T11:23:38.000Z</time>
      </trkpt>
      <trkpt lat="45.74178" lon="6.19108">
        <ele>1250.4</ele>
        <time>2000-01-01T11:23:48.000Z</time>
      </trkpt>
      <trkpt lat="45.74184" lon="6.19121">
        <ele>1246</ele>
        <time>2000-01-01T11:23:58.000Z</time>
      </trkpt>
      <trkpt lat="45.74193" lon="6.19126">
        <ele>1247.8</ele>
        <time>2000-01-01T11:24:08.000Z</time>
      </trkpt>
      <trkpt lat="45.74204" lon="6.19129">
        <ele>1243</ele>
        <time>2000-01-01T11:24:18.000Z</time>
      </trkpt>
      <trkpt lat="45.74212" lon="6.19134">
        <ele>1243.3</ele>
        <time>2000-01-01T11:24:28.000Z</time>
      </trkpt>
      <trkpt lat="45.74222" lon="6.19141">
        <ele>1242</ele>
        <time>2000-01-01T11:24:38.000Z</time>
      </trkpt>
      <trkpt lat="45.74239" lon="6.1916">
        <ele>1241</ele>
        <time>2000-01-01T11:24:48.000Z</time>
      </trkpt>
      <trkpt lat="45.74246" lon="6.19172">
        <ele>1236.2</ele>
        <time>2000-01-01T11:24:58.000Z</time>
      </trkpt>
      <trkpt lat="45.74255" lon="6.19185">
        <ele>1238</ele>
        <time>2000-01-01T11:25:08.000Z</time>
      </trkpt>
      <trkpt lat="45.74263" lon="6.19193">
        <ele>1232</ele>
        <time>2000-01-01T11:25:18.000Z</time>
      </trkpt>
      <trkpt lat="45.74268" lon="6.19206">
        <ele>1236</ele>
        <time>2000-01-01T11:25:28.000Z</time>
      </trkpt>
      <trkpt lat="45.74269" lon="6.19221">
        <ele>1234.3</ele>
        <time>2000-01-01T11:25:38.000Z</time>
      </trkpt>
      <trkpt lat="45.74277" lon="6.19231">
        <ele>1236</ele>
        <time>2000-01-01T11:25:48.000Z</time>
      </trkpt>
      <trkpt lat="45.74282" lon="6.19245">
        <ele>1234.4</ele>
        <time>2000-01-01T11:25:58.000Z</time>
      </trkpt>
      <trkpt lat="45.74282" lon="6.19259">
        <ele>1236</ele>
        <time>2000-01-01T11:26:08.000Z</time>
      </trkpt>
      <trkpt lat="45.74291" lon="6.19262">
        <ele>1234.3</ele>
        <time>2000-01-01T11:26:18.000Z</time>
      </trkpt>
      <trkpt lat="45.74295" lon="6.19276">
        <ele>1229</ele>
        <time>2000-01-01T11:26:28.000Z</time>
      </trkpt>
      <trkpt lat="45.74315" lon="6.19281">
        <ele>1231</ele>
        <time>2000-01-01T11:26:38.000Z</time>
      </trkpt>
      <trkpt lat="45.74317" lon="6.19294">
        <ele>1229.5</ele>
        <time>2000-01-01T11:26:48.000Z</time>
      </trkpt>
      <trkpt lat="45.74317" lon="6.19309">
        <ele>1234</ele>
        <time>2000-01-01T11:26:58.000Z</time>
      </trkpt>
      <trkpt lat="45.74317" lon="6.19325">
        <ele>1237.3</ele>
        <time>2000-01-01T11:27:08.000Z</time>
      </trkpt>
      <trkpt lat="45.74317" lon="6.19338">
        <ele>1231</ele>
        <time>2000-01-01T11:27:18.000Z</time>
      </trkpt>
      <trkpt lat="45.74328" lon="6.19335">
        <ele>1231.6</ele>
        <time>2000-01-01T11:27:28.000Z</time>
      </trkpt>
      <trkpt lat="45.74336" lon="6.1934">
        <ele>1236</ele>
        <time>2000-01-01T11:27:38.000Z</time>
      </trkpt>
      <trkpt lat="45.74344" lon="6.1935">
        <ele>1234.3</ele>
        <time>2000-01-01T11:27:48.000Z</time>
      </trkpt>
      <trkpt lat="45.74351" lon="6.19377">
        <ele>1242</ele>
        <time>2000-01-01T11:27:58.000Z</time>
      </trkpt>
      <trkpt lat="45.7435" lon="6.19392">
        <ele>1247.7</ele>
        <time>2000-01-01T11:28:08.000Z</time>
      </trkpt>
      <trkpt lat="45.74355" lon="6.19403">
        <ele>1250</ele>
        <time>2000-01-01T11:28:18.000Z</time>
      </trkpt>
      <trkpt lat="45.74357" lon="6.19417">
        <ele>1250.7</ele>
        <time>2000-01-01T11:28:28.000Z</time>
      </trkpt>
      <trkpt lat="45.74363" lon="6.19428">
        <ele>1250</ele>
        <time>2000-01-01T11:28:38.000Z</time>
      </trkpt>
      <trkpt lat="45.74366" lon="6.1944">
        <ele>1253.9</ele>
        <time>2000-01-01T11:28:48.000Z</time>
      </trkpt>
      <trkpt lat="45.74366" lon="6.19454">
        <ele>1257.7</ele>
        <time>2000-01-01T11:28:58.000Z</time>
      </trkpt>
      <trkpt lat="45.74366" lon="6.19469">
        <ele>1262</ele>
        <time>2000-01-01T11:29:08.000Z</time>
      </trkpt>
      <trkpt lat="45.74369" lon="6.19482">
        <ele>1262.9</ele>
        <time>2000-01-01T11:29:18.000Z</time>
      </trkpt>
      <trkpt lat="45.7437" lon="6.19495">
        <ele>1259</ele>
        <time>2000-01-01T11:29:28.000Z</time>
      </trkpt>
      <trkpt lat="45.74379" lon="6.19496">
        <ele>1264</ele>
        <time>2000-01-01T11:29:38.000Z</time>
      </trkpt>
      <trkpt lat="45.74389" lon="6.19494">
        <ele>1256</ele>
        <time>2000-01-01T11:29:48.000Z</time>
      </trkpt>
      <trkpt lat="45.74399" lon="6.19499">
        <ele>1260.2</ele>
        <time>2000-01-01T11:29:58.000Z</time>
      </trkpt>
      <trkpt lat="45.7441" lon="6.19498">
        <ele>1256</ele>
        <time>2000-01-01T11:30:08.000Z</time>
      </trkpt>
      <trkpt lat="45.74421" lon="6.19499">
        <ele>1254.5</ele>
        <time>2000-01-01T11:30:18.000Z</time>
      </trkpt>
      <trkpt lat="45.7443" lon="6.19502">
        <ele>1253</ele>
        <time>2000-01-01T11:30:28.000Z</time>
      </trkpt>
      <trkpt lat="45.74439" lon="6.19506">
        <ele>1256.7</ele>
        <time>2000-01-01T11:30:38.000Z</time>
      </trkpt>
      <trkpt lat="45.74461" lon="6.19502">
        <ele>1252</ele>
        <time>2000-01-01T11:30:48.000Z</time>
      </trkpt>
      <trkpt lat="45.74471" lon="6.19506">
        <ele>1250.4</ele>
        <time>2000-01-01T11:30:58.000Z</time>
      </trkpt>
      <trkpt lat="45.7448" lon="6.19511">
        <ele>1252</ele>
        <time>2000-01-01T11:31:08.000Z</time>
      </trkpt>
      <trkpt lat="45.74489" lon="6.1951">
        <ele>1244.4</ele>
        <time>2000-01-01T11:31:18.000Z</time>
      </trkpt>
      <trkpt lat="45.74499" lon="6.19512">
        <ele>1243</ele>
        <time>2000-01-01T11:31:28.000Z</time>
      </trkpt>
      <trkpt lat="45.74511" lon="6.19514">
        <ele>1238.7</ele>
        <time>2000-01-01T11:31:38.000Z</time>
      </trkpt>
      <trkpt lat="45.74521" lon="6.19517">
        <ele>1235</ele>
        <time>2000-01-01T11:31:48.000Z</time>
      </trkpt>
      <trkpt lat="45.7453" lon="6.19523">
        <ele>1237.5</ele>
        <time>2000-01-01T11:31:58.000Z</time>
      </trkpt>
      <trkpt lat="45.7454" lon="6.19527">
        <ele>1235</ele>
        <time>2000-01-01T11:32:08.000Z</time>
      </trkpt>
      <trkpt lat="45.74559" lon="6.1952">
        <ele>1227</ele>
        <time>2000-01-01T11:32:18.000Z</time>
      </trkpt>
      <trkpt lat="45.74577" lon="6.19535">
        <ele>1223</ele>
        <time>2000-01-01T11:32:28.000Z</time>
      </trkpt>
      <trkpt lat="45.74602" lon="6.19544">
        <ele>1219</ele>
        <time>2000-01-01T11:32:38.000Z</time>
      </trkpt>
      <trkpt lat="45.74633" lon="6.19562">
        <ele>1216</ele>
        <time>2000-01-01T11:32:48.000Z</time>
      </trkpt>
      <trkpt lat="45.74642" lon="6.19565">
        <ele>1212.6</ele>
        <time>2000-01-01T11:32:58.000Z</time>
      </trkpt>
      <trkpt lat="45.74664" lon="6.19563">
        <ele>1198</ele>
        <time>2000-01-01T11:33:08.000Z</time>
      </trkpt>
      <trkpt lat="45.74674" lon="6.19563">
        <ele>1198.7</ele>
        <time>2000-01-01T11:33:18.000Z</time>
      </trkpt>
      <trkpt lat="45.74687" lon="6.19567">
        <ele>1199</ele>
        <time>2000-01-01T11:33:28.000Z</time>
      </trkpt>
      <trkpt lat="45.74697" lon="6.19575">
        <ele>1199.3</ele>
        <time>2000-01-01T11:33:38.000Z</time>
      </trkpt>
      <trkpt lat="45.74705" lon="6.19584">
        <ele>1198</ele>
        <time>2000-01-01T11:33:48.000Z</time>
      </trkpt>
      <trkpt lat="45.74717" lon="6.19589">
        <ele>1198.8</ele>
        <time>2000-01-01T11:33:58.000Z</time>
      </trkpt>
      <trkpt lat="45.74727" lon="6.19596">
        <ele>1197</ele>
        <time>2000-01-01T11:34:08.000Z</time>
      </trkpt>
      <trkpt lat="45.74737" lon="6.19599">
        <ele>1194.7</ele>
        <time>2000-01-01T11:34:18.000Z</time>
      </trkpt>
      <trkpt lat="45.74747" lon="6.19606">
        <ele>1196</ele>
        <time>2000-01-01T11:34:28.000Z</time>
      </trkpt>
      <trkpt lat="45.74756" lon="6.19613">
        <ele>1191.4</ele>
        <time>2000-01-01T11:34:38.000Z</time>
      </trkpt>
      <trkpt lat="45.74767" lon="6.19616">
        <ele>1190</ele>
        <time>2000-01-01T11:34:48.000Z</time>
      </trkpt>
      <trkpt lat="45.74777" lon="6.19624">
        <ele>1184.1</ele>
        <time>2000-01-01T11:34:58.000Z</time>
      </trkpt>
      <trkpt lat="45.74785" lon="6.19628">
        <ele>1185</ele>
        <time>2000-01-01T11:35:08.000Z</time>
      </trkpt>
      <trkpt lat="45.74792" lon="6.19618">
        <ele>1177.9</ele>
        <time>2000-01-01T11:35:18.000Z</time>
      </trkpt>
      <trkpt lat="45.74797" lon="6.19634">
        <ele>1185</ele>
        <time>2000-01-01T11:35:28.000Z</time>
      </trkpt>
      <trkpt lat="45.74806" lon="6.19633">
        <ele>1182.5</ele>
        <time>2000-01-01T11:35:38.000Z</time>
      </trkpt>
      <trkpt lat="45.74814" lon="6.19644">
        <ele>1186</ele>
        <time>2000-01-01T11:35:48.000Z</time>
      </trkpt>
      <trkpt lat="45.74816" lon="6.19658">
        <ele>1187.7</ele>
        <time>2000-01-01T11:35:58.000Z</time>
      </trkpt>
      <trkpt lat="45.74817" lon="6.19672">
        <ele>1192</ele>
        <time>2000-01-01T11:36:08.000Z</time>
      </trkpt>
      <trkpt lat="45.74821" lon="6.19684">
        <ele>1192.9</ele>
        <time>2000-01-01T11:36:18.000Z</time>
      </trkpt>
      <trkpt lat="45.74829" lon="6.19692">
        <ele>1194</ele>
        <time>2000-01-01T11:36:28.000Z</time>
      </trkpt>
      <trkpt lat="45.74834" lon="6.19706">
        <ele>1194.6</ele>
        <time>2000-01-01T11:36:38.000Z</time>
      </trkpt>
      <trkpt lat="45.74837" lon="6.19719">
        <ele>1197</ele>
        <time>2000-01-01T11:36:48.000Z</time>
      </trkpt>
      <trkpt lat="45.74843" lon="6.1973">
        <ele>1196.3</ele>
        <time>2000-01-01T11:36:58.000Z</time>
      </trkpt>
      <trkpt lat="45.74849" lon="6.19755">
        <ele>1203</ele>
        <time>2000-01-01T11:37:08.000Z</time>
      </trkpt>
      <trkpt lat="45.74852" lon="6.19786">
        <ele>1203</ele>
        <time>2000-01-01T11:37:18.000Z</time>
      </trkpt>
      <trkpt lat="45.74851" lon="6.19799">
        <ele>1205.7</ele>
        <time>2000-01-01T11:37:28.000Z</time>
      </trkpt>
      <trkpt lat="45.74851" lon="6.19814">
        <ele>1209</ele>
        <time>2000-01-01T11:37:38.000Z</time>
      </trkpt>
      <trkpt lat="45.74842" lon="6.19809">
        <ele>1213</ele>
        <time>2000-01-01T11:37:48.000Z</time>
      </trkpt>
      <trkpt lat="45.74837" lon="6.19798">
        <ele>1216</ele>
        <time>2000-01-01T11:37:58.000Z</time>
      </trkpt>
      <trkpt lat="45.74829" lon="6.19788">
        <ele>1216.5</ele>
        <time>2000-01-01T11:38:08.000Z</time>
      </trkpt>
      <trkpt lat="45.74819" lon="6.19781">
        <ele>1225</ele>
        <time>2000-01-01T11:38:18.000Z</time>
      </trkpt>
      <trkpt lat="45.74811" lon="6.19775">
        <ele>1221.9</ele>
        <time>2000-01-01T11:38:28.000Z</time>
      </trkpt>
      <trkpt lat="45.74803" lon="6.19768">
        <ele>1223.5</ele>
        <time>2000-01-01T11:38:38.000Z</time>
      </trkpt>
      <trkpt lat="45.74795" lon="6.19762">
        <ele>1225</ele>
        <time>2000-01-01T11:38:48.000Z</time>
      </trkpt>
      <trkpt lat="45.74776" lon="6.19752">
        <ele>1226</ele>
        <time>2000-01-01T11:38:58.000Z</time>
      </trkpt>
      <trkpt lat="45.7477" lon="6.19741">
        <ele>1226.7</ele>
        <time>2000-01-01T11:39:08.000Z</time>
      </trkpt>
      <trkpt lat="45.74762" lon="6.19732">
        <ele>1227</ele>
        <time>2000-01-01T11:39:18.000Z</time>
      </trkpt>
      <trkpt lat="45.74753" lon="6.19727">
        <ele>1228</ele>
        <time>2000-01-01T11:39:28.000Z</time>
      </trkpt>
      <trkpt lat="45.74742" lon="6.19726">
        <ele>1229</ele>
        <time>2000-01-01T11:39:38.000Z</time>
      </trkpt>
      <trkpt lat="45.74725" lon="6.19719">
        <ele>1235.8</ele>
        <time>2000-01-01T11:39:48.000Z</time>
      </trkpt>
      <trkpt lat="45.74716" lon="6.19712">
        <ele>1240</ele>
        <time>2000-01-01T11:39:58.000Z</time>
      </trkpt>
      <trkpt lat="45.74706" lon="6.1971">
        <ele>1240.9</ele>
        <time>2000-01-01T11:40:08.000Z</time>
      </trkpt>
      <trkpt lat="45.74697" lon="6.1971">
        <ele>1242</ele>
        <time>2000-01-01T11:40:18.000Z</time>
      </trkpt>
      <trkpt lat="45.74689" lon="6.19701">
        <ele>1244.5</ele>
        <time>2000-01-01T11:40:28.000Z</time>
      </trkpt>
      <trkpt lat="45.74675" lon="6.19683">
        <ele>1244</ele>
        <time>2000-01-01T11:40:38.000Z</time>
      </trkpt>
      <trkpt lat="45.74666" lon="6.19678">
        <ele>1246.8</ele>
        <time>2000-01-01T11:40:48.000Z</time>
      </trkpt>
      <trkpt lat="45.74656" lon="6.19677">
        <ele>1250</ele>
        <time>2000-01-01T11:40:58.000Z</time>
      </trkpt>
      <trkpt lat="45.7466" lon="6.1969">
        <ele>1254.1</ele>
        <time>2000-01-01T11:41:08.000Z</time>
      </trkpt>
      <trkpt lat="45.74662" lon="6.19704">
        <ele>1256</ele>
        <time>2000-01-01T11:41:18.000Z</time>
      </trkpt>
      <trkpt lat="45.74667" lon="6.19716">
        <ele>1260.6</ele>
        <time>2000-01-01T11:41:28.000Z</time>
      </trkpt>
      <trkpt lat="45.74667" lon="6.1973">
        <ele>1260</ele>
        <time>2000-01-01T11:41:38.000Z</time>
      </trkpt>
      <trkpt lat="45.74672" lon="6.19741">
        <ele>1267.6</ele>
        <time>2000-01-01T11:41:48.000Z</time>
      </trkpt>
      <trkpt lat="45.74681" lon="6.19748">
        <ele>1264</ele>
        <time>2000-01-01T11:41:58.000Z</time>
      </trkpt>
      <trkpt lat="45.74688" lon="6.19757">
        <ele>1266.9</ele>
        <time>2000-01-01T11:42:08.000Z</time>
      </trkpt>
      <trkpt lat="45.74694" lon="6.19769">
        <ele>1264</ele>
        <time>2000-01-01T11:42:18.000Z</time>
      </trkpt>
      <trkpt lat="45.74712" lon="6.19783">
        <ele>1265</ele>
        <time>2000-01-01T11:42:28.000Z</time>
      </trkpt>
      <trkpt lat="45.74719" lon="6.19794">
        <ele>1267.3</ele>
        <time>2000-01-01T11:42:38.000Z</time>
      </trkpt>
      <trkpt lat="45.74724" lon="6.19808">
        <ele>1267</ele>
        <time>2000-01-01T11:42:48.000Z</time>
      </trkpt>
      <trkpt lat="45.74728" lon="6.19822">
        <ele>1274.9</ele>
        <time>2000-01-01T11:42:58.000Z</time>
      </trkpt>
      <trkpt lat="45.74719" lon="6.19819">
        <ele>1271</ele>
        <time>2000-01-01T11:43:08.000Z</time>
      </trkpt>
      <trkpt lat="45.7471" lon="6.19811">
        <ele>1277.5</ele>
        <time>2000-01-01T11:43:18.000Z</time>
      </trkpt>
      <trkpt lat="45.74702" lon="6.19804">
        <ele>1275</ele>
        <time>2000-01-01T11:43:28.000Z</time>
      </trkpt>
      <trkpt lat="45.74683" lon="6.19801">
        <ele>1285</ele>
        <time>2000-01-01T11:43:38.000Z</time>
      </trkpt>
      <trkpt lat="45.74674" lon="6.19796">
        <ele>1287.1</ele>
        <time>2000-01-01T11:43:48.000Z</time>
      </trkpt>
      <trkpt lat="45.74665" lon="6.19791">
        <ele>1290</ele>
        <time>2000-01-01T11:43:58.000Z</time>
      </trkpt>
      <trkpt lat="45.74655" lon="6.19788">
        <ele>1292.9</ele>
        <time>2000-01-01T11:44:08.000Z</time>
      </trkpt>
      <trkpt lat="45.74646" lon="6.19783">
        <ele>1296</ele>
        <time>2000-01-01T11:44:18.000Z</time>
      </trkpt>
      <trkpt lat="45.74653" lon="6.19792">
        <ele>1295.3</ele>
        <time>2000-01-01T11:44:28.000Z</time>
      </trkpt>
      <trkpt lat="45.74666" lon="6.19829">
        <ele>1297</ele>
        <time>2000-01-01T11:44:38.000Z</time>
      </trkpt>
      <trkpt lat="45.74673" lon="6.19839">
        <ele>1300.8</ele>
        <time>2000-01-01T11:44:48.000Z</time>
      </trkpt>
      <trkpt lat="45.74681" lon="6.19845">
        <ele>1298</ele>
        <time>2000-01-01T11:44:58.000Z</time>
      </trkpt>
      <trkpt lat="45.74687" lon="6.19857">
        <ele>1302.8</ele>
        <time>2000-01-01T11:45:08.000Z</time>
      </trkpt>
      <trkpt lat="45.74691" lon="6.1987">
        <ele>1301</ele>
        <time>2000-01-01T11:45:18.000Z</time>
      </trkpt>
      <trkpt lat="45.74698" lon="6.1988">
        <ele>1308</ele>
        <time>2000-01-01T11:45:28.000Z</time>
      </trkpt>
      <trkpt lat="45.74693" lon="6.19892">
        <ele>1313</ele>
        <time>2000-01-01T11:45:38.000Z</time>
      </trkpt>
      <trkpt lat="45.74672" lon="6.19887">
        <ele>1315</ele>
        <time>2000-01-01T11:45:48.000Z</time>
      </trkpt>
      <trkpt lat="45.74662" lon="6.19886">
        <ele>1321.9</ele>
        <time>2000-01-01T11:45:58.000Z</time>
      </trkpt>
      <trkpt lat="45.74654" lon="6.19879">
        <ele>1321</ele>
        <time>2000-01-01T11:46:08.000Z</time>
      </trkpt>
      <trkpt lat="45.74634" lon="6.19868">
        <ele>1328</ele>
        <time>2000-01-01T11:46:18.000Z</time>
      </trkpt>
      <trkpt lat="45.74625" lon="6.19861">
        <ele>1331.5</ele>
        <time>2000-01-01T11:46:28.000Z</time>
      </trkpt>
      <trkpt lat="45.74616" lon="6.19856">
        <ele>1333</ele>
        <time>2000-01-01T11:46:38.000Z</time>
      </trkpt>
      <trkpt lat="45.74619" lon="6.19869">
        <ele>1336.9</ele>
        <time>2000-01-01T11:46:48.000Z</time>
      </trkpt>
      <trkpt lat="45.74621" lon="6.19882">
        <ele>1336</ele>
        <time>2000-01-01T11:46:58.000Z</time>
      </trkpt>
      <trkpt lat="45.74629" lon="6.19891">
        <ele>1338.5</ele>
        <time>2000-01-01T11:47:08.000Z</time>
      </trkpt>
      <trkpt lat="45.74634" lon="6.19901">
        <ele>1339.5</ele>
        <time>2000-01-01T11:47:18.000Z</time>
      </trkpt>
      <trkpt lat="45.74641" lon="6.19913">
        <ele>1339</ele>
        <time>2000-01-01T11:47:28.000Z</time>
      </trkpt>
      <trkpt lat="45.74649" lon="6.1992">
        <ele>1340</ele>
        <time>2000-01-01T11:47:38.000Z</time>
      </trkpt>
      <trkpt lat="45.74659" lon="6.19927">
        <ele>1339</ele>
        <time>2000-01-01T11:47:48.000Z</time>
      </trkpt>
      <trkpt lat="45.74665" lon="6.1994">
        <ele>1341.7</ele>
        <time>2000-01-01T11:47:58.000Z</time>
      </trkpt>
      <trkpt lat="45.74659" lon="6.19949">
        <ele>1347</ele>
        <time>2000-01-01T11:48:08.000Z</time>
      </trkpt>
      <trkpt lat="45.7464" lon="6.19946">
        <ele>1350</ele>
        <time>2000-01-01T11:48:18.000Z</time>
      </trkpt>
      <trkpt lat="45.74623" lon="6.1993">
        <ele>1353</ele>
        <time>2000-01-01T11:48:28.000Z</time>
      </trkpt>
      <trkpt lat="45.74614" lon="6.19925">
        <ele>1359.1</ele>
        <time>2000-01-01T11:48:38.000Z</time>
      </trkpt>
      <trkpt lat="45.74605" lon="6.19918">
        <ele>1358</ele>
        <time>2000-01-01T11:48:48.000Z</time>
      </trkpt>
      <trkpt lat="45.74604" lon="6.19932">
        <ele>1367.1</ele>
        <time>2000-01-01T11:48:58.000Z</time>
      </trkpt>
      <trkpt lat="45.7461" lon="6.19957">
        <ele>1371</ele>
        <time>2000-01-01T11:49:08.000Z</time>
      </trkpt>
      <trkpt lat="45.74615" lon="6.19969">
        <ele>1378.3</ele>
        <time>2000-01-01T11:49:18.000Z</time>
      </trkpt>
      <trkpt lat="45.74618" lon="6.19982">
        <ele>1385</ele>
        <time>2000-01-01T11:49:28.000Z</time>
      </trkpt>
      <trkpt lat="45.74619" lon="6.19997">
        <ele>1390.7</ele>
        <time>2000-01-01T11:49:38.000Z</time>
      </trkpt>
      <trkpt lat="45.74621" lon="6.2001">
        <ele>1390</ele>
        <time>2000-01-01T11:49:48.000Z</time>
      </trkpt>
      <trkpt lat="45.74628" lon="6.2002">
        <ele>1393.8</ele>
        <time>2000-01-01T11:49:58.000Z</time>
      </trkpt>
      <trkpt lat="45.74632" lon="6.20033">
        <ele>1394</ele>
        <time>2000-01-01T11:50:08.000Z</time>
      </trkpt>
      <trkpt lat="45.74637" lon="6.20045">
        <ele>1406.6</ele>
        <time>2000-01-01T11:50:18.000Z</time>
      </trkpt>
      <trkpt lat="45.74628" lon="6.20049">
        <ele>1408</ele>
        <time>2000-01-01T11:50:28.000Z</time>
      </trkpt>
      <trkpt lat="45.74631" lon="6.20061">
        <ele>1422.4</ele>
        <time>2000-01-01T11:50:38.000Z</time>
      </trkpt>
      <trkpt lat="45.74641" lon="6.20064">
        <ele>1420</ele>
        <time>2000-01-01T11:50:48.000Z</time>
      </trkpt>
      <trkpt lat="45.74641" lon="6.20077">
        <ele>1424</ele>
        <time>2000-01-01T11:50:58.000Z</time>
      </trkpt>
      <trkpt lat="45.74637" lon="6.20091">
        <ele>1448.1</ele>
        <time>2000-01-01T11:51:08.000Z</time>
      </trkpt>
      <trkpt lat="45.74644" lon="6.201">
        <ele>1460</ele>
        <time>2000-01-01T11:51:18.000Z</time>
      </trkpt>
      <trkpt lat="45.74637" lon="6.20109">
        <ele>1477.7</ele>
        <time>2000-01-01T11:51:28.000Z</time>
      </trkpt>
      <trkpt lat="45.74627" lon="6.20112">
        <ele>1487</ele>
        <time>2000-01-01T11:51:38.000Z</time>
      </trkpt>
      <trkpt lat="45.74618" lon="6.2011">
        <ele>1491.1</ele>
        <time>2000-01-01T11:51:48.000Z</time>
      </trkpt>
      <trkpt lat="45.74591" lon="6.20088">
        <ele>1487</ele>
        <time>2000-01-01T11:51:58.000Z</time>
      </trkpt>
      <trkpt lat="45.74588" lon="6.20076">
        <ele>1479.8</ele>
        <time>2000-01-01T11:52:08.000Z</time>
      </trkpt>
      <trkpt lat="45.74589" lon="6.20062">
        <ele>1473</ele>
        <time>2000-01-01T11:52:18.000Z</time>
      </trkpt>
      <trkpt lat="45.7458" lon="6.20055">
        <ele>1460.8</ele>
        <time>2000-01-01T11:52:28.000Z</time>
      </trkpt>
      <trkpt lat="45.74565" lon="6.20035">
        <ele>1488</ele>
        <time>2000-01-01T11:52:38.000Z</time>
      </trkpt>
      <trkpt lat="45.74562" lon="6.20048">
        <ele>1481</ele>
        <time>2000-01-01T11:52:48.000Z</time>
      </trkpt>
      <trkpt lat="45.74563" lon="6.20062">
        <ele>1494</ele>
        <time>2000-01-01T11:52:58.000Z</time>
      </trkpt>
      <trkpt lat="45.74572" lon="6.20068">
        <ele>1490.6</ele>
        <time>2000-01-01T11:53:08.000Z</time>
      </trkpt>
      <trkpt lat="45.74579" lon="6.20075">
        <ele>1494</ele>
        <time>2000-01-01T11:53:18.000Z</time>
      </trkpt>
      <trkpt lat="45.74589" lon="6.2008">
        <ele>1484.1</ele>
        <time>2000-01-01T11:53:28.000Z</time>
      </trkpt>
      <trkpt lat="45.74595" lon="6.2009">
        <ele>1494</ele>
        <time>2000-01-01T11:53:38.000Z</time>
      </trkpt>
      <trkpt lat="45.74604" lon="6.2009">
        <ele>1475.9</ele>
        <time>2000-01-01T11:53:48.000Z</time>
      </trkpt>
      <trkpt lat="45.74612" lon="6.201">
        <ele>1490</ele>
        <time>2000-01-01T11:53:58.000Z</time>
      </trkpt>
      <trkpt lat="45.74614" lon="6.20114">
        <ele>1497.2</ele>
        <time>2000-01-01T11:54:08.000Z</time>
      </trkpt>
      <trkpt lat="45.74622" lon="6.2012">
        <ele>1489</ele>
        <time>2000-01-01T11:54:18.000Z</time>
      </trkpt>
      <trkpt lat="45.74632" lon="6.20118">
        <ele>1491.2</ele>
        <time>2000-01-01T11:54:28.000Z</time>
      </trkpt>
      <trkpt lat="45.7464" lon="6.20124">
        <ele>1493</ele>
        <time>2000-01-01T11:54:38.000Z</time>
      </trkpt>
      <trkpt lat="45.7465" lon="6.20129">
        <ele>1495.2</ele>
        <time>2000-01-01T11:54:48.000Z</time>
      </trkpt>
      <trkpt lat="45.74659" lon="6.20131">
        <ele>1498</ele>
        <time>2000-01-01T11:54:58.000Z</time>
      </trkpt>
      <trkpt lat="45.74668" lon="6.20135">
        <ele>1491.3</ele>
        <time>2000-01-01T11:55:08.000Z</time>
      </trkpt>
      <trkpt lat="45.74672" lon="6.20148">
        <ele>1496.2</ele>
        <time>2000-01-01T11:55:18.000Z</time>
      </trkpt>
      <trkpt lat="45.7467" lon="6.2016">
        <ele>1507</ele>
        <time>2000-01-01T11:55:28.000Z</time>
      </trkpt>
      <trkpt lat="45.74669" lon="6.20174">
        <ele>1509.3</ele>
        <time>2000-01-01T11:55:38.000Z</time>
      </trkpt>
      <trkpt lat="45.7467" lon="6.20187">
        <ele>1509</ele>
        <time>2000-01-01T11:55:48.000Z</time>
      </trkpt>
      <trkpt lat="45.74671" lon="6.202">
        <ele>1517.4</ele>
        <time>2000-01-01T11:55:58.000Z</time>
      </trkpt>
      <trkpt lat="45.7467" lon="6.20214">
        <ele>1515</ele>
        <time>2000-01-01T11:56:08.000Z</time>
      </trkpt>
      <trkpt lat="45.74674" lon="6.20226">
        <ele>1521.7</ele>
        <time>2000-01-01T11:56:18.000Z</time>
      </trkpt>
      <trkpt lat="45.74673" lon="6.2024">
        <ele>1522.2</ele>
        <time>2000-01-01T11:56:28.000Z</time>
      </trkpt>
      <trkpt lat="45.74674" lon="6.20269">
        <ele>1517</ele>
        <time>2000-01-01T11:56:38.000Z</time>
      </trkpt>
      <trkpt lat="45.74676" lon="6.20282">
        <ele>1520.8</ele>
        <time>2000-01-01T11:56:48.000Z</time>
      </trkpt>
      <trkpt lat="45.74682" lon="6.20295">
        <ele>1519</ele>
        <time>2000-01-01T11:56:58.000Z</time>
      </trkpt>
      <trkpt lat="45.74675" lon="6.20305">
        <ele>1520</ele>
        <time>2000-01-01T11:57:08.000Z</time>
      </trkpt>
      <trkpt lat="45.74667" lon="6.2031">
        <ele>1519</ele>
        <time>2000-01-01T11:57:18.000Z</time>
      </trkpt>
      <trkpt lat="45.74657" lon="6.20319">
        <ele>1518.9</ele>
        <time>2000-01-01T11:57:28.000Z</time>
      </trkpt>
      <trkpt lat="45.74646" lon="6.20323">
        <ele>1520</ele>
        <time>2000-01-01T11:57:38.000Z</time>
      </trkpt>
      <trkpt lat="45.74632" lon="6.20324">
        <ele>1520.4</ele>
        <time>2000-01-01T11:57:48.000Z</time>
      </trkpt>
      <trkpt lat="45.74621" lon="6.20325">
        <ele>1520</ele>
        <time>2000-01-01T11:57:58.000Z</time>
      </trkpt>
      <trkpt lat="45.74602" lon="6.20324">
        <ele>1517</ele>
        <time>2000-01-01T11:58:08.000Z</time>
      </trkpt>
      <trkpt lat="45.74591" lon="6.20322">
        <ele>1519.5</ele>
        <time>2000-01-01T11:58:18.000Z</time>
      </trkpt>
      <trkpt lat="45.74581" lon="6.20324">
        <ele>1515</ele>
        <time>2000-01-01T11:58:28.000Z</time>
      </trkpt>
      <trkpt lat="45.74573" lon="6.20333">
        <ele>1516.3</ele>
        <time>2000-01-01T11:58:38.000Z</time>
      </trkpt>
      <trkpt lat="45.74569" lon="6.20348">
        <ele>1514</ele>
        <time>2000-01-01T11:58:48.000Z</time>
      </trkpt>
      <trkpt lat="45.74562" lon="6.2036">
        <ele>1515.4</ele>
        <time>2000-01-01T11:58:58.000Z</time>
      </trkpt>
      <trkpt lat="45.74551" lon="6.20365">
        <ele>1515</ele>
        <time>2000-01-01T11:59:08.000Z</time>
      </trkpt>
      <trkpt lat="45.74541" lon="6.20367">
        <ele>1515.9</ele>
        <time>2000-01-01T11:59:18.000Z</time>
      </trkpt>
      <trkpt lat="45.74533" lon="6.20377">
        <ele>1517</ele>
        <time>2000-01-01T11:59:28.000Z</time>
      </trkpt>
      <trkpt lat="45.74524" lon="6.20378">
        <ele>1519.7</ele>
        <time>2000-01-01T11:59:38.000Z</time>
      </trkpt>
      <trkpt lat="45.74515" lon="6.20378">
        <ele>1521.3</ele>
        <time>2000-01-01T11:59:48.000Z</time>
      </trkpt>
      <trkpt lat="45.74506" lon="6.20385">
        <ele>1523</ele>
        <time>2000-01-01T11:59:58.000Z</time>
      </trkpt>
      <trkpt lat="45.74503" lon="6.20399">
        <ele>1527.7</ele>
        <time>2000-01-01T12:00:08.000Z</time>
      </trkpt>
      <trkpt lat="45.74498" lon="6.2041">
        <ele>1530</ele>
        <time>2000-01-01T12:00:18.000Z</time>
      </trkpt>
      <trkpt lat="45.74491" lon="6.20422">
        <ele>1531.4</ele>
        <time>2000-01-01T12:00:28.000Z</time>
      </trkpt>
      <trkpt lat="45.74478" lon="6.20424">
        <ele>1532</ele>
        <time>2000-01-01T12:00:38.000Z</time>
      </trkpt>
      <trkpt lat="45.74468" lon="6.20425">
        <ele>1533.4</ele>
        <time>2000-01-01T12:00:48.000Z</time>
      </trkpt>
      <trkpt lat="45.74456" lon="6.20425">
        <ele>1534</ele>
        <time>2000-01-01T12:00:58.000Z</time>
      </trkpt>
      <trkpt lat="45.74445" lon="6.20423">
        <ele>1536.1</ele>
        <time>2000-01-01T12:01:08.000Z</time>
      </trkpt>
      <trkpt lat="45.74427" lon="6.20413">
        <ele>1536</ele>
        <time>2000-01-01T12:01:18.000Z</time>
      </trkpt>
      <trkpt lat="45.74407" lon="6.20407">
        <ele>1538</ele>
        <time>2000-01-01T12:01:28.000Z</time>
      </trkpt>
      <trkpt lat="45.74393" lon="6.20401">
        <ele>1540.9</ele>
        <time>2000-01-01T12:01:38.000Z</time>
      </trkpt>
      <trkpt lat="45.74381" lon="6.20401">
        <ele>1541</ele>
        <time>2000-01-01T12:01:48.000Z</time>
      </trkpt>
      <trkpt lat="45.74374" lon="6.20403">
        <ele>1543.1</ele>
        <time>2000-01-01T12:01:58.000Z</time>
      </trkpt>
      <trkpt lat="45.74346" lon="6.20408">
        <ele>1545</ele>
        <time>2000-01-01T12:02:08.000Z</time>
      </trkpt>
      <trkpt lat="45.74344" lon="6.20411">
        <ele>1545.6</ele>
        <time>2000-01-01T12:02:18.000Z</time>
      </trkpt>
      <trkpt lat="45.74343" lon="6.20414">
        <ele>1545.6</ele>
        <time>2000-01-01T12:02:28.000Z</time>
      </trkpt>
      <trkpt lat="45.74339" lon="6.2042">
        <ele>1545.9</ele>
        <time>2000-01-01T12:02:38.000Z</time>
      </trkpt>
      <trkpt lat="45.74335" lon="6.20423">
        <ele>1546.2</ele>
        <time>2000-01-01T12:02:48.000Z</time>
      </trkpt>
      <trkpt lat="45.74332" lon="6.20422">
        <ele>1546.2</ele>
        <time>2000-01-01T12:02:58.000Z</time>
      </trkpt>
      <trkpt lat="45.74322" lon="6.20419">
        <ele>1546</ele>
        <time>2000-01-01T12:03:08.000Z</time>
      </trkpt>
      <trkpt lat="45.74311" lon="6.20419">
        <ele>1547</ele>
        <time>2000-01-01T12:03:18.000Z</time>
      </trkpt>
      <trkpt lat="45.743" lon="6.20415">
        <ele>1547</ele>
        <time>2000-01-01T12:03:28.000Z</time>
      </trkpt>
      <trkpt lat="45.74295" lon="6.20411">
        <ele>1547.5</ele>
        <time>2000-01-01T12:03:38.000Z</time>
      </trkpt>
      <trkpt lat="45.74285" lon="6.20407">
        <ele>1547.8</ele>
        <time>2000-01-01T12:03:48.000Z</time>
      </trkpt>
      <trkpt lat="45.7428" lon="6.20405">
        <ele>1547</ele>
        <time>2000-01-01T12:03:58.000Z</time>
      </trkpt>
      <trkpt lat="45.74274" lon="6.20406">
        <ele>1548.3</ele>
        <time>2000-01-01T12:04:08.000Z</time>
      </trkpt>
      <trkpt lat="45.74264" lon="6.20411">
        <ele>1549.1</ele>
        <time>2000-01-01T12:04:18.000Z</time>
      </trkpt>
      <trkpt lat="45.74258" lon="6.20413">
        <ele>1549</ele>
        <time>2000-01-01T12:04:28.000Z</time>
      </trkpt>
      <trkpt lat="45.74243" lon="6.20426">
        <ele>1551.4</ele>
        <time>2000-01-01T12:04:38.000Z</time>
      </trkpt>
      <trkpt lat="45.74233" lon="6.20433">
        <ele>1555</ele>
        <time>2000-01-01T12:04:48.000Z</time>
      </trkpt>
      <trkpt lat="45.74228" lon="6.20435">
        <ele>1554.4</ele>
        <time>2000-01-01T12:04:58.000Z</time>
      </trkpt>
      <trkpt lat="45.74226" lon="6.20437">
        <ele>1554.8</ele>
        <time>2000-01-01T12:05:08.000Z</time>
      </trkpt>
      <trkpt lat="45.74223" lon="6.20438">
        <ele>1555.4</ele>
        <time>2000-01-01T12:05:18.000Z</time>
      </trkpt>
      <trkpt lat="45.74217" lon="6.20442">
        <ele>1555.9</ele>
        <time>2000-01-01T12:05:28.000Z</time>
      </trkpt>
      <trkpt lat="45.74213" lon="6.20446">
        <ele>1556</ele>
        <time>2000-01-01T12:05:38.000Z</time>
      </trkpt>
      <trkpt lat="45.74207" lon="6.20453">
        <ele>1558.1</ele>
        <time>2000-01-01T12:05:48.000Z</time>
      </trkpt>
      <trkpt lat="45.74203" lon="6.20456">
        <ele>1558.8</ele>
        <time>2000-01-01T12:05:58.000Z</time>
      </trkpt>
      <trkpt lat="45.74195" lon="6.20457">
        <ele>1558</ele>
        <time>2000-01-01T12:06:08.000Z</time>
      </trkpt>
      <trkpt lat="45.74192" lon="6.20457">
        <ele>1559.5</ele>
        <time>2000-01-01T12:06:18.000Z</time>
      </trkpt>
      <trkpt lat="45.74181" lon="6.20462">
        <ele>1561.6</ele>
        <time>2000-01-01T12:06:28.000Z</time>
      </trkpt>
      <trkpt lat="45.74169" lon="6.20475">
        <ele>1566</ele>
        <time>2000-01-01T12:06:38.000Z</time>
      </trkpt>
      <trkpt lat="45.7416" lon="6.20476">
        <ele>1566.5</ele>
        <time>2000-01-01T12:06:48.000Z</time>
      </trkpt>
      <trkpt lat="45.74155" lon="6.2048">
        <ele>1567</ele>
        <time>2000-01-01T12:06:58.000Z</time>
      </trkpt>
      <trkpt lat="45.74136" lon="6.20492">
        <ele>1567</ele>
        <time>2000-01-01T12:07:08.000Z</time>
      </trkpt>
      <trkpt lat="45.74127" lon="6.20503">
        <ele>1569.3</ele>
        <time>2000-01-01T12:07:18.000Z</time>
      </trkpt>
      <trkpt lat="45.74121" lon="6.20507">
        <ele>1570.2</ele>
        <time>2000-01-01T12:07:28.000Z</time>
      </trkpt>
      <trkpt lat="45.74116" lon="6.20508">
        <ele>1567</ele>
        <time>2000-01-01T12:07:38.000Z</time>
      </trkpt>
      <trkpt lat="45.74107" lon="6.20512">
        <ele>1571.4</ele>
        <time>2000-01-01T12:07:48.000Z</time>
      </trkpt>
      <trkpt lat="45.74092" lon="6.20515">
        <ele>1571</ele>
        <time>2000-01-01T12:07:58.000Z</time>
      </trkpt>
      <trkpt lat="45.74087" lon="6.20517">
        <ele>1572.2</ele>
        <time>2000-01-01T12:08:08.000Z</time>
      </trkpt>
      <trkpt lat="45.74062" lon="6.20527">
        <ele>1570</ele>
        <time>2000-01-01T12:08:18.000Z</time>
      </trkpt>
      <trkpt lat="45.74056" lon="6.20531">
        <ele>1573.7</ele>
        <time>2000-01-01T12:08:28.000Z</time>
      </trkpt>
      <trkpt lat="45.74048" lon="6.20534">
        <ele>1573</ele>
        <time>2000-01-01T12:08:38.000Z</time>
      </trkpt>
      <trkpt lat="45.74029" lon="6.20541">
        <ele>1570</ele>
        <time>2000-01-01T12:08:48.000Z</time>
      </trkpt>
      <trkpt lat="45.74022" lon="6.20542">
        <ele>1570.5</ele>
        <time>2000-01-01T12:08:58.000Z</time>
      </trkpt>
      <trkpt lat="45.74013" lon="6.20541">
        <ele>1570</ele>
        <time>2000-01-01T12:09:08.000Z</time>
      </trkpt>
      <trkpt lat="45.73987" lon="6.20536">
        <ele>1569</ele>
        <time>2000-01-01T12:09:18.000Z</time>
      </trkpt>
      <trkpt lat="45.73958" lon="6.20534">
        <ele>1568</ele>
        <time>2000-01-01T12:09:28.000Z</time>
      </trkpt>
      <trkpt lat="45.73949" lon="6.20536">
        <ele>1568.5</ele>
        <time>2000-01-01T12:09:38.000Z</time>
      </trkpt>
      <trkpt lat="45.73937" lon="6.2054">
        <ele>1566</ele>
        <time>2000-01-01T12:09:48.000Z</time>
      </trkpt>
      <trkpt lat="45.73927" lon="6.20545">
        <ele>1567.4</ele>
        <time>2000-01-01T12:09:58.000Z</time>
      </trkpt>
      <trkpt lat="45.73916" lon="6.20547">
        <ele>1569</ele>
        <time>2000-01-01T12:10:08.000Z</time>
      </trkpt>
      <trkpt lat="45.73906" lon="6.20546">
        <ele>1569.4</ele>
        <time>2000-01-01T12:10:18.000Z</time>
      </trkpt>
      <trkpt lat="45.73877" lon="6.20523">
        <ele>1572</ele>
        <time>2000-01-01T12:10:28.000Z</time>
      </trkpt>
      <trkpt lat="45.73868" lon="6.20518">
        <ele>1572.6</ele>
        <time>2000-01-01T12:10:38.000Z</time>
      </trkpt>
      <trkpt lat="45.73858" lon="6.20512">
        <ele>1572</ele>
        <time>2000-01-01T12:10:48.000Z</time>
      </trkpt>
      <trkpt lat="45.7385" lon="6.20504">
        <ele>1572.3</ele>
        <time>2000-01-01T12:10:58.000Z</time>
      </trkpt>
      <trkpt lat="45.73841" lon="6.20503">
        <ele>1572</ele>
        <time>2000-01-01T12:11:08.000Z</time>
      </trkpt>
      <trkpt lat="45.73819" lon="6.20497">
        <ele>1574</ele>
        <time>2000-01-01T12:11:18.000Z</time>
      </trkpt>
      <trkpt lat="45.73776" lon="6.20488">
        <ele>1579</ele>
        <time>2000-01-01T12:11:28.000Z</time>
      </trkpt>
      <trkpt lat="45.73766" lon="6.20491">
        <ele>1581.7</ele>
        <time>2000-01-01T12:11:38.000Z</time>
      </trkpt>
      <trkpt lat="45.73756" lon="6.20491">
        <ele>1582</ele>
        <time>2000-01-01T12:11:48.000Z</time>
      </trkpt>
      <trkpt lat="45.73746" lon="6.2049">
        <ele>1583.6</ele>
        <time>2000-01-01T12:11:58.000Z</time>
      </trkpt>
      <trkpt lat="45.73724" lon="6.20483">
        <ele>1584</ele>
        <time>2000-01-01T12:12:08.000Z</time>
      </trkpt>
      <trkpt lat="45.73683" lon="6.20473">
        <ele>1591</ele>
        <time>2000-01-01T12:12:18.000Z</time>
      </trkpt>
      <trkpt lat="45.73666" lon="6.20463">
        <ele>1592.9</ele>
        <time>2000-01-01T12:12:28.000Z</time>
      </trkpt>
      <trkpt lat="45.73658" lon="6.20456">
        <ele>1591</ele>
        <time>2000-01-01T12:12:38.000Z</time>
      </trkpt>
      <trkpt lat="45.7364" lon="6.20438">
        <ele>1591</ele>
        <time>2000-01-01T12:12:48.000Z</time>
      </trkpt>
      <trkpt lat="45.73629" lon="6.2043">
        <ele>1594.5</ele>
        <time>2000-01-01T12:12:58.000Z</time>
      </trkpt>
      <trkpt lat="45.73621" lon="6.20422">
        <ele>1594</ele>
        <time>2000-01-01T12:13:08.000Z</time>
      </trkpt>
      <trkpt lat="45.73612" lon="6.20419">
        <ele>1596.3</ele>
        <time>2000-01-01T12:13:18.000Z</time>
      </trkpt>
      <trkpt lat="45.73603" lon="6.20414">
        <ele>1598</ele>
        <time>2000-01-01T12:13:28.000Z</time>
      </trkpt>
      <trkpt lat="45.73587" lon="6.20399">
        <ele>1598</ele>
        <time>2000-01-01T12:13:38.000Z</time>
      </trkpt>
      <trkpt lat="45.73577" lon="6.20392">
        <ele>1600.9</ele>
        <time>2000-01-01T12:13:48.000Z</time>
      </trkpt>
      <trkpt lat="45.73569" lon="6.20384">
        <ele>1602</ele>
        <time>2000-01-01T12:13:58.000Z</time>
      </trkpt>
      <trkpt lat="45.73559" lon="6.2038">
        <ele>1602.7</ele>
        <time>2000-01-01T12:14:08.000Z</time>
      </trkpt>
      <trkpt lat="45.73529" lon="6.20346">
        <ele>1613</ele>
        <time>2000-01-01T12:14:18.000Z</time>
      </trkpt>
      <trkpt lat="45.73521" lon="6.20339">
        <ele>1612.2</ele>
        <time>2000-01-01T12:14:28.000Z</time>
      </trkpt>
      <trkpt lat="45.73514" lon="6.2033">
        <ele>1616</ele>
        <time>2000-01-01T12:14:38.000Z</time>
      </trkpt>
      <trkpt lat="45.7351" lon="6.20318">
        <ele>1615.5</ele>
        <time>2000-01-01T12:14:48.000Z</time>
      </trkpt>
      <trkpt lat="45.73502" lon="6.20308">
        <ele>1620</ele>
        <time>2000-01-01T12:14:58.000Z</time>
      </trkpt>
      <trkpt lat="45.73498" lon="6.20296">
        <ele>1620.3</ele>
        <time>2000-01-01T12:15:08.000Z</time>
      </trkpt>
      <trkpt lat="45.7349" lon="6.2029">
        <ele>1625</ele>
        <time>2000-01-01T12:15:18.000Z</time>
      </trkpt>
      <trkpt lat="45.73486" lon="6.20279">
        <ele>1629</ele>
        <time>2000-01-01T12:15:28.000Z</time>
      </trkpt>
      <trkpt lat="45.73478" lon="6.20272">
        <ele>1631.2</ele>
        <time>2000-01-01T12:15:38.000Z</time>
      </trkpt>
      <trkpt lat="45.73473" lon="6.2026">
        <ele>1634.5</ele>
        <time>2000-01-01T12:15:48.000Z</time>
      </trkpt>
      <trkpt lat="45.7347" lon="6.20248">
        <ele>1634</ele>
        <time>2000-01-01T12:15:58.000Z</time>
      </trkpt>
      <trkpt lat="45.73464" lon="6.20238">
        <ele>1637.8</ele>
        <time>2000-01-01T12:16:08.000Z</time>
      </trkpt>
      <trkpt lat="45.73457" lon="6.20229">
        <ele>1640.8</ele>
        <time>2000-01-01T12:16:18.000Z</time>
      </trkpt>
      <trkpt lat="45.73441" lon="6.20214">
        <ele>1651</ele>
        <time>2000-01-01T12:16:28.000Z</time>
      </trkpt>
      <trkpt lat="45.73435" lon="6.20204">
        <ele>1652.6</ele>
        <time>2000-01-01T12:16:38.000Z</time>
      </trkpt>
      <trkpt lat="45.73427" lon="6.202">
        <ele>1657</ele>
        <time>2000-01-01T12:16:48.000Z</time>
      </trkpt>
      <trkpt lat="45.73423" lon="6.20188">
        <ele>1659</ele>
        <time>2000-01-01T12:16:58.000Z</time>
      </trkpt>
      <trkpt lat="45.73422" lon="6.20182">
        <ele>1658.6</ele>
        <time>2000-01-01T12:17:08.000Z</time>
      </trkpt>
      <trkpt lat="45.73412" lon="6.2016">
        <ele>1662</ele>
        <time>2000-01-01T12:17:18.000Z</time>
      </trkpt>
      <trkpt lat="45.73403" lon="6.20156">
        <ele>1667.7</ele>
        <time>2000-01-01T12:17:28.000Z</time>
      </trkpt>
      <trkpt lat="45.73393" lon="6.20155">
        <ele>1676</ele>
        <time>2000-01-01T12:17:38.000Z</time>
      </trkpt>
      <trkpt lat="45.73385" lon="6.20161">
        <ele>1681.5</ele>
        <time>2000-01-01T12:17:48.000Z</time>
      </trkpt>
      <trkpt lat="45.73381" lon="6.20165">
        <ele>1685.1</ele>
        <time>2000-01-01T12:17:58.000Z</time>
      </trkpt>
      <trkpt lat="45.73379" lon="6.20164">
        <ele>1686</ele>
        <time>2000-01-01T12:18:08.000Z</time>
      </trkpt>
      <trkpt lat="45.73375" lon="6.20162">
        <ele>1690</ele>
        <time>2000-01-01T12:18:18.000Z</time>
      </trkpt>
      <trkpt lat="45.73368" lon="6.20158">
        <ele>1691.4</ele>
        <time>2000-01-01T12:18:28.000Z</time>
      </trkpt>
      <trkpt lat="45.73365" lon="6.20157">
        <ele>1693.1</ele>
        <time>2000-01-01T12:18:38.000Z</time>
      </trkpt>
      <trkpt lat="45.7336" lon="6.20156">
        <ele>1695.8</ele>
        <time>2000-01-01T12:18:48.000Z</time>
      </trkpt>
      <trkpt lat="45.73355" lon="6.20156">
        <ele>1699</ele>
        <time>2000-01-01T12:18:58.000Z</time>
      </trkpt>
      <trkpt lat="45.7335" lon="6.20154">
        <ele>1698.9</ele>
        <time>2000-01-01T12:19:08.000Z</time>
      </trkpt>
      <trkpt lat="45.73345" lon="6.20145">
        <ele>1700.2</ele>
        <time>2000-01-01T12:19:18.000Z</time>
      </trkpt>
      <trkpt lat="45.7334" lon="6.20144">
        <ele>1702.2</ele>
        <time>2000-01-01T12:19:28.000Z</time>
      </trkpt>
      <trkpt lat="45.73327" lon="6.20146">
        <ele>1703</ele>
        <time>2000-01-01T12:19:38.000Z</time>
      </trkpt>
      <trkpt lat="45.73322" lon="6.20148">
        <ele>1705.2</ele>
        <time>2000-01-01T12:19:48.000Z</time>
      </trkpt>
      <trkpt lat="45.7332" lon="6.20148">
        <ele>1705.3</ele>
        <time>2000-01-01T12:19:58.000Z</time>
      </trkpt>
      <trkpt lat="45.73318" lon="6.20149">
        <ele>1705.4</ele>
        <time>2000-01-01T12:20:08.000Z</time>
      </trkpt>
      <trkpt lat="45.73307" lon="6.20149">
        <ele>1705</ele>
        <time>2000-01-01T12:20:18.000Z</time>
      </trkpt>
      <trkpt lat="45.73303" lon="6.20151">
        <ele>1706.3</ele>
        <time>2000-01-01T12:20:28.000Z</time>
      </trkpt>
      <trkpt lat="45.733" lon="6.20151">
        <ele>1706.2</ele>
        <time>2000-01-01T12:20:38.000Z</time>
      </trkpt>
      <trkpt lat="45.73293" lon="6.20152">
        <ele>1706.2</ele>
        <time>2000-01-01T12:20:48.000Z</time>
      </trkpt>
      <trkpt lat="45.73291" lon="6.20153">
        <ele>1706.2</ele>
        <time>2000-01-01T12:20:58.000Z</time>
      </trkpt>
      <trkpt lat="45.73277" lon="6.20163">
        <ele>1705</ele>
        <time>2000-01-01T12:21:08.000Z</time>
      </trkpt>
      <trkpt lat="45.73274" lon="6.20167">
        <ele>1706.1</ele>
        <time>2000-01-01T12:21:18.000Z</time>
      </trkpt>
      <trkpt lat="45.7327" lon="6.20174">
        <ele>1706.2</ele>
        <time>2000-01-01T12:21:28.000Z</time>
      </trkpt>
      <trkpt lat="45.73262" lon="6.20186">
        <ele>1705</ele>
        <time>2000-01-01T12:21:38.000Z</time>
      </trkpt>
      <trkpt lat="45.73261" lon="6.20192">
        <ele>1704.8</ele>
        <time>2000-01-01T12:21:48.000Z</time>
      </trkpt>
      <trkpt lat="45.73268" lon="6.20206">
        <ele>1704.5</ele>
        <time>2000-01-01T12:21:58.000Z</time>
      </trkpt>
      <trkpt lat="45.7327" lon="6.20213">
        <ele>1704</ele>
        <time>2000-01-01T12:22:08.000Z</time>
      </trkpt>
      <trkpt lat="45.73275" lon="6.20223">
        <ele>1703.6</ele>
        <time>2000-01-01T12:22:18.000Z</time>
      </trkpt>
      <trkpt lat="45.73279" lon="6.20227">
        <ele>1703.6</ele>
        <time>2000-01-01T12:22:28.000Z</time>
      </trkpt>
      <trkpt lat="45.73296" lon="6.20247">
        <ele>1703</ele>
        <time>2000-01-01T12:22:38.000Z</time>
      </trkpt>
      <trkpt lat="45.73301" lon="6.20259">
        <ele>1701.7</ele>
        <time>2000-01-01T12:22:48.000Z</time>
      </trkpt>
      <trkpt lat="45.73302" lon="6.20273">
        <ele>1702</ele>
        <time>2000-01-01T12:22:58.000Z</time>
      </trkpt>
      <trkpt lat="45.73305" lon="6.20285">
        <ele>1699.3</ele>
        <time>2000-01-01T12:23:08.000Z</time>
      </trkpt>
      <trkpt lat="45.73306" lon="6.20299">
        <ele>1697</ele>
        <time>2000-01-01T12:23:18.000Z</time>
      </trkpt>
      <trkpt lat="45.73297" lon="6.20316">
        <ele>1689.1</ele>
        <time>2000-01-01T12:23:28.000Z</time>
      </trkpt>
      <trkpt lat="45.73293" lon="6.20317">
        <ele>1687.5</ele>
        <time>2000-01-01T12:23:38.000Z</time>
      </trkpt>
      <trkpt lat="45.73286" lon="6.20315">
        <ele>1689</ele>
        <time>2000-01-01T12:23:48.000Z</time>
      </trkpt>
      <trkpt lat="45.73276" lon="6.20311">
        <ele>1685.7</ele>
        <time>2000-01-01T12:23:58.000Z</time>
      </trkpt>
      <trkpt lat="45.73262" lon="6.20309">
        <ele>1687</ele>
        <time>2000-01-01T12:24:08.000Z</time>
      </trkpt>
      <trkpt lat="45.73252" lon="6.20307">
        <ele>1684.2</ele>
        <time>2000-01-01T12:24:18.000Z</time>
      </trkpt>
      <trkpt lat="45.73237" lon="6.20295">
        <ele>1683</ele>
        <time>2000-01-01T12:24:28.000Z</time>
      </trkpt>
      <trkpt lat="45.73228" lon="6.2029">
        <ele>1679.4</ele>
        <time>2000-01-01T12:24:38.000Z</time>
      </trkpt>
      <trkpt lat="45.73222" lon="6.20288">
        <ele>1678.5</ele>
        <time>2000-01-01T12:24:48.000Z</time>
      </trkpt>
      <trkpt lat="45.73208" lon="6.20285">
        <ele>1679</ele>
        <time>2000-01-01T12:24:58.000Z</time>
      </trkpt>
      <trkpt lat="45.7319" lon="6.20278">
        <ele>1676</ele>
        <time>2000-01-01T12:25:08.000Z</time>
      </trkpt>
      <trkpt lat="45.73179" lon="6.20276">
        <ele>1670.8</ele>
        <time>2000-01-01T12:25:18.000Z</time>
      </trkpt>
      <trkpt lat="45.73174" lon="6.2027">
        <ele>1668.7</ele>
        <time>2000-01-01T12:25:28.000Z</time>
      </trkpt>
      <trkpt lat="45.73171" lon="6.20261">
        <ele>1671</ele>
        <time>2000-01-01T12:25:38.000Z</time>
      </trkpt>
      <trkpt lat="45.7317" lon="6.20242">
        <ele>1669.5</ele>
        <time>2000-01-01T12:25:48.000Z</time>
      </trkpt>
      <trkpt lat="45.73168" lon="6.20233">
        <ele>1669</ele>
        <time>2000-01-01T12:25:58.000Z</time>
      </trkpt>
      <trkpt lat="45.73167" lon="6.2023">
        <ele>1669.3</ele>
        <time>2000-01-01T12:26:08.000Z</time>
      </trkpt>
      <trkpt lat="45.73151" lon="6.2021">
        <ele>1668</ele>
        <time>2000-01-01T12:26:18.000Z</time>
      </trkpt>
      <trkpt lat="45.73141" lon="6.20199">
        <ele>1670.8</ele>
        <time>2000-01-01T12:26:28.000Z</time>
      </trkpt>
      <trkpt lat="45.73139" lon="6.20198">
        <ele>1670.2</ele>
        <time>2000-01-01T12:26:38.000Z</time>
      </trkpt>
      <trkpt lat="45.73144" lon="6.20211">
        <ele>1668</ele>
        <time>2000-01-01T12:26:48.000Z</time>
      </trkpt>
      <trkpt lat="45.73159" lon="6.20226">
        <ele>1670.2</ele>
        <time>2000-01-01T12:26:58.000Z</time>
      </trkpt>
      <trkpt lat="45.73165" lon="6.20238">
        <ele>1668</ele>
        <time>2000-01-01T12:27:08.000Z</time>
      </trkpt>
      <trkpt lat="45.73168" lon="6.2025">
        <ele>1667.6</ele>
        <time>2000-01-01T12:27:18.000Z</time>
      </trkpt>
      <trkpt lat="45.73167" lon="6.20264">
        <ele>1668</ele>
        <time>2000-01-01T12:27:28.000Z</time>
      </trkpt>
      <trkpt lat="45.7317" lon="6.20278">
        <ele>1665.8</ele>
        <time>2000-01-01T12:27:38.000Z</time>
      </trkpt>
      <trkpt lat="45.73172" lon="6.20294">
        <ele>1662</ele>
        <time>2000-01-01T12:27:48.000Z</time>
      </trkpt>
      <trkpt lat="45.73172" lon="6.20311">
        <ele>1657.7</ele>
        <time>2000-01-01T12:27:58.000Z</time>
      </trkpt>
      <trkpt lat="45.7318" lon="6.20318">
        <ele>1654</ele>
        <time>2000-01-01T12:28:08.000Z</time>
      </trkpt>
      <trkpt lat="45.73188" lon="6.20329">
        <ele>1651.5</ele>
        <time>2000-01-01T12:28:18.000Z</time>
      </trkpt>
      <trkpt lat="45.73193" lon="6.20339">
        <ele>1648</ele>
        <time>2000-01-01T12:28:28.000Z</time>
      </trkpt>
      <trkpt lat="45.732" lon="6.20347">
        <ele>1648</ele>
        <time>2000-01-01T12:28:38.000Z</time>
      </trkpt>
      <trkpt lat="45.73208" lon="6.2036">
        <ele>1644</ele>
        <time>2000-01-01T12:28:48.000Z</time>
      </trkpt>
      <trkpt lat="45.73212" lon="6.20373">
        <ele>1644.2</ele>
        <time>2000-01-01T12:28:58.000Z</time>
      </trkpt>
      <trkpt lat="45.73218" lon="6.20386">
        <ele>1642</ele>
        <time>2000-01-01T12:29:08.000Z</time>
      </trkpt>
      <trkpt lat="45.73233" lon="6.20407">
        <ele>1640</ele>
        <time>2000-01-01T12:29:18.000Z</time>
      </trkpt>
      <trkpt lat="45.73243" lon="6.20418">
        <ele>1639.1</ele>
        <time>2000-01-01T12:29:28.000Z</time>
      </trkpt>
      <trkpt lat="45.73249" lon="6.2043">
        <ele>1637</ele>
        <time>2000-01-01T12:29:38.000Z</time>
      </trkpt>
      <trkpt lat="45.73249" lon="6.20443">
        <ele>1637.1</ele>
        <time>2000-01-01T12:29:48.000Z</time>
      </trkpt>
      <trkpt lat="45.73247" lon="6.20444">
        <ele>1636.9</ele>
        <time>2000-01-01T12:29:58.000Z</time>
      </trkpt>
      <trkpt lat="45.73236" lon="6.2044">
        <ele>1635</ele>
        <time>2000-01-01T12:30:08.000Z</time>
      </trkpt>
      <trkpt lat="45.73231" lon="6.20435">
        <ele>1636.9</ele>
        <time>2000-01-01T12:30:18.000Z</time>
      </trkpt>
      <trkpt lat="45.73225" lon="6.20432">
        <ele>1636.6</ele>
        <time>2000-01-01T12:30:28.000Z</time>
      </trkpt>
      <trkpt lat="45.73197" lon="6.20426">
        <ele>1634</ele>
        <time>2000-01-01T12:30:38.000Z</time>
      </trkpt>
      <trkpt lat="45.73192" lon="6.20424">
        <ele>1633.6</ele>
        <time>2000-01-01T12:30:48.000Z</time>
      </trkpt>
      <trkpt lat="45.73175" lon="6.20415">
        <ele>1627</ele>
        <time>2000-01-01T12:30:58.000Z</time>
      </trkpt>
      <trkpt lat="45.73169" lon="6.20413">
        <ele>1627.3</ele>
        <time>2000-01-01T12:31:08.000Z</time>
      </trkpt>
      <trkpt lat="45.73162" lon="6.20418">
        <ele>1625.2</ele>
        <time>2000-01-01T12:31:18.000Z</time>
      </trkpt>
      <trkpt lat="45.73159" lon="6.20427">
        <ele>1622</ele>
        <time>2000-01-01T12:31:28.000Z</time>
      </trkpt>
      <trkpt lat="45.73153" lon="6.20433">
        <ele>1622.7</ele>
        <time>2000-01-01T12:31:38.000Z</time>
      </trkpt>
      <trkpt lat="45.73147" lon="6.20446">
        <ele>1619.8</ele>
        <time>2000-01-01T12:31:48.000Z</time>
      </trkpt>
      <trkpt lat="45.73139" lon="6.20458">
        <ele>1614</ele>
        <time>2000-01-01T12:31:58.000Z</time>
      </trkpt>
      <trkpt lat="45.73136" lon="6.20464">
        <ele>1615.7</ele>
        <time>2000-01-01T12:32:08.000Z</time>
      </trkpt>
      <trkpt lat="45.73128" lon="6.20472">
        <ele>1613.3</ele>
        <time>2000-01-01T12:32:18.000Z</time>
      </trkpt>
      <trkpt lat="45.7312" lon="6.20488">
        <ele>1609</ele>
        <time>2000-01-01T12:32:28.000Z</time>
      </trkpt>
      <trkpt lat="45.73116" lon="6.20528">
        <ele>1606</ele>
        <time>2000-01-01T12:32:38.000Z</time>
      </trkpt>
      <trkpt lat="45.73115" lon="6.20542">
        <ele>1607.2</ele>
        <time>2000-01-01T12:32:48.000Z</time>
      </trkpt>
      <trkpt lat="45.73116" lon="6.20555">
        <ele>1605</ele>
        <time>2000-01-01T12:32:58.000Z</time>
      </trkpt>
      <trkpt lat="45.73115" lon="6.2057">
        <ele>1605.1</ele>
        <time>2000-01-01T12:33:08.000Z</time>
      </trkpt>
      <trkpt lat="45.73114" lon="6.20585">
        <ele>1604</ele>
        <time>2000-01-01T12:33:18.000Z</time>
      </trkpt>
      <trkpt lat="45.73113" lon="6.206">
        <ele>1600.9</ele>
        <time>2000-01-01T12:33:28.000Z</time>
      </trkpt>
      <trkpt lat="45.73116" lon="6.20614">
        <ele>1600</ele>
        <time>2000-01-01T12:33:38.000Z</time>
      </trkpt>
      <trkpt lat="45.73117" lon="6.20627">
        <ele>1594.8</ele>
        <time>2000-01-01T12:33:48.000Z</time>
      </trkpt>
      <trkpt lat="45.73116" lon="6.20634">
        <ele>1593.3</ele>
        <time>2000-01-01T12:33:58.000Z</time>
      </trkpt>
      <trkpt lat="45.73105" lon="6.20659">
        <ele>1590</ele>
        <time>2000-01-01T12:34:08.000Z</time>
      </trkpt>
      <trkpt lat="45.73102" lon="6.20671">
        <ele>1588.6</ele>
        <time>2000-01-01T12:34:18.000Z</time>
      </trkpt>
      <trkpt lat="45.73102" lon="6.20698">
        <ele>1587</ele>
        <time>2000-01-01T12:34:28.000Z</time>
      </trkpt>
      <trkpt lat="45.73099" lon="6.20714">
        <ele>1587.1</ele>
        <time>2000-01-01T12:34:38.000Z</time>
      </trkpt>
      <trkpt lat="45.73093" lon="6.20724">
        <ele>1584</ele>
        <time>2000-01-01T12:34:48.000Z</time>
      </trkpt>
      <trkpt lat="45.73083" lon="6.2073">
        <ele>1584.1</ele>
        <time>2000-01-01T12:34:58.000Z</time>
      </trkpt>
      <trkpt lat="45.73081" lon="6.20736">
        <ele>1583.2</ele>
        <time>2000-01-01T12:35:08.000Z</time>
      </trkpt>
      <trkpt lat="45.73081" lon="6.20738">
        <ele>1582.7</ele>
        <time>2000-01-01T12:35:18.000Z</time>
      </trkpt>
      <trkpt lat="45.73072" lon="6.20755">
        <ele>1582</ele>
        <time>2000-01-01T12:35:28.000Z</time>
      </trkpt>
      <trkpt lat="45.73066" lon="6.20763">
        <ele>1580.8</ele>
        <time>2000-01-01T12:35:38.000Z</time>
      </trkpt>
      <trkpt lat="45.73061" lon="6.20769">
        <ele>1579.4</ele>
        <time>2000-01-01T12:35:48.000Z</time>
      </trkpt>
      <trkpt lat="45.73056" lon="6.20778">
        <ele>1579</ele>
        <time>2000-01-01T12:35:58.000Z</time>
      </trkpt>
      <trkpt lat="45.7305" lon="6.20785">
        <ele>1575.1</ele>
        <time>2000-01-01T12:36:08.000Z</time>
      </trkpt>
      <trkpt lat="45.73037" lon="6.20805">
        <ele>1575</ele>
        <time>2000-01-01T12:36:18.000Z</time>
      </trkpt>
      <trkpt lat="45.73026" lon="6.20808">
        <ele>1574.6</ele>
        <time>2000-01-01T12:36:28.000Z</time>
      </trkpt>
      <trkpt lat="45.7302" lon="6.20808">
        <ele>1574.3</ele>
        <time>2000-01-01T12:36:38.000Z</time>
      </trkpt>
      <trkpt lat="45.73001" lon="6.20799">
        <ele>1571</ele>
        <time>2000-01-01T12:36:48.000Z</time>
      </trkpt>
      <trkpt lat="45.72992" lon="6.20798">
        <ele>1572.5</ele>
        <time>2000-01-01T12:36:58.000Z</time>
      </trkpt>
      <trkpt lat="45.72977" lon="6.20803">
        <ele>1567</ele>
        <time>2000-01-01T12:37:08.000Z</time>
      </trkpt>
      <trkpt lat="45.72967" lon="6.20809">
        <ele>1565.7</ele>
        <time>2000-01-01T12:37:18.000Z</time>
      </trkpt>
      <trkpt lat="45.72958" lon="6.20811">
        <ele>1562</ele>
        <time>2000-01-01T12:37:28.000Z</time>
      </trkpt>
      <trkpt lat="45.72948" lon="6.20817">
        <ele>1558.7</ele>
        <time>2000-01-01T12:37:38.000Z</time>
      </trkpt>
      <trkpt lat="45.72937" lon="6.20819">
        <ele>1558</ele>
        <time>2000-01-01T12:37:48.000Z</time>
      </trkpt>
      <trkpt lat="45.72926" lon="6.20816">
        <ele>1552.1</ele>
        <time>2000-01-01T12:37:58.000Z</time>
      </trkpt>
      <trkpt lat="45.72912" lon="6.20805">
        <ele>1555</ele>
        <time>2000-01-01T12:38:08.000Z</time>
      </trkpt>
      <trkpt lat="45.72904" lon="6.20822">
        <ele>1548.5</ele>
        <time>2000-01-01T12:38:18.000Z</time>
      </trkpt>
      <trkpt lat="45.72898" lon="6.2084">
        <ele>1547</ele>
        <time>2000-01-01T12:38:28.000Z</time>
      </trkpt>
      <trkpt lat="45.72892" lon="6.20852">
        <ele>1539.8</ele>
        <time>2000-01-01T12:38:38.000Z</time>
      </trkpt>
      <trkpt lat="45.72884" lon="6.20867">
        <ele>1537</ele>
        <time>2000-01-01T12:38:48.000Z</time>
      </trkpt>
      <trkpt lat="45.72876" lon="6.20876">
        <ele>1533</ele>
        <time>2000-01-01T12:38:58.000Z</time>
      </trkpt>
      <trkpt lat="45.72869" lon="6.20888">
        <ele>1531</ele>
        <time>2000-01-01T12:39:08.000Z</time>
      </trkpt>
      <trkpt lat="45.72865" lon="6.20893">
        <ele>1528.3</ele>
        <time>2000-01-01T12:39:18.000Z</time>
      </trkpt>
      <trkpt lat="45.7286" lon="6.20904">
        <ele>1525.8</ele>
        <time>2000-01-01T12:39:28.000Z</time>
      </trkpt>
      <trkpt lat="45.72863" lon="6.2092">
        <ele>1522</ele>
        <time>2000-01-01T12:39:38.000Z</time>
      </trkpt>
      <trkpt lat="45.72857" lon="6.20931">
        <ele>1520.3</ele>
        <time>2000-01-01T12:39:48.000Z</time>
      </trkpt>
      <trkpt lat="45.72851" lon="6.20939">
        <ele>1518.2</ele>
        <time>2000-01-01T12:39:58.000Z</time>
      </trkpt>
      <trkpt lat="45.72844" lon="6.20945">
        <ele>1515</ele>
        <time>2000-01-01T12:40:08.000Z</time>
      </trkpt>
      <trkpt lat="45.72841" lon="6.20946">
        <ele>1515.3</ele>
        <time>2000-01-01T12:40:18.000Z</time>
      </trkpt>
      <trkpt lat="45.72837" lon="6.20948">
        <ele>1514.1</ele>
        <time>2000-01-01T12:40:28.000Z</time>
      </trkpt>
      <trkpt lat="45.72819" lon="6.20961">
        <ele>1513</ele>
        <time>2000-01-01T12:40:38.000Z</time>
      </trkpt>
      <trkpt lat="45.72812" lon="6.20971">
        <ele>1509.9</ele>
        <time>2000-01-01T12:40:48.000Z</time>
      </trkpt>
      <trkpt lat="45.72812" lon="6.20986">
        <ele>1505</ele>
        <time>2000-01-01T12:40:58.000Z</time>
      </trkpt>
      <trkpt lat="45.72809" lon="6.21">
        <ele>1499.8</ele>
        <time>2000-01-01T12:41:08.000Z</time>
      </trkpt>
      <trkpt lat="45.72814" lon="6.21013">
        <ele>1504</ele>
        <time>2000-01-01T12:41:18.000Z</time>
      </trkpt>
      <trkpt lat="45.72816" lon="6.21027">
        <ele>1495</ele>
        <time>2000-01-01T12:41:28.000Z</time>
      </trkpt>
      <trkpt lat="45.72813" lon="6.21054">
        <ele>1504</ele>
        <time>2000-01-01T12:41:38.000Z</time>
      </trkpt>
      <trkpt lat="45.72802" lon="6.21057">
        <ele>1502.9</ele>
        <time>2000-01-01T12:41:48.000Z</time>
      </trkpt>
      <trkpt lat="45.7279" lon="6.21065">
        <ele>1503</ele>
        <time>2000-01-01T12:41:58.000Z</time>
      </trkpt>
      <trkpt lat="45.72777" lon="6.2107">
        <ele>1501.8</ele>
        <time>2000-01-01T12:42:08.000Z</time>
      </trkpt>
      <trkpt lat="45.72775" lon="6.21073">
        <ele>1500.9</ele>
        <time>2000-01-01T12:42:18.000Z</time>
      </trkpt>
      <trkpt lat="45.72767" lon="6.21077">
        <ele>1503</ele>
        <time>2000-01-01T12:42:28.000Z</time>
      </trkpt>
      <trkpt lat="45.72749" lon="6.21081">
        <ele>1502</ele>
        <time>2000-01-01T12:42:38.000Z</time>
      </trkpt>
      <trkpt lat="45.72745" lon="6.21081">
        <ele>1498.9</ele>
        <time>2000-01-01T12:42:48.000Z</time>
      </trkpt>
      <trkpt lat="45.72725" lon="6.21077">
        <ele>1502</ele>
        <time>2000-01-01T12:42:58.000Z</time>
      </trkpt>
      <trkpt lat="45.727" lon="6.21067">
        <ele>1498</ele>
        <time>2000-01-01T12:43:08.000Z</time>
      </trkpt>
      <trkpt lat="45.72691" lon="6.21059">
        <ele>1499.3</ele>
        <time>2000-01-01T12:43:18.000Z</time>
      </trkpt>
      <trkpt lat="45.72679" lon="6.21053">
        <ele>1492</ele>
        <time>2000-01-01T12:43:28.000Z</time>
      </trkpt>
      <trkpt lat="45.72662" lon="6.21039">
        <ele>1492</ele>
        <time>2000-01-01T12:43:38.000Z</time>
      </trkpt>
      <trkpt lat="45.72653" lon="6.21032">
        <ele>1486.6</ele>
        <time>2000-01-01T12:43:48.000Z</time>
      </trkpt>
      <trkpt lat="45.72639" lon="6.21014">
        <ele>1486</ele>
        <time>2000-01-01T12:43:58.000Z</time>
      </trkpt>
      <trkpt lat="45.72602" lon="6.2099">
        <ele>1480</ele>
        <time>2000-01-01T12:44:08.000Z</time>
      </trkpt>
      <trkpt lat="45.72591" lon="6.20987">
        <ele>1475.3</ele>
        <time>2000-01-01T12:44:18.000Z</time>
      </trkpt>
      <trkpt lat="45.72581" lon="6.20986">
        <ele>1479</ele>
        <time>2000-01-01T12:44:28.000Z</time>
      </trkpt>
      <trkpt lat="45.72561" lon="6.20983">
        <ele>1478</ele>
        <time>2000-01-01T12:44:38.000Z</time>
      </trkpt>
      <trkpt lat="45.72553" lon="6.20989">
        <ele>1474.6</ele>
        <time>2000-01-01T12:44:48.000Z</time>
      </trkpt>
      <trkpt lat="45.72544" lon="6.20997">
        <ele>1478</ele>
        <time>2000-01-01T12:44:58.000Z</time>
      </trkpt>
      <trkpt lat="45.72532" lon="6.21">
        <ele>1473.2</ele>
        <time>2000-01-01T12:45:08.000Z</time>
      </trkpt>
      <trkpt lat="45.72513" lon="6.20998">
        <ele>1478</ele>
        <time>2000-01-01T12:45:18.000Z</time>
      </trkpt>
      <trkpt lat="45.72492" lon="6.21003">
        <ele>1476</ele>
        <time>2000-01-01T12:45:28.000Z</time>
      </trkpt>
      <trkpt lat="45.7248" lon="6.21006">
        <ele>1474.5</ele>
        <time>2000-01-01T12:45:38.000Z</time>
      </trkpt>
      <trkpt lat="45.72461" lon="6.21019">
        <ele>1476</ele>
        <time>2000-01-01T12:45:48.000Z</time>
      </trkpt>
      <trkpt lat="45.7245" lon="6.21025">
        <ele>1471.9</ele>
        <time>2000-01-01T12:45:58.000Z</time>
      </trkpt>
      <trkpt lat="45.72441" lon="6.21031">
        <ele>1475</ele>
        <time>2000-01-01T12:46:08.000Z</time>
      </trkpt>
      <trkpt lat="45.72431" lon="6.21037">
        <ele>1470.6</ele>
        <time>2000-01-01T12:46:18.000Z</time>
      </trkpt>
      <trkpt lat="45.72422" lon="6.21038">
        <ele>1475</ele>
        <time>2000-01-01T12:46:28.000Z</time>
      </trkpt>
      <trkpt lat="45.72398" lon="6.21034">
        <ele>1478</ele>
        <time>2000-01-01T12:46:38.000Z</time>
      </trkpt>
      <trkpt lat="45.72373" lon="6.2103">
        <ele>1475</ele>
        <time>2000-01-01T12:46:48.000Z</time>
      </trkpt>
      <trkpt lat="45.72365" lon="6.21023">
        <ele>1478.6</ele>
        <time>2000-01-01T12:46:58.000Z</time>
      </trkpt>
      <trkpt lat="45.7236" lon="6.21022">
        <ele>1478.2</ele>
        <time>2000-01-01T12:47:08.000Z</time>
      </trkpt>
      <trkpt lat="45.72358" lon="6.21023">
        <ele>1477.5</ele>
        <time>2000-01-01T12:47:18.000Z</time>
      </trkpt>
      <trkpt lat="45.72349" lon="6.2103">
        <ele>1472</ele>
        <time>2000-01-01T12:47:28.000Z</time>
      </trkpt>
      <trkpt lat="45.7234" lon="6.21037">
        <ele>1470.9</ele>
        <time>2000-01-01T12:47:38.000Z</time>
      </trkpt>
      <trkpt lat="45.72332" lon="6.21042">
        <ele>1469</ele>
        <time>2000-01-01T12:47:48.000Z</time>
      </trkpt>
      <trkpt lat="45.72326" lon="6.21044">
        <ele>1467</ele>
        <time>2000-01-01T12:47:58.000Z</time>
      </trkpt>
      <trkpt lat="45.72318" lon="6.2105">
        <ele>1464.7</ele>
        <time>2000-01-01T12:48:08.000Z</time>
      </trkpt>
      <trkpt lat="45.72311" lon="6.21053">
        <ele>1462</ele>
        <time>2000-01-01T12:48:18.000Z</time>
      </trkpt>
      <trkpt lat="45.7228" lon="6.21073">
        <ele>1455</ele>
        <time>2000-01-01T12:48:28.000Z</time>
      </trkpt>
      <trkpt lat="45.72272" lon="6.2108">
        <ele>1454.5</ele>
        <time>2000-01-01T12:48:38.000Z</time>
      </trkpt>
      <trkpt lat="45.72265" lon="6.21089">
        <ele>1453</ele>
        <time>2000-01-01T12:48:48.000Z</time>
      </trkpt>
      <trkpt lat="45.72262" lon="6.21091">
        <ele>1452.5</ele>
        <time>2000-01-01T12:48:58.000Z</time>
      </trkpt>
      <trkpt lat="45.72254" lon="6.21092">
        <ele>1451.7</ele>
        <time>2000-01-01T12:49:08.000Z</time>
      </trkpt>
      <trkpt lat="45.72244" lon="6.21096">
        <ele>1451</ele>
        <time>2000-01-01T12:49:18.000Z</time>
      </trkpt>
      <trkpt lat="45.72242" lon="6.21097">
        <ele>1450.2</ele>
        <time>2000-01-01T12:49:28.000Z</time>
      </trkpt>
      <trkpt lat="45.72233" lon="6.21101">
        <ele>1448.9</ele>
        <time>2000-01-01T12:49:38.000Z</time>
      </trkpt>
      <trkpt lat="45.72223" lon="6.21101">
        <ele>1448</ele>
        <time>2000-01-01T12:49:48.000Z</time>
      </trkpt>
      <trkpt lat="45.72217" lon="6.21099">
        <ele>1447.4</ele>
        <time>2000-01-01T12:49:58.000Z</time>
      </trkpt>
      <trkpt lat="45.72214" lon="6.21096">
        <ele>1447.1</ele>
        <time>2000-01-01T12:50:08.000Z</time>
      </trkpt>
      <trkpt lat="45.72215" lon="6.21082">
        <ele>1447</ele>
        <time>2000-01-01T12:50:18.000Z</time>
      </trkpt>
      <trkpt lat="45.72219" lon="6.21068">
        <ele>1446.4</ele>
        <time>2000-01-01T12:50:28.000Z</time>
      </trkpt>
      <trkpt lat="45.72227" lon="6.21056">
        <ele>1444</ele>
        <time>2000-01-01T12:50:38.000Z</time>
      </trkpt>
      <trkpt lat="45.72233" lon="6.21046">
        <ele>1446.5</ele>
        <time>2000-01-01T12:50:48.000Z</time>
      </trkpt>
      <trkpt lat="45.72239" lon="6.21032">
        <ele>1444</ele>
        <time>2000-01-01T12:50:58.000Z</time>
      </trkpt>
      <trkpt lat="45.72243" lon="6.21027">
        <ele>1447.3</ele>
        <time>2000-01-01T12:51:08.000Z</time>
      </trkpt>
      <trkpt lat="45.72244" lon="6.21023">
        <ele>1446.8</ele>
        <time>2000-01-01T12:51:18.000Z</time>
      </trkpt>
      <trkpt lat="45.7225" lon="6.21015">
        <ele>1447.7</ele>
        <time>2000-01-01T12:51:28.000Z</time>
      </trkpt>
      <trkpt lat="45.72251" lon="6.21012">
        <ele>1447.5</ele>
        <time>2000-01-01T12:51:38.000Z</time>
      </trkpt>
      <trkpt lat="45.72253" lon="6.21003">
        <ele>1441</ele>
        <time>2000-01-01T12:51:48.000Z</time>
      </trkpt>
      <trkpt lat="45.72262" lon="6.20977">
        <ele>1438</ele>
        <time>2000-01-01T12:51:58.000Z</time>
      </trkpt>
      <trkpt lat="45.72267" lon="6.20947">
        <ele>1423</ele>
        <time>2000-01-01T12:52:08.000Z</time>
      </trkpt>
      <trkpt lat="45.72266" lon="6.20932">
        <ele>1425.8</ele>
        <time>2000-01-01T12:52:18.000Z</time>
      </trkpt>
      <trkpt lat="45.72268" lon="6.20919">
        <ele>1416</ele>
        <time>2000-01-01T12:52:28.000Z</time>
      </trkpt>
      <trkpt lat="45.72256" lon="6.20897">
        <ele>1410</ele>
        <time>2000-01-01T12:52:38.000Z</time>
      </trkpt>
      <trkpt lat="45.72256" lon="6.20884">
        <ele>1414.7</ele>
        <time>2000-01-01T12:52:48.000Z</time>
      </trkpt>
      <trkpt lat="45.72254" lon="6.20868">
        <ele>1407</ele>
        <time>2000-01-01T12:52:58.000Z</time>
      </trkpt>
      <trkpt lat="45.72248" lon="6.20858">
        <ele>1407</ele>
        <time>2000-01-01T12:53:08.000Z</time>
      </trkpt>
      <trkpt lat="45.7224" lon="6.20849">
        <ele>1398</ele>
        <time>2000-01-01T12:53:18.000Z</time>
      </trkpt>
      <trkpt lat="45.72221" lon="6.20837">
        <ele>1396</ele>
        <time>2000-01-01T12:53:28.000Z</time>
      </trkpt>
      <trkpt lat="45.72214" lon="6.20827">
        <ele>1393.3</ele>
        <time>2000-01-01T12:53:38.000Z</time>
      </trkpt>
      <trkpt lat="45.72206" lon="6.20816">
        <ele>1390</ele>
        <time>2000-01-01T12:53:48.000Z</time>
      </trkpt>
      <trkpt lat="45.722" lon="6.20805">
        <ele>1390.6</ele>
        <time>2000-01-01T12:53:58.000Z</time>
      </trkpt>
      <trkpt lat="45.72194" lon="6.20794">
        <ele>1381</ele>
        <time>2000-01-01T12:54:08.000Z</time>
      </trkpt>
      <trkpt lat="45.72189" lon="6.2078">
        <ele>1381.2</ele>
        <time>2000-01-01T12:54:18.000Z</time>
      </trkpt>
      <trkpt lat="45.7219" lon="6.20766">
        <ele>1382</ele>
        <time>2000-01-01T12:54:28.000Z</time>
      </trkpt>
      <trkpt lat="45.72196" lon="6.20747">
        <ele>1388.1</ele>
        <time>2000-01-01T12:54:38.000Z</time>
      </trkpt>
      <trkpt lat="45.72205" lon="6.20739">
        <ele>1380</ele>
        <time>2000-01-01T12:54:48.000Z</time>
      </trkpt>
      <trkpt lat="45.72213" lon="6.20732">
        <ele>1383.7</ele>
        <time>2000-01-01T12:54:58.000Z</time>
      </trkpt>
      <trkpt lat="45.72221" lon="6.2072">
        <ele>1378</ele>
        <time>2000-01-01T12:55:08.000Z</time>
      </trkpt>
      <trkpt lat="45.72222" lon="6.20693">
        <ele>1369</ele>
        <time>2000-01-01T12:55:18.000Z</time>
      </trkpt>
      <trkpt lat="45.72222" lon="6.2068">
        <ele>1370.3</ele>
        <time>2000-01-01T12:55:28.000Z</time>
      </trkpt>
      <trkpt lat="45.72222" lon="6.20666">
        <ele>1368.8</ele>
        <time>2000-01-01T12:55:38.000Z</time>
      </trkpt>
      <trkpt lat="45.72223" lon="6.20682">
        <ele>1368</ele>
        <time>2000-01-01T12:55:48.000Z</time>
      </trkpt>
      <trkpt lat="45.7222" lon="6.20696">
        <ele>1371.5</ele>
        <time>2000-01-01T12:55:58.000Z</time>
      </trkpt>
      <trkpt lat="45.72206" lon="6.20697">
        <ele>1359</ele>
        <time>2000-01-01T12:56:08.000Z</time>
      </trkpt>
      <trkpt lat="45.72194" lon="6.20696">
        <ele>1360.8</ele>
        <time>2000-01-01T12:56:18.000Z</time>
      </trkpt>
      <trkpt lat="45.72183" lon="6.20696">
        <ele>1352</ele>
        <time>2000-01-01T12:56:28.000Z</time>
      </trkpt>
      <trkpt lat="45.72174" lon="6.20694">
        <ele>1351</ele>
        <time>2000-01-01T12:56:38.000Z</time>
      </trkpt>
      <trkpt lat="45.72163" lon="6.20696">
        <ele>1347</ele>
        <time>2000-01-01T12:56:48.000Z</time>
      </trkpt>
      <trkpt lat="45.72153" lon="6.20699">
        <ele>1346.7</ele>
        <time>2000-01-01T12:56:58.000Z</time>
      </trkpt>
      <trkpt lat="45.72144" lon="6.20705">
        <ele>1347</ele>
        <time>2000-01-01T12:57:08.000Z</time>
      </trkpt>
      <trkpt lat="45.72136" lon="6.20713">
        <ele>1347.1</ele>
        <time>2000-01-01T12:57:18.000Z</time>
      </trkpt>
      <trkpt lat="45.72131" lon="6.20724">
        <ele>1346</ele>
        <time>2000-01-01T12:57:28.000Z</time>
      </trkpt>
      <trkpt lat="45.72125" lon="6.20751">
        <ele>1347</ele>
        <time>2000-01-01T12:57:38.000Z</time>
      </trkpt>
      <trkpt lat="45.72129" lon="6.20767">
        <ele>1347</ele>
        <time>2000-01-01T12:57:48.000Z</time>
      </trkpt>
      <trkpt lat="45.72133" lon="6.20779">
        <ele>1340</ele>
        <time>2000-01-01T12:57:58.000Z</time>
      </trkpt>
      <trkpt lat="45.72132" lon="6.20793">
        <ele>1343.8</ele>
        <time>2000-01-01T12:58:08.000Z</time>
      </trkpt>
      <trkpt lat="45.72128" lon="6.20811">
        <ele>1338</ele>
        <time>2000-01-01T12:58:18.000Z</time>
      </trkpt>
      <trkpt lat="45.72128" lon="6.20825">
        <ele>1341.6</ele>
        <time>2000-01-01T12:58:28.000Z</time>
      </trkpt>
      <trkpt lat="45.72129" lon="6.2084">
        <ele>1336</ele>
        <time>2000-01-01T12:58:38.000Z</time>
      </trkpt>
      <trkpt lat="45.72135" lon="6.20851">
        <ele>1339.4</ele>
        <time>2000-01-01T12:58:48.000Z</time>
      </trkpt>
      <trkpt lat="45.72139" lon="6.20863">
        <ele>1337.6</ele>
        <time>2000-01-01T12:58:58.000Z</time>
      </trkpt>
      <trkpt lat="45.7213" lon="6.20863">
        <ele>1327</ele>
        <time>2000-01-01T12:59:08.000Z</time>
      </trkpt>
      <trkpt lat="45.72117" lon="6.2087">
        <ele>1328.6</ele>
        <time>2000-01-01T12:59:18.000Z</time>
      </trkpt>
      <trkpt lat="45.72107" lon="6.20878">
        <ele>1313</ele>
        <time>2000-01-01T12:59:28.000Z</time>
      </trkpt>
      <trkpt lat="45.721" lon="6.20887">
        <ele>1320.1</ele>
        <time>2000-01-01T12:59:38.000Z</time>
      </trkpt>
      <trkpt lat="45.72091" lon="6.20896">
        <ele>1313</ele>
        <time>2000-01-01T12:59:48.000Z</time>
      </trkpt>
      <trkpt lat="45.72081" lon="6.20902">
        <ele>1311.9</ele>
        <time>2000-01-01T12:59:58.000Z</time>
      </trkpt>
      <trkpt lat="45.72073" lon="6.20908">
        <ele>1304</ele>
        <time>2000-01-01T13:00:08.000Z</time>
      </trkpt>
      <trkpt lat="45.72064" lon="6.2091">
        <ele>1307.3</ele>
        <time>2000-01-01T13:00:18.000Z</time>
      </trkpt>
      <trkpt lat="45.72051" lon="6.2091">
        <ele>1296</ele>
        <time>2000-01-01T13:00:28.000Z</time>
      </trkpt>
      <trkpt lat="45.7204" lon="6.20917">
        <ele>1303.7</ele>
        <time>2000-01-01T13:00:38.000Z</time>
      </trkpt>
      <trkpt lat="45.7202" lon="6.2094">
        <ele>1292</ele>
        <time>2000-01-01T13:00:48.000Z</time>
      </trkpt>
      <trkpt lat="45.72014" lon="6.2095">
        <ele>1297.8</ele>
        <time>2000-01-01T13:00:58.000Z</time>
      </trkpt>
      <trkpt lat="45.7201" lon="6.20964">
        <ele>1292</ele>
        <time>2000-01-01T13:01:08.000Z</time>
      </trkpt>
      <trkpt lat="45.72001" lon="6.20979">
        <ele>1297.6</ele>
        <time>2000-01-01T13:01:18.000Z</time>
      </trkpt>
      <trkpt lat="45.71998" lon="6.20991">
        <ele>1289</ele>
        <time>2000-01-01T13:01:28.000Z</time>
      </trkpt>
      <trkpt lat="45.71997" lon="6.21004">
        <ele>1300.2</ele>
        <time>2000-01-01T13:01:38.000Z</time>
      </trkpt>
      <trkpt lat="45.71987" lon="6.21006">
        <ele>1287</ele>
        <time>2000-01-01T13:01:48.000Z</time>
      </trkpt>
      <trkpt lat="45.71986" lon="6.2099">
        <ele>1291.1</ele>
        <time>2000-01-01T13:01:58.000Z</time>
      </trkpt>
      <trkpt lat="45.71996" lon="6.20964">
        <ele>1286</ele>
        <time>2000-01-01T13:02:08.000Z</time>
      </trkpt>
      <trkpt lat="45.72003" lon="6.20952">
        <ele>1291.9</ele>
        <time>2000-01-01T13:02:18.000Z</time>
      </trkpt>
      <trkpt lat="45.72005" lon="6.20938">
        <ele>1286</ele>
        <time>2000-01-01T13:02:28.000Z</time>
      </trkpt>
      <trkpt lat="45.72006" lon="6.20924">
        <ele>1286.9</ele>
        <time>2000-01-01T13:02:38.000Z</time>
      </trkpt>
      <trkpt lat="45.71997" lon="6.2093">
        <ele>1276</ele>
        <time>2000-01-01T13:02:48.000Z</time>
      </trkpt>
      <trkpt lat="45.71988" lon="6.20937">
        <ele>1279</ele>
        <time>2000-01-01T13:02:58.000Z</time>
      </trkpt>
      <trkpt lat="45.7198" lon="6.20949">
        <ele>1276</ele>
        <time>2000-01-01T13:03:08.000Z</time>
      </trkpt>
      <trkpt lat="45.71975" lon="6.20963">
        <ele>1277.4</ele>
        <time>2000-01-01T13:03:18.000Z</time>
      </trkpt>
      <trkpt lat="45.71972" lon="6.20976">
        <ele>1276</ele>
        <time>2000-01-01T13:03:28.000Z</time>
      </trkpt>
      <trkpt lat="45.71968" lon="6.2099">
        <ele>1281.7</ele>
        <time>2000-01-01T13:03:38.000Z</time>
      </trkpt>
      <trkpt lat="45.71962" lon="6.20978">
        <ele>1267</ele>
        <time>2000-01-01T13:03:48.000Z</time>
      </trkpt>
      <trkpt lat="45.71963" lon="6.20964">
        <ele>1270.8</ele>
        <time>2000-01-01T13:03:58.000Z</time>
      </trkpt>
      <trkpt lat="45.71967" lon="6.20951">
        <ele>1264</ele>
        <time>2000-01-01T13:04:08.000Z</time>
      </trkpt>
      <trkpt lat="45.7197" lon="6.20937">
        <ele>1268.3</ele>
        <time>2000-01-01T13:04:18.000Z</time>
      </trkpt>
      <trkpt lat="45.7197" lon="6.2092">
        <ele>1264</ele>
        <time>2000-01-01T13:04:28.000Z</time>
      </trkpt>
      <trkpt lat="45.71964" lon="6.20933">
        <ele>1264</ele>
        <time>2000-01-01T13:04:38.000Z</time>
      </trkpt>
      <trkpt lat="45.71957" lon="6.20945">
        <ele>1256</ele>
        <time>2000-01-01T13:04:48.000Z</time>
      </trkpt>
      <trkpt lat="45.71949" lon="6.20957">
        <ele>1261.2</ele>
        <time>2000-01-01T13:04:58.000Z</time>
      </trkpt>
      <trkpt lat="45.71939" lon="6.20953">
        <ele>1243</ele>
        <time>2000-01-01T13:05:08.000Z</time>
      </trkpt>
      <trkpt lat="45.71935" lon="6.20941">
        <ele>1247.3</ele>
        <time>2000-01-01T13:05:18.000Z</time>
      </trkpt>
      <trkpt lat="45.71934" lon="6.20928">
        <ele>1243.1</ele>
        <time>2000-01-01T13:05:28.000Z</time>
      </trkpt>
      <trkpt lat="45.71936" lon="6.20912">
        <ele>1241</ele>
        <time>2000-01-01T13:05:38.000Z</time>
      </trkpt>
      <trkpt lat="45.71941" lon="6.20885">
        <ele>1239</ele>
        <time>2000-01-01T13:05:48.000Z</time>
      </trkpt>
      <trkpt lat="45.71942" lon="6.20871">
        <ele>1235.3</ele>
        <time>2000-01-01T13:05:58.000Z</time>
      </trkpt>
      <trkpt lat="45.71931" lon="6.20876">
        <ele>1232</ele>
        <time>2000-01-01T13:06:08.000Z</time>
      </trkpt>
      <trkpt lat="45.71926" lon="6.20887">
        <ele>1227.1</ele>
        <time>2000-01-01T13:06:18.000Z</time>
      </trkpt>
      <trkpt lat="45.71921" lon="6.20914">
        <ele>1226</ele>
        <time>2000-01-01T13:06:28.000Z</time>
      </trkpt>
      <trkpt lat="45.71914" lon="6.20922">
        <ele>1227</ele>
        <time>2000-01-01T13:06:38.000Z</time>
      </trkpt>
      <trkpt lat="45.71908" lon="6.20934">
        <ele>1219</ele>
        <time>2000-01-01T13:06:48.000Z</time>
      </trkpt>
      <trkpt lat="45.71906" lon="6.20949">
        <ele>1229.4</ele>
        <time>2000-01-01T13:06:58.000Z</time>
      </trkpt>
      <trkpt lat="45.71897" lon="6.20959">
        <ele>1218</ele>
        <time>2000-01-01T13:07:08.000Z</time>
      </trkpt>
      <trkpt lat="45.71888" lon="6.20965">
        <ele>1220.8</ele>
        <time>2000-01-01T13:07:18.000Z</time>
      </trkpt>
      <trkpt lat="45.71878" lon="6.20973">
        <ele>1208</ele>
        <time>2000-01-01T13:07:28.000Z</time>
      </trkpt>
      <trkpt lat="45.71872" lon="6.20984">
        <ele>1212.9</ele>
        <time>2000-01-01T13:07:38.000Z</time>
      </trkpt>
      <trkpt lat="45.71864" lon="6.2099">
        <ele>1205</ele>
        <time>2000-01-01T13:07:48.000Z</time>
      </trkpt>
      <trkpt lat="45.71865" lon="6.20977">
        <ele>1206.5</ele>
        <time>2000-01-01T13:07:58.000Z</time>
      </trkpt>
      <trkpt lat="45.71866" lon="6.20963">
        <ele>1200</ele>
        <time>2000-01-01T13:08:08.000Z</time>
      </trkpt>
      <trkpt lat="45.71865" lon="6.20949">
        <ele>1202.2</ele>
        <time>2000-01-01T13:08:18.000Z</time>
      </trkpt>
      <trkpt lat="45.71865" lon="6.20933">
        <ele>1202</ele>
        <time>2000-01-01T13:08:28.000Z</time>
      </trkpt>
      <trkpt lat="45.71875" lon="6.20919">
        <ele>1203.4</ele>
        <time>2000-01-01T13:08:38.000Z</time>
      </trkpt>
      <trkpt lat="45.71884" lon="6.20914">
        <ele>1199</ele>
        <time>2000-01-01T13:08:48.000Z</time>
      </trkpt>
      <trkpt lat="45.71886" lon="6.209">
        <ele>1205.3</ele>
        <time>2000-01-01T13:08:58.000Z</time>
      </trkpt>
      <trkpt lat="45.71885" lon="6.20883">
        <ele>1197</ele>
        <time>2000-01-01T13:09:08.000Z</time>
      </trkpt>
      <trkpt lat="45.71884" lon="6.20866">
        <ele>1195.9</ele>
        <time>2000-01-01T13:09:18.000Z</time>
      </trkpt>
      <trkpt lat="45.71883" lon="6.20852">
        <ele>1197</ele>
        <time>2000-01-01T13:09:28.000Z</time>
      </trkpt>
      <trkpt lat="45.71886" lon="6.20835">
        <ele>1199</ele>
        <time>2000-01-01T13:09:38.000Z</time>
      </trkpt>
      <trkpt lat="45.71883" lon="6.20822">
        <ele>1197</ele>
        <time>2000-01-01T13:09:48.000Z</time>
      </trkpt>
      <trkpt lat="45.7188" lon="6.20805">
        <ele>1196.6</ele>
        <time>2000-01-01T13:09:58.000Z</time>
      </trkpt>
      <trkpt lat="45.71884" lon="6.20817">
        <ele>1199</ele>
        <time>2000-01-01T13:10:08.000Z</time>
      </trkpt>
      <trkpt lat="45.71884" lon="6.2083">
        <ele>1198.1</ele>
        <time>2000-01-01T13:10:18.000Z</time>
      </trkpt>
      <trkpt lat="45.7189" lon="6.20842">
        <ele>1193</ele>
        <time>2000-01-01T13:10:28.000Z</time>
      </trkpt>
      <trkpt lat="45.7189" lon="6.20855">
        <ele>1198.5</ele>
        <time>2000-01-01T13:10:38.000Z</time>
      </trkpt>
      <trkpt lat="45.71883" lon="6.20864">
        <ele>1195</ele>
        <time>2000-01-01T13:10:48.000Z</time>
      </trkpt>
      <trkpt lat="45.71876" lon="6.20875">
        <ele>1191</ele>
        <time>2000-01-01T13:10:58.000Z</time>
      </trkpt>
      <trkpt lat="45.71871" lon="6.20887">
        <ele>1195.2</ele>
        <time>2000-01-01T13:11:08.000Z</time>
      </trkpt>
      <trkpt lat="45.71863" lon="6.20898">
        <ele>1190</ele>
        <time>2000-01-01T13:11:18.000Z</time>
      </trkpt>
      <trkpt lat="45.71857" lon="6.2091">
        <ele>1191.2</ele>
        <time>2000-01-01T13:11:28.000Z</time>
      </trkpt>
      <trkpt lat="45.71847" lon="6.20915">
        <ele>1177</ele>
        <time>2000-01-01T13:11:38.000Z</time>
      </trkpt>
      <trkpt lat="45.71837" lon="6.20926">
        <ele>1178.7</ele>
        <time>2000-01-01T13:11:48.000Z</time>
      </trkpt>
      <trkpt lat="45.71832" lon="6.20938">
        <ele>1173</ele>
        <time>2000-01-01T13:11:58.000Z</time>
      </trkpt>
      <trkpt lat="45.71823" lon="6.20967">
        <ele>1170</ele>
        <time>2000-01-01T13:12:08.000Z</time>
      </trkpt>
      <trkpt lat="45.71823" lon="6.2098">
        <ele>1171.9</ele>
        <time>2000-01-01T13:12:18.000Z</time>
      </trkpt>
      <trkpt lat="45.71825" lon="6.20993">
        <ele>1174.4</ele>
        <time>2000-01-01T13:12:28.000Z</time>
      </trkpt>
      <trkpt lat="45.71825" lon="6.20963">
        <ele>1170</ele>
        <time>2000-01-01T13:12:38.000Z</time>
      </trkpt>
      <trkpt lat="45.71822" lon="6.20945">
        <ele>1170.3</ele>
        <time>2000-01-01T13:12:48.000Z</time>
      </trkpt>
      <trkpt lat="45.71811" lon="6.20919">
        <ele>1161</ele>
        <time>2000-01-01T13:12:58.000Z</time>
      </trkpt>
      <trkpt lat="45.71804" lon="6.20905">
        <ele>1161.4</ele>
        <time>2000-01-01T13:13:08.000Z</time>
      </trkpt>
      <trkpt lat="45.71789" lon="6.20884">
        <ele>1161</ele>
        <time>2000-01-01T13:13:18.000Z</time>
      </trkpt>
      <trkpt lat="45.71798" lon="6.2089">
        <ele>1161</ele>
        <time>2000-01-01T13:13:28.000Z</time>
      </trkpt>
      <trkpt lat="45.71804" lon="6.20904">
        <ele>1161</ele>
        <time>2000-01-01T13:13:38.000Z</time>
      </trkpt>
      <trkpt lat="45.71803" lon="6.20919">
        <ele>1160</ele>
        <time>2000-01-01T13:13:48.000Z</time>
      </trkpt>
      <trkpt lat="45.71793" lon="6.20946">
        <ele>1154</ele>
        <time>2000-01-01T13:13:58.000Z</time>
      </trkpt>
      <trkpt lat="45.71786" lon="6.20957">
        <ele>1152.2</ele>
        <time>2000-01-01T13:14:08.000Z</time>
      </trkpt>
      <trkpt lat="45.71783" lon="6.2097">
        <ele>1147</ele>
        <time>2000-01-01T13:14:18.000Z</time>
      </trkpt>
      <trkpt lat="45.71783" lon="6.20983">
        <ele>1148.6</ele>
        <time>2000-01-01T13:14:28.000Z</time>
      </trkpt>
      <trkpt lat="45.71781" lon="6.20997">
        <ele>1146.2</ele>
        <time>2000-01-01T13:14:38.000Z</time>
      </trkpt>
      <trkpt lat="45.71775" lon="6.21007">
        <ele>1142</ele>
        <time>2000-01-01T13:14:48.000Z</time>
      </trkpt>
      <trkpt lat="45.7177" lon="6.21019">
        <ele>1140.9</ele>
        <time>2000-01-01T13:14:58.000Z</time>
      </trkpt>
      <trkpt lat="45.71768" lon="6.21051">
        <ele>1134</ele>
        <time>2000-01-01T13:15:08.000Z</time>
      </trkpt>
      <trkpt lat="45.71765" lon="6.21063">
        <ele>1138.5</ele>
        <time>2000-01-01T13:15:18.000Z</time>
      </trkpt>
      <trkpt lat="45.71763" lon="6.21094">
        <ele>1134</ele>
        <time>2000-01-01T13:15:28.000Z</time>
      </trkpt>
      <trkpt lat="45.71767" lon="6.2111">
        <ele>1139.3</ele>
        <time>2000-01-01T13:15:38.000Z</time>
      </trkpt>
      <trkpt lat="45.71767" lon="6.21124">
        <ele>1131</ele>
        <time>2000-01-01T13:15:48.000Z</time>
      </trkpt>
      <trkpt lat="45.71765" lon="6.2114">
        <ele>1131</ele>
        <time>2000-01-01T13:15:58.000Z</time>
      </trkpt>
      <trkpt lat="45.71765" lon="6.21154">
        <ele>1124</ele>
        <time>2000-01-01T13:16:08.000Z</time>
      </trkpt>
      <trkpt lat="45.71763" lon="6.21166">
        <ele>1124.1</ele>
        <time>2000-01-01T13:16:18.000Z</time>
      </trkpt>
      <trkpt lat="45.71763" lon="6.2118">
        <ele>1119</ele>
        <time>2000-01-01T13:16:28.000Z</time>
      </trkpt>
      <trkpt lat="45.71766" lon="6.21196">
        <ele>1120.1</ele>
        <time>2000-01-01T13:16:38.000Z</time>
      </trkpt>
      <trkpt lat="45.71765" lon="6.21213">
        <ele>1113</ele>
        <time>2000-01-01T13:16:48.000Z</time>
      </trkpt>
      <trkpt lat="45.71767" lon="6.21228">
        <ele>1114.3</ele>
        <time>2000-01-01T13:16:58.000Z</time>
      </trkpt>
      <trkpt lat="45.7177" lon="6.21242">
        <ele>1107</ele>
        <time>2000-01-01T13:17:08.000Z</time>
      </trkpt>
      <trkpt lat="45.71766" lon="6.21257">
        <ele>1107.7</ele>
        <time>2000-01-01T13:17:18.000Z</time>
      </trkpt>
      <trkpt lat="45.71767" lon="6.21273">
        <ele>1101</ele>
        <time>2000-01-01T13:17:28.000Z</time>
      </trkpt>
      <trkpt lat="45.71773" lon="6.21316">
        <ele>1098</ele>
        <time>2000-01-01T13:17:38.000Z</time>
      </trkpt>
      <trkpt lat="45.71773" lon="6.21331">
        <ele>1091.8</ele>
        <time>2000-01-01T13:17:48.000Z</time>
      </trkpt>
      <trkpt lat="45.71778" lon="6.21344">
        <ele>1088</ele>
        <time>2000-01-01T13:17:58.000Z</time>
      </trkpt>
      <trkpt lat="45.71777" lon="6.21357">
        <ele>1086.7</ele>
        <time>2000-01-01T13:18:08.000Z</time>
      </trkpt>
      <trkpt lat="45.71783" lon="6.21384">
        <ele>1078</ele>
        <time>2000-01-01T13:18:18.000Z</time>
      </trkpt>
      <trkpt lat="45.71784" lon="6.21398">
        <ele>1073.7</ele>
        <time>2000-01-01T13:18:28.000Z</time>
      </trkpt>
      <trkpt lat="45.71791" lon="6.21423">
        <ele>1067</ele>
        <time>2000-01-01T13:18:38.000Z</time>
      </trkpt>
      <trkpt lat="45.71799" lon="6.21434">
        <ele>1064</ele>
        <time>2000-01-01T13:18:48.000Z</time>
      </trkpt>
      <trkpt lat="45.71807" lon="6.21442">
        <ele>1061</ele>
        <time>2000-01-01T13:18:58.000Z</time>
      </trkpt>
      <trkpt lat="45.71823" lon="6.21466">
        <ele>1058</ele>
        <time>2000-01-01T13:19:08.000Z</time>
      </trkpt>
      <trkpt lat="45.71828" lon="6.21477">
        <ele>1050</ele>
        <time>2000-01-01T13:19:18.000Z</time>
      </trkpt>
      <trkpt lat="45.71836" lon="6.21487">
        <ele>1048</ele>
        <time>2000-01-01T13:19:28.000Z</time>
      </trkpt>
      <trkpt lat="45.71845" lon="6.21495">
        <ele>1045.9</ele>
        <time>2000-01-01T13:19:38.000Z</time>
      </trkpt>
      <trkpt lat="45.7186" lon="6.21531">
        <ele>1031</ele>
        <time>2000-01-01T13:19:48.000Z</time>
      </trkpt>
      <trkpt lat="45.71867" lon="6.2154">
        <ele>1030.6</ele>
        <time>2000-01-01T13:19:58.000Z</time>
      </trkpt>
      <trkpt lat="45.71873" lon="6.21551">
        <ele>1026</ele>
        <time>2000-01-01T13:20:08.000Z</time>
      </trkpt>
      <trkpt lat="45.71878" lon="6.21563">
        <ele>1022.5</ele>
        <time>2000-01-01T13:20:18.000Z</time>
      </trkpt>
      <trkpt lat="45.71884" lon="6.21575">
        <ele>1019</ele>
        <time>2000-01-01T13:20:28.000Z</time>
      </trkpt>
      <trkpt lat="45.71893" lon="6.21585">
        <ele>1013.8</ele>
        <time>2000-01-01T13:20:38.000Z</time>
      </trkpt>
      <trkpt lat="45.71912" lon="6.21605">
        <ele>1007</ele>
        <time>2000-01-01T13:20:48.000Z</time>
      </trkpt>
      <trkpt lat="45.7192" lon="6.21615">
        <ele>1003.4</ele>
        <time>2000-01-01T13:20:58.000Z</time>
      </trkpt>
      <trkpt lat="45.71936" lon="6.21629">
        <ele>1005</ele>
        <time>2000-01-01T13:21:08.000Z</time>
      </trkpt>
      <trkpt lat="45.71942" lon="6.2164">
        <ele>999.6</ele>
        <time>2000-01-01T13:21:18.000Z</time>
      </trkpt>
      <trkpt lat="45.71951" lon="6.21649">
        <ele>1001</ele>
        <time>2000-01-01T13:21:28.000Z</time>
      </trkpt>
      <trkpt lat="45.71958" lon="6.21659">
        <ele>992.2</ele>
        <time>2000-01-01T13:21:38.000Z</time>
      </trkpt>
      <trkpt lat="45.71967" lon="6.21665">
        <ele>995</ele>
        <time>2000-01-01T13:21:48.000Z</time>
      </trkpt>
      <trkpt lat="45.71985" lon="6.21676">
        <ele>990</ele>
        <time>2000-01-01T13:21:58.000Z</time>
      </trkpt>
      <trkpt lat="45.71994" lon="6.21681">
        <ele>986.7</ele>
        <time>2000-01-01T13:22:08.000Z</time>
      </trkpt>
      <trkpt lat="45.72001" lon="6.21692">
        <ele>982</ele>
        <time>2000-01-01T13:22:18.000Z</time>
      </trkpt>
      <trkpt lat="45.72017" lon="6.21713">
        <ele>975</ele>
        <time>2000-01-01T13:22:28.000Z</time>
      </trkpt>
      <trkpt lat="45.72025" lon="6.21723">
        <ele>975.7</ele>
        <time>2000-01-01T13:22:38.000Z</time>
      </trkpt>
      <trkpt lat="45.7204" lon="6.21743">
        <ele>967</ele>
        <time>2000-01-01T13:22:48.000Z</time>
      </trkpt>
      <trkpt lat="45.72048" lon="6.21754">
        <ele>966.1</ele>
        <time>2000-01-01T13:22:58.000Z</time>
      </trkpt>
      <trkpt lat="45.72057" lon="6.21762">
        <ele>962</ele>
        <time>2000-01-01T13:23:08.000Z</time>
      </trkpt>
      <trkpt lat="45.72074" lon="6.21784">
        <ele>959</ele>
        <time>2000-01-01T13:23:18.000Z</time>
      </trkpt>
      <trkpt lat="45.72092" lon="6.218">
        <ele>956</ele>
        <time>2000-01-01T13:23:28.000Z</time>
      </trkpt>
      <trkpt lat="45.72096" lon="6.21813">
        <ele>948.9</ele>
        <time>2000-01-01T13:23:38.000Z</time>
      </trkpt>
      <trkpt lat="45.72104" lon="6.21826">
        <ele>943</ele>
        <time>2000-01-01T13:23:48.000Z</time>
      </trkpt>
      <trkpt lat="45.72111" lon="6.21835">
        <ele>942.3</ele>
        <time>2000-01-01T13:23:58.000Z</time>
      </trkpt>
      <trkpt lat="45.72122" lon="6.21843">
        <ele>941</ele>
        <time>2000-01-01T13:24:08.000Z</time>
      </trkpt>
      <trkpt lat="45.72129" lon="6.21852">
        <ele>934.5</ele>
        <time>2000-01-01T13:24:18.000Z</time>
      </trkpt>
      <trkpt lat="45.72142" lon="6.21861">
        <ele>931</ele>
        <time>2000-01-01T13:24:28.000Z</time>
      </trkpt>
      <trkpt lat="45.72151" lon="6.21869">
        <ele>926.9</ele>
        <time>2000-01-01T13:24:38.000Z</time>
      </trkpt>
      <trkpt lat="45.72161" lon="6.21875">
        <ele>931</ele>
        <time>2000-01-01T13:24:48.000Z</time>
      </trkpt>
      <trkpt lat="45.72172" lon="6.21879">
        <ele>929</ele>
        <time>2000-01-01T13:24:58.000Z</time>
      </trkpt>
      <trkpt lat="45.72182" lon="6.2189">
        <ele>931</ele>
        <time>2000-01-01T13:25:08.000Z</time>
      </trkpt>
      <trkpt lat="45.722" lon="6.21904">
        <ele>929</ele>
        <time>2000-01-01T13:25:18.000Z</time>
      </trkpt>
      <trkpt lat="45.72209" lon="6.21909">
        <ele>930.2</ele>
        <time>2000-01-01T13:25:28.000Z</time>
      </trkpt>
      <trkpt lat="45.72211" lon="6.21923">
        <ele>926</ele>
        <time>2000-01-01T13:25:38.000Z</time>
      </trkpt>
      <trkpt lat="45.72244" lon="6.21954">
        <ele>925</ele>
        <time>2000-01-01T13:25:48.000Z</time>
      </trkpt>
      <trkpt lat="45.7227" lon="6.21948">
        <ele>925</ele>
        <time>2000-01-01T13:25:58.000Z</time>
      </trkpt>
      <trkpt lat="45.72306" lon="6.21942">
        <ele>918</ele>
        <time>2000-01-01T13:26:08.000Z</time>
      </trkpt>
      <trkpt lat="45.72344" lon="6.21966">
        <ele>913</ele>
        <time>2000-01-01T13:26:18.000Z</time>
      </trkpt>
      <trkpt lat="45.72362" lon="6.22022">
        <ele>907</ele>
        <time>2000-01-01T13:26:28.000Z</time>
      </trkpt>
      <trkpt lat="45.72378" lon="6.22053">
        <ele>890</ele>
        <time>2000-01-01T13:26:38.000Z</time>
      </trkpt>
      <trkpt lat="45.72399" lon="6.22094">
        <ele>888</ele>
        <time>2000-01-01T13:26:48.000Z</time>
      </trkpt>
      <trkpt lat="45.72408" lon="6.22115">
        <ele>881.4</ele>
        <time>2000-01-01T13:26:58.000Z</time>
      </trkpt>
      <trkpt lat="45.72407" lon="6.22145">
        <ele>876</ele>
        <time>2000-01-01T13:27:08.000Z</time>
      </trkpt>
      <trkpt lat="45.72419" lon="6.22138">
        <ele>875.8</ele>
        <time>2000-01-01T13:27:18.000Z</time>
      </trkpt>
      <trkpt lat="45.72431" lon="6.22136">
        <ele>870</ele>
        <time>2000-01-01T13:27:28.000Z</time>
      </trkpt>
      <trkpt lat="45.72445" lon="6.22134">
        <ele>862.3</ele>
        <time>2000-01-01T13:27:38.000Z</time>
      </trkpt>
      <trkpt lat="45.72455" lon="6.22135">
        <ele>865</ele>
        <time>2000-01-01T13:27:48.000Z</time>
      </trkpt>
      <trkpt lat="45.72463" lon="6.22143">
        <ele>859.8</ele>
        <time>2000-01-01T13:27:58.000Z</time>
      </trkpt>
      <trkpt lat="45.72474" lon="6.22147">
        <ele>860</ele>
        <time>2000-01-01T13:28:08.000Z</time>
      </trkpt>
      <trkpt lat="45.72485" lon="6.22154">
        <ele>849</ele>
        <time>2000-01-01T13:28:18.000Z</time>
      </trkpt>
      <trkpt lat="45.72497" lon="6.22155">
        <ele>855</ele>
        <time>2000-01-01T13:28:28.000Z</time>
      </trkpt>
      <trkpt lat="45.72509" lon="6.22151">
        <ele>846.8</ele>
        <time>2000-01-01T13:28:38.000Z</time>
      </trkpt>
      <trkpt lat="45.72531" lon="6.22155">
        <ele>850</ele>
        <time>2000-01-01T13:28:48.000Z</time>
      </trkpt>
      <trkpt lat="45.72527" lon="6.22179">
        <ele>839.3</ele>
        <time>2000-01-01T13:28:58.000Z</time>
      </trkpt>
      <trkpt lat="45.72563" lon="6.22192">
        <ele>832</ele>
        <time>2000-01-01T13:29:08.000Z</time>
      </trkpt>
      <trkpt lat="45.72598" lon="6.22203">
        <ele>821</ele>
        <time>2000-01-01T13:29:18.000Z</time>
      </trkpt>
      <trkpt lat="45.7262" lon="6.22216">
        <ele>813</ele>
        <time>2000-01-01T13:29:28.000Z</time>
      </trkpt>
      <trkpt lat="45.72641" lon="6.2223">
        <ele>802</ele>
        <time>2000-01-01T13:29:38.000Z</time>
      </trkpt>
      <trkpt lat="45.72655" lon="6.2226">
        <ele>796</ele>
        <time>2000-01-01T13:29:48.000Z</time>
      </trkpt>
      <trkpt lat="45.7267" lon="6.22294">
        <ele>786</ele>
        <time>2000-01-01T13:29:58.000Z</time>
      </trkpt>
      <trkpt lat="45.7269" lon="6.2232">
        <ele>785</ele>
        <time>2000-01-01T13:30:08.000Z</time>
      </trkpt>
      <trkpt lat="45.72718" lon="6.22357">
        <ele>782</ele>
        <time>2000-01-01T13:30:18.000Z</time>
      </trkpt>
      <trkpt lat="45.72747" lon="6.2237">
        <ele>776</ele>
        <time>2000-01-01T13:30:28.000Z</time>
      </trkpt>
      <trkpt lat="45.72771" lon="6.22381">
        <ele>773</ele>
        <time>2000-01-01T13:30:38.000Z</time>
      </trkpt>
      <trkpt lat="45.72799" lon="6.22394">
        <ele>775</ele>
        <time>2000-01-01T13:30:48.000Z</time>
      </trkpt>
      <trkpt lat="45.72809" lon="6.22386">
        <ele>774.9</ele>
        <time>2000-01-01T13:30:58.000Z</time>
      </trkpt>
      <trkpt lat="45.72817" lon="6.2238">
        <ele>774</ele>
        <time>2000-01-01T13:31:08.000Z</time>
      </trkpt>
      <trkpt lat="45.72828" lon="6.22381">
        <ele>775.2</ele>
        <time>2000-01-01T13:31:18.000Z</time>
      </trkpt>
      <trkpt lat="45.72838" lon="6.22384">
        <ele>774</ele>
        <time>2000-01-01T13:31:28.000Z</time>
      </trkpt>
      <trkpt lat="45.72845" lon="6.22393">
        <ele>773.7</ele>
        <time>2000-01-01T13:31:38.000Z</time>
      </trkpt>
      <trkpt lat="45.72854" lon="6.22399">
        <ele>773</ele>
        <time>2000-01-01T13:31:48.000Z</time>
      </trkpt>
      <trkpt lat="45.72863" lon="6.22401">
        <ele>773.1</ele>
        <time>2000-01-01T13:31:58.000Z</time>
      </trkpt>
      <trkpt lat="45.72876" lon="6.22387">
        <ele>773</ele>
        <time>2000-01-01T13:32:08.000Z</time>
      </trkpt>
      <trkpt lat="45.72883" lon="6.22386">
        <ele>776.2</ele>
        <time>2000-01-01T13:32:18.000Z</time>
      </trkpt>
      <trkpt lat="45.72891" lon="6.22417">
        <ele>775</ele>
        <time>2000-01-01T13:32:28.000Z</time>
      </trkpt>
      <trkpt lat="45.72876" lon="6.22429">
        <ele>775.2</ele>
        <time>2000-01-01T13:32:38.000Z</time>
      </trkpt>
      <trkpt lat="45.72879" lon="6.22451">
        <ele>778</ele>
        <time>2000-01-01T13:32:48.000Z</time>
      </trkpt>
      <trkpt lat="45.72905" lon="6.22462">
        <ele>778</ele>
        <time>2000-01-01T13:32:58.000Z</time>
      </trkpt>
      <trkpt lat="45.72941" lon="6.22476">
        <ele>781</ele>
        <time>2000-01-01T13:33:08.000Z</time>
      </trkpt>
      <trkpt lat="45.72966" lon="6.22491">
        <ele>780</ele>
        <time>2000-01-01T13:33:18.000Z</time>
      </trkpt>
      <trkpt lat="45.73001" lon="6.22513">
        <ele>780</ele>
        <time>2000-01-01T13:33:28.000Z</time>
      </trkpt>
      <trkpt lat="45.73029" lon="6.22529">
        <ele>780</ele>
        <time>2000-01-01T13:33:38.000Z</time>
      </trkpt>
      <trkpt lat="45.73052" lon="6.22543">
        <ele>785</ele>
        <time>2000-01-01T13:33:48.000Z</time>
      </trkpt>
      <trkpt lat="45.73079" lon="6.22558">
        <ele>788</ele>
        <time>2000-01-01T13:33:58.000Z</time>
      </trkpt>
      <trkpt lat="45.73115" lon="6.22585">
        <ele>790</ele>
        <time>2000-01-01T13:34:08.000Z</time>
      </trkpt>
      <trkpt lat="45.73141" lon="6.22601">
        <ele>792</ele>
        <time>2000-01-01T13:34:18.000Z</time>
      </trkpt>
      <trkpt lat="45.73179" lon="6.22623">
        <ele>792</ele>
        <time>2000-01-01T13:34:28.000Z</time>
      </trkpt>
      <trkpt lat="45.73224" lon="6.22639">
        <ele>799</ele>
        <time>2000-01-01T13:34:38.000Z</time>
      </trkpt>
      <trkpt lat="45.73204" lon="6.22656">
        <ele>807</ele>
        <time>2000-01-01T13:34:48.000Z</time>
      </trkpt>
      <trkpt lat="45.73184" lon="6.22668">
        <ele>812</ele>
        <time>2000-01-01T13:34:58.000Z</time>
      </trkpt>
      <trkpt lat="45.73176" lon="6.22674">
        <ele>819.1</ele>
        <time>2000-01-01T13:35:08.000Z</time>
      </trkpt>
      <trkpt lat="45.73168" lon="6.22682">
        <ele>816</ele>
        <time>2000-01-01T13:35:18.000Z</time>
      </trkpt>
      <trkpt lat="45.73159" lon="6.22685">
        <ele>825</ele>
        <time>2000-01-01T13:35:28.000Z</time>
      </trkpt>
      <trkpt lat="45.7315" lon="6.2268">
        <ele>820</ele>
        <time>2000-01-01T13:35:38.000Z</time>
      </trkpt>
      <trkpt lat="45.73141" lon="6.22688">
        <ele>825.2</ele>
        <time>2000-01-01T13:35:48.000Z</time>
      </trkpt>
      <trkpt lat="45.7313" lon="6.22689">
        <ele>820</ele>
        <time>2000-01-01T13:35:58.000Z</time>
      </trkpt>
      <trkpt lat="45.73111" lon="6.22686">
        <ele>821</ele>
        <time>2000-01-01T13:36:08.000Z</time>
      </trkpt>
      <trkpt lat="45.73086" lon="6.22688">
        <ele>822</ele>
        <time>2000-01-01T13:36:18.000Z</time>
      </trkpt>
      <trkpt lat="45.73063" lon="6.22687">
        <ele>823</ele>
        <time>2000-01-01T13:36:28.000Z</time>
      </trkpt>
      <trkpt lat="45.73053" lon="6.22685">
        <ele>827</ele>
        <time>2000-01-01T13:36:38.000Z</time>
      </trkpt>
      <trkpt lat="45.73045" lon="6.22693">
        <ele>830</ele>
        <time>2000-01-01T13:36:48.000Z</time>
      </trkpt>
      <trkpt lat="45.73042" lon="6.22705">
        <ele>837.4</ele>
        <time>2000-01-01T13:36:58.000Z</time>
      </trkpt>
      <trkpt lat="45.73033" lon="6.22712">
        <ele>838</ele>
        <time>2000-01-01T13:37:08.000Z</time>
      </trkpt>
      <trkpt lat="45.73025" lon="6.22722">
        <ele>843.7</ele>
        <time>2000-01-01T13:37:18.000Z</time>
      </trkpt>
      <trkpt lat="45.73006" lon="6.22721">
        <ele>849</ele>
        <time>2000-01-01T13:37:28.000Z</time>
      </trkpt>
      <trkpt lat="45.72999" lon="6.22729">
        <ele>852.3</ele>
        <time>2000-01-01T13:37:38.000Z</time>
      </trkpt>
      <trkpt lat="45.73004" lon="6.22739">
        <ele>854.5</ele>
        <time>2000-01-01T13:37:48.000Z</time>
      </trkpt>
      <trkpt lat="45.73011" lon="6.22748">
        <ele>853</ele>
        <time>2000-01-01T13:37:58.000Z</time>
      </trkpt>
      <trkpt lat="45.73014" lon="6.2276">
        <ele>859.2</ele>
        <time>2000-01-01T13:38:08.000Z</time>
      </trkpt>
      <trkpt lat="45.73034" lon="6.22764">
        <ele>857</ele>
        <time>2000-01-01T13:38:18.000Z</time>
      </trkpt>
      <trkpt lat="45.73053" lon="6.22762">
        <ele>861</ele>
        <time>2000-01-01T13:38:28.000Z</time>
      </trkpt>
      <trkpt lat="45.73061" lon="6.22768">
        <ele>860</ele>
        <time>2000-01-01T13:38:38.000Z</time>
      </trkpt>
      <trkpt lat="45.73066" lon="6.2278">
        <ele>865.4</ele>
        <time>2000-01-01T13:38:48.000Z</time>
      </trkpt>
      <trkpt lat="45.73076" lon="6.22785">
        <ele>862</ele>
        <time>2000-01-01T13:38:58.000Z</time>
      </trkpt>
      <trkpt lat="45.73085" lon="6.22786">
        <ele>863.8</ele>
        <time>2000-01-01T13:39:08.000Z</time>
      </trkpt>
      <trkpt lat="45.73095" lon="6.22793">
        <ele>865</ele>
        <time>2000-01-01T13:39:18.000Z</time>
      </trkpt>
      <trkpt lat="45.731" lon="6.22804">
        <ele>869.2</ele>
        <time>2000-01-01T13:39:28.000Z</time>
      </trkpt>
      <trkpt lat="45.73109" lon="6.22814">
        <ele>875</ele>
        <time>2000-01-01T13:39:38.000Z</time>
      </trkpt>
      <trkpt lat="45.73118" lon="6.22816">
        <ele>873.2</ele>
        <time>2000-01-01T13:39:48.000Z</time>
      </trkpt>
      <trkpt lat="45.73125" lon="6.22826">
        <ele>875</ele>
        <time>2000-01-01T13:39:58.000Z</time>
      </trkpt>
      <trkpt lat="45.73134" lon="6.2283">
        <ele>879.4</ele>
        <time>2000-01-01T13:40:08.000Z</time>
      </trkpt>
      <trkpt lat="45.73162" lon="6.22833">
        <ele>880</ele>
        <time>2000-01-01T13:40:18.000Z</time>
      </trkpt>
      <trkpt lat="45.73171" lon="6.22838">
        <ele>885.5</ele>
        <time>2000-01-01T13:40:28.000Z</time>
      </trkpt>
      <trkpt lat="45.73178" lon="6.22848">
        <ele>887</ele>
        <time>2000-01-01T13:40:38.000Z</time>
      </trkpt>
      <trkpt lat="45.73184" lon="6.2286">
        <ele>894.8</ele>
        <time>2000-01-01T13:40:48.000Z</time>
      </trkpt>
      <trkpt lat="45.73195" lon="6.22865">
        <ele>889</ele>
        <time>2000-01-01T13:40:58.000Z</time>
      </trkpt>
      <trkpt lat="45.73214" lon="6.22876">
        <ele>890</ele>
        <time>2000-01-01T13:41:08.000Z</time>
      </trkpt>
      <trkpt lat="45.73235" lon="6.2288">
        <ele>891</ele>
        <time>2000-01-01T13:41:18.000Z</time>
      </trkpt>
      <trkpt lat="45.73245" lon="6.22882">
        <ele>896.4</ele>
        <time>2000-01-01T13:41:28.000Z</time>
      </trkpt>
      <trkpt lat="45.73254" lon="6.22881">
        <ele>896</ele>
        <time>2000-01-01T13:41:38.000Z</time>
      </trkpt>
      <trkpt lat="45.73265" lon="6.22883">
        <ele>897</ele>
        <time>2000-01-01T13:41:48.000Z</time>
      </trkpt>
      <trkpt lat="45.73274" lon="6.22883">
        <ele>896</ele>
        <time>2000-01-01T13:41:58.000Z</time>
      </trkpt>
      <trkpt lat="45.73283" lon="6.22889">
        <ele>898.6</ele>
        <time>2000-01-01T13:42:08.000Z</time>
      </trkpt>
      <trkpt lat="45.73293" lon="6.22892">
        <ele>894</ele>
        <time>2000-01-01T13:42:18.000Z</time>
      </trkpt>
      <trkpt lat="45.73314" lon="6.22895">
        <ele>893</ele>
        <time>2000-01-01T13:42:28.000Z</time>
      </trkpt>
      <trkpt lat="45.73325" lon="6.22888">
        <ele>895.8</ele>
        <time>2000-01-01T13:42:38.000Z</time>
      </trkpt>
      <trkpt lat="45.73335" lon="6.22881">
        <ele>893</ele>
        <time>2000-01-01T13:42:48.000Z</time>
      </trkpt>
      <trkpt lat="45.73345" lon="6.22877">
        <ele>892.3</ele>
        <time>2000-01-01T13:42:58.000Z</time>
      </trkpt>
      <trkpt lat="45.73365" lon="6.22873">
        <ele>888</ele>
        <time>2000-01-01T13:43:08.000Z</time>
      </trkpt>
      <trkpt lat="45.73375" lon="6.22876">
        <ele>892.4</ele>
        <time>2000-01-01T13:43:18.000Z</time>
      </trkpt>
      <trkpt lat="45.73384" lon="6.22875">
        <ele>888</ele>
        <time>2000-01-01T13:43:28.000Z</time>
      </trkpt>
      <trkpt lat="45.73403" lon="6.22879">
        <ele>888</ele>
        <time>2000-01-01T13:43:38.000Z</time>
      </trkpt>
      <trkpt lat="45.73412" lon="6.22874">
        <ele>888.9</ele>
        <time>2000-01-01T13:43:48.000Z</time>
      </trkpt>
      <trkpt lat="45.73421" lon="6.2287">
        <ele>886.4</ele>
        <time>2000-01-01T13:43:58.000Z</time>
      </trkpt>
      <trkpt lat="45.73431" lon="6.22871">
        <ele>886</ele>
        <time>2000-01-01T13:44:08.000Z</time>
      </trkpt>
      <trkpt lat="45.73451" lon="6.22869">
        <ele>888</ele>
        <time>2000-01-01T13:44:18.000Z</time>
      </trkpt>
      <trkpt lat="45.7345" lon="6.22882">
        <ele>894.8</ele>
        <time>2000-01-01T13:44:28.000Z</time>
      </trkpt>
      <trkpt lat="45.73471" lon="6.2288">
        <ele>890</ele>
        <time>2000-01-01T13:44:38.000Z</time>
      </trkpt>
      <trkpt lat="45.73481" lon="6.22881">
        <ele>894.7</ele>
        <time>2000-01-01T13:44:48.000Z</time>
      </trkpt>
      <trkpt lat="45.73489" lon="6.22888">
        <ele>892</ele>
        <time>2000-01-01T13:44:58.000Z</time>
      </trkpt>
      <trkpt lat="45.73497" lon="6.22896">
        <ele>904.5</ele>
        <time>2000-01-01T13:45:08.000Z</time>
      </trkpt>
      <trkpt lat="45.73505" lon="6.22901">
        <ele>909.6</ele>
        <time>2000-01-01T13:45:18.000Z</time>
      </trkpt>
      <trkpt lat="45.73514" lon="6.22902">
        <ele>904</ele>
        <time>2000-01-01T13:45:28.000Z</time>
      </trkpt>
      <trkpt lat="45.73524" lon="6.22906">
        <ele>911.7</ele>
        <time>2000-01-01T13:45:38.000Z</time>
      </trkpt>
      <trkpt lat="45.73533" lon="6.22909">
        <ele>907</ele>
        <time>2000-01-01T13:45:48.000Z</time>
      </trkpt>
      <trkpt lat="45.73542" lon="6.22907">
        <ele>912.4</ele>
        <time>2000-01-01T13:45:58.000Z</time>
      </trkpt>
      <trkpt lat="45.73549" lon="6.22897">
        <ele>906.6</ele>
        <time>2000-01-01T13:46:08.000Z</time>
      </trkpt>
      <trkpt lat="45.73558" lon="6.22902">
        <ele>906</ele>
        <time>2000-01-01T13:46:18.000Z</time>
      </trkpt>
      <trkpt lat="45.73566" lon="6.22909">
        <ele>912.2</ele>
        <time>2000-01-01T13:46:28.000Z</time>
      </trkpt>
      <trkpt lat="45.73576" lon="6.2291">
        <ele>906</ele>
        <time>2000-01-01T13:46:38.000Z</time>
      </trkpt>
      <trkpt lat="45.73586" lon="6.22912">
        <ele>910</ele>
        <time>2000-01-01T13:46:48.000Z</time>
      </trkpt>
      <trkpt lat="45.73605" lon="6.22921">
        <ele>911</ele>
        <time>2000-01-01T13:46:58.000Z</time>
      </trkpt>
      <trkpt lat="45.73614" lon="6.22927">
        <ele>916</ele>
        <time>2000-01-01T13:47:08.000Z</time>
      </trkpt>
      <trkpt lat="45.73623" lon="6.22932">
        <ele>918</ele>
        <time>2000-01-01T13:47:18.000Z</time>
      </trkpt>
      <trkpt lat="45.73631" lon="6.22938">
        <ele>922.8</ele>
        <time>2000-01-01T13:47:28.000Z</time>
      </trkpt>
      <trkpt lat="45.7364" lon="6.22939">
        <ele>923.6</ele>
        <time>2000-01-01T13:47:38.000Z</time>
      </trkpt>
      <trkpt lat="45.73649" lon="6.22946">
        <ele>923</ele>
        <time>2000-01-01T13:47:48.000Z</time>
      </trkpt>
      <trkpt lat="45.73657" lon="6.22955">
        <ele>932.1</ele>
        <time>2000-01-01T13:47:58.000Z</time>
      </trkpt>
      <trkpt lat="45.73666" lon="6.22961">
        <ele>934</ele>
        <time>2000-01-01T13:48:08.000Z</time>
      </trkpt>
      <trkpt lat="45.73673" lon="6.2297">
        <ele>941.5</ele>
        <time>2000-01-01T13:48:18.000Z</time>
      </trkpt>
      <trkpt lat="45.73672" lon="6.22984">
        <ele>952.3</ele>
        <time>2000-01-01T13:48:28.000Z</time>
      </trkpt>
      <trkpt lat="45.73679" lon="6.22975">
        <ele>939</ele>
        <time>2000-01-01T13:48:38.000Z</time>
      </trkpt>
      <trkpt lat="45.7369" lon="6.22975">
        <ele>944.9</ele>
        <time>2000-01-01T13:48:48.000Z</time>
      </trkpt>
      <trkpt lat="45.73711" lon="6.22979">
        <ele>942</ele>
        <time>2000-01-01T13:48:58.000Z</time>
      </trkpt>
      <trkpt lat="45.73719" lon="6.22985">
        <ele>950.1</ele>
        <time>2000-01-01T13:49:08.000Z</time>
      </trkpt>
      <trkpt lat="45.7373" lon="6.22983">
        <ele>942</ele>
        <time>2000-01-01T13:49:18.000Z</time>
      </trkpt>
      <trkpt lat="45.7374" lon="6.22978">
        <ele>946.3</ele>
        <time>2000-01-01T13:49:28.000Z</time>
      </trkpt>
      <trkpt lat="45.73748" lon="6.22972">
        <ele>942</ele>
        <time>2000-01-01T13:49:38.000Z</time>
      </trkpt>
      <trkpt lat="45.73757" lon="6.22967">
        <ele>939.6</ele>
        <time>2000-01-01T13:49:48.000Z</time>
      </trkpt>
      <trkpt lat="45.73765" lon="6.22961">
        <ele>936</ele>
        <time>2000-01-01T13:49:58.000Z</time>
      </trkpt>
      <trkpt lat="45.73774" lon="6.22964">
        <ele>937.1</ele>
        <time>2000-01-01T13:50:08.000Z</time>
      </trkpt>
      <trkpt lat="45.73785" lon="6.22959">
        <ele>936</ele>
        <time>2000-01-01T13:50:18.000Z</time>
      </trkpt>
      <trkpt lat="45.73794" lon="6.22962">
        <ele>937</ele>
        <time>2000-01-01T13:50:28.000Z</time>
      </trkpt>
      <trkpt lat="45.73804" lon="6.22965">
        <ele>936</ele>
        <time>2000-01-01T13:50:38.000Z</time>
      </trkpt>
      <trkpt lat="45.73824" lon="6.22954">
        <ele>935</ele>
        <time>2000-01-01T13:50:48.000Z</time>
      </trkpt>
      <trkpt lat="45.73839" lon="6.22939">
        <ele>932.1</ele>
        <time>2000-01-01T13:50:58.000Z</time>
      </trkpt>
      <trkpt lat="45.7385" lon="6.22936">
        <ele>928</ele>
        <time>2000-01-01T13:51:08.000Z</time>
      </trkpt>
      <trkpt lat="45.7386" lon="6.22936">
        <ele>929.8</ele>
        <time>2000-01-01T13:51:18.000Z</time>
      </trkpt>
      <trkpt lat="45.73872" lon="6.22938">
        <ele>926</ele>
        <time>2000-01-01T13:51:28.000Z</time>
      </trkpt>
      <trkpt lat="45.73883" lon="6.22938">
        <ele>927.2</ele>
        <time>2000-01-01T13:51:38.000Z</time>
      </trkpt>
      <trkpt lat="45.73893" lon="6.22936">
        <ele>923</ele>
        <time>2000-01-01T13:51:48.000Z</time>
      </trkpt>
      <trkpt lat="45.73903" lon="6.22935">
        <ele>920.8</ele>
        <time>2000-01-01T13:51:58.000Z</time>
      </trkpt>
      <trkpt lat="45.73911" lon="6.22931">
        <ele>917</ele>
        <time>2000-01-01T13:52:08.000Z</time>
      </trkpt>
      <trkpt lat="45.73921" lon="6.22932">
        <ele>913.5</ele>
        <time>2000-01-01T13:52:18.000Z</time>
      </trkpt>
      <trkpt lat="45.73931" lon="6.22932">
        <ele>910</ele>
        <time>2000-01-01T13:52:28.000Z</time>
      </trkpt>
      <trkpt lat="45.73941" lon="6.22929">
        <ele>904.1</ele>
        <time>2000-01-01T13:52:38.000Z</time>
      </trkpt>
      <trkpt lat="45.73961" lon="6.22928">
        <ele>902</ele>
        <time>2000-01-01T13:52:48.000Z</time>
      </trkpt>
      <trkpt lat="45.7398" lon="6.22937">
        <ele>895</ele>
        <time>2000-01-01T13:52:58.000Z</time>
      </trkpt>
      <trkpt lat="45.7399" lon="6.22937">
        <ele>895.2</ele>
        <time>2000-01-01T13:53:08.000Z</time>
      </trkpt>
      <trkpt lat="45.74" lon="6.22936">
        <ele>892</ele>
        <time>2000-01-01T13:53:18.000Z</time>
      </trkpt>
      <trkpt lat="45.74011" lon="6.22937">
        <ele>891.9</ele>
        <time>2000-01-01T13:53:28.000Z</time>
      </trkpt>
      <trkpt lat="45.74023" lon="6.22941">
        <ele>890</ele>
        <time>2000-01-01T13:53:38.000Z</time>
      </trkpt>
      <trkpt lat="45.74034" lon="6.22941">
        <ele>890</ele>
        <time>2000-01-01T13:53:48.000Z</time>
      </trkpt>
      <trkpt lat="45.74043" lon="6.22944">
        <ele>889</ele>
        <time>2000-01-01T13:53:58.000Z</time>
      </trkpt>
      <trkpt lat="45.74053" lon="6.22945">
        <ele>887.9</ele>
        <time>2000-01-01T13:54:08.000Z</time>
      </trkpt>
      <trkpt lat="45.74069" lon="6.22958">
        <ele>891</ele>
        <time>2000-01-01T13:54:18.000Z</time>
      </trkpt>
      <trkpt lat="45.74078" lon="6.22962">
        <ele>891.6</ele>
        <time>2000-01-01T13:54:28.000Z</time>
      </trkpt>
      <trkpt lat="45.74085" lon="6.2297">
        <ele>894.6</ele>
        <time>2000-01-01T13:54:38.000Z</time>
      </trkpt>
      <trkpt lat="45.74094" lon="6.22977">
        <ele>893</ele>
        <time>2000-01-01T13:54:48.000Z</time>
      </trkpt>
      <trkpt lat="45.74118" lon="6.22998">
        <ele>902</ele>
        <time>2000-01-01T13:54:58.000Z</time>
      </trkpt>
      <trkpt lat="45.74136" lon="6.23008">
        <ele>906</ele>
        <time>2000-01-01T13:55:08.000Z</time>
      </trkpt>
      <trkpt lat="45.74154" lon="6.23013">
        <ele>911</ele>
        <time>2000-01-01T13:55:18.000Z</time>
      </trkpt>
      <trkpt lat="45.74164" lon="6.23008">
        <ele>916.6</ele>
        <time>2000-01-01T13:55:28.000Z</time>
      </trkpt>
      <trkpt lat="45.74179" lon="6.22994">
        <ele>914</ele>
        <time>2000-01-01T13:55:38.000Z</time>
      </trkpt>
      <trkpt lat="45.74189" lon="6.22993">
        <ele>919.8</ele>
        <time>2000-01-01T13:55:48.000Z</time>
      </trkpt>
      <trkpt lat="45.74198" lon="6.22994">
        <ele>919</ele>
        <time>2000-01-01T13:55:58.000Z</time>
      </trkpt>
      <trkpt lat="45.74202" lon="6.22994">
        <ele>920.9</ele>
        <time>2000-01-01T13:56:08.000Z</time>
      </trkpt>
      <trkpt lat="45.74211" lon="6.22998">
        <ele>921.6</ele>
        <time>2000-01-01T13:56:18.000Z</time>
      </trkpt>
      <trkpt lat="45.74215" lon="6.23002">
        <ele>922.7</ele>
        <time>2000-01-01T13:56:28.000Z</time>
      </trkpt>
      <trkpt lat="45.74221" lon="6.23003">
        <ele>921</ele>
        <time>2000-01-01T13:56:38.000Z</time>
      </trkpt>
      <trkpt lat="45.74226" lon="6.23006">
        <ele>922.4</ele>
        <time>2000-01-01T13:56:48.000Z</time>
      </trkpt>
      <trkpt lat="45.74235" lon="6.23015">
        <ele>924.1</ele>
        <time>2000-01-01T13:56:58.000Z</time>
      </trkpt>
      <trkpt lat="45.74246" lon="6.23024">
        <ele>925</ele>
        <time>2000-01-01T13:57:08.000Z</time>
      </trkpt>
      <trkpt lat="45.74251" lon="6.2303">
        <ele>927.1</ele>
        <time>2000-01-01T13:57:18.000Z</time>
      </trkpt>
      <trkpt lat="45.74255" lon="6.23031">
        <ele>926.3</ele>
        <time>2000-01-01T13:57:28.000Z</time>
      </trkpt>
      <trkpt lat="45.74261" lon="6.23037">
        <ele>926.4</ele>
        <time>2000-01-01T13:57:38.000Z</time>
      </trkpt>
      <trkpt lat="45.74264" lon="6.23051">
        <ele>930</ele>
        <time>2000-01-01T13:57:48.000Z</time>
      </trkpt>
      <trkpt lat="45.74255" lon="6.23076">
        <ele>933</ele>
        <time>2000-01-01T13:57:58.000Z</time>
      </trkpt>
      <trkpt lat="45.7425" lon="6.23087">
        <ele>938.3</ele>
        <time>2000-01-01T13:58:08.000Z</time>
      </trkpt>
      <trkpt lat="45.7424" lon="6.23089">
        <ele>940</ele>
        <time>2000-01-01T13:58:18.000Z</time>
      </trkpt>
      <trkpt lat="45.74221" lon="6.23085">
        <ele>943</ele>
        <time>2000-01-01T13:58:28.000Z</time>
      </trkpt>
      <trkpt lat="45.74211" lon="6.23085">
        <ele>946</ele>
        <time>2000-01-01T13:58:38.000Z</time>
      </trkpt>
      <trkpt lat="45.74187" lon="6.23106">
        <ele>953</ele>
        <time>2000-01-01T13:58:48.000Z</time>
      </trkpt>
      <trkpt lat="45.7418" lon="6.23116">
        <ele>959.2</ele>
        <time>2000-01-01T13:58:58.000Z</time>
      </trkpt>
      <trkpt lat="45.74173" lon="6.23125">
        <ele>960</ele>
        <time>2000-01-01T13:59:08.000Z</time>
      </trkpt>
      <trkpt lat="45.74164" lon="6.23129">
        <ele>965.4</ele>
        <time>2000-01-01T13:59:18.000Z</time>
      </trkpt>
      <trkpt lat="45.74155" lon="6.2313">
        <ele>967.4</ele>
        <time>2000-01-01T13:59:28.000Z</time>
      </trkpt>
      <trkpt lat="45.74146" lon="6.23127">
        <ele>964</ele>
        <time>2000-01-01T13:59:38.000Z</time>
      </trkpt>
      <trkpt lat="45.74126" lon="6.23131">
        <ele>971</ele>
        <time>2000-01-01T13:59:48.000Z</time>
      </trkpt>
      <trkpt lat="45.74116" lon="6.23131">
        <ele>972.9</ele>
        <time>2000-01-01T13:59:58.000Z</time>
      </trkpt>
      <trkpt lat="45.74107" lon="6.23136">
        <ele>974</ele>
        <time>2000-01-01T14:00:08.000Z</time>
      </trkpt>
      <trkpt lat="45.74098" lon="6.2313">
        <ele>975.4</ele>
        <time>2000-01-01T14:00:18.000Z</time>
      </trkpt>
      <trkpt lat="45.74089" lon="6.23132">
        <ele>975</ele>
        <time>2000-01-01T14:00:28.000Z</time>
      </trkpt>
      <trkpt lat="45.74069" lon="6.23129">
        <ele>977</ele>
        <time>2000-01-01T14:00:38.000Z</time>
      </trkpt>
      <trkpt lat="45.7406" lon="6.23125">
        <ele>980.1</ele>
        <time>2000-01-01T14:00:48.000Z</time>
      </trkpt>
      <trkpt lat="45.74041" lon="6.23126">
        <ele>981</ele>
        <time>2000-01-01T14:00:58.000Z</time>
      </trkpt>
      <trkpt lat="45.74031" lon="6.23123">
        <ele>986.9</ele>
        <time>2000-01-01T14:01:08.000Z</time>
      </trkpt>
      <trkpt lat="45.74022" lon="6.23124">
        <ele>988</ele>
        <time>2000-01-01T14:01:18.000Z</time>
      </trkpt>
      <trkpt lat="45.74003" lon="6.23123">
        <ele>990</ele>
        <time>2000-01-01T14:01:28.000Z</time>
      </trkpt>
      <trkpt lat="45.73993" lon="6.23124">
        <ele>994.4</ele>
        <time>2000-01-01T14:01:38.000Z</time>
      </trkpt>
      <trkpt lat="45.73984" lon="6.23129">
        <ele>993</ele>
        <time>2000-01-01T14:01:48.000Z</time>
      </trkpt>
      <trkpt lat="45.73976" lon="6.23123">
        <ele>997.6</ele>
        <time>2000-01-01T14:01:58.000Z</time>
      </trkpt>
      <trkpt lat="45.73966" lon="6.23124">
        <ele>1013</ele>
        <time>2000-01-01T14:02:08.000Z</time>
      </trkpt>
      <trkpt lat="45.73956" lon="6.23123">
        <ele>1011.1</ele>
        <time>2000-01-01T14:02:18.000Z</time>
      </trkpt>
      <trkpt lat="45.73946" lon="6.2312">
        <ele>1009</ele>
        <time>2000-01-01T14:02:28.000Z</time>
      </trkpt>
      <trkpt lat="45.73939" lon="6.23111">
        <ele>1013.7</ele>
        <time>2000-01-01T14:02:38.000Z</time>
      </trkpt>
      <trkpt lat="45.73931" lon="6.23105">
        <ele>1008</ele>
        <time>2000-01-01T14:02:48.000Z</time>
      </trkpt>
      <trkpt lat="45.73922" lon="6.23109">
        <ele>1017.6</ele>
        <time>2000-01-01T14:02:58.000Z</time>
      </trkpt>
      <trkpt lat="45.73905" lon="6.23098">
        <ele>1012</ele>
        <time>2000-01-01T14:03:08.000Z</time>
      </trkpt>
      <trkpt lat="45.73887" lon="6.23104">
        <ele>1016</ele>
        <time>2000-01-01T14:03:18.000Z</time>
      </trkpt>
      <trkpt lat="45.73877" lon="6.23105">
        <ele>1021.5</ele>
        <time>2000-01-01T14:03:28.000Z</time>
      </trkpt>
      <trkpt lat="45.73869" lon="6.23108">
        <ele>1024.7</ele>
        <time>2000-01-01T14:03:38.000Z</time>
      </trkpt>
      <trkpt lat="45.73859" lon="6.23108">
        <ele>1019</ele>
        <time>2000-01-01T14:03:48.000Z</time>
      </trkpt>
      <trkpt lat="45.73849" lon="6.23109">
        <ele>1027.1</ele>
        <time>2000-01-01T14:03:58.000Z</time>
      </trkpt>
      <trkpt lat="45.7384" lon="6.23112">
        <ele>1029</ele>
        <time>2000-01-01T14:04:08.000Z</time>
      </trkpt>
      <trkpt lat="45.73831" lon="6.23119">
        <ele>1034.5</ele>
        <time>2000-01-01T14:04:18.000Z</time>
      </trkpt>
      <trkpt lat="45.73822" lon="6.23124">
        <ele>1034</ele>
        <time>2000-01-01T14:04:28.000Z</time>
      </trkpt>
      <trkpt lat="45.73812" lon="6.23125">
        <ele>1039.7</ele>
        <time>2000-01-01T14:04:38.000Z</time>
      </trkpt>
      <trkpt lat="45.73803" lon="6.23128">
        <ele>1034</ele>
        <time>2000-01-01T14:04:48.000Z</time>
      </trkpt>
      <trkpt lat="45.73794" lon="6.23126">
        <ele>1039.2</ele>
        <time>2000-01-01T14:04:58.000Z</time>
      </trkpt>
      <trkpt lat="45.73784" lon="6.23129">
        <ele>1035</ele>
        <time>2000-01-01T14:05:08.000Z</time>
      </trkpt>
      <trkpt lat="45.73768" lon="6.23143">
        <ele>1044.9</ele>
        <time>2000-01-01T14:05:18.000Z</time>
      </trkpt>
      <trkpt lat="45.73747" lon="6.23147">
        <ele>1044</ele>
        <time>2000-01-01T14:05:28.000Z</time>
      </trkpt>
      <trkpt lat="45.73739" lon="6.23153">
        <ele>1051</ele>
        <time>2000-01-01T14:05:38.000Z</time>
      </trkpt>
      <trkpt lat="45.73729" lon="6.23155">
        <ele>1051</ele>
        <time>2000-01-01T14:05:48.000Z</time>
      </trkpt>
      <trkpt lat="45.73721" lon="6.2316">
        <ele>1058</ele>
        <time>2000-01-01T14:05:58.000Z</time>
      </trkpt>
      <trkpt lat="45.737" lon="6.23165">
        <ele>1051</ele>
        <time>2000-01-01T14:06:08.000Z</time>
      </trkpt>
      <trkpt lat="45.7369" lon="6.23166">
        <ele>1059.3</ele>
        <time>2000-01-01T14:06:18.000Z</time>
      </trkpt>
      <trkpt lat="45.7368" lon="6.23166">
        <ele>1062</ele>
        <time>2000-01-01T14:06:28.000Z</time>
      </trkpt>
      <trkpt lat="45.73671" lon="6.23162">
        <ele>1064.5</ele>
        <time>2000-01-01T14:06:38.000Z</time>
      </trkpt>
      <trkpt lat="45.73662" lon="6.2316">
        <ele>1067.6</ele>
        <time>2000-01-01T14:06:48.000Z</time>
      </trkpt>
      <trkpt lat="45.73653" lon="6.23161">
        <ele>1073</ele>
        <time>2000-01-01T14:06:58.000Z</time>
      </trkpt>
      <trkpt lat="45.73643" lon="6.23158">
        <ele>1076.3</ele>
        <time>2000-01-01T14:07:08.000Z</time>
      </trkpt>
      <trkpt lat="45.73633" lon="6.23159">
        <ele>1073</ele>
        <time>2000-01-01T14:07:18.000Z</time>
      </trkpt>
      <trkpt lat="45.73624" lon="6.23157">
        <ele>1082.8</ele>
        <time>2000-01-01T14:07:28.000Z</time>
      </trkpt>
      <trkpt lat="45.73616" lon="6.23148">
        <ele>1073</ele>
        <time>2000-01-01T14:07:38.000Z</time>
      </trkpt>
      <trkpt lat="45.73609" lon="6.23138">
        <ele>1070.5</ele>
        <time>2000-01-01T14:07:48.000Z</time>
      </trkpt>
      <trkpt lat="45.73589" lon="6.23141">
        <ele>1073</ele>
        <time>2000-01-01T14:07:58.000Z</time>
      </trkpt>
      <trkpt lat="45.73579" lon="6.2314">
        <ele>1072.4</ele>
        <time>2000-01-01T14:08:08.000Z</time>
      </trkpt>
      <trkpt lat="45.73571" lon="6.23146">
        <ele>1075.7</ele>
        <time>2000-01-01T14:08:18.000Z</time>
      </trkpt>
      <trkpt lat="45.73562" lon="6.23149">
        <ele>1073</ele>
        <time>2000-01-01T14:08:28.000Z</time>
      </trkpt>
      <trkpt lat="45.73554" lon="6.23156">
        <ele>1079.7</ele>
        <time>2000-01-01T14:08:38.000Z</time>
      </trkpt>
      <trkpt lat="45.73544" lon="6.23158">
        <ele>1073</ele>
        <time>2000-01-01T14:08:48.000Z</time>
      </trkpt>
      <trkpt lat="45.73539" lon="6.23168">
        <ele>1082.9</ele>
        <time>2000-01-01T14:08:58.000Z</time>
      </trkpt>
      <trkpt lat="45.73534" lon="6.23179">
        <ele>1086.7</ele>
        <time>2000-01-01T14:09:08.000Z</time>
      </trkpt>
      <trkpt lat="45.73524" lon="6.23183">
        <ele>1080</ele>
        <time>2000-01-01T14:09:18.000Z</time>
      </trkpt>
      <trkpt lat="45.73523" lon="6.23196">
        <ele>1090.4</ele>
        <time>2000-01-01T14:09:28.000Z</time>
      </trkpt>
      <trkpt lat="45.73519" lon="6.23208">
        <ele>1094.3</ele>
        <time>2000-01-01T14:09:38.000Z</time>
      </trkpt>
      <trkpt lat="45.73516" lon="6.23221">
        <ele>1095</ele>
        <time>2000-01-01T14:09:48.000Z</time>
      </trkpt>
      <trkpt lat="45.73507" lon="6.23227">
        <ele>1097.1</ele>
        <time>2000-01-01T14:09:58.000Z</time>
      </trkpt>
      <trkpt lat="45.73487" lon="6.23232">
        <ele>1097</ele>
        <time>2000-01-01T14:10:08.000Z</time>
      </trkpt>
      <trkpt lat="45.73477" lon="6.23231">
        <ele>1099</ele>
        <time>2000-01-01T14:10:18.000Z</time>
      </trkpt>
      <trkpt lat="45.73468" lon="6.23231">
        <ele>1098</ele>
        <time>2000-01-01T14:10:28.000Z</time>
      </trkpt>
      <trkpt lat="45.73458" lon="6.2323">
        <ele>1102.9</ele>
        <time>2000-01-01T14:10:38.000Z</time>
      </trkpt>
      <trkpt lat="45.73449" lon="6.23226">
        <ele>1100</ele>
        <time>2000-01-01T14:10:48.000Z</time>
      </trkpt>
      <trkpt lat="45.7344" lon="6.23234">
        <ele>1109.3</ele>
        <time>2000-01-01T14:10:58.000Z</time>
      </trkpt>
      <trkpt lat="45.73431" lon="6.23232">
        <ele>1109</ele>
        <time>2000-01-01T14:11:08.000Z</time>
      </trkpt>
      <trkpt lat="45.7342" lon="6.23233">
        <ele>1110.8</ele>
        <time>2000-01-01T14:11:18.000Z</time>
      </trkpt>
      <trkpt lat="45.7341" lon="6.23237">
        <ele>1110</ele>
        <time>2000-01-01T14:11:28.000Z</time>
      </trkpt>
      <trkpt lat="45.73402" lon="6.23244">
        <ele>1117.5</ele>
        <time>2000-01-01T14:11:38.000Z</time>
      </trkpt>
      <trkpt lat="45.73394" lon="6.23253">
        <ele>1120</ele>
        <time>2000-01-01T14:11:48.000Z</time>
      </trkpt>
      <trkpt lat="45.73384" lon="6.23256">
        <ele>1123</ele>
        <time>2000-01-01T14:11:58.000Z</time>
      </trkpt>
      <trkpt lat="45.73376" lon="6.2326">
        <ele>1122</ele>
        <time>2000-01-01T14:12:08.000Z</time>
      </trkpt>
      <trkpt lat="45.73368" lon="6.23266">
        <ele>1123.8</ele>
        <time>2000-01-01T14:12:18.000Z</time>
      </trkpt>
      <trkpt lat="45.7336" lon="6.23276">
        <ele>1123</ele>
        <time>2000-01-01T14:12:28.000Z</time>
      </trkpt>
      <trkpt lat="45.73343" lon="6.23286">
        <ele>1125.6</ele>
        <time>2000-01-01T14:12:38.000Z</time>
      </trkpt>
      <trkpt lat="45.73335" lon="6.23293">
        <ele>1123</ele>
        <time>2000-01-01T14:12:48.000Z</time>
      </trkpt>
      <trkpt lat="45.73332" lon="6.23305">
        <ele>1133.2</ele>
        <time>2000-01-01T14:12:58.000Z</time>
      </trkpt>
      <trkpt lat="45.73326" lon="6.23315">
        <ele>1137.3</ele>
        <time>2000-01-01T14:13:08.000Z</time>
      </trkpt>
      <trkpt lat="45.73317" lon="6.2332">
        <ele>1126</ele>
        <time>2000-01-01T14:13:18.000Z</time>
      </trkpt>
      <trkpt lat="45.7331" lon="6.23329">
        <ele>1139.4</ele>
        <time>2000-01-01T14:13:28.000Z</time>
      </trkpt>
      <trkpt lat="45.73297" lon="6.23327">
        <ele>1127</ele>
        <time>2000-01-01T14:13:38.000Z</time>
      </trkpt>
      <trkpt lat="45.7329" lon="6.2332">
        <ele>1132.8</ele>
        <time>2000-01-01T14:13:48.000Z</time>
      </trkpt>
      <trkpt lat="45.73272" lon="6.23303">
        <ele>1128</ele>
        <time>2000-01-01T14:13:58.000Z</time>
      </trkpt>
      <trkpt lat="45.73262" lon="6.23298">
        <ele>1132.8</ele>
        <time>2000-01-01T14:14:08.000Z</time>
      </trkpt>
      <trkpt lat="45.73254" lon="6.23303">
        <ele>1140</ele>
        <time>2000-01-01T14:14:18.000Z</time>
      </trkpt>
      <trkpt lat="45.73243" lon="6.23303">
        <ele>1143.3</ele>
        <time>2000-01-01T14:14:28.000Z</time>
      </trkpt>
      <trkpt lat="45.73233" lon="6.23301">
        <ele>1143</ele>
        <time>2000-01-01T14:14:38.000Z</time>
      </trkpt>
      <trkpt lat="45.73224" lon="6.23306">
        <ele>1147.1</ele>
        <time>2000-01-01T14:14:48.000Z</time>
      </trkpt>
      <trkpt lat="45.73215" lon="6.23313">
        <ele>1144</ele>
        <time>2000-01-01T14:14:58.000Z</time>
      </trkpt>
      <trkpt lat="45.73205" lon="6.23308">
        <ele>1149.7</ele>
        <time>2000-01-01T14:15:08.000Z</time>
      </trkpt>
      <trkpt lat="45.73196" lon="6.23305">
        <ele>1146</ele>
        <time>2000-01-01T14:15:18.000Z</time>
      </trkpt>
      <trkpt lat="45.73187" lon="6.23307">
        <ele>1150.7</ele>
        <time>2000-01-01T14:15:28.000Z</time>
      </trkpt>
      <trkpt lat="45.73178" lon="6.23314">
        <ele>1149</ele>
        <time>2000-01-01T14:15:38.000Z</time>
      </trkpt>
      <trkpt lat="45.73188" lon="6.23314">
        <ele>1154.8</ele>
        <time>2000-01-01T14:15:48.000Z</time>
      </trkpt>
      <trkpt lat="45.73197" lon="6.23318">
        <ele>1152</ele>
        <time>2000-01-01T14:15:58.000Z</time>
      </trkpt>
      <trkpt lat="45.73207" lon="6.23321">
        <ele>1157.5</ele>
        <time>2000-01-01T14:16:08.000Z</time>
      </trkpt>
      <trkpt lat="45.73216" lon="6.23328">
        <ele>1157</ele>
        <time>2000-01-01T14:16:18.000Z</time>
      </trkpt>
      <trkpt lat="45.73234" lon="6.23337">
        <ele>1162</ele>
        <time>2000-01-01T14:16:28.000Z</time>
      </trkpt>
      <trkpt lat="45.73252" lon="6.23344">
        <ele>1163</ele>
        <time>2000-01-01T14:16:38.000Z</time>
      </trkpt>
      <trkpt lat="45.73243" lon="6.23348">
        <ele>1169.1</ele>
        <time>2000-01-01T14:16:48.000Z</time>
      </trkpt>
      <trkpt lat="45.73234" lon="6.2335">
        <ele>1171.6</ele>
        <time>2000-01-01T14:16:58.000Z</time>
      </trkpt>
      <trkpt lat="45.73224" lon="6.2335">
        <ele>1166</ele>
        <time>2000-01-01T14:17:08.000Z</time>
      </trkpt>
      <trkpt lat="45.73214" lon="6.23348">
        <ele>1173</ele>
        <time>2000-01-01T14:17:18.000Z</time>
      </trkpt>
      <trkpt lat="45.73205" lon="6.2335">
        <ele>1174.8</ele>
        <time>2000-01-01T14:17:28.000Z</time>
      </trkpt>
      <trkpt lat="45.73196" lon="6.23347">
        <ele>1170</ele>
        <time>2000-01-01T14:17:38.000Z</time>
      </trkpt>
      <trkpt lat="45.73187" lon="6.23349">
        <ele>1175.6</ele>
        <time>2000-01-01T14:17:48.000Z</time>
      </trkpt>
      <trkpt lat="45.73178" lon="6.23355">
        <ele>1178</ele>
        <time>2000-01-01T14:17:58.000Z</time>
      </trkpt>
      <trkpt lat="45.7316" lon="6.23367">
        <ele>1182</ele>
        <time>2000-01-01T14:18:08.000Z</time>
      </trkpt>
      <trkpt lat="45.73152" lon="6.23376">
        <ele>1189.7</ele>
        <time>2000-01-01T14:18:18.000Z</time>
      </trkpt>
      <trkpt lat="45.73142" lon="6.23382">
        <ele>1191</ele>
        <time>2000-01-01T14:18:28.000Z</time>
      </trkpt>
      <trkpt lat="45.73133" lon="6.23388">
        <ele>1193.5</ele>
        <time>2000-01-01T14:18:38.000Z</time>
      </trkpt>
      <trkpt lat="45.73125" lon="6.23394">
        <ele>1193</ele>
        <time>2000-01-01T14:18:48.000Z</time>
      </trkpt>
      <trkpt lat="45.73116" lon="6.23399">
        <ele>1196.4</ele>
        <time>2000-01-01T14:18:58.000Z</time>
      </trkpt>
      <trkpt lat="45.73108" lon="6.23408">
        <ele>1194</ele>
        <time>2000-01-01T14:19:08.000Z</time>
      </trkpt>
      <trkpt lat="45.73089" lon="6.2341">
        <ele>1203</ele>
        <time>2000-01-01T14:19:18.000Z</time>
      </trkpt>
      <trkpt lat="45.73081" lon="6.23405">
        <ele>1199.4</ele>
        <time>2000-01-01T14:19:28.000Z</time>
      </trkpt>
      <trkpt lat="45.73053" lon="6.23417">
        <ele>1206</ele>
        <time>2000-01-01T14:19:38.000Z</time>
      </trkpt>
      <trkpt lat="45.73044" lon="6.2342">
        <ele>1210.2</ele>
        <time>2000-01-01T14:19:48.000Z</time>
      </trkpt>
      <trkpt lat="45.73035" lon="6.2342">
        <ele>1210.4</ele>
        <time>2000-01-01T14:19:58.000Z</time>
      </trkpt>
      <trkpt lat="45.73026" lon="6.23426">
        <ele>1206</ele>
        <time>2000-01-01T14:20:08.000Z</time>
      </trkpt>
      <trkpt lat="45.73016" lon="6.23428">
        <ele>1212.7</ele>
        <time>2000-01-01T14:20:18.000Z</time>
      </trkpt>
      <trkpt lat="45.72997" lon="6.23439">
        <ele>1207</ele>
        <time>2000-01-01T14:20:28.000Z</time>
      </trkpt>
      <trkpt lat="45.72988" lon="6.23445">
        <ele>1216.4</ele>
        <time>2000-01-01T14:20:38.000Z</time>
      </trkpt>
      <trkpt lat="45.72979" lon="6.23445">
        <ele>1214</ele>
        <time>2000-01-01T14:20:48.000Z</time>
      </trkpt>
      <trkpt lat="45.72971" lon="6.23451">
        <ele>1218.2</ele>
        <time>2000-01-01T14:20:58.000Z</time>
      </trkpt>
      <trkpt lat="45.72962" lon="6.23456">
        <ele>1219</ele>
        <time>2000-01-01T14:21:08.000Z</time>
      </trkpt>
      <trkpt lat="45.72955" lon="6.23465">
        <ele>1226</ele>
        <time>2000-01-01T14:21:18.000Z</time>
      </trkpt>
      <trkpt lat="45.72944" lon="6.2347">
        <ele>1224</ele>
        <time>2000-01-01T14:21:28.000Z</time>
      </trkpt>
      <trkpt lat="45.72934" lon="6.23473">
        <ele>1230.8</ele>
        <time>2000-01-01T14:21:38.000Z</time>
      </trkpt>
      <trkpt lat="45.72925" lon="6.23478">
        <ele>1230</ele>
        <time>2000-01-01T14:21:48.000Z</time>
      </trkpt>
      <trkpt lat="45.72917" lon="6.23484">
        <ele>1236.5</ele>
        <time>2000-01-01T14:21:58.000Z</time>
      </trkpt>
      <trkpt lat="45.72908" lon="6.23487">
        <ele>1236</ele>
        <time>2000-01-01T14:22:08.000Z</time>
      </trkpt>
      <trkpt lat="45.72898" lon="6.23487">
        <ele>1239.6</ele>
        <time>2000-01-01T14:22:18.000Z</time>
      </trkpt>
      <trkpt lat="45.72889" lon="6.23488">
        <ele>1235</ele>
        <time>2000-01-01T14:22:28.000Z</time>
      </trkpt>
      <trkpt lat="45.7288" lon="6.23481">
        <ele>1238.7</ele>
        <time>2000-01-01T14:22:38.000Z</time>
      </trkpt>
      <trkpt lat="45.7287" lon="6.23475">
        <ele>1235</ele>
        <time>2000-01-01T14:22:48.000Z</time>
      </trkpt>
      <trkpt lat="45.72863" lon="6.23485">
        <ele>1243.2</ele>
        <time>2000-01-01T14:22:58.000Z</time>
      </trkpt>
      <trkpt lat="45.72854" lon="6.2349">
        <ele>1247</ele>
        <time>2000-01-01T14:23:08.000Z</time>
      </trkpt>
      <trkpt lat="45.72861" lon="6.23499">
        <ele>1250.5</ele>
        <time>2000-01-01T14:23:18.000Z</time>
      </trkpt>
      <trkpt lat="45.7287" lon="6.23507">
        <ele>1251</ele>
        <time>2000-01-01T14:23:28.000Z</time>
      </trkpt>
      <trkpt lat="45.72879" lon="6.23512">
        <ele>1255.2</ele>
        <time>2000-01-01T14:23:38.000Z</time>
      </trkpt>
      <trkpt lat="45.72891" lon="6.23514">
        <ele>1250</ele>
        <time>2000-01-01T14:23:48.000Z</time>
      </trkpt>
      <trkpt lat="45.729" lon="6.23514">
        <ele>1253.9</ele>
        <time>2000-01-01T14:23:58.000Z</time>
      </trkpt>
      <trkpt lat="45.7291" lon="6.23516">
        <ele>1250</ele>
        <time>2000-01-01T14:24:08.000Z</time>
      </trkpt>
      <trkpt lat="45.72919" lon="6.23522">
        <ele>1256.6</ele>
        <time>2000-01-01T14:24:18.000Z</time>
      </trkpt>
      <trkpt lat="45.72949" lon="6.23527">
        <ele>1254</ele>
        <time>2000-01-01T14:24:28.000Z</time>
      </trkpt>
      <trkpt lat="45.72958" lon="6.23535">
        <ele>1260.9</ele>
        <time>2000-01-01T14:24:38.000Z</time>
      </trkpt>
      <trkpt lat="45.72967" lon="6.23536">
        <ele>1259</ele>
        <time>2000-01-01T14:24:48.000Z</time>
      </trkpt>
      <trkpt lat="45.72976" lon="6.23535">
        <ele>1259.1</ele>
        <time>2000-01-01T14:24:58.000Z</time>
      </trkpt>
      <trkpt lat="45.72984" lon="6.23541">
        <ele>1261</ele>
        <time>2000-01-01T14:25:08.000Z</time>
      </trkpt>
      <trkpt lat="45.73003" lon="6.23551">
        <ele>1262</ele>
        <time>2000-01-01T14:25:18.000Z</time>
      </trkpt>
      <trkpt lat="45.73013" lon="6.23553">
        <ele>1263</ele>
        <time>2000-01-01T14:25:28.000Z</time>
      </trkpt>
      <trkpt lat="45.73035" lon="6.23565">
        <ele>1263</ele>
        <time>2000-01-01T14:25:38.000Z</time>
      </trkpt>
      <trkpt lat="45.73044" lon="6.2356">
        <ele>1266.1</ele>
        <time>2000-01-01T14:25:48.000Z</time>
      </trkpt>
      <trkpt lat="45.73065" lon="6.23558">
        <ele>1264</ele>
        <time>2000-01-01T14:25:58.000Z</time>
      </trkpt>
      <trkpt lat="45.73076" lon="6.23556">
        <ele>1269.8</ele>
        <time>2000-01-01T14:26:08.000Z</time>
      </trkpt>
      <trkpt lat="45.73094" lon="6.23557">
        <ele>1270</ele>
        <time>2000-01-01T14:26:18.000Z</time>
      </trkpt>
      <trkpt lat="45.73114" lon="6.23561">
        <ele>1276</ele>
        <time>2000-01-01T14:26:28.000Z</time>
      </trkpt>
      <trkpt lat="45.73123" lon="6.23569">
        <ele>1277.7</ele>
        <time>2000-01-01T14:26:38.000Z</time>
      </trkpt>
      <trkpt lat="45.7313" lon="6.23581">
        <ele>1281</ele>
        <time>2000-01-01T14:26:48.000Z</time>
      </trkpt>
      <trkpt lat="45.7314" lon="6.23604">
        <ele>1282</ele>
        <time>2000-01-01T14:26:58.000Z</time>
      </trkpt>
      <trkpt lat="45.73149" lon="6.2361">
        <ele>1284.4</ele>
        <time>2000-01-01T14:27:08.000Z</time>
      </trkpt>
      <trkpt lat="45.73158" lon="6.23612">
        <ele>1284</ele>
        <time>2000-01-01T14:27:18.000Z</time>
      </trkpt>
      <trkpt lat="45.73167" lon="6.2362">
        <ele>1285.9</ele>
        <time>2000-01-01T14:27:28.000Z</time>
      </trkpt>
      <trkpt lat="45.73174" lon="6.23631">
        <ele>1288</ele>
        <time>2000-01-01T14:27:38.000Z</time>
      </trkpt>
      <trkpt lat="45.73177" lon="6.23644">
        <ele>1288.7</ele>
        <time>2000-01-01T14:27:48.000Z</time>
      </trkpt>
      <trkpt lat="45.73159" lon="6.23684">
        <ele>1293</ele>
        <time>2000-01-01T14:27:58.000Z</time>
      </trkpt>
      <trkpt lat="45.73126" lon="6.23674">
        <ele>1295</ele>
        <time>2000-01-01T14:28:08.000Z</time>
      </trkpt>
      <trkpt lat="45.73121" lon="6.23716">
        <ele>1297</ele>
        <time>2000-01-01T14:28:18.000Z</time>
      </trkpt>
      <trkpt lat="45.73116" lon="6.23752">
        <ele>1305</ele>
        <time>2000-01-01T14:28:28.000Z</time>
      </trkpt>
      <trkpt lat="45.73111" lon="6.23794">
        <ele>1308</ele>
        <time>2000-01-01T14:28:38.000Z</time>
      </trkpt>
      <trkpt lat="45.73108" lon="6.23828">
        <ele>1308</ele>
        <time>2000-01-01T14:28:48.000Z</time>
      </trkpt>
      <trkpt lat="45.73111" lon="6.23851">
        <ele>1307.7</ele>
        <time>2000-01-01T14:28:58.000Z</time>
      </trkpt>
      <trkpt lat="45.73106" lon="6.23847">
        <ele>1308</ele>
        <time>2000-01-01T14:29:08.000Z</time>
      </trkpt>
      <trkpt lat="45.73109" lon="6.23848">
        <ele>1307.9</ele>
        <time>2000-01-01T14:29:18.000Z</time>
      </trkpt>
      <trkpt lat="45.73153" lon="6.23869">
        <ele>1299</ele>
        <time>2000-01-01T14:29:28.000Z</time>
      </trkpt>
      <trkpt lat="45.7318" lon="6.23878">
        <ele>1298</ele>
        <time>2000-01-01T14:29:38.000Z</time>
      </trkpt>
      <trkpt lat="45.7322" lon="6.23892">
        <ele>1292</ele>
        <time>2000-01-01T14:29:48.000Z</time>
      </trkpt>
      <trkpt lat="45.73247" lon="6.2389">
        <ele>1288</ele>
        <time>2000-01-01T14:29:58.000Z</time>
      </trkpt>
      <trkpt lat="45.73284" lon="6.23887">
        <ele>1284</ele>
        <time>2000-01-01T14:30:08.000Z</time>
      </trkpt>
      <trkpt lat="45.73317" lon="6.23886">
        <ele>1280</ele>
        <time>2000-01-01T14:30:18.000Z</time>
      </trkpt>
      <trkpt lat="45.7335" lon="6.23884">
        <ele>1276</ele>
        <time>2000-01-01T14:30:28.000Z</time>
      </trkpt>
      <trkpt lat="45.73392" lon="6.23883">
        <ele>1268</ele>
        <time>2000-01-01T14:30:38.000Z</time>
      </trkpt>
      <trkpt lat="45.73417" lon="6.23889">
        <ele>1266</ele>
        <time>2000-01-01T14:30:48.000Z</time>
      </trkpt>
      <trkpt lat="45.73447" lon="6.23895">
        <ele>1261</ele>
        <time>2000-01-01T14:30:58.000Z</time>
      </trkpt>
      <trkpt lat="45.73482" lon="6.23928">
        <ele>1249</ele>
        <time>2000-01-01T14:31:08.000Z</time>
      </trkpt>
      <trkpt lat="45.73522" lon="6.23954">
        <ele>1235</ele>
        <time>2000-01-01T14:31:18.000Z</time>
      </trkpt>
      <trkpt lat="45.73547" lon="6.23965">
        <ele>1229</ele>
        <time>2000-01-01T14:31:28.000Z</time>
      </trkpt>
      <trkpt lat="45.73578" lon="6.23979">
        <ele>1224</ele>
        <time>2000-01-01T14:31:38.000Z</time>
      </trkpt>
      <trkpt lat="45.7361" lon="6.23995">
        <ele>1215</ele>
        <time>2000-01-01T14:31:48.000Z</time>
      </trkpt>
      <trkpt lat="45.73636" lon="6.23996">
        <ele>1213</ele>
        <time>2000-01-01T14:31:58.000Z</time>
      </trkpt>
      <trkpt lat="45.73667" lon="6.23998">
        <ele>1206</ele>
        <time>2000-01-01T14:32:08.000Z</time>
      </trkpt>
      <trkpt lat="45.73667" lon="6.24031">
        <ele>1202</ele>
        <time>2000-01-01T14:32:18.000Z</time>
      </trkpt>
      <trkpt lat="45.73638" lon="6.2405">
        <ele>1199</ele>
        <time>2000-01-01T14:32:28.000Z</time>
      </trkpt>
      <trkpt lat="45.73611" lon="6.24087">
        <ele>1185</ele>
        <time>2000-01-01T14:32:38.000Z</time>
      </trkpt>
      <trkpt lat="45.73578" lon="6.24118">
        <ele>1178</ele>
        <time>2000-01-01T14:32:48.000Z</time>
      </trkpt>
      <trkpt lat="45.73579" lon="6.2418">
        <ele>1154</ele>
        <time>2000-01-01T14:32:58.000Z</time>
      </trkpt>
      <trkpt lat="45.73563" lon="6.24209">
        <ele>1151</ele>
        <time>2000-01-01T14:33:08.000Z</time>
      </trkpt>
      <trkpt lat="45.73544" lon="6.24244">
        <ele>1142</ele>
        <time>2000-01-01T14:33:18.000Z</time>
      </trkpt>
      <trkpt lat="45.73522" lon="6.24285">
        <ele>1134</ele>
        <time>2000-01-01T14:33:28.000Z</time>
      </trkpt>
      <trkpt lat="45.73492" lon="6.24319">
        <ele>1121</ele>
        <time>2000-01-01T14:33:38.000Z</time>
      </trkpt>
      <trkpt lat="45.73467" lon="6.2436">
        <ele>1112</ele>
        <time>2000-01-01T14:33:48.000Z</time>
      </trkpt>
      <trkpt lat="45.73473" lon="6.244">
        <ele>1102</ele>
        <time>2000-01-01T14:33:58.000Z</time>
      </trkpt>
      <trkpt lat="45.73506" lon="6.24395">
        <ele>1091</ele>
        <time>2000-01-01T14:34:08.000Z</time>
      </trkpt>
      <trkpt lat="45.73526" lon="6.24413">
        <ele>1084</ele>
        <time>2000-01-01T14:34:18.000Z</time>
      </trkpt>
      <trkpt lat="45.73546" lon="6.24432">
        <ele>1078</ele>
        <time>2000-01-01T14:34:28.000Z</time>
      </trkpt>
      <trkpt lat="45.73569" lon="6.24439">
        <ele>1075</ele>
        <time>2000-01-01T14:34:38.000Z</time>
      </trkpt>
      <trkpt lat="45.73594" lon="6.24446">
        <ele>1067</ele>
        <time>2000-01-01T14:34:48.000Z</time>
      </trkpt>
      <trkpt lat="45.73634" lon="6.2445">
        <ele>1055</ele>
        <time>2000-01-01T14:34:58.000Z</time>
      </trkpt>
      <trkpt lat="45.73681" lon="6.24457">
        <ele>1041</ele>
        <time>2000-01-01T14:35:08.000Z</time>
      </trkpt>
      <trkpt lat="45.73704" lon="6.24472">
        <ele>1030</ele>
        <time>2000-01-01T14:35:18.000Z</time>
      </trkpt>
      <trkpt lat="45.73734" lon="6.24476">
        <ele>1019</ele>
        <time>2000-01-01T14:35:28.000Z</time>
      </trkpt>
      <trkpt lat="45.7376" lon="6.24479">
        <ele>1012</ele>
        <time>2000-01-01T14:35:38.000Z</time>
      </trkpt>
      <trkpt lat="45.7379" lon="6.24482">
        <ele>1004</ele>
        <time>2000-01-01T14:35:48.000Z</time>
      </trkpt>
      <trkpt lat="45.73813" lon="6.24502">
        <ele>996</ele>
        <time>2000-01-01T14:35:58.000Z</time>
      </trkpt>
      <trkpt lat="45.73845" lon="6.2453">
        <ele>988</ele>
        <time>2000-01-01T14:36:08.000Z</time>
      </trkpt>
      <trkpt lat="45.73871" lon="6.24553">
        <ele>986</ele>
        <time>2000-01-01T14:36:18.000Z</time>
      </trkpt>
      <trkpt lat="45.73893" lon="6.24573">
        <ele>983</ele>
        <time>2000-01-01T14:36:28.000Z</time>
      </trkpt>
      <trkpt lat="45.73918" lon="6.24596">
        <ele>978</ele>
        <time>2000-01-01T14:36:38.000Z</time>
      </trkpt>
      <trkpt lat="45.73935" lon="6.24625">
        <ele>972</ele>
        <time>2000-01-01T14:36:48.000Z</time>
      </trkpt>
      <trkpt lat="45.73955" lon="6.24662">
        <ele>954</ele>
        <time>2000-01-01T14:36:58.000Z</time>
      </trkpt>
      <trkpt lat="45.73969" lon="6.24692">
        <ele>943</ele>
        <time>2000-01-01T14:37:08.000Z</time>
      </trkpt>
      <trkpt lat="45.73984" lon="6.24726">
        <ele>937</ele>
        <time>2000-01-01T14:37:18.000Z</time>
      </trkpt>
      <trkpt lat="45.73994" lon="6.24764">
        <ele>935</ele>
        <time>2000-01-01T14:37:28.000Z</time>
      </trkpt>
      <trkpt lat="45.73989" lon="6.24801">
        <ele>933</ele>
        <time>2000-01-01T14:37:38.000Z</time>
      </trkpt>
      <trkpt lat="45.73984" lon="6.24846">
        <ele>919</ele>
        <time>2000-01-01T14:37:48.000Z</time>
      </trkpt>
      <trkpt lat="45.74" lon="6.24896">
        <ele>898</ele>
        <time>2000-01-01T14:37:58.000Z</time>
      </trkpt>
      <trkpt lat="45.74034" lon="6.24891">
        <ele>886</ele>
        <time>2000-01-01T14:38:08.000Z</time>
      </trkpt>
      <trkpt lat="45.74069" lon="6.24855">
        <ele>875</ele>
        <time>2000-01-01T14:38:18.000Z</time>
      </trkpt>
      <trkpt lat="45.74084" lon="6.24827">
        <ele>875</ele>
        <time>2000-01-01T14:38:28.000Z</time>
      </trkpt>
      <trkpt lat="45.741" lon="6.24798">
        <ele>868</ele>
        <time>2000-01-01T14:38:38.000Z</time>
      </trkpt>
      <trkpt lat="45.74103" lon="6.24832">
        <ele>867</ele>
        <time>2000-01-01T14:38:48.000Z</time>
      </trkpt>
      <trkpt lat="45.74105" lon="6.24867">
        <ele>866</ele>
        <time>2000-01-01T14:38:58.000Z</time>
      </trkpt>
      <trkpt lat="45.74123" lon="6.24877">
        <ele>864</ele>
        <time>2000-01-01T14:39:08.000Z</time>
      </trkpt>
      <trkpt lat="45.74143" lon="6.24894">
        <ele>854</ele>
        <time>2000-01-01T14:39:18.000Z</time>
      </trkpt>
      <trkpt lat="45.7414" lon="6.24922">
        <ele>851</ele>
        <time>2000-01-01T14:39:28.000Z</time>
      </trkpt>
      <trkpt lat="45.74124" lon="6.24953">
        <ele>848</ele>
        <time>2000-01-01T14:39:38.000Z</time>
      </trkpt>
      <trkpt lat="45.74116" lon="6.24977">
        <ele>843</ele>
        <time>2000-01-01T14:39:48.000Z</time>
      </trkpt>
      <trkpt lat="45.74165" lon="6.24951">
        <ele>830</ele>
        <time>2000-01-01T14:39:58.000Z</time>
      </trkpt>
      <trkpt lat="45.74202" lon="6.24934">
        <ele>815</ele>
        <time>2000-01-01T14:40:08.000Z</time>
      </trkpt>
      <trkpt lat="45.74203" lon="6.2497">
        <ele>809</ele>
        <time>2000-01-01T14:40:18.000Z</time>
      </trkpt>
      <trkpt lat="45.74214" lon="6.25023">
        <ele>798</ele>
        <time>2000-01-01T14:40:28.000Z</time>
      </trkpt>
      <trkpt lat="45.74214" lon="6.25063">
        <ele>790</ele>
        <time>2000-01-01T14:40:38.000Z</time>
      </trkpt>
      <trkpt lat="45.74214" lon="6.25119">
        <ele>774</ele>
        <time>2000-01-01T14:40:48.000Z</time>
      </trkpt>
      <trkpt lat="45.7422" lon="6.25152">
        <ele>769</ele>
        <time>2000-01-01T14:40:58.000Z</time>
      </trkpt>
      <trkpt lat="45.74199" lon="6.25176">
        <ele>765</ele>
        <time>2000-01-01T14:41:08.000Z</time>
      </trkpt>
      <trkpt lat="45.74185" lon="6.25214">
        <ele>758</ele>
        <time>2000-01-01T14:41:18.000Z</time>
      </trkpt>
      <trkpt lat="45.7417" lon="6.25241">
        <ele>752</ele>
        <time>2000-01-01T14:41:28.000Z</time>
      </trkpt>
      <trkpt lat="45.74171" lon="6.25284">
        <ele>732</ele>
        <time>2000-01-01T14:41:38.000Z</time>
      </trkpt>
      <trkpt lat="45.74172" lon="6.25321">
        <ele>721</ele>
        <time>2000-01-01T14:41:48.000Z</time>
      </trkpt>
      <trkpt lat="45.74173" lon="6.25363">
        <ele>712</ele>
        <time>2000-01-01T14:41:58.000Z</time>
      </trkpt>
      <trkpt lat="45.74179" lon="6.25396">
        <ele>706</ele>
        <time>2000-01-01T14:42:08.000Z</time>
      </trkpt>
      <trkpt lat="45.7417" lon="6.25414">
        <ele>700.7</ele>
        <time>2000-01-01T14:42:18.000Z</time>
      </trkpt>
      <trkpt lat="45.74176" lon="6.25457">
        <ele>695</ele>
        <time>2000-01-01T14:42:28.000Z</time>
      </trkpt>
      <trkpt lat="45.74189" lon="6.2549">
        <ele>687</ele>
        <time>2000-01-01T14:42:38.000Z</time>
      </trkpt>
      <trkpt lat="45.74206" lon="6.25533">
        <ele>680</ele>
        <time>2000-01-01T14:42:48.000Z</time>
      </trkpt>
      <trkpt lat="45.74223" lon="6.25557">
        <ele>674</ele>
        <time>2000-01-01T14:42:58.000Z</time>
      </trkpt>
      <trkpt lat="45.74241" lon="6.25583">
        <ele>668</ele>
        <time>2000-01-01T14:43:08.000Z</time>
      </trkpt>
      <trkpt lat="45.74265" lon="6.25609">
        <ele>664</ele>
        <time>2000-01-01T14:43:18.000Z</time>
      </trkpt>
      <trkpt lat="45.74285" lon="6.25631">
        <ele>659</ele>
        <time>2000-01-01T14:43:28.000Z</time>
      </trkpt>
      <trkpt lat="45.74309" lon="6.25658">
        <ele>651</ele>
        <time>2000-01-01T14:43:38.000Z</time>
      </trkpt>
      <trkpt lat="45.74331" lon="6.25686">
        <ele>646</ele>
        <time>2000-01-01T14:43:48.000Z</time>
      </trkpt>
      <trkpt lat="45.74349" lon="6.25709">
        <ele>641</ele>
        <time>2000-01-01T14:43:58.000Z</time>
      </trkpt>
      <trkpt lat="45.74369" lon="6.25734">
        <ele>630</ele>
        <time>2000-01-01T14:44:08.000Z</time>
      </trkpt>
      <trkpt lat="45.74403" lon="6.25747">
        <ele>624</ele>
        <time>2000-01-01T14:44:18.000Z</time>
      </trkpt>
      <trkpt lat="45.74437" lon="6.2576">
        <ele>618</ele>
        <time>2000-01-01T14:44:28.000Z</time>
      </trkpt>
      <trkpt lat="45.74471" lon="6.25773">
        <ele>607</ele>
        <time>2000-01-01T14:44:38.000Z</time>
      </trkpt>
      <trkpt lat="45.74505" lon="6.25787">
        <ele>599</ele>
        <time>2000-01-01T14:44:48.000Z</time>
      </trkpt>
      <trkpt lat="45.74532" lon="6.25793">
        <ele>593</ele>
        <time>2000-01-01T14:44:58.000Z</time>
      </trkpt>
      <trkpt lat="45.74569" lon="6.25802">
        <ele>586</ele>
        <time>2000-01-01T14:45:08.000Z</time>
      </trkpt>
      <trkpt lat="45.74596" lon="6.25817">
        <ele>578</ele>
        <time>2000-01-01T14:45:18.000Z</time>
      </trkpt>
      <trkpt lat="45.74619" lon="6.25829">
        <ele>569</ele>
        <time>2000-01-01T14:45:28.000Z</time>
      </trkpt>
      <trkpt lat="45.74643" lon="6.25842">
        <ele>561</ele>
        <time>2000-01-01T14:45:38.000Z</time>
      </trkpt>
      <trkpt lat="45.74683" lon="6.25866">
        <ele>554</ele>
        <time>2000-01-01T14:45:48.000Z</time>
      </trkpt>
      <trkpt lat="45.74683" lon="6.25866">
        <ele>553.1</ele>
        <time>2000-01-01T14:45:58.000Z</time>
      </trkpt>
      <trkpt lat="45.74715" lon="6.2588">
        <ele>550</ele>
        <time>2000-01-01T14:46:08.000Z</time>
      </trkpt>
      <trkpt lat="45.74739" lon="6.25885">
        <ele>547</ele>
        <time>2000-01-01T14:46:18.000Z</time>
      </trkpt>
      <trkpt lat="45.74757" lon="6.25886">
        <ele>543.2</ele>
        <time>2000-01-01T14:46:28.000Z</time>
      </trkpt>
      <trkpt lat="45.74778" lon="6.2588">
        <ele>543</ele>
        <time>2000-01-01T14:46:38.000Z</time>
      </trkpt>
      <trkpt lat="45.74778" lon="6.25879">
        <ele>541</ele>
        <time>2000-01-01T14:46:48.000Z</time>
      </trkpt>
      <trkpt lat="45.74828" lon="6.2588">
        <ele>537</ele>
        <time>2000-01-01T14:46:58.000Z</time>
      </trkpt>
      <trkpt lat="45.74854" lon="6.25883">
        <ele>534</ele>
        <time>2000-01-01T14:47:08.000Z</time>
      </trkpt>
      <trkpt lat="45.74868" lon="6.25878">
        <ele>532.7</ele>
        <time>2000-01-01T14:47:18.000Z</time>
      </trkpt>
      <trkpt lat="45.74901" lon="6.25844">
        <ele>528</ele>
        <time>2000-01-01T14:47:28.000Z</time>
      </trkpt>
      <trkpt lat="45.74908" lon="6.25834">
        <ele>527.3</ele>
        <time>2000-01-01T14:47:38.000Z</time>
      </trkpt>
      <trkpt lat="45.74908" lon="6.25835">
        <ele>527.3</ele>
        <time>2000-01-01T14:47:48.000Z</time>
      </trkpt>
      <trkpt lat="45.74911" lon="6.25832">
        <ele>526.8</ele>
        <time>2000-01-01T14:47:58.000Z</time>
      </trkpt>
      <trkpt lat="45.74919" lon="6.25817">
        <ele>527</ele>
        <time>2000-01-01T14:48:08.000Z</time>
      </trkpt>
      <trkpt lat="45.74929" lon="6.258">
        <ele>524.5</ele>
        <time>2000-01-01T14:48:18.000Z</time>
      </trkpt>
      <trkpt lat="45.74938" lon="6.25789">
        <ele>524</ele>
        <time>2000-01-01T14:48:28.000Z</time>
      </trkpt>
      <trkpt lat="45.74943" lon="6.25785">
        <ele>522.4</ele>
        <time>2000-01-01T14:48:38.000Z</time>
      </trkpt>
      <trkpt lat="45.74949" lon="6.25779">
        <ele>521.6</ele>
        <time>2000-01-01T14:48:48.000Z</time>
      </trkpt>
      <trkpt lat="45.74959" lon="6.25774">
        <ele>521</ele>
        <time>2000-01-01T14:48:58.000Z</time>
      </trkpt>
      <trkpt lat="45.74966" lon="6.25771">
        <ele>519.4</ele>
        <time>2000-01-01T14:49:08.000Z</time>
      </trkpt>
      <trkpt lat="45.74975" lon="6.25769">
        <ele>518.4</ele>
        <time>2000-01-01T14:49:18.000Z</time>
      </trkpt>
      <trkpt lat="45.75" lon="6.25766">
        <ele>517</ele>
        <time>2000-01-01T14:49:28.000Z</time>
      </trkpt>
      <trkpt lat="45.75017" lon="6.25764">
        <ele>514.5</ele>
        <time>2000-01-01T14:49:38.000Z</time>
      </trkpt>
      <trkpt lat="45.75031" lon="6.25762">
        <ele>513</ele>
        <time>2000-01-01T14:49:48.000Z</time>
      </trkpt>
      <trkpt lat="45.75043" lon="6.25761">
        <ele>512.3</ele>
        <time>2000-01-01T14:49:58.000Z</time>
      </trkpt>
      <trkpt lat="45.75051" lon="6.25759">
        <ele>511</ele>
        <time>2000-01-01T14:50:08.000Z</time>
      </trkpt>
      <trkpt lat="45.75071" lon="6.25751">
        <ele>510</ele>
        <time>2000-01-01T14:50:18.000Z</time>
      </trkpt>
      <trkpt lat="45.75074" lon="6.2575">
        <ele>509</ele>
        <time>2000-01-01T14:50:28.000Z</time>
      </trkpt>
      <trkpt lat="45.7508" lon="6.25747">
        <ele>508.3</ele>
        <time>2000-01-01T14:50:38.000Z</time>
      </trkpt>
      <trkpt lat="45.75085" lon="6.25744">
        <ele>507.9</ele>
        <time>2000-01-01T14:50:48.000Z</time>
      </trkpt>
      <trkpt lat="45.75085" lon="6.25743">
        <ele>507.9</ele>
        <time>2000-01-01T14:50:58.000Z</time>
      </trkpt>
      <trkpt lat="45.75085" lon="6.25743">
        <ele>507.9</ele>
        <time>2000-01-01T14:51:08.000Z</time>
      </trkpt>
      <trkpt lat="45.75085" lon="6.25744">
        <ele>507.9</ele>
        <time>2000-01-01T14:51:18.000Z</time>
      </trkpt>
      <trkpt lat="45.75085" lon="6.25744">
        <ele>507.9</ele>
        <time>2000-01-01T14:51:28.000Z</time>
      </trkpt>
      <trkpt lat="45.75089" lon="6.25743">
        <ele>509</ele>
        <time>2000-01-01T14:51:38.000Z</time>
      </trkpt>
      <trkpt lat="45.75089" lon="6.25738">
        <ele>507.5</ele>
        <time>2000-01-01T14:51:48.000Z</time>
      </trkpt>
      <trkpt lat="45.7509" lon="6.25734">
        <ele>507.4</ele>
        <time>2000-01-01T14:51:58.000Z</time>
      </trkpt>
      <trkpt lat="45.75096" lon="6.25715">
        <ele>506</ele>
        <time>2000-01-01T14:52:08.000Z</time>
      </trkpt>
      <trkpt lat="45.75098" lon="6.2571">
        <ele>505.8</ele>
        <time>2000-01-01T14:52:18.000Z</time>
      </trkpt>
      <trkpt lat="45.75102" lon="6.25698">
        <ele>504.8</ele>
        <time>2000-01-01T14:52:28.000Z</time>
      </trkpt>
      <trkpt lat="45.75103" lon="6.25688">
        <ele>504</ele>
        <time>2000-01-01T14:52:38.000Z</time>
      </trkpt>
      <trkpt lat="45.75105" lon="6.25682">
        <ele>504.1</ele>
        <time>2000-01-01T14:52:48.000Z</time>
      </trkpt>
      <trkpt lat="45.75104" lon="6.25679">
        <ele>504.1</ele>
        <time>2000-01-01T14:52:58.000Z</time>
      </trkpt>
      <trkpt lat="45.75104" lon="6.25675">
        <ele>504</ele>
        <time>2000-01-01T14:53:08.000Z</time>
      </trkpt>
      <trkpt lat="45.75104" lon="6.25673">
        <ele>503.9</ele>
        <time>2000-01-01T14:53:18.000Z</time>
      </trkpt>
      <trkpt lat="45.75105" lon="6.25673">
        <ele>503.8</ele>
        <time>2000-01-01T14:53:28.000Z</time>
      </trkpt>
      <trkpt lat="45.75105" lon="6.2567">
        <ele>503.8</ele>
        <time>2000-01-01T14:53:38.000Z</time>
      </trkpt>
      <trkpt lat="45.75106" lon="6.25668">
        <ele>503.6</ele>
        <time>2000-01-01T14:53:48.000Z</time>
      </trkpt>
      <trkpt lat="45.75107" lon="6.25662">
        <ele>503</ele>
        <time>2000-01-01T14:53:58.000Z</time>
      </trkpt>
      <trkpt lat="45.75107" lon="6.25654">
        <ele>502.9</ele>
        <time>2000-01-01T14:54:08.000Z</time>
      </trkpt>
      <trkpt lat="45.75107" lon="6.2565">
        <ele>502.7</ele>
        <time>2000-01-01T14:54:18.000Z</time>
      </trkpt>
      <trkpt lat="45.75106" lon="6.25647">
        <ele>502.6</ele>
        <time>2000-01-01T14:54:28.000Z</time>
      </trkpt>
      <trkpt lat="45.75107" lon="6.25639">
        <ele>502.2</ele>
        <time>2000-01-01T14:54:38.000Z</time>
      </trkpt>
      <trkpt lat="45.75111" lon="6.25624">
        <ele>501</ele>
        <time>2000-01-01T14:54:48.000Z</time>
      </trkpt>
      <trkpt lat="45.75114" lon="6.2562">
        <ele>501.8</ele>
        <time>2000-01-01T14:54:58.000Z</time>
      </trkpt>
      <trkpt lat="45.7512" lon="6.25623">
        <ele>501.3</ele>
        <time>2000-01-01T14:55:08.000Z</time>
      </trkpt>
      <trkpt lat="45.75125" lon="6.25628">
        <ele>501.1</ele>
        <time>2000-01-01T14:55:18.000Z</time>
      </trkpt>
      <trkpt lat="45.75129" lon="6.2563">
        <ele>501</ele>
        <time>2000-01-01T14:55:28.000Z</time>
      </trkpt>
      <trkpt lat="45.75134" lon="6.25631">
        <ele>500.7</ele>
        <time>2000-01-01T14:55:38.000Z</time>
      </trkpt>
      <trkpt lat="45.75143" lon="6.25633">
        <ele>500.2</ele>
        <time>2000-01-01T14:55:48.000Z</time>
      </trkpt>
      <trkpt lat="45.75156" lon="6.25634">
        <ele>499</ele>
        <time>2000-01-01T14:55:58.000Z</time>
      </trkpt>
      <trkpt lat="45.75171" lon="6.25637">
        <ele>497.6</ele>
        <time>2000-01-01T14:56:08.000Z</time>
      </trkpt>
      <trkpt lat="45.7518" lon="6.25641">
        <ele>498</ele>
        <time>2000-01-01T14:56:18.000Z</time>
      </trkpt>
      <trkpt lat="45.75189" lon="6.25648">
        <ele>496.8</ele>
        <time>2000-01-01T14:56:28.000Z</time>
      </trkpt>
      <trkpt lat="45.75226" lon="6.25679">
        <ele>494</ele>
        <time>2000-01-01T14:56:38.000Z</time>
      </trkpt>
      <trkpt lat="45.75237" lon="6.25684">
        <ele>492.7</ele>
        <time>2000-01-01T14:56:48.000Z</time>
      </trkpt>
      <trkpt lat="45.75249" lon="6.25685">
        <ele>492</ele>
        <time>2000-01-01T14:56:58.000Z</time>
      </trkpt>
      <trkpt lat="45.75261" lon="6.25681">
        <ele>490.7</ele>
        <time>2000-01-01T14:57:08.000Z</time>
      </trkpt>
      <trkpt lat="45.75264" lon="6.25667">
        <ele>490</ele>
        <time>2000-01-01T14:57:18.000Z</time>
      </trkpt>
      <trkpt lat="45.75264" lon="6.25646">
        <ele>490</ele>
        <time>2000-01-01T14:57:28.000Z</time>
      </trkpt>
      <trkpt lat="45.75265" lon="6.25627">
        <ele>490</ele>
        <time>2000-01-01T14:57:38.000Z</time>
      </trkpt>
      <trkpt lat="45.75267" lon="6.25618">
        <ele>490.2</ele>
        <time>2000-01-01T14:57:48.000Z</time>
      </trkpt>
      <trkpt lat="45.75268" lon="6.25603">
        <ele>490.2</ele>
        <time>2000-01-01T14:57:58.000Z</time>
      </trkpt>
      <trkpt lat="45.75267" lon="6.25588">
        <ele>489</ele>
        <time>2000-01-01T14:58:08.000Z</time>
      </trkpt>
      <trkpt lat="45.75268" lon="6.25583">
        <ele>489.7</ele>
        <time>2000-01-01T14:58:18.000Z</time>
      </trkpt>
      <trkpt lat="45.75268" lon="6.25545">
        <ele>488</ele>
        <time>2000-01-01T14:58:28.000Z</time>
      </trkpt>
      <trkpt lat="45.75267" lon="6.25525">
        <ele>487.7</ele>
        <time>2000-01-01T14:58:38.000Z</time>
      </trkpt>
      <trkpt lat="45.75266" lon="6.25498">
        <ele>487</ele>
        <time>2000-01-01T14:58:48.000Z</time>
      </trkpt>
      <trkpt lat="45.75262" lon="6.25469">
        <ele>485</ele>
        <time>2000-01-01T14:58:58.000Z</time>
      </trkpt>
      <trkpt lat="45.75261" lon="6.25455">
        <ele>486</ele>
        <time>2000-01-01T14:59:08.000Z</time>
      </trkpt>
      <trkpt lat="45.75262" lon="6.25439">
        <ele>484</ele>
        <time>2000-01-01T14:59:18.000Z</time>
      </trkpt>
      <trkpt lat="45.7527" lon="6.25376">
        <ele>481</ele>
        <time>2000-01-01T14:59:28.000Z</time>
      </trkpt>
      <trkpt lat="45.75274" lon="6.25356">
        <ele>481.1</ele>
        <time>2000-01-01T14:59:38.000Z</time>
      </trkpt>
      <trkpt lat="45.75277" lon="6.25337">
        <ele>480</ele>
        <time>2000-01-01T14:59:48.000Z</time>
      </trkpt>
      <trkpt lat="45.75277" lon="6.25332">
        <ele>481</ele>
        <time>2000-01-01T14:59:58.000Z</time>
      </trkpt>
      <trkpt lat="45.75278" lon="6.25323">
        <ele>480.6</ele>
        <time>2000-01-01T15:00:08.000Z</time>
      </trkpt>
      <trkpt lat="45.75281" lon="6.25306">
        <ele>479</ele>
        <time>2000-01-01T15:00:18.000Z</time>
      </trkpt>
      <trkpt lat="45.75281" lon="6.25289">
        <ele>479.1</ele>
        <time>2000-01-01T15:00:28.000Z</time>
      </trkpt>
      <trkpt lat="45.75295" lon="6.25253">
        <ele>478</ele>
        <time>2000-01-01T15:00:38.000Z</time>
      </trkpt>
      <trkpt lat="45.753" lon="6.2524">
        <ele>477.3</ele>
        <time>2000-01-01T15:00:48.000Z</time>
      </trkpt>
      <trkpt lat="45.75307" lon="6.25228">
        <ele>477</ele>
        <time>2000-01-01T15:00:58.000Z</time>
      </trkpt>
      <trkpt lat="45.75312" lon="6.25214">
        <ele>476.8</ele>
        <time>2000-01-01T15:01:08.000Z</time>
      </trkpt>
      <trkpt lat="45.75322" lon="6.25178">
        <ele>477</ele>
        <time>2000-01-01T15:01:18.000Z</time>
      </trkpt>
      <trkpt lat="45.75325" lon="6.25163">
        <ele>476.6</ele>
        <time>2000-01-01T15:01:28.000Z</time>
      </trkpt>
      <trkpt lat="45.75328" lon="6.25148">
        <ele>477</ele>
        <time>2000-01-01T15:01:38.000Z</time>
      </trkpt>
      <trkpt lat="45.75345" lon="6.25106">
        <ele>477</ele>
        <time>2000-01-01T15:01:48.000Z</time>
      </trkpt>
      <trkpt lat="45.7535" lon="6.25088">
        <ele>476.9</ele>
        <time>2000-01-01T15:01:58.000Z</time>
      </trkpt>
      <trkpt lat="45.75356" lon="6.25071">
        <ele>477</ele>
        <time>2000-01-01T15:02:08.000Z</time>
      </trkpt>
      <trkpt lat="45.75365" lon="6.25043">
        <ele>477</ele>
        <time>2000-01-01T15:02:18.000Z</time>
      </trkpt>
      <trkpt lat="45.75376" lon="6.25017">
        <ele>478</ele>
        <time>2000-01-01T15:02:28.000Z</time>
      </trkpt>
      <trkpt lat="45.75379" lon="6.25005">
        <ele>476.9</ele>
        <time>2000-01-01T15:02:38.000Z</time>
      </trkpt>
      <trkpt lat="45.75386" lon="6.24987">
        <ele>478</ele>
        <time>2000-01-01T15:02:48.000Z</time>
      </trkpt>
      <trkpt lat="45.75389" lon="6.24979">
        <ele>476.7</ele>
        <time>2000-01-01T15:02:58.000Z</time>
      </trkpt>
      <trkpt lat="45.75392" lon="6.24971">
        <ele>476.8</ele>
        <time>2000-01-01T15:03:08.000Z</time>
      </trkpt>
      <trkpt lat="45.75394" lon="6.24962">
        <ele>477</ele>
        <time>2000-01-01T15:03:18.000Z</time>
      </trkpt>
      <trkpt lat="45.75398" lon="6.2495">
        <ele>477.1</ele>
        <time>2000-01-01T15:03:28.000Z</time>
      </trkpt>
      <trkpt lat="45.75403" lon="6.24938">
        <ele>477</ele>
        <time>2000-01-01T15:03:38.000Z</time>
      </trkpt>
      <trkpt lat="45.75412" lon="6.24907">
        <ele>478</ele>
        <time>2000-01-01T15:03:48.000Z</time>
      </trkpt>
      <trkpt lat="45.75425" lon="6.2487">
        <ele>479</ele>
        <time>2000-01-01T15:03:58.000Z</time>
      </trkpt>
      <trkpt lat="45.75437" lon="6.24832">
        <ele>479</ele>
        <time>2000-01-01T15:04:08.000Z</time>
      </trkpt>
      <trkpt lat="45.7544" lon="6.24818">
        <ele>479</ele>
        <time>2000-01-01T15:04:18.000Z</time>
      </trkpt>
      <trkpt lat="45.75443" lon="6.24812">
        <ele>478.9</ele>
        <time>2000-01-01T15:04:28.000Z</time>
      </trkpt>
      <trkpt lat="45.75445" lon="6.24809">
        <ele>479</ele>
        <time>2000-01-01T15:04:38.000Z</time>
      </trkpt>
      <trkpt lat="45.75448" lon="6.24809">
        <ele>478.5</ele>
        <time>2000-01-01T15:04:48.000Z</time>
      </trkpt>
      <trkpt lat="45.75451" lon="6.2481">
        <ele>478.2</ele>
        <time>2000-01-01T15:04:58.000Z</time>
      </trkpt>
      <trkpt lat="45.75464" lon="6.24816">
        <ele>477</ele>
        <time>2000-01-01T15:05:08.000Z</time>
      </trkpt>
      <trkpt lat="45.75484" lon="6.24829">
        <ele>475</ele>
        <time>2000-01-01T15:05:18.000Z</time>
      </trkpt>
      <trkpt lat="45.75519" lon="6.24848">
        <ele>473</ele>
        <time>2000-01-01T15:05:28.000Z</time>
      </trkpt>
      <trkpt lat="45.75525" lon="6.24853">
        <ele>472.1</ele>
        <time>2000-01-01T15:05:38.000Z</time>
      </trkpt>
      <trkpt lat="45.75533" lon="6.24858">
        <ele>471.8</ele>
        <time>2000-01-01T15:05:48.000Z</time>
      </trkpt>
      <trkpt lat="45.75544" lon="6.24864">
        <ele>471</ele>
        <time>2000-01-01T15:05:58.000Z</time>
      </trkpt>
      <trkpt lat="45.75563" lon="6.2487">
        <ele>471</ele>
        <time>2000-01-01T15:06:08.000Z</time>
      </trkpt>
      <trkpt lat="45.75592" lon="6.24889">
        <ele>470</ele>
        <time>2000-01-01T15:06:18.000Z</time>
      </trkpt>
      <trkpt lat="45.75617" lon="6.24913">
        <ele>470</ele>
        <time>2000-01-01T15:06:28.000Z</time>
      </trkpt>
      <trkpt lat="45.75644" lon="6.24943">
        <ele>470</ele>
        <time>2000-01-01T15:06:38.000Z</time>
      </trkpt>
      <trkpt lat="45.75659" lon="6.24965">
        <ele>470</ele>
        <time>2000-01-01T15:06:48.000Z</time>
      </trkpt>
      <trkpt lat="45.75672" lon="6.24987">
        <ele>470</ele>
        <time>2000-01-01T15:06:58.000Z</time>
      </trkpt>
      <trkpt lat="45.75678" lon="6.24998">
        <ele>470</ele>
        <time>2000-01-01T15:07:08.000Z</time>
      </trkpt>
      <trkpt lat="45.75686" lon="6.25031">
        <ele>470</ele>
        <time>2000-01-01T15:07:18.000Z</time>
      </trkpt>
      <trkpt lat="45.75703" lon="6.25073">
        <ele>470</ele>
        <time>2000-01-01T15:07:28.000Z</time>
      </trkpt>
      <trkpt lat="45.75718" lon="6.25097">
        <ele>470</ele>
        <time>2000-01-01T15:07:38.000Z</time>
      </trkpt>
      <trkpt lat="45.75725" lon="6.25109">
        <ele>470.9</ele>
        <time>2000-01-01T15:07:48.000Z</time>
      </trkpt>
      <trkpt lat="45.75738" lon="6.25128">
        <ele>471</ele>
        <time>2000-01-01T15:07:58.000Z</time>
      </trkpt>
      <trkpt lat="45.75753" lon="6.25145">
        <ele>472</ele>
        <time>2000-01-01T15:08:08.000Z</time>
      </trkpt>
      <trkpt lat="45.75761" lon="6.25155">
        <ele>471.8</ele>
        <time>2000-01-01T15:08:18.000Z</time>
      </trkpt>
      <trkpt lat="45.75769" lon="6.25162">
        <ele>472</ele>
        <time>2000-01-01T15:08:28.000Z</time>
      </trkpt>
      <trkpt lat="45.75776" lon="6.25167">
        <ele>472</ele>
        <time>2000-01-01T15:08:38.000Z</time>
      </trkpt>
      <trkpt lat="45.75799" lon="6.25178">
        <ele>472</ele>
        <time>2000-01-01T15:08:48.000Z</time>
      </trkpt>
      <trkpt lat="45.75801" lon="6.25177">
        <ele>471.5</ele>
        <time>2000-01-01T15:08:58.000Z</time>
      </trkpt>
      <trkpt lat="45.7582" lon="6.25189">
        <ele>471</ele>
        <time>2000-01-01T15:09:08.000Z</time>
      </trkpt>
      <trkpt lat="45.75845" lon="6.2521">
        <ele>471</ele>
        <time>2000-01-01T15:09:18.000Z</time>
      </trkpt>
      <trkpt lat="45.75869" lon="6.25244">
        <ele>472</ele>
        <time>2000-01-01T15:09:28.000Z</time>
      </trkpt>
      <trkpt lat="45.75898" lon="6.25266">
        <ele>472</ele>
        <time>2000-01-01T15:09:38.000Z</time>
      </trkpt>
      <trkpt lat="45.75922" lon="6.25272">
        <ele>472</ele>
        <time>2000-01-01T15:09:48.000Z</time>
      </trkpt>
      <trkpt lat="45.75943" lon="6.25296">
        <ele>472</ele>
        <time>2000-01-01T15:09:58.000Z</time>
      </trkpt>
      <trkpt lat="45.75973" lon="6.25316">
        <ele>472</ele>
        <time>2000-01-01T15:10:08.000Z</time>
      </trkpt>
      <trkpt lat="45.75996" lon="6.25345">
        <ele>473</ele>
        <time>2000-01-01T15:10:18.000Z</time>
      </trkpt>
      <trkpt lat="45.76038" lon="6.25359">
        <ele>473</ele>
        <time>2000-01-01T15:10:28.000Z</time>
      </trkpt>
      <trkpt lat="45.76073" lon="6.25392">
        <ele>474</ele>
        <time>2000-01-01T15:10:38.000Z</time>
      </trkpt>
      <trkpt lat="45.76098" lon="6.25416">
        <ele>474</ele>
        <time>2000-01-01T15:10:48.000Z</time>
      </trkpt>
      <trkpt lat="45.7614" lon="6.25445">
        <ele>476</ele>
        <time>2000-01-01T15:10:58.000Z</time>
      </trkpt>
      <trkpt lat="45.7616" lon="6.25468">
        <ele>477</ele>
        <time>2000-01-01T15:11:08.000Z</time>
      </trkpt>
      <trkpt lat="45.76184" lon="6.25496">
        <ele>478</ele>
        <time>2000-01-01T15:11:18.000Z</time>
      </trkpt>
      <trkpt lat="45.76219" lon="6.25508">
        <ele>478</ele>
        <time>2000-01-01T15:11:28.000Z</time>
      </trkpt>
      <trkpt lat="45.76245" lon="6.25533">
        <ele>479</ele>
        <time>2000-01-01T15:11:38.000Z</time>
      </trkpt>
      <trkpt lat="45.76239" lon="6.2554">
        <ele>479.6</ele>
        <time>2000-01-01T15:11:48.000Z</time>
      </trkpt>
      <trkpt lat="45.76235" lon="6.25543">
        <ele>479.5</ele>
        <time>2000-01-01T15:11:58.000Z</time>
      </trkpt>
      <trkpt lat="45.76225" lon="6.25549">
        <ele>479</ele>
        <time>2000-01-01T15:12:08.000Z</time>
      </trkpt>
      <trkpt lat="45.76223" lon="6.25551">
        <ele>479</ele>
        <time>2000-01-01T15:12:18.000Z</time>
      </trkpt>
      <trkpt lat="45.76219" lon="6.2556">
        <ele>478.9</ele>
        <time>2000-01-01T15:12:28.000Z</time>
      </trkpt>
      <trkpt lat="45.76219" lon="6.25574">
        <ele>478</ele>
        <time>2000-01-01T15:12:38.000Z</time>
      </trkpt>
      <trkpt lat="45.76231" lon="6.25596">
        <ele>477</ele>
        <time>2000-01-01T15:12:48.000Z</time>
      </trkpt>
      <trkpt lat="45.76239" lon="6.25607">
        <ele>479.7</ele>
        <time>2000-01-01T15:12:58.000Z</time>
      </trkpt>
      <trkpt lat="45.76244" lon="6.25618">
        <ele>477</ele>
        <time>2000-01-01T15:13:08.000Z</time>
      </trkpt>
      <trkpt lat="45.7625" lon="6.25633">
        <ele>478.4</ele>
        <time>2000-01-01T15:13:18.000Z</time>
      </trkpt>
      <trkpt lat="45.76265" lon="6.25656">
        <ele>477</ele>
        <time>2000-01-01T15:13:28.000Z</time>
      </trkpt>
      <trkpt lat="45.76271" lon="6.25668">
        <ele>480.7</ele>
        <time>2000-01-01T15:13:38.000Z</time>
      </trkpt>
      <trkpt lat="45.76274" lon="6.25682">
        <ele>479</ele>
        <time>2000-01-01T15:13:48.000Z</time>
      </trkpt>
      <trkpt lat="45.76275" lon="6.25696">
        <ele>480.8</ele>
        <time>2000-01-01T15:13:58.000Z</time>
      </trkpt>
      <trkpt lat="45.76274" lon="6.25729">
        <ele>480</ele>
        <time>2000-01-01T15:14:08.000Z</time>
      </trkpt>
      <trkpt lat="45.76269" lon="6.25753">
        <ele>481.3</ele>
        <time>2000-01-01T15:14:18.000Z</time>
      </trkpt>
      <trkpt lat="45.76269" lon="6.25765">
        <ele>480</ele>
        <time>2000-01-01T15:14:28.000Z</time>
      </trkpt>
      <trkpt lat="45.76271" lon="6.25778">
        <ele>481</ele>
        <time>2000-01-01T15:14:38.000Z</time>
      </trkpt>
      <trkpt lat="45.76271" lon="6.25784">
        <ele>481</ele>
        <time>2000-01-01T15:14:48.000Z</time>
      </trkpt>
      <trkpt lat="45.76272" lon="6.25804">
        <ele>480</ele>
        <time>2000-01-01T15:14:58.000Z</time>
      </trkpt>
      <trkpt lat="45.76275" lon="6.25847">
        <ele>481</ele>
        <time>2000-01-01T15:15:08.000Z</time>
      </trkpt>
      <trkpt lat="45.76273" lon="6.25861">
        <ele>481</ele>
        <time>2000-01-01T15:15:18.000Z</time>
      </trkpt>
      <trkpt lat="45.76273" lon="6.25878">
        <ele>481</ele>
        <time>2000-01-01T15:15:28.000Z</time>
      </trkpt>
      <trkpt lat="45.76274" lon="6.25895">
        <ele>481.2</ele>
        <time>2000-01-01T15:15:38.000Z</time>
      </trkpt>
      <trkpt lat="45.76275" lon="6.25927">
        <ele>481</ele>
        <time>2000-01-01T15:15:48.000Z</time>
      </trkpt>
      <trkpt lat="45.76277" lon="6.2594">
        <ele>482</ele>
        <time>2000-01-01T15:15:58.000Z</time>
      </trkpt>
      <trkpt lat="45.76279" lon="6.25977">
        <ele>481</ele>
        <time>2000-01-01T15:16:08.000Z</time>
      </trkpt>
      <trkpt lat="45.76279" lon="6.2599">
        <ele>482</ele>
        <time>2000-01-01T15:16:18.000Z</time>
      </trkpt>
      <trkpt lat="45.76278" lon="6.26022">
        <ele>481</ele>
        <time>2000-01-01T15:16:28.000Z</time>
      </trkpt>
      <trkpt lat="45.76275" lon="6.26075">
        <ele>481</ele>
        <time>2000-01-01T15:16:38.000Z</time>
      </trkpt>
      <trkpt lat="45.76274" lon="6.261">
        <ele>481.9</ele>
        <time>2000-01-01T15:16:48.000Z</time>
      </trkpt>
      <trkpt lat="45.76274" lon="6.26108">
        <ele>481</ele>
        <time>2000-01-01T15:16:58.000Z</time>
      </trkpt>
      <trkpt lat="45.76272" lon="6.26121">
        <ele>481.8</ele>
        <time>2000-01-01T15:17:08.000Z</time>
      </trkpt>
      <trkpt lat="45.76273" lon="6.26137">
        <ele>481</ele>
        <time>2000-01-01T15:17:18.000Z</time>
      </trkpt>
      <trkpt lat="45.76271" lon="6.26144">
        <ele>481.7</ele>
        <time>2000-01-01T15:17:28.000Z</time>
      </trkpt>
      <trkpt lat="45.76271" lon="6.26151">
        <ele>481.6</ele>
        <time>2000-01-01T15:17:38.000Z</time>
      </trkpt>
      <trkpt lat="45.76296" lon="6.26169">
        <ele>482</ele>
        <time>2000-01-01T15:17:48.000Z</time>
      </trkpt>
      <trkpt lat="45.76306" lon="6.26174">
        <ele>482</ele>
        <time>2000-01-01T15:17:58.000Z</time>
      </trkpt>
      <trkpt lat="45.76316" lon="6.26181">
        <ele>482</ele>
        <time>2000-01-01T15:18:08.000Z</time>
      </trkpt>
      <trkpt lat="45.76336" lon="6.26191">
        <ele>483</ele>
        <time>2000-01-01T15:18:18.000Z</time>
      </trkpt>
      <trkpt lat="45.76346" lon="6.26199">
        <ele>483.5</ele>
        <time>2000-01-01T15:18:28.000Z</time>
      </trkpt>
      <trkpt lat="45.76367" lon="6.26211">
        <ele>484</ele>
        <time>2000-01-01T15:18:38.000Z</time>
      </trkpt>
      <trkpt lat="45.76382" lon="6.26222">
        <ele>484.8</ele>
        <time>2000-01-01T15:18:48.000Z</time>
      </trkpt>
      <trkpt lat="45.7642" lon="6.26247">
        <ele>485</ele>
        <time>2000-01-01T15:18:58.000Z</time>
      </trkpt>
      <trkpt lat="45.76441" lon="6.26263">
        <ele>485</ele>
        <time>2000-01-01T15:19:08.000Z</time>
      </trkpt>
      <trkpt lat="45.76454" lon="6.26271">
        <ele>486.3</ele>
        <time>2000-01-01T15:19:18.000Z</time>
      </trkpt>
      <trkpt lat="45.76472" lon="6.26285">
        <ele>486</ele>
        <time>2000-01-01T15:19:28.000Z</time>
      </trkpt>
      <trkpt lat="45.765" lon="6.26305">
        <ele>487</ele>
        <time>2000-01-01T15:19:38.000Z</time>
      </trkpt>
      <trkpt lat="45.76513" lon="6.26313">
        <ele>487.5</ele>
        <time>2000-01-01T15:19:48.000Z</time>
      </trkpt>
      <trkpt lat="45.76529" lon="6.26318">
        <ele>488</ele>
        <time>2000-01-01T15:19:58.000Z</time>
      </trkpt>
      <trkpt lat="45.76546" lon="6.26321">
        <ele>488.7</ele>
        <time>2000-01-01T15:20:08.000Z</time>
      </trkpt>
      <trkpt lat="45.76556" lon="6.26322">
        <ele>488</ele>
        <time>2000-01-01T15:20:18.000Z</time>
      </trkpt>
      <trkpt lat="45.76569" lon="6.26321">
        <ele>490</ele>
        <time>2000-01-01T15:20:28.000Z</time>
      </trkpt>
      <trkpt lat="45.76574" lon="6.2632">
        <ele>490.3</ele>
        <time>2000-01-01T15:20:38.000Z</time>
      </trkpt>
      <trkpt lat="45.76578" lon="6.26317">
        <ele>489</ele>
        <time>2000-01-01T15:20:48.000Z</time>
      </trkpt>
      <trkpt lat="45.76583" lon="6.26313">
        <ele>491</ele>
        <time>2000-01-01T15:20:58.000Z</time>
      </trkpt>
      <trkpt lat="45.76595" lon="6.26304">
        <ele>490</ele>
        <time>2000-01-01T15:21:08.000Z</time>
      </trkpt>
      <trkpt lat="45.76597" lon="6.26303">
        <ele>491.4</ele>
        <time>2000-01-01T15:21:18.000Z</time>
      </trkpt>
      <trkpt lat="45.76603" lon="6.26303">
        <ele>491.7</ele>
        <time>2000-01-01T15:21:28.000Z</time>
      </trkpt>
      <trkpt lat="45.76609" lon="6.26297">
        <ele>491.9</ele>
        <time>2000-01-01T15:21:38.000Z</time>
      </trkpt>
      <trkpt lat="45.76618" lon="6.26292">
        <ele>491</ele>
        <time>2000-01-01T15:21:48.000Z</time>
      </trkpt>
      <trkpt lat="45.76627" lon="6.26288">
        <ele>492.6</ele>
        <time>2000-01-01T15:21:58.000Z</time>
      </trkpt>
      <trkpt lat="45.76638" lon="6.26281">
        <ele>492</ele>
        <time>2000-01-01T15:22:08.000Z</time>
      </trkpt>
      <trkpt lat="45.76641" lon="6.26278">
        <ele>493.1</ele>
        <time>2000-01-01T15:22:18.000Z</time>
      </trkpt>
      <trkpt lat="45.76647" lon="6.26272">
        <ele>493.1</ele>
        <time>2000-01-01T15:22:28.000Z</time>
      </trkpt>
      <trkpt lat="45.76659" lon="6.26255">
        <ele>492</ele>
        <time>2000-01-01T15:22:38.000Z</time>
      </trkpt>
      <trkpt lat="45.76666" lon="6.26247">
        <ele>493.8</ele>
        <time>2000-01-01T15:22:48.000Z</time>
      </trkpt>
      <trkpt lat="45.7668" lon="6.2622">
        <ele>494</ele>
        <time>2000-01-01T15:22:58.000Z</time>
      </trkpt>
      <trkpt lat="45.76689" lon="6.26204">
        <ele>494.5</ele>
        <time>2000-01-01T15:23:08.000Z</time>
      </trkpt>
      <trkpt lat="45.76697" lon="6.26191">
        <ele>494</ele>
        <time>2000-01-01T15:23:18.000Z</time>
      </trkpt>
      <trkpt lat="45.76703" lon="6.26183">
        <ele>495.3</ele>
        <time>2000-01-01T15:23:28.000Z</time>
      </trkpt>
      <trkpt lat="45.76708" lon="6.26179">
        <ele>495.5</ele>
        <time>2000-01-01T15:23:38.000Z</time>
      </trkpt>
      <trkpt lat="45.76718" lon="6.26166">
        <ele>495</ele>
        <time>2000-01-01T15:23:48.000Z</time>
      </trkpt>
      <trkpt lat="45.76724" lon="6.26154">
        <ele>496.1</ele>
        <time>2000-01-01T15:23:58.000Z</time>
      </trkpt>
      <trkpt lat="45.76733" lon="6.26145">
        <ele>496</ele>
        <time>2000-01-01T15:24:08.000Z</time>
      </trkpt>
      <trkpt lat="45.76738" lon="6.26132">
        <ele>497.2</ele>
        <time>2000-01-01T15:24:18.000Z</time>
      </trkpt>
      <trkpt lat="45.76748" lon="6.26119">
        <ele>497</ele>
        <time>2000-01-01T15:24:28.000Z</time>
      </trkpt>
      <trkpt lat="45.76755" lon="6.26108">
        <ele>498.2</ele>
        <time>2000-01-01T15:24:38.000Z</time>
      </trkpt>
      <trkpt lat="45.76769" lon="6.2609">
        <ele>498</ele>
        <time>2000-01-01T15:24:48.000Z</time>
      </trkpt>
      <trkpt lat="45.76784" lon="6.26071">
        <ele>499</ele>
        <time>2000-01-01T15:24:58.000Z</time>
      </trkpt>
      <trkpt lat="45.76789" lon="6.26059">
        <ele>499.8</ele>
        <time>2000-01-01T15:25:08.000Z</time>
      </trkpt>
      <trkpt lat="45.76796" lon="6.26049">
        <ele>499</ele>
        <time>2000-01-01T15:25:18.000Z</time>
      </trkpt>
      <trkpt lat="45.76802" lon="6.26035">
        <ele>500.1</ele>
        <time>2000-01-01T15:25:28.000Z</time>
      </trkpt>
      <trkpt lat="45.76809" lon="6.26026">
        <ele>499</ele>
        <time>2000-01-01T15:25:38.000Z</time>
      </trkpt>
      <trkpt lat="45.76818" lon="6.26013">
        <ele>498.3</ele>
        <time>2000-01-01T15:25:48.000Z</time>
      </trkpt>
      <trkpt lat="45.76821" lon="6.26011">
        <ele>498</ele>
        <time>2000-01-01T15:25:58.000Z</time>
      </trkpt>
      <trkpt lat="45.76824" lon="6.2601">
        <ele>497.9</ele>
        <time>2000-01-01T15:26:08.000Z</time>
      </trkpt>
      <trkpt lat="45.76838" lon="6.26013">
        <ele>500</ele>
        <time>2000-01-01T15:26:18.000Z</time>
      </trkpt>
      <trkpt lat="45.76854" lon="6.26024">
        <ele>502.2</ele>
        <time>2000-01-01T15:26:28.000Z</time>
      </trkpt>
      <trkpt lat="45.7686" lon="6.26027">
        <ele>501</ele>
        <time>2000-01-01T15:26:38.000Z</time>
      </trkpt>
      <trkpt lat="45.76871" lon="6.26036">
        <ele>504.5</ele>
        <time>2000-01-01T15:26:48.000Z</time>
      </trkpt>
      <trkpt lat="45.76882" lon="6.26042">
        <ele>506</ele>
        <time>2000-01-01T15:26:58.000Z</time>
      </trkpt>
      <trkpt lat="45.76906" lon="6.2606">
        <ele>510</ele>
        <time>2000-01-01T15:27:08.000Z</time>
      </trkpt>
      <trkpt lat="45.76908" lon="6.26061">
        <ele>512.5</ele>
        <time>2000-01-01T15:27:18.000Z</time>
      </trkpt>
      <trkpt lat="45.76914" lon="6.26071">
        <ele>515.2</ele>
        <time>2000-01-01T15:27:28.000Z</time>
      </trkpt>
      <trkpt lat="45.76919" lon="6.26083">
        <ele>517</ele>
        <time>2000-01-01T15:27:38.000Z</time>
      </trkpt>
      <trkpt lat="45.76925" lon="6.26093">
        <ele>519.6</ele>
        <time>2000-01-01T15:27:48.000Z</time>
      </trkpt>
      <trkpt lat="45.76934" lon="6.26102">
        <ele>519</ele>
        <time>2000-01-01T15:27:58.000Z</time>
      </trkpt>
      <trkpt lat="45.76946" lon="6.26107">
        <ele>523.3</ele>
        <time>2000-01-01T15:28:08.000Z</time>
      </trkpt>
      <trkpt lat="45.76967" lon="6.26105">
        <ele>523</ele>
        <time>2000-01-01T15:28:18.000Z</time>
      </trkpt>
      <trkpt lat="45.76977" lon="6.26103">
        <ele>528.6</ele>
        <time>2000-01-01T15:28:28.000Z</time>
      </trkpt>
      <trkpt lat="45.76987" lon="6.26105">
        <ele>527</ele>
        <time>2000-01-01T15:28:38.000Z</time>
      </trkpt>
      <trkpt lat="45.76997" lon="6.2611">
        <ele>533.3</ele>
        <time>2000-01-01T15:28:48.000Z</time>
      </trkpt>
      <trkpt lat="45.77007" lon="6.26113">
        <ele>533</ele>
        <time>2000-01-01T15:28:58.000Z</time>
      </trkpt>
      <trkpt lat="45.77018" lon="6.26106">
        <ele>539.7</ele>
        <time>2000-01-01T15:29:08.000Z</time>
      </trkpt>
      <trkpt lat="45.7702" lon="6.26106">
        <ele>540.6</ele>
        <time>2000-01-01T15:29:18.000Z</time>
      </trkpt>
      <trkpt lat="45.77022" lon="6.26106">
        <ele>541.4</ele>
        <time>2000-01-01T15:29:28.000Z</time>
      </trkpt>
      <trkpt lat="45.77028" lon="6.26108">
        <ele>535</ele>
        <time>2000-01-01T15:29:38.000Z</time>
      </trkpt>
      <trkpt lat="45.7703" lon="6.2611">
        <ele>546.5</ele>
        <time>2000-01-01T15:29:48.000Z</time>
      </trkpt>
      <trkpt lat="45.77042" lon="6.26111">
        <ele>548</ele>
        <time>2000-01-01T15:29:58.000Z</time>
      </trkpt>
      <trkpt lat="45.77052" lon="6.26107">
        <ele>541</ele>
        <time>2000-01-01T15:30:08.000Z</time>
      </trkpt>
      <trkpt lat="45.77071" lon="6.26108">
        <ele>546</ele>
        <time>2000-01-01T15:30:18.000Z</time>
      </trkpt>
      <trkpt lat="45.7708" lon="6.26103">
        <ele>556.7</ele>
        <time>2000-01-01T15:30:28.000Z</time>
      </trkpt>
      <trkpt lat="45.77094" lon="6.26084">
        <ele>553</ele>
        <time>2000-01-01T15:30:38.000Z</time>
      </trkpt>
      <trkpt lat="45.77102" lon="6.26092">
        <ele>560.6</ele>
        <time>2000-01-01T15:30:48.000Z</time>
      </trkpt>
      <trkpt lat="45.77098" lon="6.26104">
        <ele>566.2</ele>
        <time>2000-01-01T15:30:58.000Z</time>
      </trkpt>
      <trkpt lat="45.77093" lon="6.26117">
        <ele>559</ele>
        <time>2000-01-01T15:31:08.000Z</time>
      </trkpt>
      <trkpt lat="45.77086" lon="6.2613">
        <ele>577.4</ele>
        <time>2000-01-01T15:31:18.000Z</time>
      </trkpt>
      <trkpt lat="45.77079" lon="6.2614">
        <ele>566</ele>
        <time>2000-01-01T15:31:28.000Z</time>
      </trkpt>
      <trkpt lat="45.7707" lon="6.26143">
        <ele>581.7</ele>
        <time>2000-01-01T15:31:38.000Z</time>
      </trkpt>
      <trkpt lat="45.7706" lon="6.26143">
        <ele>575</ele>
        <time>2000-01-01T15:31:48.000Z</time>
      </trkpt>
      <trkpt lat="45.77032" lon="6.2615">
        <ele>577</ele>
        <time>2000-01-01T15:31:58.000Z</time>
      </trkpt>
      <trkpt lat="45.77023" lon="6.26158">
        <ele>579.2</ele>
        <time>2000-01-01T15:32:08.000Z</time>
      </trkpt>
      <trkpt lat="45.77016" lon="6.26171">
        <ele>582</ele>
        <time>2000-01-01T15:32:18.000Z</time>
      </trkpt>
      <trkpt lat="45.76991" lon="6.26197">
        <ele>584</ele>
        <time>2000-01-01T15:32:28.000Z</time>
      </trkpt>
      <trkpt lat="45.76982" lon="6.26206">
        <ele>593.1</ele>
        <time>2000-01-01T15:32:38.000Z</time>
      </trkpt>
      <trkpt lat="45.76963" lon="6.26221">
        <ele>592</ele>
        <time>2000-01-01T15:32:48.000Z</time>
      </trkpt>
      <trkpt lat="45.76948" lon="6.26237">
        <ele>594</ele>
        <time>2000-01-01T15:32:58.000Z</time>
      </trkpt>
      <trkpt lat="45.76939" lon="6.26244">
        <ele>598.2</ele>
        <time>2000-01-01T15:33:08.000Z</time>
      </trkpt>
      <trkpt lat="45.76932" lon="6.26257">
        <ele>597</ele>
        <time>2000-01-01T15:33:18.000Z</time>
      </trkpt>
      <trkpt lat="45.76942" lon="6.26255">
        <ele>604.4</ele>
        <time>2000-01-01T15:33:28.000Z</time>
      </trkpt>
      <trkpt lat="45.76951" lon="6.26251">
        <ele>597</ele>
        <time>2000-01-01T15:33:38.000Z</time>
      </trkpt>
      <trkpt lat="45.76958" lon="6.26243">
        <ele>605.9</ele>
        <time>2000-01-01T15:33:48.000Z</time>
      </trkpt>
      <trkpt lat="45.76969" lon="6.26238">
        <ele>598</ele>
        <time>2000-01-01T15:33:58.000Z</time>
      </trkpt>
      <trkpt lat="45.76988" lon="6.26236">
        <ele>606</ele>
        <time>2000-01-01T15:34:08.000Z</time>
      </trkpt>
      <trkpt lat="45.76997" lon="6.26232">
        <ele>613.5</ele>
        <time>2000-01-01T15:34:18.000Z</time>
      </trkpt>
      <trkpt lat="45.77006" lon="6.26231">
        <ele>614.9</ele>
        <time>2000-01-01T15:34:28.000Z</time>
      </trkpt>
      <trkpt lat="45.77027" lon="6.26231">
        <ele>610</ele>
        <time>2000-01-01T15:34:38.000Z</time>
      </trkpt>
      <trkpt lat="45.77047" lon="6.26227">
        <ele>614</ele>
        <time>2000-01-01T15:34:48.000Z</time>
      </trkpt>
      <trkpt lat="45.77065" lon="6.2622">
        <ele>617</ele>
        <time>2000-01-01T15:34:58.000Z</time>
      </trkpt>
      <trkpt lat="45.77083" lon="6.26208">
        <ele>621</ele>
        <time>2000-01-01T15:35:08.000Z</time>
      </trkpt>
      <trkpt lat="45.77092" lon="6.26207">
        <ele>628.1</ele>
        <time>2000-01-01T15:35:18.000Z</time>
      </trkpt>
      <trkpt lat="45.77112" lon="6.26208">
        <ele>629</ele>
        <time>2000-01-01T15:35:28.000Z</time>
      </trkpt>
      <trkpt lat="45.77122" lon="6.26205">
        <ele>635.5</ele>
        <time>2000-01-01T15:35:38.000Z</time>
      </trkpt>
      <trkpt lat="45.77131" lon="6.26197">
        <ele>630</ele>
        <time>2000-01-01T15:35:48.000Z</time>
      </trkpt>
      <trkpt lat="45.77139" lon="6.26192">
        <ele>635.9</ele>
        <time>2000-01-01T15:35:58.000Z</time>
      </trkpt>
      <trkpt lat="45.77149" lon="6.26187">
        <ele>631</ele>
        <time>2000-01-01T15:36:08.000Z</time>
      </trkpt>
      <trkpt lat="45.77159" lon="6.26186">
        <ele>639.6</ele>
        <time>2000-01-01T15:36:18.000Z</time>
      </trkpt>
      <trkpt lat="45.77179" lon="6.2618">
        <ele>639</ele>
        <time>2000-01-01T15:36:28.000Z</time>
      </trkpt>
      <trkpt lat="45.77189" lon="6.26178">
        <ele>644.6</ele>
        <time>2000-01-01T15:36:38.000Z</time>
      </trkpt>
      <trkpt lat="45.77198" lon="6.26174">
        <ele>641</ele>
        <time>2000-01-01T15:36:48.000Z</time>
      </trkpt>
      <trkpt lat="45.77208" lon="6.26174">
        <ele>647.2</ele>
        <time>2000-01-01T15:36:58.000Z</time>
      </trkpt>
      <trkpt lat="45.77217" lon="6.26171">
        <ele>645</ele>
        <time>2000-01-01T15:37:08.000Z</time>
      </trkpt>
      <trkpt lat="45.77237" lon="6.26172">
        <ele>649</ele>
        <time>2000-01-01T15:37:18.000Z</time>
      </trkpt>
      <trkpt lat="45.77248" lon="6.2617">
        <ele>652.6</ele>
        <time>2000-01-01T15:37:28.000Z</time>
      </trkpt>
      <trkpt lat="45.77268" lon="6.26173">
        <ele>653</ele>
        <time>2000-01-01T15:37:38.000Z</time>
      </trkpt>
      <trkpt lat="45.77278" lon="6.26171">
        <ele>657.4</ele>
        <time>2000-01-01T15:37:48.000Z</time>
      </trkpt>
      <trkpt lat="45.77287" lon="6.26172">
        <ele>655</ele>
        <time>2000-01-01T15:37:58.000Z</time>
      </trkpt>
      <trkpt lat="45.77307" lon="6.26168">
        <ele>657</ele>
        <time>2000-01-01T15:38:08.000Z</time>
      </trkpt>
      <trkpt lat="45.77317" lon="6.26169">
        <ele>663.6</ele>
        <time>2000-01-01T15:38:18.000Z</time>
      </trkpt>
      <trkpt lat="45.77337" lon="6.26174">
        <ele>666</ele>
        <time>2000-01-01T15:38:28.000Z</time>
      </trkpt>
      <trkpt lat="45.77346" lon="6.26176">
        <ele>672.3</ele>
        <time>2000-01-01T15:38:38.000Z</time>
      </trkpt>
      <trkpt lat="45.77355" lon="6.26171">
        <ele>671.2</ele>
        <time>2000-01-01T15:38:48.000Z</time>
      </trkpt>
      <trkpt lat="45.77365" lon="6.26168">
        <ele>666</ele>
        <time>2000-01-01T15:38:58.000Z</time>
      </trkpt>
      <trkpt lat="45.77375" lon="6.2617">
        <ele>671.9</ele>
        <time>2000-01-01T15:39:08.000Z</time>
      </trkpt>
      <trkpt lat="45.77394" lon="6.26178">
        <ele>672</ele>
        <time>2000-01-01T15:39:18.000Z</time>
      </trkpt>
      <trkpt lat="45.77403" lon="6.26179">
        <ele>677.1</ele>
        <time>2000-01-01T15:39:28.000Z</time>
      </trkpt>
      <trkpt lat="45.77413" lon="6.26183">
        <ele>676</ele>
        <time>2000-01-01T15:39:38.000Z</time>
      </trkpt>
      <trkpt lat="45.77423" lon="6.26189">
        <ele>681.7</ele>
        <time>2000-01-01T15:39:48.000Z</time>
      </trkpt>
      <trkpt lat="45.77431" lon="6.26194">
        <ele>679</ele>
        <time>2000-01-01T15:39:58.000Z</time>
      </trkpt>
      <trkpt lat="45.77439" lon="6.262">
        <ele>685.2</ele>
        <time>2000-01-01T15:40:08.000Z</time>
      </trkpt>
      <trkpt lat="45.77477" lon="6.26223">
        <ele>691</ele>
        <time>2000-01-01T15:40:18.000Z</time>
      </trkpt>
      <trkpt lat="45.77487" lon="6.26227">
        <ele>692</ele>
        <time>2000-01-01T15:40:28.000Z</time>
      </trkpt>
      <trkpt lat="45.77504" lon="6.26241">
        <ele>692</ele>
        <time>2000-01-01T15:40:38.000Z</time>
      </trkpt>
      <trkpt lat="45.77521" lon="6.26252">
        <ele>697.2</ele>
        <time>2000-01-01T15:40:48.000Z</time>
      </trkpt>
      <trkpt lat="45.77528" lon="6.26259">
        <ele>693</ele>
        <time>2000-01-01T15:40:58.000Z</time>
      </trkpt>
      <trkpt lat="45.77546" lon="6.26271">
        <ele>701</ele>
        <time>2000-01-01T15:41:08.000Z</time>
      </trkpt>
      <trkpt lat="45.77555" lon="6.26278">
        <ele>704.3</ele>
        <time>2000-01-01T15:41:18.000Z</time>
      </trkpt>
      <trkpt lat="45.7756" lon="6.26291">
        <ele>701</ele>
        <time>2000-01-01T15:41:28.000Z</time>
      </trkpt>
      <trkpt lat="45.77567" lon="6.26301">
        <ele>703.4</ele>
        <time>2000-01-01T15:41:38.000Z</time>
      </trkpt>
      <trkpt lat="45.77571" lon="6.26313">
        <ele>702</ele>
        <time>2000-01-01T15:41:48.000Z</time>
      </trkpt>
      <trkpt lat="45.77583" lon="6.2634">
        <ele>702</ele>
        <time>2000-01-01T15:41:58.000Z</time>
      </trkpt>
      <trkpt lat="45.77587" lon="6.26352">
        <ele>709.9</ele>
        <time>2000-01-01T15:42:08.000Z</time>
      </trkpt>
      <trkpt lat="45.77594" lon="6.2636">
        <ele>709.4</ele>
        <time>2000-01-01T15:42:18.000Z</time>
      </trkpt>
      <trkpt lat="45.77603" lon="6.26367">
        <ele>703</ele>
        <time>2000-01-01T15:42:28.000Z</time>
      </trkpt>
      <trkpt lat="45.77611" lon="6.26376">
        <ele>708.7</ele>
        <time>2000-01-01T15:42:38.000Z</time>
      </trkpt>
      <trkpt lat="45.77621" lon="6.26382">
        <ele>708</ele>
        <time>2000-01-01T15:42:48.000Z</time>
      </trkpt>
      <trkpt lat="45.77628" lon="6.26392">
        <ele>706.6</ele>
        <time>2000-01-01T15:42:58.000Z</time>
      </trkpt>
      <trkpt lat="45.77637" lon="6.264">
        <ele>706</ele>
        <time>2000-01-01T15:43:08.000Z</time>
      </trkpt>
      <trkpt lat="45.77646" lon="6.26408">
        <ele>707.6</ele>
        <time>2000-01-01T15:43:18.000Z</time>
      </trkpt>
      <trkpt lat="45.77654" lon="6.26414">
        <ele>709</ele>
        <time>2000-01-01T15:43:28.000Z</time>
      </trkpt>
      <trkpt lat="45.77662" lon="6.26422">
        <ele>705.6</ele>
        <time>2000-01-01T15:43:38.000Z</time>
      </trkpt>
      <trkpt lat="45.77669" lon="6.26433">
        <ele>712</ele>
        <time>2000-01-01T15:43:48.000Z</time>
      </trkpt>
      <trkpt lat="45.77675" lon="6.26446">
        <ele>716.6</ele>
        <time>2000-01-01T15:43:58.000Z</time>
      </trkpt>
      <trkpt lat="45.77681" lon="6.2646">
        <ele>715</ele>
        <time>2000-01-01T15:44:08.000Z</time>
      </trkpt>
      <trkpt lat="45.77685" lon="6.26475">
        <ele>730.2</ele>
        <time>2000-01-01T15:44:18.000Z</time>
      </trkpt>
      <trkpt lat="45.77699" lon="6.26494">
        <ele>727</ele>
        <time>2000-01-01T15:44:28.000Z</time>
      </trkpt>
      <trkpt lat="45.77704" lon="6.26508">
        <ele>741.8</ele>
        <time>2000-01-01T15:44:38.000Z</time>
      </trkpt>
      <trkpt lat="45.7771" lon="6.26518">
        <ele>721</ele>
        <time>2000-01-01T15:44:48.000Z</time>
      </trkpt>
      <trkpt lat="45.77714" lon="6.26522">
        <ele>734</ele>
        <time>2000-01-01T15:44:58.000Z</time>
      </trkpt>
      <trkpt lat="45.77717" lon="6.2652">
        <ele>729.6</ele>
        <time>2000-01-01T15:45:08.000Z</time>
      </trkpt>
      <trkpt lat="45.77723" lon="6.26506">
        <ele>720.4</ele>
        <time>2000-01-01T15:45:18.000Z</time>
      </trkpt>
      <trkpt lat="45.77723" lon="6.26492">
        <ele>729</ele>
        <time>2000-01-01T15:45:28.000Z</time>
      </trkpt>
      <trkpt lat="45.77726" lon="6.26478">
        <ele>728.3</ele>
        <time>2000-01-01T15:45:38.000Z</time>
      </trkpt>
      <trkpt lat="45.77732" lon="6.26465">
        <ele>737</ele>
        <time>2000-01-01T15:45:48.000Z</time>
      </trkpt>
      <trkpt lat="45.77729" lon="6.2645">
        <ele>735.4</ele>
        <time>2000-01-01T15:45:58.000Z</time>
      </trkpt>
      <trkpt lat="45.77739" lon="6.26426">
        <ele>741</ele>
        <time>2000-01-01T15:46:08.000Z</time>
      </trkpt>
      <trkpt lat="45.77742" lon="6.26412">
        <ele>748.9</ele>
        <time>2000-01-01T15:46:18.000Z</time>
      </trkpt>
      <trkpt lat="45.7774" lon="6.26382">
        <ele>749</ele>
        <time>2000-01-01T15:46:28.000Z</time>
      </trkpt>
      <trkpt lat="45.77743" lon="6.26396">
        <ele>751.1</ele>
        <time>2000-01-01T15:46:38.000Z</time>
      </trkpt>
      <trkpt lat="45.77741" lon="6.26414">
        <ele>749</ele>
        <time>2000-01-01T15:46:48.000Z</time>
      </trkpt>
      <trkpt lat="45.77741" lon="6.26427">
        <ele>747.3</ele>
        <time>2000-01-01T15:46:58.000Z</time>
      </trkpt>
      <trkpt lat="45.77742" lon="6.2644">
        <ele>747.9</ele>
        <time>2000-01-01T15:47:08.000Z</time>
      </trkpt>
      <trkpt lat="45.77746" lon="6.26456">
        <ele>747</ele>
        <time>2000-01-01T15:47:18.000Z</time>
      </trkpt>
      <trkpt lat="45.77746" lon="6.26469">
        <ele>750.1</ele>
        <time>2000-01-01T15:47:28.000Z</time>
      </trkpt>
      <trkpt lat="45.77749" lon="6.26482">
        <ele>750</ele>
        <time>2000-01-01T15:47:38.000Z</time>
      </trkpt>
      <trkpt lat="45.77754" lon="6.26495">
        <ele>755.1</ele>
        <time>2000-01-01T15:47:48.000Z</time>
      </trkpt>
      <trkpt lat="45.77757" lon="6.26508">
        <ele>750</ele>
        <time>2000-01-01T15:47:58.000Z</time>
      </trkpt>
      <trkpt lat="45.77758" lon="6.26521">
        <ele>752.2</ele>
        <time>2000-01-01T15:48:08.000Z</time>
      </trkpt>
      <trkpt lat="45.77761" lon="6.26534">
        <ele>752.3</ele>
        <time>2000-01-01T15:48:18.000Z</time>
      </trkpt>
      <trkpt lat="45.77764" lon="6.26546">
        <ele>751</ele>
        <time>2000-01-01T15:48:28.000Z</time>
      </trkpt>
      <trkpt lat="45.77771" lon="6.26559">
        <ele>757.7</ele>
        <time>2000-01-01T15:48:38.000Z</time>
      </trkpt>
      <trkpt lat="45.77771" lon="6.26574">
        <ele>750</ele>
        <time>2000-01-01T15:48:48.000Z</time>
      </trkpt>
      <trkpt lat="45.77775" lon="6.26589">
        <ele>758</ele>
        <time>2000-01-01T15:48:58.000Z</time>
      </trkpt>
      <trkpt lat="45.7778" lon="6.266">
        <ele>750</ele>
        <time>2000-01-01T15:49:08.000Z</time>
      </trkpt>
      <trkpt lat="45.77786" lon="6.2661">
        <ele>762.3</ele>
        <time>2000-01-01T15:49:18.000Z</time>
      </trkpt>
      <trkpt lat="45.77795" lon="6.26618">
        <ele>768</ele>
        <time>2000-01-01T15:49:28.000Z</time>
      </trkpt>
      <trkpt lat="45.77815" lon="6.26629">
        <ele>779</ele>
        <time>2000-01-01T15:49:38.000Z</time>
      </trkpt>
      <trkpt lat="45.77824" lon="6.26633">
        <ele>784.1</ele>
        <time>2000-01-01T15:49:48.000Z</time>
      </trkpt>
      <trkpt lat="45.77834" lon="6.26636">
        <ele>788</ele>
        <time>2000-01-01T15:49:58.000Z</time>
      </trkpt>
      <trkpt lat="45.77851" lon="6.26647">
        <ele>791</ele>
        <time>2000-01-01T15:50:08.000Z</time>
      </trkpt>
      <trkpt lat="45.77861" lon="6.26668">
        <ele>792.4</ele>
        <time>2000-01-01T15:50:18.000Z</time>
      </trkpt>
      <trkpt lat="45.7787" lon="6.26674">
        <ele>795</ele>
        <time>2000-01-01T15:50:28.000Z</time>
      </trkpt>
      <trkpt lat="45.77871" lon="6.26676">
        <ele>792.6</ele>
        <time>2000-01-01T15:50:38.000Z</time>
      </trkpt>
      <trkpt lat="45.77882" lon="6.26682">
        <ele>794.6</ele>
        <time>2000-01-01T15:50:48.000Z</time>
      </trkpt>
      <trkpt lat="45.77891" lon="6.26679">
        <ele>795</ele>
        <time>2000-01-01T15:50:58.000Z</time>
      </trkpt>
      <trkpt lat="45.77884" lon="6.2667">
        <ele>798.7</ele>
        <time>2000-01-01T15:51:08.000Z</time>
      </trkpt>
      <trkpt lat="45.77875" lon="6.26668">
        <ele>796.6</ele>
        <time>2000-01-01T15:51:18.000Z</time>
      </trkpt>
      <trkpt lat="45.77869" lon="6.2666">
        <ele>796</ele>
        <time>2000-01-01T15:51:28.000Z</time>
      </trkpt>
      <trkpt lat="45.77861" lon="6.26651">
        <ele>799.1</ele>
        <time>2000-01-01T15:51:38.000Z</time>
      </trkpt>
      <trkpt lat="45.77858" lon="6.26639">
        <ele>800</ele>
        <time>2000-01-01T15:51:48.000Z</time>
      </trkpt>
      <trkpt lat="45.77856" lon="6.26625">
        <ele>804.6</ele>
        <time>2000-01-01T15:51:58.000Z</time>
      </trkpt>
      <trkpt lat="45.77853" lon="6.26611">
        <ele>804</ele>
        <time>2000-01-01T15:52:08.000Z</time>
      </trkpt>
      <trkpt lat="45.77854" lon="6.26597">
        <ele>808.4</ele>
        <time>2000-01-01T15:52:18.000Z</time>
      </trkpt>
      <trkpt lat="45.77854" lon="6.26582">
        <ele>808</ele>
        <time>2000-01-01T15:52:28.000Z</time>
      </trkpt>
      <trkpt lat="45.77853" lon="6.26568">
        <ele>812.1</ele>
        <time>2000-01-01T15:52:38.000Z</time>
      </trkpt>
      <trkpt lat="45.77851" lon="6.26555">
        <ele>812.8</ele>
        <time>2000-01-01T15:52:48.000Z</time>
      </trkpt>
      <trkpt lat="45.77847" lon="6.26542">
        <ele>809</ele>
        <time>2000-01-01T15:52:58.000Z</time>
      </trkpt>
      <trkpt lat="45.77844" lon="6.2653">
        <ele>813.2</ele>
        <time>2000-01-01T15:53:08.000Z</time>
      </trkpt>
      <trkpt lat="45.77844" lon="6.26515">
        <ele>815</ele>
        <time>2000-01-01T15:53:18.000Z</time>
      </trkpt>
      <trkpt lat="45.77844" lon="6.26499">
        <ele>817.3</ele>
        <time>2000-01-01T15:53:28.000Z</time>
      </trkpt>
      <trkpt lat="45.77852" lon="6.26474">
        <ele>820</ele>
        <time>2000-01-01T15:53:38.000Z</time>
      </trkpt>
      <trkpt lat="45.77852" lon="6.26458">
        <ele>822.1</ele>
        <time>2000-01-01T15:53:48.000Z</time>
      </trkpt>
      <trkpt lat="45.77855" lon="6.26444">
        <ele>820</ele>
        <time>2000-01-01T15:53:58.000Z</time>
      </trkpt>
      <trkpt lat="45.77858" lon="6.2643">
        <ele>826.4</ele>
        <time>2000-01-01T15:54:08.000Z</time>
      </trkpt>
      <trkpt lat="45.77861" lon="6.26417">
        <ele>826</ele>
        <time>2000-01-01T15:54:18.000Z</time>
      </trkpt>
      <trkpt lat="45.77866" lon="6.26404">
        <ele>830.9</ele>
        <time>2000-01-01T15:54:28.000Z</time>
      </trkpt>
      <trkpt lat="45.77871" lon="6.26391">
        <ele>829</ele>
        <time>2000-01-01T15:54:38.000Z</time>
      </trkpt>
      <trkpt lat="45.77872" lon="6.26377">
        <ele>833.7</ele>
        <time>2000-01-01T15:54:48.000Z</time>
      </trkpt>
      <trkpt lat="45.77875" lon="6.26361">
        <ele>832</ele>
        <time>2000-01-01T15:54:58.000Z</time>
      </trkpt>
      <trkpt lat="45.77879" lon="6.26346">
        <ele>834.3</ele>
        <time>2000-01-01T15:55:08.000Z</time>
      </trkpt>
      <trkpt lat="45.77884" lon="6.26335">
        <ele>832</ele>
        <time>2000-01-01T15:55:18.000Z</time>
      </trkpt>
      <trkpt lat="45.77893" lon="6.2633">
        <ele>836.9</ele>
        <time>2000-01-01T15:55:28.000Z</time>
      </trkpt>
      <trkpt lat="45.77911" lon="6.26317">
        <ele>836</ele>
        <time>2000-01-01T15:55:38.000Z</time>
      </trkpt>
      <trkpt lat="45.77918" lon="6.26309">
        <ele>838.6</ele>
        <time>2000-01-01T15:55:48.000Z</time>
      </trkpt>
      <trkpt lat="45.77927" lon="6.26305">
        <ele>838.6</ele>
        <time>2000-01-01T15:55:58.000Z</time>
      </trkpt>
      <trkpt lat="45.77937" lon="6.26302">
        <ele>836</ele>
        <time>2000-01-01T15:56:08.000Z</time>
      </trkpt>
      <trkpt lat="45.77947" lon="6.26303">
        <ele>841.4</ele>
        <time>2000-01-01T15:56:18.000Z</time>
      </trkpt>
      <trkpt lat="45.77957" lon="6.26298">
        <ele>836</ele>
        <time>2000-01-01T15:56:28.000Z</time>
      </trkpt>
      <trkpt lat="45.77962" lon="6.26313">
        <ele>848.7</ele>
        <time>2000-01-01T15:56:38.000Z</time>
      </trkpt>
      <trkpt lat="45.77956" lon="6.26325">
        <ele>850</ele>
        <time>2000-01-01T15:56:48.000Z</time>
      </trkpt>
      <trkpt lat="45.77935" lon="6.26333">
        <ele>852</ele>
        <time>2000-01-01T15:56:58.000Z</time>
      </trkpt>
      <trkpt lat="45.77927" lon="6.26343">
        <ele>853.9</ele>
        <time>2000-01-01T15:57:08.000Z</time>
      </trkpt>
      <trkpt lat="45.77924" lon="6.26356">
        <ele>854</ele>
        <time>2000-01-01T15:57:18.000Z</time>
      </trkpt>
      <trkpt lat="45.77922" lon="6.2637">
        <ele>858.8</ele>
        <time>2000-01-01T15:57:28.000Z</time>
      </trkpt>
      <trkpt lat="45.77919" lon="6.26384">
        <ele>856</ele>
        <time>2000-01-01T15:57:38.000Z</time>
      </trkpt>
      <trkpt lat="45.77917" lon="6.26396">
        <ele>862.1</ele>
        <time>2000-01-01T15:57:48.000Z</time>
      </trkpt>
      <trkpt lat="45.77917" lon="6.26411">
        <ele>861</ele>
        <time>2000-01-01T15:57:58.000Z</time>
      </trkpt>
      <trkpt lat="45.77917" lon="6.26426">
        <ele>865.1</ele>
        <time>2000-01-01T15:58:08.000Z</time>
      </trkpt>
      <trkpt lat="45.77919" lon="6.26442">
        <ele>863</ele>
        <time>2000-01-01T15:58:18.000Z</time>
      </trkpt>
      <trkpt lat="45.77921" lon="6.26455">
        <ele>867.2</ele>
        <time>2000-01-01T15:58:28.000Z</time>
      </trkpt>
      <trkpt lat="45.77924" lon="6.26482">
        <ele>867</ele>
        <time>2000-01-01T15:58:38.000Z</time>
      </trkpt>
      <trkpt lat="45.77929" lon="6.26497">
        <ele>871.6</ele>
        <time>2000-01-01T15:58:48.000Z</time>
      </trkpt>
      <trkpt lat="45.77934" lon="6.26509">
        <ele>874</ele>
        <time>2000-01-01T15:58:58.000Z</time>
      </trkpt>
      <trkpt lat="45.77936" lon="6.26522">
        <ele>876.2</ele>
        <time>2000-01-01T15:59:08.000Z</time>
      </trkpt>
      <trkpt lat="45.77946" lon="6.26562">
        <ele>879</ele>
        <time>2000-01-01T15:59:18.000Z</time>
      </trkpt>
      <trkpt lat="45.77952" lon="6.26574">
        <ele>882.7</ele>
        <time>2000-01-01T15:59:28.000Z</time>
      </trkpt>
      <trkpt lat="45.77984" lon="6.26608">
        <ele>884</ele>
        <time>2000-01-01T15:59:38.000Z</time>
      </trkpt>
      <trkpt lat="45.77993" lon="6.26633">
        <ele>889</ele>
        <time>2000-01-01T15:59:48.000Z</time>
      </trkpt>
      <trkpt lat="45.77998" lon="6.26643">
        <ele>891.8</ele>
        <time>2000-01-01T15:59:58.000Z</time>
      </trkpt>
      <trkpt lat="45.78004" lon="6.26656">
        <ele>892</ele>
        <time>2000-01-01T16:00:08.000Z</time>
      </trkpt>
      <trkpt lat="45.78012" lon="6.26662">
        <ele>889.4</ele>
        <time>2000-01-01T16:00:18.000Z</time>
      </trkpt>
      <trkpt lat="45.78021" lon="6.26661">
        <ele>893.3</ele>
        <time>2000-01-01T16:00:28.000Z</time>
      </trkpt>
      <trkpt lat="45.78032" lon="6.26661">
        <ele>897</ele>
        <time>2000-01-01T16:00:38.000Z</time>
      </trkpt>
      <trkpt lat="45.78042" lon="6.26659">
        <ele>900.6</ele>
        <time>2000-01-01T16:00:48.000Z</time>
      </trkpt>
      <trkpt lat="45.78073" lon="6.26656">
        <ele>910</ele>
        <time>2000-01-01T16:00:58.000Z</time>
      </trkpt>
      <trkpt lat="45.78083" lon="6.26657">
        <ele>911.4</ele>
        <time>2000-01-01T16:01:08.000Z</time>
      </trkpt>
      <trkpt lat="45.78092" lon="6.26663">
        <ele>908</ele>
        <time>2000-01-01T16:01:18.000Z</time>
      </trkpt>
      <trkpt lat="45.78099" lon="6.26671">
        <ele>909.7</ele>
        <time>2000-01-01T16:01:28.000Z</time>
      </trkpt>
      <trkpt lat="45.78108" lon="6.26676">
        <ele>909.2</ele>
        <time>2000-01-01T16:01:38.000Z</time>
      </trkpt>
      <trkpt lat="45.78118" lon="6.26681">
        <ele>910</ele>
        <time>2000-01-01T16:01:48.000Z</time>
      </trkpt>
      <trkpt lat="45.78136" lon="6.26687">
        <ele>912</ele>
        <time>2000-01-01T16:01:58.000Z</time>
      </trkpt>
      <trkpt lat="45.78145" lon="6.26693">
        <ele>912.1</ele>
        <time>2000-01-01T16:02:08.000Z</time>
      </trkpt>
      <trkpt lat="45.78155" lon="6.26696">
        <ele>915</ele>
        <time>2000-01-01T16:02:18.000Z</time>
      </trkpt>
      <trkpt lat="45.78165" lon="6.26697">
        <ele>916.2</ele>
        <time>2000-01-01T16:02:28.000Z</time>
      </trkpt>
      <trkpt lat="45.78175" lon="6.26696">
        <ele>919</ele>
        <time>2000-01-01T16:02:38.000Z</time>
      </trkpt>
      <trkpt lat="45.78186" lon="6.26699">
        <ele>921.6</ele>
        <time>2000-01-01T16:02:48.000Z</time>
      </trkpt>
      <trkpt lat="45.78196" lon="6.26703">
        <ele>922</ele>
        <time>2000-01-01T16:02:58.000Z</time>
      </trkpt>
      <trkpt lat="45.78206" lon="6.267">
        <ele>926.7</ele>
        <time>2000-01-01T16:03:08.000Z</time>
      </trkpt>
      <trkpt lat="45.78216" lon="6.26701">
        <ele>927</ele>
        <time>2000-01-01T16:03:18.000Z</time>
      </trkpt>
      <trkpt lat="45.78224" lon="6.26697">
        <ele>931.3</ele>
        <time>2000-01-01T16:03:28.000Z</time>
      </trkpt>
      <trkpt lat="45.78235" lon="6.26695">
        <ele>933</ele>
        <time>2000-01-01T16:03:38.000Z</time>
      </trkpt>
      <trkpt lat="45.78254" lon="6.26697">
        <ele>936</ele>
        <time>2000-01-01T16:03:48.000Z</time>
      </trkpt>
      <trkpt lat="45.78264" lon="6.267">
        <ele>940.1</ele>
        <time>2000-01-01T16:03:58.000Z</time>
      </trkpt>
      <trkpt lat="45.7827" lon="6.26698">
        <ele>941.4</ele>
        <time>2000-01-01T16:04:08.000Z</time>
      </trkpt>
      <trkpt lat="45.7828" lon="6.26692">
        <ele>941</ele>
        <time>2000-01-01T16:04:18.000Z</time>
      </trkpt>
      <trkpt lat="45.78289" lon="6.26688">
        <ele>945.5</ele>
        <time>2000-01-01T16:04:28.000Z</time>
      </trkpt>
      <trkpt lat="45.78293" lon="6.26686">
        <ele>946.3</ele>
        <time>2000-01-01T16:04:38.000Z</time>
      </trkpt>
      <trkpt lat="45.78296" lon="6.26684">
        <ele>946.9</ele>
        <time>2000-01-01T16:04:48.000Z</time>
      </trkpt>
      <trkpt lat="45.78302" lon="6.26681">
        <ele>947</ele>
        <time>2000-01-01T16:04:58.000Z</time>
      </trkpt>
      <trkpt lat="45.78313" lon="6.26675">
        <ele>950.4</ele>
        <time>2000-01-01T16:05:08.000Z</time>
      </trkpt>
      <trkpt lat="45.78325" lon="6.26666">
        <ele>951</ele>
        <time>2000-01-01T16:05:18.000Z</time>
      </trkpt>
      <trkpt lat="45.78334" lon="6.26662">
        <ele>955.5</ele>
        <time>2000-01-01T16:05:28.000Z</time>
      </trkpt>
      <trkpt lat="45.78354" lon="6.26648">
        <ele>959</ele>
        <time>2000-01-01T16:05:38.000Z</time>
      </trkpt>
      <trkpt lat="45.78364" lon="6.2664">
        <ele>961.5</ele>
        <time>2000-01-01T16:05:48.000Z</time>
      </trkpt>
      <trkpt lat="45.7837" lon="6.26635">
        <ele>962.9</ele>
        <time>2000-01-01T16:05:58.000Z</time>
      </trkpt>
      <trkpt lat="45.78382" lon="6.26626">
        <ele>964</ele>
        <time>2000-01-01T16:06:08.000Z</time>
      </trkpt>
      <trkpt lat="45.78389" lon="6.26617">
        <ele>966.8</ele>
        <time>2000-01-01T16:06:18.000Z</time>
      </trkpt>
      <trkpt lat="45.78395" lon="6.26606">
        <ele>967</ele>
        <time>2000-01-01T16:06:28.000Z</time>
      </trkpt>
      <trkpt lat="45.78404" lon="6.26583">
        <ele>968</ele>
        <time>2000-01-01T16:06:38.000Z</time>
      </trkpt>
      <trkpt lat="45.78406" lon="6.26579">
        <ele>969.1</ele>
        <time>2000-01-01T16:06:48.000Z</time>
      </trkpt>
      <trkpt lat="45.78411" lon="6.26574">
        <ele>969.3</ele>
        <time>2000-01-01T16:06:58.000Z</time>
      </trkpt>
      <trkpt lat="45.78414" lon="6.26573">
        <ele>969.5</ele>
        <time>2000-01-01T16:07:08.000Z</time>
      </trkpt>
      <trkpt lat="45.78416" lon="6.26573">
        <ele>969.6</ele>
        <time>2000-01-01T16:07:18.000Z</time>
      </trkpt>
      <trkpt lat="45.78419" lon="6.26572">
        <ele>969.8</ele>
        <time>2000-01-01T16:07:28.000Z</time>
      </trkpt>
      <trkpt lat="45.78422" lon="6.26573">
        <ele>970</ele>
        <time>2000-01-01T16:07:38.000Z</time>
      </trkpt>
      <trkpt lat="45.78425" lon="6.26572">
        <ele>970.4</ele>
        <time>2000-01-01T16:07:48.000Z</time>
      </trkpt>
      <trkpt lat="45.78441" lon="6.2658">
        <ele>971</ele>
        <time>2000-01-01T16:07:58.000Z</time>
      </trkpt>
      <trkpt lat="45.78451" lon="6.26582">
        <ele>973.8</ele>
        <time>2000-01-01T16:08:08.000Z</time>
      </trkpt>
      <trkpt lat="45.78458" lon="6.26587">
        <ele>975.1</ele>
        <time>2000-01-01T16:08:18.000Z</time>
      </trkpt>
      <trkpt lat="45.78482" lon="6.26593">
        <ele>977</ele>
        <time>2000-01-01T16:08:28.000Z</time>
      </trkpt>
      <trkpt lat="45.78491" lon="6.26596">
        <ele>979.8</ele>
        <time>2000-01-01T16:08:38.000Z</time>
      </trkpt>
      <trkpt lat="45.78497" lon="6.26597">
        <ele>980.6</ele>
        <time>2000-01-01T16:08:48.000Z</time>
      </trkpt>
      <trkpt lat="45.78502" lon="6.26597">
        <ele>980</ele>
        <time>2000-01-01T16:08:58.000Z</time>
      </trkpt>
      <trkpt lat="45.78512" lon="6.26595">
        <ele>983</ele>
        <time>2000-01-01T16:09:08.000Z</time>
      </trkpt>
      <trkpt lat="45.78523" lon="6.2659">
        <ele>983</ele>
        <time>2000-01-01T16:09:18.000Z</time>
      </trkpt>
      <trkpt lat="45.7855" lon="6.26582">
        <ele>989</ele>
        <time>2000-01-01T16:09:28.000Z</time>
      </trkpt>
      <trkpt lat="45.78559" lon="6.26575">
        <ele>991.2</ele>
        <time>2000-01-01T16:09:38.000Z</time>
      </trkpt>
      <trkpt lat="45.78567" lon="6.26571">
        <ele>992.9</ele>
        <time>2000-01-01T16:09:48.000Z</time>
      </trkpt>
      <trkpt lat="45.78573" lon="6.26565">
        <ele>994</ele>
        <time>2000-01-01T16:09:58.000Z</time>
      </trkpt>
      <trkpt lat="45.78583" lon="6.26558">
        <ele>996.9</ele>
        <time>2000-01-01T16:10:08.000Z</time>
      </trkpt>
      <trkpt lat="45.78592" lon="6.26555">
        <ele>997</ele>
        <time>2000-01-01T16:10:18.000Z</time>
      </trkpt>
      <trkpt lat="45.78597" lon="6.26554">
        <ele>998.7</ele>
        <time>2000-01-01T16:10:28.000Z</time>
      </trkpt>
      <trkpt lat="45.78599" lon="6.26553">
        <ele>998.9</ele>
        <time>2000-01-01T16:10:38.000Z</time>
      </trkpt>
      <trkpt lat="45.78604" lon="6.26553">
        <ele>999.6</ele>
        <time>2000-01-01T16:10:48.000Z</time>
      </trkpt>
      <trkpt lat="45.78615" lon="6.2655">
        <ele>1000</ele>
        <time>2000-01-01T16:10:58.000Z</time>
      </trkpt>
      <trkpt lat="45.78625" lon="6.26546">
        <ele>1001.3</ele>
        <time>2000-01-01T16:11:08.000Z</time>
      </trkpt>
      <trkpt lat="45.78628" lon="6.26543">
        <ele>1001.4</ele>
        <time>2000-01-01T16:11:18.000Z</time>
      </trkpt>
      <trkpt lat="45.78643" lon="6.26538">
        <ele>1002</ele>
        <time>2000-01-01T16:11:28.000Z</time>
      </trkpt>
      <trkpt lat="45.78655" lon="6.26537">
        <ele>1004.5</ele>
        <time>2000-01-01T16:11:38.000Z</time>
      </trkpt>
      <trkpt lat="45.78667" lon="6.26535">
        <ele>1004</ele>
        <time>2000-01-01T16:11:48.000Z</time>
      </trkpt>
      <trkpt lat="45.78677" lon="6.2653">
        <ele>1008.2</ele>
        <time>2000-01-01T16:11:58.000Z</time>
      </trkpt>
      <trkpt lat="45.78679" lon="6.26528">
        <ele>1008.7</ele>
        <time>2000-01-01T16:12:08.000Z</time>
      </trkpt>
      <trkpt lat="45.78682" lon="6.26527">
        <ele>1009.2</ele>
        <time>2000-01-01T16:12:18.000Z</time>
      </trkpt>
      <trkpt lat="45.78687" lon="6.26526">
        <ele>1008</ele>
        <time>2000-01-01T16:12:28.000Z</time>
      </trkpt>
      <trkpt lat="45.78704" lon="6.26523">
        <ele>1013.2</ele>
        <time>2000-01-01T16:12:38.000Z</time>
      </trkpt>
      <trkpt lat="45.78711" lon="6.26524">
        <ele>1014</ele>
        <time>2000-01-01T16:12:48.000Z</time>
      </trkpt>
      <trkpt lat="45.78717" lon="6.26522">
        <ele>1015.2</ele>
        <time>2000-01-01T16:12:58.000Z</time>
      </trkpt>
      <trkpt lat="45.78734" lon="6.26523">
        <ele>1017</ele>
        <time>2000-01-01T16:13:08.000Z</time>
      </trkpt>
      <trkpt lat="45.78744" lon="6.26518">
        <ele>1017.8</ele>
        <time>2000-01-01T16:13:18.000Z</time>
      </trkpt>
      <trkpt lat="45.78771" lon="6.26515">
        <ele>1021</ele>
        <time>2000-01-01T16:13:28.000Z</time>
      </trkpt>
      <trkpt lat="45.78779" lon="6.26513">
        <ele>1022.7</ele>
        <time>2000-01-01T16:13:38.000Z</time>
      </trkpt>
      <trkpt lat="45.78793" lon="6.26514">
        <ele>1023</ele>
        <time>2000-01-01T16:13:48.000Z</time>
      </trkpt>
      <trkpt lat="45.78817" lon="6.26518">
        <ele>1026</ele>
        <time>2000-01-01T16:13:58.000Z</time>
      </trkpt>
      <trkpt lat="45.78822" lon="6.26517">
        <ele>1028.7</ele>
        <time>2000-01-01T16:14:08.000Z</time>
      </trkpt>
      <trkpt lat="45.78828" lon="6.26515">
        <ele>1028.9</ele>
        <time>2000-01-01T16:14:18.000Z</time>
      </trkpt>
      <trkpt lat="45.78835" lon="6.26514">
        <ele>1029.2</ele>
        <time>2000-01-01T16:14:28.000Z</time>
      </trkpt>
      <trkpt lat="45.78844" lon="6.26515">
        <ele>1028</ele>
        <time>2000-01-01T16:14:38.000Z</time>
      </trkpt>
      <trkpt lat="45.78846" lon="6.26515">
        <ele>1030.7</ele>
        <time>2000-01-01T16:14:48.000Z</time>
      </trkpt>
      <trkpt lat="45.78853" lon="6.26516">
        <ele>1031.7</ele>
        <time>2000-01-01T16:14:58.000Z</time>
      </trkpt>
      <trkpt lat="45.78858" lon="6.26514">
        <ele>1032.1</ele>
        <time>2000-01-01T16:15:08.000Z</time>
      </trkpt>
      <trkpt lat="45.78862" lon="6.26514">
        <ele>1032.5</ele>
        <time>2000-01-01T16:15:18.000Z</time>
      </trkpt>
      <trkpt lat="45.78866" lon="6.26512">
        <ele>1029</ele>
        <time>2000-01-01T16:15:28.000Z</time>
      </trkpt>
      <trkpt lat="45.78878" lon="6.26513">
        <ele>1033</ele>
        <time>2000-01-01T16:15:38.000Z</time>
      </trkpt>
      <trkpt lat="45.78884" lon="6.26514">
        <ele>1033.3</ele>
        <time>2000-01-01T16:15:48.000Z</time>
      </trkpt>
      <trkpt lat="45.789" lon="6.2652">
        <ele>1032</ele>
        <time>2000-01-01T16:15:58.000Z</time>
      </trkpt>
      <trkpt lat="45.78904" lon="6.2652">
        <ele>1034.4</ele>
        <time>2000-01-01T16:16:08.000Z</time>
      </trkpt>
      <trkpt lat="45.78913" lon="6.26524">
        <ele>1035.2</ele>
        <time>2000-01-01T16:16:18.000Z</time>
      </trkpt>
      <trkpt lat="45.78922" lon="6.26524">
        <ele>1034</ele>
        <time>2000-01-01T16:16:28.000Z</time>
      </trkpt>
      <trkpt lat="45.78931" lon="6.26526">
        <ele>1035.7</ele>
        <time>2000-01-01T16:16:38.000Z</time>
      </trkpt>
      <trkpt lat="45.78937" lon="6.26526">
        <ele>1035.7</ele>
        <time>2000-01-01T16:16:48.000Z</time>
      </trkpt>
      <trkpt lat="45.78948" lon="6.26527">
        <ele>1035</ele>
        <time>2000-01-01T16:16:58.000Z</time>
      </trkpt>
      <trkpt lat="45.78952" lon="6.26526">
        <ele>1036</ele>
        <time>2000-01-01T16:17:08.000Z</time>
      </trkpt>
      <trkpt lat="45.78961" lon="6.26527">
        <ele>1036.5</ele>
        <time>2000-01-01T16:17:18.000Z</time>
      </trkpt>
      <trkpt lat="45.78966" lon="6.26529">
        <ele>1037</ele>
        <time>2000-01-01T16:17:28.000Z</time>
      </trkpt>
      <trkpt lat="45.78972" lon="6.2653">
        <ele>1035</ele>
        <time>2000-01-01T16:17:38.000Z</time>
      </trkpt>
      <trkpt lat="45.78983" lon="6.26534">
        <ele>1037.8</ele>
        <time>2000-01-01T16:17:48.000Z</time>
      </trkpt>
      <trkpt lat="45.79" lon="6.26538">
        <ele>1035</ele>
        <time>2000-01-01T16:17:58.000Z</time>
      </trkpt>
      <trkpt lat="45.79014" lon="6.2654">
        <ele>1038.3</ele>
        <time>2000-01-01T16:18:08.000Z</time>
      </trkpt>
      <trkpt lat="45.79016" lon="6.26539">
        <ele>1038.1</ele>
        <time>2000-01-01T16:18:18.000Z</time>
      </trkpt>
      <trkpt lat="45.79021" lon="6.26535">
        <ele>1036</ele>
        <time>2000-01-01T16:18:28.000Z</time>
      </trkpt>
      <trkpt lat="45.79023" lon="6.26537">
        <ele>1037.7</ele>
        <time>2000-01-01T16:18:38.000Z</time>
      </trkpt>
      <trkpt lat="45.79021" lon="6.26537">
        <ele>1037.7</ele>
        <time>2000-01-01T16:18:48.000Z</time>
      </trkpt>
      <trkpt lat="45.7902" lon="6.26539">
        <ele>1038</ele>
        <time>2000-01-01T16:18:58.000Z</time>
      </trkpt>
      <trkpt lat="45.7902" lon="6.26536">
        <ele>1037.6</ele>
        <time>2000-01-01T16:19:08.000Z</time>
      </trkpt>
      <trkpt lat="45.79022" lon="6.26536">
        <ele>1037.6</ele>
        <time>2000-01-01T16:19:18.000Z</time>
      </trkpt>
      <trkpt lat="45.79027" lon="6.26536">
        <ele>1037.6</ele>
        <time>2000-01-01T16:19:28.000Z</time>
      </trkpt>
      <trkpt lat="45.79038" lon="6.26542">
        <ele>1036</ele>
        <time>2000-01-01T16:19:38.000Z</time>
      </trkpt>
      <trkpt lat="45.79043" lon="6.26544">
        <ele>1036.2</ele>
        <time>2000-01-01T16:19:48.000Z</time>
      </trkpt>
      <trkpt lat="45.79049" lon="6.26547">
        <ele>1035.6</ele>
        <time>2000-01-01T16:19:58.000Z</time>
      </trkpt>
      <trkpt lat="45.79055" lon="6.26551">
        <ele>1034.9</ele>
        <time>2000-01-01T16:20:08.000Z</time>
      </trkpt>
      <trkpt lat="45.79074" lon="6.26562">
        <ele>1033</ele>
        <time>2000-01-01T16:20:18.000Z</time>
      </trkpt>
      <trkpt lat="45.79093" lon="6.26571">
        <ele>1032</ele>
        <time>2000-01-01T16:20:28.000Z</time>
      </trkpt>
      <trkpt lat="45.79098" lon="6.26574">
        <ele>1032.8</ele>
        <time>2000-01-01T16:20:38.000Z</time>
      </trkpt>
      <trkpt lat="45.79111" lon="6.26579">
        <ele>1030</ele>
        <time>2000-01-01T16:20:48.000Z</time>
      </trkpt>
      <trkpt lat="45.79132" lon="6.2658">
        <ele>1029</ele>
        <time>2000-01-01T16:20:58.000Z</time>
      </trkpt>
      <trkpt lat="45.79143" lon="6.26584">
        <ele>1027.1</ele>
        <time>2000-01-01T16:21:08.000Z</time>
      </trkpt>
      <trkpt lat="45.79153" lon="6.2659">
        <ele>1027</ele>
        <time>2000-01-01T16:21:18.000Z</time>
      </trkpt>
      <trkpt lat="45.79162" lon="6.266">
        <ele>1025.8</ele>
        <time>2000-01-01T16:21:28.000Z</time>
      </trkpt>
      <trkpt lat="45.79172" lon="6.26609">
        <ele>1025</ele>
        <time>2000-01-01T16:21:38.000Z</time>
      </trkpt>
      <trkpt lat="45.79186" lon="6.26629">
        <ele>1024</ele>
        <time>2000-01-01T16:21:48.000Z</time>
      </trkpt>
      <trkpt lat="45.79195" lon="6.26638">
        <ele>1022.7</ele>
        <time>2000-01-01T16:21:58.000Z</time>
      </trkpt>
      <trkpt lat="45.79214" lon="6.26675">
        <ele>1021</ele>
        <time>2000-01-01T16:22:08.000Z</time>
      </trkpt>
      <trkpt lat="45.79233" lon="6.2669">
        <ele>1022</ele>
        <time>2000-01-01T16:22:18.000Z</time>
      </trkpt>
      <trkpt lat="45.79243" lon="6.26696">
        <ele>1019.5</ele>
        <time>2000-01-01T16:22:28.000Z</time>
      </trkpt>
      <trkpt lat="45.79263" lon="6.26733">
        <ele>1024</ele>
        <time>2000-01-01T16:22:38.000Z</time>
      </trkpt>
      <trkpt lat="45.7927" lon="6.26744">
        <ele>1029.5</ele>
        <time>2000-01-01T16:22:48.000Z</time>
      </trkpt>
      <trkpt lat="45.79278" lon="6.2675">
        <ele>1026</ele>
        <time>2000-01-01T16:22:58.000Z</time>
      </trkpt>
      <trkpt lat="45.79287" lon="6.2675">
        <ele>1031</ele>
        <time>2000-01-01T16:23:08.000Z</time>
      </trkpt>
      <trkpt lat="45.79297" lon="6.2675">
        <ele>1029</ele>
        <time>2000-01-01T16:23:18.000Z</time>
      </trkpt>
      <trkpt lat="45.79308" lon="6.26751">
        <ele>1035.9</ele>
        <time>2000-01-01T16:23:28.000Z</time>
      </trkpt>
      <trkpt lat="45.79318" lon="6.26752">
        <ele>1035</ele>
        <time>2000-01-01T16:23:38.000Z</time>
      </trkpt>
      <trkpt lat="45.79327" lon="6.2675">
        <ele>1039.6</ele>
        <time>2000-01-01T16:23:48.000Z</time>
      </trkpt>
      <trkpt lat="45.79332" lon="6.26738">
        <ele>1044</ele>
        <time>2000-01-01T16:23:58.000Z</time>
      </trkpt>
      <trkpt lat="45.79338" lon="6.26726">
        <ele>1046.4</ele>
        <time>2000-01-01T16:24:08.000Z</time>
      </trkpt>
      <trkpt lat="45.79346" lon="6.26734">
        <ele>1046</ele>
        <time>2000-01-01T16:24:18.000Z</time>
      </trkpt>
      <trkpt lat="45.79349" lon="6.26749">
        <ele>1050.1</ele>
        <time>2000-01-01T16:24:28.000Z</time>
      </trkpt>
      <trkpt lat="45.79355" lon="6.26761">
        <ele>1047</ele>
        <time>2000-01-01T16:24:38.000Z</time>
      </trkpt>
      <trkpt lat="45.7936" lon="6.26772">
        <ele>1055</ele>
        <time>2000-01-01T16:24:48.000Z</time>
      </trkpt>
      <trkpt lat="45.79366" lon="6.26783">
        <ele>1054</ele>
        <time>2000-01-01T16:24:58.000Z</time>
      </trkpt>
      <trkpt lat="45.79373" lon="6.26797">
        <ele>1064.6</ele>
        <time>2000-01-01T16:25:08.000Z</time>
      </trkpt>
      <trkpt lat="45.7938" lon="6.26824">
        <ele>1064</ele>
        <time>2000-01-01T16:25:18.000Z</time>
      </trkpt>
      <trkpt lat="45.7938" lon="6.26851">
        <ele>1072</ele>
        <time>2000-01-01T16:25:28.000Z</time>
      </trkpt>
      <trkpt lat="45.7939" lon="6.26845">
        <ele>1084.8</ele>
        <time>2000-01-01T16:25:38.000Z</time>
      </trkpt>
      <trkpt lat="45.7939" lon="6.26832">
        <ele>1075</ele>
        <time>2000-01-01T16:25:48.000Z</time>
      </trkpt>
      <trkpt lat="45.79395" lon="6.26819">
        <ele>1080.3</ele>
        <time>2000-01-01T16:25:58.000Z</time>
      </trkpt>
      <trkpt lat="45.7941" lon="6.26802">
        <ele>1075</ele>
        <time>2000-01-01T16:26:08.000Z</time>
      </trkpt>
      <trkpt lat="45.79419" lon="6.26795">
        <ele>1079.8</ele>
        <time>2000-01-01T16:26:18.000Z</time>
      </trkpt>
      <trkpt lat="45.79429" lon="6.26787">
        <ele>1076</ele>
        <time>2000-01-01T16:26:28.000Z</time>
      </trkpt>
      <trkpt lat="45.79439" lon="6.26788">
        <ele>1078.8</ele>
        <time>2000-01-01T16:26:38.000Z</time>
      </trkpt>
      <trkpt lat="45.79448" lon="6.26791">
        <ele>1077</ele>
        <time>2000-01-01T16:26:48.000Z</time>
      </trkpt>
      <trkpt lat="45.79456" lon="6.26795">
        <ele>1080.3</ele>
        <time>2000-01-01T16:26:58.000Z</time>
      </trkpt>
      <trkpt lat="45.79466" lon="6.26799">
        <ele>1078</ele>
        <time>2000-01-01T16:27:08.000Z</time>
      </trkpt>
      <trkpt lat="45.79474" lon="6.26805">
        <ele>1081.4</ele>
        <time>2000-01-01T16:27:18.000Z</time>
      </trkpt>
      <trkpt lat="45.79483" lon="6.26813">
        <ele>1082</ele>
        <time>2000-01-01T16:27:28.000Z</time>
      </trkpt>
      <trkpt lat="45.79491" lon="6.26824">
        <ele>1083.3</ele>
        <time>2000-01-01T16:27:38.000Z</time>
      </trkpt>
      <trkpt lat="45.79501" lon="6.26833">
        <ele>1077</ele>
        <time>2000-01-01T16:27:48.000Z</time>
      </trkpt>
      <trkpt lat="45.79522" lon="6.26838">
        <ele>1073</ele>
        <time>2000-01-01T16:27:58.000Z</time>
      </trkpt>
      <trkpt lat="45.7953" lon="6.26827">
        <ele>1073.6</ele>
        <time>2000-01-01T16:28:08.000Z</time>
      </trkpt>
      <trkpt lat="45.79537" lon="6.2682">
        <ele>1072</ele>
        <time>2000-01-01T16:28:18.000Z</time>
      </trkpt>
      <trkpt lat="45.79546" lon="6.26812">
        <ele>1072.6</ele>
        <time>2000-01-01T16:28:28.000Z</time>
      </trkpt>
      <trkpt lat="45.79557" lon="6.26808">
        <ele>1072</ele>
        <time>2000-01-01T16:28:38.000Z</time>
      </trkpt>
      <trkpt lat="45.79567" lon="6.26813">
        <ele>1073</ele>
        <time>2000-01-01T16:28:48.000Z</time>
      </trkpt>
      <trkpt lat="45.79576" lon="6.2682">
        <ele>1072</ele>
        <time>2000-01-01T16:28:58.000Z</time>
      </trkpt>
      <trkpt lat="45.79583" lon="6.26831">
        <ele>1073.6</ele>
        <time>2000-01-01T16:29:08.000Z</time>
      </trkpt>
      <trkpt lat="45.79597" lon="6.26858">
        <ele>1072</ele>
        <time>2000-01-01T16:29:18.000Z</time>
      </trkpt>
      <trkpt lat="45.79601" lon="6.2687">
        <ele>1072.3</ele>
        <time>2000-01-01T16:29:28.000Z</time>
      </trkpt>
      <trkpt lat="45.79608" lon="6.26882">
        <ele>1067</ele>
        <time>2000-01-01T16:29:38.000Z</time>
      </trkpt>
      <trkpt lat="45.79616" lon="6.26891">
        <ele>1070.8</ele>
        <time>2000-01-01T16:29:48.000Z</time>
      </trkpt>
      <trkpt lat="45.79626" lon="6.26885">
        <ele>1062</ele>
        <time>2000-01-01T16:29:58.000Z</time>
      </trkpt>
      <trkpt lat="45.7963" lon="6.26873">
        <ele>1064.5</ele>
        <time>2000-01-01T16:30:08.000Z</time>
      </trkpt>
      <trkpt lat="45.79635" lon="6.2686">
        <ele>1053</ele>
        <time>2000-01-01T16:30:18.000Z</time>
      </trkpt>
      <trkpt lat="45.7964" lon="6.26848">
        <ele>1056</ele>
        <time>2000-01-01T16:30:28.000Z</time>
      </trkpt>
      <trkpt lat="45.79651" lon="6.26807">
        <ele>1047</ele>
        <time>2000-01-01T16:30:38.000Z</time>
      </trkpt>
      <trkpt lat="45.79654" lon="6.26793">
        <ele>1049.5</ele>
        <time>2000-01-01T16:30:48.000Z</time>
      </trkpt>
      <trkpt lat="45.79656" lon="6.26778">
        <ele>1047</ele>
        <time>2000-01-01T16:30:58.000Z</time>
      </trkpt>
      <trkpt lat="45.79661" lon="6.26766">
        <ele>1048.5</ele>
        <time>2000-01-01T16:31:08.000Z</time>
      </trkpt>
      <trkpt lat="45.7967" lon="6.26759">
        <ele>1047</ele>
        <time>2000-01-01T16:31:18.000Z</time>
      </trkpt>
      <trkpt lat="45.79679" lon="6.26761">
        <ele>1050.1</ele>
        <time>2000-01-01T16:31:28.000Z</time>
      </trkpt>
      <trkpt lat="45.79687" lon="6.26767">
        <ele>1050.9</ele>
        <time>2000-01-01T16:31:38.000Z</time>
      </trkpt>
      <trkpt lat="45.79696" lon="6.26773">
        <ele>1045</ele>
        <time>2000-01-01T16:31:48.000Z</time>
      </trkpt>
      <trkpt lat="45.79707" lon="6.26771">
        <ele>1049.6</ele>
        <time>2000-01-01T16:31:58.000Z</time>
      </trkpt>
      <trkpt lat="45.79729" lon="6.26769">
        <ele>1047</ele>
        <time>2000-01-01T16:32:08.000Z</time>
      </trkpt>
      <trkpt lat="45.79752" lon="6.2677">
        <ele>1046</ele>
        <time>2000-01-01T16:32:18.000Z</time>
      </trkpt>
      <trkpt lat="45.79763" lon="6.26769">
        <ele>1048.8</ele>
        <time>2000-01-01T16:32:28.000Z</time>
      </trkpt>
      <trkpt lat="45.79783" lon="6.26766">
        <ele>1046</ele>
        <time>2000-01-01T16:32:38.000Z</time>
      </trkpt>
      <trkpt lat="45.79802" lon="6.26761">
        <ele>1047</ele>
        <time>2000-01-01T16:32:48.000Z</time>
      </trkpt>
      <trkpt lat="45.79812" lon="6.26757">
        <ele>1050.1</ele>
        <time>2000-01-01T16:32:58.000Z</time>
      </trkpt>
      <trkpt lat="45.79821" lon="6.2675">
        <ele>1045</ele>
        <time>2000-01-01T16:33:08.000Z</time>
      </trkpt>
      <trkpt lat="45.79829" lon="6.26743">
        <ele>1049.7</ele>
        <time>2000-01-01T16:33:18.000Z</time>
      </trkpt>
      <trkpt lat="45.79838" lon="6.26735">
        <ele>1046</ele>
        <time>2000-01-01T16:33:28.000Z</time>
      </trkpt>
      <trkpt lat="45.79847" lon="6.26733">
        <ele>1046.2</ele>
        <time>2000-01-01T16:33:38.000Z</time>
      </trkpt>
      <trkpt lat="45.79859" lon="6.26734">
        <ele>1045</ele>
        <time>2000-01-01T16:33:48.000Z</time>
      </trkpt>
      <trkpt lat="45.79868" lon="6.26738">
        <ele>1044.6</ele>
        <time>2000-01-01T16:33:58.000Z</time>
      </trkpt>
      <trkpt lat="45.79876" lon="6.26747">
        <ele>1045</ele>
        <time>2000-01-01T16:34:08.000Z</time>
      </trkpt>
      <trkpt lat="45.79891" lon="6.26769">
        <ele>1038</ele>
        <time>2000-01-01T16:34:18.000Z</time>
      </trkpt>
      <trkpt lat="45.79901" lon="6.26776">
        <ele>1039</ele>
        <time>2000-01-01T16:34:28.000Z</time>
      </trkpt>
      <trkpt lat="45.79912" lon="6.26781">
        <ele>1037</ele>
        <time>2000-01-01T16:34:38.000Z</time>
      </trkpt>
      <trkpt lat="45.79932" lon="6.26792">
        <ele>1036</ele>
        <time>2000-01-01T16:34:48.000Z</time>
      </trkpt>
      <trkpt lat="45.79941" lon="6.26796">
        <ele>1038.8</ele>
        <time>2000-01-01T16:34:58.000Z</time>
      </trkpt>
      <trkpt lat="45.7995" lon="6.26798">
        <ele>1039.6</ele>
        <time>2000-01-01T16:35:08.000Z</time>
      </trkpt>
      <trkpt lat="45.7996" lon="6.26795">
        <ele>1034</ele>
        <time>2000-01-01T16:35:18.000Z</time>
      </trkpt>
      <trkpt lat="45.79955" lon="6.26784">
        <ele>1039.2</ele>
        <time>2000-01-01T16:35:28.000Z</time>
      </trkpt>
      <trkpt lat="45.79956" lon="6.26755">
        <ele>1034</ele>
        <time>2000-01-01T16:35:38.000Z</time>
      </trkpt>
      <trkpt lat="45.79955" lon="6.26726">
        <ele>1033</ele>
        <time>2000-01-01T16:35:48.000Z</time>
      </trkpt>
      <trkpt lat="45.79953" lon="6.26709">
        <ele>1038.4</ele>
        <time>2000-01-01T16:35:58.000Z</time>
      </trkpt>
      <trkpt lat="45.79949" lon="6.26682">
        <ele>1035</ele>
        <time>2000-01-01T16:36:08.000Z</time>
      </trkpt>
      <trkpt lat="45.79944" lon="6.26667">
        <ele>1038.6</ele>
        <time>2000-01-01T16:36:18.000Z</time>
      </trkpt>
      <trkpt lat="45.79933" lon="6.26642">
        <ele>1037</ele>
        <time>2000-01-01T16:36:28.000Z</time>
      </trkpt>
      <trkpt lat="45.79924" lon="6.26617">
        <ele>1038</ele>
        <time>2000-01-01T16:36:38.000Z</time>
      </trkpt>
      <trkpt lat="45.79927" lon="6.26604">
        <ele>1039.8</ele>
        <time>2000-01-01T16:36:48.000Z</time>
      </trkpt>
      <trkpt lat="45.79931" lon="6.26597">
        <ele>1040.6</ele>
        <time>2000-01-01T16:36:58.000Z</time>
      </trkpt>
      <trkpt lat="45.79937" lon="6.2659">
        <ele>1041</ele>
        <time>2000-01-01T16:37:08.000Z</time>
      </trkpt>
      <trkpt lat="45.79939" lon="6.2659">
        <ele>1041.9</ele>
        <time>2000-01-01T16:37:18.000Z</time>
      </trkpt>
      <trkpt lat="45.79946" lon="6.26585">
        <ele>1042.5</ele>
        <time>2000-01-01T16:37:28.000Z</time>
      </trkpt>
      <trkpt lat="45.7996" lon="6.26584">
        <ele>1042</ele>
        <time>2000-01-01T16:37:38.000Z</time>
      </trkpt>
      <trkpt lat="45.79967" lon="6.26583">
        <ele>1044.4</ele>
        <time>2000-01-01T16:37:48.000Z</time>
      </trkpt>
      <trkpt lat="45.7997" lon="6.2658">
        <ele>1044</ele>
        <time>2000-01-01T16:37:58.000Z</time>
      </trkpt>
      <trkpt lat="45.79982" lon="6.26573">
        <ele>1042</ele>
        <time>2000-01-01T16:38:08.000Z</time>
      </trkpt>
      <trkpt lat="45.80015" lon="6.26547">
        <ele>1042</ele>
        <time>2000-01-01T16:38:18.000Z</time>
      </trkpt>
      <trkpt lat="45.80039" lon="6.2653">
        <ele>1044</ele>
        <time>2000-01-01T16:38:28.000Z</time>
      </trkpt>
      <trkpt lat="45.80041" lon="6.26527">
        <ele>1046.2</ele>
        <time>2000-01-01T16:38:38.000Z</time>
      </trkpt>
      <trkpt lat="45.80049" lon="6.26515">
        <ele>1046.9</ele>
        <time>2000-01-01T16:38:48.000Z</time>
      </trkpt>
      <trkpt lat="45.80053" lon="6.2651">
        <ele>1045</ele>
        <time>2000-01-01T16:38:58.000Z</time>
      </trkpt>
      <trkpt lat="45.80059" lon="6.26498">
        <ele>1047.3</ele>
        <time>2000-01-01T16:39:08.000Z</time>
      </trkpt>
      <trkpt lat="45.80068" lon="6.26484">
        <ele>1046</ele>
        <time>2000-01-01T16:39:18.000Z</time>
      </trkpt>
      <trkpt lat="45.80077" lon="6.26474">
        <ele>1048</ele>
        <time>2000-01-01T16:39:28.000Z</time>
      </trkpt>
      <trkpt lat="45.80082" lon="6.2647">
        <ele>1048.5</ele>
        <time>2000-01-01T16:39:38.000Z</time>
      </trkpt>
      <trkpt lat="45.80091" lon="6.26464">
        <ele>1048</ele>
        <time>2000-01-01T16:39:48.000Z</time>
      </trkpt>
      <trkpt lat="45.80097" lon="6.26462">
        <ele>1048.8</ele>
        <time>2000-01-01T16:39:58.000Z</time>
      </trkpt>
      <trkpt lat="45.80103" lon="6.26461">
        <ele>1049.1</ele>
        <time>2000-01-01T16:40:08.000Z</time>
      </trkpt>
      <trkpt lat="45.8013" lon="6.26461">
        <ele>1048</ele>
        <time>2000-01-01T16:40:18.000Z</time>
      </trkpt>
      <trkpt lat="45.80149" lon="6.26463">
        <ele>1048</ele>
        <time>2000-01-01T16:40:28.000Z</time>
      </trkpt>
      <trkpt lat="45.8016" lon="6.26466">
        <ele>1046.2</ele>
        <time>2000-01-01T16:40:38.000Z</time>
      </trkpt>
      <trkpt lat="45.80166" lon="6.26467">
        <ele>1045.5</ele>
        <time>2000-01-01T16:40:48.000Z</time>
      </trkpt>
      <trkpt lat="45.80176" lon="6.26472">
        <ele>1045</ele>
        <time>2000-01-01T16:40:58.000Z</time>
      </trkpt>
      <trkpt lat="45.80189" lon="6.2649">
        <ele>1044.7</ele>
        <time>2000-01-01T16:41:08.000Z</time>
      </trkpt>
      <trkpt lat="45.80204" lon="6.26494">
        <ele>1042</ele>
        <time>2000-01-01T16:41:18.000Z</time>
      </trkpt>
      <trkpt lat="45.80207" lon="6.26494">
        <ele>1044.1</ele>
        <time>2000-01-01T16:41:28.000Z</time>
      </trkpt>
      <trkpt lat="45.80211" lon="6.26494">
        <ele>1043.9</ele>
        <time>2000-01-01T16:41:38.000Z</time>
      </trkpt>
      <trkpt lat="45.80221" lon="6.26489">
        <ele>1042.5</ele>
        <time>2000-01-01T16:41:48.000Z</time>
      </trkpt>
      <trkpt lat="45.8023" lon="6.26477">
        <ele>1041</ele>
        <time>2000-01-01T16:41:58.000Z</time>
      </trkpt>
      <trkpt lat="45.80237" lon="6.26465">
        <ele>1040.9</ele>
        <time>2000-01-01T16:42:08.000Z</time>
      </trkpt>
      <trkpt lat="45.80239" lon="6.26463">
        <ele>1040.9</ele>
        <time>2000-01-01T16:42:18.000Z</time>
      </trkpt>
      <trkpt lat="45.80241" lon="6.2646">
        <ele>1040.6</ele>
        <time>2000-01-01T16:42:28.000Z</time>
      </trkpt>
      <trkpt lat="45.80247" lon="6.26453">
        <ele>1042</ele>
        <time>2000-01-01T16:42:38.000Z</time>
      </trkpt>
      <trkpt lat="45.80252" lon="6.2645">
        <ele>1040.4</ele>
        <time>2000-01-01T16:42:48.000Z</time>
      </trkpt>
      <trkpt lat="45.80263" lon="6.26449">
        <ele>1042.5</ele>
        <time>2000-01-01T16:42:58.000Z</time>
      </trkpt>
      <trkpt lat="45.80274" lon="6.26451">
        <ele>1043</ele>
        <time>2000-01-01T16:43:08.000Z</time>
      </trkpt>
      <trkpt lat="45.80301" lon="6.26466">
        <ele>1049</ele>
        <time>2000-01-01T16:43:18.000Z</time>
      </trkpt>
      <trkpt lat="45.80312" lon="6.26469">
        <ele>1051.9</ele>
        <time>2000-01-01T16:43:28.000Z</time>
      </trkpt>
      <trkpt lat="45.80321" lon="6.2647">
        <ele>1053</ele>
        <time>2000-01-01T16:43:38.000Z</time>
      </trkpt>
      <trkpt lat="45.8033" lon="6.26473">
        <ele>1053.7</ele>
        <time>2000-01-01T16:43:48.000Z</time>
      </trkpt>
      <trkpt lat="45.80338" lon="6.26471">
        <ele>1053.5</ele>
        <time>2000-01-01T16:43:58.000Z</time>
      </trkpt>
      <trkpt lat="45.80339" lon="6.26471">
        <ele>1053.4</ele>
        <time>2000-01-01T16:44:08.000Z</time>
      </trkpt>
      <trkpt lat="45.8034" lon="6.26472">
        <ele>1053</ele>
        <time>2000-01-01T16:44:18.000Z</time>
      </trkpt>
      <trkpt lat="45.80342" lon="6.26481">
        <ele>1054</ele>
        <time>2000-01-01T16:44:28.000Z</time>
      </trkpt>
      <trkpt lat="45.80347" lon="6.26493">
        <ele>1054.8</ele>
        <time>2000-01-01T16:44:38.000Z</time>
      </trkpt>
      <trkpt lat="45.80347" lon="6.26507">
        <ele>1057</ele>
        <time>2000-01-01T16:44:48.000Z</time>
      </trkpt>
      <trkpt lat="45.80352" lon="6.26534">
        <ele>1062</ele>
        <time>2000-01-01T16:44:58.000Z</time>
      </trkpt>
      <trkpt lat="45.80355" lon="6.26548">
        <ele>1064.5</ele>
        <time>2000-01-01T16:45:08.000Z</time>
      </trkpt>
      <trkpt lat="45.80357" lon="6.26562">
        <ele>1067</ele>
        <time>2000-01-01T16:45:18.000Z</time>
      </trkpt>
      <trkpt lat="45.80359" lon="6.26573">
        <ele>1069.1</ele>
        <time>2000-01-01T16:45:28.000Z</time>
      </trkpt>
      <trkpt lat="45.80364" lon="6.26574">
        <ele>1069.2</ele>
        <time>2000-01-01T16:45:38.000Z</time>
      </trkpt>
      <trkpt lat="45.80369" lon="6.26586">
        <ele>1069</ele>
        <time>2000-01-01T16:45:48.000Z</time>
      </trkpt>
      <trkpt lat="45.80375" lon="6.26596">
        <ele>1074.2</ele>
        <time>2000-01-01T16:45:58.000Z</time>
      </trkpt>
      <trkpt lat="45.80383" lon="6.26603">
        <ele>1074</ele>
        <time>2000-01-01T16:46:08.000Z</time>
      </trkpt>
      <trkpt lat="45.80387" lon="6.26612">
        <ele>1077.3</ele>
        <time>2000-01-01T16:46:18.000Z</time>
      </trkpt>
      <trkpt lat="45.80391" lon="6.26622">
        <ele>1078.8</ele>
        <time>2000-01-01T16:46:28.000Z</time>
      </trkpt>
      <trkpt lat="45.804" lon="6.26645">
        <ele>1081</ele>
        <time>2000-01-01T16:46:38.000Z</time>
      </trkpt>
      <trkpt lat="45.80409" lon="6.26648">
        <ele>1083.4</ele>
        <time>2000-01-01T16:46:48.000Z</time>
      </trkpt>
      <trkpt lat="45.80425" lon="6.26666">
        <ele>1086</ele>
        <time>2000-01-01T16:46:58.000Z</time>
      </trkpt>
      <trkpt lat="45.80432" lon="6.26677">
        <ele>1090.4</ele>
        <time>2000-01-01T16:47:08.000Z</time>
      </trkpt>
      <trkpt lat="45.80459" lon="6.26718">
        <ele>1098</ele>
        <time>2000-01-01T16:47:18.000Z</time>
      </trkpt>
      <trkpt lat="45.80467" lon="6.26744">
        <ele>1105</ele>
        <time>2000-01-01T16:47:28.000Z</time>
      </trkpt>
      <trkpt lat="45.80475" lon="6.26752">
        <ele>1110.9</ele>
        <time>2000-01-01T16:47:38.000Z</time>
      </trkpt>
      <trkpt lat="45.80481" lon="6.26762">
        <ele>1111</ele>
        <time>2000-01-01T16:47:48.000Z</time>
      </trkpt>
      <trkpt lat="45.8049" lon="6.26769">
        <ele>1117.2</ele>
        <time>2000-01-01T16:47:58.000Z</time>
      </trkpt>
      <trkpt lat="45.80498" lon="6.26773">
        <ele>1117</ele>
        <time>2000-01-01T16:48:08.000Z</time>
      </trkpt>
      <trkpt lat="45.80507" lon="6.26774">
        <ele>1119.8</ele>
        <time>2000-01-01T16:48:18.000Z</time>
      </trkpt>
      <trkpt lat="45.80518" lon="6.26774">
        <ele>1119</ele>
        <time>2000-01-01T16:48:28.000Z</time>
      </trkpt>
      <trkpt lat="45.80536" lon="6.26782">
        <ele>1124</ele>
        <time>2000-01-01T16:48:38.000Z</time>
      </trkpt>
      <trkpt lat="45.80545" lon="6.26787">
        <ele>1125.5</ele>
        <time>2000-01-01T16:48:48.000Z</time>
      </trkpt>
      <trkpt lat="45.80553" lon="6.26795">
        <ele>1126</ele>
        <time>2000-01-01T16:48:58.000Z</time>
      </trkpt>
      <trkpt lat="45.80562" lon="6.26801">
        <ele>1129.9</ele>
        <time>2000-01-01T16:49:08.000Z</time>
      </trkpt>
      <trkpt lat="45.80571" lon="6.26805">
        <ele>1129</ele>
        <time>2000-01-01T16:49:18.000Z</time>
      </trkpt>
      <trkpt lat="45.80581" lon="6.26806">
        <ele>1132</ele>
        <time>2000-01-01T16:49:28.000Z</time>
      </trkpt>
      <trkpt lat="45.80597" lon="6.26811">
        <ele>1132</ele>
        <time>2000-01-01T16:49:38.000Z</time>
      </trkpt>
      <trkpt lat="45.80606" lon="6.26814">
        <ele>1133.4</ele>
        <time>2000-01-01T16:49:48.000Z</time>
      </trkpt>
      <trkpt lat="45.80625" lon="6.26829">
        <ele>1134</ele>
        <time>2000-01-01T16:49:58.000Z</time>
      </trkpt>
      <trkpt lat="45.80633" lon="6.26839">
        <ele>1134.6</ele>
        <time>2000-01-01T16:50:08.000Z</time>
      </trkpt>
      <trkpt lat="45.80638" lon="6.26852">
        <ele>1133</ele>
        <time>2000-01-01T16:50:18.000Z</time>
      </trkpt>
      <trkpt lat="45.80642" lon="6.26865">
        <ele>1132.4</ele>
        <time>2000-01-01T16:50:28.000Z</time>
      </trkpt>
      <trkpt lat="45.80645" lon="6.2688">
        <ele>1133</ele>
        <time>2000-01-01T16:50:38.000Z</time>
      </trkpt>
      <trkpt lat="45.80643" lon="6.26893">
        <ele>1133.3</ele>
        <time>2000-01-01T16:50:48.000Z</time>
      </trkpt>
      <trkpt lat="45.8064" lon="6.26907">
        <ele>1133</ele>
        <time>2000-01-01T16:50:58.000Z</time>
      </trkpt>
      <trkpt lat="45.80641" lon="6.26921">
        <ele>1137.7</ele>
        <time>2000-01-01T16:51:08.000Z</time>
      </trkpt>
      <trkpt lat="45.80645" lon="6.26934">
        <ele>1141</ele>
        <time>2000-01-01T16:51:18.000Z</time>
      </trkpt>
      <trkpt lat="45.80652" lon="6.26946">
        <ele>1143.6</ele>
        <time>2000-01-01T16:51:28.000Z</time>
      </trkpt>
      <trkpt lat="45.8066" lon="6.26953">
        <ele>1143</ele>
        <time>2000-01-01T16:51:38.000Z</time>
      </trkpt>
      <trkpt lat="45.8067" lon="6.26955">
        <ele>1146.3</ele>
        <time>2000-01-01T16:51:48.000Z</time>
      </trkpt>
      <trkpt lat="45.8068" lon="6.26959">
        <ele>1143</ele>
        <time>2000-01-01T16:51:58.000Z</time>
      </trkpt>
      <trkpt lat="45.80708" lon="6.26951">
        <ele>1144</ele>
        <time>2000-01-01T16:52:08.000Z</time>
      </trkpt>
      <trkpt lat="45.80719" lon="6.26952">
        <ele>1147.2</ele>
        <time>2000-01-01T16:52:18.000Z</time>
      </trkpt>
      <trkpt lat="45.80728" lon="6.26951">
        <ele>1146</ele>
        <time>2000-01-01T16:52:28.000Z</time>
      </trkpt>
      <trkpt lat="45.80739" lon="6.26947">
        <ele>1149.4</ele>
        <time>2000-01-01T16:52:38.000Z</time>
      </trkpt>
      <trkpt lat="45.80748" lon="6.26947">
        <ele>1147</ele>
        <time>2000-01-01T16:52:48.000Z</time>
      </trkpt>
      <trkpt lat="45.80758" lon="6.26952">
        <ele>1151</ele>
        <time>2000-01-01T16:52:58.000Z</time>
      </trkpt>
      <trkpt lat="45.80792" lon="6.26989">
        <ele>1151</ele>
        <time>2000-01-01T16:53:08.000Z</time>
      </trkpt>
      <trkpt lat="45.80803" lon="6.26994">
        <ele>1154.1</ele>
        <time>2000-01-01T16:53:18.000Z</time>
      </trkpt>
      <trkpt lat="45.80811" lon="6.27001">
        <ele>1150</ele>
        <time>2000-01-01T16:53:28.000Z</time>
      </trkpt>
      <trkpt lat="45.8082" lon="6.27006">
        <ele>1153.4</ele>
        <time>2000-01-01T16:53:38.000Z</time>
      </trkpt>
      <trkpt lat="45.80841" lon="6.27015">
        <ele>1150</ele>
        <time>2000-01-01T16:53:48.000Z</time>
      </trkpt>
      <trkpt lat="45.80852" lon="6.27023">
        <ele>1150.6</ele>
        <time>2000-01-01T16:53:58.000Z</time>
      </trkpt>
      <trkpt lat="45.80863" lon="6.27033">
        <ele>1150</ele>
        <time>2000-01-01T16:54:08.000Z</time>
      </trkpt>
      <trkpt lat="45.8087" lon="6.27043">
        <ele>1153.6</ele>
        <time>2000-01-01T16:54:18.000Z</time>
      </trkpt>
      <trkpt lat="45.80878" lon="6.27056">
        <ele>1151</ele>
        <time>2000-01-01T16:54:28.000Z</time>
      </trkpt>
      <trkpt lat="45.80885" lon="6.27064">
        <ele>1155.4</ele>
        <time>2000-01-01T16:54:38.000Z</time>
      </trkpt>
      <trkpt lat="45.80892" lon="6.27051">
        <ele>1149</ele>
        <time>2000-01-01T16:54:48.000Z</time>
      </trkpt>
      <trkpt lat="45.8089" lon="6.27036">
        <ele>1152.8</ele>
        <time>2000-01-01T16:54:58.000Z</time>
      </trkpt>
      <trkpt lat="45.80887" lon="6.27022">
        <ele>1151</ele>
        <time>2000-01-01T16:55:08.000Z</time>
      </trkpt>
      <trkpt lat="45.80888" lon="6.27006">
        <ele>1151.7</ele>
        <time>2000-01-01T16:55:18.000Z</time>
      </trkpt>
      <trkpt lat="45.8089" lon="6.26993">
        <ele>1151</ele>
        <time>2000-01-01T16:55:28.000Z</time>
      </trkpt>
      <trkpt lat="45.80892" lon="6.2698">
        <ele>1154.5</ele>
        <time>2000-01-01T16:55:38.000Z</time>
      </trkpt>
      <trkpt lat="45.80895" lon="6.26965">
        <ele>1152</ele>
        <time>2000-01-01T16:55:48.000Z</time>
      </trkpt>
      <trkpt lat="45.80904" lon="6.26941">
        <ele>1160</ele>
        <time>2000-01-01T16:55:58.000Z</time>
      </trkpt>
      <trkpt lat="45.80909" lon="6.26926">
        <ele>1163.8</ele>
        <time>2000-01-01T16:56:08.000Z</time>
      </trkpt>
      <trkpt lat="45.80916" lon="6.26915">
        <ele>1162</ele>
        <time>2000-01-01T16:56:18.000Z</time>
      </trkpt>
      <trkpt lat="45.80924" lon="6.26905">
        <ele>1168.1</ele>
        <time>2000-01-01T16:56:28.000Z</time>
      </trkpt>
      <trkpt lat="45.80933" lon="6.269">
        <ele>1170</ele>
        <time>2000-01-01T16:56:38.000Z</time>
      </trkpt>
      <trkpt lat="45.80941" lon="6.26893">
        <ele>1175.3</ele>
        <time>2000-01-01T16:56:48.000Z</time>
      </trkpt>
      <trkpt lat="45.80947" lon="6.26884">
        <ele>1179.3</ele>
        <time>2000-01-01T16:56:58.000Z</time>
      </trkpt>
      <trkpt lat="45.80943" lon="6.26872">
        <ele>1177</ele>
        <time>2000-01-01T16:57:08.000Z</time>
      </trkpt>
      <trkpt lat="45.8094" lon="6.26859">
        <ele>1180.5</ele>
        <time>2000-01-01T16:57:18.000Z</time>
      </trkpt>
      <trkpt lat="45.80941" lon="6.26849">
        <ele>1182.1</ele>
        <time>2000-01-01T16:57:28.000Z</time>
      </trkpt>
      <trkpt lat="45.80947" lon="6.26838">
        <ele>1182</ele>
        <time>2000-01-01T16:57:38.000Z</time>
      </trkpt>
      <trkpt lat="45.80967" lon="6.26836">
        <ele>1187</ele>
        <time>2000-01-01T16:57:48.000Z</time>
      </trkpt>
      <trkpt lat="45.80976" lon="6.26834">
        <ele>1191.6</ele>
        <time>2000-01-01T16:57:58.000Z</time>
      </trkpt>
      <trkpt lat="45.80986" lon="6.26834">
        <ele>1190</ele>
        <time>2000-01-01T16:58:08.000Z</time>
      </trkpt>
      <trkpt lat="45.80995" lon="6.26837">
        <ele>1195</ele>
        <time>2000-01-01T16:58:18.000Z</time>
      </trkpt>
      <trkpt lat="45.81017" lon="6.26835">
        <ele>1194</ele>
        <time>2000-01-01T16:58:28.000Z</time>
      </trkpt>
      <trkpt lat="45.81025" lon="6.26828">
        <ele>1198.6</ele>
        <time>2000-01-01T16:58:38.000Z</time>
      </trkpt>
      <trkpt lat="45.81022" lon="6.26811">
        <ele>1193</ele>
        <time>2000-01-01T16:58:48.000Z</time>
      </trkpt>
      <trkpt lat="45.81013" lon="6.26784">
        <ele>1192</ele>
        <time>2000-01-01T16:58:58.000Z</time>
      </trkpt>
      <trkpt lat="45.81012" lon="6.2677">
        <ele>1193.3</ele>
        <time>2000-01-01T16:59:08.000Z</time>
      </trkpt>
      <trkpt lat="45.81013" lon="6.26755">
        <ele>1190</ele>
        <time>2000-01-01T16:59:18.000Z</time>
      </trkpt>
      <trkpt lat="45.81014" lon="6.26741">
        <ele>1193.1</ele>
        <time>2000-01-01T16:59:28.000Z</time>
      </trkpt>
      <trkpt lat="45.81018" lon="6.26714">
        <ele>1189</ele>
        <time>2000-01-01T16:59:38.000Z</time>
      </trkpt>
      <trkpt lat="45.81022" lon="6.26701">
        <ele>1192.5</ele>
        <time>2000-01-01T16:59:48.000Z</time>
      </trkpt>
      <trkpt lat="45.81029" lon="6.26688">
        <ele>1189</ele>
        <time>2000-01-01T16:59:58.000Z</time>
      </trkpt>
      <trkpt lat="45.81038" lon="6.26683">
        <ele>1191.3</ele>
        <time>2000-01-01T17:00:08.000Z</time>
      </trkpt>
      <trkpt lat="45.81058" lon="6.26686">
        <ele>1192</ele>
        <time>2000-01-01T17:00:18.000Z</time>
      </trkpt>
      <trkpt lat="45.81076" lon="6.26705">
        <ele>1198</ele>
        <time>2000-01-01T17:00:28.000Z</time>
      </trkpt>
      <trkpt lat="45.81084" lon="6.26711">
        <ele>1203</ele>
        <time>2000-01-01T17:00:38.000Z</time>
      </trkpt>
      <trkpt lat="45.81093" lon="6.26712">
        <ele>1203.5</ele>
        <time>2000-01-01T17:00:48.000Z</time>
      </trkpt>
      <trkpt lat="45.81111" lon="6.2672">
        <ele>1203</ele>
        <time>2000-01-01T17:00:58.000Z</time>
      </trkpt>
      <trkpt lat="45.81119" lon="6.26725">
        <ele>1209.8</ele>
        <time>2000-01-01T17:01:08.000Z</time>
      </trkpt>
      <trkpt lat="45.81129" lon="6.26728">
        <ele>1208</ele>
        <time>2000-01-01T17:01:18.000Z</time>
      </trkpt>
      <trkpt lat="45.81148" lon="6.26741">
        <ele>1212</ele>
        <time>2000-01-01T17:01:28.000Z</time>
      </trkpt>
      <trkpt lat="45.81157" lon="6.26742">
        <ele>1217.1</ele>
        <time>2000-01-01T17:01:38.000Z</time>
      </trkpt>
      <trkpt lat="45.81165" lon="6.2675">
        <ele>1216</ele>
        <time>2000-01-01T17:01:48.000Z</time>
      </trkpt>
      <trkpt lat="45.81175" lon="6.26753">
        <ele>1221.1</ele>
        <time>2000-01-01T17:01:58.000Z</time>
      </trkpt>
      <trkpt lat="45.81185" lon="6.26759">
        <ele>1218</ele>
        <time>2000-01-01T17:02:08.000Z</time>
      </trkpt>
      <trkpt lat="45.81198" lon="6.26759">
        <ele>1224.1</ele>
        <time>2000-01-01T17:02:18.000Z</time>
      </trkpt>
      <trkpt lat="45.81209" lon="6.26755">
        <ele>1218</ele>
        <time>2000-01-01T17:02:28.000Z</time>
      </trkpt>
      <trkpt lat="45.81227" lon="6.26743">
        <ele>1215</ele>
        <time>2000-01-01T17:02:38.000Z</time>
      </trkpt>
      <trkpt lat="45.81233" lon="6.26731">
        <ele>1218.8</ele>
        <time>2000-01-01T17:02:48.000Z</time>
      </trkpt>
      <trkpt lat="45.81238" lon="6.26716">
        <ele>1213</ele>
        <time>2000-01-01T17:02:58.000Z</time>
      </trkpt>
      <trkpt lat="45.81249" lon="6.26713">
        <ele>1215.5</ele>
        <time>2000-01-01T17:03:08.000Z</time>
      </trkpt>
      <trkpt lat="45.81257" lon="6.26702">
        <ele>1214</ele>
        <time>2000-01-01T17:03:18.000Z</time>
      </trkpt>
      <trkpt lat="45.81264" lon="6.26693">
        <ele>1214.5</ele>
        <time>2000-01-01T17:03:28.000Z</time>
      </trkpt>
      <trkpt lat="45.81284" lon="6.26681">
        <ele>1214</ele>
        <time>2000-01-01T17:03:38.000Z</time>
      </trkpt>
      <trkpt lat="45.81293" lon="6.26676">
        <ele>1215.6</ele>
        <time>2000-01-01T17:03:48.000Z</time>
      </trkpt>
      <trkpt lat="45.81305" lon="6.26672">
        <ele>1214</ele>
        <time>2000-01-01T17:03:58.000Z</time>
      </trkpt>
      <trkpt lat="45.81324" lon="6.26667">
        <ele>1213</ele>
        <time>2000-01-01T17:04:08.000Z</time>
      </trkpt>
      <trkpt lat="45.81334" lon="6.26672">
        <ele>1212.5</ele>
        <time>2000-01-01T17:04:18.000Z</time>
      </trkpt>
      <trkpt lat="45.81341" lon="6.26684">
        <ele>1213</ele>
        <time>2000-01-01T17:04:28.000Z</time>
      </trkpt>
      <trkpt lat="45.8135" lon="6.26679">
        <ele>1218.5</ele>
        <time>2000-01-01T17:04:38.000Z</time>
      </trkpt>
      <trkpt lat="45.81359" lon="6.26666">
        <ele>1210</ele>
        <time>2000-01-01T17:04:48.000Z</time>
      </trkpt>
      <trkpt lat="45.81366" lon="6.26655">
        <ele>1215.6</ele>
        <time>2000-01-01T17:04:58.000Z</time>
      </trkpt>
      <trkpt lat="45.81376" lon="6.26646">
        <ele>1211</ele>
        <time>2000-01-01T17:05:08.000Z</time>
      </trkpt>
      <trkpt lat="45.81383" lon="6.26637">
        <ele>1216.8</ele>
        <time>2000-01-01T17:05:18.000Z</time>
      </trkpt>
      <trkpt lat="45.81387" lon="6.26626">
        <ele>1214.9</ele>
        <time>2000-01-01T17:05:28.000Z</time>
      </trkpt>
      <trkpt lat="45.81394" lon="6.26615">
        <ele>1209</ele>
        <time>2000-01-01T17:05:38.000Z</time>
      </trkpt>
      <trkpt lat="45.81397" lon="6.26601">
        <ele>1213.3</ele>
        <time>2000-01-01T17:05:48.000Z</time>
      </trkpt>
      <trkpt lat="45.81398" lon="6.26586">
        <ele>1207</ele>
        <time>2000-01-01T17:05:58.000Z</time>
      </trkpt>
      <trkpt lat="45.81401" lon="6.26572">
        <ele>1208.8</ele>
        <time>2000-01-01T17:06:08.000Z</time>
      </trkpt>
      <trkpt lat="45.81415" lon="6.26553">
        <ele>1206</ele>
        <time>2000-01-01T17:06:18.000Z</time>
      </trkpt>
      <trkpt lat="45.81424" lon="6.26547">
        <ele>1207.7</ele>
        <time>2000-01-01T17:06:28.000Z</time>
      </trkpt>
      <trkpt lat="45.81435" lon="6.26541">
        <ele>1206</ele>
        <time>2000-01-01T17:06:38.000Z</time>
      </trkpt>
      <trkpt lat="45.81448" lon="6.26539">
        <ele>1210</ele>
        <time>2000-01-01T17:06:48.000Z</time>
      </trkpt>
      <trkpt lat="45.81467" lon="6.26529">
        <ele>1207</ele>
        <time>2000-01-01T17:06:58.000Z</time>
      </trkpt>
      <trkpt lat="45.81476" lon="6.26527">
        <ele>1210.7</ele>
        <time>2000-01-01T17:07:08.000Z</time>
      </trkpt>
      <trkpt lat="45.81485" lon="6.26521">
        <ele>1209</ele>
        <time>2000-01-01T17:07:18.000Z</time>
      </trkpt>
      <trkpt lat="45.81496" lon="6.2652">
        <ele>1213.5</ele>
        <time>2000-01-01T17:07:28.000Z</time>
      </trkpt>
      <trkpt lat="45.81506" lon="6.26516">
        <ele>1210</ele>
        <time>2000-01-01T17:07:38.000Z</time>
      </trkpt>
      <trkpt lat="45.81515" lon="6.26515">
        <ele>1214.8</ele>
        <time>2000-01-01T17:07:48.000Z</time>
      </trkpt>
      <trkpt lat="45.81525" lon="6.26519">
        <ele>1214</ele>
        <time>2000-01-01T17:07:58.000Z</time>
      </trkpt>
      <trkpt lat="45.81535" lon="6.26523">
        <ele>1219.8</ele>
        <time>2000-01-01T17:08:08.000Z</time>
      </trkpt>
      <trkpt lat="45.81559" lon="6.26526">
        <ele>1219</ele>
        <time>2000-01-01T17:08:18.000Z</time>
      </trkpt>
      <trkpt lat="45.8158" lon="6.26526">
        <ele>1222</ele>
        <time>2000-01-01T17:08:28.000Z</time>
      </trkpt>
      <trkpt lat="45.81603" lon="6.26518">
        <ele>1222</ele>
        <time>2000-01-01T17:08:38.000Z</time>
      </trkpt>
      <trkpt lat="45.81614" lon="6.26518">
        <ele>1225.2</ele>
        <time>2000-01-01T17:08:48.000Z</time>
      </trkpt>
      <trkpt lat="45.81645" lon="6.26525">
        <ele>1222</ele>
        <time>2000-01-01T17:08:58.000Z</time>
      </trkpt>
      <trkpt lat="45.81655" lon="6.26522">
        <ele>1225.2</ele>
        <time>2000-01-01T17:09:08.000Z</time>
      </trkpt>
      <trkpt lat="45.81665" lon="6.2652">
        <ele>1223</ele>
        <time>2000-01-01T17:09:18.000Z</time>
      </trkpt>
      <trkpt lat="45.81674" lon="6.26513">
        <ele>1226.5</ele>
        <time>2000-01-01T17:09:28.000Z</time>
      </trkpt>
      <trkpt lat="45.81681" lon="6.26503">
        <ele>1224</ele>
        <time>2000-01-01T17:09:38.000Z</time>
      </trkpt>
      <trkpt lat="45.817" lon="6.26493">
        <ele>1227</ele>
        <time>2000-01-01T17:09:48.000Z</time>
      </trkpt>
      <trkpt lat="45.81711" lon="6.26489">
        <ele>1231.6</ele>
        <time>2000-01-01T17:09:58.000Z</time>
      </trkpt>
      <trkpt lat="45.81721" lon="6.26487">
        <ele>1230</ele>
        <time>2000-01-01T17:10:08.000Z</time>
      </trkpt>
      <trkpt lat="45.81733" lon="6.2649">
        <ele>1235.9</ele>
        <time>2000-01-01T17:10:18.000Z</time>
      </trkpt>
      <trkpt lat="45.81742" lon="6.26491">
        <ele>1233</ele>
        <time>2000-01-01T17:10:28.000Z</time>
      </trkpt>
      <trkpt lat="45.81752" lon="6.26487">
        <ele>1238.8</ele>
        <time>2000-01-01T17:10:38.000Z</time>
      </trkpt>
      <trkpt lat="45.81771" lon="6.26484">
        <ele>1241</ele>
        <time>2000-01-01T17:10:48.000Z</time>
      </trkpt>
      <trkpt lat="45.81781" lon="6.26485">
        <ele>1245.2</ele>
        <time>2000-01-01T17:10:58.000Z</time>
      </trkpt>
      <trkpt lat="45.81791" lon="6.2648">
        <ele>1240</ele>
        <time>2000-01-01T17:11:08.000Z</time>
      </trkpt>
      <trkpt lat="45.818" lon="6.2648">
        <ele>1246.8</ele>
        <time>2000-01-01T17:11:18.000Z</time>
      </trkpt>
      <trkpt lat="45.81809" lon="6.26474">
        <ele>1245.8</ele>
        <time>2000-01-01T17:11:28.000Z</time>
      </trkpt>
      <trkpt lat="45.81831" lon="6.2647">
        <ele>1239</ele>
        <time>2000-01-01T17:11:38.000Z</time>
      </trkpt>
      <trkpt lat="45.8184" lon="6.26466">
        <ele>1243.1</ele>
        <time>2000-01-01T17:11:48.000Z</time>
      </trkpt>
      <trkpt lat="45.81849" lon="6.26466">
        <ele>1239</ele>
        <time>2000-01-01T17:11:58.000Z</time>
      </trkpt>
      <trkpt lat="45.81858" lon="6.26465">
        <ele>1242.9</ele>
        <time>2000-01-01T17:12:08.000Z</time>
      </trkpt>
      <trkpt lat="45.81867" lon="6.26458">
        <ele>1240.5</ele>
        <time>2000-01-01T17:12:18.000Z</time>
      </trkpt>
      <trkpt lat="45.81878" lon="6.26455">
        <ele>1238</ele>
        <time>2000-01-01T17:12:28.000Z</time>
      </trkpt>
      <trkpt lat="45.81888" lon="6.2645">
        <ele>1240.5</ele>
        <time>2000-01-01T17:12:38.000Z</time>
      </trkpt>
      <trkpt lat="45.81897" lon="6.26439">
        <ele>1236</ele>
        <time>2000-01-01T17:12:48.000Z</time>
      </trkpt>
      <trkpt lat="45.81907" lon="6.26435">
        <ele>1238.6</ele>
        <time>2000-01-01T17:12:58.000Z</time>
      </trkpt>
      <trkpt lat="45.81914" lon="6.26423">
        <ele>1234</ele>
        <time>2000-01-01T17:13:08.000Z</time>
      </trkpt>
      <trkpt lat="45.81919" lon="6.26409">
        <ele>1234.4</ele>
        <time>2000-01-01T17:13:18.000Z</time>
      </trkpt>
      <trkpt lat="45.81929" lon="6.26383">
        <ele>1229</ele>
        <time>2000-01-01T17:13:28.000Z</time>
      </trkpt>
      <trkpt lat="45.81939" lon="6.26379">
        <ele>1228.8</ele>
        <time>2000-01-01T17:13:38.000Z</time>
      </trkpt>
      <trkpt lat="45.81949" lon="6.26373">
        <ele>1227</ele>
        <time>2000-01-01T17:13:48.000Z</time>
      </trkpt>
      <trkpt lat="45.81958" lon="6.26371">
        <ele>1229.1</ele>
        <time>2000-01-01T17:13:58.000Z</time>
      </trkpt>
      <trkpt lat="45.81967" lon="6.26371">
        <ele>1230.6</ele>
        <time>2000-01-01T17:14:08.000Z</time>
      </trkpt>
      <trkpt lat="45.81982" lon="6.2635">
        <ele>1226</ele>
        <time>2000-01-01T17:14:18.000Z</time>
      </trkpt>
      <trkpt lat="45.81999" lon="6.26363">
        <ele>1225</ele>
        <time>2000-01-01T17:14:28.000Z</time>
      </trkpt>
      <trkpt lat="45.82008" lon="6.26355">
        <ele>1224.6</ele>
        <time>2000-01-01T17:14:38.000Z</time>
      </trkpt>
      <trkpt lat="45.82017" lon="6.2635">
        <ele>1224</ele>
        <time>2000-01-01T17:14:48.000Z</time>
      </trkpt>
      <trkpt lat="45.82026" lon="6.26347">
        <ele>1224.3</ele>
        <time>2000-01-01T17:14:58.000Z</time>
      </trkpt>
      <trkpt lat="45.82035" lon="6.26337">
        <ele>1220</ele>
        <time>2000-01-01T17:15:08.000Z</time>
      </trkpt>
      <trkpt lat="45.82043" lon="6.26325">
        <ele>1220.1</ele>
        <time>2000-01-01T17:15:18.000Z</time>
      </trkpt>
      <trkpt lat="45.82051" lon="6.26318">
        <ele>1220</ele>
        <time>2000-01-01T17:15:28.000Z</time>
      </trkpt>
      <trkpt lat="45.82053" lon="6.26318">
        <ele>1219.8</ele>
        <time>2000-01-01T17:15:38.000Z</time>
      </trkpt>
      <trkpt lat="45.82056" lon="6.26322">
        <ele>1221.1</ele>
        <time>2000-01-01T17:15:48.000Z</time>
      </trkpt>
      <trkpt lat="45.82058" lon="6.26324">
        <ele>1221.3</ele>
        <time>2000-01-01T17:15:58.000Z</time>
      </trkpt>
      <trkpt lat="45.8207" lon="6.26332">
        <ele>1221</ele>
        <time>2000-01-01T17:16:08.000Z</time>
      </trkpt>
      <trkpt lat="45.82085" lon="6.26348">
        <ele>1224.5</ele>
        <time>2000-01-01T17:16:18.000Z</time>
      </trkpt>
      <trkpt lat="45.82094" lon="6.26354">
        <ele>1224</ele>
        <time>2000-01-01T17:16:28.000Z</time>
      </trkpt>
      <trkpt lat="45.82103" lon="6.26362">
        <ele>1226.1</ele>
        <time>2000-01-01T17:16:38.000Z</time>
      </trkpt>
      <trkpt lat="45.82112" lon="6.26366">
        <ele>1224</ele>
        <time>2000-01-01T17:16:48.000Z</time>
      </trkpt>
      <trkpt lat="45.82129" lon="6.26368">
        <ele>1228.8</ele>
        <time>2000-01-01T17:16:58.000Z</time>
      </trkpt>
      <trkpt lat="45.8214" lon="6.26367">
        <ele>1226</ele>
        <time>2000-01-01T17:17:08.000Z</time>
      </trkpt>
      <trkpt lat="45.82147" lon="6.26372">
        <ele>1230.8</ele>
        <time>2000-01-01T17:17:18.000Z</time>
      </trkpt>
      <trkpt lat="45.82156" lon="6.26376">
        <ele>1231.7</ele>
        <time>2000-01-01T17:17:28.000Z</time>
      </trkpt>
      <trkpt lat="45.82176" lon="6.26381">
        <ele>1233</ele>
        <time>2000-01-01T17:17:38.000Z</time>
      </trkpt>
      <trkpt lat="45.82184" lon="6.26384">
        <ele>1233.7</ele>
        <time>2000-01-01T17:17:48.000Z</time>
      </trkpt>
      <trkpt lat="45.82182" lon="6.26383">
        <ele>1233.4</ele>
        <time>2000-01-01T17:17:58.000Z</time>
      </trkpt>
      <trkpt lat="45.82184" lon="6.26383">
        <ele>1233.4</ele>
        <time>2000-01-01T17:18:08.000Z</time>
      </trkpt>
      <trkpt lat="45.82194" lon="6.26389">
        <ele>1233</ele>
        <time>2000-01-01T17:18:18.000Z</time>
      </trkpt>
      <trkpt lat="45.82204" lon="6.26395">
        <ele>1236.1</ele>
        <time>2000-01-01T17:18:28.000Z</time>
      </trkpt>
      <trkpt lat="45.82225" lon="6.26404">
        <ele>1235</ele>
        <time>2000-01-01T17:18:38.000Z</time>
      </trkpt>
      <trkpt lat="45.82245" lon="6.26411">
        <ele>1234</ele>
        <time>2000-01-01T17:18:48.000Z</time>
      </trkpt>
      <trkpt lat="45.8226" lon="6.26418">
        <ele>1235.2</ele>
        <time>2000-01-01T17:18:58.000Z</time>
      </trkpt>
      <trkpt lat="45.82265" lon="6.2642">
        <ele>1233</ele>
        <time>2000-01-01T17:19:08.000Z</time>
      </trkpt>
      <trkpt lat="45.8228" lon="6.26424">
        <ele>1234.4</ele>
        <time>2000-01-01T17:19:18.000Z</time>
      </trkpt>
      <trkpt lat="45.82284" lon="6.26426">
        <ele>1233</ele>
        <time>2000-01-01T17:19:28.000Z</time>
      </trkpt>
      <trkpt lat="45.8229" lon="6.26426">
        <ele>1234.3</ele>
        <time>2000-01-01T17:19:38.000Z</time>
      </trkpt>
      <trkpt lat="45.82292" lon="6.26428">
        <ele>1234.6</ele>
        <time>2000-01-01T17:19:48.000Z</time>
      </trkpt>
      <trkpt lat="45.82304" lon="6.26428">
        <ele>1233</ele>
        <time>2000-01-01T17:19:58.000Z</time>
      </trkpt>
      <trkpt lat="45.82306" lon="6.26429">
        <ele>1234.1</ele>
        <time>2000-01-01T17:20:08.000Z</time>
      </trkpt>
      <trkpt lat="45.82314" lon="6.26428">
        <ele>1234.2</ele>
        <time>2000-01-01T17:20:18.000Z</time>
      </trkpt>
      <trkpt lat="45.82322" lon="6.26426">
        <ele>1233.9</ele>
        <time>2000-01-01T17:20:28.000Z</time>
      </trkpt>
      <trkpt lat="45.82331" lon="6.26421">
        <ele>1233</ele>
        <time>2000-01-01T17:20:38.000Z</time>
      </trkpt>
      <trkpt lat="45.82341" lon="6.26417">
        <ele>1232.1</ele>
        <time>2000-01-01T17:20:48.000Z</time>
      </trkpt>
      <trkpt lat="45.8235" lon="6.26418">
        <ele>1233</ele>
        <time>2000-01-01T17:20:58.000Z</time>
      </trkpt>
      <trkpt lat="45.8237" lon="6.26422">
        <ele>1233</ele>
        <time>2000-01-01T17:21:08.000Z</time>
      </trkpt>
      <trkpt lat="45.82381" lon="6.2643">
        <ele>1235.2</ele>
        <time>2000-01-01T17:21:18.000Z</time>
      </trkpt>
      <trkpt lat="45.82387" lon="6.26426">
        <ele>1234.4</ele>
        <time>2000-01-01T17:21:28.000Z</time>
      </trkpt>
      <trkpt lat="45.82392" lon="6.26425">
        <ele>1233</ele>
        <time>2000-01-01T17:21:38.000Z</time>
      </trkpt>
      <trkpt lat="45.82395" lon="6.26413">
        <ele>1234.5</ele>
        <time>2000-01-01T17:21:48.000Z</time>
      </trkpt>
      <trkpt lat="45.82397" lon="6.2641">
        <ele>1234.9</ele>
        <time>2000-01-01T17:21:58.000Z</time>
      </trkpt>
      <trkpt lat="45.82402" lon="6.26407">
        <ele>1236.1</ele>
        <time>2000-01-01T17:22:08.000Z</time>
      </trkpt>
      <trkpt lat="45.82411" lon="6.26404">
        <ele>1236</ele>
        <time>2000-01-01T17:22:18.000Z</time>
      </trkpt>
      <trkpt lat="45.82416" lon="6.264">
        <ele>1239.6</ele>
        <time>2000-01-01T17:22:28.000Z</time>
      </trkpt>
      <trkpt lat="45.82418" lon="6.26395">
        <ele>1239.8</ele>
        <time>2000-01-01T17:22:38.000Z</time>
      </trkpt>
      <trkpt lat="45.82423" lon="6.26386">
        <ele>1240.4</ele>
        <time>2000-01-01T17:22:48.000Z</time>
      </trkpt>
      <trkpt lat="45.82423" lon="6.26383">
        <ele>1239</ele>
        <time>2000-01-01T17:22:58.000Z</time>
      </trkpt>
      <trkpt lat="45.82424" lon="6.2638">
        <ele>1240.1</ele>
        <time>2000-01-01T17:23:08.000Z</time>
      </trkpt>
      <trkpt lat="45.82423" lon="6.26377">
        <ele>1239.6</ele>
        <time>2000-01-01T17:23:18.000Z</time>
      </trkpt>
      <trkpt lat="45.82423" lon="6.26374">
        <ele>1239.4</ele>
        <time>2000-01-01T17:23:28.000Z</time>
      </trkpt>
      <trkpt lat="45.82432" lon="6.26378">
        <ele>1241.9</ele>
        <time>2000-01-01T17:23:38.000Z</time>
      </trkpt>
      <trkpt lat="45.8244" lon="6.26389">
        <ele>1242</ele>
        <time>2000-01-01T17:23:48.000Z</time>
      </trkpt>
      <trkpt lat="45.82445" lon="6.264">
        <ele>1247</ele>
        <time>2000-01-01T17:23:58.000Z</time>
      </trkpt>
      <trkpt lat="45.82453" lon="6.26427">
        <ele>1249</ele>
        <time>2000-01-01T17:24:08.000Z</time>
      </trkpt>
      <trkpt lat="45.82456" lon="6.26439">
        <ele>1251.8</ele>
        <time>2000-01-01T17:24:18.000Z</time>
      </trkpt>
      <trkpt lat="45.82457" lon="6.26453">
        <ele>1252.8</ele>
        <time>2000-01-01T17:24:28.000Z</time>
      </trkpt>
      <trkpt lat="45.82456" lon="6.26466">
        <ele>1251</ele>
        <time>2000-01-01T17:24:38.000Z</time>
      </trkpt>
      <trkpt lat="45.8246" lon="6.26479">
        <ele>1255.2</ele>
        <time>2000-01-01T17:24:48.000Z</time>
      </trkpt>
      <trkpt lat="45.8247" lon="6.26502">
        <ele>1256</ele>
        <time>2000-01-01T17:24:58.000Z</time>
      </trkpt>
      <trkpt lat="45.82478" lon="6.26508">
        <ele>1262.2</ele>
        <time>2000-01-01T17:25:08.000Z</time>
      </trkpt>
      <trkpt lat="45.82487" lon="6.26503">
        <ele>1262</ele>
        <time>2000-01-01T17:25:18.000Z</time>
      </trkpt>
      <trkpt lat="45.8249" lon="6.26499">
        <ele>1265.7</ele>
        <time>2000-01-01T17:25:28.000Z</time>
      </trkpt>
      <trkpt lat="45.82498" lon="6.26505">
        <ele>1268.5</ele>
        <time>2000-01-01T17:25:38.000Z</time>
      </trkpt>
      <trkpt lat="45.82504" lon="6.26516">
        <ele>1268</ele>
        <time>2000-01-01T17:25:48.000Z</time>
      </trkpt>
      <trkpt lat="45.82506" lon="6.26528">
        <ele>1272</ele>
        <time>2000-01-01T17:25:58.000Z</time>
      </trkpt>
      <trkpt lat="45.82514" lon="6.26537">
        <ele>1273</ele>
        <time>2000-01-01T17:26:08.000Z</time>
      </trkpt>
      <trkpt lat="45.8252" lon="6.26547">
        <ele>1277.4</ele>
        <time>2000-01-01T17:26:18.000Z</time>
      </trkpt>
      <trkpt lat="45.82524" lon="6.26558">
        <ele>1279.1</ele>
        <time>2000-01-01T17:26:28.000Z</time>
      </trkpt>
      <trkpt lat="45.82531" lon="6.26568">
        <ele>1280</ele>
        <time>2000-01-01T17:26:38.000Z</time>
      </trkpt>
      <trkpt lat="45.82539" lon="6.26574">
        <ele>1285.2</ele>
        <time>2000-01-01T17:26:48.000Z</time>
      </trkpt>
      <trkpt lat="45.82547" lon="6.26584">
        <ele>1285</ele>
        <time>2000-01-01T17:26:58.000Z</time>
      </trkpt>
      <trkpt lat="45.82552" lon="6.26596">
        <ele>1289.5</ele>
        <time>2000-01-01T17:27:08.000Z</time>
      </trkpt>
      <trkpt lat="45.82555" lon="6.26609">
        <ele>1288</ele>
        <time>2000-01-01T17:27:18.000Z</time>
      </trkpt>
      <trkpt lat="45.82563" lon="6.26615">
        <ele>1293</ele>
        <time>2000-01-01T17:27:28.000Z</time>
      </trkpt>
      <trkpt lat="45.82573" lon="6.26619">
        <ele>1296</ele>
        <time>2000-01-01T17:27:38.000Z</time>
      </trkpt>
      <trkpt lat="45.8258" lon="6.26626">
        <ele>1299.3</ele>
        <time>2000-01-01T17:27:48.000Z</time>
      </trkpt>
      <trkpt lat="45.82589" lon="6.26631">
        <ele>1299</ele>
        <time>2000-01-01T17:27:58.000Z</time>
      </trkpt>
      <trkpt lat="45.826" lon="6.2664">
        <ele>1306.6</ele>
        <time>2000-01-01T17:28:08.000Z</time>
      </trkpt>
      <trkpt lat="45.82604" lon="6.2665">
        <ele>1306</ele>
        <time>2000-01-01T17:28:18.000Z</time>
      </trkpt>
      <trkpt lat="45.82611" lon="6.26661">
        <ele>1310.2</ele>
        <time>2000-01-01T17:28:28.000Z</time>
      </trkpt>
      <trkpt lat="45.82618" lon="6.2667">
        <ele>1309</ele>
        <time>2000-01-01T17:28:38.000Z</time>
      </trkpt>
      <trkpt lat="45.82623" lon="6.26685">
        <ele>1314.4</ele>
        <time>2000-01-01T17:28:48.000Z</time>
      </trkpt>
      <trkpt lat="45.82628" lon="6.26693">
        <ele>1312</ele>
        <time>2000-01-01T17:28:58.000Z</time>
      </trkpt>
      <trkpt lat="45.82633" lon="6.26705">
        <ele>1318.7</ele>
        <time>2000-01-01T17:29:08.000Z</time>
      </trkpt>
      <trkpt lat="45.82637" lon="6.26733">
        <ele>1319</ele>
        <time>2000-01-01T17:29:18.000Z</time>
      </trkpt>
      <trkpt lat="45.82641" lon="6.26745">
        <ele>1324.3</ele>
        <time>2000-01-01T17:29:28.000Z</time>
      </trkpt>
      <trkpt lat="45.82647" lon="6.26755">
        <ele>1326.6</ele>
        <time>2000-01-01T17:29:38.000Z</time>
      </trkpt>
      <trkpt lat="45.82652" lon="6.26767">
        <ele>1326</ele>
        <time>2000-01-01T17:29:48.000Z</time>
      </trkpt>
      <trkpt lat="45.82655" lon="6.26779">
        <ele>1330.3</ele>
        <time>2000-01-01T17:29:58.000Z</time>
      </trkpt>
      <trkpt lat="45.82658" lon="6.26792">
        <ele>1331.5</ele>
        <time>2000-01-01T17:30:08.000Z</time>
      </trkpt>
      <trkpt lat="45.82667" lon="6.2679">
        <ele>1332</ele>
        <time>2000-01-01T17:30:18.000Z</time>
      </trkpt>
      <trkpt lat="45.82675" lon="6.26793">
        <ele>1336.9</ele>
        <time>2000-01-01T17:30:28.000Z</time>
      </trkpt>
      <trkpt lat="45.82684" lon="6.26798">
        <ele>1340.4</ele>
        <time>2000-01-01T17:30:38.000Z</time>
      </trkpt>
      <trkpt lat="45.82689" lon="6.26809">
        <ele>1338</ele>
        <time>2000-01-01T17:30:48.000Z</time>
      </trkpt>
      <trkpt lat="45.82693" lon="6.26821">
        <ele>1346.7</ele>
        <time>2000-01-01T17:30:58.000Z</time>
      </trkpt>
      <trkpt lat="45.82702" lon="6.2682">
        <ele>1349.3</ele>
        <time>2000-01-01T17:31:08.000Z</time>
      </trkpt>
      <trkpt lat="45.82711" lon="6.26824">
        <ele>1350</ele>
        <time>2000-01-01T17:31:18.000Z</time>
      </trkpt>
      <trkpt lat="45.82714" lon="6.26824">
        <ele>1353.3</ele>
        <time>2000-01-01T17:31:28.000Z</time>
      </trkpt>
      <trkpt lat="45.82718" lon="6.26837">
        <ele>1356.3</ele>
        <time>2000-01-01T17:31:38.000Z</time>
      </trkpt>
      <trkpt lat="45.8272" lon="6.26844">
        <ele>1357.9</ele>
        <time>2000-01-01T17:31:48.000Z</time>
      </trkpt>
      <trkpt lat="45.82729" lon="6.26843">
        <ele>1358</ele>
        <time>2000-01-01T17:31:58.000Z</time>
      </trkpt>
      <trkpt lat="45.82735" lon="6.26847">
        <ele>1362.6</ele>
        <time>2000-01-01T17:32:08.000Z</time>
      </trkpt>
      <trkpt lat="45.82736" lon="6.26849">
        <ele>1363.2</ele>
        <time>2000-01-01T17:32:18.000Z</time>
      </trkpt>
      <trkpt lat="45.8274" lon="6.26864">
        <ele>1363</ele>
        <time>2000-01-01T17:32:28.000Z</time>
      </trkpt>
      <trkpt lat="45.82741" lon="6.26876">
        <ele>1369.5</ele>
        <time>2000-01-01T17:32:38.000Z</time>
      </trkpt>
      <trkpt lat="45.82745" lon="6.26891">
        <ele>1370</ele>
        <time>2000-01-01T17:32:48.000Z</time>
      </trkpt>
      <trkpt lat="45.82763" lon="6.26888">
        <ele>1378.1</ele>
        <time>2000-01-01T17:32:58.000Z</time>
      </trkpt>
      <trkpt lat="45.82769" lon="6.26884">
        <ele>1375</ele>
        <time>2000-01-01T17:33:08.000Z</time>
      </trkpt>
      <trkpt lat="45.82772" lon="6.26881">
        <ele>1379.5</ele>
        <time>2000-01-01T17:33:18.000Z</time>
      </trkpt>
      <trkpt lat="45.82781" lon="6.26881">
        <ele>1382.4</ele>
        <time>2000-01-01T17:33:28.000Z</time>
      </trkpt>
      <trkpt lat="45.8279" lon="6.26881">
        <ele>1385</ele>
        <time>2000-01-01T17:33:38.000Z</time>
      </trkpt>
      <trkpt lat="45.82798" lon="6.2687">
        <ele>1388</ele>
        <time>2000-01-01T17:33:48.000Z</time>
      </trkpt>
      <trkpt lat="45.82808" lon="6.26845">
        <ele>1385</ele>
        <time>2000-01-01T17:33:58.000Z</time>
      </trkpt>
      <trkpt lat="45.82816" lon="6.26834">
        <ele>1390.2</ele>
        <time>2000-01-01T17:34:08.000Z</time>
      </trkpt>
      <trkpt lat="45.82822" lon="6.26822">
        <ele>1389</ele>
        <time>2000-01-01T17:34:18.000Z</time>
      </trkpt>
      <trkpt lat="45.8283" lon="6.26813">
        <ele>1393.5</ele>
        <time>2000-01-01T17:34:28.000Z</time>
      </trkpt>
      <trkpt lat="45.82837" lon="6.26804">
        <ele>1391</ele>
        <time>2000-01-01T17:34:38.000Z</time>
      </trkpt>
      <trkpt lat="45.82844" lon="6.26776">
        <ele>1395</ele>
        <time>2000-01-01T17:34:48.000Z</time>
      </trkpt>
      <trkpt lat="45.82847" lon="6.26765">
        <ele>1398.3</ele>
        <time>2000-01-01T17:34:58.000Z</time>
      </trkpt>
      <trkpt lat="45.82858" lon="6.26744">
        <ele>1397</ele>
        <time>2000-01-01T17:35:08.000Z</time>
      </trkpt>
      <trkpt lat="45.82862" lon="6.26731">
        <ele>1401.6</ele>
        <time>2000-01-01T17:35:18.000Z</time>
      </trkpt>
      <trkpt lat="45.82868" lon="6.26718">
        <ele>1398</ele>
        <time>2000-01-01T17:35:28.000Z</time>
      </trkpt>
      <trkpt lat="45.8287" lon="6.26709">
        <ele>1402.9</ele>
        <time>2000-01-01T17:35:38.000Z</time>
      </trkpt>
      <trkpt lat="45.82874" lon="6.26699">
        <ele>1403.5</ele>
        <time>2000-01-01T17:35:48.000Z</time>
      </trkpt>
      <trkpt lat="45.8288" lon="6.26689">
        <ele>1400</ele>
        <time>2000-01-01T17:35:58.000Z</time>
      </trkpt>
      <trkpt lat="45.82881" lon="6.26686">
        <ele>1405.2</ele>
        <time>2000-01-01T17:36:08.000Z</time>
      </trkpt>
      <trkpt lat="45.82886" lon="6.26677">
        <ele>1406.5</ele>
        <time>2000-01-01T17:36:18.000Z</time>
      </trkpt>
      <trkpt lat="45.82888" lon="6.26671">
        <ele>1406.9</ele>
        <time>2000-01-01T17:36:28.000Z</time>
      </trkpt>
      <trkpt lat="45.82895" lon="6.26649">
        <ele>1406</ele>
        <time>2000-01-01T17:36:38.000Z</time>
      </trkpt>
      <trkpt lat="45.82895" lon="6.2664">
        <ele>1409.3</ele>
        <time>2000-01-01T17:36:48.000Z</time>
      </trkpt>
      <trkpt lat="45.82896" lon="6.26634">
        <ele>1409.8</ele>
        <time>2000-01-01T17:36:58.000Z</time>
      </trkpt>
      <trkpt lat="45.82899" lon="6.26627">
        <ele>1411.3</ele>
        <time>2000-01-01T17:37:08.000Z</time>
      </trkpt>
      <trkpt lat="45.82901" lon="6.26617">
        <ele>1413</ele>
        <time>2000-01-01T17:37:18.000Z</time>
      </trkpt>
      <trkpt lat="45.82905" lon="6.26607">
        <ele>1413.7</ele>
        <time>2000-01-01T17:37:28.000Z</time>
      </trkpt>
      <trkpt lat="45.82907" lon="6.26604">
        <ele>1414.4</ele>
        <time>2000-01-01T17:37:38.000Z</time>
      </trkpt>
      <trkpt lat="45.82911" lon="6.26593">
        <ele>1414</ele>
        <time>2000-01-01T17:37:48.000Z</time>
      </trkpt>
      <trkpt lat="45.82914" lon="6.26581">
        <ele>1415.8</ele>
        <time>2000-01-01T17:37:58.000Z</time>
      </trkpt>
      <trkpt lat="45.82916" lon="6.26577">
        <ele>1416.7</ele>
        <time>2000-01-01T17:38:08.000Z</time>
      </trkpt>
      <trkpt lat="45.82918" lon="6.2657">
        <ele>1417.6</ele>
        <time>2000-01-01T17:38:18.000Z</time>
      </trkpt>
      <trkpt lat="45.82924" lon="6.2655">
        <ele>1418</ele>
        <time>2000-01-01T17:38:28.000Z</time>
      </trkpt>
      <trkpt lat="45.82926" lon="6.26531">
        <ele>1423.1</ele>
        <time>2000-01-01T17:38:38.000Z</time>
      </trkpt>
      <trkpt lat="45.82932" lon="6.26508">
        <ele>1425</ele>
        <time>2000-01-01T17:38:48.000Z</time>
      </trkpt>
      <trkpt lat="45.82935" lon="6.26499">
        <ele>1427.2</ele>
        <time>2000-01-01T17:38:58.000Z</time>
      </trkpt>
      <trkpt lat="45.82937" lon="6.26491">
        <ele>1427.6</ele>
        <time>2000-01-01T17:39:08.000Z</time>
      </trkpt>
      <trkpt lat="45.8294" lon="6.26484">
        <ele>1428.6</ele>
        <time>2000-01-01T17:39:18.000Z</time>
      </trkpt>
      <trkpt lat="45.82942" lon="6.26477">
        <ele>1428</ele>
        <time>2000-01-01T17:39:28.000Z</time>
      </trkpt>
      <trkpt lat="45.82947" lon="6.26466">
        <ele>1430.6</ele>
        <time>2000-01-01T17:39:38.000Z</time>
      </trkpt>
      <trkpt lat="45.82952" lon="6.26459">
        <ele>1431.2</ele>
        <time>2000-01-01T17:39:48.000Z</time>
      </trkpt>
      <trkpt lat="45.82954" lon="6.26457">
        <ele>1431.3</ele>
        <time>2000-01-01T17:39:58.000Z</time>
      </trkpt>
      <trkpt lat="45.8296" lon="6.26453">
        <ele>1428</ele>
        <time>2000-01-01T17:40:08.000Z</time>
      </trkpt>
      <trkpt lat="45.82978" lon="6.26448">
        <ele>1430.6</ele>
        <time>2000-01-01T17:40:18.000Z</time>
      </trkpt>
      <trkpt lat="45.82984" lon="6.26448">
        <ele>1427</ele>
        <time>2000-01-01T17:40:28.000Z</time>
      </trkpt>
      <trkpt lat="45.83009" lon="6.26454">
        <ele>1426</ele>
        <time>2000-01-01T17:40:38.000Z</time>
      </trkpt>
      <trkpt lat="45.8302" lon="6.26455">
        <ele>1428.2</ele>
        <time>2000-01-01T17:40:48.000Z</time>
      </trkpt>
      <trkpt lat="45.83026" lon="6.26453">
        <ele>1427.5</ele>
        <time>2000-01-01T17:40:58.000Z</time>
      </trkpt>
      <trkpt lat="45.83034" lon="6.2645">
        <ele>1426</ele>
        <time>2000-01-01T17:41:08.000Z</time>
      </trkpt>
      <trkpt lat="45.83049" lon="6.26443">
        <ele>1427</ele>
        <time>2000-01-01T17:41:18.000Z</time>
      </trkpt>
      <trkpt lat="45.83052" lon="6.2644">
        <ele>1426</ele>
        <time>2000-01-01T17:41:28.000Z</time>
      </trkpt>
      <trkpt lat="45.8306" lon="6.2643">
        <ele>1426.2</ele>
        <time>2000-01-01T17:41:38.000Z</time>
      </trkpt>
      <trkpt lat="45.83064" lon="6.26425">
        <ele>1426.2</ele>
        <time>2000-01-01T17:41:48.000Z</time>
      </trkpt>
      <trkpt lat="45.83077" lon="6.26413">
        <ele>1426</ele>
        <time>2000-01-01T17:41:58.000Z</time>
      </trkpt>
      <trkpt lat="45.83083" lon="6.26406">
        <ele>1426.8</ele>
        <time>2000-01-01T17:42:08.000Z</time>
      </trkpt>
      <trkpt lat="45.83088" lon="6.26403">
        <ele>1427.2</ele>
        <time>2000-01-01T17:42:18.000Z</time>
      </trkpt>
      <trkpt lat="45.83101" lon="6.26389">
        <ele>1426</ele>
        <time>2000-01-01T17:42:28.000Z</time>
      </trkpt>
      <trkpt lat="45.83104" lon="6.2639">
        <ele>1427.5</ele>
        <time>2000-01-01T17:42:38.000Z</time>
      </trkpt>
      <trkpt lat="45.83112" lon="6.26386">
        <ele>1428</ele>
        <time>2000-01-01T17:42:48.000Z</time>
      </trkpt>
      <trkpt lat="45.83122" lon="6.26382">
        <ele>1426</ele>
        <time>2000-01-01T17:42:58.000Z</time>
      </trkpt>
      <trkpt lat="45.83128" lon="6.26381">
        <ele>1424.3</ele>
        <time>2000-01-01T17:43:08.000Z</time>
      </trkpt>
      <trkpt lat="45.83131" lon="6.26381">
        <ele>1423.9</ele>
        <time>2000-01-01T17:43:18.000Z</time>
      </trkpt>
      <trkpt lat="45.83134" lon="6.26382">
        <ele>1423.7</ele>
        <time>2000-01-01T17:43:28.000Z</time>
      </trkpt>
      <trkpt lat="45.83144" lon="6.26391">
        <ele>1424</ele>
        <time>2000-01-01T17:43:38.000Z</time>
      </trkpt>
      <trkpt lat="45.8315" lon="6.26395">
        <ele>1426.2</ele>
        <time>2000-01-01T17:43:48.000Z</time>
      </trkpt>
      <trkpt lat="45.83155" lon="6.26395">
        <ele>1426.2</ele>
        <time>2000-01-01T17:43:58.000Z</time>
      </trkpt>
      <trkpt lat="45.83159" lon="6.26393">
        <ele>1425.8</ele>
        <time>2000-01-01T17:44:08.000Z</time>
      </trkpt>
      <trkpt lat="45.83168" lon="6.26385">
        <ele>1425</ele>
        <time>2000-01-01T17:44:18.000Z</time>
      </trkpt>
      <trkpt lat="45.83174" lon="6.26378">
        <ele>1425</ele>
        <time>2000-01-01T17:44:28.000Z</time>
      </trkpt>
      <trkpt lat="45.83177" lon="6.26372">
        <ele>1424.9</ele>
        <time>2000-01-01T17:44:38.000Z</time>
      </trkpt>
      <trkpt lat="45.83188" lon="6.26356">
        <ele>1425</ele>
        <time>2000-01-01T17:44:48.000Z</time>
      </trkpt>
      <trkpt lat="45.83195" lon="6.26342">
        <ele>1426.4</ele>
        <time>2000-01-01T17:44:58.000Z</time>
      </trkpt>
      <trkpt lat="45.83201" lon="6.26329">
        <ele>1425</ele>
        <time>2000-01-01T17:45:08.000Z</time>
      </trkpt>
      <trkpt lat="45.83204" lon="6.26324">
        <ele>1426.2</ele>
        <time>2000-01-01T17:45:18.000Z</time>
      </trkpt>
      <trkpt lat="45.83209" lon="6.26315">
        <ele>1425.5</ele>
        <time>2000-01-01T17:45:28.000Z</time>
      </trkpt>
      <trkpt lat="45.8321" lon="6.26312">
        <ele>1425.2</ele>
        <time>2000-01-01T17:45:38.000Z</time>
      </trkpt>
      <trkpt lat="45.83211" lon="6.26307">
        <ele>1424.6</ele>
        <time>2000-01-01T17:45:48.000Z</time>
      </trkpt>
      <trkpt lat="45.83213" lon="6.26304">
        <ele>1425</ele>
        <time>2000-01-01T17:45:58.000Z</time>
      </trkpt>
      <trkpt lat="45.83215" lon="6.26302">
        <ele>1424.4</ele>
        <time>2000-01-01T17:46:08.000Z</time>
      </trkpt>
      <trkpt lat="45.83224" lon="6.26293">
        <ele>1424.2</ele>
        <time>2000-01-01T17:46:18.000Z</time>
      </trkpt>
      <trkpt lat="45.83226" lon="6.26292">
        <ele>1423.9</ele>
        <time>2000-01-01T17:46:28.000Z</time>
      </trkpt>
      <trkpt lat="45.83237" lon="6.26289">
        <ele>1425</ele>
        <time>2000-01-01T17:46:38.000Z</time>
      </trkpt>
      <trkpt lat="45.8324" lon="6.2629">
        <ele>1421.6</ele>
        <time>2000-01-01T17:46:48.000Z</time>
      </trkpt>
      <trkpt lat="45.83244" lon="6.26292">
        <ele>1421</ele>
        <time>2000-01-01T17:46:58.000Z</time>
      </trkpt>
      <trkpt lat="45.83256" lon="6.26295">
        <ele>1417</ele>
        <time>2000-01-01T17:47:08.000Z</time>
      </trkpt>
      <trkpt lat="45.83265" lon="6.263">
        <ele>1410.7</ele>
        <time>2000-01-01T17:47:18.000Z</time>
      </trkpt>
      <trkpt lat="45.83274" lon="6.26309">
        <ele>1406</ele>
        <time>2000-01-01T17:47:28.000Z</time>
      </trkpt>
      <trkpt lat="45.83279" lon="6.26323">
        <ele>1402.7</ele>
        <time>2000-01-01T17:47:38.000Z</time>
      </trkpt>
      <trkpt lat="45.83285" lon="6.26334">
        <ele>1402</ele>
        <time>2000-01-01T17:47:48.000Z</time>
      </trkpt>
      <trkpt lat="45.83289" lon="6.26346">
        <ele>1397.3</ele>
        <time>2000-01-01T17:47:58.000Z</time>
      </trkpt>
      <trkpt lat="45.833" lon="6.26369">
        <ele>1400</ele>
        <time>2000-01-01T17:48:08.000Z</time>
      </trkpt>
      <trkpt lat="45.83305" lon="6.26384">
        <ele>1389.9</ele>
        <time>2000-01-01T17:48:18.000Z</time>
      </trkpt>
      <trkpt lat="45.83308" lon="6.26399">
        <ele>1393</ele>
        <time>2000-01-01T17:48:28.000Z</time>
      </trkpt>
      <trkpt lat="45.8331" lon="6.26412">
        <ele>1390.1</ele>
        <time>2000-01-01T17:48:38.000Z</time>
      </trkpt>
      <trkpt lat="45.83318" lon="6.26439">
        <ele>1393</ele>
        <time>2000-01-01T17:48:48.000Z</time>
      </trkpt>
      <trkpt lat="45.8332" lon="6.26453">
        <ele>1391.1</ele>
        <time>2000-01-01T17:48:58.000Z</time>
      </trkpt>
      <trkpt lat="45.83324" lon="6.26468">
        <ele>1393</ele>
        <time>2000-01-01T17:49:08.000Z</time>
      </trkpt>
      <trkpt lat="45.83329" lon="6.26481">
        <ele>1390.8</ele>
        <time>2000-01-01T17:49:18.000Z</time>
      </trkpt>
      <trkpt lat="45.83336" lon="6.26493">
        <ele>1392</ele>
        <time>2000-01-01T17:49:28.000Z</time>
      </trkpt>
      <trkpt lat="45.83341" lon="6.26501">
        <ele>1390.1</ele>
        <time>2000-01-01T17:49:38.000Z</time>
      </trkpt>
      <trkpt lat="45.83351" lon="6.26507">
        <ele>1386.5</ele>
        <time>2000-01-01T17:49:48.000Z</time>
      </trkpt>
      <trkpt lat="45.83361" lon="6.26534">
        <ele>1388</ele>
        <time>2000-01-01T17:49:58.000Z</time>
      </trkpt>
      <trkpt lat="45.83364" lon="6.26547">
        <ele>1386.1</ele>
        <time>2000-01-01T17:50:08.000Z</time>
      </trkpt>
      <trkpt lat="45.83384" lon="6.26539">
        <ele>1379</ele>
        <time>2000-01-01T17:50:18.000Z</time>
      </trkpt>
      <trkpt lat="45.834" lon="6.26535">
        <ele>1373.6</ele>
        <time>2000-01-01T17:50:28.000Z</time>
      </trkpt>
      <trkpt lat="45.83408" lon="6.26528">
        <ele>1362</ele>
        <time>2000-01-01T17:50:38.000Z</time>
      </trkpt>
      <trkpt lat="45.83419" lon="6.26535">
        <ele>1367.6</ele>
        <time>2000-01-01T17:50:48.000Z</time>
      </trkpt>
      <trkpt lat="45.83422" lon="6.26523">
        <ele>1361</ele>
        <time>2000-01-01T17:50:58.000Z</time>
      </trkpt>
      <trkpt lat="45.8343" lon="6.26514">
        <ele>1352</ele>
        <time>2000-01-01T17:51:08.000Z</time>
      </trkpt>
      <trkpt lat="45.83437" lon="6.26521">
        <ele>1353.5</ele>
        <time>2000-01-01T17:51:18.000Z</time>
      </trkpt>
      <trkpt lat="45.83454" lon="6.26546">
        <ele>1352</ele>
        <time>2000-01-01T17:51:28.000Z</time>
      </trkpt>
      <trkpt lat="45.83458" lon="6.26557">
        <ele>1348.3</ele>
        <time>2000-01-01T17:51:38.000Z</time>
      </trkpt>
      <trkpt lat="45.83458" lon="6.26571">
        <ele>1348.2</ele>
        <time>2000-01-01T17:51:48.000Z</time>
      </trkpt>
      <trkpt lat="45.83466" lon="6.26579">
        <ele>1344</ele>
        <time>2000-01-01T17:51:58.000Z</time>
      </trkpt>
      <trkpt lat="45.8347" lon="6.26565">
        <ele>1340.2</ele>
        <time>2000-01-01T17:52:08.000Z</time>
      </trkpt>
      <trkpt lat="45.83475" lon="6.26554">
        <ele>1343</ele>
        <time>2000-01-01T17:52:18.000Z</time>
      </trkpt>
      <trkpt lat="45.83483" lon="6.26543">
        <ele>1330.2</ele>
        <time>2000-01-01T17:52:28.000Z</time>
      </trkpt>
      <trkpt lat="45.83492" lon="6.26538">
        <ele>1335</ele>
        <time>2000-01-01T17:52:38.000Z</time>
      </trkpt>
      <trkpt lat="45.835" lon="6.26552">
        <ele>1323.5</ele>
        <time>2000-01-01T17:52:48.000Z</time>
      </trkpt>
      <trkpt lat="45.83506" lon="6.26565">
        <ele>1328</ele>
        <time>2000-01-01T17:52:58.000Z</time>
      </trkpt>
      <trkpt lat="45.83509" lon="6.26552">
        <ele>1324.1</ele>
        <time>2000-01-01T17:53:08.000Z</time>
      </trkpt>
      <trkpt lat="45.83504" lon="6.2654">
        <ele>1322</ele>
        <time>2000-01-01T17:53:18.000Z</time>
      </trkpt>
      <trkpt lat="45.83507" lon="6.26527">
        <ele>1316.5</ele>
        <time>2000-01-01T17:53:28.000Z</time>
      </trkpt>
      <trkpt lat="45.83514" lon="6.26517">
        <ele>1321</ele>
        <time>2000-01-01T17:53:38.000Z</time>
      </trkpt>
      <trkpt lat="45.83523" lon="6.26513">
        <ele>1319.5</ele>
        <time>2000-01-01T17:53:48.000Z</time>
      </trkpt>
      <trkpt lat="45.83532" lon="6.26519">
        <ele>1321</ele>
        <time>2000-01-01T17:53:58.000Z</time>
      </trkpt>
      <trkpt lat="45.8354" lon="6.26527">
        <ele>1315.9</ele>
        <time>2000-01-01T17:54:08.000Z</time>
      </trkpt>
      <trkpt lat="45.83546" lon="6.26541">
        <ele>1313</ele>
        <time>2000-01-01T17:54:18.000Z</time>
      </trkpt>
      <trkpt lat="45.83556" lon="6.2657">
        <ele>1313</ele>
        <time>2000-01-01T17:54:28.000Z</time>
      </trkpt>
      <trkpt lat="45.83549" lon="6.26559">
        <ele>1317.9</ele>
        <time>2000-01-01T17:54:38.000Z</time>
      </trkpt>
      <trkpt lat="45.8355" lon="6.26532">
        <ele>1304</ele>
        <time>2000-01-01T17:54:48.000Z</time>
      </trkpt>
      <trkpt lat="45.83563" lon="6.2651">
        <ele>1308</ele>
        <time>2000-01-01T17:54:58.000Z</time>
      </trkpt>
      <trkpt lat="45.83571" lon="6.26502">
        <ele>1310.4</ele>
        <time>2000-01-01T17:55:08.000Z</time>
      </trkpt>
      <trkpt lat="45.83581" lon="6.26495">
        <ele>1313</ele>
        <time>2000-01-01T17:55:18.000Z</time>
      </trkpt>
      <trkpt lat="45.83588" lon="6.26487">
        <ele>1320.7</ele>
        <time>2000-01-01T17:55:28.000Z</time>
      </trkpt>
      <trkpt lat="45.83601" lon="6.26491">
        <ele>1328</ele>
        <time>2000-01-01T17:55:38.000Z</time>
      </trkpt>
      <trkpt lat="45.83613" lon="6.26491">
        <ele>1329.6</ele>
        <time>2000-01-01T17:55:48.000Z</time>
      </trkpt>
      <trkpt lat="45.83621" lon="6.26493">
        <ele>1329</ele>
        <time>2000-01-01T17:55:58.000Z</time>
      </trkpt>
      <trkpt lat="45.83632" lon="6.265">
        <ele>1331.5</ele>
        <time>2000-01-01T17:56:08.000Z</time>
      </trkpt>
      <trkpt lat="45.83643" lon="6.26513">
        <ele>1333</ele>
        <time>2000-01-01T17:56:18.000Z</time>
      </trkpt>
      <trkpt lat="45.83654" lon="6.26518">
        <ele>1331.5</ele>
        <time>2000-01-01T17:56:28.000Z</time>
      </trkpt>
      <trkpt lat="45.8366" lon="6.26522">
        <ele>1330.7</ele>
        <time>2000-01-01T17:56:38.000Z</time>
      </trkpt>
      <trkpt lat="45.8366" lon="6.26535">
        <ele>1338</ele>
        <time>2000-01-01T17:56:48.000Z</time>
      </trkpt>
      <trkpt lat="45.83656" lon="6.26546">
        <ele>1338.6</ele>
        <time>2000-01-01T17:56:58.000Z</time>
      </trkpt>
      <trkpt lat="45.83657" lon="6.26551">
        <ele>1339.8</ele>
        <time>2000-01-01T17:57:08.000Z</time>
      </trkpt>
      <trkpt lat="45.83656" lon="6.26554">
        <ele>1340.9</ele>
        <time>2000-01-01T17:57:18.000Z</time>
      </trkpt>
      <trkpt lat="45.83656" lon="6.26561">
        <ele>1345</ele>
        <time>2000-01-01T17:57:28.000Z</time>
      </trkpt>
      <trkpt lat="45.83655" lon="6.26565">
        <ele>1344.8</ele>
        <time>2000-01-01T17:57:38.000Z</time>
      </trkpt>
      <trkpt lat="45.83656" lon="6.26569">
        <ele>1346</ele>
        <time>2000-01-01T17:57:48.000Z</time>
      </trkpt>
      <trkpt lat="45.83656" lon="6.2658">
        <ele>1349.8</ele>
        <time>2000-01-01T17:57:58.000Z</time>
      </trkpt>
      <trkpt lat="45.83657" lon="6.26583">
        <ele>1350.6</ele>
        <time>2000-01-01T17:58:08.000Z</time>
      </trkpt>
      <trkpt lat="45.83659" lon="6.26584">
        <ele>1350.6</ele>
        <time>2000-01-01T17:58:18.000Z</time>
      </trkpt>
      <trkpt lat="45.83661" lon="6.26583">
        <ele>1346</ele>
        <time>2000-01-01T17:58:28.000Z</time>
      </trkpt>
      <trkpt lat="45.83661" lon="6.2658">
        <ele>1348.8</ele>
        <time>2000-01-01T17:58:38.000Z</time>
      </trkpt>
      <trkpt lat="45.83662" lon="6.26583">
        <ele>1349.7</ele>
        <time>2000-01-01T17:58:48.000Z</time>
      </trkpt>
      <trkpt lat="45.83662" lon="6.2658">
        <ele>1348.7</ele>
        <time>2000-01-01T17:58:58.000Z</time>
      </trkpt>
      <trkpt lat="45.83661" lon="6.26576">
        <ele>1347.4</ele>
        <time>2000-01-01T17:59:08.000Z</time>
      </trkpt>
      <trkpt lat="45.83663" lon="6.26576">
        <ele>1347.1</ele>
        <time>2000-01-01T17:59:18.000Z</time>
      </trkpt>
      <trkpt lat="45.83667" lon="6.26572">
        <ele>1344.9</ele>
        <time>2000-01-01T17:59:28.000Z</time>
      </trkpt>
      <trkpt lat="45.83671" lon="6.26573">
        <ele>1346</ele>
        <time>2000-01-01T17:59:38.000Z</time>
      </trkpt>
      <trkpt lat="45.83676" lon="6.26575">
        <ele>1346.2</ele>
        <time>2000-01-01T17:59:48.000Z</time>
      </trkpt>
      <trkpt lat="45.83681" lon="6.26583">
        <ele>1348.9</ele>
        <time>2000-01-01T17:59:58.000Z</time>
      </trkpt>
      <trkpt lat="45.83683" lon="6.26589">
        <ele>1350.8</ele>
        <time>2000-01-01T18:00:08.000Z</time>
      </trkpt>
      <trkpt lat="45.83685" lon="6.26591">
        <ele>1352</ele>
        <time>2000-01-01T18:00:18.000Z</time>
      </trkpt>
      <trkpt lat="45.83687" lon="6.26594">
        <ele>1352.4</ele>
        <time>2000-01-01T18:00:28.000Z</time>
      </trkpt>
      <trkpt lat="45.83695" lon="6.26603">
        <ele>1355.3</ele>
        <time>2000-01-01T18:00:38.000Z</time>
      </trkpt>
      <trkpt lat="45.83702" lon="6.26613">
        <ele>1356</ele>
        <time>2000-01-01T18:00:48.000Z</time>
      </trkpt>
      <trkpt lat="45.83716" lon="6.26619">
        <ele>1358.2</ele>
        <time>2000-01-01T18:00:58.000Z</time>
      </trkpt>
      <trkpt lat="45.8374" lon="6.26646">
        <ele>1362</ele>
        <time>2000-01-01T18:01:08.000Z</time>
      </trkpt>
      <trkpt lat="45.83743" lon="6.26646">
        <ele>1364.1</ele>
        <time>2000-01-01T18:01:18.000Z</time>
      </trkpt>
      <trkpt lat="45.83748" lon="6.2665">
        <ele>1364.8</ele>
        <time>2000-01-01T18:01:28.000Z</time>
      </trkpt>
      <trkpt lat="45.8376" lon="6.26655">
        <ele>1364</ele>
        <time>2000-01-01T18:01:38.000Z</time>
      </trkpt>
      <trkpt lat="45.83771" lon="6.26655">
        <ele>1365.8</ele>
        <time>2000-01-01T18:01:48.000Z</time>
      </trkpt>
      <trkpt lat="45.83776" lon="6.26657">
        <ele>1366.3</ele>
        <time>2000-01-01T18:01:58.000Z</time>
      </trkpt>
      <trkpt lat="45.83782" lon="6.26661">
        <ele>1367</ele>
        <time>2000-01-01T18:02:08.000Z</time>
      </trkpt>
      <trkpt lat="45.83792" lon="6.26671">
        <ele>1369.4</ele>
        <time>2000-01-01T18:02:18.000Z</time>
      </trkpt>
      <trkpt lat="45.83797" lon="6.26674">
        <ele>1370</ele>
        <time>2000-01-01T18:02:28.000Z</time>
      </trkpt>
      <trkpt lat="45.83804" lon="6.26683">
        <ele>1370</ele>
        <time>2000-01-01T18:02:38.000Z</time>
      </trkpt>
      <trkpt lat="45.83815" lon="6.26683">
        <ele>1373.3</ele>
        <time>2000-01-01T18:02:48.000Z</time>
      </trkpt>
      <trkpt lat="45.83836" lon="6.26682">
        <ele>1374</ele>
        <time>2000-01-01T18:02:58.000Z</time>
      </trkpt>
      <trkpt lat="45.83844" lon="6.26684">
        <ele>1375.1</ele>
        <time>2000-01-01T18:03:08.000Z</time>
      </trkpt>
      <trkpt lat="45.83852" lon="6.26692">
        <ele>1377.3</ele>
        <time>2000-01-01T18:03:18.000Z</time>
      </trkpt>
      <trkpt lat="45.83862" lon="6.26697">
        <ele>1376</ele>
        <time>2000-01-01T18:03:28.000Z</time>
      </trkpt>
      <trkpt lat="45.83872" lon="6.26699">
        <ele>1379.3</ele>
        <time>2000-01-01T18:03:38.000Z</time>
      </trkpt>
      <trkpt lat="45.83881" lon="6.26703">
        <ele>1379</ele>
        <time>2000-01-01T18:03:48.000Z</time>
      </trkpt>
      <trkpt lat="45.8389" lon="6.26711">
        <ele>1382.9</ele>
        <time>2000-01-01T18:03:58.000Z</time>
      </trkpt>
      <trkpt lat="45.83891" lon="6.26714">
        <ele>1383.8</ele>
        <time>2000-01-01T18:04:08.000Z</time>
      </trkpt>
      <trkpt lat="45.83895" lon="6.26718">
        <ele>1385.1</ele>
        <time>2000-01-01T18:04:18.000Z</time>
      </trkpt>
      <trkpt lat="45.839" lon="6.26724">
        <ele>1385</ele>
        <time>2000-01-01T18:04:28.000Z</time>
      </trkpt>
      <trkpt lat="45.83904" lon="6.26726">
        <ele>1387</ele>
        <time>2000-01-01T18:04:38.000Z</time>
      </trkpt>
      <trkpt lat="45.8391" lon="6.26727">
        <ele>1387.2</ele>
        <time>2000-01-01T18:04:48.000Z</time>
      </trkpt>
      <trkpt lat="45.83917" lon="6.26726">
        <ele>1387</ele>
        <time>2000-01-01T18:04:58.000Z</time>
      </trkpt>
      <trkpt lat="45.83923" lon="6.26724">
        <ele>1385</ele>
        <time>2000-01-01T18:05:08.000Z</time>
      </trkpt>
      <trkpt lat="45.83926" lon="6.26722">
        <ele>1388.3</ele>
        <time>2000-01-01T18:05:18.000Z</time>
      </trkpt>
      <trkpt lat="45.8393" lon="6.26721">
        <ele>1389.3</ele>
        <time>2000-01-01T18:05:28.000Z</time>
      </trkpt>
      <trkpt lat="45.83932" lon="6.26722">
        <ele>1389.9</ele>
        <time>2000-01-01T18:05:38.000Z</time>
      </trkpt>
      <trkpt lat="45.8395" lon="6.26739">
        <ele>1390</ele>
        <time>2000-01-01T18:05:48.000Z</time>
      </trkpt>
      <trkpt lat="45.83954" lon="6.26751">
        <ele>1397.6</ele>
        <time>2000-01-01T18:05:58.000Z</time>
      </trkpt>
      <trkpt lat="45.83956" lon="6.26752">
        <ele>1398.2</ele>
        <time>2000-01-01T18:06:08.000Z</time>
      </trkpt>
      <trkpt lat="45.83961" lon="6.26754">
        <ele>1399.3</ele>
        <time>2000-01-01T18:06:18.000Z</time>
      </trkpt>
      <trkpt lat="45.83964" lon="6.26755">
        <ele>1397</ele>
        <time>2000-01-01T18:06:28.000Z</time>
      </trkpt>
      <trkpt lat="45.83966" lon="6.26758">
        <ele>1400.7</ele>
        <time>2000-01-01T18:06:38.000Z</time>
      </trkpt>
      <trkpt lat="45.83973" lon="6.26761">
        <ele>1402.1</ele>
        <time>2000-01-01T18:06:48.000Z</time>
      </trkpt>
      <trkpt lat="45.83975" lon="6.26764">
        <ele>1402.8</ele>
        <time>2000-01-01T18:06:58.000Z</time>
      </trkpt>
      <trkpt lat="45.83981" lon="6.26767">
        <ele>1400</ele>
        <time>2000-01-01T18:07:08.000Z</time>
      </trkpt>
      <trkpt lat="45.83989" lon="6.26775">
        <ele>1405.3</ele>
        <time>2000-01-01T18:07:18.000Z</time>
      </trkpt>
      <trkpt lat="45.83994" lon="6.26777">
        <ele>1405.7</ele>
        <time>2000-01-01T18:07:28.000Z</time>
      </trkpt>
      <trkpt lat="45.83998" lon="6.2678">
        <ele>1405</ele>
        <time>2000-01-01T18:07:38.000Z</time>
      </trkpt>
      <trkpt lat="45.84" lon="6.2678">
        <ele>1406.5</ele>
        <time>2000-01-01T18:07:48.000Z</time>
      </trkpt>
      <trkpt lat="45.84002" lon="6.26783">
        <ele>1407.5</ele>
        <time>2000-01-01T18:07:58.000Z</time>
      </trkpt>
      <trkpt lat="45.84005" lon="6.26792">
        <ele>1409.8</ele>
        <time>2000-01-01T18:08:08.000Z</time>
      </trkpt>
      <trkpt lat="45.8401" lon="6.268">
        <ele>1407</ele>
        <time>2000-01-01T18:08:18.000Z</time>
      </trkpt>
      <trkpt lat="45.84014" lon="6.26803">
        <ele>1412.6</ele>
        <time>2000-01-01T18:08:28.000Z</time>
      </trkpt>
      <trkpt lat="45.84015" lon="6.26804">
        <ele>1412.9</ele>
        <time>2000-01-01T18:08:38.000Z</time>
      </trkpt>
      <trkpt lat="45.84019" lon="6.26807">
        <ele>1413.7</ele>
        <time>2000-01-01T18:08:48.000Z</time>
      </trkpt>
      <trkpt lat="45.84024" lon="6.26805">
        <ele>1413.7</ele>
        <time>2000-01-01T18:08:58.000Z</time>
      </trkpt>
      <trkpt lat="45.84029" lon="6.268">
        <ele>1410</ele>
        <time>2000-01-01T18:09:08.000Z</time>
      </trkpt>
      <trkpt lat="45.84033" lon="6.26794">
        <ele>1414.9</ele>
        <time>2000-01-01T18:09:18.000Z</time>
      </trkpt>
      <trkpt lat="45.84037" lon="6.26789">
        <ele>1415.8</ele>
        <time>2000-01-01T18:09:28.000Z</time>
      </trkpt>
      <trkpt lat="45.84042" lon="6.26784">
        <ele>1417.1</ele>
        <time>2000-01-01T18:09:38.000Z</time>
      </trkpt>
      <trkpt lat="45.84044" lon="6.2678">
        <ele>1415</ele>
        <time>2000-01-01T18:09:48.000Z</time>
      </trkpt>
      <trkpt lat="45.84044" lon="6.26777">
        <ele>1417.2</ele>
        <time>2000-01-01T18:09:58.000Z</time>
      </trkpt>
      <trkpt lat="45.84046" lon="6.26771">
        <ele>1417.2</ele>
        <time>2000-01-01T18:10:08.000Z</time>
      </trkpt>
      <trkpt lat="45.84049" lon="6.26764">
        <ele>1417.4</ele>
        <time>2000-01-01T18:10:18.000Z</time>
      </trkpt>
      <trkpt lat="45.84051" lon="6.26756">
        <ele>1417.2</ele>
        <time>2000-01-01T18:10:28.000Z</time>
      </trkpt>
      <trkpt lat="45.84055" lon="6.26748">
        <ele>1414</ele>
        <time>2000-01-01T18:10:38.000Z</time>
      </trkpt>
      <trkpt lat="45.84058" lon="6.26741">
        <ele>1417.5</ele>
        <time>2000-01-01T18:10:48.000Z</time>
      </trkpt>
      <trkpt lat="45.84061" lon="6.26732">
        <ele>1417.4</ele>
        <time>2000-01-01T18:10:58.000Z</time>
      </trkpt>
      <trkpt lat="45.84064" lon="6.26723">
        <ele>1414</ele>
        <time>2000-01-01T18:11:08.000Z</time>
      </trkpt>
      <trkpt lat="45.84065" lon="6.26714">
        <ele>1417.7</ele>
        <time>2000-01-01T18:11:18.000Z</time>
      </trkpt>
      <trkpt lat="45.84066" lon="6.26705">
        <ele>1417.7</ele>
        <time>2000-01-01T18:11:28.000Z</time>
      </trkpt>
      <trkpt lat="45.84068" lon="6.26696">
        <ele>1414</ele>
        <time>2000-01-01T18:11:38.000Z</time>
      </trkpt>
      <trkpt lat="45.8407" lon="6.26688">
        <ele>1417.9</ele>
        <time>2000-01-01T18:11:48.000Z</time>
      </trkpt>
      <trkpt lat="45.84072" lon="6.2668">
        <ele>1417.5</ele>
        <time>2000-01-01T18:11:58.000Z</time>
      </trkpt>
      <trkpt lat="45.84075" lon="6.26672">
        <ele>1417.4</ele>
        <time>2000-01-01T18:12:08.000Z</time>
      </trkpt>
      <trkpt lat="45.84078" lon="6.26665">
        <ele>1414</ele>
        <time>2000-01-01T18:12:18.000Z</time>
      </trkpt>
      <trkpt lat="45.84081" lon="6.26659">
        <ele>1418.4</ele>
        <time>2000-01-01T18:12:28.000Z</time>
      </trkpt>
      <trkpt lat="45.84083" lon="6.26657">
        <ele>1418.9</ele>
        <time>2000-01-01T18:12:38.000Z</time>
      </trkpt>
      <trkpt lat="45.84086" lon="6.26651">
        <ele>1420.5</ele>
        <time>2000-01-01T18:12:48.000Z</time>
      </trkpt>
      <trkpt lat="45.84087" lon="6.26645">
        <ele>1421</ele>
        <time>2000-01-01T18:12:58.000Z</time>
      </trkpt>
      <trkpt lat="45.84088" lon="6.26639">
        <ele>1419</ele>
        <time>2000-01-01T18:13:08.000Z</time>
      </trkpt>
      <trkpt lat="45.84087" lon="6.26636">
        <ele>1421.1</ele>
        <time>2000-01-01T18:13:18.000Z</time>
      </trkpt>
      <trkpt lat="45.84089" lon="6.2663">
        <ele>1422.5</ele>
        <time>2000-01-01T18:13:28.000Z</time>
      </trkpt>
      <trkpt lat="45.8409" lon="6.26625">
        <ele>1423.3</ele>
        <time>2000-01-01T18:13:38.000Z</time>
      </trkpt>
      <trkpt lat="45.84092" lon="6.26617">
        <ele>1424.5</ele>
        <time>2000-01-01T18:13:48.000Z</time>
      </trkpt>
      <trkpt lat="45.84094" lon="6.2661">
        <ele>1424</ele>
        <time>2000-01-01T18:13:58.000Z</time>
      </trkpt>
      <trkpt lat="45.84096" lon="6.26607">
        <ele>1426.3</ele>
        <time>2000-01-01T18:14:08.000Z</time>
      </trkpt>
      <trkpt lat="45.84099" lon="6.26602">
        <ele>1427.4</ele>
        <time>2000-01-01T18:14:18.000Z</time>
      </trkpt>
      <trkpt lat="45.84102" lon="6.26597">
        <ele>1428.6</ele>
        <time>2000-01-01T18:14:28.000Z</time>
      </trkpt>
      <trkpt lat="45.84103" lon="6.26592">
        <ele>1429.1</ele>
        <time>2000-01-01T18:14:38.000Z</time>
      </trkpt>
      <trkpt lat="45.84101" lon="6.26586">
        <ele>1429</ele>
        <time>2000-01-01T18:14:48.000Z</time>
      </trkpt>
      <trkpt lat="45.84099" lon="6.26581">
        <ele>1428.6</ele>
        <time>2000-01-01T18:14:58.000Z</time>
      </trkpt>
      <trkpt lat="45.84097" lon="6.26571">
        <ele>1429.9</ele>
        <time>2000-01-01T18:15:08.000Z</time>
      </trkpt>
      <trkpt lat="45.84097" lon="6.26564">
        <ele>1431.2</ele>
        <time>2000-01-01T18:15:18.000Z</time>
      </trkpt>
      <trkpt lat="45.84099" lon="6.26557">
        <ele>1430</ele>
        <time>2000-01-01T18:15:28.000Z</time>
      </trkpt>
      <trkpt lat="45.84099" lon="6.2655">
        <ele>1433.7</ele>
        <time>2000-01-01T18:15:38.000Z</time>
      </trkpt>
      <trkpt lat="45.841" lon="6.26542">
        <ele>1434</ele>
        <time>2000-01-01T18:15:48.000Z</time>
      </trkpt>
      <trkpt lat="45.84101" lon="6.26534">
        <ele>1434.3</ele>
        <time>2000-01-01T18:15:58.000Z</time>
      </trkpt>
      <trkpt lat="45.84104" lon="6.26525">
        <ele>1432</ele>
        <time>2000-01-01T18:16:08.000Z</time>
      </trkpt>
      <trkpt lat="45.84107" lon="6.2652">
        <ele>1436.6</ele>
        <time>2000-01-01T18:16:18.000Z</time>
      </trkpt>
      <trkpt lat="45.84111" lon="6.26515">
        <ele>1438</ele>
        <time>2000-01-01T18:16:28.000Z</time>
      </trkpt>
      <trkpt lat="45.84114" lon="6.26508">
        <ele>1439</ele>
        <time>2000-01-01T18:16:38.000Z</time>
      </trkpt>
      <trkpt lat="45.84117" lon="6.26502">
        <ele>1438</ele>
        <time>2000-01-01T18:16:48.000Z</time>
      </trkpt>
      <trkpt lat="45.84118" lon="6.265">
        <ele>1440.7</ele>
        <time>2000-01-01T18:16:58.000Z</time>
      </trkpt>
      <trkpt lat="45.8412" lon="6.26497">
        <ele>1442.1</ele>
        <time>2000-01-01T18:17:08.000Z</time>
      </trkpt>
      <trkpt lat="45.84123" lon="6.26496">
        <ele>1443.9</ele>
        <time>2000-01-01T18:17:18.000Z</time>
      </trkpt>
      <trkpt lat="45.84126" lon="6.26491">
        <ele>1446.2</ele>
        <time>2000-01-01T18:17:28.000Z</time>
      </trkpt>
      <trkpt lat="45.84127" lon="6.26485">
        <ele>1447.6</ele>
        <time>2000-01-01T18:17:38.000Z</time>
      </trkpt>
      <trkpt lat="45.84126" lon="6.26476">
        <ele>1443</ele>
        <time>2000-01-01T18:17:48.000Z</time>
      </trkpt>
      <trkpt lat="45.84124" lon="6.26467">
        <ele>1449.3</ele>
        <time>2000-01-01T18:17:58.000Z</time>
      </trkpt>
      <trkpt lat="45.84121" lon="6.2646">
        <ele>1450.1</ele>
        <time>2000-01-01T18:18:08.000Z</time>
      </trkpt>
      <trkpt lat="45.84118" lon="6.26454">
        <ele>1450.7</ele>
        <time>2000-01-01T18:18:18.000Z</time>
      </trkpt>
      <trkpt lat="45.84115" lon="6.26449">
        <ele>1451</ele>
        <time>2000-01-01T18:18:28.000Z</time>
      </trkpt>
      <trkpt lat="45.84112" lon="6.26442">
        <ele>1452.2</ele>
        <time>2000-01-01T18:18:38.000Z</time>
      </trkpt>
      <trkpt lat="45.84111" lon="6.26435">
        <ele>1453.7</ele>
        <time>2000-01-01T18:18:48.000Z</time>
      </trkpt>
      <trkpt lat="45.84108" lon="6.26427">
        <ele>1454.6</ele>
        <time>2000-01-01T18:18:58.000Z</time>
      </trkpt>
      <trkpt lat="45.84105" lon="6.2642">
        <ele>1455</ele>
        <time>2000-01-01T18:19:08.000Z</time>
      </trkpt>
      <trkpt lat="45.84101" lon="6.26413">
        <ele>1456</ele>
        <time>2000-01-01T18:19:18.000Z</time>
      </trkpt>
      <trkpt lat="45.84098" lon="6.26407">
        <ele>1456.6</ele>
        <time>2000-01-01T18:19:28.000Z</time>
      </trkpt>
      <trkpt lat="45.84095" lon="6.26402">
        <ele>1456.9</ele>
        <time>2000-01-01T18:19:38.000Z</time>
      </trkpt>
      <trkpt lat="45.84095" lon="6.264">
        <ele>1457.5</ele>
        <time>2000-01-01T18:19:48.000Z</time>
      </trkpt>
      <trkpt lat="45.84093" lon="6.26396">
        <ele>1458</ele>
        <time>2000-01-01T18:19:58.000Z</time>
      </trkpt>
      <trkpt lat="45.84095" lon="6.26393">
        <ele>1459.6</ele>
        <time>2000-01-01T18:20:08.000Z</time>
      </trkpt>
      <trkpt lat="45.84099" lon="6.26394">
        <ele>1460.6</ele>
        <time>2000-01-01T18:20:18.000Z</time>
      </trkpt>
      <trkpt lat="45.84101" lon="6.26395">
        <ele>1461</ele>
        <time>2000-01-01T18:20:28.000Z</time>
      </trkpt>
      <trkpt lat="45.84099" lon="6.26389">
        <ele>1462</ele>
        <time>2000-01-01T18:20:38.000Z</time>
      </trkpt>
      <trkpt lat="45.84096" lon="6.26382">
        <ele>1461</ele>
        <time>2000-01-01T18:20:48.000Z</time>
      </trkpt>
      <trkpt lat="45.84095" lon="6.26375">
        <ele>1463.6</ele>
        <time>2000-01-01T18:20:58.000Z</time>
      </trkpt>
      <trkpt lat="45.84096" lon="6.26367">
        <ele>1465.5</ele>
        <time>2000-01-01T18:21:08.000Z</time>
      </trkpt>
      <trkpt lat="45.84098" lon="6.26361">
        <ele>1467.2</ele>
        <time>2000-01-01T18:21:18.000Z</time>
      </trkpt>
      <trkpt lat="45.841" lon="6.26354">
        <ele>1463</ele>
        <time>2000-01-01T18:21:28.000Z</time>
      </trkpt>
      <trkpt lat="45.84099" lon="6.26345">
        <ele>1469.1</ele>
        <time>2000-01-01T18:21:38.000Z</time>
      </trkpt>
      <trkpt lat="45.84097" lon="6.26339">
        <ele>1468.9</ele>
        <time>2000-01-01T18:21:48.000Z</time>
      </trkpt>
      <trkpt lat="45.84095" lon="6.26333">
        <ele>1468.7</ele>
        <time>2000-01-01T18:21:58.000Z</time>
      </trkpt>
      <trkpt lat="45.84094" lon="6.26326">
        <ele>1467</ele>
        <time>2000-01-01T18:22:08.000Z</time>
      </trkpt>
      <trkpt lat="45.84094" lon="6.2632">
        <ele>1469.5</ele>
        <time>2000-01-01T18:22:18.000Z</time>
      </trkpt>
      <trkpt lat="45.84098" lon="6.26315">
        <ele>1471.4</ele>
        <time>2000-01-01T18:22:28.000Z</time>
      </trkpt>
      <trkpt lat="45.84099" lon="6.26314">
        <ele>1471.9</ele>
        <time>2000-01-01T18:22:38.000Z</time>
      </trkpt>
      <trkpt lat="45.84101" lon="6.26314">
        <ele>1472.6</ele>
        <time>2000-01-01T18:22:48.000Z</time>
      </trkpt>
      <trkpt lat="45.84104" lon="6.26318">
        <ele>1473.4</ele>
        <time>2000-01-01T18:22:58.000Z</time>
      </trkpt>
      <trkpt lat="45.84105" lon="6.26322">
        <ele>1471</ele>
        <time>2000-01-01T18:23:08.000Z</time>
      </trkpt>
      <trkpt lat="45.84107" lon="6.26324">
        <ele>1474.1</ele>
        <time>2000-01-01T18:23:18.000Z</time>
      </trkpt>
      <trkpt lat="45.8411" lon="6.26326">
        <ele>1475.1</ele>
        <time>2000-01-01T18:23:28.000Z</time>
      </trkpt>
      <trkpt lat="45.84112" lon="6.26328">
        <ele>1475.9</ele>
        <time>2000-01-01T18:23:38.000Z</time>
      </trkpt>
      <trkpt lat="45.84114" lon="6.26326">
        <ele>1477</ele>
        <time>2000-01-01T18:23:48.000Z</time>
      </trkpt>
      <trkpt lat="45.84116" lon="6.26319">
        <ele>1478.5</ele>
        <time>2000-01-01T18:23:58.000Z</time>
      </trkpt>
      <trkpt lat="45.84118" lon="6.26314">
        <ele>1477</ele>
        <time>2000-01-01T18:24:08.000Z</time>
      </trkpt>
      <trkpt lat="45.84119" lon="6.26311">
        <ele>1480.4</ele>
        <time>2000-01-01T18:24:18.000Z</time>
      </trkpt>
      <trkpt lat="45.84121" lon="6.26307">
        <ele>1481.6</ele>
        <time>2000-01-01T18:24:28.000Z</time>
      </trkpt>
      <trkpt lat="45.84123" lon="6.26306">
        <ele>1482.5</ele>
        <time>2000-01-01T18:24:38.000Z</time>
      </trkpt>
      <trkpt lat="45.84126" lon="6.26309">
        <ele>1483.9</ele>
        <time>2000-01-01T18:24:48.000Z</time>
      </trkpt>
      <trkpt lat="45.8413" lon="6.26315">
        <ele>1485.6</ele>
        <time>2000-01-01T18:24:58.000Z</time>
      </trkpt>
      <trkpt lat="45.84132" lon="6.2632">
        <ele>1485</ele>
        <time>2000-01-01T18:25:08.000Z</time>
      </trkpt>
      <trkpt lat="45.84134" lon="6.26325">
        <ele>1487.5</ele>
        <time>2000-01-01T18:25:18.000Z</time>
      </trkpt>
      <trkpt lat="45.84136" lon="6.2633">
        <ele>1488.5</ele>
        <time>2000-01-01T18:25:28.000Z</time>
      </trkpt>
      <trkpt lat="45.84139" lon="6.26335">
        <ele>1489.8</ele>
        <time>2000-01-01T18:25:38.000Z</time>
      </trkpt>
      <trkpt lat="45.84141" lon="6.26337">
        <ele>1490.5</ele>
        <time>2000-01-01T18:25:48.000Z</time>
      </trkpt>
      <trkpt lat="45.84142" lon="6.26339">
        <ele>1490.7</ele>
        <time>2000-01-01T18:25:58.000Z</time>
      </trkpt>
      <trkpt lat="45.84145" lon="6.2634">
        <ele>1491</ele>
        <time>2000-01-01T18:26:08.000Z</time>
      </trkpt>
      <trkpt lat="45.84145" lon="6.2634">
        <ele>1492.2</ele>
        <time>2000-01-01T18:26:18.000Z</time>
      </trkpt>
      <trkpt lat="45.84147" lon="6.26341">
        <ele>1493.1</ele>
        <time>2000-01-01T18:26:28.000Z</time>
      </trkpt>
      <trkpt lat="45.84151" lon="6.26342">
        <ele>1495.1</ele>
        <time>2000-01-01T18:26:38.000Z</time>
      </trkpt>
      <trkpt lat="45.84155" lon="6.26346">
        <ele>1496.7</ele>
        <time>2000-01-01T18:26:48.000Z</time>
      </trkpt>
      <trkpt lat="45.8416" lon="6.26348">
        <ele>1499.2</ele>
        <time>2000-01-01T18:26:58.000Z</time>
      </trkpt>
      <trkpt lat="45.84162" lon="6.26349">
        <ele>1500.1</ele>
        <time>2000-01-01T18:27:08.000Z</time>
      </trkpt>
      <trkpt lat="45.84166" lon="6.26351">
        <ele>1499</ele>
        <time>2000-01-01T18:27:18.000Z</time>
      </trkpt>
      <trkpt lat="45.84167" lon="6.26354">
        <ele>1502.2</ele>
        <time>2000-01-01T18:27:28.000Z</time>
      </trkpt>
      <trkpt lat="45.8417" lon="6.26356">
        <ele>1503.5</ele>
        <time>2000-01-01T18:27:38.000Z</time>
      </trkpt>
      <trkpt lat="45.84173" lon="6.26359">
        <ele>1504.7</ele>
        <time>2000-01-01T18:27:48.000Z</time>
      </trkpt>
      <trkpt lat="45.84177" lon="6.26363">
        <ele>1506.3</ele>
        <time>2000-01-01T18:27:58.000Z</time>
      </trkpt>
      <trkpt lat="45.84179" lon="6.26364">
        <ele>1507.3</ele>
        <time>2000-01-01T18:28:08.000Z</time>
      </trkpt>
      <trkpt lat="45.8418" lon="6.26366">
        <ele>1507.6</ele>
        <time>2000-01-01T18:28:18.000Z</time>
      </trkpt>
      <trkpt lat="45.84187" lon="6.26369">
        <ele>1510</ele>
        <time>2000-01-01T18:28:28.000Z</time>
      </trkpt>
      <trkpt lat="45.84188" lon="6.2637">
        <ele>1511.7</ele>
        <time>2000-01-01T18:28:38.000Z</time>
      </trkpt>
      <trkpt lat="45.84192" lon="6.26373">
        <ele>1513.7</ele>
        <time>2000-01-01T18:28:48.000Z</time>
      </trkpt>
      <trkpt lat="45.84195" lon="6.26374">
        <ele>1515.3</ele>
        <time>2000-01-01T18:28:58.000Z</time>
      </trkpt>
      <trkpt lat="45.84198" lon="6.26377">
        <ele>1516.3</ele>
        <time>2000-01-01T18:29:08.000Z</time>
      </trkpt>
      <trkpt lat="45.84202" lon="6.26381">
        <ele>1517.5</ele>
        <time>2000-01-01T18:29:18.000Z</time>
      </trkpt>
      <trkpt lat="45.84203" lon="6.26383">
        <ele>1518</ele>
        <time>2000-01-01T18:29:28.000Z</time>
      </trkpt>
      <trkpt lat="45.84209" lon="6.26384">
        <ele>1519.9</ele>
        <time>2000-01-01T18:29:38.000Z</time>
      </trkpt>
      <trkpt lat="45.84214" lon="6.26386">
        <ele>1521.5</ele>
        <time>2000-01-01T18:29:48.000Z</time>
      </trkpt>
      <trkpt lat="45.84219" lon="6.26389">
        <ele>1522.8</ele>
        <time>2000-01-01T18:29:58.000Z</time>
      </trkpt>
      <trkpt lat="45.84222" lon="6.26389">
        <ele>1525</ele>
        <time>2000-01-01T18:30:08.000Z</time>
      </trkpt>
      <trkpt lat="45.84227" lon="6.26391">
        <ele>1525.5</ele>
        <time>2000-01-01T18:30:18.000Z</time>
      </trkpt>
      <trkpt lat="45.8423" lon="6.26392">
        <ele>1526.5</ele>
        <time>2000-01-01T18:30:28.000Z</time>
      </trkpt>
      <trkpt lat="45.84234" lon="6.26395">
        <ele>1527.3</ele>
        <time>2000-01-01T18:30:38.000Z</time>
      </trkpt>
      <trkpt lat="45.84236" lon="6.26397">
        <ele>1527.5</ele>
        <time>2000-01-01T18:30:48.000Z</time>
      </trkpt>
      <trkpt lat="45.84245" lon="6.264">
        <ele>1529</ele>
        <time>2000-01-01T18:30:58.000Z</time>
      </trkpt>
      <trkpt lat="45.84246" lon="6.26401">
        <ele>1530.1</ele>
        <time>2000-01-01T18:31:08.000Z</time>
      </trkpt>
      <trkpt lat="45.8425" lon="6.26402">
        <ele>1531.3</ele>
        <time>2000-01-01T18:31:18.000Z</time>
      </trkpt>
      <trkpt lat="45.84262" lon="6.26398">
        <ele>1532.4</ele>
        <time>2000-01-01T18:31:28.000Z</time>
      </trkpt>
      <trkpt lat="45.84265" lon="6.26397">
        <ele>1536</ele>
        <time>2000-01-01T18:31:38.000Z</time>
      </trkpt>
      <trkpt lat="45.84266" lon="6.26393">
        <ele>1534</ele>
        <time>2000-01-01T18:31:48.000Z</time>
      </trkpt>
      <trkpt lat="45.84263" lon="6.26387">
        <ele>1536</ele>
        <time>2000-01-01T18:31:58.000Z</time>
      </trkpt>
      <trkpt lat="45.84259" lon="6.26382">
        <ele>1537.2</ele>
        <time>2000-01-01T18:32:08.000Z</time>
      </trkpt>
      <trkpt lat="45.84255" lon="6.26377">
        <ele>1539</ele>
        <time>2000-01-01T18:32:18.000Z</time>
      </trkpt>
      <trkpt lat="45.84251" lon="6.26367">
        <ele>1540</ele>
        <time>2000-01-01T18:32:28.000Z</time>
      </trkpt>
      <trkpt lat="45.8425" lon="6.26358">
        <ele>1541.9</ele>
        <time>2000-01-01T18:32:38.000Z</time>
      </trkpt>
      <trkpt lat="45.84248" lon="6.26352">
        <ele>1539</ele>
        <time>2000-01-01T18:32:48.000Z</time>
      </trkpt>
      <trkpt lat="45.84247" lon="6.26345">
        <ele>1544.2</ele>
        <time>2000-01-01T18:32:58.000Z</time>
      </trkpt>
      <trkpt lat="45.84246" lon="6.26342">
        <ele>1544.6</ele>
        <time>2000-01-01T18:33:08.000Z</time>
      </trkpt>
      <trkpt lat="45.84244" lon="6.26331">
        <ele>1546.5</ele>
        <time>2000-01-01T18:33:18.000Z</time>
      </trkpt>
      <trkpt lat="45.84243" lon="6.26328">
        <ele>1546.7</ele>
        <time>2000-01-01T18:33:28.000Z</time>
      </trkpt>
      <trkpt lat="45.8425" lon="6.26322">
        <ele>1548</ele>
        <time>2000-01-01T18:33:38.000Z</time>
      </trkpt>
      <trkpt lat="45.84256" lon="6.26325">
        <ele>1552.4</ele>
        <time>2000-01-01T18:33:48.000Z</time>
      </trkpt>
      <trkpt lat="45.84266" lon="6.26325">
        <ele>1554.6</ele>
        <time>2000-01-01T18:33:58.000Z</time>
      </trkpt>
      <trkpt lat="45.84268" lon="6.26324">
        <ele>1556</ele>
        <time>2000-01-01T18:34:08.000Z</time>
      </trkpt>
      <trkpt lat="45.84269" lon="6.26327">
        <ele>1554.7</ele>
        <time>2000-01-01T18:34:18.000Z</time>
      </trkpt>
      <trkpt lat="45.84272" lon="6.26328">
        <ele>1555.1</ele>
        <time>2000-01-01T18:34:28.000Z</time>
      </trkpt>
      <trkpt lat="45.8427" lon="6.26322">
        <ele>1556.2</ele>
        <time>2000-01-01T18:34:38.000Z</time>
      </trkpt>
      <trkpt lat="45.84268" lon="6.26319">
        <ele>1556.5</ele>
        <time>2000-01-01T18:34:48.000Z</time>
      </trkpt>
      <trkpt lat="45.84267" lon="6.26312">
        <ele>1558</ele>
        <time>2000-01-01T18:34:58.000Z</time>
      </trkpt>
      <trkpt lat="45.84265" lon="6.26305">
        <ele>1561</ele>
        <time>2000-01-01T18:35:08.000Z</time>
      </trkpt>
      <trkpt lat="45.84264" lon="6.26301">
        <ele>1559.5</ele>
        <time>2000-01-01T18:35:18.000Z</time>
      </trkpt>
      <trkpt lat="45.84263" lon="6.26296">
        <ele>1559.8</ele>
        <time>2000-01-01T18:35:28.000Z</time>
      </trkpt>
      <trkpt lat="45.84264" lon="6.2629">
        <ele>1560.7</ele>
        <time>2000-01-01T18:35:38.000Z</time>
      </trkpt>
      <trkpt lat="45.84267" lon="6.26284">
        <ele>1562.2</ele>
        <time>2000-01-01T18:35:48.000Z</time>
      </trkpt>
      <trkpt lat="45.8427" lon="6.26278">
        <ele>1565</ele>
        <time>2000-01-01T18:35:58.000Z</time>
      </trkpt>
      <trkpt lat="45.84273" lon="6.2627">
        <ele>1565.2</ele>
        <time>2000-01-01T18:36:08.000Z</time>
      </trkpt>
      <trkpt lat="45.84277" lon="6.26265">
        <ele>1567.1</ele>
        <time>2000-01-01T18:36:18.000Z</time>
      </trkpt>
      <trkpt lat="45.8428" lon="6.26263">
        <ele>1567.5</ele>
        <time>2000-01-01T18:36:28.000Z</time>
      </trkpt>
      <trkpt lat="45.84284" lon="6.26258">
        <ele>1569</ele>
        <time>2000-01-01T18:36:38.000Z</time>
      </trkpt>
      <trkpt lat="45.84288" lon="6.26254">
        <ele>1568.9</ele>
        <time>2000-01-01T18:36:48.000Z</time>
      </trkpt>
      <trkpt lat="45.8429" lon="6.26249">
        <ele>1570</ele>
        <time>2000-01-01T18:36:58.000Z</time>
      </trkpt>
      <trkpt lat="45.84293" lon="6.26244">
        <ele>1571.3</ele>
        <time>2000-01-01T18:37:08.000Z</time>
      </trkpt>
      <trkpt lat="45.84295" lon="6.26241">
        <ele>1572.2</ele>
        <time>2000-01-01T18:37:18.000Z</time>
      </trkpt>
      <trkpt lat="45.84297" lon="6.2624">
        <ele>1572.9</ele>
        <time>2000-01-01T18:37:28.000Z</time>
      </trkpt>
      <trkpt lat="45.843" lon="6.26235">
        <ele>1577</ele>
        <time>2000-01-01T18:37:38.000Z</time>
      </trkpt>
      <trkpt lat="45.84301" lon="6.26232">
        <ele>1576.1</ele>
        <time>2000-01-01T18:37:48.000Z</time>
      </trkpt>
      <trkpt lat="45.84304" lon="6.26228">
        <ele>1578.4</ele>
        <time>2000-01-01T18:37:58.000Z</time>
      </trkpt>
      <trkpt lat="45.84305" lon="6.26226">
        <ele>1579.4</ele>
        <time>2000-01-01T18:38:08.000Z</time>
      </trkpt>
      <trkpt lat="45.84308" lon="6.26224">
        <ele>1580.1</ele>
        <time>2000-01-01T18:38:18.000Z</time>
      </trkpt>
      <trkpt lat="45.84308" lon="6.26224">
        <ele>1580.1</ele>
        <time>2000-01-01T18:38:28.000Z</time>
      </trkpt>
      <trkpt lat="45.84311" lon="6.26219">
        <ele>1580.9</ele>
        <time>2000-01-01T18:38:38.000Z</time>
      </trkpt>
      <trkpt lat="45.84315" lon="6.26216">
        <ele>1584</ele>
        <time>2000-01-01T18:38:48.000Z</time>
      </trkpt>
      <trkpt lat="45.84318" lon="6.26213">
        <ele>1581.8</ele>
        <time>2000-01-01T18:38:58.000Z</time>
      </trkpt>
      <trkpt lat="45.8432" lon="6.26208">
        <ele>1583.1</ele>
        <time>2000-01-01T18:39:08.000Z</time>
      </trkpt>
      <trkpt lat="45.8432" lon="6.26201">
        <ele>1584.9</ele>
        <time>2000-01-01T18:39:18.000Z</time>
      </trkpt>
      <trkpt lat="45.8432" lon="6.26198">
        <ele>1585.7</ele>
        <time>2000-01-01T18:39:28.000Z</time>
      </trkpt>
      <trkpt lat="45.84322" lon="6.26193">
        <ele>1587.1</ele>
        <time>2000-01-01T18:39:38.000Z</time>
      </trkpt>
      <trkpt lat="45.84325" lon="6.26188">
        <ele>1589</ele>
        <time>2000-01-01T18:39:48.000Z</time>
      </trkpt>
      <trkpt lat="45.8433" lon="6.26181">
        <ele>1590.8</ele>
        <time>2000-01-01T18:39:58.000Z</time>
      </trkpt>
      <trkpt lat="45.84333" lon="6.26177">
        <ele>1592.6</ele>
        <time>2000-01-01T18:40:08.000Z</time>
      </trkpt>
      <trkpt lat="45.84335" lon="6.26175">
        <ele>1593.4</ele>
        <time>2000-01-01T18:40:18.000Z</time>
      </trkpt>
      <trkpt lat="45.84336" lon="6.26173">
        <ele>1594</ele>
        <time>2000-01-01T18:40:28.000Z</time>
      </trkpt>
      <trkpt lat="45.84336" lon="6.26169">
        <ele>1595</ele>
        <time>2000-01-01T18:40:38.000Z</time>
      </trkpt>
      <trkpt lat="45.8434" lon="6.26166">
        <ele>1598</ele>
        <time>2000-01-01T18:40:48.000Z</time>
      </trkpt>
      <trkpt lat="45.84342" lon="6.26166">
        <ele>1597</ele>
        <time>2000-01-01T18:40:58.000Z</time>
      </trkpt>
      <trkpt lat="45.84344" lon="6.26166">
        <ele>1597.5</ele>
        <time>2000-01-01T18:41:08.000Z</time>
      </trkpt>
      <trkpt lat="45.84344" lon="6.26166">
        <ele>1597.5</ele>
        <time>2000-01-01T18:41:18.000Z</time>
      </trkpt>
      <trkpt lat="45.84346" lon="6.26165">
        <ele>1598.2</ele>
        <time>2000-01-01T18:41:28.000Z</time>
      </trkpt>
      <trkpt lat="45.84347" lon="6.26163">
        <ele>1599</ele>
        <time>2000-01-01T18:41:38.000Z</time>
      </trkpt>
      <trkpt lat="45.84347" lon="6.26161">
        <ele>1599.6</ele>
        <time>2000-01-01T18:41:48.000Z</time>
      </trkpt>
      <trkpt lat="45.8435" lon="6.26155">
        <ele>1602.4</ele>
        <time>2000-01-01T18:41:58.000Z</time>
      </trkpt>
      <trkpt lat="45.84352" lon="6.26154">
        <ele>1603.5</ele>
        <time>2000-01-01T18:42:08.000Z</time>
      </trkpt>
      <trkpt lat="45.84352" lon="6.26152">
        <ele>1604.2</ele>
        <time>2000-01-01T18:42:18.000Z</time>
      </trkpt>
      <trkpt lat="45.84352" lon="6.26148">
        <ele>1606</ele>
        <time>2000-01-01T18:42:28.000Z</time>
      </trkpt>
      <trkpt lat="45.84356" lon="6.26146">
        <ele>1608.2</ele>
        <time>2000-01-01T18:42:38.000Z</time>
      </trkpt>
      <trkpt lat="45.84359" lon="6.26144">
        <ele>1610.5</ele>
        <time>2000-01-01T18:42:48.000Z</time>
      </trkpt>
      <trkpt lat="45.84358" lon="6.26138">
        <ele>1612.3</ele>
        <time>2000-01-01T18:42:58.000Z</time>
      </trkpt>
      <trkpt lat="45.84358" lon="6.26132">
        <ele>1613</ele>
        <time>2000-01-01T18:43:08.000Z</time>
      </trkpt>
      <trkpt lat="45.84358" lon="6.26129">
        <ele>1613.3</ele>
        <time>2000-01-01T18:43:18.000Z</time>
      </trkpt>
      <trkpt lat="45.84359" lon="6.26127">
        <ele>1608</ele>
        <time>2000-01-01T18:43:28.000Z</time>
      </trkpt>
      <trkpt lat="45.84359" lon="6.26125">
        <ele>1614.4</ele>
        <time>2000-01-01T18:43:38.000Z</time>
      </trkpt>
      <trkpt lat="45.84362" lon="6.26125">
        <ele>1616.5</ele>
        <time>2000-01-01T18:43:48.000Z</time>
      </trkpt>
      <trkpt lat="45.84362" lon="6.26125">
        <ele>1616.5</ele>
        <time>2000-01-01T18:43:58.000Z</time>
      </trkpt>
      <trkpt lat="45.84365" lon="6.26123">
        <ele>1618.4</ele>
        <time>2000-01-01T18:44:08.000Z</time>
      </trkpt>
      <trkpt lat="45.84367" lon="6.26121">
        <ele>1619.9</ele>
        <time>2000-01-01T18:44:18.000Z</time>
      </trkpt>
      <trkpt lat="45.84368" lon="6.26118">
        <ele>1621.1</ele>
        <time>2000-01-01T18:44:28.000Z</time>
      </trkpt>
      <trkpt lat="45.84371" lon="6.26118">
        <ele>1622.9</ele>
        <time>2000-01-01T18:44:38.000Z</time>
      </trkpt>
      <trkpt lat="45.84373" lon="6.26121">
        <ele>1623.4</ele>
        <time>2000-01-01T18:44:48.000Z</time>
      </trkpt>
      <trkpt lat="45.84374" lon="6.26123">
        <ele>1625</ele>
        <time>2000-01-01T18:44:58.000Z</time>
      </trkpt>
      <trkpt lat="45.84376" lon="6.26124">
        <ele>1624.3</ele>
        <time>2000-01-01T18:45:08.000Z</time>
      </trkpt>
      <trkpt lat="45.84379" lon="6.26121">
        <ele>1626.8</ele>
        <time>2000-01-01T18:45:18.000Z</time>
      </trkpt>
      <trkpt lat="45.8438" lon="6.26118">
        <ele>1628.2</ele>
        <time>2000-01-01T18:45:28.000Z</time>
      </trkpt>
      <trkpt lat="45.84382" lon="6.26115">
        <ele>1630.3</ele>
        <time>2000-01-01T18:45:38.000Z</time>
      </trkpt>
      <trkpt lat="45.84386" lon="6.26115">
        <ele>1632.8</ele>
        <time>2000-01-01T18:45:48.000Z</time>
      </trkpt>
      <trkpt lat="45.84391" lon="6.26117">
        <ele>1636</ele>
        <time>2000-01-01T18:45:58.000Z</time>
      </trkpt>
      <trkpt lat="45.84394" lon="6.26119">
        <ele>1635.4</ele>
        <time>2000-01-01T18:46:08.000Z</time>
      </trkpt>
      <trkpt lat="45.84397" lon="6.2612">
        <ele>1636.3</ele>
        <time>2000-01-01T18:46:18.000Z</time>
      </trkpt>
      <trkpt lat="45.84399" lon="6.2612">
        <ele>1637.2</ele>
        <time>2000-01-01T18:46:28.000Z</time>
      </trkpt>
      <trkpt lat="45.84401" lon="6.26121">
        <ele>1637.6</ele>
        <time>2000-01-01T18:46:38.000Z</time>
      </trkpt>
      <trkpt lat="45.84403" lon="6.26121">
        <ele>1638.5</ele>
        <time>2000-01-01T18:46:48.000Z</time>
      </trkpt>
      <trkpt lat="45.84406" lon="6.26116">
        <ele>1642.2</ele>
        <time>2000-01-01T18:46:58.000Z</time>
      </trkpt>
      <trkpt lat="45.84407" lon="6.26114">
        <ele>1640</ele>
        <time>2000-01-01T18:47:08.000Z</time>
      </trkpt>
      <trkpt lat="45.8441" lon="6.26115">
        <ele>1644.6</ele>
        <time>2000-01-01T18:47:18.000Z</time>
      </trkpt>
      <trkpt lat="45.84412" lon="6.26117">
        <ele>1644.5</ele>
        <time>2000-01-01T18:47:28.000Z</time>
      </trkpt>
      <trkpt lat="45.84414" lon="6.26118">
        <ele>1644.8</ele>
        <time>2000-01-01T18:47:38.000Z</time>
      </trkpt>
      <trkpt lat="45.84416" lon="6.26118">
        <ele>1645.7</ele>
        <time>2000-01-01T18:47:48.000Z</time>
      </trkpt>
      <trkpt lat="45.84416" lon="6.26115">
        <ele>1647.4</ele>
        <time>2000-01-01T18:47:58.000Z</time>
      </trkpt>
      <trkpt lat="45.8442" lon="6.26116">
        <ele>1648.1</ele>
        <time>2000-01-01T18:48:08.000Z</time>
      </trkpt>
      <trkpt lat="45.84424" lon="6.26116">
        <ele>1652</ele>
        <time>2000-01-01T18:48:18.000Z</time>
      </trkpt>
      <trkpt lat="45.84427" lon="6.26116">
        <ele>1650.1</ele>
        <time>2000-01-01T18:48:28.000Z</time>
      </trkpt>
      <trkpt lat="45.8443" lon="6.26117">
        <ele>1650.2</ele>
        <time>2000-01-01T18:48:38.000Z</time>
      </trkpt>
      <trkpt lat="45.84435" lon="6.26115">
        <ele>1653.1</ele>
        <time>2000-01-01T18:48:48.000Z</time>
      </trkpt>
      <trkpt lat="45.84437" lon="6.26114">
        <ele>1654.4</ele>
        <time>2000-01-01T18:48:58.000Z</time>
      </trkpt>
      <trkpt lat="45.84439" lon="6.26114">
        <ele>1655</ele>
        <time>2000-01-01T18:49:08.000Z</time>
      </trkpt>
      <trkpt lat="45.84441" lon="6.26113">
        <ele>1656.4</ele>
        <time>2000-01-01T18:49:18.000Z</time>
      </trkpt>
      <trkpt lat="45.84443" lon="6.26111">
        <ele>1651</ele>
        <time>2000-01-01T18:49:28.000Z</time>
      </trkpt>
      <trkpt lat="45.84441" lon="6.26103">
        <ele>1656.3</ele>
        <time>2000-01-01T18:49:38.000Z</time>
      </trkpt>
      <trkpt lat="45.84442" lon="6.26097">
        <ele>1655.9</ele>
        <time>2000-01-01T18:49:48.000Z</time>
      </trkpt>
      <trkpt lat="45.84442" lon="6.26089">
        <ele>1654.7</ele>
        <time>2000-01-01T18:49:58.000Z</time>
      </trkpt>
      <trkpt lat="45.84445" lon="6.26084">
        <ele>1658</ele>
        <time>2000-01-01T18:50:08.000Z</time>
      </trkpt>
      <trkpt lat="45.84446" lon="6.26081">
        <ele>1656.9</ele>
        <time>2000-01-01T18:50:18.000Z</time>
      </trkpt>
      <trkpt lat="45.84449" lon="6.26077">
        <ele>1657.2</ele>
        <time>2000-01-01T18:50:28.000Z</time>
      </trkpt>
      <trkpt lat="45.84451" lon="6.26074">
        <ele>1657.5</ele>
        <time>2000-01-01T18:50:38.000Z</time>
      </trkpt>
      <trkpt lat="45.84452" lon="6.26071">
        <ele>1656.8</ele>
        <time>2000-01-01T18:50:48.000Z</time>
      </trkpt>
      <trkpt lat="45.84455" lon="6.26067">
        <ele>1658</ele>
        <time>2000-01-01T18:50:58.000Z</time>
      </trkpt>
      <trkpt lat="45.84456" lon="6.26064">
        <ele>1657.7</ele>
        <time>2000-01-01T18:51:08.000Z</time>
      </trkpt>
      <trkpt lat="45.84457" lon="6.26061">
        <ele>1661</ele>
        <time>2000-01-01T18:51:18.000Z</time>
      </trkpt>
      <trkpt lat="45.84459" lon="6.2606">
        <ele>1659.4</ele>
        <time>2000-01-01T18:51:28.000Z</time>
      </trkpt>
      <trkpt lat="45.84459" lon="6.26055">
        <ele>1657.1</ele>
        <time>2000-01-01T18:51:38.000Z</time>
      </trkpt>
      <trkpt lat="45.8446" lon="6.26051">
        <ele>1656.7</ele>
        <time>2000-01-01T18:51:48.000Z</time>
      </trkpt>
      <trkpt lat="45.84464" lon="6.26048">
        <ele>1660.6</ele>
        <time>2000-01-01T18:51:58.000Z</time>
      </trkpt>
      <trkpt lat="45.84468" lon="6.26048">
        <ele>1665.7</ele>
        <time>2000-01-01T18:52:08.000Z</time>
      </trkpt>
      <trkpt lat="45.84472" lon="6.26048">
        <ele>1661</ele>
        <time>2000-01-01T18:52:18.000Z</time>
      </trkpt>
      <trkpt lat="45.84475" lon="6.26047">
        <ele>1670.2</ele>
        <time>2000-01-01T18:52:28.000Z</time>
      </trkpt>
      <trkpt lat="45.84477" lon="6.26047">
        <ele>1669.9</ele>
        <time>2000-01-01T18:52:38.000Z</time>
      </trkpt>
      <trkpt lat="45.84481" lon="6.26046">
        <ele>1668.7</ele>
        <time>2000-01-01T18:52:48.000Z</time>
      </trkpt>
      <trkpt lat="45.84485" lon="6.26043">
        <ele>1666.7</ele>
        <time>2000-01-01T18:52:58.000Z</time>
      </trkpt>
      <trkpt lat="45.84489" lon="6.26041">
        <ele>1665.3</ele>
        <time>2000-01-01T18:53:08.000Z</time>
      </trkpt>
      <trkpt lat="45.84494" lon="6.26038">
        <ele>1661</ele>
        <time>2000-01-01T18:53:18.000Z</time>
      </trkpt>
      <trkpt lat="45.84499" lon="6.26034">
        <ele>1661.3</ele>
        <time>2000-01-01T18:53:28.000Z</time>
      </trkpt>
      <trkpt lat="45.84503" lon="6.26031">
        <ele>1659.6</ele>
        <time>2000-01-01T18:53:38.000Z</time>
      </trkpt>
      <trkpt lat="45.84508" lon="6.26028">
        <ele>1657.6</ele>
        <time>2000-01-01T18:53:48.000Z</time>
      </trkpt>
      <trkpt lat="45.84512" lon="6.26025">
        <ele>1654</ele>
        <time>2000-01-01T18:53:58.000Z</time>
      </trkpt>
      <trkpt lat="45.84515" lon="6.26023">
        <ele>1655.1</ele>
        <time>2000-01-01T18:54:08.000Z</time>
      </trkpt>
      <trkpt lat="45.84518" lon="6.26021">
        <ele>1654.1</ele>
        <time>2000-01-01T18:54:18.000Z</time>
      </trkpt>
      <trkpt lat="45.84523" lon="6.26017">
        <ele>1652.4</ele>
        <time>2000-01-01T18:54:28.000Z</time>
      </trkpt>
      <trkpt lat="45.84528" lon="6.26014">
        <ele>1651</ele>
        <time>2000-01-01T18:54:38.000Z</time>
      </trkpt>
      <trkpt lat="45.84529" lon="6.26012">
        <ele>1650</ele>
        <time>2000-01-01T18:54:48.000Z</time>
      </trkpt>
      <trkpt lat="45.84532" lon="6.26006">
        <ele>1648.5</ele>
        <time>2000-01-01T18:54:58.000Z</time>
      </trkpt>
      <trkpt lat="45.84533" lon="6.25998">
        <ele>1646.9</ele>
        <time>2000-01-01T18:55:08.000Z</time>
      </trkpt>
      <trkpt lat="45.84538" lon="6.25996">
        <ele>1645.9</ele>
        <time>2000-01-01T18:55:18.000Z</time>
      </trkpt>
      <trkpt lat="45.84542" lon="6.25996">
        <ele>1644</ele>
        <time>2000-01-01T18:55:28.000Z</time>
      </trkpt>
      <trkpt lat="45.84547" lon="6.25996">
        <ele>1644.4</ele>
        <time>2000-01-01T18:55:38.000Z</time>
      </trkpt>
      <trkpt lat="45.84552" lon="6.25996">
        <ele>1643.5</ele>
        <time>2000-01-01T18:55:48.000Z</time>
      </trkpt>
      <trkpt lat="45.84557" lon="6.25997">
        <ele>1642.8</ele>
        <time>2000-01-01T18:55:58.000Z</time>
      </trkpt>
      <trkpt lat="45.84562" lon="6.25998">
        <ele>1642</ele>
        <time>2000-01-01T18:56:08.000Z</time>
      </trkpt>
      <trkpt lat="45.84568" lon="6.25996">
        <ele>1641.8</ele>
        <time>2000-01-01T18:56:18.000Z</time>
      </trkpt>
      <trkpt lat="45.84575" lon="6.25993">
        <ele>1641</ele>
        <time>2000-01-01T18:56:28.000Z</time>
      </trkpt>
      <trkpt lat="45.84583" lon="6.25993">
        <ele>1639</ele>
        <time>2000-01-01T18:56:38.000Z</time>
      </trkpt>
      <trkpt lat="45.84591" lon="6.25993">
        <ele>1639.1</ele>
        <time>2000-01-01T18:56:48.000Z</time>
      </trkpt>
      <trkpt lat="45.84599" lon="6.25993">
        <ele>1637.8</ele>
        <time>2000-01-01T18:56:58.000Z</time>
      </trkpt>
      <trkpt lat="45.84603" lon="6.25992">
        <ele>1636</ele>
        <time>2000-01-01T18:57:08.000Z</time>
      </trkpt>
      <trkpt lat="45.84614" lon="6.25992">
        <ele>1635.8</ele>
        <time>2000-01-01T18:57:18.000Z</time>
      </trkpt>
      <trkpt lat="45.84621" lon="6.25992">
        <ele>1635.6</ele>
        <time>2000-01-01T18:57:28.000Z</time>
      </trkpt>
      <trkpt lat="45.84628" lon="6.2599">
        <ele>1635</ele>
        <time>2000-01-01T18:57:38.000Z</time>
      </trkpt>
      <trkpt lat="45.84634" lon="6.25988">
        <ele>1634.8</ele>
        <time>2000-01-01T18:57:48.000Z</time>
      </trkpt>
      <trkpt lat="45.8464" lon="6.25987">
        <ele>1634.5</ele>
        <time>2000-01-01T18:57:58.000Z</time>
      </trkpt>
      <trkpt lat="45.84647" lon="6.25987">
        <ele>1633</ele>
        <time>2000-01-01T18:58:08.000Z</time>
      </trkpt>
      <trkpt lat="45.84654" lon="6.25987">
        <ele>1633.3</ele>
        <time>2000-01-01T18:58:18.000Z</time>
      </trkpt>
      <trkpt lat="45.8466" lon="6.25985">
        <ele>1632.4</ele>
        <time>2000-01-01T18:58:28.000Z</time>
      </trkpt>
      <trkpt lat="45.84666" lon="6.25983">
        <ele>1631</ele>
        <time>2000-01-01T18:58:38.000Z</time>
      </trkpt>
      <trkpt lat="45.84673" lon="6.25983">
        <ele>1630.7</ele>
        <time>2000-01-01T18:58:48.000Z</time>
      </trkpt>
      <trkpt lat="45.84677" lon="6.25982">
        <ele>1630.1</ele>
        <time>2000-01-01T18:58:58.000Z</time>
      </trkpt>
      <trkpt lat="45.8468" lon="6.25982">
        <ele>1629.7</ele>
        <time>2000-01-01T18:59:08.000Z</time>
      </trkpt>
      <trkpt lat="45.84688" lon="6.25983">
        <ele>1629</ele>
        <time>2000-01-01T18:59:18.000Z</time>
      </trkpt>
      <trkpt lat="45.84696" lon="6.25984">
        <ele>1628.1</ele>
        <time>2000-01-01T18:59:28.000Z</time>
      </trkpt>
      <trkpt lat="45.84703" lon="6.25981">
        <ele>1627.4</ele>
        <time>2000-01-01T18:59:38.000Z</time>
      </trkpt>
      <trkpt lat="45.8471" lon="6.25976">
        <ele>1625</ele>
        <time>2000-01-01T18:59:48.000Z</time>
      </trkpt>
      <trkpt lat="45.84718" lon="6.25973">
        <ele>1626.1</ele>
        <time>2000-01-01T18:59:58.000Z</time>
      </trkpt>
      <trkpt lat="45.84726" lon="6.2597">
        <ele>1625.8</ele>
        <time>2000-01-01T19:00:08.000Z</time>
      </trkpt>
      <trkpt lat="45.84733" lon="6.25969">
        <ele>1624</ele>
        <time>2000-01-01T19:00:18.000Z</time>
      </trkpt>
      <trkpt lat="45.84741" lon="6.25971">
        <ele>1625.2</ele>
        <time>2000-01-01T19:00:28.000Z</time>
      </trkpt>
      <trkpt lat="45.84749" lon="6.25973">
        <ele>1625.1</ele>
        <time>2000-01-01T19:00:38.000Z</time>
      </trkpt>
      <trkpt lat="45.84756" lon="6.25975">
        <ele>1624</ele>
        <time>2000-01-01T19:00:48.000Z</time>
      </trkpt>
      <trkpt lat="45.84763" lon="6.25977">
        <ele>1625</ele>
        <time>2000-01-01T19:00:58.000Z</time>
      </trkpt>
      <trkpt lat="45.8477" lon="6.25976">
        <ele>1624.6</ele>
        <time>2000-01-01T19:01:08.000Z</time>
      </trkpt>
      <trkpt lat="45.84776" lon="6.25975">
        <ele>1623</ele>
        <time>2000-01-01T19:01:18.000Z</time>
      </trkpt>
      <trkpt lat="45.84783" lon="6.25972">
        <ele>1623.4</ele>
        <time>2000-01-01T19:01:28.000Z</time>
      </trkpt>
      <trkpt lat="45.8479" lon="6.2597">
        <ele>1622.6</ele>
        <time>2000-01-01T19:01:38.000Z</time>
      </trkpt>
      <trkpt lat="45.84797" lon="6.25969">
        <ele>1622</ele>
        <time>2000-01-01T19:01:48.000Z</time>
      </trkpt>
      <trkpt lat="45.84804" lon="6.25968">
        <ele>1621.3</ele>
        <time>2000-01-01T19:01:58.000Z</time>
      </trkpt>
      <trkpt lat="45.84812" lon="6.25967">
        <ele>1621</ele>
        <time>2000-01-01T19:02:08.000Z</time>
      </trkpt>
      <trkpt lat="45.8482" lon="6.25968">
        <ele>1620</ele>
        <time>2000-01-01T19:02:18.000Z</time>
      </trkpt>
      <trkpt lat="45.84827" lon="6.25967">
        <ele>1620.6</ele>
        <time>2000-01-01T19:02:28.000Z</time>
      </trkpt>
      <trkpt lat="45.84833" lon="6.25966">
        <ele>1620.5</ele>
        <time>2000-01-01T19:02:38.000Z</time>
      </trkpt>
      <trkpt lat="45.8484" lon="6.25967">
        <ele>1620</ele>
        <time>2000-01-01T19:02:48.000Z</time>
      </trkpt>
      <trkpt lat="45.84847" lon="6.25968">
        <ele>1619.4</ele>
        <time>2000-01-01T19:02:58.000Z</time>
      </trkpt>
      <trkpt lat="45.84854" lon="6.25968">
        <ele>1618.9</ele>
        <time>2000-01-01T19:03:08.000Z</time>
      </trkpt>
      <trkpt lat="45.84861" lon="6.25967">
        <ele>1619</ele>
        <time>2000-01-01T19:03:18.000Z</time>
      </trkpt>
      <trkpt lat="45.84868" lon="6.25967">
        <ele>1617.8</ele>
        <time>2000-01-01T19:03:28.000Z</time>
      </trkpt>
      <trkpt lat="45.84875" lon="6.25966">
        <ele>1617.1</ele>
        <time>2000-01-01T19:03:38.000Z</time>
      </trkpt>
      <trkpt lat="45.84883" lon="6.25966">
        <ele>1617</ele>
        <time>2000-01-01T19:03:48.000Z</time>
      </trkpt>
      <trkpt lat="45.8489" lon="6.25965">
        <ele>1615.4</ele>
        <time>2000-01-01T19:03:58.000Z</time>
      </trkpt>
      <trkpt lat="45.84894" lon="6.25965">
        <ele>1615</ele>
        <time>2000-01-01T19:04:08.000Z</time>
      </trkpt>
      <trkpt lat="45.84898" lon="6.25964">
        <ele>1614.6</ele>
        <time>2000-01-01T19:04:18.000Z</time>
      </trkpt>
      <trkpt lat="45.84901" lon="6.25964">
        <ele>1614.3</ele>
        <time>2000-01-01T19:04:28.000Z</time>
      </trkpt>
      <trkpt lat="45.84909" lon="6.25963">
        <ele>1614</ele>
        <time>2000-01-01T19:04:38.000Z</time>
      </trkpt>
      <trkpt lat="45.84917" lon="6.25963">
        <ele>1612.6</ele>
        <time>2000-01-01T19:04:48.000Z</time>
      </trkpt>
      <trkpt lat="45.84924" lon="6.25961">
        <ele>1611.9</ele>
        <time>2000-01-01T19:04:58.000Z</time>
      </trkpt>
      <trkpt lat="45.84931" lon="6.25957">
        <ele>1612</ele>
        <time>2000-01-01T19:05:08.000Z</time>
      </trkpt>
      <trkpt lat="45.84938" lon="6.25953">
        <ele>1610.5</ele>
        <time>2000-01-01T19:05:18.000Z</time>
      </trkpt>
      <trkpt lat="45.84943" lon="6.25948">
        <ele>1610.1</ele>
        <time>2000-01-01T19:05:28.000Z</time>
      </trkpt>
      <trkpt lat="45.84949" lon="6.25942">
        <ele>1611</ele>
        <time>2000-01-01T19:05:38.000Z</time>
      </trkpt>
      <trkpt lat="45.84954" lon="6.25936">
        <ele>1609.1</ele>
        <time>2000-01-01T19:05:48.000Z</time>
      </trkpt>
      <trkpt lat="45.84963" lon="6.25925">
        <ele>1609</ele>
        <time>2000-01-01T19:05:58.000Z</time>
      </trkpt>
      <trkpt lat="45.84969" lon="6.25919">
        <ele>1611</ele>
        <time>2000-01-01T19:06:08.000Z</time>
      </trkpt>
      <trkpt lat="45.84975" lon="6.25916">
        <ele>1609.1</ele>
        <time>2000-01-01T19:06:18.000Z</time>
      </trkpt>
      <trkpt lat="45.84982" lon="6.25914">
        <ele>1609.5</ele>
        <time>2000-01-01T19:06:28.000Z</time>
      </trkpt>
      <trkpt lat="45.84987" lon="6.25913">
        <ele>1612</ele>
        <time>2000-01-01T19:06:38.000Z</time>
      </trkpt>
      <trkpt lat="45.84996" lon="6.25911">
        <ele>1610</ele>
        <time>2000-01-01T19:06:48.000Z</time>
      </trkpt>
      <trkpt lat="45.85007" lon="6.25904">
        <ele>1613</ele>
        <time>2000-01-01T19:06:58.000Z</time>
      </trkpt>
      <trkpt lat="45.85015" lon="6.259">
        <ele>1611.7</ele>
        <time>2000-01-01T19:07:08.000Z</time>
      </trkpt>
      <trkpt lat="45.85025" lon="6.25894">
        <ele>1614</ele>
        <time>2000-01-01T19:07:18.000Z</time>
      </trkpt>
      <trkpt lat="45.85035" lon="6.25889">
        <ele>1613</ele>
        <time>2000-01-01T19:07:28.000Z</time>
      </trkpt>
      <trkpt lat="45.85046" lon="6.25886">
        <ele>1614</ele>
        <time>2000-01-01T19:07:38.000Z</time>
      </trkpt>
      <trkpt lat="45.85052" lon="6.25885">
        <ele>1613.6</ele>
        <time>2000-01-01T19:07:48.000Z</time>
      </trkpt>
      <trkpt lat="45.85058" lon="6.25884">
        <ele>1613.5</ele>
        <time>2000-01-01T19:07:58.000Z</time>
      </trkpt>
      <trkpt lat="45.85064" lon="6.25882">
        <ele>1613.4</ele>
        <time>2000-01-01T19:08:08.000Z</time>
      </trkpt>
      <trkpt lat="45.85067" lon="6.2588">
        <ele>1614</ele>
        <time>2000-01-01T19:08:18.000Z</time>
      </trkpt>
      <trkpt lat="45.8507" lon="6.25878">
        <ele>1613.5</ele>
        <time>2000-01-01T19:08:28.000Z</time>
      </trkpt>
      <trkpt lat="45.85075" lon="6.25875">
        <ele>1613.6</ele>
        <time>2000-01-01T19:08:38.000Z</time>
      </trkpt>
      <trkpt lat="45.85081" lon="6.25871">
        <ele>1613.7</ele>
        <time>2000-01-01T19:08:48.000Z</time>
      </trkpt>
      <trkpt lat="45.85086" lon="6.25868">
        <ele>1615</ele>
        <time>2000-01-01T19:08:58.000Z</time>
      </trkpt>
      <trkpt lat="45.85092" lon="6.25864">
        <ele>1614.6</ele>
        <time>2000-01-01T19:09:08.000Z</time>
      </trkpt>
      <trkpt lat="45.85097" lon="6.25861">
        <ele>1615</ele>
        <time>2000-01-01T19:09:18.000Z</time>
      </trkpt>
      <trkpt lat="45.85103" lon="6.25859">
        <ele>1615.1</ele>
        <time>2000-01-01T19:09:28.000Z</time>
      </trkpt>
      <trkpt lat="45.85108" lon="6.25855">
        <ele>1615</ele>
        <time>2000-01-01T19:09:38.000Z</time>
      </trkpt>
      <trkpt lat="45.85114" lon="6.25852">
        <ele>1615.4</ele>
        <time>2000-01-01T19:09:48.000Z</time>
      </trkpt>
      <trkpt lat="45.85118" lon="6.25847">
        <ele>1615.6</ele>
        <time>2000-01-01T19:09:58.000Z</time>
      </trkpt>
      <trkpt lat="45.8512" lon="6.25841">
        <ele>1615.8</ele>
        <time>2000-01-01T19:10:08.000Z</time>
      </trkpt>
      <trkpt lat="45.85121" lon="6.25826">
        <ele>1614</ele>
        <time>2000-01-01T19:10:18.000Z</time>
      </trkpt>
      <trkpt lat="45.85119" lon="6.25822">
        <ele>1615.5</ele>
        <time>2000-01-01T19:10:28.000Z</time>
      </trkpt>
      <trkpt lat="45.85119" lon="6.25816">
        <ele>1615.2</ele>
        <time>2000-01-01T19:10:38.000Z</time>
      </trkpt>
      <trkpt lat="45.85123" lon="6.2581">
        <ele>1614.8</ele>
        <time>2000-01-01T19:10:48.000Z</time>
      </trkpt>
      <trkpt lat="45.8513" lon="6.25802">
        <ele>1614</ele>
        <time>2000-01-01T19:10:58.000Z</time>
      </trkpt>
      <trkpt lat="45.85136" lon="6.25799">
        <ele>1614.8</ele>
        <time>2000-01-01T19:11:08.000Z</time>
      </trkpt>
      <trkpt lat="45.85142" lon="6.25796">
        <ele>1614.7</ele>
        <time>2000-01-01T19:11:18.000Z</time>
      </trkpt>
      <trkpt lat="45.85154" lon="6.25797">
        <ele>1614</ele>
        <time>2000-01-01T19:11:28.000Z</time>
      </trkpt>
      <trkpt lat="45.85161" lon="6.25796">
        <ele>1612.9</ele>
        <time>2000-01-01T19:11:38.000Z</time>
      </trkpt>
      <trkpt lat="45.85163" lon="6.25795">
        <ele>1612.7</ele>
        <time>2000-01-01T19:11:48.000Z</time>
      </trkpt>
      <trkpt lat="45.85165" lon="6.25793">
        <ele>1612.6</ele>
        <time>2000-01-01T19:11:58.000Z</time>
      </trkpt>
      <trkpt lat="45.85169" lon="6.25786">
        <ele>1612.5</ele>
        <time>2000-01-01T19:12:08.000Z</time>
      </trkpt>
      <trkpt lat="45.85174" lon="6.25782">
        <ele>1611</ele>
        <time>2000-01-01T19:12:18.000Z</time>
      </trkpt>
      <trkpt lat="45.85179" lon="6.25779">
        <ele>1611.3</ele>
        <time>2000-01-01T19:12:28.000Z</time>
      </trkpt>
      <trkpt lat="45.85187" lon="6.25769">
        <ele>1610.6</ele>
        <time>2000-01-01T19:12:38.000Z</time>
      </trkpt>
      <trkpt lat="45.85194" lon="6.25765">
        <ele>1609</ele>
        <time>2000-01-01T19:12:48.000Z</time>
      </trkpt>
      <trkpt lat="45.85206" lon="6.25755">
        <ele>1608.3</ele>
        <time>2000-01-01T19:12:58.000Z</time>
      </trkpt>
      <trkpt lat="45.85212" lon="6.25747">
        <ele>1605</ele>
        <time>2000-01-01T19:13:08.000Z</time>
      </trkpt>
      <trkpt lat="45.85218" lon="6.25737">
        <ele>1604.1</ele>
        <time>2000-01-01T19:13:18.000Z</time>
      </trkpt>
      <trkpt lat="45.85227" lon="6.25718">
        <ele>1601</ele>
        <time>2000-01-01T19:13:28.000Z</time>
      </trkpt>
      <trkpt lat="45.85232" lon="6.25702">
        <ele>1600.2</ele>
        <time>2000-01-01T19:13:38.000Z</time>
      </trkpt>
      <trkpt lat="45.85234" lon="6.25688">
        <ele>1595</ele>
        <time>2000-01-01T19:13:48.000Z</time>
      </trkpt>
      <trkpt lat="45.85236" lon="6.25681">
        <ele>1597.8</ele>
        <time>2000-01-01T19:13:58.000Z</time>
      </trkpt>
      <trkpt lat="45.85242" lon="6.25672">
        <ele>1595.3</ele>
        <time>2000-01-01T19:14:08.000Z</time>
      </trkpt>
      <trkpt lat="45.85253" lon="6.25664">
        <ele>1593</ele>
        <time>2000-01-01T19:14:18.000Z</time>
      </trkpt>
      <trkpt lat="45.8526" lon="6.25651">
        <ele>1589</ele>
        <time>2000-01-01T19:14:28.000Z</time>
      </trkpt>
      <trkpt lat="45.85264" lon="6.25641">
        <ele>1584</ele>
        <time>2000-01-01T19:14:38.000Z</time>
      </trkpt>
      <trkpt lat="45.85276" lon="6.25639">
        <ele>1580.7</ele>
        <time>2000-01-01T19:14:48.000Z</time>
      </trkpt>
      <trkpt lat="45.85283" lon="6.25636">
        <ele>1581</ele>
        <time>2000-01-01T19:14:58.000Z</time>
      </trkpt>
      <trkpt lat="45.85289" lon="6.25627">
        <ele>1579.2</ele>
        <time>2000-01-01T19:15:08.000Z</time>
      </trkpt>
      <trkpt lat="45.85294" lon="6.25616">
        <ele>1577.3</ele>
        <time>2000-01-01T19:15:18.000Z</time>
      </trkpt>
      <trkpt lat="45.85299" lon="6.25605">
        <ele>1574</ele>
        <time>2000-01-01T19:15:28.000Z</time>
      </trkpt>
      <trkpt lat="45.85303" lon="6.25589">
        <ele>1570.9</ele>
        <time>2000-01-01T19:15:38.000Z</time>
      </trkpt>
      <trkpt lat="45.85304" lon="6.25541">
        <ele>1566</ele>
        <time>2000-01-01T19:15:48.000Z</time>
      </trkpt>
      <trkpt lat="45.85307" lon="6.25526">
        <ele>1564.7</ele>
        <time>2000-01-01T19:15:58.000Z</time>
      </trkpt>
      <trkpt lat="45.85311" lon="6.25514">
        <ele>1564</ele>
        <time>2000-01-01T19:16:08.000Z</time>
      </trkpt>
      <trkpt lat="45.85317" lon="6.25503">
        <ele>1562.1</ele>
        <time>2000-01-01T19:16:18.000Z</time>
      </trkpt>
      <trkpt lat="45.85323" lon="6.25491">
        <ele>1560</ele>
        <time>2000-01-01T19:16:28.000Z</time>
      </trkpt>
      <trkpt lat="45.85334" lon="6.25493">
        <ele>1551.3</ele>
        <time>2000-01-01T19:16:38.000Z</time>
      </trkpt>
      <trkpt lat="45.85344" lon="6.25504">
        <ele>1553</ele>
        <time>2000-01-01T19:16:48.000Z</time>
      </trkpt>
      <trkpt lat="45.85351" lon="6.25506">
        <ele>1551.7</ele>
        <time>2000-01-01T19:16:58.000Z</time>
      </trkpt>
      <trkpt lat="45.85355" lon="6.25495">
        <ele>1546.2</ele>
        <time>2000-01-01T19:17:08.000Z</time>
      </trkpt>
      <trkpt lat="45.85337" lon="6.25477">
        <ele>1542</ele>
        <time>2000-01-01T19:17:18.000Z</time>
      </trkpt>
      <trkpt lat="45.85336" lon="6.25464">
        <ele>1538.1</ele>
        <time>2000-01-01T19:17:28.000Z</time>
      </trkpt>
      <trkpt lat="45.85338" lon="6.2545">
        <ele>1537</ele>
        <time>2000-01-01T19:17:38.000Z</time>
      </trkpt>
      <trkpt lat="45.85348" lon="6.2545">
        <ele>1530.3</ele>
        <time>2000-01-01T19:17:48.000Z</time>
      </trkpt>
      <trkpt lat="45.85361" lon="6.25454">
        <ele>1525</ele>
        <time>2000-01-01T19:17:58.000Z</time>
      </trkpt>
      <trkpt lat="45.85369" lon="6.25453">
        <ele>1526</ele>
        <time>2000-01-01T19:18:08.000Z</time>
      </trkpt>
      <trkpt lat="45.8538" lon="6.25449">
        <ele>1520</ele>
        <time>2000-01-01T19:18:18.000Z</time>
      </trkpt>
      <trkpt lat="45.85387" lon="6.25437">
        <ele>1518.3</ele>
        <time>2000-01-01T19:18:28.000Z</time>
      </trkpt>
      <trkpt lat="45.854" lon="6.25414">
        <ele>1508</ele>
        <time>2000-01-01T19:18:38.000Z</time>
      </trkpt>
      <trkpt lat="45.85415" lon="6.25388">
        <ele>1503</ele>
        <time>2000-01-01T19:18:48.000Z</time>
      </trkpt>
      <trkpt lat="45.85423" lon="6.25376">
        <ele>1503.6</ele>
        <time>2000-01-01T19:18:58.000Z</time>
      </trkpt>
      <trkpt lat="45.85431" lon="6.25368">
        <ele>1497</ele>
        <time>2000-01-01T19:19:08.000Z</time>
      </trkpt>
      <trkpt lat="45.8544" lon="6.25364">
        <ele>1499.9</ele>
        <time>2000-01-01T19:19:18.000Z</time>
      </trkpt>
      <trkpt lat="45.85449" lon="6.25358">
        <ele>1495</ele>
        <time>2000-01-01T19:19:28.000Z</time>
      </trkpt>
      <trkpt lat="45.8546" lon="6.25354">
        <ele>1497.4</ele>
        <time>2000-01-01T19:19:38.000Z</time>
      </trkpt>
      <trkpt lat="45.85477" lon="6.25343">
        <ele>1493</ele>
        <time>2000-01-01T19:19:48.000Z</time>
      </trkpt>
      <trkpt lat="45.85494" lon="6.25329">
        <ele>1487</ele>
        <time>2000-01-01T19:19:58.000Z</time>
      </trkpt>
      <trkpt lat="45.85502" lon="6.25321">
        <ele>1489</ele>
        <time>2000-01-01T19:20:08.000Z</time>
      </trkpt>
      <trkpt lat="45.85509" lon="6.25311">
        <ele>1485</ele>
        <time>2000-01-01T19:20:18.000Z</time>
      </trkpt>
      <trkpt lat="45.85546" lon="6.25285">
        <ele>1479</ele>
        <time>2000-01-01T19:20:28.000Z</time>
      </trkpt>
      <trkpt lat="45.85564" lon="6.25275">
        <ele>1478</ele>
        <time>2000-01-01T19:20:38.000Z</time>
      </trkpt>
      <trkpt lat="45.8558" lon="6.25258">
        <ele>1475</ele>
        <time>2000-01-01T19:20:48.000Z</time>
      </trkpt>
      <trkpt lat="45.85596" lon="6.25242">
        <ele>1473</ele>
        <time>2000-01-01T19:20:58.000Z</time>
      </trkpt>
      <trkpt lat="45.85605" lon="6.25237">
        <ele>1473.3</ele>
        <time>2000-01-01T19:21:08.000Z</time>
      </trkpt>
      <trkpt lat="45.85616" lon="6.25227">
        <ele>1470</ele>
        <time>2000-01-01T19:21:18.000Z</time>
      </trkpt>
      <trkpt lat="45.8562" lon="6.25224">
        <ele>1470.4</ele>
        <time>2000-01-01T19:21:28.000Z</time>
      </trkpt>
      <trkpt lat="45.8563" lon="6.25214">
        <ele>1469</ele>
        <time>2000-01-01T19:21:38.000Z</time>
      </trkpt>
      <trkpt lat="45.85648" lon="6.252">
        <ele>1466</ele>
        <time>2000-01-01T19:21:48.000Z</time>
      </trkpt>
      <trkpt lat="45.85666" lon="6.2519">
        <ele>1461</ele>
        <time>2000-01-01T19:21:58.000Z</time>
      </trkpt>
      <trkpt lat="45.85676" lon="6.25187">
        <ele>1459.9</ele>
        <time>2000-01-01T19:22:08.000Z</time>
      </trkpt>
      <trkpt lat="45.85697" lon="6.25173">
        <ele>1456</ele>
        <time>2000-01-01T19:22:18.000Z</time>
      </trkpt>
      <trkpt lat="45.85707" lon="6.25168">
        <ele>1454.8</ele>
        <time>2000-01-01T19:22:28.000Z</time>
      </trkpt>
      <trkpt lat="45.85716" lon="6.25164">
        <ele>1454</ele>
        <time>2000-01-01T19:22:38.000Z</time>
      </trkpt>
      <trkpt lat="45.85748" lon="6.25148">
        <ele>1448</ele>
        <time>2000-01-01T19:22:48.000Z</time>
      </trkpt>
      <trkpt lat="45.85777" lon="6.25129">
        <ele>1442</ele>
        <time>2000-01-01T19:22:58.000Z</time>
      </trkpt>
      <trkpt lat="45.85813" lon="6.25112">
        <ele>1440</ele>
        <time>2000-01-01T19:23:08.000Z</time>
      </trkpt>
      <trkpt lat="45.85821" lon="6.25105">
        <ele>1440.2</ele>
        <time>2000-01-01T19:23:18.000Z</time>
      </trkpt>
      <trkpt lat="45.85843" lon="6.25088">
        <ele>1440</ele>
        <time>2000-01-01T19:23:28.000Z</time>
      </trkpt>
      <trkpt lat="45.85852" lon="6.25079">
        <ele>1438.5</ele>
        <time>2000-01-01T19:23:38.000Z</time>
      </trkpt>
      <trkpt lat="45.85856" lon="6.25076">
        <ele>1438.8</ele>
        <time>2000-01-01T19:23:48.000Z</time>
      </trkpt>
      <trkpt lat="45.85864" lon="6.25069">
        <ele>1439</ele>
        <time>2000-01-01T19:23:58.000Z</time>
      </trkpt>
      <trkpt lat="45.85873" lon="6.25059">
        <ele>1439.1</ele>
        <time>2000-01-01T19:24:08.000Z</time>
      </trkpt>
      <trkpt lat="45.85883" lon="6.2505">
        <ele>1439</ele>
        <time>2000-01-01T19:24:18.000Z</time>
      </trkpt>
      <trkpt lat="45.85896" lon="6.2504">
        <ele>1437.3</ele>
        <time>2000-01-01T19:24:28.000Z</time>
      </trkpt>
      <trkpt lat="45.859" lon="6.25035">
        <ele>1437</ele>
        <time>2000-01-01T19:24:38.000Z</time>
      </trkpt>
      <trkpt lat="45.85909" lon="6.25034">
        <ele>1436</ele>
        <time>2000-01-01T19:24:48.000Z</time>
      </trkpt>
      <trkpt lat="45.85924" lon="6.25039">
        <ele>1435</ele>
        <time>2000-01-01T19:24:58.000Z</time>
      </trkpt>
      <trkpt lat="45.85933" lon="6.25039">
        <ele>1429.9</ele>
        <time>2000-01-01T19:25:08.000Z</time>
      </trkpt>
      <trkpt lat="45.85943" lon="6.25033">
        <ele>1428</ele>
        <time>2000-01-01T19:25:18.000Z</time>
      </trkpt>
      <trkpt lat="45.8595" lon="6.25022">
        <ele>1427</ele>
        <time>2000-01-01T19:25:28.000Z</time>
      </trkpt>
      <trkpt lat="45.85952" lon="6.25019">
        <ele>1427.4</ele>
        <time>2000-01-01T19:25:38.000Z</time>
      </trkpt>
      <trkpt lat="45.85979" lon="6.25013">
        <ele>1425</ele>
        <time>2000-01-01T19:25:48.000Z</time>
      </trkpt>
      <trkpt lat="45.85989" lon="6.2501">
        <ele>1418.4</ele>
        <time>2000-01-01T19:25:58.000Z</time>
      </trkpt>
      <trkpt lat="45.86" lon="6.25005">
        <ele>1420</ele>
        <time>2000-01-01T19:26:08.000Z</time>
      </trkpt>
      <trkpt lat="45.86011" lon="6.24997">
        <ele>1411.5</ele>
        <time>2000-01-01T19:26:18.000Z</time>
      </trkpt>
      <trkpt lat="45.86021" lon="6.24992">
        <ele>1407</ele>
        <time>2000-01-01T19:26:28.000Z</time>
      </trkpt>
      <trkpt lat="45.86038" lon="6.24976">
        <ele>1406</ele>
        <time>2000-01-01T19:26:38.000Z</time>
      </trkpt>
      <trkpt lat="45.86045" lon="6.24967">
        <ele>1398.4</ele>
        <time>2000-01-01T19:26:48.000Z</time>
      </trkpt>
      <trkpt lat="45.86058" lon="6.24927">
        <ele>1396</ele>
        <time>2000-01-01T19:26:58.000Z</time>
      </trkpt>
      <trkpt lat="45.86064" lon="6.24898">
        <ele>1392</ele>
        <time>2000-01-01T19:27:08.000Z</time>
      </trkpt>
      <trkpt lat="45.86073" lon="6.24903">
        <ele>1383.5</ele>
        <time>2000-01-01T19:27:18.000Z</time>
      </trkpt>
      <trkpt lat="45.86084" lon="6.24941">
        <ele>1376</ele>
        <time>2000-01-01T19:27:28.000Z</time>
      </trkpt>
      <trkpt lat="45.86088" lon="6.24954">
        <ele>1372.4</ele>
        <time>2000-01-01T19:27:38.000Z</time>
      </trkpt>
      <trkpt lat="45.86097" lon="6.24964">
        <ele>1372</ele>
        <time>2000-01-01T19:27:48.000Z</time>
      </trkpt>
      <trkpt lat="45.86101" lon="6.24974">
        <ele>1364.6</ele>
        <time>2000-01-01T19:27:58.000Z</time>
      </trkpt>
      <trkpt lat="45.86109" lon="6.24984">
        <ele>1359.8</ele>
        <time>2000-01-01T19:28:08.000Z</time>
      </trkpt>
      <trkpt lat="45.86116" lon="6.24974">
        <ele>1357</ele>
        <time>2000-01-01T19:28:18.000Z</time>
      </trkpt>
      <trkpt lat="45.8612" lon="6.24962">
        <ele>1350.7</ele>
        <time>2000-01-01T19:28:28.000Z</time>
      </trkpt>
      <trkpt lat="45.86123" lon="6.24945">
        <ele>1351</ele>
        <time>2000-01-01T19:28:38.000Z</time>
      </trkpt>
      <trkpt lat="45.86128" lon="6.24934">
        <ele>1345.8</ele>
        <time>2000-01-01T19:28:48.000Z</time>
      </trkpt>
      <trkpt lat="45.86135" lon="6.24921">
        <ele>1345</ele>
        <time>2000-01-01T19:28:58.000Z</time>
      </trkpt>
      <trkpt lat="45.86139" lon="6.24911">
        <ele>1340.2</ele>
        <time>2000-01-01T19:29:08.000Z</time>
      </trkpt>
      <trkpt lat="45.86146" lon="6.24902">
        <ele>1338.3</ele>
        <time>2000-01-01T19:29:18.000Z</time>
      </trkpt>
      <trkpt lat="45.86156" lon="6.24895">
        <ele>1336</ele>
        <time>2000-01-01T19:29:28.000Z</time>
      </trkpt>
      <trkpt lat="45.86164" lon="6.24888">
        <ele>1329.8</ele>
        <time>2000-01-01T19:29:38.000Z</time>
      </trkpt>
      <trkpt lat="45.86173" lon="6.24882">
        <ele>1327</ele>
        <time>2000-01-01T19:29:48.000Z</time>
      </trkpt>
      <trkpt lat="45.86181" lon="6.24871">
        <ele>1327.1</ele>
        <time>2000-01-01T19:29:58.000Z</time>
      </trkpt>
      <trkpt lat="45.86189" lon="6.24867">
        <ele>1327</ele>
        <time>2000-01-01T19:30:08.000Z</time>
      </trkpt>
      <trkpt lat="45.86199" lon="6.24867">
        <ele>1321.8</ele>
        <time>2000-01-01T19:30:18.000Z</time>
      </trkpt>
      <trkpt lat="45.86208" lon="6.24863">
        <ele>1321</ele>
        <time>2000-01-01T19:30:28.000Z</time>
      </trkpt>
      <trkpt lat="45.86219" lon="6.24863">
        <ele>1314.3</ele>
        <time>2000-01-01T19:30:38.000Z</time>
      </trkpt>
      <trkpt lat="45.8623" lon="6.24861">
        <ele>1307</ele>
        <time>2000-01-01T19:30:48.000Z</time>
      </trkpt>
      <trkpt lat="45.86241" lon="6.2487">
        <ele>1299.9</ele>
        <time>2000-01-01T19:30:58.000Z</time>
      </trkpt>
      <trkpt lat="45.86248" lon="6.24885">
        <ele>1304</ele>
        <time>2000-01-01T19:31:08.000Z</time>
      </trkpt>
      <trkpt lat="45.86252" lon="6.24891">
        <ele>1295.3</ele>
        <time>2000-01-01T19:31:18.000Z</time>
      </trkpt>
      <trkpt lat="45.86259" lon="6.24905">
        <ele>1290.1</ele>
        <time>2000-01-01T19:31:28.000Z</time>
      </trkpt>
      <trkpt lat="45.86263" lon="6.24917">
        <ele>1299</ele>
        <time>2000-01-01T19:31:38.000Z</time>
      </trkpt>
      <trkpt lat="45.86264" lon="6.24932">
        <ele>1286.9</ele>
        <time>2000-01-01T19:31:48.000Z</time>
      </trkpt>
      <trkpt lat="45.86259" lon="6.24943">
        <ele>1295</ele>
        <time>2000-01-01T19:31:58.000Z</time>
      </trkpt>
      <trkpt lat="45.86263" lon="6.24928">
        <ele>1287.6</ele>
        <time>2000-01-01T19:32:08.000Z</time>
      </trkpt>
      <trkpt lat="45.8629" lon="6.24908">
        <ele>1262</ele>
        <time>2000-01-01T19:32:18.000Z</time>
      </trkpt>
      <trkpt lat="45.86295" lon="6.24898">
        <ele>1262.2</ele>
        <time>2000-01-01T19:32:28.000Z</time>
      </trkpt>
      <trkpt lat="45.86298" lon="6.24886">
        <ele>1260.2</ele>
        <time>2000-01-01T19:32:38.000Z</time>
      </trkpt>
      <trkpt lat="45.86295" lon="6.24873">
        <ele>1260</ele>
        <time>2000-01-01T19:32:48.000Z</time>
      </trkpt>
      <trkpt lat="45.86301" lon="6.2486">
        <ele>1259.9</ele>
        <time>2000-01-01T19:32:58.000Z</time>
      </trkpt>
      <trkpt lat="45.86311" lon="6.24855">
        <ele>1258</ele>
        <time>2000-01-01T19:33:08.000Z</time>
      </trkpt>
      <trkpt lat="45.86318" lon="6.24867">
        <ele>1255.4</ele>
        <time>2000-01-01T19:33:18.000Z</time>
      </trkpt>
      <trkpt lat="45.86324" lon="6.24877">
        <ele>1254</ele>
        <time>2000-01-01T19:33:28.000Z</time>
      </trkpt>
      <trkpt lat="45.86355" lon="6.249">
        <ele>1247</ele>
        <time>2000-01-01T19:33:38.000Z</time>
      </trkpt>
      <trkpt lat="45.86363" lon="6.24898">
        <ele>1245.3</ele>
        <time>2000-01-01T19:33:48.000Z</time>
      </trkpt>
      <trkpt lat="45.8637" lon="6.24899">
        <ele>1243.8</ele>
        <time>2000-01-01T19:33:58.000Z</time>
      </trkpt>
      <trkpt lat="45.86382" lon="6.24895">
        <ele>1242</ele>
        <time>2000-01-01T19:34:08.000Z</time>
      </trkpt>
      <trkpt lat="45.86399" lon="6.24885">
        <ele>1237.2</ele>
        <time>2000-01-01T19:34:18.000Z</time>
      </trkpt>
      <trkpt lat="45.86407" lon="6.24876">
        <ele>1237</ele>
        <time>2000-01-01T19:34:28.000Z</time>
      </trkpt>
      <trkpt lat="45.8641" lon="6.24859">
        <ele>1235.2</ele>
        <time>2000-01-01T19:34:38.000Z</time>
      </trkpt>
      <trkpt lat="45.86415" lon="6.24846">
        <ele>1236</ele>
        <time>2000-01-01T19:34:48.000Z</time>
      </trkpt>
      <trkpt lat="45.86423" lon="6.24836">
        <ele>1235</ele>
        <time>2000-01-01T19:34:58.000Z</time>
      </trkpt>
      <trkpt lat="45.86434" lon="6.24836">
        <ele>1234</ele>
        <time>2000-01-01T19:35:08.000Z</time>
      </trkpt>
      <trkpt lat="45.86455" lon="6.2484">
        <ele>1225</ele>
        <time>2000-01-01T19:35:18.000Z</time>
      </trkpt>
      <trkpt lat="45.86463" lon="6.2484">
        <ele>1223.4</ele>
        <time>2000-01-01T19:35:28.000Z</time>
      </trkpt>
      <trkpt lat="45.86473" lon="6.24841">
        <ele>1220.4</ele>
        <time>2000-01-01T19:35:38.000Z</time>
      </trkpt>
      <trkpt lat="45.86486" lon="6.24843">
        <ele>1218</ele>
        <time>2000-01-01T19:35:48.000Z</time>
      </trkpt>
      <trkpt lat="45.86495" lon="6.24846">
        <ele>1212.8</ele>
        <time>2000-01-01T19:35:58.000Z</time>
      </trkpt>
      <trkpt lat="45.86504" lon="6.24844">
        <ele>1211</ele>
        <time>2000-01-01T19:36:08.000Z</time>
      </trkpt>
      <trkpt lat="45.86515" lon="6.24854">
        <ele>1204.3</ele>
        <time>2000-01-01T19:36:18.000Z</time>
      </trkpt>
      <trkpt lat="45.86519" lon="6.24867">
        <ele>1203</ele>
        <time>2000-01-01T19:36:28.000Z</time>
      </trkpt>
      <trkpt lat="45.86519" lon="6.2488">
        <ele>1198</ele>
        <time>2000-01-01T19:36:38.000Z</time>
      </trkpt>
      <trkpt lat="45.8652" lon="6.24897">
        <ele>1199</ele>
        <time>2000-01-01T19:36:48.000Z</time>
      </trkpt>
      <trkpt lat="45.86523" lon="6.24913">
        <ele>1190.6</ele>
        <time>2000-01-01T19:36:58.000Z</time>
      </trkpt>
      <trkpt lat="45.86525" lon="6.24928">
        <ele>1190</ele>
        <time>2000-01-01T19:37:08.000Z</time>
      </trkpt>
      <trkpt lat="45.86524" lon="6.24941">
        <ele>1186.9</ele>
        <time>2000-01-01T19:37:18.000Z</time>
      </trkpt>
      <trkpt lat="45.8652" lon="6.24953">
        <ele>1187.6</ele>
        <time>2000-01-01T19:37:28.000Z</time>
      </trkpt>
      <trkpt lat="45.86529" lon="6.24959">
        <ele>1188</ele>
        <time>2000-01-01T19:37:38.000Z</time>
      </trkpt>
      <trkpt lat="45.86536" lon="6.2495">
        <ele>1181.9</ele>
        <time>2000-01-01T19:37:48.000Z</time>
      </trkpt>
      <trkpt lat="45.86543" lon="6.24937">
        <ele>1180</ele>
        <time>2000-01-01T19:37:58.000Z</time>
      </trkpt>
      <trkpt lat="45.86551" lon="6.24922">
        <ele>1176.9</ele>
        <time>2000-01-01T19:38:08.000Z</time>
      </trkpt>
      <trkpt lat="45.86556" lon="6.24909">
        <ele>1180</ele>
        <time>2000-01-01T19:38:18.000Z</time>
      </trkpt>
      <trkpt lat="45.86562" lon="6.24899">
        <ele>1176.5</ele>
        <time>2000-01-01T19:38:28.000Z</time>
      </trkpt>
      <trkpt lat="45.86572" lon="6.24894">
        <ele>1175</ele>
        <time>2000-01-01T19:38:38.000Z</time>
      </trkpt>
      <trkpt lat="45.86583" lon="6.24892">
        <ele>1170.4</ele>
        <time>2000-01-01T19:38:48.000Z</time>
      </trkpt>
      <trkpt lat="45.86596" lon="6.24892">
        <ele>1169</ele>
        <time>2000-01-01T19:38:58.000Z</time>
      </trkpt>
      <trkpt lat="45.86603" lon="6.24891">
        <ele>1164.2</ele>
        <time>2000-01-01T19:39:08.000Z</time>
      </trkpt>
      <trkpt lat="45.86622" lon="6.24891">
        <ele>1160</ele>
        <time>2000-01-01T19:39:18.000Z</time>
      </trkpt>
      <trkpt lat="45.8663" lon="6.24883">
        <ele>1155.4</ele>
        <time>2000-01-01T19:39:28.000Z</time>
      </trkpt>
      <trkpt lat="45.86641" lon="6.24879">
        <ele>1152</ele>
        <time>2000-01-01T19:39:38.000Z</time>
      </trkpt>
      <trkpt lat="45.86647" lon="6.2487">
        <ele>1151.3</ele>
        <time>2000-01-01T19:39:48.000Z</time>
      </trkpt>
      <trkpt lat="45.86657" lon="6.24865">
        <ele>1152</ele>
        <time>2000-01-01T19:39:58.000Z</time>
      </trkpt>
      <trkpt lat="45.86668" lon="6.24862">
        <ele>1146.5</ele>
        <time>2000-01-01T19:40:08.000Z</time>
      </trkpt>
      <trkpt lat="45.86698" lon="6.24844">
        <ele>1148</ele>
        <time>2000-01-01T19:40:18.000Z</time>
      </trkpt>
      <trkpt lat="45.86709" lon="6.24839">
        <ele>1144</ele>
        <time>2000-01-01T19:40:28.000Z</time>
      </trkpt>
      <trkpt lat="45.86716" lon="6.24838">
        <ele>1147</ele>
        <time>2000-01-01T19:40:38.000Z</time>
      </trkpt>
      <trkpt lat="45.86728" lon="6.2484">
        <ele>1137.6</ele>
        <time>2000-01-01T19:40:48.000Z</time>
      </trkpt>
      <trkpt lat="45.86748" lon="6.24845">
        <ele>1132</ele>
        <time>2000-01-01T19:40:58.000Z</time>
      </trkpt>
      <trkpt lat="45.86758" lon="6.24842">
        <ele>1124.1</ele>
        <time>2000-01-01T19:41:08.000Z</time>
      </trkpt>
      <trkpt lat="45.86768" lon="6.2484">
        <ele>1126</ele>
        <time>2000-01-01T19:41:18.000Z</time>
      </trkpt>
      <trkpt lat="45.86778" lon="6.24839">
        <ele>1115.3</ele>
        <time>2000-01-01T19:41:28.000Z</time>
      </trkpt>
      <trkpt lat="45.8679" lon="6.24839">
        <ele>1114</ele>
        <time>2000-01-01T19:41:38.000Z</time>
      </trkpt>
      <trkpt lat="45.86799" lon="6.24843">
        <ele>1105.8</ele>
        <time>2000-01-01T19:41:48.000Z</time>
      </trkpt>
      <trkpt lat="45.86806" lon="6.24836">
        <ele>1102.8</ele>
        <time>2000-01-01T19:41:58.000Z</time>
      </trkpt>
      <trkpt lat="45.8683" lon="6.24808">
        <ele>1102</ele>
        <time>2000-01-01T19:42:08.000Z</time>
      </trkpt>
      <trkpt lat="45.86849" lon="6.24792">
        <ele>1093</ele>
        <time>2000-01-01T19:42:18.000Z</time>
      </trkpt>
      <trkpt lat="45.86858" lon="6.24782">
        <ele>1085.1</ele>
        <time>2000-01-01T19:42:28.000Z</time>
      </trkpt>
      <trkpt lat="45.86873" lon="6.2476">
        <ele>1088</ele>
        <time>2000-01-01T19:42:38.000Z</time>
      </trkpt>
      <trkpt lat="45.86879" lon="6.24748">
        <ele>1083.4</ele>
        <time>2000-01-01T19:42:48.000Z</time>
      </trkpt>
      <trkpt lat="45.86888" lon="6.24742">
        <ele>1084</ele>
        <time>2000-01-01T19:42:58.000Z</time>
      </trkpt>
      <trkpt lat="45.86897" lon="6.24733">
        <ele>1083</ele>
        <time>2000-01-01T19:43:08.000Z</time>
      </trkpt>
      <trkpt lat="45.8691" lon="6.24739">
        <ele>1084</ele>
        <time>2000-01-01T19:43:18.000Z</time>
      </trkpt>
      <trkpt lat="45.86919" lon="6.24743">
        <ele>1072</ele>
        <time>2000-01-01T19:43:28.000Z</time>
      </trkpt>
      <trkpt lat="45.8693" lon="6.24751">
        <ele>1070</ele>
        <time>2000-01-01T19:43:38.000Z</time>
      </trkpt>
      <trkpt lat="45.8694" lon="6.24749">
        <ele>1061.2</ele>
        <time>2000-01-01T19:43:48.000Z</time>
      </trkpt>
      <trkpt lat="45.86965" lon="6.2473">
        <ele>1061</ele>
        <time>2000-01-01T19:43:58.000Z</time>
      </trkpt>
      <trkpt lat="45.86974" lon="6.24725">
        <ele>1054.8</ele>
        <time>2000-01-01T19:44:08.000Z</time>
      </trkpt>
      <trkpt lat="45.86986" lon="6.24723">
        <ele>1054</ele>
        <time>2000-01-01T19:44:18.000Z</time>
      </trkpt>
      <trkpt lat="45.86997" lon="6.24715">
        <ele>1048.3</ele>
        <time>2000-01-01T19:44:28.000Z</time>
      </trkpt>
      <trkpt lat="45.87007" lon="6.24709">
        <ele>1051</ele>
        <time>2000-01-01T19:44:38.000Z</time>
      </trkpt>
      <trkpt lat="45.87017" lon="6.24711">
        <ele>1040.2</ele>
        <time>2000-01-01T19:44:48.000Z</time>
      </trkpt>
      <trkpt lat="45.87026" lon="6.2471">
        <ele>1042</ele>
        <time>2000-01-01T19:44:58.000Z</time>
      </trkpt>
      <trkpt lat="45.87035" lon="6.24703">
        <ele>1033.9</ele>
        <time>2000-01-01T19:45:08.000Z</time>
      </trkpt>
      <trkpt lat="45.87054" lon="6.24692">
        <ele>1029</ele>
        <time>2000-01-01T19:45:18.000Z</time>
      </trkpt>
      <trkpt lat="45.87062" lon="6.24684">
        <ele>1024.7</ele>
        <time>2000-01-01T19:45:28.000Z</time>
      </trkpt>
      <trkpt lat="45.87071" lon="6.24679">
        <ele>1023</ele>
        <time>2000-01-01T19:45:38.000Z</time>
      </trkpt>
      <trkpt lat="45.87079" lon="6.24667">
        <ele>1018.3</ele>
        <time>2000-01-01T19:45:48.000Z</time>
      </trkpt>
      <trkpt lat="45.87091" lon="6.24644">
        <ele>1014</ele>
        <time>2000-01-01T19:45:58.000Z</time>
      </trkpt>
      <trkpt lat="45.87098" lon="6.24634">
        <ele>1009.8</ele>
        <time>2000-01-01T19:46:08.000Z</time>
      </trkpt>
      <trkpt lat="45.87116" lon="6.24625">
        <ele>1003</ele>
        <time>2000-01-01T19:46:18.000Z</time>
      </trkpt>
      <trkpt lat="45.87123" lon="6.24616">
        <ele>1002.6</ele>
        <time>2000-01-01T19:46:28.000Z</time>
      </trkpt>
      <trkpt lat="45.87133" lon="6.24615">
        <ele>1003</ele>
        <time>2000-01-01T19:46:38.000Z</time>
      </trkpt>
      <trkpt lat="45.87151" lon="6.246">
        <ele>997</ele>
        <time>2000-01-01T19:46:48.000Z</time>
      </trkpt>
      <trkpt lat="45.87161" lon="6.24594">
        <ele>991.3</ele>
        <time>2000-01-01T19:46:58.000Z</time>
      </trkpt>
      <trkpt lat="45.87172" lon="6.24592">
        <ele>985</ele>
        <time>2000-01-01T19:47:08.000Z</time>
      </trkpt>
      <trkpt lat="45.87181" lon="6.24582">
        <ele>983.1</ele>
        <time>2000-01-01T19:47:18.000Z</time>
      </trkpt>
      <trkpt lat="45.87189" lon="6.24576">
        <ele>985</ele>
        <time>2000-01-01T19:47:28.000Z</time>
      </trkpt>
      <trkpt lat="45.87198" lon="6.24571">
        <ele>976.2</ele>
        <time>2000-01-01T19:47:38.000Z</time>
      </trkpt>
      <trkpt lat="45.87206" lon="6.2456">
        <ele>976</ele>
        <time>2000-01-01T19:47:48.000Z</time>
      </trkpt>
      <trkpt lat="45.87216" lon="6.24553">
        <ele>970.3</ele>
        <time>2000-01-01T19:47:58.000Z</time>
      </trkpt>
      <trkpt lat="45.87225" lon="6.24545">
        <ele>971</ele>
        <time>2000-01-01T19:48:08.000Z</time>
      </trkpt>
      <trkpt lat="45.87235" lon="6.2454">
        <ele>959.8</ele>
        <time>2000-01-01T19:48:18.000Z</time>
      </trkpt>
      <trkpt lat="45.87245" lon="6.24536">
        <ele>958</ele>
        <time>2000-01-01T19:48:28.000Z</time>
      </trkpt>
      <trkpt lat="45.87252" lon="6.24527">
        <ele>951.5</ele>
        <time>2000-01-01T19:48:38.000Z</time>
      </trkpt>
      <trkpt lat="45.87261" lon="6.24517">
        <ele>948</ele>
        <time>2000-01-01T19:48:48.000Z</time>
      </trkpt>
      <trkpt lat="45.87275" lon="6.24496">
        <ele>948</ele>
        <time>2000-01-01T19:48:58.000Z</time>
      </trkpt>
      <trkpt lat="45.87304" lon="6.24479">
        <ele>936</ele>
        <time>2000-01-01T19:49:08.000Z</time>
      </trkpt>
      <trkpt lat="45.87323" lon="6.24473">
        <ele>925</ele>
        <time>2000-01-01T19:49:18.000Z</time>
      </trkpt>
      <trkpt lat="45.87332" lon="6.24465">
        <ele>920.1</ele>
        <time>2000-01-01T19:49:28.000Z</time>
      </trkpt>
      <trkpt lat="45.87358" lon="6.24446">
        <ele>912</ele>
        <time>2000-01-01T19:49:38.000Z</time>
      </trkpt>
      <trkpt lat="45.87366" lon="6.24437">
        <ele>902.5</ele>
        <time>2000-01-01T19:49:48.000Z</time>
      </trkpt>
      <trkpt lat="45.8737" lon="6.24423">
        <ele>908</ele>
        <time>2000-01-01T19:49:58.000Z</time>
      </trkpt>
      <trkpt lat="45.87371" lon="6.2441">
        <ele>900.2</ele>
        <time>2000-01-01T19:50:08.000Z</time>
      </trkpt>
      <trkpt lat="45.87377" lon="6.24398">
        <ele>905</ele>
        <time>2000-01-01T19:50:18.000Z</time>
      </trkpt>
      <trkpt lat="45.87386" lon="6.2439">
        <ele>899.7</ele>
        <time>2000-01-01T19:50:28.000Z</time>
      </trkpt>
      <trkpt lat="45.87395" lon="6.24395">
        <ele>897</ele>
        <time>2000-01-01T19:50:38.000Z</time>
      </trkpt>
      <trkpt lat="45.87405" lon="6.24395">
        <ele>885.2</ele>
        <time>2000-01-01T19:50:48.000Z</time>
      </trkpt>
      <trkpt lat="45.87417" lon="6.24389">
        <ele>883</ele>
        <time>2000-01-01T19:50:58.000Z</time>
      </trkpt>
      <trkpt lat="45.87422" lon="6.24375">
        <ele>875.5</ele>
        <time>2000-01-01T19:51:08.000Z</time>
      </trkpt>
      <trkpt lat="45.87429" lon="6.24363">
        <ele>879</ele>
        <time>2000-01-01T19:51:18.000Z</time>
      </trkpt>
      <trkpt lat="45.87444" lon="6.24343">
        <ele>873</ele>
        <time>2000-01-01T19:51:28.000Z</time>
      </trkpt>
      <trkpt lat="45.87452" lon="6.2433">
        <ele>866.7</ele>
        <time>2000-01-01T19:51:38.000Z</time>
      </trkpt>
      <trkpt lat="45.87462" lon="6.24327">
        <ele>865</ele>
        <time>2000-01-01T19:51:48.000Z</time>
      </trkpt>
      <trkpt lat="45.87471" lon="6.24321">
        <ele>858.3</ele>
        <time>2000-01-01T19:51:58.000Z</time>
      </trkpt>
      <trkpt lat="45.87481" lon="6.24312">
        <ele>858</ele>
        <time>2000-01-01T19:52:08.000Z</time>
      </trkpt>
      <trkpt lat="45.8749" lon="6.24305">
        <ele>855.7</ele>
        <time>2000-01-01T19:52:18.000Z</time>
      </trkpt>
      <trkpt lat="45.87497" lon="6.24296">
        <ele>857</ele>
        <time>2000-01-01T19:52:28.000Z</time>
      </trkpt>
      <trkpt lat="45.87506" lon="6.24292">
        <ele>853.8</ele>
        <time>2000-01-01T19:52:38.000Z</time>
      </trkpt>
      <trkpt lat="45.87514" lon="6.24303">
        <ele>850</ele>
        <time>2000-01-01T19:52:48.000Z</time>
      </trkpt>
      <trkpt lat="45.87527" lon="6.24298">
        <ele>847.3</ele>
        <time>2000-01-01T19:52:58.000Z</time>
      </trkpt>
      <trkpt lat="45.87546" lon="6.24289">
        <ele>843</ele>
        <time>2000-01-01T19:53:08.000Z</time>
      </trkpt>
      <trkpt lat="45.87565" lon="6.24273">
        <ele>838</ele>
        <time>2000-01-01T19:53:18.000Z</time>
      </trkpt>
      <trkpt lat="45.87572" lon="6.24264">
        <ele>834.8</ele>
        <time>2000-01-01T19:53:28.000Z</time>
      </trkpt>
      <trkpt lat="45.87581" lon="6.24257">
        <ele>833</ele>
        <time>2000-01-01T19:53:38.000Z</time>
      </trkpt>
      <trkpt lat="45.87589" lon="6.24252">
        <ele>828.8</ele>
        <time>2000-01-01T19:53:48.000Z</time>
      </trkpt>
      <trkpt lat="45.87598" lon="6.24249">
        <ele>824.8</ele>
        <time>2000-01-01T19:53:58.000Z</time>
      </trkpt>
      <trkpt lat="45.87614" lon="6.24233">
        <ele>824</ele>
        <time>2000-01-01T19:54:08.000Z</time>
      </trkpt>
      <trkpt lat="45.87623" lon="6.24227">
        <ele>819.7</ele>
        <time>2000-01-01T19:54:18.000Z</time>
      </trkpt>
      <trkpt lat="45.87633" lon="6.24219">
        <ele>819</ele>
        <time>2000-01-01T19:54:28.000Z</time>
      </trkpt>
      <trkpt lat="45.87637" lon="6.24205">
        <ele>818.8</ele>
        <time>2000-01-01T19:54:38.000Z</time>
      </trkpt>
      <trkpt lat="45.87646" lon="6.24193">
        <ele>819</ele>
        <time>2000-01-01T19:54:48.000Z</time>
      </trkpt>
      <trkpt lat="45.87656" lon="6.24185">
        <ele>816.2</ele>
        <time>2000-01-01T19:54:58.000Z</time>
      </trkpt>
      <trkpt lat="45.87663" lon="6.24175">
        <ele>819</ele>
        <time>2000-01-01T19:55:08.000Z</time>
      </trkpt>
      <trkpt lat="45.87673" lon="6.24168">
        <ele>812.8</ele>
        <time>2000-01-01T19:55:18.000Z</time>
      </trkpt>
      <trkpt lat="45.87677" lon="6.24156">
        <ele>819</ele>
        <time>2000-01-01T19:55:28.000Z</time>
      </trkpt>
      <trkpt lat="45.87684" lon="6.24146">
        <ele>812.5</ele>
        <time>2000-01-01T19:55:38.000Z</time>
      </trkpt>
      <trkpt lat="45.87693" lon="6.24137">
        <ele>815</ele>
        <time>2000-01-01T19:55:48.000Z</time>
      </trkpt>
      <trkpt lat="45.87699" lon="6.24127">
        <ele>810.3</ele>
        <time>2000-01-01T19:55:58.000Z</time>
      </trkpt>
      <trkpt lat="45.87708" lon="6.24114">
        <ele>815</ele>
        <time>2000-01-01T19:56:08.000Z</time>
      </trkpt>
      <trkpt lat="45.87713" lon="6.24102">
        <ele>808.4</ele>
        <time>2000-01-01T19:56:18.000Z</time>
      </trkpt>
      <trkpt lat="45.87714" lon="6.24089">
        <ele>814</ele>
        <time>2000-01-01T19:56:28.000Z</time>
      </trkpt>
      <trkpt lat="45.8772" lon="6.24059">
        <ele>811</ele>
        <time>2000-01-01T19:56:38.000Z</time>
      </trkpt>
      <trkpt lat="45.87725" lon="6.24044">
        <ele>810.5</ele>
        <time>2000-01-01T19:56:48.000Z</time>
      </trkpt>
      <trkpt lat="45.8773" lon="6.24028">
        <ele>810</ele>
        <time>2000-01-01T19:56:58.000Z</time>
      </trkpt>
      <trkpt lat="45.87737" lon="6.24015">
        <ele>808.5</ele>
        <time>2000-01-01T19:57:08.000Z</time>
      </trkpt>
      <trkpt lat="45.87745" lon="6.24003">
        <ele>810</ele>
        <time>2000-01-01T19:57:18.000Z</time>
      </trkpt>
      <trkpt lat="45.87753" lon="6.23993">
        <ele>802.9</ele>
        <time>2000-01-01T19:57:28.000Z</time>
      </trkpt>
      <trkpt lat="45.87761" lon="6.23981">
        <ele>799</ele>
        <time>2000-01-01T19:57:38.000Z</time>
      </trkpt>
      <trkpt lat="45.8777" lon="6.23969">
        <ele>796.2</ele>
        <time>2000-01-01T19:57:48.000Z</time>
      </trkpt>
      <trkpt lat="45.87776" lon="6.23957">
        <ele>795</ele>
        <time>2000-01-01T19:57:58.000Z</time>
      </trkpt>
      <trkpt lat="45.8778" lon="6.2393">
        <ele>789</ele>
        <time>2000-01-01T19:58:08.000Z</time>
      </trkpt>
      <trkpt lat="45.87782" lon="6.23899">
        <ele>787</ele>
        <time>2000-01-01T19:58:18.000Z</time>
      </trkpt>
      <trkpt lat="45.87784" lon="6.23883">
        <ele>785.6</ele>
        <time>2000-01-01T19:58:28.000Z</time>
      </trkpt>
      <trkpt lat="45.87785" lon="6.23869">
        <ele>784</ele>
        <time>2000-01-01T19:58:38.000Z</time>
      </trkpt>
      <trkpt lat="45.87784" lon="6.23853">
        <ele>783.7</ele>
        <time>2000-01-01T19:58:48.000Z</time>
      </trkpt>
      <trkpt lat="45.87785" lon="6.23826">
        <ele>782</ele>
        <time>2000-01-01T19:58:58.000Z</time>
      </trkpt>
      <trkpt lat="45.87785" lon="6.2381">
        <ele>781.2</ele>
        <time>2000-01-01T19:59:08.000Z</time>
      </trkpt>
      <trkpt lat="45.87784" lon="6.23795">
        <ele>780</ele>
        <time>2000-01-01T19:59:18.000Z</time>
      </trkpt>
      <trkpt lat="45.8778" lon="6.23779">
        <ele>780.3</ele>
        <time>2000-01-01T19:59:28.000Z</time>
      </trkpt>
      <trkpt lat="45.87771" lon="6.23755">
        <ele>778</ele>
        <time>2000-01-01T19:59:38.000Z</time>
      </trkpt>
      <trkpt lat="45.87764" lon="6.23739">
        <ele>776.2</ele>
        <time>2000-01-01T19:59:48.000Z</time>
      </trkpt>
      <trkpt lat="45.87766" lon="6.23726">
        <ele>772</ele>
        <time>2000-01-01T19:59:58.000Z</time>
      </trkpt>
      <trkpt lat="45.8777" lon="6.23714">
        <ele>767.6</ele>
        <time>2000-01-01T20:00:08.000Z</time>
      </trkpt>
      <trkpt lat="45.87776" lon="6.23701">
        <ele>770</ele>
        <time>2000-01-01T20:00:18.000Z</time>
      </trkpt>
      <trkpt lat="45.87785" lon="6.23697">
        <ele>767.2</ele>
        <time>2000-01-01T20:00:28.000Z</time>
      </trkpt>
      <trkpt lat="45.87804" lon="6.23697">
        <ele>771</ele>
        <time>2000-01-01T20:00:38.000Z</time>
      </trkpt>
      <trkpt lat="45.87817" lon="6.23689">
        <ele>766</ele>
        <time>2000-01-01T20:00:48.000Z</time>
      </trkpt>
      <trkpt lat="45.87827" lon="6.2368">
        <ele>769</ele>
        <time>2000-01-01T20:00:58.000Z</time>
      </trkpt>
      <trkpt lat="45.87834" lon="6.23668">
        <ele>768.3</ele>
        <time>2000-01-01T20:01:08.000Z</time>
      </trkpt>
      <trkpt lat="45.87835" lon="6.23653">
        <ele>769</ele>
        <time>2000-01-01T20:01:18.000Z</time>
      </trkpt>
      <trkpt lat="45.87831" lon="6.23637">
        <ele>768.5</ele>
        <time>2000-01-01T20:01:28.000Z</time>
      </trkpt>
      <trkpt lat="45.87825" lon="6.23605">
        <ele>769</ele>
        <time>2000-01-01T20:01:38.000Z</time>
      </trkpt>
      <trkpt lat="45.87825" lon="6.23591">
        <ele>766.1</ele>
        <time>2000-01-01T20:01:48.000Z</time>
      </trkpt>
      <trkpt lat="45.87818" lon="6.23582">
        <ele>769</ele>
        <time>2000-01-01T20:01:58.000Z</time>
      </trkpt>
      <trkpt lat="45.87813" lon="6.23569">
        <ele>767.4</ele>
        <time>2000-01-01T20:02:08.000Z</time>
      </trkpt>
      <trkpt lat="45.8781" lon="6.23555">
        <ele>769</ele>
        <time>2000-01-01T20:02:18.000Z</time>
      </trkpt>
      <trkpt lat="45.87806" lon="6.2354">
        <ele>767.3</ele>
        <time>2000-01-01T20:02:28.000Z</time>
      </trkpt>
      <trkpt lat="45.878" lon="6.23527">
        <ele>769</ele>
        <time>2000-01-01T20:02:38.000Z</time>
      </trkpt>
      <trkpt lat="45.87795" lon="6.23512">
        <ele>768.7</ele>
        <time>2000-01-01T20:02:48.000Z</time>
      </trkpt>
      <trkpt lat="45.87791" lon="6.23495">
        <ele>769</ele>
        <time>2000-01-01T20:02:58.000Z</time>
      </trkpt>
      <trkpt lat="45.87792" lon="6.23479">
        <ele>769.3</ele>
        <time>2000-01-01T20:03:08.000Z</time>
      </trkpt>
      <trkpt lat="45.87792" lon="6.23465">
        <ele>769</ele>
        <time>2000-01-01T20:03:18.000Z</time>
      </trkpt>
      <trkpt lat="45.87794" lon="6.23452">
        <ele>770.2</ele>
        <time>2000-01-01T20:03:28.000Z</time>
      </trkpt>
      <trkpt lat="45.87801" lon="6.23438">
        <ele>769</ele>
        <time>2000-01-01T20:03:38.000Z</time>
      </trkpt>
      <trkpt lat="45.87813" lon="6.23423">
        <ele>770</ele>
        <time>2000-01-01T20:03:48.000Z</time>
      </trkpt>
      <trkpt lat="45.87817" lon="6.23417">
        <ele>768</ele>
        <time>2000-01-01T20:03:58.000Z</time>
      </trkpt>
      <trkpt lat="45.87823" lon="6.23405">
        <ele>769.3</ele>
        <time>2000-01-01T20:04:08.000Z</time>
      </trkpt>
      <trkpt lat="45.87838" lon="6.23385">
        <ele>768</ele>
        <time>2000-01-01T20:04:18.000Z</time>
      </trkpt>
      <trkpt lat="45.87859" lon="6.23347">
        <ele>766</ele>
        <time>2000-01-01T20:04:28.000Z</time>
      </trkpt>
      <trkpt lat="45.87866" lon="6.23331">
        <ele>762.7</ele>
        <time>2000-01-01T20:04:38.000Z</time>
      </trkpt>
      <trkpt lat="45.87871" lon="6.23317">
        <ele>764</ele>
        <time>2000-01-01T20:04:48.000Z</time>
      </trkpt>
      <trkpt lat="45.87875" lon="6.23304">
        <ele>761.1</ele>
        <time>2000-01-01T20:04:58.000Z</time>
      </trkpt>
      <trkpt lat="45.87876" lon="6.23291">
        <ele>763</ele>
        <time>2000-01-01T20:05:08.000Z</time>
      </trkpt>
      <trkpt lat="45.87881" lon="6.23276">
        <ele>761.8</ele>
        <time>2000-01-01T20:05:18.000Z</time>
      </trkpt>
      <trkpt lat="45.87886" lon="6.23264">
        <ele>762</ele>
        <time>2000-01-01T20:05:28.000Z</time>
      </trkpt>
      <trkpt lat="45.8789" lon="6.2325">
        <ele>760.8</ele>
        <time>2000-01-01T20:05:38.000Z</time>
      </trkpt>
      <trkpt lat="45.87891" lon="6.23236">
        <ele>763</ele>
        <time>2000-01-01T20:05:48.000Z</time>
      </trkpt>
      <trkpt lat="45.87895" lon="6.23211">
        <ele>762.9</ele>
        <time>2000-01-01T20:05:58.000Z</time>
      </trkpt>
      <trkpt lat="45.87908" lon="6.23186">
        <ele>763</ele>
        <time>2000-01-01T20:06:08.000Z</time>
      </trkpt>
      <trkpt lat="45.87915" lon="6.23177">
        <ele>762.5</ele>
        <time>2000-01-01T20:06:18.000Z</time>
      </trkpt>
      <trkpt lat="45.87927" lon="6.23154">
        <ele>763</ele>
        <time>2000-01-01T20:06:28.000Z</time>
      </trkpt>
      <trkpt lat="45.87934" lon="6.23125">
        <ele>764</ele>
        <time>2000-01-01T20:06:38.000Z</time>
      </trkpt>
      <trkpt lat="45.8794" lon="6.23113">
        <ele>762.3</ele>
        <time>2000-01-01T20:06:48.000Z</time>
      </trkpt>
      <trkpt lat="45.8796" lon="6.2308">
        <ele>766</ele>
        <time>2000-01-01T20:06:58.000Z</time>
      </trkpt>
      <trkpt lat="45.87976" lon="6.23062">
        <ele>766</ele>
        <time>2000-01-01T20:07:08.000Z</time>
      </trkpt>
      <trkpt lat="45.87982" lon="6.23045">
        <ele>763.8</ele>
        <time>2000-01-01T20:07:18.000Z</time>
      </trkpt>
      <trkpt lat="45.87996" lon="6.23003">
        <ele>764</ele>
        <time>2000-01-01T20:07:28.000Z</time>
      </trkpt>
      <trkpt lat="45.88001" lon="6.22991">
        <ele>763.1</ele>
        <time>2000-01-01T20:07:38.000Z</time>
      </trkpt>
      <trkpt lat="45.8801" lon="6.22976">
        <ele>763</ele>
        <time>2000-01-01T20:07:48.000Z</time>
      </trkpt>
      <trkpt lat="45.8801" lon="6.22987">
        <ele>761.5</ele>
        <time>2000-01-01T20:07:58.000Z</time>
      </trkpt>
      <trkpt lat="45.8801" lon="6.22987">
        <ele>761.5</ele>
        <time>2000-01-01T20:08:08.000Z</time>
      </trkpt>
      <trkpt lat="45.88012" lon="6.22987">
        <ele>761.1</ele>
        <time>2000-01-01T20:08:18.000Z</time>
      </trkpt>
      <trkpt lat="45.88014" lon="6.22989">
        <ele>760.7</ele>
        <time>2000-01-01T20:08:28.000Z</time>
      </trkpt>
      <trkpt lat="45.88015" lon="6.22991">
        <ele>760.4</ele>
        <time>2000-01-01T20:08:38.000Z</time>
      </trkpt>
      <trkpt lat="45.88022" lon="6.23005">
        <ele>759</ele>
        <time>2000-01-01T20:08:48.000Z</time>
      </trkpt>
      <trkpt lat="45.88025" lon="6.23011">
        <ele>758.4</ele>
        <time>2000-01-01T20:08:58.000Z</time>
      </trkpt>
      <trkpt lat="45.88028" lon="6.23015">
        <ele>758</ele>
        <time>2000-01-01T20:09:08.000Z</time>
      </trkpt>
      <trkpt lat="45.88028" lon="6.23015">
        <ele>758</ele>
        <time>2000-01-01T20:09:18.000Z</time>
      </trkpt>
      <trkpt lat="45.88028" lon="6.23014">
        <ele>758</ele>
        <time>2000-01-01T20:09:28.000Z</time>
      </trkpt>
      <trkpt lat="45.88028" lon="6.23014">
        <ele>758</ele>
        <time>2000-01-01T20:09:38.000Z</time>
      </trkpt>
      <trkpt lat="45.88028" lon="6.23015">
        <ele>758</ele>
        <time>2000-01-01T20:09:48.000Z</time>
      </trkpt>
      <trkpt lat="45.8803" lon="6.23015">
        <ele>757.7</ele>
        <time>2000-01-01T20:09:58.000Z</time>
      </trkpt>
      <trkpt lat="45.88031" lon="6.23015">
        <ele>757.5</ele>
        <time>2000-01-01T20:10:08.000Z</time>
      </trkpt>
      <trkpt lat="45.8804" lon="6.23018">
        <ele>758</ele>
        <time>2000-01-01T20:10:18.000Z</time>
      </trkpt>
      <trkpt lat="45.8804" lon="6.23009">
        <ele>756.1</ele>
        <time>2000-01-01T20:10:28.000Z</time>
      </trkpt>
      <trkpt lat="45.88038" lon="6.22991">
        <ele>757</ele>
        <time>2000-01-01T20:10:38.000Z</time>
      </trkpt>
      <trkpt lat="45.88038" lon="6.22985">
        <ele>756</ele>
        <time>2000-01-01T20:10:48.000Z</time>
      </trkpt>
      <trkpt lat="45.8804" lon="6.22978">
        <ele>755.5</ele>
        <time>2000-01-01T20:10:58.000Z</time>
      </trkpt>
      <trkpt lat="45.8804" lon="6.22977">
        <ele>755.4</ele>
        <time>2000-01-01T20:11:08.000Z</time>
      </trkpt>
      <trkpt lat="45.88045" lon="6.22978">
        <ele>754.4</ele>
        <time>2000-01-01T20:11:18.000Z</time>
      </trkpt>
      <trkpt lat="45.88045" lon="6.22978">
        <ele>754.4</ele>
        <time>2000-01-01T20:11:28.000Z</time>
      </trkpt>
      <trkpt lat="45.8804" lon="6.22977">
        <ele>757</ele>
        <time>2000-01-01T20:11:38.000Z</time>
      </trkpt>
      <trkpt lat="45.8804" lon="6.22973">
        <ele>755.4</ele>
        <time>2000-01-01T20:11:48.000Z</time>
      </trkpt>
      <trkpt lat="45.8804" lon="6.22968">
        <ele>755.1</ele>
        <time>2000-01-01T20:11:58.000Z</time>
      </trkpt>
      <trkpt lat="45.88037" lon="6.22956">
        <ele>754.8</ele>
        <time>2000-01-01T20:12:08.000Z</time>
      </trkpt>
      <trkpt lat="45.88034" lon="6.22945">
        <ele>757</ele>
        <time>2000-01-01T20:12:18.000Z</time>
      </trkpt>
      <trkpt lat="45.88028" lon="6.22929">
        <ele>755.4</ele>
        <time>2000-01-01T20:12:28.000Z</time>
      </trkpt>
      <trkpt lat="45.88025" lon="6.22921">
        <ele>757</ele>
        <time>2000-01-01T20:12:38.000Z</time>
      </trkpt>
      <trkpt lat="45.88024" lon="6.22914">
        <ele>756.1</ele>
        <time>2000-01-01T20:12:48.000Z</time>
      </trkpt>
      <trkpt lat="45.88023" lon="6.22907">
        <ele>756.3</ele>
        <time>2000-01-01T20:12:58.000Z</time>
      </trkpt>
      <trkpt lat="45.88024" lon="6.22902">
        <ele>755.8</ele>
        <time>2000-01-01T20:13:08.000Z</time>
      </trkpt>
      <trkpt lat="45.88025" lon="6.22902">
        <ele>755.4</ele>
        <time>2000-01-01T20:13:18.000Z</time>
      </trkpt>
      <trkpt lat="45.88025" lon="6.22902">
        <ele>755.4</ele>
        <time>2000-01-01T20:13:28.000Z</time>
      </trkpt>
      <trkpt lat="45.88024" lon="6.22902">
        <ele>755.8</ele>
        <time>2000-01-01T20:13:38.000Z</time>
      </trkpt>
      <trkpt lat="45.88024" lon="6.22901">
        <ele>755.7</ele>
        <time>2000-01-01T20:13:48.000Z</time>
      </trkpt>
      <trkpt lat="45.88026" lon="6.22883">
        <ele>755</ele>
        <time>2000-01-01T20:13:58.000Z</time>
      </trkpt>
      <trkpt lat="45.88029" lon="6.22869">
        <ele>753.7</ele>
        <time>2000-01-01T20:14:08.000Z</time>
      </trkpt>
      <trkpt lat="45.88034" lon="6.22857">
        <ele>752</ele>
        <time>2000-01-01T20:14:18.000Z</time>
      </trkpt>
      <trkpt lat="45.88039" lon="6.22845">
        <ele>751.2</ele>
        <time>2000-01-01T20:14:28.000Z</time>
      </trkpt>
      <trkpt lat="45.88041" lon="6.22839">
        <ele>750.7</ele>
        <time>2000-01-01T20:14:38.000Z</time>
      </trkpt>
      <trkpt lat="45.88042" lon="6.22832">
        <ele>752</ele>
        <time>2000-01-01T20:14:48.000Z</time>
      </trkpt>
      <trkpt lat="45.88046" lon="6.22811">
        <ele>749.9</ele>
        <time>2000-01-01T20:14:58.000Z</time>
      </trkpt>
      <trkpt lat="45.88047" lon="6.22798">
        <ele>752</ele>
        <time>2000-01-01T20:15:08.000Z</time>
      </trkpt>
      <trkpt lat="45.88048" lon="6.22798">
        <ele>749.6</ele>
        <time>2000-01-01T20:15:18.000Z</time>
      </trkpt>
      <trkpt lat="45.88048" lon="6.22798">
        <ele>749.6</ele>
        <time>2000-01-01T20:15:28.000Z</time>
      </trkpt>
      <trkpt lat="45.88047" lon="6.22798">
        <ele>749.8</ele>
        <time>2000-01-01T20:15:38.000Z</time>
      </trkpt>
      <trkpt lat="45.88048" lon="6.22789">
        <ele>749.6</ele>
        <time>2000-01-01T20:15:48.000Z</time>
      </trkpt>
      <trkpt lat="45.88049" lon="6.22776">
        <ele>749.5</ele>
        <time>2000-01-01T20:15:58.000Z</time>
      </trkpt>
      <trkpt lat="45.88049" lon="6.2277">
        <ele>752</ele>
        <time>2000-01-01T20:16:08.000Z</time>
      </trkpt>
      <trkpt lat="45.88047" lon="6.22765">
        <ele>750.8</ele>
        <time>2000-01-01T20:16:18.000Z</time>
      </trkpt>
      <trkpt lat="45.88042" lon="6.22751">
        <ele>752.9</ele>
        <time>2000-01-01T20:16:28.000Z</time>
      </trkpt>
      <trkpt lat="45.88034" lon="6.22728">
        <ele>752</ele>
        <time>2000-01-01T20:16:38.000Z</time>
      </trkpt>
      <trkpt lat="45.88027" lon="6.22709">
        <ele>752.8</ele>
        <time>2000-01-01T20:16:48.000Z</time>
      </trkpt>
      <trkpt lat="45.88023" lon="6.22699">
        <ele>752</ele>
        <time>2000-01-01T20:16:58.000Z</time>
      </trkpt>
      <trkpt lat="45.88017" lon="6.22688">
        <ele>752.2</ele>
        <time>2000-01-01T20:17:08.000Z</time>
      </trkpt>
      <trkpt lat="45.88008" lon="6.22674">
        <ele>752</ele>
        <time>2000-01-01T20:17:18.000Z</time>
      </trkpt>
      <trkpt lat="45.87996" lon="6.22657">
        <ele>751.3</ele>
        <time>2000-01-01T20:17:28.000Z</time>
      </trkpt>
      <trkpt lat="45.87985" lon="6.22643">
        <ele>752</ele>
        <time>2000-01-01T20:17:38.000Z</time>
      </trkpt>
      <trkpt lat="45.87968" lon="6.22623">
        <ele>751</ele>
        <time>2000-01-01T20:17:48.000Z</time>
      </trkpt>
      <trkpt lat="45.8795" lon="6.22603">
        <ele>751</ele>
        <time>2000-01-01T20:17:58.000Z</time>
      </trkpt>
      <trkpt lat="45.87938" lon="6.22588">
        <ele>750.6</ele>
        <time>2000-01-01T20:18:08.000Z</time>
      </trkpt>
      <trkpt lat="45.87928" lon="6.22573">
        <ele>750</ele>
        <time>2000-01-01T20:18:18.000Z</time>
      </trkpt>
      <trkpt lat="45.87915" lon="6.2255">
        <ele>750</ele>
        <time>2000-01-01T20:18:28.000Z</time>
      </trkpt>
      <trkpt lat="45.87903" lon="6.22528">
        <ele>750</ele>
        <time>2000-01-01T20:18:38.000Z</time>
      </trkpt>
      <trkpt lat="45.87888" lon="6.22506">
        <ele>749</ele>
        <time>2000-01-01T20:18:48.000Z</time>
      </trkpt>
      <trkpt lat="45.87873" lon="6.22486">
        <ele>749</ele>
        <time>2000-01-01T20:18:58.000Z</time>
      </trkpt>
      <trkpt lat="45.87858" lon="6.22467">
        <ele>749</ele>
        <time>2000-01-01T20:19:08.000Z</time>
      </trkpt>
      <trkpt lat="45.87841" lon="6.22442">
        <ele>749</ele>
        <time>2000-01-01T20:19:18.000Z</time>
      </trkpt>
      <trkpt lat="45.87828" lon="6.2242">
        <ele>749</ele>
        <time>2000-01-01T20:19:28.000Z</time>
      </trkpt>
      <trkpt lat="45.87819" lon="6.22407">
        <ele>747.9</ele>
        <time>2000-01-01T20:19:38.000Z</time>
      </trkpt>
      <trkpt lat="45.87805" lon="6.22386">
        <ele>747</ele>
        <time>2000-01-01T20:19:48.000Z</time>
      </trkpt>
      <trkpt lat="45.87783" lon="6.22352">
        <ele>747</ele>
        <time>2000-01-01T20:19:58.000Z</time>
      </trkpt>
      <trkpt lat="45.87765" lon="6.22326">
        <ele>747</ele>
        <time>2000-01-01T20:20:08.000Z</time>
      </trkpt>
      <trkpt lat="45.87763" lon="6.22322">
        <ele>747.4</ele>
        <time>2000-01-01T20:20:18.000Z</time>
      </trkpt>
      <trkpt lat="45.87761" lon="6.22309">
        <ele>746.2</ele>
        <time>2000-01-01T20:20:28.000Z</time>
      </trkpt>
      <trkpt lat="45.87757" lon="6.22293">
        <ele>745</ele>
        <time>2000-01-01T20:20:38.000Z</time>
      </trkpt>
      <trkpt lat="45.87753" lon="6.22277">
        <ele>743.5</ele>
        <time>2000-01-01T20:20:48.000Z</time>
      </trkpt>
      <trkpt lat="45.87745" lon="6.22261">
        <ele>743</ele>
        <time>2000-01-01T20:20:58.000Z</time>
      </trkpt>
      <trkpt lat="45.87736" lon="6.22241">
        <ele>740.1</ele>
        <time>2000-01-01T20:21:08.000Z</time>
      </trkpt>
      <trkpt lat="45.87726" lon="6.22226">
        <ele>736</ele>
        <time>2000-01-01T20:21:18.000Z</time>
      </trkpt>
      <trkpt lat="45.87724" lon="6.22224">
        <ele>738.1</ele>
        <time>2000-01-01T20:21:28.000Z</time>
      </trkpt>
      <trkpt lat="45.87713" lon="6.2221">
        <ele>735.8</ele>
        <time>2000-01-01T20:21:38.000Z</time>
      </trkpt>
      <trkpt lat="45.87698" lon="6.22195">
        <ele>731</ele>
        <time>2000-01-01T20:21:48.000Z</time>
      </trkpt>
      <trkpt lat="45.87685" lon="6.22185">
        <ele>731</ele>
        <time>2000-01-01T20:21:58.000Z</time>
      </trkpt>
      <trkpt lat="45.87674" lon="6.22177">
        <ele>727</ele>
        <time>2000-01-01T20:22:08.000Z</time>
      </trkpt>
      <trkpt lat="45.87672" lon="6.22173">
        <ele>728.4</ele>
        <time>2000-01-01T20:22:18.000Z</time>
      </trkpt>
      <trkpt lat="45.87665" lon="6.22153">
        <ele>724</ele>
        <time>2000-01-01T20:22:28.000Z</time>
      </trkpt>
      <trkpt lat="45.8766" lon="6.22138">
        <ele>717</ele>
        <time>2000-01-01T20:22:38.000Z</time>
      </trkpt>
      <trkpt lat="45.87654" lon="6.22131">
        <ele>718</ele>
        <time>2000-01-01T20:22:48.000Z</time>
      </trkpt>
      <trkpt lat="45.87638" lon="6.2212">
        <ele>714</ele>
        <time>2000-01-01T20:22:58.000Z</time>
      </trkpt>
      <trkpt lat="45.87615" lon="6.22111">
        <ele>711</ele>
        <time>2000-01-01T20:23:08.000Z</time>
      </trkpt>
      <trkpt lat="45.87602" lon="6.22105">
        <ele>709</ele>
        <time>2000-01-01T20:23:18.000Z</time>
      </trkpt>
      <trkpt lat="45.87582" lon="6.22093">
        <ele>704</ele>
        <time>2000-01-01T20:23:28.000Z</time>
      </trkpt>
      <trkpt lat="45.87563" lon="6.22083">
        <ele>702</ele>
        <time>2000-01-01T20:23:38.000Z</time>
      </trkpt>
      <trkpt lat="45.87539" lon="6.2207">
        <ele>699</ele>
        <time>2000-01-01T20:23:48.000Z</time>
      </trkpt>
      <trkpt lat="45.87524" lon="6.22062">
        <ele>697.7</ele>
        <time>2000-01-01T20:23:58.000Z</time>
      </trkpt>
      <trkpt lat="45.87519" lon="6.22056">
        <ele>697</ele>
        <time>2000-01-01T20:24:08.000Z</time>
      </trkpt>
      <trkpt lat="45.87516" lon="6.22054">
        <ele>697.3</ele>
        <time>2000-01-01T20:24:18.000Z</time>
      </trkpt>
      <trkpt lat="45.87512" lon="6.22045">
        <ele>696.8</ele>
        <time>2000-01-01T20:24:28.000Z</time>
      </trkpt>
      <trkpt lat="45.8751" lon="6.22033">
        <ele>694</ele>
        <time>2000-01-01T20:24:38.000Z</time>
      </trkpt>
      <trkpt lat="45.87507" lon="6.22005">
        <ele>691</ele>
        <time>2000-01-01T20:24:48.000Z</time>
      </trkpt>
      <trkpt lat="45.87504" lon="6.21982">
        <ele>688.1</ele>
        <time>2000-01-01T20:24:58.000Z</time>
      </trkpt>
      <trkpt lat="45.87502" lon="6.21958">
        <ele>683</ele>
        <time>2000-01-01T20:25:08.000Z</time>
      </trkpt>
      <trkpt lat="45.875" lon="6.21937">
        <ele>682.2</ele>
        <time>2000-01-01T20:25:18.000Z</time>
      </trkpt>
      <trkpt lat="45.87501" lon="6.21927">
        <ele>680</ele>
        <time>2000-01-01T20:25:28.000Z</time>
      </trkpt>
      <trkpt lat="45.87502" lon="6.21909">
        <ele>679.7</ele>
        <time>2000-01-01T20:25:38.000Z</time>
      </trkpt>
      <trkpt lat="45.87504" lon="6.21878">
        <ele>677</ele>
        <time>2000-01-01T20:25:48.000Z</time>
      </trkpt>
      <trkpt lat="45.87504" lon="6.21852">
        <ele>676.6</ele>
        <time>2000-01-01T20:25:58.000Z</time>
      </trkpt>
      <trkpt lat="45.87501" lon="6.21838">
        <ele>675</ele>
        <time>2000-01-01T20:26:08.000Z</time>
      </trkpt>
      <trkpt lat="45.87495" lon="6.2182">
        <ele>674.4</ele>
        <time>2000-01-01T20:26:18.000Z</time>
      </trkpt>
      <trkpt lat="45.87491" lon="6.21811">
        <ele>673</ele>
        <time>2000-01-01T20:26:28.000Z</time>
      </trkpt>
      <trkpt lat="45.87491" lon="6.21811">
        <ele>673.3</ele>
        <time>2000-01-01T20:26:38.000Z</time>
      </trkpt>
      <trkpt lat="45.8749" lon="6.21809">
        <ele>673</ele>
        <time>2000-01-01T20:26:48.000Z</time>
      </trkpt>
      <trkpt lat="45.87476" lon="6.21792">
        <ele>669</ele>
        <time>2000-01-01T20:26:58.000Z</time>
      </trkpt>
      <trkpt lat="45.8747" lon="6.21785">
        <ele>669</ele>
        <time>2000-01-01T20:27:08.000Z</time>
      </trkpt>
      <trkpt lat="45.87465" lon="6.21778">
        <ele>667.8</ele>
        <time>2000-01-01T20:27:18.000Z</time>
      </trkpt>
      <trkpt lat="45.87457" lon="6.21764">
        <ele>664</ele>
        <time>2000-01-01T20:27:28.000Z</time>
      </trkpt>
      <trkpt lat="45.87455" lon="6.21762">
        <ele>664.9</ele>
        <time>2000-01-01T20:27:38.000Z</time>
      </trkpt>
      <trkpt lat="45.87446" lon="6.21754">
        <ele>663.6</ele>
        <time>2000-01-01T20:27:48.000Z</time>
      </trkpt>
      <trkpt lat="45.87438" lon="6.21746">
        <ele>660</ele>
        <time>2000-01-01T20:27:58.000Z</time>
      </trkpt>
      <trkpt lat="45.87428" lon="6.21737">
        <ele>660.1</ele>
        <time>2000-01-01T20:28:08.000Z</time>
      </trkpt>
      <trkpt lat="45.8741" lon="6.21724">
        <ele>656</ele>
        <time>2000-01-01T20:28:18.000Z</time>
      </trkpt>
      <trkpt lat="45.87402" lon="6.21719">
        <ele>655</ele>
        <time>2000-01-01T20:28:28.000Z</time>
      </trkpt>
      <trkpt lat="45.87394" lon="6.21715">
        <ele>654.1</ele>
        <time>2000-01-01T20:28:38.000Z</time>
      </trkpt>
      <trkpt lat="45.87389" lon="6.21715">
        <ele>651</ele>
        <time>2000-01-01T20:28:48.000Z</time>
      </trkpt>
      <trkpt lat="45.87383" lon="6.21716">
        <ele>653.8</ele>
        <time>2000-01-01T20:28:58.000Z</time>
      </trkpt>
      <trkpt lat="45.87379" lon="6.21714">
        <ele>653.4</ele>
        <time>2000-01-01T20:29:08.000Z</time>
      </trkpt>
      <trkpt lat="45.87374" lon="6.21711">
        <ele>652.6</ele>
        <time>2000-01-01T20:29:18.000Z</time>
      </trkpt>
      <trkpt lat="45.87367" lon="6.21706">
        <ele>650</ele>
        <time>2000-01-01T20:29:28.000Z</time>
      </trkpt>
      <trkpt lat="45.87363" lon="6.21707">
        <ele>651.4</ele>
        <time>2000-01-01T20:29:38.000Z</time>
      </trkpt>
      <trkpt lat="45.87358" lon="6.21696">
        <ele>649.2</ele>
        <time>2000-01-01T20:29:48.000Z</time>
      </trkpt>
      <trkpt lat="45.87355" lon="6.21691">
        <ele>648.3</ele>
        <time>2000-01-01T20:29:58.000Z</time>
      </trkpt>
      <trkpt lat="45.87352" lon="6.21684">
        <ele>646</ele>
        <time>2000-01-01T20:30:08.000Z</time>
      </trkpt>
      <trkpt lat="45.87344" lon="6.21666">
        <ele>645</ele>
        <time>2000-01-01T20:30:18.000Z</time>
      </trkpt>
      <trkpt lat="45.87339" lon="6.21656">
        <ele>642</ele>
        <time>2000-01-01T20:30:28.000Z</time>
      </trkpt>
      <trkpt lat="45.87335" lon="6.21648">
        <ele>643.7</ele>
        <time>2000-01-01T20:30:38.000Z</time>
      </trkpt>
      <trkpt lat="45.87333" lon="6.21645">
        <ele>643.4</ele>
        <time>2000-01-01T20:30:48.000Z</time>
      </trkpt>
      <trkpt lat="45.87327" lon="6.21639">
        <ele>642.8</ele>
        <time>2000-01-01T20:30:58.000Z</time>
      </trkpt>
      <trkpt lat="45.87319" lon="6.21629">
        <ele>640</ele>
        <time>2000-01-01T20:31:08.000Z</time>
      </trkpt>
      <trkpt lat="45.87315" lon="6.21623">
        <ele>641.4</ele>
        <time>2000-01-01T20:31:18.000Z</time>
      </trkpt>
      <trkpt lat="45.8731" lon="6.21616">
        <ele>640.6</ele>
        <time>2000-01-01T20:31:28.000Z</time>
      </trkpt>
      <trkpt lat="45.87304" lon="6.21605">
        <ele>639</ele>
        <time>2000-01-01T20:31:38.000Z</time>
      </trkpt>
      <trkpt lat="45.873" lon="6.21594">
        <ele>639</ele>
        <time>2000-01-01T20:31:48.000Z</time>
      </trkpt>
      <trkpt lat="45.87298" lon="6.21587">
        <ele>638.6</ele>
        <time>2000-01-01T20:31:58.000Z</time>
      </trkpt>
      <trkpt lat="45.87296" lon="6.2158">
        <ele>639</ele>
        <time>2000-01-01T20:32:08.000Z</time>
      </trkpt>
      <trkpt lat="45.87295" lon="6.21568">
        <ele>638.6</ele>
        <time>2000-01-01T20:32:18.000Z</time>
      </trkpt>
      <trkpt lat="45.87293" lon="6.21556">
        <ele>638.6</ele>
        <time>2000-01-01T20:32:28.000Z</time>
      </trkpt>
      <trkpt lat="45.87292" lon="6.21548">
        <ele>639</ele>
        <time>2000-01-01T20:32:38.000Z</time>
      </trkpt>
      <trkpt lat="45.87289" lon="6.21538">
        <ele>639.2</ele>
        <time>2000-01-01T20:32:48.000Z</time>
      </trkpt>
      <trkpt lat="45.87284" lon="6.21516">
        <ele>640</ele>
        <time>2000-01-01T20:32:58.000Z</time>
      </trkpt>
      <trkpt lat="45.87279" lon="6.21501">
        <ele>641</ele>
        <time>2000-01-01T20:33:08.000Z</time>
      </trkpt>
      <trkpt lat="45.87277" lon="6.21492">
        <ele>641.2</ele>
        <time>2000-01-01T20:33:18.000Z</time>
      </trkpt>
      <trkpt lat="45.87275" lon="6.21484">
        <ele>640</ele>
        <time>2000-01-01T20:33:28.000Z</time>
      </trkpt>
      <trkpt lat="45.87273" lon="6.2147">
        <ele>641.6</ele>
        <time>2000-01-01T20:33:38.000Z</time>
      </trkpt>
      <trkpt lat="45.87271" lon="6.21471">
        <ele>641.5</ele>
        <time>2000-01-01T20:33:48.000Z</time>
      </trkpt>
      <trkpt lat="45.87271" lon="6.21471">
        <ele>641.5</ele>
        <time>2000-01-01T20:33:58.000Z</time>
      </trkpt>
      <trkpt lat="45.87271" lon="6.21471">
        <ele>641.5</ele>
        <time>2000-01-01T20:34:08.000Z</time>
      </trkpt>
      <trkpt lat="45.87263" lon="6.2147">
        <ele>640</ele>
        <time>2000-01-01T20:34:18.000Z</time>
      </trkpt>
      <trkpt lat="45.87262" lon="6.21469">
        <ele>640.8</ele>
        <time>2000-01-01T20:34:28.000Z</time>
      </trkpt>
      <trkpt lat="45.87233" lon="6.2146">
        <ele>638</ele>
        <time>2000-01-01T20:34:38.000Z</time>
      </trkpt>
      <trkpt lat="45.8721" lon="6.21453">
        <ele>636</ele>
        <time>2000-01-01T20:34:48.000Z</time>
      </trkpt>
      <trkpt lat="45.8719" lon="6.21446">
        <ele>633</ele>
        <time>2000-01-01T20:34:58.000Z</time>
      </trkpt>
      <trkpt lat="45.87183" lon="6.21438">
        <ele>632.1</ele>
        <time>2000-01-01T20:35:08.000Z</time>
      </trkpt>
      <trkpt lat="45.87177" lon="6.21428">
        <ele>630.9</ele>
        <time>2000-01-01T20:35:18.000Z</time>
      </trkpt>
      <trkpt lat="45.87174" lon="6.21412">
        <ele>629</ele>
        <time>2000-01-01T20:35:28.000Z</time>
      </trkpt>
      <trkpt lat="45.87172" lon="6.21389">
        <ele>628.8</ele>
        <time>2000-01-01T20:35:38.000Z</time>
      </trkpt>
      <trkpt lat="45.87171" lon="6.21376">
        <ele>628</ele>
        <time>2000-01-01T20:35:48.000Z</time>
      </trkpt>
      <trkpt lat="45.87171" lon="6.2137">
        <ele>627.9</ele>
        <time>2000-01-01T20:35:58.000Z</time>
      </trkpt>
      <trkpt lat="45.87172" lon="6.21364">
        <ele>627.9</ele>
        <time>2000-01-01T20:36:08.000Z</time>
      </trkpt>
      <trkpt lat="45.8718" lon="6.21335">
        <ele>626</ele>
        <time>2000-01-01T20:36:18.000Z</time>
      </trkpt>
      <trkpt lat="45.8718" lon="6.21333">
        <ele>627.4</ele>
        <time>2000-01-01T20:36:28.000Z</time>
      </trkpt>
      <trkpt lat="45.87197" lon="6.2128">
        <ele>625</ele>
        <time>2000-01-01T20:36:38.000Z</time>
      </trkpt>
      <trkpt lat="45.87208" lon="6.21242">
        <ele>625</ele>
        <time>2000-01-01T20:36:48.000Z</time>
      </trkpt>
      <trkpt lat="45.87214" lon="6.21218">
        <ele>627.1</ele>
        <time>2000-01-01T20:36:58.000Z</time>
      </trkpt>
      <trkpt lat="45.87212" lon="6.21217">
        <ele>623</ele>
        <time>2000-01-01T20:37:08.000Z</time>
      </trkpt>
      <trkpt lat="45.87212" lon="6.21217">
        <ele>626.9</ele>
        <time>2000-01-01T20:37:18.000Z</time>
      </trkpt>
      <trkpt lat="45.87212" lon="6.21217">
        <ele>626.9</ele>
        <time>2000-01-01T20:37:28.000Z</time>
      </trkpt>
      <trkpt lat="45.87212" lon="6.21217">
        <ele>626.9</ele>
        <time>2000-01-01T20:37:38.000Z</time>
      </trkpt>
      <trkpt lat="45.87208" lon="6.21216">
        <ele>626.5</ele>
        <time>2000-01-01T20:37:48.000Z</time>
      </trkpt>
      <trkpt lat="45.87203" lon="6.21213">
        <ele>625.9</ele>
        <time>2000-01-01T20:37:58.000Z</time>
      </trkpt>
      <trkpt lat="45.87197" lon="6.2121">
        <ele>625.3</ele>
        <time>2000-01-01T20:38:08.000Z</time>
      </trkpt>
      <trkpt lat="45.87173" lon="6.21194">
        <ele>622</ele>
        <time>2000-01-01T20:38:18.000Z</time>
      </trkpt>
      <trkpt lat="45.87161" lon="6.21186">
        <ele>621.8</ele>
        <time>2000-01-01T20:38:28.000Z</time>
      </trkpt>
      <trkpt lat="45.87146" lon="6.21175">
        <ele>620</ele>
        <time>2000-01-01T20:38:38.000Z</time>
      </trkpt>
      <trkpt lat="45.87134" lon="6.21167">
        <ele>619.6</ele>
        <time>2000-01-01T20:38:48.000Z</time>
      </trkpt>
      <trkpt lat="45.87111" lon="6.21153">
        <ele>618</ele>
        <time>2000-01-01T20:38:58.000Z</time>
      </trkpt>
      <trkpt lat="45.8707" lon="6.21127">
        <ele>614</ele>
        <time>2000-01-01T20:39:08.000Z</time>
      </trkpt>
      <trkpt lat="45.87069" lon="6.21126">
        <ele>615.1</ele>
        <time>2000-01-01T20:39:18.000Z</time>
      </trkpt>
      <trkpt lat="45.87044" lon="6.21109">
        <ele>613</ele>
        <time>2000-01-01T20:39:28.000Z</time>
      </trkpt>
      <trkpt lat="45.87021" lon="6.21092">
        <ele>611</ele>
        <time>2000-01-01T20:39:38.000Z</time>
      </trkpt>
      <trkpt lat="45.87" lon="6.21079">
        <ele>607</ele>
        <time>2000-01-01T20:39:48.000Z</time>
      </trkpt>
      <trkpt lat="45.86987" lon="6.21072">
        <ele>607.7</ele>
        <time>2000-01-01T20:39:58.000Z</time>
      </trkpt>
      <trkpt lat="45.86969" lon="6.21063">
        <ele>605</ele>
        <time>2000-01-01T20:40:08.000Z</time>
      </trkpt>
      <trkpt lat="45.86969" lon="6.21062">
        <ele>606</ele>
        <time>2000-01-01T20:40:18.000Z</time>
      </trkpt>
      <trkpt lat="45.86969" lon="6.21062">
        <ele>606</ele>
        <time>2000-01-01T20:40:28.000Z</time>
      </trkpt>
      <trkpt lat="45.86999" lon="6.21022">
        <ele>605</ele>
        <time>2000-01-01T20:40:38.000Z</time>
      </trkpt>
      <trkpt lat="45.87025" lon="6.21009">
        <ele>611</ele>
        <time>2000-01-01T20:40:48.000Z</time>
      </trkpt>
      <trkpt lat="45.87042" lon="6.20986">
        <ele>614</ele>
        <time>2000-01-01T20:40:58.000Z</time>
      </trkpt>
      <trkpt lat="45.87042" lon="6.20943">
        <ele>615</ele>
        <time>2000-01-01T20:41:08.000Z</time>
      </trkpt>
      <trkpt lat="45.87038" lon="6.209">
        <ele>617</ele>
        <time>2000-01-01T20:41:18.000Z</time>
      </trkpt>
      <trkpt lat="45.87035" lon="6.20863">
        <ele>619</ele>
        <time>2000-01-01T20:41:28.000Z</time>
      </trkpt>
      <trkpt lat="45.87031" lon="6.20818">
        <ele>624</ele>
        <time>2000-01-01T20:41:38.000Z</time>
      </trkpt>
      <trkpt lat="45.87021" lon="6.20802">
        <ele>625.1</ele>
        <time>2000-01-01T20:41:48.000Z</time>
      </trkpt>
      <trkpt lat="45.87005" lon="6.20769">
        <ele>628</ele>
        <time>2000-01-01T20:41:58.000Z</time>
      </trkpt>
      <trkpt lat="45.87006" lon="6.20742">
        <ele>629.9</ele>
        <time>2000-01-01T20:42:08.000Z</time>
      </trkpt>
      <trkpt lat="45.8701" lon="6.20715">
        <ele>632</ele>
        <time>2000-01-01T20:42:18.000Z</time>
      </trkpt>
      <trkpt lat="45.87016" lon="6.20714">
        <ele>633.8</ele>
        <time>2000-01-01T20:42:28.000Z</time>
      </trkpt>
      <trkpt lat="45.87035" lon="6.20737">
        <ele>634</ele>
        <time>2000-01-01T20:42:38.000Z</time>
      </trkpt>
      <trkpt lat="45.87056" lon="6.20729">
        <ele>638</ele>
        <time>2000-01-01T20:42:48.000Z</time>
      </trkpt>
      <trkpt lat="45.87083" lon="6.2078">
        <ele>638</ele>
        <time>2000-01-01T20:42:58.000Z</time>
      </trkpt>
      <trkpt lat="45.87122" lon="6.20817">
        <ele>638</ele>
        <time>2000-01-01T20:43:08.000Z</time>
      </trkpt>
      <trkpt lat="45.87142" lon="6.20836">
        <ele>637</ele>
        <time>2000-01-01T20:43:18.000Z</time>
      </trkpt>
      <trkpt lat="45.87166" lon="6.20857">
        <ele>637</ele>
        <time>2000-01-01T20:43:28.000Z</time>
      </trkpt>
      <trkpt lat="45.87182" lon="6.20885">
        <ele>636</ele>
        <time>2000-01-01T20:43:38.000Z</time>
      </trkpt>
      <trkpt lat="45.872" lon="6.20919">
        <ele>636</ele>
        <time>2000-01-01T20:43:48.000Z</time>
      </trkpt>
      <trkpt lat="45.87218" lon="6.20953">
        <ele>634</ele>
        <time>2000-01-01T20:43:58.000Z</time>
      </trkpt>
      <trkpt lat="45.87245" lon="6.21007">
        <ele>633</ele>
        <time>2000-01-01T20:44:08.000Z</time>
      </trkpt>
      <trkpt lat="45.87271" lon="6.2104">
        <ele>633</ele>
        <time>2000-01-01T20:44:18.000Z</time>
      </trkpt>
      <trkpt lat="45.87274" lon="6.21081">
        <ele>633</ele>
        <time>2000-01-01T20:44:28.000Z</time>
      </trkpt>
      <trkpt lat="45.87295" lon="6.21059">
        <ele>634</ele>
        <time>2000-01-01T20:44:38.000Z</time>
      </trkpt>
      <trkpt lat="45.87319" lon="6.21033">
        <ele>637</ele>
        <time>2000-01-01T20:44:48.000Z</time>
      </trkpt>
      <trkpt lat="45.87334" lon="6.21004">
        <ele>639</ele>
        <time>2000-01-01T20:44:58.000Z</time>
      </trkpt>
      <trkpt lat="45.87319" lon="6.20966">
        <ele>642</ele>
        <time>2000-01-01T20:45:08.000Z</time>
      </trkpt>
      <trkpt lat="45.87301" lon="6.20938">
        <ele>644</ele>
        <time>2000-01-01T20:45:18.000Z</time>
      </trkpt>
      <trkpt lat="45.87277" lon="6.209">
        <ele>644</ele>
        <time>2000-01-01T20:45:28.000Z</time>
      </trkpt>
      <trkpt lat="45.87258" lon="6.20863">
        <ele>647</ele>
        <time>2000-01-01T20:45:38.000Z</time>
      </trkpt>
      <trkpt lat="45.87238" lon="6.20825">
        <ele>651</ele>
        <time>2000-01-01T20:45:48.000Z</time>
      </trkpt>
      <trkpt lat="45.87211" lon="6.20773">
        <ele>656</ele>
        <time>2000-01-01T20:45:58.000Z</time>
      </trkpt>
      <trkpt lat="45.87183" lon="6.20723">
        <ele>660</ele>
        <time>2000-01-01T20:46:08.000Z</time>
      </trkpt>
      <trkpt lat="45.87186" lon="6.20705">
        <ele>661.9</ele>
        <time>2000-01-01T20:46:18.000Z</time>
      </trkpt>
      <trkpt lat="45.87197" lon="6.20704">
        <ele>663</ele>
        <time>2000-01-01T20:46:28.000Z</time>
      </trkpt>
      <trkpt lat="45.87226" lon="6.20716">
        <ele>667</ele>
        <time>2000-01-01T20:46:38.000Z</time>
      </trkpt>
      <trkpt lat="45.87256" lon="6.2071">
        <ele>670</ele>
        <time>2000-01-01T20:46:48.000Z</time>
      </trkpt>
      <trkpt lat="45.87281" lon="6.20706">
        <ele>676</ele>
        <time>2000-01-01T20:46:58.000Z</time>
      </trkpt>
      <trkpt lat="45.87311" lon="6.207">
        <ele>679</ele>
        <time>2000-01-01T20:47:08.000Z</time>
      </trkpt>
      <trkpt lat="45.87347" lon="6.20703">
        <ele>683</ele>
        <time>2000-01-01T20:47:18.000Z</time>
      </trkpt>
      <trkpt lat="45.87344" lon="6.20684">
        <ele>687</ele>
        <time>2000-01-01T20:47:28.000Z</time>
      </trkpt>
      <trkpt lat="45.87334" lon="6.20662">
        <ele>689</ele>
        <time>2000-01-01T20:47:38.000Z</time>
      </trkpt>
      <trkpt lat="45.87315" lon="6.20642">
        <ele>689</ele>
        <time>2000-01-01T20:47:48.000Z</time>
      </trkpt>
      <trkpt lat="45.87293" lon="6.20627">
        <ele>690</ele>
        <time>2000-01-01T20:47:58.000Z</time>
      </trkpt>
      <trkpt lat="45.8727" lon="6.20612">
        <ele>690</ele>
        <time>2000-01-01T20:48:08.000Z</time>
      </trkpt>
      <trkpt lat="45.87241" lon="6.20585">
        <ele>691</ele>
        <time>2000-01-01T20:48:18.000Z</time>
      </trkpt>
      <trkpt lat="45.87211" lon="6.20558">
        <ele>690</ele>
        <time>2000-01-01T20:48:28.000Z</time>
      </trkpt>
      <trkpt lat="45.87181" lon="6.20531">
        <ele>690</ele>
        <time>2000-01-01T20:48:38.000Z</time>
      </trkpt>
      <trkpt lat="45.87151" lon="6.20504">
        <ele>690</ele>
        <time>2000-01-01T20:48:48.000Z</time>
      </trkpt>
      <trkpt lat="45.87128" lon="6.20486">
        <ele>691</ele>
        <time>2000-01-01T20:48:58.000Z</time>
      </trkpt>
      <trkpt lat="45.87106" lon="6.20446">
        <ele>696</ele>
        <time>2000-01-01T20:49:08.000Z</time>
      </trkpt>
      <trkpt lat="45.87146" lon="6.20437">
        <ele>708</ele>
        <time>2000-01-01T20:49:18.000Z</time>
      </trkpt>
      <trkpt lat="45.87184" lon="6.20447">
        <ele>716</ele>
        <time>2000-01-01T20:49:28.000Z</time>
      </trkpt>
      <trkpt lat="45.8721" lon="6.20443">
        <ele>724</ele>
        <time>2000-01-01T20:49:38.000Z</time>
      </trkpt>
      <trkpt lat="45.87242" lon="6.20439">
        <ele>737</ele>
        <time>2000-01-01T20:49:48.000Z</time>
      </trkpt>
      <trkpt lat="45.87266" lon="6.20439">
        <ele>742</ele>
        <time>2000-01-01T20:49:58.000Z</time>
      </trkpt>
      <trkpt lat="45.87292" lon="6.20438">
        <ele>751</ele>
        <time>2000-01-01T20:50:08.000Z</time>
      </trkpt>
      <trkpt lat="45.87337" lon="6.20429">
        <ele>765</ele>
        <time>2000-01-01T20:50:18.000Z</time>
      </trkpt>
      <trkpt lat="45.87364" lon="6.20436">
        <ele>767</ele>
        <time>2000-01-01T20:50:28.000Z</time>
      </trkpt>
      <trkpt lat="45.87405" lon="6.20447">
        <ele>768</ele>
        <time>2000-01-01T20:50:38.000Z</time>
      </trkpt>
      <trkpt lat="45.8745" lon="6.2044">
        <ele>773</ele>
        <time>2000-01-01T20:50:48.000Z</time>
      </trkpt>
      <trkpt lat="45.87481" lon="6.20432">
        <ele>781</ele>
        <time>2000-01-01T20:50:58.000Z</time>
      </trkpt>
      <trkpt lat="45.87495" lon="6.2042">
        <ele>788.9</ele>
        <time>2000-01-01T20:51:08.000Z</time>
      </trkpt>
      <trkpt lat="45.87563" lon="6.20421">
        <ele>800</ele>
        <time>2000-01-01T20:51:18.000Z</time>
      </trkpt>
      <trkpt lat="45.87587" lon="6.20416">
        <ele>804</ele>
        <time>2000-01-01T20:51:28.000Z</time>
      </trkpt>
      <trkpt lat="45.87613" lon="6.2041">
        <ele>808</ele>
        <time>2000-01-01T20:51:38.000Z</time>
      </trkpt>
      <trkpt lat="45.87635" lon="6.20402">
        <ele>814</ele>
        <time>2000-01-01T20:51:48.000Z</time>
      </trkpt>
      <trkpt lat="45.87659" lon="6.20403">
        <ele>818</ele>
        <time>2000-01-01T20:51:58.000Z</time>
      </trkpt>
      <trkpt lat="45.8769" lon="6.20386">
        <ele>833</ele>
        <time>2000-01-01T20:52:08.000Z</time>
      </trkpt>
      <trkpt lat="45.87714" lon="6.2038">
        <ele>841</ele>
        <time>2000-01-01T20:52:18.000Z</time>
      </trkpt>
      <trkpt lat="45.87739" lon="6.20373">
        <ele>841</ele>
        <time>2000-01-01T20:52:28.000Z</time>
      </trkpt>
      <trkpt lat="45.87765" lon="6.20354">
        <ele>849</ele>
        <time>2000-01-01T20:52:38.000Z</time>
      </trkpt>
      <trkpt lat="45.87785" lon="6.20328">
        <ele>849</ele>
        <time>2000-01-01T20:52:48.000Z</time>
      </trkpt>
      <trkpt lat="45.87804" lon="6.20284">
        <ele>854</ele>
        <time>2000-01-01T20:52:58.000Z</time>
      </trkpt>
      <trkpt lat="45.878" lon="6.20262">
        <ele>859</ele>
        <time>2000-01-01T20:53:08.000Z</time>
      </trkpt>
      <trkpt lat="45.8781" lon="6.20246">
        <ele>860</ele>
        <time>2000-01-01T20:53:18.000Z</time>
      </trkpt>
      <trkpt lat="45.87836" lon="6.20232">
        <ele>866</ele>
        <time>2000-01-01T20:53:28.000Z</time>
      </trkpt>
      <trkpt lat="45.87863" lon="6.20238">
        <ele>868</ele>
        <time>2000-01-01T20:53:38.000Z</time>
      </trkpt>
      <trkpt lat="45.87902" lon="6.20246">
        <ele>868</ele>
        <time>2000-01-01T20:53:48.000Z</time>
      </trkpt>
      <trkpt lat="45.87939" lon="6.20243">
        <ele>869</ele>
        <time>2000-01-01T20:53:58.000Z</time>
      </trkpt>
      <trkpt lat="45.87977" lon="6.20237">
        <ele>868</ele>
        <time>2000-01-01T20:54:08.000Z</time>
      </trkpt>
      <trkpt lat="45.88016" lon="6.20233">
        <ele>868</ele>
        <time>2000-01-01T20:54:18.000Z</time>
      </trkpt>
      <trkpt lat="45.88042" lon="6.20233">
        <ele>862</ele>
        <time>2000-01-01T20:54:28.000Z</time>
      </trkpt>
      <trkpt lat="45.88072" lon="6.20232">
        <ele>854</ele>
        <time>2000-01-01T20:54:38.000Z</time>
      </trkpt>
      <trkpt lat="45.88096" lon="6.20218">
        <ele>854</ele>
        <time>2000-01-01T20:54:48.000Z</time>
      </trkpt>
      <trkpt lat="45.88133" lon="6.20177">
        <ele>856</ele>
        <time>2000-01-01T20:54:58.000Z</time>
      </trkpt>
      <trkpt lat="45.88156" lon="6.20148">
        <ele>855</ele>
        <time>2000-01-01T20:55:08.000Z</time>
      </trkpt>
      <trkpt lat="45.88164" lon="6.20141">
        <ele>856.4</ele>
        <time>2000-01-01T20:55:18.000Z</time>
      </trkpt>
      <trkpt lat="45.8817" lon="6.20154">
        <ele>854</ele>
        <time>2000-01-01T20:55:28.000Z</time>
      </trkpt>
      <trkpt lat="45.88178" lon="6.20198">
        <ele>852</ele>
        <time>2000-01-01T20:55:38.000Z</time>
      </trkpt>
      <trkpt lat="45.88195" lon="6.20221">
        <ele>856</ele>
        <time>2000-01-01T20:55:48.000Z</time>
      </trkpt>
      <trkpt lat="45.88235" lon="6.20255">
        <ele>860</ele>
        <time>2000-01-01T20:55:58.000Z</time>
      </trkpt>
      <trkpt lat="45.88275" lon="6.20268">
        <ele>859</ele>
        <time>2000-01-01T20:56:08.000Z</time>
      </trkpt>
      <trkpt lat="45.88298" lon="6.20274">
        <ele>859</ele>
        <time>2000-01-01T20:56:18.000Z</time>
      </trkpt>
      <trkpt lat="45.88322" lon="6.20281">
        <ele>859</ele>
        <time>2000-01-01T20:56:28.000Z</time>
      </trkpt>
      <trkpt lat="45.88352" lon="6.20289">
        <ele>862</ele>
        <time>2000-01-01T20:56:38.000Z</time>
      </trkpt>
      <trkpt lat="45.88378" lon="6.20288">
        <ele>865</ele>
        <time>2000-01-01T20:56:48.000Z</time>
      </trkpt>
      <trkpt lat="45.88412" lon="6.20287">
        <ele>870</ele>
        <time>2000-01-01T20:56:58.000Z</time>
      </trkpt>
      <trkpt lat="45.88456" lon="6.20264">
        <ele>876</ele>
        <time>2000-01-01T20:57:08.000Z</time>
      </trkpt>
      <trkpt lat="45.88492" lon="6.20258">
        <ele>876</ele>
        <time>2000-01-01T20:57:18.000Z</time>
      </trkpt>
      <trkpt lat="45.88526" lon="6.20264">
        <ele>882</ele>
        <time>2000-01-01T20:57:28.000Z</time>
      </trkpt>
      <trkpt lat="45.88548" lon="6.20247">
        <ele>899</ele>
        <time>2000-01-01T20:57:38.000Z</time>
      </trkpt>
      <trkpt lat="45.8858" lon="6.20242">
        <ele>907</ele>
        <time>2000-01-01T20:57:48.000Z</time>
      </trkpt>
      <trkpt lat="45.88608" lon="6.20227">
        <ele>925</ele>
        <time>2000-01-01T20:57:58.000Z</time>
      </trkpt>
      <trkpt lat="45.88644" lon="6.20209">
        <ele>933</ele>
        <time>2000-01-01T20:58:08.000Z</time>
      </trkpt>
      <trkpt lat="45.88673" lon="6.20216">
        <ele>941</ele>
        <time>2000-01-01T20:58:18.000Z</time>
      </trkpt>
      <trkpt lat="45.88709" lon="6.20208">
        <ele>946</ele>
        <time>2000-01-01T20:58:28.000Z</time>
      </trkpt>
      <trkpt lat="45.88738" lon="6.20192">
        <ele>953</ele>
        <time>2000-01-01T20:58:38.000Z</time>
      </trkpt>
      <trkpt lat="45.88762" lon="6.20179">
        <ele>954</ele>
        <time>2000-01-01T20:58:48.000Z</time>
      </trkpt>
      <trkpt lat="45.888" lon="6.20198">
        <ele>956</ele>
        <time>2000-01-01T20:58:58.000Z</time>
      </trkpt>
      <trkpt lat="45.88824" lon="6.202">
        <ele>956</ele>
        <time>2000-01-01T20:59:08.000Z</time>
      </trkpt>
      <trkpt lat="45.88858" lon="6.2018">
        <ele>957</ele>
        <time>2000-01-01T20:59:18.000Z</time>
      </trkpt>
      <trkpt lat="45.88874" lon="6.20163">
        <ele>959</ele>
        <time>2000-01-01T20:59:28.000Z</time>
      </trkpt>
      <trkpt lat="45.88898" lon="6.20172">
        <ele>959</ele>
        <time>2000-01-01T20:59:38.000Z</time>
      </trkpt>
      <trkpt lat="45.88923" lon="6.20182">
        <ele>967</ele>
        <time>2000-01-01T20:59:48.000Z</time>
      </trkpt>
      <trkpt lat="45.88951" lon="6.20188">
        <ele>979</ele>
        <time>2000-01-01T20:59:58.000Z</time>
      </trkpt>
      <trkpt lat="45.88994" lon="6.20198">
        <ele>984</ele>
        <time>2000-01-01T21:00:08.000Z</time>
      </trkpt>
      <trkpt lat="45.89034" lon="6.20191">
        <ele>988</ele>
        <time>2000-01-01T21:00:18.000Z</time>
      </trkpt>
      <trkpt lat="45.89059" lon="6.20187">
        <ele>997</ele>
        <time>2000-01-01T21:00:28.000Z</time>
      </trkpt>
      <trkpt lat="45.89089" lon="6.20183">
        <ele>997</ele>
        <time>2000-01-01T21:00:38.000Z</time>
      </trkpt>
      <trkpt lat="45.89119" lon="6.20177">
        <ele>1007</ele>
        <time>2000-01-01T21:00:48.000Z</time>
      </trkpt>
      <trkpt lat="45.89143" lon="6.20176">
        <ele>1012</ele>
        <time>2000-01-01T21:00:58.000Z</time>
      </trkpt>
      <trkpt lat="45.89168" lon="6.20175">
        <ele>1014</ele>
        <time>2000-01-01T21:01:08.000Z</time>
      </trkpt>
      <trkpt lat="45.89197" lon="6.20176">
        <ele>1015</ele>
        <time>2000-01-01T21:01:18.000Z</time>
      </trkpt>
      <trkpt lat="45.89221" lon="6.20177">
        <ele>1023</ele>
        <time>2000-01-01T21:01:28.000Z</time>
      </trkpt>
      <trkpt lat="45.89246" lon="6.20178">
        <ele>1029</ele>
        <time>2000-01-01T21:01:38.000Z</time>
      </trkpt>
      <trkpt lat="45.89277" lon="6.20179">
        <ele>1036</ele>
        <time>2000-01-01T21:01:48.000Z</time>
      </trkpt>
      <trkpt lat="45.89311" lon="6.20195">
        <ele>1040</ele>
        <time>2000-01-01T21:01:58.000Z</time>
      </trkpt>
      <trkpt lat="45.89333" lon="6.20193">
        <ele>1046</ele>
        <time>2000-01-01T21:02:08.000Z</time>
      </trkpt>
      <trkpt lat="45.89376" lon="6.2018">
        <ele>1053</ele>
        <time>2000-01-01T21:02:18.000Z</time>
      </trkpt>
      <trkpt lat="45.89411" lon="6.20163">
        <ele>1061</ele>
        <time>2000-01-01T21:02:28.000Z</time>
      </trkpt>
      <trkpt lat="45.89451" lon="6.2014">
        <ele>1072</ele>
        <time>2000-01-01T21:02:38.000Z</time>
      </trkpt>
      <trkpt lat="45.89495" lon="6.20124">
        <ele>1076</ele>
        <time>2000-01-01T21:02:48.000Z</time>
      </trkpt>
      <trkpt lat="45.89517" lon="6.20117">
        <ele>1081</ele>
        <time>2000-01-01T21:02:58.000Z</time>
      </trkpt>
      <trkpt lat="45.8954" lon="6.201">
        <ele>1086</ele>
        <time>2000-01-01T21:03:08.000Z</time>
      </trkpt>
      <trkpt lat="45.89537" lon="6.20081">
        <ele>1085.4</ele>
        <time>2000-01-01T21:03:18.000Z</time>
      </trkpt>
      <trkpt lat="45.89529" lon="6.20051">
        <ele>1082</ele>
        <time>2000-01-01T21:03:28.000Z</time>
      </trkpt>
      <trkpt lat="45.8952" lon="6.20007">
        <ele>1078</ele>
        <time>2000-01-01T21:03:38.000Z</time>
      </trkpt>
      <trkpt lat="45.89497" lon="6.19973">
        <ele>1075</ele>
        <time>2000-01-01T21:03:48.000Z</time>
      </trkpt>
      <trkpt lat="45.89474" lon="6.19955">
        <ele>1068</ele>
        <time>2000-01-01T21:03:58.000Z</time>
      </trkpt>
      <trkpt lat="45.89448" lon="6.19934">
        <ele>1067</ele>
        <time>2000-01-01T21:04:08.000Z</time>
      </trkpt>
      <trkpt lat="45.89425" lon="6.19923">
        <ele>1065</ele>
        <time>2000-01-01T21:04:18.000Z</time>
      </trkpt>
      <trkpt lat="45.89402" lon="6.19911">
        <ele>1062</ele>
        <time>2000-01-01T21:04:28.000Z</time>
      </trkpt>
      <trkpt lat="45.89378" lon="6.19899">
        <ele>1054</ele>
        <time>2000-01-01T21:04:38.000Z</time>
      </trkpt>
      <trkpt lat="45.89337" lon="6.19869">
        <ele>1049</ele>
        <time>2000-01-01T21:04:48.000Z</time>
      </trkpt>
      <trkpt lat="45.8931" lon="6.19824">
        <ele>1042</ele>
        <time>2000-01-01T21:04:58.000Z</time>
      </trkpt>
      <trkpt lat="45.89283" lon="6.19781">
        <ele>1041</ele>
        <time>2000-01-01T21:05:08.000Z</time>
      </trkpt>
      <trkpt lat="45.89267" lon="6.19745">
        <ele>1034</ele>
        <time>2000-01-01T21:05:18.000Z</time>
      </trkpt>
      <trkpt lat="45.89257" lon="6.19697">
        <ele>1031</ele>
        <time>2000-01-01T21:05:28.000Z</time>
      </trkpt>
      <trkpt lat="45.89238" lon="6.19675">
        <ele>1031</ele>
        <time>2000-01-01T21:05:38.000Z</time>
      </trkpt>
      <trkpt lat="45.89219" lon="6.19653">
        <ele>1031</ele>
        <time>2000-01-01T21:05:48.000Z</time>
      </trkpt>
      <trkpt lat="45.89196" lon="6.19635">
        <ele>1035</ele>
        <time>2000-01-01T21:05:58.000Z</time>
      </trkpt>
      <trkpt lat="45.89167" lon="6.19612">
        <ele>1035</ele>
        <time>2000-01-01T21:06:08.000Z</time>
      </trkpt>
      <trkpt lat="45.89142" lon="6.19588">
        <ele>1035</ele>
        <time>2000-01-01T21:06:18.000Z</time>
      </trkpt>
      <trkpt lat="45.89125" lon="6.19559">
        <ele>1039</ele>
        <time>2000-01-01T21:06:28.000Z</time>
      </trkpt>
      <trkpt lat="45.89105" lon="6.19524">
        <ele>1042</ele>
        <time>2000-01-01T21:06:38.000Z</time>
      </trkpt>
      <trkpt lat="45.89092" lon="6.19493">
        <ele>1044</ele>
        <time>2000-01-01T21:06:48.000Z</time>
      </trkpt>
      <trkpt lat="45.89076" lon="6.19454">
        <ele>1046</ele>
        <time>2000-01-01T21:06:58.000Z</time>
      </trkpt>
      <trkpt lat="45.89059" lon="6.19427">
        <ele>1049</ele>
        <time>2000-01-01T21:07:08.000Z</time>
      </trkpt>
      <trkpt lat="45.89038" lon="6.19395">
        <ele>1051</ele>
        <time>2000-01-01T21:07:18.000Z</time>
      </trkpt>
      <trkpt lat="45.89026" lon="6.1938">
        <ele>1052</ele>
        <time>2000-01-01T21:07:28.000Z</time>
      </trkpt>
      <trkpt lat="45.89017" lon="6.19373">
        <ele>1051</ele>
        <time>2000-01-01T21:07:38.000Z</time>
      </trkpt>
      <trkpt lat="45.89013" lon="6.1936">
        <ele>1053.8</ele>
        <time>2000-01-01T21:07:48.000Z</time>
      </trkpt>
      <trkpt lat="45.89015" lon="6.19362">
        <ele>1053.3</ele>
        <time>2000-01-01T21:07:58.000Z</time>
      </trkpt>
      <trkpt lat="45.89025" lon="6.19364">
        <ele>1050</ele>
        <time>2000-01-01T21:08:08.000Z</time>
      </trkpt>
      <trkpt lat="45.89036" lon="6.19364">
        <ele>1049.8</ele>
        <time>2000-01-01T21:08:18.000Z</time>
      </trkpt>
      <trkpt lat="45.89045" lon="6.19358">
        <ele>1050</ele>
        <time>2000-01-01T21:08:28.000Z</time>
      </trkpt>
      <trkpt lat="45.89055" lon="6.19353">
        <ele>1049.1</ele>
        <time>2000-01-01T21:08:38.000Z</time>
      </trkpt>
      <trkpt lat="45.89078" lon="6.19346">
        <ele>1049</ele>
        <time>2000-01-01T21:08:48.000Z</time>
      </trkpt>
      <trkpt lat="45.89099" lon="6.19345">
        <ele>1048</ele>
        <time>2000-01-01T21:08:58.000Z</time>
      </trkpt>
      <trkpt lat="45.89109" lon="6.19341">
        <ele>1045.8</ele>
        <time>2000-01-01T21:09:08.000Z</time>
      </trkpt>
      <trkpt lat="45.89128" lon="6.19333">
        <ele>1047</ele>
        <time>2000-01-01T21:09:18.000Z</time>
      </trkpt>
      <trkpt lat="45.89136" lon="6.19327">
        <ele>1047.4</ele>
        <time>2000-01-01T21:09:28.000Z</time>
      </trkpt>
      <trkpt lat="45.89146" lon="6.19328">
        <ele>1047</ele>
        <time>2000-01-01T21:09:38.000Z</time>
      </trkpt>
      <trkpt lat="45.89155" lon="6.19324">
        <ele>1045.9</ele>
        <time>2000-01-01T21:09:48.000Z</time>
      </trkpt>
      <trkpt lat="45.89164" lon="6.19319">
        <ele>1051</ele>
        <time>2000-01-01T21:09:58.000Z</time>
      </trkpt>
      <trkpt lat="45.89171" lon="6.19308">
        <ele>1052.2</ele>
        <time>2000-01-01T21:10:08.000Z</time>
      </trkpt>
      <trkpt lat="45.8918" lon="6.19301">
        <ele>1056</ele>
        <time>2000-01-01T21:10:18.000Z</time>
      </trkpt>
      <trkpt lat="45.89188" lon="6.19298">
        <ele>1056.1</ele>
        <time>2000-01-01T21:10:28.000Z</time>
      </trkpt>
      <trkpt lat="45.89196" lon="6.1929">
        <ele>1059.7</ele>
        <time>2000-01-01T21:10:38.000Z</time>
      </trkpt>
      <trkpt lat="45.89214" lon="6.1928">
        <ele>1063</ele>
        <time>2000-01-01T21:10:48.000Z</time>
      </trkpt>
      <trkpt lat="45.89223" lon="6.19276">
        <ele>1063.9</ele>
        <time>2000-01-01T21:10:58.000Z</time>
      </trkpt>
      <trkpt lat="45.8924" lon="6.1926">
        <ele>1068</ele>
        <time>2000-01-01T21:11:08.000Z</time>
      </trkpt>
      <trkpt lat="45.89249" lon="6.19258">
        <ele>1068.9</ele>
        <time>2000-01-01T21:11:18.000Z</time>
      </trkpt>
      <trkpt lat="45.89256" lon="6.19248">
        <ele>1076</ele>
        <time>2000-01-01T21:11:28.000Z</time>
      </trkpt>
      <trkpt lat="45.89261" lon="6.19236">
        <ele>1075.4</ele>
        <time>2000-01-01T21:11:38.000Z</time>
      </trkpt>
      <trkpt lat="45.89268" lon="6.19227">
        <ele>1078</ele>
        <time>2000-01-01T21:11:48.000Z</time>
      </trkpt>
      <trkpt lat="45.89258" lon="6.19226">
        <ele>1079.7</ele>
        <time>2000-01-01T21:11:58.000Z</time>
      </trkpt>
      <trkpt lat="45.89249" lon="6.19234">
        <ele>1081</ele>
        <time>2000-01-01T21:12:08.000Z</time>
      </trkpt>
      <trkpt lat="45.8924" lon="6.19239">
        <ele>1079</ele>
        <time>2000-01-01T21:12:18.000Z</time>
      </trkpt>
      <trkpt lat="45.89233" lon="6.19247">
        <ele>1077.8</ele>
        <time>2000-01-01T21:12:28.000Z</time>
      </trkpt>
      <trkpt lat="45.89224" lon="6.19242">
        <ele>1084</ele>
        <time>2000-01-01T21:12:38.000Z</time>
      </trkpt>
      <trkpt lat="45.89219" lon="6.19231">
        <ele>1087.3</ele>
        <time>2000-01-01T21:12:48.000Z</time>
      </trkpt>
      <trkpt lat="45.89224" lon="6.1922">
        <ele>1094</ele>
        <time>2000-01-01T21:12:58.000Z</time>
      </trkpt>
      <trkpt lat="45.89223" lon="6.19207">
        <ele>1095.4</ele>
        <time>2000-01-01T21:13:08.000Z</time>
      </trkpt>
      <trkpt lat="45.89219" lon="6.19219">
        <ele>1092.1</ele>
        <time>2000-01-01T21:13:18.000Z</time>
      </trkpt>
      <trkpt lat="45.89211" lon="6.19224">
        <ele>1094</ele>
        <time>2000-01-01T21:13:28.000Z</time>
      </trkpt>
      <trkpt lat="45.89201" lon="6.19226">
        <ele>1094.2</ele>
        <time>2000-01-01T21:13:38.000Z</time>
      </trkpt>
      <trkpt lat="45.89193" lon="6.19231">
        <ele>1095</ele>
        <time>2000-01-01T21:13:48.000Z</time>
      </trkpt>
      <trkpt lat="45.89184" lon="6.19231">
        <ele>1094.6</ele>
        <time>2000-01-01T21:13:58.000Z</time>
      </trkpt>
      <trkpt lat="45.89175" lon="6.19225">
        <ele>1099.2</ele>
        <time>2000-01-01T21:14:08.000Z</time>
      </trkpt>
      <trkpt lat="45.89167" lon="6.19219">
        <ele>1100</ele>
        <time>2000-01-01T21:14:18.000Z</time>
      </trkpt>
      <trkpt lat="45.89157" lon="6.19224">
        <ele>1102</ele>
        <time>2000-01-01T21:14:28.000Z</time>
      </trkpt>
      <trkpt lat="45.89147" lon="6.19221">
        <ele>1106</ele>
        <time>2000-01-01T21:14:38.000Z</time>
      </trkpt>
      <trkpt lat="45.89139" lon="6.19214">
        <ele>1108.2</ele>
        <time>2000-01-01T21:14:48.000Z</time>
      </trkpt>
      <trkpt lat="45.89123" lon="6.19203">
        <ele>1115</ele>
        <time>2000-01-01T21:14:58.000Z</time>
      </trkpt>
      <trkpt lat="45.89114" lon="6.19205">
        <ele>1114.5</ele>
        <time>2000-01-01T21:15:08.000Z</time>
      </trkpt>
      <trkpt lat="45.89104" lon="6.19204">
        <ele>1116.5</ele>
        <time>2000-01-01T21:15:18.000Z</time>
      </trkpt>
      <trkpt lat="45.89095" lon="6.19199">
        <ele>1123</ele>
        <time>2000-01-01T21:15:28.000Z</time>
      </trkpt>
      <trkpt lat="45.89086" lon="6.19202">
        <ele>1120.5</ele>
        <time>2000-01-01T21:15:38.000Z</time>
      </trkpt>
      <trkpt lat="45.89077" lon="6.19199">
        <ele>1123.4</ele>
        <time>2000-01-01T21:15:48.000Z</time>
      </trkpt>
      <trkpt lat="45.8906" lon="6.19187">
        <ele>1131</ele>
        <time>2000-01-01T21:15:58.000Z</time>
      </trkpt>
      <trkpt lat="45.89056" lon="6.19175">
        <ele>1132.8</ele>
        <time>2000-01-01T21:16:08.000Z</time>
      </trkpt>
      <trkpt lat="45.89054" lon="6.19149">
        <ele>1133</ele>
        <time>2000-01-01T21:16:18.000Z</time>
      </trkpt>
      <trkpt lat="45.89058" lon="6.19137">
        <ele>1137.3</ele>
        <time>2000-01-01T21:16:28.000Z</time>
      </trkpt>
      <trkpt lat="45.89066" lon="6.19128">
        <ele>1141</ele>
        <time>2000-01-01T21:16:38.000Z</time>
      </trkpt>
      <trkpt lat="45.89084" lon="6.19116">
        <ele>1150</ele>
        <time>2000-01-01T21:16:48.000Z</time>
      </trkpt>
      <trkpt lat="45.89092" lon="6.19109">
        <ele>1152.6</ele>
        <time>2000-01-01T21:16:58.000Z</time>
      </trkpt>
      <trkpt lat="45.89094" lon="6.19096">
        <ele>1160.7</ele>
        <time>2000-01-01T21:17:08.000Z</time>
      </trkpt>
      <trkpt lat="45.891" lon="6.19086">
        <ele>1169</ele>
        <time>2000-01-01T21:17:18.000Z</time>
      </trkpt>
      <trkpt lat="45.89108" lon="6.19078">
        <ele>1170.4</ele>
        <time>2000-01-01T21:17:28.000Z</time>
      </trkpt>
      <trkpt lat="45.89117" lon="6.19075">
        <ele>1177</ele>
        <time>2000-01-01T21:17:38.000Z</time>
      </trkpt>
      <trkpt lat="45.89107" lon="6.19075">
        <ele>1172.8</ele>
        <time>2000-01-01T21:17:48.000Z</time>
      </trkpt>
      <trkpt lat="45.89092" lon="6.1907">
        <ele>1179</ele>
        <time>2000-01-01T21:17:58.000Z</time>
      </trkpt>
      <trkpt lat="45.89082" lon="6.19069">
        <ele>1179.3</ele>
        <time>2000-01-01T21:18:08.000Z</time>
      </trkpt>
      <trkpt lat="45.8908" lon="6.19068">
        <ele>1180</ele>
        <time>2000-01-01T21:18:18.000Z</time>
      </trkpt>
      <trkpt lat="45.89076" lon="6.19063">
        <ele>1183.4</ele>
        <time>2000-01-01T21:18:28.000Z</time>
      </trkpt>
      <trkpt lat="45.8907" lon="6.1906">
        <ele>1186</ele>
        <time>2000-01-01T21:18:38.000Z</time>
      </trkpt>
      <trkpt lat="45.89066" lon="6.19054">
        <ele>1189.9</ele>
        <time>2000-01-01T21:18:48.000Z</time>
      </trkpt>
      <trkpt lat="45.89062" lon="6.19052">
        <ele>1190.7</ele>
        <time>2000-01-01T21:18:58.000Z</time>
      </trkpt>
      <trkpt lat="45.8906" lon="6.19049">
        <ele>1191.7</ele>
        <time>2000-01-01T21:19:08.000Z</time>
      </trkpt>
      <trkpt lat="45.89059" lon="6.19046">
        <ele>1192.6</ele>
        <time>2000-01-01T21:19:18.000Z</time>
      </trkpt>
      <trkpt lat="45.89057" lon="6.19044">
        <ele>1193</ele>
        <time>2000-01-01T21:19:28.000Z</time>
      </trkpt>
      <trkpt lat="45.89056" lon="6.19039">
        <ele>1194</ele>
        <time>2000-01-01T21:19:38.000Z</time>
      </trkpt>
      <trkpt lat="45.89055" lon="6.19036">
        <ele>1194.5</ele>
        <time>2000-01-01T21:19:48.000Z</time>
      </trkpt>
      <trkpt lat="45.89055" lon="6.19032">
        <ele>1195.5</ele>
        <time>2000-01-01T21:19:58.000Z</time>
      </trkpt>
      <trkpt lat="45.89058" lon="6.19025">
        <ele>1197.7</ele>
        <time>2000-01-01T21:20:08.000Z</time>
      </trkpt>
      <trkpt lat="45.89061" lon="6.19028">
        <ele>1198.5</ele>
        <time>2000-01-01T21:20:18.000Z</time>
      </trkpt>
      <trkpt lat="45.89064" lon="6.19028">
        <ele>1199.4</ele>
        <time>2000-01-01T21:20:28.000Z</time>
      </trkpt>
      <trkpt lat="45.89066" lon="6.19029">
        <ele>1200</ele>
        <time>2000-01-01T21:20:38.000Z</time>
      </trkpt>
      <trkpt lat="45.8907" lon="6.19026">
        <ele>1201.6</ele>
        <time>2000-01-01T21:20:48.000Z</time>
      </trkpt>
      <trkpt lat="45.89072" lon="6.19025">
        <ele>1202.5</ele>
        <time>2000-01-01T21:20:58.000Z</time>
      </trkpt>
      <trkpt lat="45.89073" lon="6.1902">
        <ele>1204.2</ele>
        <time>2000-01-01T21:21:08.000Z</time>
      </trkpt>
      <trkpt lat="45.89077" lon="6.19017">
        <ele>1207</ele>
        <time>2000-01-01T21:21:18.000Z</time>
      </trkpt>
      <trkpt lat="45.89077" lon="6.19014">
        <ele>1208</ele>
        <time>2000-01-01T21:21:28.000Z</time>
      </trkpt>
      <trkpt lat="45.8908" lon="6.1901">
        <ele>1208</ele>
        <time>2000-01-01T21:21:38.000Z</time>
      </trkpt>
      <trkpt lat="45.89085" lon="6.19008">
        <ele>1215.3</ele>
        <time>2000-01-01T21:21:48.000Z</time>
      </trkpt>
      <trkpt lat="45.8908" lon="6.19003">
        <ele>1214.1</ele>
        <time>2000-01-01T21:21:58.000Z</time>
      </trkpt>
      <trkpt lat="45.89079" lon="6.19">
        <ele>1214.6</ele>
        <time>2000-01-01T21:22:08.000Z</time>
      </trkpt>
      <trkpt lat="45.89079" lon="6.18998">
        <ele>1214.3</ele>
        <time>2000-01-01T21:22:18.000Z</time>
      </trkpt>
      <trkpt lat="45.89083" lon="6.18997">
        <ele>1216</ele>
        <time>2000-01-01T21:22:28.000Z</time>
      </trkpt>
      <trkpt lat="45.89084" lon="6.18995">
        <ele>1218.2</ele>
        <time>2000-01-01T21:22:38.000Z</time>
      </trkpt>
      <trkpt lat="45.89088" lon="6.1899">
        <ele>1221.2</ele>
        <time>2000-01-01T21:22:48.000Z</time>
      </trkpt>
      <trkpt lat="45.89091" lon="6.18979">
        <ele>1223.2</ele>
        <time>2000-01-01T21:22:58.000Z</time>
      </trkpt>
      <trkpt lat="45.89092" lon="6.18976">
        <ele>1223.9</ele>
        <time>2000-01-01T21:23:08.000Z</time>
      </trkpt>
      <trkpt lat="45.89094" lon="6.18976">
        <ele>1222</ele>
        <time>2000-01-01T21:23:18.000Z</time>
      </trkpt>
      <trkpt lat="45.89096" lon="6.1897">
        <ele>1226.9</ele>
        <time>2000-01-01T21:23:28.000Z</time>
      </trkpt>
      <trkpt lat="45.89096" lon="6.18962">
        <ele>1225.2</ele>
        <time>2000-01-01T21:23:38.000Z</time>
      </trkpt>
      <trkpt lat="45.89098" lon="6.18962">
        <ele>1227</ele>
        <time>2000-01-01T21:23:48.000Z</time>
      </trkpt>
      <trkpt lat="45.89099" lon="6.18964">
        <ele>1228.4</ele>
        <time>2000-01-01T21:23:58.000Z</time>
      </trkpt>
      <trkpt lat="45.89102" lon="6.1896">
        <ele>1230.3</ele>
        <time>2000-01-01T21:24:08.000Z</time>
      </trkpt>
      <trkpt lat="45.89103" lon="6.18957">
        <ele>1230</ele>
        <time>2000-01-01T21:24:18.000Z</time>
      </trkpt>
      <trkpt lat="45.89106" lon="6.18957">
        <ele>1233.5</ele>
        <time>2000-01-01T21:24:28.000Z</time>
      </trkpt>
      <trkpt lat="45.89117" lon="6.1895">
        <ele>1239.2</ele>
        <time>2000-01-01T21:24:38.000Z</time>
      </trkpt>
      <trkpt lat="45.89126" lon="6.18948">
        <ele>1238</ele>
        <time>2000-01-01T21:24:48.000Z</time>
      </trkpt>
      <trkpt lat="45.89128" lon="6.18947">
        <ele>1242.9</ele>
        <time>2000-01-01T21:24:58.000Z</time>
      </trkpt>
      <trkpt lat="45.8913" lon="6.18947">
        <ele>1243.7</ele>
        <time>2000-01-01T21:25:08.000Z</time>
      </trkpt>
      <trkpt lat="45.89131" lon="6.18948">
        <ele>1244.1</ele>
        <time>2000-01-01T21:25:18.000Z</time>
      </trkpt>
      <trkpt lat="45.89133" lon="6.1895">
        <ele>1245</ele>
        <time>2000-01-01T21:25:28.000Z</time>
      </trkpt>
      <trkpt lat="45.89133" lon="6.18956">
        <ele>1245.4</ele>
        <time>2000-01-01T21:25:38.000Z</time>
      </trkpt>
      <trkpt lat="45.89135" lon="6.18958">
        <ele>1246.2</ele>
        <time>2000-01-01T21:25:48.000Z</time>
      </trkpt>
      <trkpt lat="45.89137" lon="6.18956">
        <ele>1246.8</ele>
        <time>2000-01-01T21:25:58.000Z</time>
      </trkpt>
      <trkpt lat="45.89141" lon="6.18954">
        <ele>1249</ele>
        <time>2000-01-01T21:26:08.000Z</time>
      </trkpt>
      <trkpt lat="45.89145" lon="6.18951">
        <ele>1248.8</ele>
        <time>2000-01-01T21:26:18.000Z</time>
      </trkpt>
      <trkpt lat="45.89148" lon="6.18947">
        <ele>1250</ele>
        <time>2000-01-01T21:26:28.000Z</time>
      </trkpt>
      <trkpt lat="45.89161" lon="6.18939">
        <ele>1251</ele>
        <time>2000-01-01T21:26:38.000Z</time>
      </trkpt>
      <trkpt lat="45.89163" lon="6.18939">
        <ele>1253.5</ele>
        <time>2000-01-01T21:26:48.000Z</time>
      </trkpt>
      <trkpt lat="45.89169" lon="6.18936">
        <ele>1253.5</ele>
        <time>2000-01-01T21:26:58.000Z</time>
      </trkpt>
      <trkpt lat="45.89173" lon="6.18936">
        <ele>1253.3</ele>
        <time>2000-01-01T21:27:08.000Z</time>
      </trkpt>
      <trkpt lat="45.89174" lon="6.18937">
        <ele>1253.5</ele>
        <time>2000-01-01T21:27:18.000Z</time>
      </trkpt>
      <trkpt lat="45.89177" lon="6.18936">
        <ele>1253</ele>
        <time>2000-01-01T21:27:28.000Z</time>
      </trkpt>
      <trkpt lat="45.89186" lon="6.18929">
        <ele>1252</ele>
        <time>2000-01-01T21:27:38.000Z</time>
      </trkpt>
      <trkpt lat="45.89199" lon="6.18924">
        <ele>1252.8</ele>
        <time>2000-01-01T21:27:48.000Z</time>
      </trkpt>
      <trkpt lat="45.89205" lon="6.18922">
        <ele>1253</ele>
        <time>2000-01-01T21:27:58.000Z</time>
      </trkpt>
      <trkpt lat="45.89211" lon="6.18917">
        <ele>1253.3</ele>
        <time>2000-01-01T21:28:08.000Z</time>
      </trkpt>
      <trkpt lat="45.89227" lon="6.18913">
        <ele>1253</ele>
        <time>2000-01-01T21:28:18.000Z</time>
      </trkpt>
      <trkpt lat="45.89233" lon="6.18903">
        <ele>1247.7</ele>
        <time>2000-01-01T21:28:28.000Z</time>
      </trkpt>
      <trkpt lat="45.89238" lon="6.18898">
        <ele>1246.7</ele>
        <time>2000-01-01T21:28:38.000Z</time>
      </trkpt>
      <trkpt lat="45.89249" lon="6.18897">
        <ele>1248</ele>
        <time>2000-01-01T21:28:48.000Z</time>
      </trkpt>
      <trkpt lat="45.89267" lon="6.18898">
        <ele>1243.3</ele>
        <time>2000-01-01T21:28:58.000Z</time>
      </trkpt>
      <trkpt lat="45.89276" lon="6.18894">
        <ele>1242</ele>
        <time>2000-01-01T21:29:08.000Z</time>
      </trkpt>
      <trkpt lat="45.89286" lon="6.18889">
        <ele>1240.7</ele>
        <time>2000-01-01T21:29:18.000Z</time>
      </trkpt>
      <trkpt lat="45.89313" lon="6.18869">
        <ele>1240</ele>
        <time>2000-01-01T21:29:28.000Z</time>
      </trkpt>
      <trkpt lat="45.89323" lon="6.18864">
        <ele>1238.7</ele>
        <time>2000-01-01T21:29:38.000Z</time>
      </trkpt>
      <trkpt lat="45.89331" lon="6.18859">
        <ele>1238</ele>
        <time>2000-01-01T21:29:48.000Z</time>
      </trkpt>
      <trkpt lat="45.89342" lon="6.18855">
        <ele>1238.2</ele>
        <time>2000-01-01T21:29:58.000Z</time>
      </trkpt>
      <trkpt lat="45.89357" lon="6.18854">
        <ele>1240</ele>
        <time>2000-01-01T21:30:08.000Z</time>
      </trkpt>
      <trkpt lat="45.89372" lon="6.18846">
        <ele>1239.1</ele>
        <time>2000-01-01T21:30:18.000Z</time>
      </trkpt>
      <trkpt lat="45.89376" lon="6.18842">
        <ele>1242</ele>
        <time>2000-01-01T21:30:28.000Z</time>
      </trkpt>
      <trkpt lat="45.89379" lon="6.18841">
        <ele>1241.2</ele>
        <time>2000-01-01T21:30:38.000Z</time>
      </trkpt>
      <trkpt lat="45.89382" lon="6.1884">
        <ele>1242.4</ele>
        <time>2000-01-01T21:30:48.000Z</time>
      </trkpt>
      <trkpt lat="45.89385" lon="6.18839">
        <ele>1243.7</ele>
        <time>2000-01-01T21:30:58.000Z</time>
      </trkpt>
      <trkpt lat="45.89386" lon="6.18837">
        <ele>1244.6</ele>
        <time>2000-01-01T21:31:08.000Z</time>
      </trkpt>
      <trkpt lat="45.89389" lon="6.18837">
        <ele>1245.8</ele>
        <time>2000-01-01T21:31:18.000Z</time>
      </trkpt>
      <trkpt lat="45.89401" lon="6.18832">
        <ele>1248</ele>
        <time>2000-01-01T21:31:28.000Z</time>
      </trkpt>
      <trkpt lat="45.89403" lon="6.18831">
        <ele>1245.7</ele>
        <time>2000-01-01T21:31:38.000Z</time>
      </trkpt>
      <trkpt lat="45.89407" lon="6.18827">
        <ele>1244.8</ele>
        <time>2000-01-01T21:31:48.000Z</time>
      </trkpt>
      <trkpt lat="45.89409" lon="6.18825">
        <ele>1244.6</ele>
        <time>2000-01-01T21:31:58.000Z</time>
      </trkpt>
      <trkpt lat="45.89428" lon="6.18817">
        <ele>1249</ele>
        <time>2000-01-01T21:32:08.000Z</time>
      </trkpt>
      <trkpt lat="45.89433" lon="6.18813">
        <ele>1246.7</ele>
        <time>2000-01-01T21:32:18.000Z</time>
      </trkpt>
      <trkpt lat="45.89437" lon="6.18812">
        <ele>1247.4</ele>
        <time>2000-01-01T21:32:28.000Z</time>
      </trkpt>
      <trkpt lat="45.89447" lon="6.18806">
        <ele>1247</ele>
        <time>2000-01-01T21:32:38.000Z</time>
      </trkpt>
      <trkpt lat="45.89456" lon="6.188">
        <ele>1246.3</ele>
        <time>2000-01-01T21:32:48.000Z</time>
      </trkpt>
      <trkpt lat="45.89458" lon="6.18801">
        <ele>1246.6</ele>
        <time>2000-01-01T21:32:58.000Z</time>
      </trkpt>
      <trkpt lat="45.89468" lon="6.188">
        <ele>1248</ele>
        <time>2000-01-01T21:33:08.000Z</time>
      </trkpt>
      <trkpt lat="45.89479" lon="6.18793">
        <ele>1247.5</ele>
        <time>2000-01-01T21:33:18.000Z</time>
      </trkpt>
      <trkpt lat="45.89485" lon="6.18792">
        <ele>1249.1</ele>
        <time>2000-01-01T21:33:28.000Z</time>
      </trkpt>
      <trkpt lat="45.89488" lon="6.18791">
        <ele>1249</ele>
        <time>2000-01-01T21:33:38.000Z</time>
      </trkpt>
      <trkpt lat="45.8949" lon="6.18788">
        <ele>1251.8</ele>
        <time>2000-01-01T21:33:48.000Z</time>
      </trkpt>
      <trkpt lat="45.89496" lon="6.18783">
        <ele>1255.8</ele>
        <time>2000-01-01T21:33:58.000Z</time>
      </trkpt>
      <trkpt lat="45.89495" lon="6.1878">
        <ele>1256.7</ele>
        <time>2000-01-01T21:34:08.000Z</time>
      </trkpt>
      <trkpt lat="45.89494" lon="6.18779">
        <ele>1256.7</ele>
        <time>2000-01-01T21:34:18.000Z</time>
      </trkpt>
      <trkpt lat="45.89492" lon="6.18779">
        <ele>1255.8</ele>
        <time>2000-01-01T21:34:28.000Z</time>
      </trkpt>
      <trkpt lat="45.89492" lon="6.18773">
        <ele>1262</ele>
        <time>2000-01-01T21:34:38.000Z</time>
      </trkpt>
      <trkpt lat="45.89494" lon="6.18767">
        <ele>1256.3</ele>
        <time>2000-01-01T21:34:48.000Z</time>
      </trkpt>
      <trkpt lat="45.89499" lon="6.18768">
        <ele>1259.4</ele>
        <time>2000-01-01T21:34:58.000Z</time>
      </trkpt>
      <trkpt lat="45.89503" lon="6.18766">
        <ele>1260</ele>
        <time>2000-01-01T21:35:08.000Z</time>
      </trkpt>
      <trkpt lat="45.89505" lon="6.18765">
        <ele>1260.1</ele>
        <time>2000-01-01T21:35:18.000Z</time>
      </trkpt>
      <trkpt lat="45.89507" lon="6.18763">
        <ele>1260.2</ele>
        <time>2000-01-01T21:35:28.000Z</time>
      </trkpt>
      <trkpt lat="45.8951" lon="6.1876">
        <ele>1262</ele>
        <time>2000-01-01T21:35:38.000Z</time>
      </trkpt>
      <trkpt lat="45.89512" lon="6.18759">
        <ele>1260.6</ele>
        <time>2000-01-01T21:35:48.000Z</time>
      </trkpt>
      <trkpt lat="45.8952" lon="6.18759">
        <ele>1261</ele>
        <time>2000-01-01T21:35:58.000Z</time>
      </trkpt>
      <trkpt lat="45.89532" lon="6.18762">
        <ele>1263</ele>
        <time>2000-01-01T21:36:08.000Z</time>
      </trkpt>
      <trkpt lat="45.89541" lon="6.18759">
        <ele>1262.8</ele>
        <time>2000-01-01T21:36:18.000Z</time>
      </trkpt>
      <trkpt lat="45.89547" lon="6.18756">
        <ele>1264.7</ele>
        <time>2000-01-01T21:36:28.000Z</time>
      </trkpt>
      <trkpt lat="45.89549" lon="6.18756">
        <ele>1265</ele>
        <time>2000-01-01T21:36:38.000Z</time>
      </trkpt>
      <trkpt lat="45.89557" lon="6.18749">
        <ele>1265</ele>
        <time>2000-01-01T21:36:48.000Z</time>
      </trkpt>
      <trkpt lat="45.8956" lon="6.18751">
        <ele>1268.3</ele>
        <time>2000-01-01T21:36:58.000Z</time>
      </trkpt>
      <trkpt lat="45.89569" lon="6.1874">
        <ele>1268.5</ele>
        <time>2000-01-01T21:37:08.000Z</time>
      </trkpt>
      <trkpt lat="45.89573" lon="6.18734">
        <ele>1268</ele>
        <time>2000-01-01T21:37:18.000Z</time>
      </trkpt>
      <trkpt lat="45.89577" lon="6.18728">
        <ele>1269.5</ele>
        <time>2000-01-01T21:37:28.000Z</time>
      </trkpt>
      <trkpt lat="45.89582" lon="6.18728">
        <ele>1270.2</ele>
        <time>2000-01-01T21:37:38.000Z</time>
      </trkpt>
      <trkpt lat="45.89587" lon="6.18726">
        <ele>1271.9</ele>
        <time>2000-01-01T21:37:48.000Z</time>
      </trkpt>
      <trkpt lat="45.89592" lon="6.18726">
        <ele>1271</ele>
        <time>2000-01-01T21:37:58.000Z</time>
      </trkpt>
      <trkpt lat="45.89595" lon="6.1873">
        <ele>1273.6</ele>
        <time>2000-01-01T21:38:08.000Z</time>
      </trkpt>
      <trkpt lat="45.89599" lon="6.18731">
        <ele>1274.5</ele>
        <time>2000-01-01T21:38:18.000Z</time>
      </trkpt>
      <trkpt lat="45.89603" lon="6.18729">
        <ele>1276.3</ele>
        <time>2000-01-01T21:38:28.000Z</time>
      </trkpt>
      <trkpt lat="45.89606" lon="6.18725">
        <ele>1278.9</ele>
        <time>2000-01-01T21:38:38.000Z</time>
      </trkpt>
      <trkpt lat="45.89608" lon="6.18723">
        <ele>1277</ele>
        <time>2000-01-01T21:38:48.000Z</time>
      </trkpt>
      <trkpt lat="45.8961" lon="6.18722">
        <ele>1281.5</ele>
        <time>2000-01-01T21:38:58.000Z</time>
      </trkpt>
      <trkpt lat="45.89611" lon="6.18719">
        <ele>1281.3</ele>
        <time>2000-01-01T21:39:08.000Z</time>
      </trkpt>
      <trkpt lat="45.89614" lon="6.18716">
        <ele>1280.9</ele>
        <time>2000-01-01T21:39:18.000Z</time>
      </trkpt>
      <trkpt lat="45.89616" lon="6.18713">
        <ele>1280.8</ele>
        <time>2000-01-01T21:39:28.000Z</time>
      </trkpt>
      <trkpt lat="45.89624" lon="6.18707">
        <ele>1284</ele>
        <time>2000-01-01T21:39:38.000Z</time>
      </trkpt>
      <trkpt lat="45.89626" lon="6.18703">
        <ele>1283.2</ele>
        <time>2000-01-01T21:39:48.000Z</time>
      </trkpt>
      <trkpt lat="45.89631" lon="6.18697">
        <ele>1286.2</ele>
        <time>2000-01-01T21:39:58.000Z</time>
      </trkpt>
      <trkpt lat="45.89638" lon="6.18695">
        <ele>1290.3</ele>
        <time>2000-01-01T21:40:08.000Z</time>
      </trkpt>
      <trkpt lat="45.89652" lon="6.18693">
        <ele>1292</ele>
        <time>2000-01-01T21:40:18.000Z</time>
      </trkpt>
      <trkpt lat="45.89653" lon="6.18691">
        <ele>1291.3</ele>
        <time>2000-01-01T21:40:28.000Z</time>
      </trkpt>
      <trkpt lat="45.89656" lon="6.18688">
        <ele>1291.4</ele>
        <time>2000-01-01T21:40:38.000Z</time>
      </trkpt>
      <trkpt lat="45.89661" lon="6.18686">
        <ele>1292.6</ele>
        <time>2000-01-01T21:40:48.000Z</time>
      </trkpt>
      <trkpt lat="45.89666" lon="6.18683">
        <ele>1294.4</ele>
        <time>2000-01-01T21:40:58.000Z</time>
      </trkpt>
      <trkpt lat="45.8967" lon="6.18679">
        <ele>1291</ele>
        <time>2000-01-01T21:41:08.000Z</time>
      </trkpt>
      <trkpt lat="45.89671" lon="6.18675">
        <ele>1295.1</ele>
        <time>2000-01-01T21:41:18.000Z</time>
      </trkpt>
      <trkpt lat="45.89671" lon="6.18671">
        <ele>1295.8</ele>
        <time>2000-01-01T21:41:28.000Z</time>
      </trkpt>
      <trkpt lat="45.89674" lon="6.18662">
        <ele>1295</ele>
        <time>2000-01-01T21:41:38.000Z</time>
      </trkpt>
      <trkpt lat="45.89675" lon="6.18656">
        <ele>1293.5</ele>
        <time>2000-01-01T21:41:48.000Z</time>
      </trkpt>
      <trkpt lat="45.89676" lon="6.18653">
        <ele>1290</ele>
        <time>2000-01-01T21:41:58.000Z</time>
      </trkpt>
      <trkpt lat="45.89678" lon="6.1865">
        <ele>1292.5</ele>
        <time>2000-01-01T21:42:08.000Z</time>
      </trkpt>
      <trkpt lat="45.89683" lon="6.18648">
        <ele>1292.9</ele>
        <time>2000-01-01T21:42:18.000Z</time>
      </trkpt>
      <trkpt lat="45.89684" lon="6.18645">
        <ele>1292.7</ele>
        <time>2000-01-01T21:42:28.000Z</time>
      </trkpt>
      <trkpt lat="45.89683" lon="6.18642">
        <ele>1292.1</ele>
        <time>2000-01-01T21:42:38.000Z</time>
      </trkpt>
      <trkpt lat="45.89684" lon="6.18638">
        <ele>1291.9</ele>
        <time>2000-01-01T21:42:48.000Z</time>
      </trkpt>
      <trkpt lat="45.89683" lon="6.18635">
        <ele>1291.1</ele>
        <time>2000-01-01T21:42:58.000Z</time>
      </trkpt>
      <trkpt lat="45.89677" lon="6.18638">
        <ele>1287</ele>
        <time>2000-01-01T21:43:08.000Z</time>
      </trkpt>
      <trkpt lat="45.89675" lon="6.18637">
        <ele>1289.1</ele>
        <time>2000-01-01T21:43:18.000Z</time>
      </trkpt>
      <trkpt lat="45.89674" lon="6.18622">
        <ele>1286.7</ele>
        <time>2000-01-01T21:43:28.000Z</time>
      </trkpt>
      <trkpt lat="45.89676" lon="6.18613">
        <ele>1286</ele>
        <time>2000-01-01T21:43:38.000Z</time>
      </trkpt>
      <trkpt lat="45.89682" lon="6.186">
        <ele>1275.4</ele>
        <time>2000-01-01T21:43:48.000Z</time>
      </trkpt>
      <trkpt lat="45.89693" lon="6.18596">
        <ele>1286</ele>
        <time>2000-01-01T21:43:58.000Z</time>
      </trkpt>
      <trkpt lat="45.89702" lon="6.18601">
        <ele>1288.5</ele>
        <time>2000-01-01T21:44:08.000Z</time>
      </trkpt>
      <trkpt lat="45.89708" lon="6.1861">
        <ele>1288.9</ele>
        <time>2000-01-01T21:44:18.000Z</time>
      </trkpt>
      <trkpt lat="45.89711" lon="6.18612">
        <ele>1287</ele>
        <time>2000-01-01T21:44:28.000Z</time>
      </trkpt>
      <trkpt lat="45.89716" lon="6.18613">
        <ele>1288.1</ele>
        <time>2000-01-01T21:44:38.000Z</time>
      </trkpt>
      <trkpt lat="45.8972" lon="6.18612">
        <ele>1287.4</ele>
        <time>2000-01-01T21:44:48.000Z</time>
      </trkpt>
      <trkpt lat="45.8974" lon="6.18605">
        <ele>1288</ele>
        <time>2000-01-01T21:44:58.000Z</time>
      </trkpt>
      <trkpt lat="45.8975" lon="6.18603">
        <ele>1287</ele>
        <time>2000-01-01T21:45:08.000Z</time>
      </trkpt>
      <trkpt lat="45.89762" lon="6.186">
        <ele>1288</ele>
        <time>2000-01-01T21:45:18.000Z</time>
      </trkpt>
      <trkpt lat="45.89773" lon="6.18593">
        <ele>1285.4</ele>
        <time>2000-01-01T21:45:28.000Z</time>
      </trkpt>
      <trkpt lat="45.89782" lon="6.18592">
        <ele>1284</ele>
        <time>2000-01-01T21:45:38.000Z</time>
      </trkpt>
      <trkpt lat="45.89793" lon="6.1859">
        <ele>1282.5</ele>
        <time>2000-01-01T21:45:48.000Z</time>
      </trkpt>
      <trkpt lat="45.89812" lon="6.18592">
        <ele>1281</ele>
        <time>2000-01-01T21:45:58.000Z</time>
      </trkpt>
      <trkpt lat="45.89823" lon="6.18591">
        <ele>1278.5</ele>
        <time>2000-01-01T21:46:08.000Z</time>
      </trkpt>
      <trkpt lat="45.89827" lon="6.1859">
        <ele>1277.8</ele>
        <time>2000-01-01T21:46:18.000Z</time>
      </trkpt>
      <trkpt lat="45.89859" lon="6.18587">
        <ele>1272</ele>
        <time>2000-01-01T21:46:28.000Z</time>
      </trkpt>
      <trkpt lat="45.89868" lon="6.1859">
        <ele>1271.9</ele>
        <time>2000-01-01T21:46:38.000Z</time>
      </trkpt>
      <trkpt lat="45.89877" lon="6.18596">
        <ele>1271</ele>
        <time>2000-01-01T21:46:48.000Z</time>
      </trkpt>
      <trkpt lat="45.89884" lon="6.18586">
        <ele>1268.2</ele>
        <time>2000-01-01T21:46:58.000Z</time>
      </trkpt>
      <trkpt lat="45.89902" lon="6.18574">
        <ele>1264</ele>
        <time>2000-01-01T21:47:08.000Z</time>
      </trkpt>
      <trkpt lat="45.8992" lon="6.18565">
        <ele>1259.7</ele>
        <time>2000-01-01T21:47:18.000Z</time>
      </trkpt>
      <trkpt lat="45.89941" lon="6.18563">
        <ele>1258</ele>
        <time>2000-01-01T21:47:28.000Z</time>
      </trkpt>
      <trkpt lat="45.89952" lon="6.1856">
        <ele>1254.9</ele>
        <time>2000-01-01T21:47:38.000Z</time>
      </trkpt>
      <trkpt lat="45.89963" lon="6.18555">
        <ele>1250</ele>
        <time>2000-01-01T21:47:48.000Z</time>
      </trkpt>
      <trkpt lat="45.89973" lon="6.18555">
        <ele>1248.7</ele>
        <time>2000-01-01T21:47:58.000Z</time>
      </trkpt>
      <trkpt lat="45.89993" lon="6.18561">
        <ele>1241</ele>
        <time>2000-01-01T21:48:08.000Z</time>
      </trkpt>
      <trkpt lat="45.90002" lon="6.18566">
        <ele>1237.8</ele>
        <time>2000-01-01T21:48:18.000Z</time>
      </trkpt>
      <trkpt lat="45.90011" lon="6.18576">
        <ele>1232</ele>
        <time>2000-01-01T21:48:28.000Z</time>
      </trkpt>
      <trkpt lat="45.9002" lon="6.18573">
        <ele>1228.6</ele>
        <time>2000-01-01T21:48:38.000Z</time>
      </trkpt>
      <trkpt lat="45.90024" lon="6.18586">
        <ele>1226</ele>
        <time>2000-01-01T21:48:48.000Z</time>
      </trkpt>
      <trkpt lat="45.90038" lon="6.18603">
        <ele>1217.8</ele>
        <time>2000-01-01T21:48:58.000Z</time>
      </trkpt>
      <trkpt lat="45.90048" lon="6.18602">
        <ele>1213</ele>
        <time>2000-01-01T21:49:08.000Z</time>
      </trkpt>
      <trkpt lat="45.90057" lon="6.18594">
        <ele>1209.1</ele>
        <time>2000-01-01T21:49:18.000Z</time>
      </trkpt>
      <trkpt lat="45.90066" lon="6.18601">
        <ele>1205</ele>
        <time>2000-01-01T21:49:28.000Z</time>
      </trkpt>
      <trkpt lat="45.9007" lon="6.18613">
        <ele>1200.1</ele>
        <time>2000-01-01T21:49:38.000Z</time>
      </trkpt>
      <trkpt lat="45.9008" lon="6.18617">
        <ele>1200</ele>
        <time>2000-01-01T21:49:48.000Z</time>
      </trkpt>
      <trkpt lat="45.9009" lon="6.18618">
        <ele>1192.2</ele>
        <time>2000-01-01T21:49:58.000Z</time>
      </trkpt>
      <trkpt lat="45.90098" lon="6.1861">
        <ele>1192</ele>
        <time>2000-01-01T21:50:08.000Z</time>
      </trkpt>
      <trkpt lat="45.90106" lon="6.18604">
        <ele>1186.8</ele>
        <time>2000-01-01T21:50:18.000Z</time>
      </trkpt>
      <trkpt lat="45.90126" lon="6.18613">
        <ele>1179</ele>
        <time>2000-01-01T21:50:28.000Z</time>
      </trkpt>
      <trkpt lat="45.90134" lon="6.18603">
        <ele>1176.4</ele>
        <time>2000-01-01T21:50:38.000Z</time>
      </trkpt>
      <trkpt lat="45.90138" lon="6.1859">
        <ele>1179</ele>
        <time>2000-01-01T21:50:48.000Z</time>
      </trkpt>
      <trkpt lat="45.90149" lon="6.18563">
        <ele>1178</ele>
        <time>2000-01-01T21:50:58.000Z</time>
      </trkpt>
      <trkpt lat="45.90156" lon="6.18555">
        <ele>1175.8</ele>
        <time>2000-01-01T21:51:08.000Z</time>
      </trkpt>
      <trkpt lat="45.90167" lon="6.18551">
        <ele>1177</ele>
        <time>2000-01-01T21:51:18.000Z</time>
      </trkpt>
      <trkpt lat="45.90186" lon="6.18535">
        <ele>1176</ele>
        <time>2000-01-01T21:51:28.000Z</time>
      </trkpt>
      <trkpt lat="45.90197" lon="6.18529">
        <ele>1172.6</ele>
        <time>2000-01-01T21:51:38.000Z</time>
      </trkpt>
      <trkpt lat="45.90208" lon="6.1853">
        <ele>1170</ele>
        <time>2000-01-01T21:51:48.000Z</time>
      </trkpt>
      <trkpt lat="45.90219" lon="6.18529">
        <ele>1167</ele>
        <time>2000-01-01T21:51:58.000Z</time>
      </trkpt>
      <trkpt lat="45.90238" lon="6.18526">
        <ele>1166</ele>
        <time>2000-01-01T21:52:08.000Z</time>
      </trkpt>
      <trkpt lat="45.90257" lon="6.18513">
        <ele>1164</ele>
        <time>2000-01-01T21:52:18.000Z</time>
      </trkpt>
      <trkpt lat="45.90264" lon="6.18505">
        <ele>1163.3</ele>
        <time>2000-01-01T21:52:28.000Z</time>
      </trkpt>
      <trkpt lat="45.90273" lon="6.185">
        <ele>1162</ele>
        <time>2000-01-01T21:52:38.000Z</time>
      </trkpt>
      <trkpt lat="45.90283" lon="6.18499">
        <ele>1159.4</ele>
        <time>2000-01-01T21:52:48.000Z</time>
      </trkpt>
      <trkpt lat="45.90292" lon="6.18499">
        <ele>1156</ele>
        <time>2000-01-01T21:52:58.000Z</time>
      </trkpt>
      <trkpt lat="45.90302" lon="6.18496">
        <ele>1153.5</ele>
        <time>2000-01-01T21:53:08.000Z</time>
      </trkpt>
      <trkpt lat="45.90311" lon="6.18491">
        <ele>1152</ele>
        <time>2000-01-01T21:53:18.000Z</time>
      </trkpt>
      <trkpt lat="45.90322" lon="6.18488">
        <ele>1150.7</ele>
        <time>2000-01-01T21:53:28.000Z</time>
      </trkpt>
      <trkpt lat="45.90332" lon="6.18491">
        <ele>1148</ele>
        <time>2000-01-01T21:53:38.000Z</time>
      </trkpt>
      <trkpt lat="45.90343" lon="6.18497">
        <ele>1142</ele>
        <time>2000-01-01T21:53:48.000Z</time>
      </trkpt>
      <trkpt lat="45.90352" lon="6.185">
        <ele>1138</ele>
        <time>2000-01-01T21:53:58.000Z</time>
      </trkpt>
      <trkpt lat="45.90361" lon="6.18497">
        <ele>1136.3</ele>
        <time>2000-01-01T21:54:08.000Z</time>
      </trkpt>
      <trkpt lat="45.9037" lon="6.185">
        <ele>1135</ele>
        <time>2000-01-01T21:54:18.000Z</time>
      </trkpt>
      <trkpt lat="45.9038" lon="6.18496">
        <ele>1133</ele>
        <time>2000-01-01T21:54:28.000Z</time>
      </trkpt>
      <trkpt lat="45.9039" lon="6.18495">
        <ele>1135.2</ele>
        <time>2000-01-01T21:54:38.000Z</time>
      </trkpt>
      <trkpt lat="45.90399" lon="6.18494">
        <ele>1131</ele>
        <time>2000-01-01T21:54:48.000Z</time>
      </trkpt>
      <trkpt lat="45.9041" lon="6.18494">
        <ele>1130</ele>
        <time>2000-01-01T21:54:58.000Z</time>
      </trkpt>
      <trkpt lat="45.90419" lon="6.18495">
        <ele>1127</ele>
        <time>2000-01-01T21:55:08.000Z</time>
      </trkpt>
      <trkpt lat="45.90431" lon="6.18492">
        <ele>1123.5</ele>
        <time>2000-01-01T21:55:18.000Z</time>
      </trkpt>
      <trkpt lat="45.9044" lon="6.18485">
        <ele>1122</ele>
        <time>2000-01-01T21:55:28.000Z</time>
      </trkpt>
      <trkpt lat="45.9046" lon="6.18476">
        <ele>1118</ele>
        <time>2000-01-01T21:55:38.000Z</time>
      </trkpt>
      <trkpt lat="45.9047" lon="6.1847">
        <ele>1113</ele>
        <time>2000-01-01T21:55:48.000Z</time>
      </trkpt>
      <trkpt lat="45.90489" lon="6.18455">
        <ele>1111</ele>
        <time>2000-01-01T21:55:58.000Z</time>
      </trkpt>
      <trkpt lat="45.90498" lon="6.18451">
        <ele>1107.1</ele>
        <time>2000-01-01T21:56:08.000Z</time>
      </trkpt>
      <trkpt lat="45.90507" lon="6.18445">
        <ele>1105</ele>
        <time>2000-01-01T21:56:18.000Z</time>
      </trkpt>
      <trkpt lat="45.90515" lon="6.18438">
        <ele>1103.9</ele>
        <time>2000-01-01T21:56:28.000Z</time>
      </trkpt>
      <trkpt lat="45.90523" lon="6.18432">
        <ele>1102.3</ele>
        <time>2000-01-01T21:56:38.000Z</time>
      </trkpt>
      <trkpt lat="45.90531" lon="6.18423">
        <ele>1103</ele>
        <time>2000-01-01T21:56:48.000Z</time>
      </trkpt>
      <trkpt lat="45.90539" lon="6.18411">
        <ele>1101</ele>
        <time>2000-01-01T21:56:58.000Z</time>
      </trkpt>
      <trkpt lat="45.90547" lon="6.18399">
        <ele>1101</ele>
        <time>2000-01-01T21:57:08.000Z</time>
      </trkpt>
      <trkpt lat="45.90554" lon="6.18389">
        <ele>1096.6</ele>
        <time>2000-01-01T21:57:18.000Z</time>
      </trkpt>
      <trkpt lat="45.90563" lon="6.18386">
        <ele>1096</ele>
        <time>2000-01-01T21:57:28.000Z</time>
      </trkpt>
      <trkpt lat="45.90573" lon="6.18384">
        <ele>1091.5</ele>
        <time>2000-01-01T21:57:38.000Z</time>
      </trkpt>
      <trkpt lat="45.90581" lon="6.18375">
        <ele>1089</ele>
        <time>2000-01-01T21:57:48.000Z</time>
      </trkpt>
      <trkpt lat="45.90588" lon="6.18365">
        <ele>1086.8</ele>
        <time>2000-01-01T21:57:58.000Z</time>
      </trkpt>
      <trkpt lat="45.90595" lon="6.18357">
        <ele>1089</ele>
        <time>2000-01-01T21:58:08.000Z</time>
      </trkpt>
      <trkpt lat="45.906" lon="6.18346">
        <ele>1083.9</ele>
        <time>2000-01-01T21:58:18.000Z</time>
      </trkpt>
      <trkpt lat="45.90605" lon="6.18334">
        <ele>1085</ele>
        <time>2000-01-01T21:58:28.000Z</time>
      </trkpt>
      <trkpt lat="45.90611" lon="6.18323">
        <ele>1082.2</ele>
        <time>2000-01-01T21:58:38.000Z</time>
      </trkpt>
      <trkpt lat="45.90616" lon="6.1831">
        <ele>1084</ele>
        <time>2000-01-01T21:58:48.000Z</time>
      </trkpt>
      <trkpt lat="45.90621" lon="6.18298">
        <ele>1079.6</ele>
        <time>2000-01-01T21:58:58.000Z</time>
      </trkpt>
      <trkpt lat="45.90623" lon="6.18285">
        <ele>1084</ele>
        <time>2000-01-01T21:59:08.000Z</time>
      </trkpt>
      <trkpt lat="45.90627" lon="6.18258">
        <ele>1084</ele>
        <time>2000-01-01T21:59:18.000Z</time>
      </trkpt>
      <trkpt lat="45.90632" lon="6.18244">
        <ele>1077.4</ele>
        <time>2000-01-01T21:59:28.000Z</time>
      </trkpt>
      <trkpt lat="45.90633" lon="6.1823">
        <ele>1082</ele>
        <time>2000-01-01T21:59:38.000Z</time>
      </trkpt>
      <trkpt lat="45.90636" lon="6.18218">
        <ele>1077.8</ele>
        <time>2000-01-01T21:59:48.000Z</time>
      </trkpt>
      <trkpt lat="45.90638" lon="6.18204">
        <ele>1080</ele>
        <time>2000-01-01T21:59:58.000Z</time>
      </trkpt>
      <trkpt lat="45.90643" lon="6.18191">
        <ele>1076.7</ele>
        <time>2000-01-01T22:00:08.000Z</time>
      </trkpt>
      <trkpt lat="45.90645" lon="6.18177">
        <ele>1080</ele>
        <time>2000-01-01T22:00:18.000Z</time>
      </trkpt>
      <trkpt lat="45.9065" lon="6.18166">
        <ele>1078.7</ele>
        <time>2000-01-01T22:00:28.000Z</time>
      </trkpt>
      <trkpt lat="45.90651" lon="6.18151">
        <ele>1080</ele>
        <time>2000-01-01T22:00:38.000Z</time>
      </trkpt>
      <trkpt lat="45.90654" lon="6.18137">
        <ele>1079.3</ele>
        <time>2000-01-01T22:00:48.000Z</time>
      </trkpt>
      <trkpt lat="45.90657" lon="6.18121">
        <ele>1080</ele>
        <time>2000-01-01T22:00:58.000Z</time>
      </trkpt>
      <trkpt lat="45.9066" lon="6.18109">
        <ele>1074.9</ele>
        <time>2000-01-01T22:01:08.000Z</time>
      </trkpt>
      <trkpt lat="45.90659" lon="6.18096">
        <ele>1075.6</ele>
        <time>2000-01-01T22:01:18.000Z</time>
      </trkpt>
      <trkpt lat="45.90664" lon="6.18082">
        <ele>1073</ele>
        <time>2000-01-01T22:01:28.000Z</time>
      </trkpt>
      <trkpt lat="45.90669" lon="6.1807">
        <ele>1070.8</ele>
        <time>2000-01-01T22:01:38.000Z</time>
      </trkpt>
      <trkpt lat="45.90674" lon="6.18054">
        <ele>1072</ele>
        <time>2000-01-01T22:01:48.000Z</time>
      </trkpt>
      <trkpt lat="45.90679" lon="6.18041">
        <ele>1067.5</ele>
        <time>2000-01-01T22:01:58.000Z</time>
      </trkpt>
      <trkpt lat="45.9069" lon="6.18019">
        <ele>1071</ele>
        <time>2000-01-01T22:02:08.000Z</time>
      </trkpt>
      <trkpt lat="45.90692" lon="6.18003">
        <ele>1063.4</ele>
        <time>2000-01-01T22:02:18.000Z</time>
      </trkpt>
      <trkpt lat="45.90696" lon="6.17991">
        <ele>1063</ele>
        <time>2000-01-01T22:02:28.000Z</time>
      </trkpt>
      <trkpt lat="45.90699" lon="6.17974">
        <ele>1058.9</ele>
        <time>2000-01-01T22:02:38.000Z</time>
      </trkpt>
      <trkpt lat="45.90698" lon="6.17959">
        <ele>1060</ele>
        <time>2000-01-01T22:02:48.000Z</time>
      </trkpt>
      <trkpt lat="45.90698" lon="6.17928">
        <ele>1060</ele>
        <time>2000-01-01T22:02:58.000Z</time>
      </trkpt>
      <trkpt lat="45.90694" lon="6.17915">
        <ele>1058</ele>
        <time>2000-01-01T22:03:08.000Z</time>
      </trkpt>
      <trkpt lat="45.90694" lon="6.17898">
        <ele>1055</ele>
        <time>2000-01-01T22:03:18.000Z</time>
      </trkpt>
      <trkpt lat="45.90695" lon="6.17885">
        <ele>1053.3</ele>
        <time>2000-01-01T22:03:28.000Z</time>
      </trkpt>
      <trkpt lat="45.90697" lon="6.17872">
        <ele>1051.1</ele>
        <time>2000-01-01T22:03:38.000Z</time>
      </trkpt>
      <trkpt lat="45.90702" lon="6.17859">
        <ele>1048</ele>
        <time>2000-01-01T22:03:48.000Z</time>
      </trkpt>
      <trkpt lat="45.90705" lon="6.17844">
        <ele>1046.6</ele>
        <time>2000-01-01T22:03:58.000Z</time>
      </trkpt>
      <trkpt lat="45.90709" lon="6.17829">
        <ele>1047</ele>
        <time>2000-01-01T22:04:08.000Z</time>
      </trkpt>
      <trkpt lat="45.90714" lon="6.17816">
        <ele>1040.5</ele>
        <time>2000-01-01T22:04:18.000Z</time>
      </trkpt>
      <trkpt lat="45.90713" lon="6.17801">
        <ele>1039</ele>
        <time>2000-01-01T22:04:28.000Z</time>
      </trkpt>
      <trkpt lat="45.90718" lon="6.17788">
        <ele>1034.8</ele>
        <time>2000-01-01T22:04:38.000Z</time>
      </trkpt>
      <trkpt lat="45.9072" lon="6.17775">
        <ele>1033</ele>
        <time>2000-01-01T22:04:48.000Z</time>
      </trkpt>
      <trkpt lat="45.90722" lon="6.17744">
        <ele>1026</ele>
        <time>2000-01-01T22:04:58.000Z</time>
      </trkpt>
      <trkpt lat="45.90725" lon="6.1773">
        <ele>1024.3</ele>
        <time>2000-01-01T22:05:08.000Z</time>
      </trkpt>
      <trkpt lat="45.90725" lon="6.17715">
        <ele>1024</ele>
        <time>2000-01-01T22:05:18.000Z</time>
      </trkpt>
      <trkpt lat="45.90721" lon="6.17701">
        <ele>1023.4</ele>
        <time>2000-01-01T22:05:28.000Z</time>
      </trkpt>
      <trkpt lat="45.90722" lon="6.17687">
        <ele>1020</ele>
        <time>2000-01-01T22:05:38.000Z</time>
      </trkpt>
      <trkpt lat="45.9074" lon="6.17669">
        <ele>1018</ele>
        <time>2000-01-01T22:05:48.000Z</time>
      </trkpt>
      <trkpt lat="45.90747" lon="6.1764">
        <ele>1011</ele>
        <time>2000-01-01T22:05:58.000Z</time>
      </trkpt>
      <trkpt lat="45.90748" lon="6.17627">
        <ele>1005.6</ele>
        <time>2000-01-01T22:06:08.000Z</time>
      </trkpt>
      <trkpt lat="45.90748" lon="6.17613">
        <ele>1008</ele>
        <time>2000-01-01T22:06:18.000Z</time>
      </trkpt>
      <trkpt lat="45.90753" lon="6.17601">
        <ele>1000.5</ele>
        <time>2000-01-01T22:06:28.000Z</time>
      </trkpt>
      <trkpt lat="45.90755" lon="6.17587">
        <ele>998</ele>
        <time>2000-01-01T22:06:38.000Z</time>
      </trkpt>
      <trkpt lat="45.9076" lon="6.17571">
        <ele>993.5</ele>
        <time>2000-01-01T22:06:48.000Z</time>
      </trkpt>
      <trkpt lat="45.90762" lon="6.17556">
        <ele>990</ele>
        <time>2000-01-01T22:06:58.000Z</time>
      </trkpt>
      <trkpt lat="45.90762" lon="6.17542">
        <ele>988</ele>
        <time>2000-01-01T22:07:08.000Z</time>
      </trkpt>
      <trkpt lat="45.90757" lon="6.1753">
        <ele>986</ele>
        <time>2000-01-01T22:07:18.000Z</time>
      </trkpt>
      <trkpt lat="45.90753" lon="6.17516">
        <ele>985.6</ele>
        <time>2000-01-01T22:07:28.000Z</time>
      </trkpt>
      <trkpt lat="45.90757" lon="6.17488">
        <ele>979</ele>
        <time>2000-01-01T22:07:38.000Z</time>
      </trkpt>
      <trkpt lat="45.90761" lon="6.17476">
        <ele>976</ele>
        <time>2000-01-01T22:07:48.000Z</time>
      </trkpt>
      <trkpt lat="45.90761" lon="6.17463">
        <ele>973.6</ele>
        <time>2000-01-01T22:07:58.000Z</time>
      </trkpt>
      <trkpt lat="45.90759" lon="6.17432">
        <ele>970</ele>
        <time>2000-01-01T22:08:08.000Z</time>
      </trkpt>
      <trkpt lat="45.90763" lon="6.17419">
        <ele>964.4</ele>
        <time>2000-01-01T22:08:18.000Z</time>
      </trkpt>
      <trkpt lat="45.90769" lon="6.17409">
        <ele>964</ele>
        <time>2000-01-01T22:08:28.000Z</time>
      </trkpt>
      <trkpt lat="45.90775" lon="6.17395">
        <ele>955.4</ele>
        <time>2000-01-01T22:08:38.000Z</time>
      </trkpt>
      <trkpt lat="45.90781" lon="6.17383">
        <ele>949</ele>
        <time>2000-01-01T22:08:48.000Z</time>
      </trkpt>
      <trkpt lat="45.9079" lon="6.17388">
        <ele>948</ele>
        <time>2000-01-01T22:08:58.000Z</time>
      </trkpt>
      <trkpt lat="45.90798" lon="6.17382">
        <ele>943.6</ele>
        <time>2000-01-01T22:09:08.000Z</time>
      </trkpt>
      <trkpt lat="45.90801" lon="6.17368">
        <ele>939</ele>
        <time>2000-01-01T22:09:18.000Z</time>
      </trkpt>
      <trkpt lat="45.90802" lon="6.17338">
        <ele>935</ele>
        <time>2000-01-01T22:09:28.000Z</time>
      </trkpt>
      <trkpt lat="45.90804" lon="6.17325">
        <ele>932.5</ele>
        <time>2000-01-01T22:09:38.000Z</time>
      </trkpt>
      <trkpt lat="45.90803" lon="6.1731">
        <ele>932</ele>
        <time>2000-01-01T22:09:48.000Z</time>
      </trkpt>
      <trkpt lat="45.90805" lon="6.17294">
        <ele>927.1</ele>
        <time>2000-01-01T22:09:58.000Z</time>
      </trkpt>
      <trkpt lat="45.90802" lon="6.17281">
        <ele>927</ele>
        <time>2000-01-01T22:10:08.000Z</time>
      </trkpt>
      <trkpt lat="45.90803" lon="6.17268">
        <ele>923.1</ele>
        <time>2000-01-01T22:10:18.000Z</time>
      </trkpt>
      <trkpt lat="45.90826" lon="6.17258">
        <ele>915</ele>
        <time>2000-01-01T22:10:28.000Z</time>
      </trkpt>
      <trkpt lat="45.90851" lon="6.17261">
        <ele>914</ele>
        <time>2000-01-01T22:10:38.000Z</time>
      </trkpt>
      <trkpt lat="45.90877" lon="6.17299">
        <ele>910</ele>
        <time>2000-01-01T22:10:48.000Z</time>
      </trkpt>
      <trkpt lat="45.90895" lon="6.17333">
        <ele>902</ele>
        <time>2000-01-01T22:10:58.000Z</time>
      </trkpt>
      <trkpt lat="45.90918" lon="6.17361">
        <ele>896</ele>
        <time>2000-01-01T22:11:08.000Z</time>
      </trkpt>
      <trkpt lat="45.90936" lon="6.17385">
        <ele>891</ele>
        <time>2000-01-01T22:11:18.000Z</time>
      </trkpt>
      <trkpt lat="45.90957" lon="6.17411">
        <ele>887</ele>
        <time>2000-01-01T22:11:28.000Z</time>
      </trkpt>
      <trkpt lat="45.90981" lon="6.17456">
        <ele>883</ele>
        <time>2000-01-01T22:11:38.000Z</time>
      </trkpt>
      <trkpt lat="45.90992" lon="6.17467">
        <ele>882.4</ele>
        <time>2000-01-01T22:11:48.000Z</time>
      </trkpt>
      <trkpt lat="45.91011" lon="6.1749">
        <ele>877</ele>
        <time>2000-01-01T22:11:58.000Z</time>
      </trkpt>
      <trkpt lat="45.91021" lon="6.17505">
        <ele>871.8</ele>
        <time>2000-01-01T22:12:08.000Z</time>
      </trkpt>
      <trkpt lat="45.91057" lon="6.17603">
        <ele>864</ele>
        <time>2000-01-01T22:12:18.000Z</time>
      </trkpt>
      <trkpt lat="45.91059" lon="6.17669">
        <ele>858</ele>
        <time>2000-01-01T22:12:28.000Z</time>
      </trkpt>
      <trkpt lat="45.91075" lon="6.17726">
        <ele>853</ele>
        <time>2000-01-01T22:12:38.000Z</time>
      </trkpt>
      <trkpt lat="45.91094" lon="6.17755">
        <ele>847</ele>
        <time>2000-01-01T22:12:48.000Z</time>
      </trkpt>
      <trkpt lat="45.91122" lon="6.17797">
        <ele>839</ele>
        <time>2000-01-01T22:12:58.000Z</time>
      </trkpt>
      <trkpt lat="45.91145" lon="6.17814">
        <ele>834</ele>
        <time>2000-01-01T22:13:08.000Z</time>
      </trkpt>
      <trkpt lat="45.91172" lon="6.17835">
        <ele>826</ele>
        <time>2000-01-01T22:13:18.000Z</time>
      </trkpt>
      <trkpt lat="45.91187" lon="6.1784">
        <ele>823.8</ele>
        <time>2000-01-01T22:13:28.000Z</time>
      </trkpt>
      <trkpt lat="45.91197" lon="6.1783">
        <ele>826</ele>
        <time>2000-01-01T22:13:38.000Z</time>
      </trkpt>
      <trkpt lat="45.91206" lon="6.17828">
        <ele>826.8</ele>
        <time>2000-01-01T22:13:48.000Z</time>
      </trkpt>
      <trkpt lat="45.91213" lon="6.17836">
        <ele>826</ele>
        <time>2000-01-01T22:13:58.000Z</time>
      </trkpt>
      <trkpt lat="45.91221" lon="6.17849">
        <ele>822</ele>
        <time>2000-01-01T22:14:08.000Z</time>
      </trkpt>
      <trkpt lat="45.91227" lon="6.17863">
        <ele>819</ele>
        <time>2000-01-01T22:14:18.000Z</time>
      </trkpt>
      <trkpt lat="45.91237" lon="6.17871">
        <ele>817.9</ele>
        <time>2000-01-01T22:14:28.000Z</time>
      </trkpt>
      <trkpt lat="45.91244" lon="6.1788">
        <ele>817</ele>
        <time>2000-01-01T22:14:38.000Z</time>
      </trkpt>
      <trkpt lat="45.91252" lon="6.17887">
        <ele>814.3</ele>
        <time>2000-01-01T22:14:48.000Z</time>
      </trkpt>
      <trkpt lat="45.91263" lon="6.17891">
        <ele>819</ele>
        <time>2000-01-01T22:14:58.000Z</time>
      </trkpt>
      <trkpt lat="45.91273" lon="6.17894">
        <ele>817.8</ele>
        <time>2000-01-01T22:15:08.000Z</time>
      </trkpt>
      <trkpt lat="45.91281" lon="6.17898">
        <ele>819</ele>
        <time>2000-01-01T22:15:18.000Z</time>
      </trkpt>
      <trkpt lat="45.91291" lon="6.17903">
        <ele>817.8</ele>
        <time>2000-01-01T22:15:28.000Z</time>
      </trkpt>
      <trkpt lat="45.913" lon="6.17909">
        <ele>819</ele>
        <time>2000-01-01T22:15:38.000Z</time>
      </trkpt>
      <trkpt lat="45.91309" lon="6.17915">
        <ele>814.5</ele>
        <time>2000-01-01T22:15:48.000Z</time>
      </trkpt>
      <trkpt lat="45.91319" lon="6.1792">
        <ele>813</ele>
        <time>2000-01-01T22:15:58.000Z</time>
      </trkpt>
      <trkpt lat="45.91328" lon="6.17922">
        <ele>810.6</ele>
        <time>2000-01-01T22:16:08.000Z</time>
      </trkpt>
      <trkpt lat="45.9134" lon="6.17922">
        <ele>813</ele>
        <time>2000-01-01T22:16:18.000Z</time>
      </trkpt>
      <trkpt lat="45.91351" lon="6.1792">
        <ele>811.6</ele>
        <time>2000-01-01T22:16:28.000Z</time>
      </trkpt>
      <trkpt lat="45.91362" lon="6.1792">
        <ele>814</ele>
        <time>2000-01-01T22:16:38.000Z</time>
      </trkpt>
      <trkpt lat="45.91373" lon="6.17913">
        <ele>812.9</ele>
        <time>2000-01-01T22:16:48.000Z</time>
      </trkpt>
      <trkpt lat="45.91382" lon="6.17907">
        <ele>815</ele>
        <time>2000-01-01T22:16:58.000Z</time>
      </trkpt>
      <trkpt lat="45.91391" lon="6.17897">
        <ele>814.9</ele>
        <time>2000-01-01T22:17:08.000Z</time>
      </trkpt>
      <trkpt lat="45.914" lon="6.17892">
        <ele>811</ele>
        <time>2000-01-01T22:17:18.000Z</time>
      </trkpt>
      <trkpt lat="45.91409" lon="6.17899">
        <ele>807.7</ele>
        <time>2000-01-01T22:17:28.000Z</time>
      </trkpt>
      <trkpt lat="45.9142" lon="6.179">
        <ele>808</ele>
        <time>2000-01-01T22:17:38.000Z</time>
      </trkpt>
      <trkpt lat="45.91429" lon="6.17909">
        <ele>800.4</ele>
        <time>2000-01-01T22:17:48.000Z</time>
      </trkpt>
      <trkpt lat="45.91441" lon="6.17931">
        <ele>795</ele>
        <time>2000-01-01T22:17:58.000Z</time>
      </trkpt>
      <trkpt lat="45.91446" lon="6.17944">
        <ele>792.3</ele>
        <time>2000-01-01T22:18:08.000Z</time>
      </trkpt>
      <trkpt lat="45.91446" lon="6.17959">
        <ele>793</ele>
        <time>2000-01-01T22:18:18.000Z</time>
      </trkpt>
      <trkpt lat="45.91444" lon="6.17973">
        <ele>786.9</ele>
        <time>2000-01-01T22:18:28.000Z</time>
      </trkpt>
      <trkpt lat="45.91437" lon="6.17982">
        <ele>788</ele>
        <time>2000-01-01T22:18:38.000Z</time>
      </trkpt>
      <trkpt lat="45.91441" lon="6.17994">
        <ele>781.2</ele>
        <time>2000-01-01T22:18:48.000Z</time>
      </trkpt>
      <trkpt lat="45.91438" lon="6.18008">
        <ele>781</ele>
        <time>2000-01-01T22:18:58.000Z</time>
      </trkpt>
      <trkpt lat="45.91431" lon="6.18018">
        <ele>775.3</ele>
        <time>2000-01-01T22:19:08.000Z</time>
      </trkpt>
      <trkpt lat="45.91424" lon="6.18026">
        <ele>774</ele>
        <time>2000-01-01T22:19:18.000Z</time>
      </trkpt>
      <trkpt lat="45.91414" lon="6.18027">
        <ele>773.4</ele>
        <time>2000-01-01T22:19:28.000Z</time>
      </trkpt>
      <trkpt lat="45.91406" lon="6.18036">
        <ele>773</ele>
        <time>2000-01-01T22:19:38.000Z</time>
      </trkpt>
      <trkpt lat="45.91395" lon="6.1806">
        <ele>770</ele>
        <time>2000-01-01T22:19:48.000Z</time>
      </trkpt>
      <trkpt lat="45.91381" lon="6.18083">
        <ele>769</ele>
        <time>2000-01-01T22:19:58.000Z</time>
      </trkpt>
      <trkpt lat="45.91391" lon="6.1808">
        <ele>765.2</ele>
        <time>2000-01-01T22:20:08.000Z</time>
      </trkpt>
      <trkpt lat="45.91398" lon="6.18069">
        <ele>769</ele>
        <time>2000-01-01T22:20:18.000Z</time>
      </trkpt>
      <trkpt lat="45.91405" lon="6.18061">
        <ele>766.5</ele>
        <time>2000-01-01T22:20:28.000Z</time>
      </trkpt>
      <trkpt lat="45.91429" lon="6.18037">
        <ele>769</ele>
        <time>2000-01-01T22:20:38.000Z</time>
      </trkpt>
      <trkpt lat="45.91438" lon="6.18032">
        <ele>770.5</ele>
        <time>2000-01-01T22:20:48.000Z</time>
      </trkpt>
      <trkpt lat="45.91448" lon="6.18031">
        <ele>770</ele>
        <time>2000-01-01T22:20:58.000Z</time>
      </trkpt>
      <trkpt lat="45.91458" lon="6.18032">
        <ele>766.9</ele>
        <time>2000-01-01T22:21:08.000Z</time>
      </trkpt>
      <trkpt lat="45.91467" lon="6.18024">
        <ele>768</ele>
        <time>2000-01-01T22:21:18.000Z</time>
      </trkpt>
      <trkpt lat="45.91475" lon="6.18013">
        <ele>766.9</ele>
        <time>2000-01-01T22:21:28.000Z</time>
      </trkpt>
      <trkpt lat="45.91483" lon="6.18002">
        <ele>768</ele>
        <time>2000-01-01T22:21:38.000Z</time>
      </trkpt>
      <trkpt lat="45.91489" lon="6.17989">
        <ele>766.5</ele>
        <time>2000-01-01T22:21:48.000Z</time>
      </trkpt>
      <trkpt lat="45.91495" lon="6.17978">
        <ele>767</ele>
        <time>2000-01-01T22:21:58.000Z</time>
      </trkpt>
      <trkpt lat="45.91504" lon="6.17949">
        <ele>767</ele>
        <time>2000-01-01T22:22:08.000Z</time>
      </trkpt>
      <trkpt lat="45.91513" lon="6.17922">
        <ele>765</ele>
        <time>2000-01-01T22:22:18.000Z</time>
      </trkpt>
      <trkpt lat="45.91516" lon="6.17907">
        <ele>760.8</ele>
        <time>2000-01-01T22:22:28.000Z</time>
      </trkpt>
      <trkpt lat="45.91513" lon="6.17895">
        <ele>762</ele>
        <time>2000-01-01T22:22:38.000Z</time>
      </trkpt>
      <trkpt lat="45.91512" lon="6.1788">
        <ele>761.1</ele>
        <time>2000-01-01T22:22:48.000Z</time>
      </trkpt>
      <trkpt lat="45.91512" lon="6.17864">
        <ele>762</ele>
        <time>2000-01-01T22:22:58.000Z</time>
      </trkpt>
      <trkpt lat="45.9151" lon="6.17849">
        <ele>761.6</ele>
        <time>2000-01-01T22:23:08.000Z</time>
      </trkpt>
      <trkpt lat="45.91513" lon="6.17834">
        <ele>761</ele>
        <time>2000-01-01T22:23:18.000Z</time>
      </trkpt>
      <trkpt lat="45.91513" lon="6.17806">
        <ele>761</ele>
        <time>2000-01-01T22:23:28.000Z</time>
      </trkpt>
      <trkpt lat="45.91516" lon="6.17791">
        <ele>759.1</ele>
        <time>2000-01-01T22:23:38.000Z</time>
      </trkpt>
      <trkpt lat="45.91523" lon="6.17779">
        <ele>757</ele>
        <time>2000-01-01T22:23:48.000Z</time>
      </trkpt>
      <trkpt lat="45.91528" lon="6.17768">
        <ele>751.3</ele>
        <time>2000-01-01T22:23:58.000Z</time>
      </trkpt>
      <trkpt lat="45.91533" lon="6.17753">
        <ele>750</ele>
        <time>2000-01-01T22:24:08.000Z</time>
      </trkpt>
      <trkpt lat="45.91537" lon="6.17737">
        <ele>749.9</ele>
        <time>2000-01-01T22:24:18.000Z</time>
      </trkpt>
      <trkpt lat="45.9154" lon="6.17723">
        <ele>749</ele>
        <time>2000-01-01T22:24:28.000Z</time>
      </trkpt>
      <trkpt lat="45.91552" lon="6.17697">
        <ele>751</ele>
        <time>2000-01-01T22:24:38.000Z</time>
      </trkpt>
      <trkpt lat="45.91553" lon="6.17684">
        <ele>747.3</ele>
        <time>2000-01-01T22:24:48.000Z</time>
      </trkpt>
      <trkpt lat="45.91551" lon="6.17671">
        <ele>749.5</ele>
        <time>2000-01-01T22:24:58.000Z</time>
      </trkpt>
      <trkpt lat="45.9156" lon="6.17646">
        <ele>750</ele>
        <time>2000-01-01T22:25:08.000Z</time>
      </trkpt>
      <trkpt lat="45.91564" lon="6.17631">
        <ele>747.7</ele>
        <time>2000-01-01T22:25:18.000Z</time>
      </trkpt>
      <trkpt lat="45.91569" lon="6.1762">
        <ele>749</ele>
        <time>2000-01-01T22:25:28.000Z</time>
      </trkpt>
      <trkpt lat="45.91585" lon="6.17584">
        <ele>741</ele>
        <time>2000-01-01T22:25:38.000Z</time>
      </trkpt>
      <trkpt lat="45.91588" lon="6.17572">
        <ele>738.3</ele>
        <time>2000-01-01T22:25:48.000Z</time>
      </trkpt>
      <trkpt lat="45.91592" lon="6.17559">
        <ele>739.2</ele>
        <time>2000-01-01T22:25:58.000Z</time>
      </trkpt>
      <trkpt lat="45.91597" lon="6.17547">
        <ele>740</ele>
        <time>2000-01-01T22:26:08.000Z</time>
      </trkpt>
      <trkpt lat="45.91604" lon="6.17535">
        <ele>733.7</ele>
        <time>2000-01-01T22:26:18.000Z</time>
      </trkpt>
      <trkpt lat="45.91611" lon="6.17524">
        <ele>730</ele>
        <time>2000-01-01T22:26:28.000Z</time>
      </trkpt>
      <trkpt lat="45.91619" lon="6.17515">
        <ele>724.1</ele>
        <time>2000-01-01T22:26:38.000Z</time>
      </trkpt>
      <trkpt lat="45.91624" lon="6.175">
        <ele>722</ele>
        <time>2000-01-01T22:26:48.000Z</time>
      </trkpt>
      <trkpt lat="45.91625" lon="6.17483">
        <ele>720.2</ele>
        <time>2000-01-01T22:26:58.000Z</time>
      </trkpt>
      <trkpt lat="45.91624" lon="6.1747">
        <ele>718</ele>
        <time>2000-01-01T22:27:08.000Z</time>
      </trkpt>
      <trkpt lat="45.91623" lon="6.17456">
        <ele>717.7</ele>
        <time>2000-01-01T22:27:18.000Z</time>
      </trkpt>
      <trkpt lat="45.91621" lon="6.17442">
        <ele>716</ele>
        <time>2000-01-01T22:27:28.000Z</time>
      </trkpt>
      <trkpt lat="45.91607" lon="6.17402">
        <ele>715</ele>
        <time>2000-01-01T22:27:38.000Z</time>
      </trkpt>
      <trkpt lat="45.91602" lon="6.17389">
        <ele>711.9</ele>
        <time>2000-01-01T22:27:48.000Z</time>
      </trkpt>
      <trkpt lat="45.91594" lon="6.1738">
        <ele>711</ele>
        <time>2000-01-01T22:27:58.000Z</time>
      </trkpt>
      <trkpt lat="45.91581" lon="6.17359">
        <ele>713</ele>
        <time>2000-01-01T22:28:08.000Z</time>
      </trkpt>
      <trkpt lat="45.91572" lon="6.17351">
        <ele>716.3</ele>
        <time>2000-01-01T22:28:18.000Z</time>
      </trkpt>
      <trkpt lat="45.91563" lon="6.17349">
        <ele>716</ele>
        <time>2000-01-01T22:28:28.000Z</time>
      </trkpt>
      <trkpt lat="45.91554" lon="6.17342">
        <ele>722.8</ele>
        <time>2000-01-01T22:28:38.000Z</time>
      </trkpt>
      <trkpt lat="45.91547" lon="6.17332">
        <ele>724</ele>
        <time>2000-01-01T22:28:48.000Z</time>
      </trkpt>
      <trkpt lat="45.91539" lon="6.17324">
        <ele>722.5</ele>
        <time>2000-01-01T22:28:58.000Z</time>
      </trkpt>
      <trkpt lat="45.91529" lon="6.17318">
        <ele>724</ele>
        <time>2000-01-01T22:29:08.000Z</time>
      </trkpt>
      <trkpt lat="45.9152" lon="6.17312">
        <ele>728.2</ele>
        <time>2000-01-01T22:29:18.000Z</time>
      </trkpt>
      <trkpt lat="45.91513" lon="6.17298">
        <ele>722</ele>
        <time>2000-01-01T22:29:28.000Z</time>
      </trkpt>
      <trkpt lat="45.91509" lon="6.17285">
        <ele>723.9</ele>
        <time>2000-01-01T22:29:38.000Z</time>
      </trkpt>
      <trkpt lat="45.91506" lon="6.17272">
        <ele>721</ele>
        <time>2000-01-01T22:29:48.000Z</time>
      </trkpt>
      <trkpt lat="45.91502" lon="6.17259">
        <ele>716.9</ele>
        <time>2000-01-01T22:29:58.000Z</time>
      </trkpt>
      <trkpt lat="45.91496" lon="6.17248">
        <ele>715</ele>
        <time>2000-01-01T22:30:08.000Z</time>
      </trkpt>
      <trkpt lat="45.91486" lon="6.1724">
        <ele>717.8</ele>
        <time>2000-01-01T22:30:18.000Z</time>
      </trkpt>
      <trkpt lat="45.91476" lon="6.17216">
        <ele>712</ele>
        <time>2000-01-01T22:30:28.000Z</time>
      </trkpt>
      <trkpt lat="45.91472" lon="6.17202">
        <ele>708.8</ele>
        <time>2000-01-01T22:30:38.000Z</time>
      </trkpt>
      <trkpt lat="45.91479" lon="6.17193">
        <ele>704</ele>
        <time>2000-01-01T22:30:48.000Z</time>
      </trkpt>
      <trkpt lat="45.9148" lon="6.17179">
        <ele>696.1</ele>
        <time>2000-01-01T22:30:58.000Z</time>
      </trkpt>
      <trkpt lat="45.91472" lon="6.17167">
        <ele>698</ele>
        <time>2000-01-01T22:31:08.000Z</time>
      </trkpt>
      <trkpt lat="45.91465" lon="6.17154">
        <ele>692</ele>
        <time>2000-01-01T22:31:18.000Z</time>
      </trkpt>
      <trkpt lat="45.91459" lon="6.17144">
        <ele>693</ele>
        <time>2000-01-01T22:31:28.000Z</time>
      </trkpt>
      <trkpt lat="45.91455" lon="6.17132">
        <ele>687.1</ele>
        <time>2000-01-01T22:31:38.000Z</time>
      </trkpt>
      <trkpt lat="45.91465" lon="6.1713">
        <ele>688</ele>
        <time>2000-01-01T22:31:48.000Z</time>
      </trkpt>
      <trkpt lat="45.91478" lon="6.17148">
        <ele>684</ele>
        <time>2000-01-01T22:31:58.000Z</time>
      </trkpt>
      <trkpt lat="45.91487" lon="6.17153">
        <ele>683</ele>
        <time>2000-01-01T22:32:08.000Z</time>
      </trkpt>
      <trkpt lat="45.91495" lon="6.1716">
        <ele>682.1</ele>
        <time>2000-01-01T22:32:18.000Z</time>
      </trkpt>
      <trkpt lat="45.91506" lon="6.17167">
        <ele>679</ele>
        <time>2000-01-01T22:32:28.000Z</time>
      </trkpt>
      <trkpt lat="45.91543" lon="6.17186">
        <ele>670</ele>
        <time>2000-01-01T22:32:38.000Z</time>
      </trkpt>
      <trkpt lat="45.91552" lon="6.17186">
        <ele>667.8</ele>
        <time>2000-01-01T22:32:48.000Z</time>
      </trkpt>
      <trkpt lat="45.91545" lon="6.17178">
        <ele>668.8</ele>
        <time>2000-01-01T22:32:58.000Z</time>
      </trkpt>
      <trkpt lat="45.91538" lon="6.17166">
        <ele>668</ele>
        <time>2000-01-01T22:33:08.000Z</time>
      </trkpt>
      <trkpt lat="45.91533" lon="6.17152">
        <ele>666.9</ele>
        <time>2000-01-01T22:33:18.000Z</time>
      </trkpt>
      <trkpt lat="45.91527" lon="6.17139">
        <ele>665</ele>
        <time>2000-01-01T22:33:28.000Z</time>
      </trkpt>
      <trkpt lat="45.91522" lon="6.17128">
        <ele>664</ele>
        <time>2000-01-01T22:33:38.000Z</time>
      </trkpt>
      <trkpt lat="45.91517" lon="6.17113">
        <ele>662</ele>
        <time>2000-01-01T22:33:48.000Z</time>
      </trkpt>
      <trkpt lat="45.91509" lon="6.171">
        <ele>660.3</ele>
        <time>2000-01-01T22:33:58.000Z</time>
      </trkpt>
      <trkpt lat="45.91504" lon="6.17085">
        <ele>656</ele>
        <time>2000-01-01T22:34:08.000Z</time>
      </trkpt>
      <trkpt lat="45.91499" lon="6.17073">
        <ele>656.3</ele>
        <time>2000-01-01T22:34:18.000Z</time>
      </trkpt>
      <trkpt lat="45.91491" lon="6.17065">
        <ele>654</ele>
        <time>2000-01-01T22:34:28.000Z</time>
      </trkpt>
      <trkpt lat="45.91482" lon="6.17058">
        <ele>655.6</ele>
        <time>2000-01-01T22:34:38.000Z</time>
      </trkpt>
      <trkpt lat="45.91473" lon="6.17049">
        <ele>653</ele>
        <time>2000-01-01T22:34:48.000Z</time>
      </trkpt>
      <trkpt lat="45.91463" lon="6.17041">
        <ele>654.3</ele>
        <time>2000-01-01T22:34:58.000Z</time>
      </trkpt>
      <trkpt lat="45.91455" lon="6.17032">
        <ele>653</ele>
        <time>2000-01-01T22:35:08.000Z</time>
      </trkpt>
      <trkpt lat="45.91444" lon="6.17029">
        <ele>654.4</ele>
        <time>2000-01-01T22:35:18.000Z</time>
      </trkpt>
      <trkpt lat="45.91424" lon="6.17021">
        <ele>657</ele>
        <time>2000-01-01T22:35:28.000Z</time>
      </trkpt>
      <trkpt lat="45.91405" lon="6.17015">
        <ele>660</ele>
        <time>2000-01-01T22:35:38.000Z</time>
      </trkpt>
      <trkpt lat="45.91396" lon="6.17011">
        <ele>662</ele>
        <time>2000-01-01T22:35:48.000Z</time>
      </trkpt>
      <trkpt lat="45.91377" lon="6.17011">
        <ele>662</ele>
        <time>2000-01-01T22:35:58.000Z</time>
      </trkpt>
      <trkpt lat="45.91368" lon="6.17002">
        <ele>667</ele>
        <time>2000-01-01T22:36:08.000Z</time>
      </trkpt>
      <trkpt lat="45.91354" lon="6.16981">
        <ele>664</ele>
        <time>2000-01-01T22:36:18.000Z</time>
      </trkpt>
      <trkpt lat="45.91346" lon="6.16972">
        <ele>663.8</ele>
        <time>2000-01-01T22:36:28.000Z</time>
      </trkpt>
      <trkpt lat="45.91326" lon="6.16956">
        <ele>664</ele>
        <time>2000-01-01T22:36:38.000Z</time>
      </trkpt>
      <trkpt lat="45.91317" lon="6.16951">
        <ele>666.2</ele>
        <time>2000-01-01T22:36:48.000Z</time>
      </trkpt>
      <trkpt lat="45.91305" lon="6.16946">
        <ele>663</ele>
        <time>2000-01-01T22:36:58.000Z</time>
      </trkpt>
      <trkpt lat="45.91296" lon="6.16938">
        <ele>666.6</ele>
        <time>2000-01-01T22:37:08.000Z</time>
      </trkpt>
      <trkpt lat="45.91281" lon="6.16923">
        <ele>662</ele>
        <time>2000-01-01T22:37:18.000Z</time>
      </trkpt>
      <trkpt lat="45.91273" lon="6.16917">
        <ele>663.8</ele>
        <time>2000-01-01T22:37:28.000Z</time>
      </trkpt>
      <trkpt lat="45.91272" lon="6.16903">
        <ele>660</ele>
        <time>2000-01-01T22:37:38.000Z</time>
      </trkpt>
      <trkpt lat="45.91271" lon="6.16888">
        <ele>656.5</ele>
        <time>2000-01-01T22:37:48.000Z</time>
      </trkpt>
      <trkpt lat="45.91272" lon="6.16874">
        <ele>652</ele>
        <time>2000-01-01T22:37:58.000Z</time>
      </trkpt>
      <trkpt lat="45.9127" lon="6.16861">
        <ele>648.9</ele>
        <time>2000-01-01T22:38:08.000Z</time>
      </trkpt>
      <trkpt lat="45.91259" lon="6.16823">
        <ele>640</ele>
        <time>2000-01-01T22:38:18.000Z</time>
      </trkpt>
      <trkpt lat="45.91251" lon="6.16812">
        <ele>637.2</ele>
        <time>2000-01-01T22:38:28.000Z</time>
      </trkpt>
      <trkpt lat="45.9124" lon="6.16788">
        <ele>627</ele>
        <time>2000-01-01T22:38:38.000Z</time>
      </trkpt>
      <trkpt lat="45.91221" lon="6.16765">
        <ele>622</ele>
        <time>2000-01-01T22:38:48.000Z</time>
      </trkpt>
      <trkpt lat="45.91206" lon="6.1675">
        <ele>619.8</ele>
        <time>2000-01-01T22:38:58.000Z</time>
      </trkpt>
      <trkpt lat="45.91188" lon="6.16737">
        <ele>614</ele>
        <time>2000-01-01T22:39:08.000Z</time>
      </trkpt>
      <trkpt lat="45.91178" lon="6.16731">
        <ele>614.5</ele>
        <time>2000-01-01T22:39:18.000Z</time>
      </trkpt>
      <trkpt lat="45.91169" lon="6.16725">
        <ele>610</ele>
        <time>2000-01-01T22:39:28.000Z</time>
      </trkpt>
      <trkpt lat="45.91159" lon="6.1672">
        <ele>610.6</ele>
        <time>2000-01-01T22:39:38.000Z</time>
      </trkpt>
      <trkpt lat="45.91152" lon="6.16711">
        <ele>607</ele>
        <time>2000-01-01T22:39:48.000Z</time>
      </trkpt>
      <trkpt lat="45.91141" lon="6.16704">
        <ele>604.6</ele>
        <time>2000-01-01T22:39:58.000Z</time>
      </trkpt>
      <trkpt lat="45.91133" lon="6.16695">
        <ele>599</ele>
        <time>2000-01-01T22:40:08.000Z</time>
      </trkpt>
      <trkpt lat="45.91124" lon="6.16687">
        <ele>596.9</ele>
        <time>2000-01-01T22:40:18.000Z</time>
      </trkpt>
      <trkpt lat="45.91106" lon="6.16674">
        <ele>590</ele>
        <time>2000-01-01T22:40:28.000Z</time>
      </trkpt>
      <trkpt lat="45.91098" lon="6.16667">
        <ele>590.1</ele>
        <time>2000-01-01T22:40:38.000Z</time>
      </trkpt>
      <trkpt lat="45.9109" lon="6.1666">
        <ele>585</ele>
        <time>2000-01-01T22:40:48.000Z</time>
      </trkpt>
      <trkpt lat="45.91084" lon="6.16645">
        <ele>585.3</ele>
        <time>2000-01-01T22:40:58.000Z</time>
      </trkpt>
      <trkpt lat="45.91082" lon="6.1663">
        <ele>582</ele>
        <time>2000-01-01T22:41:08.000Z</time>
      </trkpt>
      <trkpt lat="45.91082" lon="6.16616">
        <ele>579</ele>
        <time>2000-01-01T22:41:18.000Z</time>
      </trkpt>
      <trkpt lat="45.91078" lon="6.16601">
        <ele>575</ele>
        <time>2000-01-01T22:41:28.000Z</time>
      </trkpt>
      <trkpt lat="45.91069" lon="6.16598">
        <ele>574.2</ele>
        <time>2000-01-01T22:41:38.000Z</time>
      </trkpt>
      <trkpt lat="45.91058" lon="6.166">
        <ele>571</ele>
        <time>2000-01-01T22:41:48.000Z</time>
      </trkpt>
      <trkpt lat="45.91049" lon="6.16599">
        <ele>573.8</ele>
        <time>2000-01-01T22:41:58.000Z</time>
      </trkpt>
      <trkpt lat="45.91029" lon="6.16591">
        <ele>571</ele>
        <time>2000-01-01T22:42:08.000Z</time>
      </trkpt>
      <trkpt lat="45.9099" lon="6.16583">
        <ele>571</ele>
        <time>2000-01-01T22:42:18.000Z</time>
      </trkpt>
      <trkpt lat="45.9097" lon="6.16588">
        <ele>571</ele>
        <time>2000-01-01T22:42:28.000Z</time>
      </trkpt>
      <trkpt lat="45.9096" lon="6.16592">
        <ele>574</ele>
        <time>2000-01-01T22:42:38.000Z</time>
      </trkpt>
      <trkpt lat="45.9095" lon="6.16591">
        <ele>571</ele>
        <time>2000-01-01T22:42:48.000Z</time>
      </trkpt>
      <trkpt lat="45.90943" lon="6.16599">
        <ele>575</ele>
        <time>2000-01-01T22:42:58.000Z</time>
      </trkpt>
      <trkpt lat="45.90933" lon="6.16605">
        <ele>574</ele>
        <time>2000-01-01T22:43:08.000Z</time>
      </trkpt>
      <trkpt lat="45.90923" lon="6.16599">
        <ele>575.1</ele>
        <time>2000-01-01T22:43:18.000Z</time>
      </trkpt>
      <trkpt lat="45.90914" lon="6.166">
        <ele>574</ele>
        <time>2000-01-01T22:43:28.000Z</time>
      </trkpt>
      <trkpt lat="45.90902" lon="6.16602">
        <ele>577.1</ele>
        <time>2000-01-01T22:43:38.000Z</time>
      </trkpt>
      <trkpt lat="45.90891" lon="6.16605">
        <ele>575</ele>
        <time>2000-01-01T22:43:48.000Z</time>
      </trkpt>
      <trkpt lat="45.90879" lon="6.16603">
        <ele>580</ele>
        <time>2000-01-01T22:43:58.000Z</time>
      </trkpt>
      <trkpt lat="45.90867" lon="6.166">
        <ele>576</ele>
        <time>2000-01-01T22:44:08.000Z</time>
      </trkpt>
      <trkpt lat="45.90847" lon="6.1659">
        <ele>575</ele>
        <time>2000-01-01T22:44:18.000Z</time>
      </trkpt>
      <trkpt lat="45.90837" lon="6.16588">
        <ele>578.1</ele>
        <time>2000-01-01T22:44:28.000Z</time>
      </trkpt>
      <trkpt lat="45.90826" lon="6.16582">
        <ele>575</ele>
        <time>2000-01-01T22:44:38.000Z</time>
      </trkpt>
      <trkpt lat="45.90817" lon="6.1658">
        <ele>576.2</ele>
        <time>2000-01-01T22:44:48.000Z</time>
      </trkpt>
      <trkpt lat="45.90798" lon="6.16587">
        <ele>578</ele>
        <time>2000-01-01T22:44:58.000Z</time>
      </trkpt>
      <trkpt lat="45.90757" lon="6.16583">
        <ele>579</ele>
        <time>2000-01-01T22:45:08.000Z</time>
      </trkpt>
      <trkpt lat="45.90746" lon="6.16584">
        <ele>587.9</ele>
        <time>2000-01-01T22:45:18.000Z</time>
      </trkpt>
      <trkpt lat="45.90727" lon="6.16571">
        <ele>576</ele>
        <time>2000-01-01T22:45:28.000Z</time>
      </trkpt>
      <trkpt lat="45.90719" lon="6.16564">
        <ele>579.4</ele>
        <time>2000-01-01T22:45:38.000Z</time>
      </trkpt>
      <trkpt lat="45.9071" lon="6.16557">
        <ele>574</ele>
        <time>2000-01-01T22:45:48.000Z</time>
      </trkpt>
      <trkpt lat="45.907" lon="6.16546">
        <ele>571</ele>
        <time>2000-01-01T22:45:58.000Z</time>
      </trkpt>
      <trkpt lat="45.90692" lon="6.16536">
        <ele>566</ele>
        <time>2000-01-01T22:46:08.000Z</time>
      </trkpt>
      <trkpt lat="45.90681" lon="6.1653">
        <ele>567.8</ele>
        <time>2000-01-01T22:46:18.000Z</time>
      </trkpt>
      <trkpt lat="45.90669" lon="6.16526">
        <ele>564</ele>
        <time>2000-01-01T22:46:28.000Z</time>
      </trkpt>
      <trkpt lat="45.9065" lon="6.16518">
        <ele>560</ele>
        <time>2000-01-01T22:46:38.000Z</time>
      </trkpt>
      <trkpt lat="45.90641" lon="6.16512">
        <ele>561.6</ele>
        <time>2000-01-01T22:46:48.000Z</time>
      </trkpt>
      <trkpt lat="45.90635" lon="6.16499">
        <ele>549</ele>
        <time>2000-01-01T22:46:58.000Z</time>
      </trkpt>
      <trkpt lat="45.90618" lon="6.16481">
        <ele>548</ele>
        <time>2000-01-01T22:47:08.000Z</time>
      </trkpt>
      <trkpt lat="45.9061" lon="6.16475">
        <ele>545.8</ele>
        <time>2000-01-01T22:47:18.000Z</time>
      </trkpt>
      <trkpt lat="45.90592" lon="6.16463">
        <ele>544</ele>
        <time>2000-01-01T22:47:28.000Z</time>
      </trkpt>
      <trkpt lat="45.90582" lon="6.16458">
        <ele>544</ele>
        <time>2000-01-01T22:47:38.000Z</time>
      </trkpt>
      <trkpt lat="45.90571" lon="6.16455">
        <ele>542</ele>
        <time>2000-01-01T22:47:48.000Z</time>
      </trkpt>
      <trkpt lat="45.90562" lon="6.16446">
        <ele>540.4</ele>
        <time>2000-01-01T22:47:58.000Z</time>
      </trkpt>
      <trkpt lat="45.90555" lon="6.16437">
        <ele>534</ele>
        <time>2000-01-01T22:48:08.000Z</time>
      </trkpt>
      <trkpt lat="45.90546" lon="6.16432">
        <ele>536.1</ele>
        <time>2000-01-01T22:48:18.000Z</time>
      </trkpt>
      <trkpt lat="45.90512" lon="6.16394">
        <ele>524</ele>
        <time>2000-01-01T22:48:28.000Z</time>
      </trkpt>
      <trkpt lat="45.90505" lon="6.16384">
        <ele>521.2</ele>
        <time>2000-01-01T22:48:38.000Z</time>
      </trkpt>
      <trkpt lat="45.90496" lon="6.16376">
        <ele>514</ele>
        <time>2000-01-01T22:48:48.000Z</time>
      </trkpt>
      <trkpt lat="45.90472" lon="6.16349">
        <ele>507</ele>
        <time>2000-01-01T22:48:58.000Z</time>
      </trkpt>
      <trkpt lat="45.90464" lon="6.16336">
        <ele>507</ele>
        <time>2000-01-01T22:49:08.000Z</time>
      </trkpt>
      <trkpt lat="45.90456" lon="6.16326">
        <ele>503</ele>
        <time>2000-01-01T22:49:18.000Z</time>
      </trkpt>
      <trkpt lat="45.90447" lon="6.16317">
        <ele>502.2</ele>
        <time>2000-01-01T22:49:28.000Z</time>
      </trkpt>
      <trkpt lat="45.90436" lon="6.16309">
        <ele>497</ele>
        <time>2000-01-01T22:49:38.000Z</time>
      </trkpt>
      <trkpt lat="45.90429" lon="6.16301">
        <ele>496.8</ele>
        <time>2000-01-01T22:49:48.000Z</time>
      </trkpt>
      <trkpt lat="45.90423" lon="6.16287">
        <ele>490</ele>
        <time>2000-01-01T22:49:58.000Z</time>
      </trkpt>
      <trkpt lat="45.90422" lon="6.1626">
        <ele>486.6</ele>
        <time>2000-01-01T22:50:08.000Z</time>
      </trkpt>
      <trkpt lat="45.90421" lon="6.16245">
        <ele>482</ele>
        <time>2000-01-01T22:50:18.000Z</time>
      </trkpt>
      <trkpt lat="45.90421" lon="6.16229">
        <ele>480.5</ele>
        <time>2000-01-01T22:50:28.000Z</time>
      </trkpt>
      <trkpt lat="45.90422" lon="6.16216">
        <ele>477</ele>
        <time>2000-01-01T22:50:38.000Z</time>
      </trkpt>
      <trkpt lat="45.90425" lon="6.162">
        <ele>476.4</ele>
        <time>2000-01-01T22:50:48.000Z</time>
      </trkpt>
      <trkpt lat="45.90428" lon="6.16185">
        <ele>473</ele>
        <time>2000-01-01T22:50:58.000Z</time>
      </trkpt>
      <trkpt lat="45.90428" lon="6.16172">
        <ele>472.9</ele>
        <time>2000-01-01T22:51:08.000Z</time>
      </trkpt>
      <trkpt lat="45.90426" lon="6.16158">
        <ele>470</ele>
        <time>2000-01-01T22:51:18.000Z</time>
      </trkpt>
      <trkpt lat="45.9043" lon="6.16143">
        <ele>469.1</ele>
        <time>2000-01-01T22:51:28.000Z</time>
      </trkpt>
      <trkpt lat="45.90425" lon="6.16127">
        <ele>466</ele>
        <time>2000-01-01T22:51:38.000Z</time>
      </trkpt>
      <trkpt lat="45.90417" lon="6.16119">
        <ele>465.8</ele>
        <time>2000-01-01T22:51:48.000Z</time>
      </trkpt>
      <trkpt lat="45.90409" lon="6.16114">
        <ele>465</ele>
        <time>2000-01-01T22:51:58.000Z</time>
      </trkpt>
      <trkpt lat="45.90402" lon="6.16104">
        <ele>463</ele>
        <time>2000-01-01T22:52:08.000Z</time>
      </trkpt>
      <trkpt lat="45.90393" lon="6.16078">
        <ele>459</ele>
        <time>2000-01-01T22:52:18.000Z</time>
      </trkpt>
      <trkpt lat="45.9039" lon="6.16061">
        <ele>457.7</ele>
        <time>2000-01-01T22:52:28.000Z</time>
      </trkpt>
      <trkpt lat="45.90378" lon="6.16038">
        <ele>452</ele>
        <time>2000-01-01T22:52:38.000Z</time>
      </trkpt>
      <trkpt lat="45.90367" lon="6.16014">
        <ele>449</ele>
        <time>2000-01-01T22:52:48.000Z</time>
      </trkpt>
      <trkpt lat="45.90366" lon="6.16001">
        <ele>449.3</ele>
        <time>2000-01-01T22:52:58.000Z</time>
      </trkpt>
      <trkpt lat="45.90368" lon="6.15988">
        <ele>448.5</ele>
        <time>2000-01-01T22:53:08.000Z</time>
      </trkpt>
      <trkpt lat="45.90372" lon="6.15975">
        <ele>448</ele>
        <time>2000-01-01T22:53:18.000Z</time>
      </trkpt>
      <trkpt lat="45.90379" lon="6.15966">
        <ele>448</ele>
        <time>2000-01-01T22:53:28.000Z</time>
      </trkpt>
      <trkpt lat="45.90389" lon="6.15966">
        <ele>448</ele>
        <time>2000-01-01T22:53:38.000Z</time>
      </trkpt>
      <trkpt lat="45.90395" lon="6.15955">
        <ele>447.9</ele>
        <time>2000-01-01T22:53:48.000Z</time>
      </trkpt>
      <trkpt lat="45.90405" lon="6.15952">
        <ele>446</ele>
        <time>2000-01-01T22:53:58.000Z</time>
      </trkpt>
      <trkpt lat="45.90412" lon="6.15942">
        <ele>447.8</ele>
        <time>2000-01-01T22:54:08.000Z</time>
      </trkpt>
      <trkpt lat="45.90417" lon="6.1593">
        <ele>446</ele>
        <time>2000-01-01T22:54:18.000Z</time>
      </trkpt>
      <trkpt lat="45.90426" lon="6.15922">
        <ele>447.2</ele>
        <time>2000-01-01T22:54:28.000Z</time>
      </trkpt>
      <trkpt lat="45.90445" lon="6.15909">
        <ele>446</ele>
        <time>2000-01-01T22:54:38.000Z</time>
      </trkpt>
      <trkpt lat="45.90455" lon="6.15904">
        <ele>447.2</ele>
        <time>2000-01-01T22:54:48.000Z</time>
      </trkpt>
      <trkpt lat="45.90473" lon="6.15887">
        <ele>446</ele>
        <time>2000-01-01T22:54:58.000Z</time>
      </trkpt>
      <trkpt lat="45.90483" lon="6.15878">
        <ele>447.2</ele>
        <time>2000-01-01T22:55:08.000Z</time>
      </trkpt>
      <trkpt lat="45.90491" lon="6.15869">
        <ele>446</ele>
        <time>2000-01-01T22:55:18.000Z</time>
      </trkpt>
      <trkpt lat="45.90499" lon="6.15857">
        <ele>447</ele>
        <time>2000-01-01T22:55:28.000Z</time>
      </trkpt>
      <trkpt lat="45.90505" lon="6.15842">
        <ele>446</ele>
        <time>2000-01-01T22:55:38.000Z</time>
      </trkpt>
      <trkpt lat="45.90509" lon="6.1583">
        <ele>447.3</ele>
        <time>2000-01-01T22:55:48.000Z</time>
      </trkpt>
      <trkpt lat="45.90514" lon="6.15816">
        <ele>446</ele>
        <time>2000-01-01T22:55:58.000Z</time>
      </trkpt>
      <trkpt lat="45.90518" lon="6.158">
        <ele>447.5</ele>
        <time>2000-01-01T22:56:08.000Z</time>
      </trkpt>
      <trkpt lat="45.90524" lon="6.15786">
        <ele>446</ele>
        <time>2000-01-01T22:56:18.000Z</time>
      </trkpt>
      <trkpt lat="45.90534" lon="6.15771">
        <ele>447.2</ele>
        <time>2000-01-01T22:56:28.000Z</time>
      </trkpt>
      <trkpt lat="45.9055" lon="6.1574">
        <ele>446</ele>
        <time>2000-01-01T22:56:38.000Z</time>
      </trkpt>
      <trkpt lat="45.90557" lon="6.15728">
        <ele>447.2</ele>
        <time>2000-01-01T22:56:48.000Z</time>
      </trkpt>
      <trkpt lat="45.90563" lon="6.15717">
        <ele>446</ele>
        <time>2000-01-01T22:56:58.000Z</time>
      </trkpt>
      <trkpt lat="45.90571" lon="6.15706">
        <ele>447.6</ele>
        <time>2000-01-01T22:57:08.000Z</time>
      </trkpt>
      <trkpt lat="45.90577" lon="6.15693">
        <ele>446</ele>
        <time>2000-01-01T22:57:18.000Z</time>
      </trkpt>
      <trkpt lat="45.90579" lon="6.15675">
        <ele>447.8</ele>
        <time>2000-01-01T22:57:28.000Z</time>
      </trkpt>
      <trkpt lat="45.9058" lon="6.15662">
        <ele>447</ele>
        <time>2000-01-01T22:57:38.000Z</time>
      </trkpt>
      <trkpt lat="45.90583" lon="6.15635">
        <ele>447</ele>
        <time>2000-01-01T22:57:48.000Z</time>
      </trkpt>
      <trkpt lat="45.90586" lon="6.15599">
        <ele>447</ele>
        <time>2000-01-01T22:57:58.000Z</time>
      </trkpt>
      <trkpt lat="45.90586" lon="6.15591">
        <ele>448</ele>
        <time>2000-01-01T22:58:08.000Z</time>
      </trkpt>
      <trkpt lat="45.90584" lon="6.15573">
        <ele>448</ele>
        <time>2000-01-01T22:58:18.000Z</time>
      </trkpt>
      <trkpt lat="45.90581" lon="6.15546">
        <ele>446</ele>
        <time>2000-01-01T22:58:28.000Z</time>
      </trkpt>
      <trkpt lat="45.90576" lon="6.15536">
        <ele>447.7</ele>
        <time>2000-01-01T22:58:38.000Z</time>
      </trkpt>
      <trkpt lat="45.90572" lon="6.15524">
        <ele>447.6</ele>
        <time>2000-01-01T22:58:48.000Z</time>
      </trkpt>
      <trkpt lat="45.9057" lon="6.15508">
        <ele>446</ele>
        <time>2000-01-01T22:58:58.000Z</time>
      </trkpt>
      <trkpt lat="45.90569" lon="6.15494">
        <ele>447.5</ele>
        <time>2000-01-01T22:59:08.000Z</time>
      </trkpt>
      <trkpt lat="45.90566" lon="6.15473">
        <ele>446</ele>
        <time>2000-01-01T22:59:18.000Z</time>
      </trkpt>
      <trkpt lat="45.90564" lon="6.15464">
        <ele>447.3</ele>
        <time>2000-01-01T22:59:28.000Z</time>
      </trkpt>
      <trkpt lat="45.90561" lon="6.15439">
        <ele>446</ele>
        <time>2000-01-01T22:59:38.000Z</time>
      </trkpt>
      <trkpt lat="45.90554" lon="6.15405">
        <ele>446</ele>
        <time>2000-01-01T22:59:48.000Z</time>
      </trkpt>
      <trkpt lat="45.90553" lon="6.154">
        <ele>447</ele>
        <time>2000-01-01T22:59:58.000Z</time>
      </trkpt>
      <trkpt lat="45.90553" lon="6.15385">
        <ele>447.1</ele>
        <time>2000-01-01T23:00:08.000Z</time>
      </trkpt>
      <trkpt lat="45.90552" lon="6.15369">
        <ele>446</ele>
        <time>2000-01-01T23:00:18.000Z</time>
      </trkpt>
      <trkpt lat="45.90549" lon="6.15345">
        <ele>447.8</ele>
        <time>2000-01-01T23:00:28.000Z</time>
      </trkpt>
      <trkpt lat="45.90547" lon="6.15331">
        <ele>446</ele>
        <time>2000-01-01T23:00:38.000Z</time>
      </trkpt>
      <trkpt lat="45.90546" lon="6.15314">
        <ele>448.1</ele>
        <time>2000-01-01T23:00:48.000Z</time>
      </trkpt>
      <trkpt lat="45.90544" lon="6.153">
        <ele>446</ele>
        <time>2000-01-01T23:00:58.000Z</time>
      </trkpt>
      <trkpt lat="45.9054" lon="6.15285">
        <ele>447.6</ele>
        <time>2000-01-01T23:01:08.000Z</time>
      </trkpt>
      <trkpt lat="45.90537" lon="6.15264">
        <ele>446</ele>
        <time>2000-01-01T23:01:18.000Z</time>
      </trkpt>
      <trkpt lat="45.90533" lon="6.15251">
        <ele>447.2</ele>
        <time>2000-01-01T23:01:28.000Z</time>
      </trkpt>
      <trkpt lat="45.90529" lon="6.15223">
        <ele>446</ele>
        <time>2000-01-01T23:01:38.000Z</time>
      </trkpt>
      <trkpt lat="45.90526" lon="6.15192">
        <ele>447</ele>
        <time>2000-01-01T23:01:48.000Z</time>
      </trkpt>
      <trkpt lat="45.90519" lon="6.15183">
        <ele>447.4</ele>
        <time>2000-01-01T23:01:58.000Z</time>
      </trkpt>
      <trkpt lat="45.90509" lon="6.15173">
        <ele>447</ele>
        <time>2000-01-01T23:02:08.000Z</time>
      </trkpt>
      <trkpt lat="45.905" lon="6.15165">
        <ele>448</ele>
        <time>2000-01-01T23:02:18.000Z</time>
      </trkpt>
      <trkpt lat="45.90493" lon="6.15154">
        <ele>447</ele>
        <time>2000-01-01T23:02:28.000Z</time>
      </trkpt>
      <trkpt lat="45.90478" lon="6.1513">
        <ele>447</ele>
        <time>2000-01-01T23:02:38.000Z</time>
      </trkpt>
      <trkpt lat="45.90468" lon="6.15127">
        <ele>447.4</ele>
        <time>2000-01-01T23:02:48.000Z</time>
      </trkpt>
      <trkpt lat="45.9046" lon="6.15122">
        <ele>447</ele>
        <time>2000-01-01T23:02:58.000Z</time>
      </trkpt>
      <trkpt lat="45.90451" lon="6.15111">
        <ele>447.2</ele>
        <time>2000-01-01T23:03:08.000Z</time>
      </trkpt>
      <trkpt lat="45.90451" lon="6.15096">
        <ele>447</ele>
        <time>2000-01-01T23:03:18.000Z</time>
      </trkpt>
      <trkpt lat="45.90457" lon="6.15082">
        <ele>447.5</ele>
        <time>2000-01-01T23:03:28.000Z</time>
      </trkpt>
      <trkpt lat="45.90462" lon="6.15068">
        <ele>447</ele>
        <time>2000-01-01T23:03:38.000Z</time>
      </trkpt>
      <trkpt lat="45.90469" lon="6.15035">
        <ele>447</ele>
        <time>2000-01-01T23:03:48.000Z</time>
      </trkpt>
      <trkpt lat="45.90471" lon="6.15023">
        <ele>448</ele>
        <time>2000-01-01T23:03:58.000Z</time>
      </trkpt>
      <trkpt lat="45.90471" lon="6.15012">
        <ele>448</ele>
        <time>2000-01-01T23:04:08.000Z</time>
      </trkpt>
      <trkpt lat="45.90471" lon="6.15003">
        <ele>447</ele>
        <time>2000-01-01T23:04:18.000Z</time>
      </trkpt>
      <trkpt lat="45.90471" lon="6.14998">
        <ele>448</ele>
        <time>2000-01-01T23:04:28.000Z</time>
      </trkpt>
      <trkpt lat="45.90467" lon="6.14975">
        <ele>447</ele>
        <time>2000-01-01T23:04:38.000Z</time>
      </trkpt>
      <trkpt lat="45.90463" lon="6.14967">
        <ele>447.7</ele>
        <time>2000-01-01T23:04:48.000Z</time>
      </trkpt>
      <trkpt lat="45.90464" lon="6.1496">
        <ele>447.7</ele>
        <time>2000-01-01T23:04:58.000Z</time>
      </trkpt>
      <trkpt lat="45.90466" lon="6.14959">
        <ele>447.8</ele>
        <time>2000-01-01T23:05:08.000Z</time>
      </trkpt>
      <trkpt lat="45.90465" lon="6.14957">
        <ele>447.7</ele>
        <time>2000-01-01T23:05:18.000Z</time>
      </trkpt>
      <trkpt lat="45.90443" lon="6.14808">
        <ele>447</ele>
        <time>2000-01-01T23:05:28.000Z</time>
      </trkpt>
    </trkseg>
  </trk>
</gpx>